<?xml version="1.0" encoding="UTF-8" standalone="no" ?>
<gpx xmlns="http://www.topografix.com/GPX/1/1" xmlns:xsi="http://www.w3.org/2001/XMLSchema-instance" xsi:schemaLocation="http://www.topografix.com/GPX/1/1 http://www.topografix.com/GPX/1/1/gpx.xsd" version="1.1" creator="VisuGPX - https://www.visugpx.com">
  <metadata>
    <name>Pyrénées J7 Tour de l'Aneto 2018-08-07</name>
    <desc><![CDATA[Voyage en Pyrénnées depuis Grenoble en moto par les petites routes virolantes Tourisme en local]]></desc>
  </metadata>
  <wpt lat="42.78399" lon="0.59664">
    <ele>573.27</ele>
    <name><![CDATA[0000199]]></name>
    <type><![CDATA[Point de départ]]></type>
  </wpt>
  <wpt lat="42.78411" lon="0.59645">
    <ele>632.58</ele>
    <name><![CDATA[0000200]]></name>
    <desc><![CDATA[<p><br /><h3>Nom: Segment: 1</h3><br />Heure de départ: 08/07/2018 07:45<br/>Heure d'arrivée: 08/07/2018 15:46<br/>Distance: 297,7km (08:00)<br/>Temps déplacement: 04:15<br/>Vitesse moyenne: 37,15 km/h<br/>Vitesse moyenne mouv.: 64,84 km/h<br/>Vitesse Max.: 129 km/h<br/>Altitude minimale: 573 m<br/>Altitude maximale: 1807 m<br/>Vitesse de montée: 2012,4 m/h<br/>Vitesse de descente: -1668,4 m/h<br/>Gain d'altitude: 6727 m<br/>Perte d'altitude: -6668 m<br/>Temps de montée: 03:20<br/>Temps de descente: 03:59<br/></p>]]></desc>
    <type><![CDATA[Point d'arrivée]]></type>
  </wpt>
  <trk>
    <name><![CDATA[2018-08-07 07:44]]></name>
    <desc><![CDATA[<p>Heure de départ: 08/07/2018 07:45<br/>Heure d'arrivée: 08/07/2018 15:46<br/>Distance: 297,7 km (08:00)<br/>Temps déplacement: 04:15<br/>Vitesse moyenne: 37,15 km/h<br/>Vitesse moyenne mouv.: 69,96 km/h<br/>Vitesse Max.: 129 km/h<br/>Altitude minimale: 573 m<br/>Altitude maximale: 1807 m<br/>Vitesse de montée: 1659 m/h<br/>Vitesse de descente: -1476,2 m/h<br/>Gain d'altitude: 6162 m<br/>Perte d'altitude: -6164 m<br/>Temps de montée: 03:42<br/>Temps de descente: 04:10<br/></p><hr align="center" width="480" style="height: 2px; width: 517px"/>]]></desc>
    <trkseg>
      <trkpt lat="42.78399" lon="0.59664">
        <ele>573.27</ele>
        <time>2018-08-07T05:45:35Z</time>
      </trkpt>
      <trkpt lat="42.78409" lon="0.59643">
        <ele>642.27</ele>
        <time>2018-08-07T05:54:16Z</time>
      </trkpt>
      <trkpt lat="42.78389" lon="0.59632">
        <ele>640.17</ele>
        <time>2018-08-07T05:54:47Z</time>
      </trkpt>
      <trkpt lat="42.78368" lon="0.59645">
        <ele>638.36</ele>
        <time>2018-08-07T05:54:51Z</time>
      </trkpt>
      <trkpt lat="42.78348" lon="0.59659">
        <ele>640.58</ele>
        <time>2018-08-07T05:54:54Z</time>
      </trkpt>
      <trkpt lat="42.78328" lon="0.59673">
        <ele>641.04</ele>
        <time>2018-08-07T05:54:57Z</time>
      </trkpt>
      <trkpt lat="42.78311" lon="0.59683">
        <ele>638.68</ele>
        <time>2018-08-07T05:55:00Z</time>
      </trkpt>
      <trkpt lat="42.78288" lon="0.59695">
        <ele>637.37</ele>
        <time>2018-08-07T05:55:03Z</time>
      </trkpt>
      <trkpt lat="42.78267" lon="0.5971">
        <ele>638.88</ele>
        <time>2018-08-07T05:55:06Z</time>
      </trkpt>
      <trkpt lat="42.78266" lon="0.59748">
        <ele>639.32</ele>
        <time>2018-08-07T05:55:09Z</time>
      </trkpt>
      <trkpt lat="42.78267" lon="0.59776">
        <ele>638.36</ele>
        <time>2018-08-07T05:55:11Z</time>
      </trkpt>
      <trkpt lat="42.78266" lon="0.59808">
        <ele>637.58</ele>
        <time>2018-08-07T05:55:13Z</time>
      </trkpt>
      <trkpt lat="42.78265" lon="0.5984">
        <ele>638.2</ele>
        <time>2018-08-07T05:55:15Z</time>
      </trkpt>
      <trkpt lat="42.78264" lon="0.5987">
        <ele>639.17</ele>
        <time>2018-08-07T05:55:17Z</time>
      </trkpt>
      <trkpt lat="42.78264" lon="0.599">
        <ele>639.96</ele>
        <time>2018-08-07T05:55:19Z</time>
      </trkpt>
      <trkpt lat="42.78264" lon="0.5993">
        <ele>640.24</ele>
        <time>2018-08-07T05:55:21Z</time>
      </trkpt>
      <trkpt lat="42.78264" lon="0.59961">
        <ele>638.65</ele>
        <time>2018-08-07T05:55:23Z</time>
      </trkpt>
      <trkpt lat="42.78264" lon="0.59993">
        <ele>639.21</ele>
        <time>2018-08-07T05:55:25Z</time>
      </trkpt>
      <trkpt lat="42.78264" lon="0.60022">
        <ele>639.26</ele>
        <time>2018-08-07T05:55:27Z</time>
      </trkpt>
      <trkpt lat="42.78264" lon="0.60051">
        <ele>640.18</ele>
        <time>2018-08-07T05:55:29Z</time>
      </trkpt>
      <trkpt lat="42.78263" lon="0.60078">
        <ele>641.17</ele>
        <time>2018-08-07T05:55:31Z</time>
      </trkpt>
      <trkpt lat="42.78263" lon="0.60104">
        <ele>640.56</ele>
        <time>2018-08-07T05:55:33Z</time>
      </trkpt>
      <trkpt lat="42.78262" lon="0.60129">
        <ele>640.29</ele>
        <time>2018-08-07T05:55:35Z</time>
      </trkpt>
      <trkpt lat="42.7826" lon="0.60163">
        <ele>641.24</ele>
        <time>2018-08-07T05:55:38Z</time>
      </trkpt>
      <trkpt lat="42.78249" lon="0.60184">
        <ele>641.97</ele>
        <time>2018-08-07T05:55:41Z</time>
      </trkpt>
      <trkpt lat="42.78223" lon="0.60178">
        <ele>643.85</ele>
        <time>2018-08-07T05:55:43Z</time>
      </trkpt>
      <trkpt lat="42.78201" lon="0.6018">
        <ele>644.93</ele>
        <time>2018-08-07T05:55:45Z</time>
      </trkpt>
      <trkpt lat="42.78177" lon="0.60186">
        <ele>645.24</ele>
        <time>2018-08-07T05:55:47Z</time>
      </trkpt>
      <trkpt lat="42.78154" lon="0.60195">
        <ele>644.56</ele>
        <time>2018-08-07T05:55:49Z</time>
      </trkpt>
      <trkpt lat="42.78129" lon="0.60205">
        <ele>642.68</ele>
        <time>2018-08-07T05:55:51Z</time>
      </trkpt>
      <trkpt lat="42.78103" lon="0.60217">
        <ele>642.3</ele>
        <time>2018-08-07T05:55:53Z</time>
      </trkpt>
      <trkpt lat="42.78075" lon="0.60229">
        <ele>642.27</ele>
        <time>2018-08-07T05:55:55Z</time>
      </trkpt>
      <trkpt lat="42.78046" lon="0.60241">
        <ele>642.97</ele>
        <time>2018-08-07T05:55:57Z</time>
      </trkpt>
      <trkpt lat="42.78017" lon="0.60252">
        <ele>642.33</ele>
        <time>2018-08-07T05:55:59Z</time>
      </trkpt>
      <trkpt lat="42.77987" lon="0.60264">
        <ele>643.18</ele>
        <time>2018-08-07T05:56:01Z</time>
      </trkpt>
      <trkpt lat="42.77959" lon="0.60277">
        <ele>643.96</ele>
        <time>2018-08-07T05:56:03Z</time>
      </trkpt>
      <trkpt lat="42.7793" lon="0.60291">
        <ele>644.03</ele>
        <time>2018-08-07T05:56:05Z</time>
      </trkpt>
      <trkpt lat="42.779" lon="0.60305">
        <ele>644.25</ele>
        <time>2018-08-07T05:56:07Z</time>
      </trkpt>
      <trkpt lat="42.7787" lon="0.60319">
        <ele>644.27</ele>
        <time>2018-08-07T05:56:09Z</time>
      </trkpt>
      <trkpt lat="42.7784" lon="0.60334">
        <ele>644.27</ele>
        <time>2018-08-07T05:56:11Z</time>
      </trkpt>
      <trkpt lat="42.77808" lon="0.6035">
        <ele>644.97</ele>
        <time>2018-08-07T05:56:13Z</time>
      </trkpt>
      <trkpt lat="42.77776" lon="0.60364">
        <ele>645.94</ele>
        <time>2018-08-07T05:56:15Z</time>
      </trkpt>
      <trkpt lat="42.77745" lon="0.60378">
        <ele>646.94</ele>
        <time>2018-08-07T05:56:17Z</time>
      </trkpt>
      <trkpt lat="42.77715" lon="0.60393">
        <ele>647.94</ele>
        <time>2018-08-07T05:56:19Z</time>
      </trkpt>
      <trkpt lat="42.77685" lon="0.60407">
        <ele>648.94</ele>
        <time>2018-08-07T05:56:21Z</time>
      </trkpt>
      <trkpt lat="42.77655" lon="0.60419">
        <ele>649.24</ele>
        <time>2018-08-07T05:56:23Z</time>
      </trkpt>
      <trkpt lat="42.77623" lon="0.60429">
        <ele>649.96</ele>
        <time>2018-08-07T05:56:25Z</time>
      </trkpt>
      <trkpt lat="42.7759" lon="0.60443">
        <ele>650.94</ele>
        <time>2018-08-07T05:56:27Z</time>
      </trkpt>
      <trkpt lat="42.77557" lon="0.60459">
        <ele>651.94</ele>
        <time>2018-08-07T05:56:29Z</time>
      </trkpt>
      <trkpt lat="42.77524" lon="0.60477">
        <ele>652.24</ele>
        <time>2018-08-07T05:56:31Z</time>
      </trkpt>
      <trkpt lat="42.77507" lon="0.60486">
        <ele>652.96</ele>
        <time>2018-08-07T05:56:32Z</time>
      </trkpt>
      <trkpt lat="42.77475" lon="0.60502">
        <ele>653.94</ele>
        <time>2018-08-07T05:56:34Z</time>
      </trkpt>
      <trkpt lat="42.77445" lon="0.60521">
        <ele>655.85</ele>
        <time>2018-08-07T05:56:36Z</time>
      </trkpt>
      <trkpt lat="42.77415" lon="0.60544">
        <ele>657.84</ele>
        <time>2018-08-07T05:56:38Z</time>
      </trkpt>
      <trkpt lat="42.77384" lon="0.60568">
        <ele>658.23</ele>
        <time>2018-08-07T05:56:40Z</time>
      </trkpt>
      <trkpt lat="42.77354" lon="0.60594">
        <ele>660.57</ele>
        <time>2018-08-07T05:56:42Z</time>
      </trkpt>
      <trkpt lat="42.77328" lon="0.60622">
        <ele>664.42</ele>
        <time>2018-08-07T05:56:44Z</time>
      </trkpt>
      <trkpt lat="42.77305" lon="0.60638">
        <ele>668.41</ele>
        <time>2018-08-07T05:56:46Z</time>
      </trkpt>
      <trkpt lat="42.77284" lon="0.60639">
        <ele>669.19</ele>
        <time>2018-08-07T05:56:48Z</time>
      </trkpt>
      <trkpt lat="42.7727" lon="0.60623">
        <ele>670.87</ele>
        <time>2018-08-07T05:56:50Z</time>
      </trkpt>
      <trkpt lat="42.77254" lon="0.60603">
        <ele>672.14</ele>
        <time>2018-08-07T05:56:52Z</time>
      </trkpt>
      <trkpt lat="42.77235" lon="0.60568">
        <ele>672.26</ele>
        <time>2018-08-07T05:56:54Z</time>
      </trkpt>
      <trkpt lat="42.77212" lon="0.60548">
        <ele>673.18</ele>
        <time>2018-08-07T05:56:56Z</time>
      </trkpt>
      <trkpt lat="42.77179" lon="0.60565">
        <ele>674.87</ele>
        <time>2018-08-07T05:56:58Z</time>
      </trkpt>
      <trkpt lat="42.77171" lon="0.60597">
        <ele>675.85</ele>
        <time>2018-08-07T05:56:59Z</time>
      </trkpt>
      <trkpt lat="42.7716" lon="0.60634">
        <ele>677.54</ele>
        <time>2018-08-07T05:57:00Z</time>
      </trkpt>
      <trkpt lat="42.77144" lon="0.60653">
        <ele>680.15</ele>
        <time>2018-08-07T05:57:01Z</time>
      </trkpt>
      <trkpt lat="42.77127" lon="0.6067">
        <ele>682.33</ele>
        <time>2018-08-07T05:57:02Z</time>
      </trkpt>
      <trkpt lat="42.77109" lon="0.60686">
        <ele>683.69</ele>
        <time>2018-08-07T05:57:03Z</time>
      </trkpt>
      <trkpt lat="42.77091" lon="0.60702">
        <ele>684.79</ele>
        <time>2018-08-07T05:57:04Z</time>
      </trkpt>
      <trkpt lat="42.77072" lon="0.60719">
        <ele>685.82</ele>
        <time>2018-08-07T05:57:05Z</time>
      </trkpt>
      <trkpt lat="42.77053" lon="0.60733">
        <ele>686.13</ele>
        <time>2018-08-07T05:57:06Z</time>
      </trkpt>
      <trkpt lat="42.77035" lon="0.60749">
        <ele>686.23</ele>
        <time>2018-08-07T05:57:07Z</time>
      </trkpt>
      <trkpt lat="42.77017" lon="0.60765">
        <ele>686.26</ele>
        <time>2018-08-07T05:57:08Z</time>
      </trkpt>
      <trkpt lat="42.77" lon="0.60779">
        <ele>686.26</ele>
        <time>2018-08-07T05:57:09Z</time>
      </trkpt>
      <trkpt lat="42.76981" lon="0.60791">
        <ele>687.67</ele>
        <time>2018-08-07T05:57:10Z</time>
      </trkpt>
      <trkpt lat="42.76962" lon="0.60802">
        <ele>688.09</ele>
        <time>2018-08-07T05:57:11Z</time>
      </trkpt>
      <trkpt lat="42.76945" lon="0.60816">
        <ele>688.21</ele>
        <time>2018-08-07T05:57:12Z</time>
      </trkpt>
      <trkpt lat="42.76929" lon="0.6083">
        <ele>688.95</ele>
        <time>2018-08-07T05:57:13Z</time>
      </trkpt>
      <trkpt lat="42.76915" lon="0.60846">
        <ele>689.17</ele>
        <time>2018-08-07T05:57:14Z</time>
      </trkpt>
      <trkpt lat="42.769" lon="0.60876">
        <ele>691.36</ele>
        <time>2018-08-07T05:57:16Z</time>
      </trkpt>
      <trkpt lat="42.76896" lon="0.60911">
        <ele>695.41</ele>
        <time>2018-08-07T05:57:18Z</time>
      </trkpt>
      <trkpt lat="42.76891" lon="0.60951">
        <ele>700.11</ele>
        <time>2018-08-07T05:57:20Z</time>
      </trkpt>
      <trkpt lat="42.76878" lon="0.60993">
        <ele>703.96</ele>
        <time>2018-08-07T05:57:22Z</time>
      </trkpt>
      <trkpt lat="42.7687" lon="0.61038">
        <ele>707.67</ele>
        <time>2018-08-07T05:57:24Z</time>
      </trkpt>
      <trkpt lat="42.76863" lon="0.61085">
        <ele>711.43</ele>
        <time>2018-08-07T05:57:26Z</time>
      </trkpt>
      <trkpt lat="42.76857" lon="0.61108">
        <ele>712.72</ele>
        <time>2018-08-07T05:57:27Z</time>
      </trkpt>
      <trkpt lat="42.76851" lon="0.61133">
        <ele>714.5</ele>
        <time>2018-08-07T05:57:28Z</time>
      </trkpt>
      <trkpt lat="42.76845" lon="0.61158">
        <ele>717.14</ele>
        <time>2018-08-07T05:57:29Z</time>
      </trkpt>
      <trkpt lat="42.7684" lon="0.61184">
        <ele>718.63</ele>
        <time>2018-08-07T05:57:30Z</time>
      </trkpt>
      <trkpt lat="42.76834" lon="0.61208">
        <ele>719.08</ele>
        <time>2018-08-07T05:57:31Z</time>
      </trkpt>
      <trkpt lat="42.76828" lon="0.61234">
        <ele>720.61</ele>
        <time>2018-08-07T05:57:32Z</time>
      </trkpt>
      <trkpt lat="42.76824" lon="0.61258">
        <ele>722.47</ele>
        <time>2018-08-07T05:57:33Z</time>
      </trkpt>
      <trkpt lat="42.76819" lon="0.61306">
        <ele>727.12</ele>
        <time>2018-08-07T05:57:35Z</time>
      </trkpt>
      <trkpt lat="42.76817" lon="0.61331">
        <ele>728.62</ele>
        <time>2018-08-07T05:57:36Z</time>
      </trkpt>
      <trkpt lat="42.76819" lon="0.61379">
        <ele>731.73</ele>
        <time>2018-08-07T05:57:38Z</time>
      </trkpt>
      <trkpt lat="42.76821" lon="0.61404">
        <ele>732.81</ele>
        <time>2018-08-07T05:57:39Z</time>
      </trkpt>
      <trkpt lat="42.76822" lon="0.61431">
        <ele>733.83</ele>
        <time>2018-08-07T05:57:40Z</time>
      </trkpt>
      <trkpt lat="42.76822" lon="0.61457">
        <ele>735.54</ele>
        <time>2018-08-07T05:57:41Z</time>
      </trkpt>
      <trkpt lat="42.76824" lon="0.61483">
        <ele>737.45</ele>
        <time>2018-08-07T05:57:42Z</time>
      </trkpt>
      <trkpt lat="42.76826" lon="0.61511">
        <ele>740.12</ele>
        <time>2018-08-07T05:57:43Z</time>
      </trkpt>
      <trkpt lat="42.76828" lon="0.61538">
        <ele>743.72</ele>
        <time>2018-08-07T05:57:44Z</time>
      </trkpt>
      <trkpt lat="42.76829" lon="0.61565">
        <ele>746.9</ele>
        <time>2018-08-07T05:57:45Z</time>
      </trkpt>
      <trkpt lat="42.76833" lon="0.61593">
        <ele>749.96</ele>
        <time>2018-08-07T05:57:46Z</time>
      </trkpt>
      <trkpt lat="42.76837" lon="0.61619">
        <ele>752.27</ele>
        <time>2018-08-07T05:57:47Z</time>
      </trkpt>
      <trkpt lat="42.76844" lon="0.61645">
        <ele>755.07</ele>
        <time>2018-08-07T05:57:48Z</time>
      </trkpt>
      <trkpt lat="42.7685" lon="0.61671">
        <ele>756.61</ele>
        <time>2018-08-07T05:57:49Z</time>
      </trkpt>
      <trkpt lat="42.7686" lon="0.61716">
        <ele>758.82</ele>
        <time>2018-08-07T05:57:51Z</time>
      </trkpt>
      <trkpt lat="42.76865" lon="0.61765">
        <ele>759.93</ele>
        <time>2018-08-07T05:57:53Z</time>
      </trkpt>
      <trkpt lat="42.76862" lon="0.61792">
        <ele>760.86</ele>
        <time>2018-08-07T05:57:54Z</time>
      </trkpt>
      <trkpt lat="42.76861" lon="0.61818">
        <ele>762.55</ele>
        <time>2018-08-07T05:57:55Z</time>
      </trkpt>
      <trkpt lat="42.76862" lon="0.61864">
        <ele>766.42</ele>
        <time>2018-08-07T05:57:57Z</time>
      </trkpt>
      <trkpt lat="42.76866" lon="0.61902">
        <ele>769.5</ele>
        <time>2018-08-07T05:57:59Z</time>
      </trkpt>
      <trkpt lat="42.76864" lon="0.61932">
        <ele>773.42</ele>
        <time>2018-08-07T05:58:01Z</time>
      </trkpt>
      <trkpt lat="42.76874" lon="0.61956">
        <ele>777.8</ele>
        <time>2018-08-07T05:58:04Z</time>
      </trkpt>
      <trkpt lat="42.76878" lon="0.61918">
        <ele>780.8</ele>
        <time>2018-08-07T05:58:08Z</time>
      </trkpt>
      <trkpt lat="42.76876" lon="0.61883">
        <ele>782.84</ele>
        <time>2018-08-07T05:58:10Z</time>
      </trkpt>
      <trkpt lat="42.7688" lon="0.61857">
        <ele>784.84</ele>
        <time>2018-08-07T05:58:12Z</time>
      </trkpt>
      <trkpt lat="42.76898" lon="0.61863">
        <ele>789.13</ele>
        <time>2018-08-07T05:58:16Z</time>
      </trkpt>
      <trkpt lat="42.76893" lon="0.61894">
        <ele>789.25</ele>
        <time>2018-08-07T05:58:18Z</time>
      </trkpt>
      <trkpt lat="42.76892" lon="0.61928">
        <ele>790.67</ele>
        <time>2018-08-07T05:58:20Z</time>
      </trkpt>
      <trkpt lat="42.76897" lon="0.61964">
        <ele>793.73</ele>
        <time>2018-08-07T05:58:22Z</time>
      </trkpt>
      <trkpt lat="42.76913" lon="0.61998">
        <ele>794.71</ele>
        <time>2018-08-07T05:58:24Z</time>
      </trkpt>
      <trkpt lat="42.7693" lon="0.6203">
        <ele>796.83</ele>
        <time>2018-08-07T05:58:26Z</time>
      </trkpt>
      <trkpt lat="42.76945" lon="0.62064">
        <ele>797.93</ele>
        <time>2018-08-07T05:58:28Z</time>
      </trkpt>
      <trkpt lat="42.76945" lon="0.62091">
        <ele>799.85</ele>
        <time>2018-08-07T05:58:30Z</time>
      </trkpt>
      <trkpt lat="42.76923" lon="0.62102">
        <ele>804.51</ele>
        <time>2018-08-07T05:58:33Z</time>
      </trkpt>
      <trkpt lat="42.76901" lon="0.6209">
        <ele>804.99</ele>
        <time>2018-08-07T05:58:35Z</time>
      </trkpt>
      <trkpt lat="42.76873" lon="0.62078">
        <ele>806.15</ele>
        <time>2018-08-07T05:58:37Z</time>
      </trkpt>
      <trkpt lat="42.76852" lon="0.62059">
        <ele>807.17</ele>
        <time>2018-08-07T05:58:39Z</time>
      </trkpt>
      <trkpt lat="42.76845" lon="0.62034">
        <ele>807.96</ele>
        <time>2018-08-07T05:58:41Z</time>
      </trkpt>
      <trkpt lat="42.76829" lon="0.6202">
        <ele>809.17</ele>
        <time>2018-08-07T05:58:44Z</time>
      </trkpt>
      <trkpt lat="42.76814" lon="0.62043">
        <ele>812.69</ele>
        <time>2018-08-07T05:58:47Z</time>
      </trkpt>
      <trkpt lat="42.76827" lon="0.62081">
        <ele>813.22</ele>
        <time>2018-08-07T05:58:49Z</time>
      </trkpt>
      <trkpt lat="42.76853" lon="0.62105">
        <ele>815.35</ele>
        <time>2018-08-07T05:58:50Z</time>
      </trkpt>
      <trkpt lat="42.76872" lon="0.62143">
        <ele>817.79</ele>
        <time>2018-08-07T05:58:52Z</time>
      </trkpt>
      <trkpt lat="42.76898" lon="0.62175">
        <ele>819.83</ele>
        <time>2018-08-07T05:58:54Z</time>
      </trkpt>
      <trkpt lat="42.76912" lon="0.62191">
        <ele>820.84</ele>
        <time>2018-08-07T05:58:55Z</time>
      </trkpt>
      <trkpt lat="42.76926" lon="0.62206">
        <ele>822.54</ele>
        <time>2018-08-07T05:58:56Z</time>
      </trkpt>
      <trkpt lat="42.76948" lon="0.62228">
        <ele>824.11</ele>
        <time>2018-08-07T05:58:58Z</time>
      </trkpt>
      <trkpt lat="42.76972" lon="0.62235">
        <ele>826.77</ele>
        <time>2018-08-07T05:59:00Z</time>
      </trkpt>
      <trkpt lat="42.76996" lon="0.62199">
        <ele>826.55</ele>
        <time>2018-08-07T05:59:03Z</time>
      </trkpt>
      <trkpt lat="42.77006" lon="0.62178">
        <ele>826.35</ele>
        <time>2018-08-07T05:59:04Z</time>
      </trkpt>
      <trkpt lat="42.77011" lon="0.62154">
        <ele>826.99</ele>
        <time>2018-08-07T05:59:05Z</time>
      </trkpt>
      <trkpt lat="42.7701" lon="0.62128">
        <ele>827.18</ele>
        <time>2018-08-07T05:59:06Z</time>
      </trkpt>
      <trkpt lat="42.77013" lon="0.62086">
        <ele>827.96</ele>
        <time>2018-08-07T05:59:08Z</time>
      </trkpt>
      <trkpt lat="42.77024" lon="0.62057">
        <ele>832.72</ele>
        <time>2018-08-07T05:59:11Z</time>
      </trkpt>
      <trkpt lat="42.77019" lon="0.62086">
        <ele>833.88</ele>
        <time>2018-08-07T05:59:15Z</time>
      </trkpt>
      <trkpt lat="42.77016" lon="0.62121">
        <ele>836.25</ele>
        <time>2018-08-07T05:59:16Z</time>
      </trkpt>
      <trkpt lat="42.77012" lon="0.62163">
        <ele>842.22</ele>
        <time>2018-08-07T05:59:18Z</time>
      </trkpt>
      <trkpt lat="42.77012" lon="0.62205">
        <ele>844.08</ele>
        <time>2018-08-07T05:59:20Z</time>
      </trkpt>
      <trkpt lat="42.77013" lon="0.62253">
        <ele>849.08</ele>
        <time>2018-08-07T05:59:22Z</time>
      </trkpt>
      <trkpt lat="42.77013" lon="0.62278">
        <ele>851.31</ele>
        <time>2018-08-07T05:59:23Z</time>
      </trkpt>
      <trkpt lat="42.77011" lon="0.62305">
        <ele>852.68</ele>
        <time>2018-08-07T05:59:24Z</time>
      </trkpt>
      <trkpt lat="42.77007" lon="0.62332">
        <ele>853.79</ele>
        <time>2018-08-07T05:59:25Z</time>
      </trkpt>
      <trkpt lat="42.77002" lon="0.62358">
        <ele>854.82</ele>
        <time>2018-08-07T05:59:26Z</time>
      </trkpt>
      <trkpt lat="42.76996" lon="0.62385">
        <ele>855.83</ele>
        <time>2018-08-07T05:59:27Z</time>
      </trkpt>
      <trkpt lat="42.76987" lon="0.62408">
        <ele>856.14</ele>
        <time>2018-08-07T05:59:28Z</time>
      </trkpt>
      <trkpt lat="42.7698" lon="0.62431">
        <ele>858.33</ele>
        <time>2018-08-07T05:59:29Z</time>
      </trkpt>
      <trkpt lat="42.7698" lon="0.62472">
        <ele>863.38</ele>
        <time>2018-08-07T05:59:31Z</time>
      </trkpt>
      <trkpt lat="42.76991" lon="0.62508">
        <ele>870.84</ele>
        <time>2018-08-07T05:59:33Z</time>
      </trkpt>
      <trkpt lat="42.77008" lon="0.62536">
        <ele>877.18</ele>
        <time>2018-08-07T05:59:35Z</time>
      </trkpt>
      <trkpt lat="42.77017" lon="0.62572">
        <ele>882.3</ele>
        <time>2018-08-07T05:59:37Z</time>
      </trkpt>
      <trkpt lat="42.77022" lon="0.62618">
        <ele>884.79</ele>
        <time>2018-08-07T05:59:39Z</time>
      </trkpt>
      <trkpt lat="42.77022" lon="0.62644">
        <ele>885.82</ele>
        <time>2018-08-07T05:59:40Z</time>
      </trkpt>
      <trkpt lat="42.77019" lon="0.62672">
        <ele>886.83</ele>
        <time>2018-08-07T05:59:41Z</time>
      </trkpt>
      <trkpt lat="42.77017" lon="0.62701">
        <ele>887.84</ele>
        <time>2018-08-07T05:59:42Z</time>
      </trkpt>
      <trkpt lat="42.77013" lon="0.62732">
        <ele>888.84</ele>
        <time>2018-08-07T05:59:43Z</time>
      </trkpt>
      <trkpt lat="42.77008" lon="0.62762">
        <ele>889.84</ele>
        <time>2018-08-07T05:59:44Z</time>
      </trkpt>
      <trkpt lat="42.77002" lon="0.62795">
        <ele>890.14</ele>
        <time>2018-08-07T05:59:45Z</time>
      </trkpt>
      <trkpt lat="42.76997" lon="0.62829">
        <ele>890.23</ele>
        <time>2018-08-07T05:59:46Z</time>
      </trkpt>
      <trkpt lat="42.7699" lon="0.62863">
        <ele>890.96</ele>
        <time>2018-08-07T05:59:47Z</time>
      </trkpt>
      <trkpt lat="42.76983" lon="0.62898">
        <ele>891.17</ele>
        <time>2018-08-07T05:59:48Z</time>
      </trkpt>
      <trkpt lat="42.76977" lon="0.62933">
        <ele>891.24</ele>
        <time>2018-08-07T05:59:49Z</time>
      </trkpt>
      <trkpt lat="42.76972" lon="0.62969">
        <ele>892.66</ele>
        <time>2018-08-07T05:59:50Z</time>
      </trkpt>
      <trkpt lat="42.76968" lon="0.63005">
        <ele>894.48</ele>
        <time>2018-08-07T05:59:51Z</time>
      </trkpt>
      <trkpt lat="42.76962" lon="0.63041">
        <ele>895.73</ele>
        <time>2018-08-07T05:59:52Z</time>
      </trkpt>
      <trkpt lat="42.76958" lon="0.63078">
        <ele>896.81</ele>
        <time>2018-08-07T05:59:53Z</time>
      </trkpt>
      <trkpt lat="42.76953" lon="0.63114">
        <ele>898.53</ele>
        <time>2018-08-07T05:59:54Z</time>
      </trkpt>
      <trkpt lat="42.76947" lon="0.63152">
        <ele>900.45</ele>
        <time>2018-08-07T05:59:55Z</time>
      </trkpt>
      <trkpt lat="42.76942" lon="0.6319">
        <ele>901.72</ele>
        <time>2018-08-07T05:59:56Z</time>
      </trkpt>
      <trkpt lat="42.76937" lon="0.63228">
        <ele>903.5</ele>
        <time>2018-08-07T05:59:57Z</time>
      </trkpt>
      <trkpt lat="42.76932" lon="0.63265">
        <ele>905.44</ele>
        <time>2018-08-07T05:59:58Z</time>
      </trkpt>
      <trkpt lat="42.76926" lon="0.63301">
        <ele>908.12</ele>
        <time>2018-08-07T05:59:59Z</time>
      </trkpt>
      <trkpt lat="42.7692" lon="0.63338">
        <ele>909.62</ele>
        <time>2018-08-07T06:00:00Z</time>
      </trkpt>
      <trkpt lat="42.76916" lon="0.63374">
        <ele>911.47</ele>
        <time>2018-08-07T06:00:01Z</time>
      </trkpt>
      <trkpt lat="42.76912" lon="0.63408">
        <ele>913.43</ele>
        <time>2018-08-07T06:00:02Z</time>
      </trkpt>
      <trkpt lat="42.76908" lon="0.6344">
        <ele>915.42</ele>
        <time>2018-08-07T06:00:03Z</time>
      </trkpt>
      <trkpt lat="42.76905" lon="0.6347">
        <ele>916.71</ele>
        <time>2018-08-07T06:00:04Z</time>
      </trkpt>
      <trkpt lat="42.76906" lon="0.63499">
        <ele>917.8</ele>
        <time>2018-08-07T06:00:05Z</time>
      </trkpt>
      <trkpt lat="42.76912" lon="0.63526">
        <ele>919.53</ele>
        <time>2018-08-07T06:00:06Z</time>
      </trkpt>
      <trkpt lat="42.76928" lon="0.63566">
        <ele>922.02</ele>
        <time>2018-08-07T06:00:08Z</time>
      </trkpt>
      <trkpt lat="42.76953" lon="0.63593">
        <ele>924.55</ele>
        <time>2018-08-07T06:00:10Z</time>
      </trkpt>
      <trkpt lat="42.76972" lon="0.6362">
        <ele>926.81</ele>
        <time>2018-08-07T06:00:12Z</time>
      </trkpt>
      <trkpt lat="42.76983" lon="0.63654">
        <ele>927.23</ele>
        <time>2018-08-07T06:00:14Z</time>
      </trkpt>
      <trkpt lat="42.7698" lon="0.63681">
        <ele>927.25</ele>
        <time>2018-08-07T06:00:15Z</time>
      </trkpt>
      <trkpt lat="42.76964" lon="0.63701">
        <ele>927.96</ele>
        <time>2018-08-07T06:00:16Z</time>
      </trkpt>
      <trkpt lat="42.76953" lon="0.63749">
        <ele>928.94</ele>
        <time>2018-08-07T06:00:18Z</time>
      </trkpt>
      <trkpt lat="42.76947" lon="0.63776">
        <ele>929.87</ele>
        <time>2018-08-07T06:00:19Z</time>
      </trkpt>
      <trkpt lat="42.76943" lon="0.63802">
        <ele>931.55</ele>
        <time>2018-08-07T06:00:20Z</time>
      </trkpt>
      <trkpt lat="42.76937" lon="0.63827">
        <ele>932.75</ele>
        <time>2018-08-07T06:00:21Z</time>
      </trkpt>
      <trkpt lat="42.76929" lon="0.63849">
        <ele>933.11</ele>
        <time>2018-08-07T06:00:22Z</time>
      </trkpt>
      <trkpt lat="42.76923" lon="0.63893">
        <ele>935.35</ele>
        <time>2018-08-07T06:00:24Z</time>
      </trkpt>
      <trkpt lat="42.76922" lon="0.63918">
        <ele>937.39</ele>
        <time>2018-08-07T06:00:25Z</time>
      </trkpt>
      <trkpt lat="42.7692" lon="0.63943">
        <ele>939.4</ele>
        <time>2018-08-07T06:00:26Z</time>
      </trkpt>
      <trkpt lat="42.76917" lon="0.63967">
        <ele>941.41</ele>
        <time>2018-08-07T06:00:27Z</time>
      </trkpt>
      <trkpt lat="42.76909" lon="0.63992">
        <ele>943.41</ele>
        <time>2018-08-07T06:00:28Z</time>
      </trkpt>
      <trkpt lat="42.76901" lon="0.64015">
        <ele>945.41</ele>
        <time>2018-08-07T06:00:29Z</time>
      </trkpt>
      <trkpt lat="42.76888" lon="0.64038">
        <ele>947.41</ele>
        <time>2018-08-07T06:00:30Z</time>
      </trkpt>
      <trkpt lat="42.76877" lon="0.6406">
        <ele>950.81</ele>
        <time>2018-08-07T06:00:31Z</time>
      </trkpt>
      <trkpt lat="42.76866" lon="0.64082">
        <ele>953.93</ele>
        <time>2018-08-07T06:00:32Z</time>
      </trkpt>
      <trkpt lat="42.76854" lon="0.64103">
        <ele>956.97</ele>
        <time>2018-08-07T06:00:33Z</time>
      </trkpt>
      <trkpt lat="42.76844" lon="0.64126">
        <ele>959.98</ele>
        <time>2018-08-07T06:00:34Z</time>
      </trkpt>
      <trkpt lat="42.76835" lon="0.64148">
        <ele>961.58</ele>
        <time>2018-08-07T06:00:35Z</time>
      </trkpt>
      <trkpt lat="42.76821" lon="0.64184">
        <ele>963.61</ele>
        <time>2018-08-07T06:00:37Z</time>
      </trkpt>
      <trkpt lat="42.76814" lon="0.64211">
        <ele>966.52</ele>
        <time>2018-08-07T06:00:39Z</time>
      </trkpt>
      <trkpt lat="42.76823" lon="0.64236">
        <ele>968.25</ele>
        <time>2018-08-07T06:00:43Z</time>
      </trkpt>
      <trkpt lat="42.76862" lon="0.64214">
        <ele>969.18</ele>
        <time>2018-08-07T06:00:45Z</time>
      </trkpt>
      <trkpt lat="42.76893" lon="0.64199">
        <ele>969.96</ele>
        <time>2018-08-07T06:00:47Z</time>
      </trkpt>
      <trkpt lat="42.76913" lon="0.64188">
        <ele>972.55</ele>
        <time>2018-08-07T06:00:49Z</time>
      </trkpt>
      <trkpt lat="42.76932" lon="0.64192">
        <ele>974.86</ele>
        <time>2018-08-07T06:00:52Z</time>
      </trkpt>
      <trkpt lat="42.76925" lon="0.64218">
        <ele>974.11</ele>
        <time>2018-08-07T06:00:54Z</time>
      </trkpt>
      <trkpt lat="42.76907" lon="0.6423">
        <ele>975.62</ele>
        <time>2018-08-07T06:00:55Z</time>
      </trkpt>
      <trkpt lat="42.76894" lon="0.64249">
        <ele>978.17</ele>
        <time>2018-08-07T06:00:56Z</time>
      </trkpt>
      <trkpt lat="42.76879" lon="0.64291">
        <ele>981.69</ele>
        <time>2018-08-07T06:00:58Z</time>
      </trkpt>
      <trkpt lat="42.76871" lon="0.64335">
        <ele>983.82</ele>
        <time>2018-08-07T06:01:00Z</time>
      </trkpt>
      <trkpt lat="42.76862" lon="0.64379">
        <ele>986.75</ele>
        <time>2018-08-07T06:01:02Z</time>
      </trkpt>
      <trkpt lat="42.76858" lon="0.64425">
        <ele>989.53</ele>
        <time>2018-08-07T06:01:04Z</time>
      </trkpt>
      <trkpt lat="42.76858" lon="0.6445">
        <ele>992.15</ele>
        <time>2018-08-07T06:01:05Z</time>
      </trkpt>
      <trkpt lat="42.76858" lon="0.64475">
        <ele>994.33</ele>
        <time>2018-08-07T06:01:06Z</time>
      </trkpt>
      <trkpt lat="42.76857" lon="0.645">
        <ele>995.69</ele>
        <time>2018-08-07T06:01:07Z</time>
      </trkpt>
      <trkpt lat="42.76858" lon="0.64548">
        <ele>999.22</ele>
        <time>2018-08-07T06:01:09Z</time>
      </trkpt>
      <trkpt lat="42.76858" lon="0.64588">
        <ele>1004.3</ele>
        <time>2018-08-07T06:01:11Z</time>
      </trkpt>
      <trkpt lat="42.76869" lon="0.64626">
        <ele>1009.1</ele>
        <time>2018-08-07T06:01:13Z</time>
      </trkpt>
      <trkpt lat="42.76889" lon="0.64665">
        <ele>1011.77</ele>
        <time>2018-08-07T06:01:15Z</time>
      </trkpt>
      <trkpt lat="42.769" lon="0.64686">
        <ele>1013.52</ele>
        <time>2018-08-07T06:01:16Z</time>
      </trkpt>
      <trkpt lat="42.76913" lon="0.64708">
        <ele>1014.74</ele>
        <time>2018-08-07T06:01:17Z</time>
      </trkpt>
      <trkpt lat="42.76926" lon="0.64732">
        <ele>1016.51</ele>
        <time>2018-08-07T06:01:18Z</time>
      </trkpt>
      <trkpt lat="42.76938" lon="0.64756">
        <ele>1019.14</ele>
        <time>2018-08-07T06:01:19Z</time>
      </trkpt>
      <trkpt lat="42.76948" lon="0.64777">
        <ele>1021.33</ele>
        <time>2018-08-07T06:01:20Z</time>
      </trkpt>
      <trkpt lat="42.76965" lon="0.64804">
        <ele>1024</ele>
        <time>2018-08-07T06:01:22Z</time>
      </trkpt>
      <trkpt lat="42.7699" lon="0.64815">
        <ele>1025.85</ele>
        <time>2018-08-07T06:01:24Z</time>
      </trkpt>
      <trkpt lat="42.77016" lon="0.64829">
        <ele>1027.14</ele>
        <time>2018-08-07T06:01:26Z</time>
      </trkpt>
      <trkpt lat="42.77042" lon="0.64853">
        <ele>1028.66</ele>
        <time>2018-08-07T06:01:28Z</time>
      </trkpt>
      <trkpt lat="42.77053" lon="0.64894">
        <ele>1030.82</ele>
        <time>2018-08-07T06:01:30Z</time>
      </trkpt>
      <trkpt lat="42.77056" lon="0.64919">
        <ele>1031.13</ele>
        <time>2018-08-07T06:01:31Z</time>
      </trkpt>
      <trkpt lat="42.77058" lon="0.64945">
        <ele>1031.93</ele>
        <time>2018-08-07T06:01:32Z</time>
      </trkpt>
      <trkpt lat="42.77061" lon="0.6497">
        <ele>1034.96</ele>
        <time>2018-08-07T06:01:33Z</time>
      </trkpt>
      <trkpt lat="42.77062" lon="0.64995">
        <ele>1037.28</ele>
        <time>2018-08-07T06:01:34Z</time>
      </trkpt>
      <trkpt lat="42.77063" lon="0.65042">
        <ele>1042.31</ele>
        <time>2018-08-07T06:01:36Z</time>
      </trkpt>
      <trkpt lat="42.77053" lon="0.65092">
        <ele>1045.49</ele>
        <time>2018-08-07T06:01:38Z</time>
      </trkpt>
      <trkpt lat="42.77045" lon="0.65137">
        <ele>1047.11</ele>
        <time>2018-08-07T06:01:40Z</time>
      </trkpt>
      <trkpt lat="42.7704" lon="0.65178">
        <ele>1048.16</ele>
        <time>2018-08-07T06:01:42Z</time>
      </trkpt>
      <trkpt lat="42.7703" lon="0.652">
        <ele>1050.78</ele>
        <time>2018-08-07T06:01:44Z</time>
      </trkpt>
      <trkpt lat="42.77034" lon="0.65225">
        <ele>1056.85</ele>
        <time>2018-08-07T06:01:47Z</time>
      </trkpt>
      <trkpt lat="42.77052" lon="0.6522">
        <ele>1058.47</ele>
        <time>2018-08-07T06:01:51Z</time>
      </trkpt>
      <trkpt lat="42.77061" lon="0.65194">
        <ele>1058.33</ele>
        <time>2018-08-07T06:01:52Z</time>
      </trkpt>
      <trkpt lat="42.77068" lon="0.6515">
        <ele>1058.06</ele>
        <time>2018-08-07T06:01:54Z</time>
      </trkpt>
      <trkpt lat="42.7708" lon="0.65112">
        <ele>1057.55</ele>
        <time>2018-08-07T06:01:56Z</time>
      </trkpt>
      <trkpt lat="42.77089" lon="0.65089">
        <ele>1058.05</ele>
        <time>2018-08-07T06:01:57Z</time>
      </trkpt>
      <trkpt lat="42.77102" lon="0.65046">
        <ele>1057.76</ele>
        <time>2018-08-07T06:01:59Z</time>
      </trkpt>
      <trkpt lat="42.77112" lon="0.65001">
        <ele>1058.92</ele>
        <time>2018-08-07T06:02:01Z</time>
      </trkpt>
      <trkpt lat="42.77116" lon="0.64976">
        <ele>1060.56</ele>
        <time>2018-08-07T06:02:02Z</time>
      </trkpt>
      <trkpt lat="42.77122" lon="0.64953">
        <ele>1062.46</ele>
        <time>2018-08-07T06:02:03Z</time>
      </trkpt>
      <trkpt lat="42.77135" lon="0.64907">
        <ele>1064.8</ele>
        <time>2018-08-07T06:02:05Z</time>
      </trkpt>
      <trkpt lat="42.77147" lon="0.6486">
        <ele>1068.66</ele>
        <time>2018-08-07T06:02:07Z</time>
      </trkpt>
      <trkpt lat="42.77152" lon="0.64836">
        <ele>1071.88</ele>
        <time>2018-08-07T06:02:08Z</time>
      </trkpt>
      <trkpt lat="42.7716" lon="0.6479">
        <ele>1074.05</ele>
        <time>2018-08-07T06:02:10Z</time>
      </trkpt>
      <trkpt lat="42.77163" lon="0.64741">
        <ele>1076.56</ele>
        <time>2018-08-07T06:02:12Z</time>
      </trkpt>
      <trkpt lat="42.77164" lon="0.64704">
        <ele>1079.51</ele>
        <time>2018-08-07T06:02:14Z</time>
      </trkpt>
      <trkpt lat="42.77164" lon="0.64678">
        <ele>1083.21</ele>
        <time>2018-08-07T06:02:16Z</time>
      </trkpt>
      <trkpt lat="42.77179" lon="0.64654">
        <ele>1088.7</ele>
        <time>2018-08-07T06:02:19Z</time>
      </trkpt>
      <trkpt lat="42.77178" lon="0.64699">
        <ele>1091.64</ele>
        <time>2018-08-07T06:02:23Z</time>
      </trkpt>
      <trkpt lat="42.77173" lon="0.64727">
        <ele>1094.18</ele>
        <time>2018-08-07T06:02:24Z</time>
      </trkpt>
      <trkpt lat="42.77175" lon="0.64769">
        <ele>1098.6</ele>
        <time>2018-08-07T06:02:26Z</time>
      </trkpt>
      <trkpt lat="42.77185" lon="0.64811">
        <ele>1103.13</ele>
        <time>2018-08-07T06:02:28Z</time>
      </trkpt>
      <trkpt lat="42.77185" lon="0.64858">
        <ele>1109.48</ele>
        <time>2018-08-07T06:02:30Z</time>
      </trkpt>
      <trkpt lat="42.77183" lon="0.64905">
        <ele>1116.85</ele>
        <time>2018-08-07T06:02:32Z</time>
      </trkpt>
      <trkpt lat="42.77181" lon="0.64954">
        <ele>1122.27</ele>
        <time>2018-08-07T06:02:34Z</time>
      </trkpt>
      <trkpt lat="42.77178" lon="0.64979">
        <ele>1124.37</ele>
        <time>2018-08-07T06:02:35Z</time>
      </trkpt>
      <trkpt lat="42.77175" lon="0.65005">
        <ele>1125.7</ele>
        <time>2018-08-07T06:02:36Z</time>
      </trkpt>
      <trkpt lat="42.77172" lon="0.65029">
        <ele>1128.2</ele>
        <time>2018-08-07T06:02:37Z</time>
      </trkpt>
      <trkpt lat="42.7717" lon="0.65056">
        <ele>1130.35</ele>
        <time>2018-08-07T06:02:38Z</time>
      </trkpt>
      <trkpt lat="42.77168" lon="0.6508">
        <ele>1132.39</ele>
        <time>2018-08-07T06:02:39Z</time>
      </trkpt>
      <trkpt lat="42.77165" lon="0.65105">
        <ele>1133</ele>
        <time>2018-08-07T06:02:40Z</time>
      </trkpt>
      <trkpt lat="42.77158" lon="0.65128">
        <ele>1133.89</ele>
        <time>2018-08-07T06:02:41Z</time>
      </trkpt>
      <trkpt lat="42.77154" lon="0.65153">
        <ele>1134.85</ele>
        <time>2018-08-07T06:02:42Z</time>
      </trkpt>
      <trkpt lat="42.77148" lon="0.652">
        <ele>1139.15</ele>
        <time>2018-08-07T06:02:44Z</time>
      </trkpt>
      <trkpt lat="42.77146" lon="0.65248">
        <ele>1144.09</ele>
        <time>2018-08-07T06:02:46Z</time>
      </trkpt>
      <trkpt lat="42.77147" lon="0.65272">
        <ele>1147.71</ele>
        <time>2018-08-07T06:02:47Z</time>
      </trkpt>
      <trkpt lat="42.77148" lon="0.65297">
        <ele>1150.9</ele>
        <time>2018-08-07T06:02:48Z</time>
      </trkpt>
      <trkpt lat="42.7715" lon="0.65323">
        <ele>1154.66</ele>
        <time>2018-08-07T06:02:49Z</time>
      </trkpt>
      <trkpt lat="42.77151" lon="0.65349">
        <ele>1157.18</ele>
        <time>2018-08-07T06:02:50Z</time>
      </trkpt>
      <trkpt lat="42.77152" lon="0.65377">
        <ele>1160.04</ele>
        <time>2018-08-07T06:02:51Z</time>
      </trkpt>
      <trkpt lat="42.77153" lon="0.65406">
        <ele>1161.6</ele>
        <time>2018-08-07T06:02:52Z</time>
      </trkpt>
      <trkpt lat="42.77152" lon="0.65435">
        <ele>1164.87</ele>
        <time>2018-08-07T06:02:53Z</time>
      </trkpt>
      <trkpt lat="42.77151" lon="0.65464">
        <ele>1168.65</ele>
        <time>2018-08-07T06:02:54Z</time>
      </trkpt>
      <trkpt lat="42.7715" lon="0.65494">
        <ele>1171.18</ele>
        <time>2018-08-07T06:02:55Z</time>
      </trkpt>
      <trkpt lat="42.77149" lon="0.65523">
        <ele>1174.74</ele>
        <time>2018-08-07T06:02:56Z</time>
      </trkpt>
      <trkpt lat="42.7715" lon="0.6555">
        <ele>1177.21</ele>
        <time>2018-08-07T06:02:57Z</time>
      </trkpt>
      <trkpt lat="42.7715" lon="0.65575">
        <ele>1179.35</ele>
        <time>2018-08-07T06:02:58Z</time>
      </trkpt>
      <trkpt lat="42.77155" lon="0.65619">
        <ele>1182.7</ele>
        <time>2018-08-07T06:03:00Z</time>
      </trkpt>
      <trkpt lat="42.77164" lon="0.6565">
        <ele>1185.74</ele>
        <time>2018-08-07T06:03:02Z</time>
      </trkpt>
      <trkpt lat="42.77181" lon="0.65667">
        <ele>1187.83</ele>
        <time>2018-08-07T06:03:04Z</time>
      </trkpt>
      <trkpt lat="42.77203" lon="0.65691">
        <ele>1188.93</ele>
        <time>2018-08-07T06:03:06Z</time>
      </trkpt>
      <trkpt lat="42.77222" lon="0.65727">
        <ele>1189.94</ele>
        <time>2018-08-07T06:03:08Z</time>
      </trkpt>
      <trkpt lat="42.77238" lon="0.65768">
        <ele>1191.85</ele>
        <time>2018-08-07T06:03:10Z</time>
      </trkpt>
      <trkpt lat="42.77237" lon="0.65795">
        <ele>1194.94</ele>
        <time>2018-08-07T06:03:11Z</time>
      </trkpt>
      <trkpt lat="42.77238" lon="0.65821">
        <ele>1198.67</ele>
        <time>2018-08-07T06:03:12Z</time>
      </trkpt>
      <trkpt lat="42.7724" lon="0.65847">
        <ele>1201.89</ele>
        <time>2018-08-07T06:03:13Z</time>
      </trkpt>
      <trkpt lat="42.77242" lon="0.65873">
        <ele>1204.95</ele>
        <time>2018-08-07T06:03:14Z</time>
      </trkpt>
      <trkpt lat="42.77244" lon="0.65899">
        <ele>1207.27</ele>
        <time>2018-08-07T06:03:15Z</time>
      </trkpt>
      <trkpt lat="42.77246" lon="0.65926">
        <ele>1211.47</ele>
        <time>2018-08-07T06:03:16Z</time>
      </trkpt>
      <trkpt lat="42.77248" lon="0.65953">
        <ele>1214.13</ele>
        <time>2018-08-07T06:03:17Z</time>
      </trkpt>
      <trkpt lat="42.7725" lon="0.6598">
        <ele>1217.03</ele>
        <time>2018-08-07T06:03:18Z</time>
      </trkpt>
      <trkpt lat="42.77251" lon="0.66008">
        <ele>1219.29</ele>
        <time>2018-08-07T06:03:19Z</time>
      </trkpt>
      <trkpt lat="42.77251" lon="0.66036">
        <ele>1222.08</ele>
        <time>2018-08-07T06:03:20Z</time>
      </trkpt>
      <trkpt lat="42.77252" lon="0.66061">
        <ele>1225.71</ele>
        <time>2018-08-07T06:03:21Z</time>
      </trkpt>
      <trkpt lat="42.77251" lon="0.66104">
        <ele>1229.65</ele>
        <time>2018-08-07T06:03:23Z</time>
      </trkpt>
      <trkpt lat="42.77247" lon="0.66136">
        <ele>1231.12</ele>
        <time>2018-08-07T06:03:25Z</time>
      </trkpt>
      <trkpt lat="42.77233" lon="0.66152">
        <ele>1230.55</ele>
        <time>2018-08-07T06:03:27Z</time>
      </trkpt>
      <trkpt lat="42.7721" lon="0.66133">
        <ele>1233.3</ele>
        <time>2018-08-07T06:03:29Z</time>
      </trkpt>
      <trkpt lat="42.77191" lon="0.6613">
        <ele>1235.79</ele>
        <time>2018-08-07T06:03:31Z</time>
      </trkpt>
      <trkpt lat="42.77177" lon="0.66148">
        <ele>1236.82</ele>
        <time>2018-08-07T06:03:32Z</time>
      </trkpt>
      <trkpt lat="42.7715" lon="0.66165">
        <ele>1238.14</ele>
        <time>2018-08-07T06:03:34Z</time>
      </trkpt>
      <trkpt lat="42.7712" lon="0.66167">
        <ele>1239.87</ele>
        <time>2018-08-07T06:03:36Z</time>
      </trkpt>
      <trkpt lat="42.77089" lon="0.66152">
        <ele>1242.54</ele>
        <time>2018-08-07T06:03:38Z</time>
      </trkpt>
      <trkpt lat="42.77064" lon="0.66118">
        <ele>1243.9</ele>
        <time>2018-08-07T06:03:40Z</time>
      </trkpt>
      <trkpt lat="42.77074" lon="0.66091">
        <ele>1247.66</ele>
        <time>2018-08-07T06:03:41Z</time>
      </trkpt>
      <trkpt lat="42.77068" lon="0.66055">
        <ele>1253.74</ele>
        <time>2018-08-07T06:03:43Z</time>
      </trkpt>
      <trkpt lat="42.77055" lon="0.66034">
        <ele>1257.65</ele>
        <time>2018-08-07T06:03:45Z</time>
      </trkpt>
      <trkpt lat="42.77037" lon="0.66027">
        <ele>1259.82</ele>
        <time>2018-08-07T06:03:47Z</time>
      </trkpt>
      <trkpt lat="42.77021" lon="0.66047">
        <ele>1261.84</ele>
        <time>2018-08-07T06:03:49Z</time>
      </trkpt>
      <trkpt lat="42.77015" lon="0.66077">
        <ele>1265.94</ele>
        <time>2018-08-07T06:03:51Z</time>
      </trkpt>
      <trkpt lat="42.77023" lon="0.66105">
        <ele>1269.46</ele>
        <time>2018-08-07T06:03:53Z</time>
      </trkpt>
      <trkpt lat="42.77025" lon="0.66132">
        <ele>1274.01</ele>
        <time>2018-08-07T06:03:56Z</time>
      </trkpt>
      <trkpt lat="42.77004" lon="0.66117">
        <ele>1275.26</ele>
        <time>2018-08-07T06:04:00Z</time>
      </trkpt>
      <trkpt lat="42.76991" lon="0.66079">
        <ele>1277.58</ele>
        <time>2018-08-07T06:04:02Z</time>
      </trkpt>
      <trkpt lat="42.76979" lon="0.66045">
        <ele>1283.03</ele>
        <time>2018-08-07T06:04:04Z</time>
      </trkpt>
      <trkpt lat="42.76964" lon="0.6602">
        <ele>1285.56</ele>
        <time>2018-08-07T06:04:06Z</time>
      </trkpt>
      <trkpt lat="42.76944" lon="0.6601">
        <ele>1286.9</ele>
        <time>2018-08-07T06:04:08Z</time>
      </trkpt>
      <trkpt lat="42.76919" lon="0.66012">
        <ele>1287.23</ele>
        <time>2018-08-07T06:04:10Z</time>
      </trkpt>
      <trkpt lat="42.76895" lon="0.66005">
        <ele>1287.96</ele>
        <time>2018-08-07T06:04:12Z</time>
      </trkpt>
      <trkpt lat="42.76871" lon="0.65995">
        <ele>1287.33</ele>
        <time>2018-08-07T06:04:14Z</time>
      </trkpt>
      <trkpt lat="42.76849" lon="0.65977">
        <ele>1286.57</ele>
        <time>2018-08-07T06:04:16Z</time>
      </trkpt>
      <trkpt lat="42.76835" lon="0.65948">
        <ele>1284.47</ele>
        <time>2018-08-07T06:04:18Z</time>
      </trkpt>
      <trkpt lat="42.76821" lon="0.6592">
        <ele>1284.29</ele>
        <time>2018-08-07T06:04:20Z</time>
      </trkpt>
      <trkpt lat="42.76808" lon="0.65902">
        <ele>1284.27</ele>
        <time>2018-08-07T06:04:22Z</time>
      </trkpt>
      <trkpt lat="42.76773" lon="0.65913">
        <ele>1283.36</ele>
        <time>2018-08-07T06:04:24Z</time>
      </trkpt>
      <trkpt lat="42.76744" lon="0.65919">
        <ele>1281.67</ele>
        <time>2018-08-07T06:04:26Z</time>
      </trkpt>
      <trkpt lat="42.76717" lon="0.6594">
        <ele>1280.6</ele>
        <time>2018-08-07T06:04:28Z</time>
      </trkpt>
      <trkpt lat="42.76695" lon="0.65965">
        <ele>1279.39</ele>
        <time>2018-08-07T06:04:30Z</time>
      </trkpt>
      <trkpt lat="42.76677" lon="0.65989">
        <ele>1277.67</ele>
        <time>2018-08-07T06:04:32Z</time>
      </trkpt>
      <trkpt lat="42.7667" lon="0.66014">
        <ele>1275.69</ele>
        <time>2018-08-07T06:04:34Z</time>
      </trkpt>
      <trkpt lat="42.76677" lon="0.66041">
        <ele>1274.61</ele>
        <time>2018-08-07T06:04:36Z</time>
      </trkpt>
      <trkpt lat="42.76697" lon="0.6606">
        <ele>1273.6</ele>
        <time>2018-08-07T06:04:38Z</time>
      </trkpt>
      <trkpt lat="42.76721" lon="0.66073">
        <ele>1271.69</ele>
        <time>2018-08-07T06:04:40Z</time>
      </trkpt>
      <trkpt lat="42.76748" lon="0.66074">
        <ele>1270.39</ele>
        <time>2018-08-07T06:04:42Z</time>
      </trkpt>
      <trkpt lat="42.76772" lon="0.6608">
        <ele>1270.07</ele>
        <time>2018-08-07T06:04:44Z</time>
      </trkpt>
      <trkpt lat="42.7679" lon="0.66097">
        <ele>1269.55</ele>
        <time>2018-08-07T06:04:46Z</time>
      </trkpt>
      <trkpt lat="42.76781" lon="0.66127">
        <ele>1267.68</ele>
        <time>2018-08-07T06:04:48Z</time>
      </trkpt>
      <trkpt lat="42.7675" lon="0.66141">
        <ele>1265.4</ele>
        <time>2018-08-07T06:04:51Z</time>
      </trkpt>
      <trkpt lat="42.76724" lon="0.66152">
        <ele>1263.88</ele>
        <time>2018-08-07T06:04:53Z</time>
      </trkpt>
      <trkpt lat="42.76703" lon="0.66178">
        <ele>1262.41</ele>
        <time>2018-08-07T06:04:55Z</time>
      </trkpt>
      <trkpt lat="42.76693" lon="0.66213">
        <ele>1260.88</ele>
        <time>2018-08-07T06:04:57Z</time>
      </trkpt>
      <trkpt lat="42.76679" lon="0.66248">
        <ele>1259.62</ele>
        <time>2018-08-07T06:04:59Z</time>
      </trkpt>
      <trkpt lat="42.76658" lon="0.66271">
        <ele>1256.08</ele>
        <time>2018-08-07T06:05:01Z</time>
      </trkpt>
      <trkpt lat="42.76635" lon="0.66281">
        <ele>1255.29</ele>
        <time>2018-08-07T06:05:04Z</time>
      </trkpt>
      <trkpt lat="42.7662" lon="0.66248">
        <ele>1252.75</ele>
        <time>2018-08-07T06:05:06Z</time>
      </trkpt>
      <trkpt lat="42.766" lon="0.66221">
        <ele>1248.88</ele>
        <time>2018-08-07T06:05:08Z</time>
      </trkpt>
      <trkpt lat="42.76578" lon="0.66193">
        <ele>1245.1</ele>
        <time>2018-08-07T06:05:10Z</time>
      </trkpt>
      <trkpt lat="42.7656" lon="0.66168">
        <ele>1242.52</ele>
        <time>2018-08-07T06:05:12Z</time>
      </trkpt>
      <trkpt lat="42.76541" lon="0.66154">
        <ele>1241.38</ele>
        <time>2018-08-07T06:05:14Z</time>
      </trkpt>
      <trkpt lat="42.76516" lon="0.66177">
        <ele>1239.67</ele>
        <time>2018-08-07T06:05:16Z</time>
      </trkpt>
      <trkpt lat="42.76499" lon="0.66202">
        <ele>1236.99</ele>
        <time>2018-08-07T06:05:18Z</time>
      </trkpt>
      <trkpt lat="42.76481" lon="0.66233">
        <ele>1234.51</ele>
        <time>2018-08-07T06:05:20Z</time>
      </trkpt>
      <trkpt lat="42.76464" lon="0.66267">
        <ele>1230.86</ele>
        <time>2018-08-07T06:05:22Z</time>
      </trkpt>
      <trkpt lat="42.76452" lon="0.66306">
        <ele>1228.71</ele>
        <time>2018-08-07T06:05:24Z</time>
      </trkpt>
      <trkpt lat="42.76443" lon="0.66337">
        <ele>1225.79</ele>
        <time>2018-08-07T06:05:26Z</time>
      </trkpt>
      <trkpt lat="42.76444" lon="0.66366">
        <ele>1224.4</ele>
        <time>2018-08-07T06:05:28Z</time>
      </trkpt>
      <trkpt lat="42.76463" lon="0.66384">
        <ele>1220.78</ele>
        <time>2018-08-07T06:05:31Z</time>
      </trkpt>
      <trkpt lat="42.76481" lon="0.66378">
        <ele>1218.7</ele>
        <time>2018-08-07T06:05:33Z</time>
      </trkpt>
      <trkpt lat="42.76495" lon="0.66349">
        <ele>1217.61</ele>
        <time>2018-08-07T06:05:35Z</time>
      </trkpt>
      <trkpt lat="42.76506" lon="0.6631">
        <ele>1214.78</ele>
        <time>2018-08-07T06:05:37Z</time>
      </trkpt>
      <trkpt lat="42.76519" lon="0.66285">
        <ele>1213.4</ele>
        <time>2018-08-07T06:05:39Z</time>
      </trkpt>
      <trkpt lat="42.76538" lon="0.66283">
        <ele>1212.37</ele>
        <time>2018-08-07T06:05:41Z</time>
      </trkpt>
      <trkpt lat="42.76562" lon="0.66307">
        <ele>1212.28</ele>
        <time>2018-08-07T06:05:43Z</time>
      </trkpt>
      <trkpt lat="42.76577" lon="0.66334">
        <ele>1211.57</ele>
        <time>2018-08-07T06:05:44Z</time>
      </trkpt>
      <trkpt lat="42.76589" lon="0.66353">
        <ele>1210.66</ele>
        <time>2018-08-07T06:05:45Z</time>
      </trkpt>
      <trkpt lat="42.76601" lon="0.66398">
        <ele>1206.38</ele>
        <time>2018-08-07T06:05:47Z</time>
      </trkpt>
      <trkpt lat="42.76604" lon="0.66445">
        <ele>1203.06</ele>
        <time>2018-08-07T06:05:49Z</time>
      </trkpt>
      <trkpt lat="42.76607" lon="0.66489">
        <ele>1199.12</ele>
        <time>2018-08-07T06:05:51Z</time>
      </trkpt>
      <trkpt lat="42.76621" lon="0.66531">
        <ele>1194.91</ele>
        <time>2018-08-07T06:05:53Z</time>
      </trkpt>
      <trkpt lat="42.76634" lon="0.66574">
        <ele>1192.72</ele>
        <time>2018-08-07T06:05:55Z</time>
      </trkpt>
      <trkpt lat="42.76646" lon="0.66615">
        <ele>1190.7</ele>
        <time>2018-08-07T06:05:57Z</time>
      </trkpt>
      <trkpt lat="42.76655" lon="0.66652">
        <ele>1187.79</ele>
        <time>2018-08-07T06:05:59Z</time>
      </trkpt>
      <trkpt lat="42.76671" lon="0.66676">
        <ele>1185.7</ele>
        <time>2018-08-07T06:06:01Z</time>
      </trkpt>
      <trkpt lat="42.76691" lon="0.66694">
        <ele>1185.31</ele>
        <time>2018-08-07T06:06:03Z</time>
      </trkpt>
      <trkpt lat="42.76716" lon="0.66685">
        <ele>1182.75</ele>
        <time>2018-08-07T06:06:05Z</time>
      </trkpt>
      <trkpt lat="42.76735" lon="0.66666">
        <ele>1182.31</ele>
        <time>2018-08-07T06:06:07Z</time>
      </trkpt>
      <trkpt lat="42.76754" lon="0.66662">
        <ele>1181.36</ele>
        <time>2018-08-07T06:06:09Z</time>
      </trkpt>
      <trkpt lat="42.76775" lon="0.66676">
        <ele>1180.37</ele>
        <time>2018-08-07T06:06:11Z</time>
      </trkpt>
      <trkpt lat="42.76798" lon="0.66714">
        <ele>1179.37</ele>
        <time>2018-08-07T06:06:13Z</time>
      </trkpt>
      <trkpt lat="42.76818" lon="0.66751">
        <ele>1177.88</ele>
        <time>2018-08-07T06:06:15Z</time>
      </trkpt>
      <trkpt lat="42.76836" lon="0.66789">
        <ele>1174.1</ele>
        <time>2018-08-07T06:06:17Z</time>
      </trkpt>
      <trkpt lat="42.76843" lon="0.66833">
        <ele>1170.33</ele>
        <time>2018-08-07T06:06:19Z</time>
      </trkpt>
      <trkpt lat="42.76844" lon="0.66872">
        <ele>1165.44</ele>
        <time>2018-08-07T06:06:21Z</time>
      </trkpt>
      <trkpt lat="42.76836" lon="0.66907">
        <ele>1162.06</ele>
        <time>2018-08-07T06:06:23Z</time>
      </trkpt>
      <trkpt lat="42.76815" lon="0.66933">
        <ele>1157.42</ele>
        <time>2018-08-07T06:06:25Z</time>
      </trkpt>
      <trkpt lat="42.768" lon="0.66969">
        <ele>1152.45</ele>
        <time>2018-08-07T06:06:27Z</time>
      </trkpt>
      <trkpt lat="42.76796" lon="0.67008">
        <ele>1148.85</ele>
        <time>2018-08-07T06:06:29Z</time>
      </trkpt>
      <trkpt lat="42.76802" lon="0.67049">
        <ele>1146.71</ele>
        <time>2018-08-07T06:06:31Z</time>
      </trkpt>
      <trkpt lat="42.76812" lon="0.67092">
        <ele>1144.7</ele>
        <time>2018-08-07T06:06:33Z</time>
      </trkpt>
      <trkpt lat="42.76828" lon="0.67129">
        <ele>1143.61</ele>
        <time>2018-08-07T06:06:35Z</time>
      </trkpt>
      <trkpt lat="42.76851" lon="0.67156">
        <ele>1140.78</ele>
        <time>2018-08-07T06:06:37Z</time>
      </trkpt>
      <trkpt lat="42.76879" lon="0.6718">
        <ele>1138.7</ele>
        <time>2018-08-07T06:06:39Z</time>
      </trkpt>
      <trkpt lat="42.76908" lon="0.67206">
        <ele>1137.4</ele>
        <time>2018-08-07T06:06:41Z</time>
      </trkpt>
      <trkpt lat="42.76931" lon="0.6724">
        <ele>1136.58</ele>
        <time>2018-08-07T06:06:43Z</time>
      </trkpt>
      <trkpt lat="42.76949" lon="0.67283">
        <ele>1134.69</ele>
        <time>2018-08-07T06:06:45Z</time>
      </trkpt>
      <trkpt lat="42.76956" lon="0.67306">
        <ele>1133.69</ele>
        <time>2018-08-07T06:06:46Z</time>
      </trkpt>
      <trkpt lat="42.76962" lon="0.67329">
        <ele>1132.69</ele>
        <time>2018-08-07T06:06:47Z</time>
      </trkpt>
      <trkpt lat="42.76974" lon="0.67373">
        <ele>1131.61</ele>
        <time>2018-08-07T06:06:49Z</time>
      </trkpt>
      <trkpt lat="42.76989" lon="0.67416">
        <ele>1128.99</ele>
        <time>2018-08-07T06:06:51Z</time>
      </trkpt>
      <trkpt lat="42.76999" lon="0.67438">
        <ele>1128.48</ele>
        <time>2018-08-07T06:06:52Z</time>
      </trkpt>
      <trkpt lat="42.77008" lon="0.67459">
        <ele>1128.33</ele>
        <time>2018-08-07T06:06:53Z</time>
      </trkpt>
      <trkpt lat="42.77017" lon="0.67482">
        <ele>1126.89</ele>
        <time>2018-08-07T06:06:54Z</time>
      </trkpt>
      <trkpt lat="42.77025" lon="0.67506">
        <ele>1125.05</ele>
        <time>2018-08-07T06:06:55Z</time>
      </trkpt>
      <trkpt lat="42.77032" lon="0.67531">
        <ele>1123.8</ele>
        <time>2018-08-07T06:06:56Z</time>
      </trkpt>
      <trkpt lat="42.7704" lon="0.67557">
        <ele>1122.73</ele>
        <time>2018-08-07T06:06:57Z</time>
      </trkpt>
      <trkpt lat="42.77048" lon="0.67582">
        <ele>1121.01</ele>
        <time>2018-08-07T06:06:58Z</time>
      </trkpt>
      <trkpt lat="42.77056" lon="0.67604">
        <ele>1119.09</ele>
        <time>2018-08-07T06:06:59Z</time>
      </trkpt>
      <trkpt lat="42.77064" lon="0.67627">
        <ele>1117.81</ele>
        <time>2018-08-07T06:07:00Z</time>
      </trkpt>
      <trkpt lat="42.77072" lon="0.67649">
        <ele>1117.43</ele>
        <time>2018-08-07T06:07:01Z</time>
      </trkpt>
      <trkpt lat="42.7709" lon="0.67665">
        <ele>1115.92</ele>
        <time>2018-08-07T06:07:02Z</time>
      </trkpt>
      <trkpt lat="42.77118" lon="0.67695">
        <ele>1114.42</ele>
        <time>2018-08-07T06:07:04Z</time>
      </trkpt>
      <trkpt lat="42.7715" lon="0.67719">
        <ele>1113.58</ele>
        <time>2018-08-07T06:07:06Z</time>
      </trkpt>
      <trkpt lat="42.77167" lon="0.6773">
        <ele>1112.66</ele>
        <time>2018-08-07T06:07:07Z</time>
      </trkpt>
      <trkpt lat="42.77185" lon="0.67742">
        <ele>1112.39</ele>
        <time>2018-08-07T06:07:08Z</time>
      </trkpt>
      <trkpt lat="42.77204" lon="0.67752">
        <ele>1108.8</ele>
        <time>2018-08-07T06:07:09Z</time>
      </trkpt>
      <trkpt lat="42.77234" lon="0.67768">
        <ele>1105.1</ele>
        <time>2018-08-07T06:07:11Z</time>
      </trkpt>
      <trkpt lat="42.77264" lon="0.67771">
        <ele>1101.33</ele>
        <time>2018-08-07T06:07:13Z</time>
      </trkpt>
      <trkpt lat="42.77283" lon="0.67771">
        <ele>1099.89</ele>
        <time>2018-08-07T06:07:14Z</time>
      </trkpt>
      <trkpt lat="42.77302" lon="0.6777">
        <ele>1097.35</ele>
        <time>2018-08-07T06:07:15Z</time>
      </trkpt>
      <trkpt lat="42.77336" lon="0.67774">
        <ele>1093.35</ele>
        <time>2018-08-07T06:07:17Z</time>
      </trkpt>
      <trkpt lat="42.77368" lon="0.67777">
        <ele>1090.96</ele>
        <time>2018-08-07T06:07:19Z</time>
      </trkpt>
      <trkpt lat="42.77399" lon="0.67775">
        <ele>1082.56</ele>
        <time>2018-08-07T06:07:21Z</time>
      </trkpt>
      <trkpt lat="42.7743" lon="0.67778">
        <ele>1080.68</ele>
        <time>2018-08-07T06:07:23Z</time>
      </trkpt>
      <trkpt lat="42.77466" lon="0.67774">
        <ele>1077.99</ele>
        <time>2018-08-07T06:07:25Z</time>
      </trkpt>
      <trkpt lat="42.77484" lon="0.67774">
        <ele>1077.49</ele>
        <time>2018-08-07T06:07:26Z</time>
      </trkpt>
      <trkpt lat="42.77503" lon="0.67775">
        <ele>1077.33</ele>
        <time>2018-08-07T06:07:27Z</time>
      </trkpt>
      <trkpt lat="42.77524" lon="0.67792">
        <ele>1075.19</ele>
        <time>2018-08-07T06:07:28Z</time>
      </trkpt>
      <trkpt lat="42.77547" lon="0.67796">
        <ele>1071.04</ele>
        <time>2018-08-07T06:07:29Z</time>
      </trkpt>
      <trkpt lat="42.77568" lon="0.67802">
        <ele>1069.1</ele>
        <time>2018-08-07T06:07:30Z</time>
      </trkpt>
      <trkpt lat="42.7759" lon="0.67807">
        <ele>1067.82</ele>
        <time>2018-08-07T06:07:31Z</time>
      </trkpt>
      <trkpt lat="42.77611" lon="0.67814">
        <ele>1066.03</ele>
        <time>2018-08-07T06:07:32Z</time>
      </trkpt>
      <trkpt lat="42.77632" lon="0.67823">
        <ele>1065.5</ele>
        <time>2018-08-07T06:07:33Z</time>
      </trkpt>
      <trkpt lat="42.77652" lon="0.67834">
        <ele>1064.64</ele>
        <time>2018-08-07T06:07:34Z</time>
      </trkpt>
      <trkpt lat="42.7767" lon="0.6785">
        <ele>1063.68</ele>
        <time>2018-08-07T06:07:35Z</time>
      </trkpt>
      <trkpt lat="42.77688" lon="0.67865">
        <ele>1061.99</ele>
        <time>2018-08-07T06:07:36Z</time>
      </trkpt>
      <trkpt lat="42.77704" lon="0.67882">
        <ele>1059.38</ele>
        <time>2018-08-07T06:07:37Z</time>
      </trkpt>
      <trkpt lat="42.77721" lon="0.67899">
        <ele>1057.2</ele>
        <time>2018-08-07T06:07:38Z</time>
      </trkpt>
      <trkpt lat="42.77738" lon="0.67915">
        <ele>1056.55</ele>
        <time>2018-08-07T06:07:39Z</time>
      </trkpt>
      <trkpt lat="42.77756" lon="0.6793">
        <ele>1054.95</ele>
        <time>2018-08-07T06:07:40Z</time>
      </trkpt>
      <trkpt lat="42.77771" lon="0.67948">
        <ele>1053.07</ele>
        <time>2018-08-07T06:07:41Z</time>
      </trkpt>
      <trkpt lat="42.77793" lon="0.67977">
        <ele>1048.63</ele>
        <time>2018-08-07T06:07:43Z</time>
      </trkpt>
      <trkpt lat="42.77796" lon="0.68007">
        <ele>1042.56</ele>
        <time>2018-08-07T06:07:45Z</time>
      </trkpt>
      <trkpt lat="42.77802" lon="0.68032">
        <ele>1037.25</ele>
        <time>2018-08-07T06:07:47Z</time>
      </trkpt>
      <trkpt lat="42.7782" lon="0.6804">
        <ele>1033.56</ele>
        <time>2018-08-07T06:07:49Z</time>
      </trkpt>
      <trkpt lat="42.77844" lon="0.68028">
        <ele>1028.95</ele>
        <time>2018-08-07T06:07:51Z</time>
      </trkpt>
      <trkpt lat="42.77873" lon="0.6801">
        <ele>1027.42</ele>
        <time>2018-08-07T06:07:53Z</time>
      </trkpt>
      <trkpt lat="42.77892" lon="0.68005">
        <ele>1027.31</ele>
        <time>2018-08-07T06:07:54Z</time>
      </trkpt>
      <trkpt lat="42.77912" lon="0.67999">
        <ele>1027.28</ele>
        <time>2018-08-07T06:07:55Z</time>
      </trkpt>
      <trkpt lat="42.77933" lon="0.67987">
        <ele>1025.87</ele>
        <time>2018-08-07T06:07:56Z</time>
      </trkpt>
      <trkpt lat="42.77952" lon="0.67976">
        <ele>1025.45</ele>
        <time>2018-08-07T06:07:57Z</time>
      </trkpt>
      <trkpt lat="42.77973" lon="0.67961">
        <ele>1021.82</ele>
        <time>2018-08-07T06:07:58Z</time>
      </trkpt>
      <trkpt lat="42.77994" lon="0.67949">
        <ele>1018.63</ele>
        <time>2018-08-07T06:07:59Z</time>
      </trkpt>
      <trkpt lat="42.78014" lon="0.67938">
        <ele>1016.98</ele>
        <time>2018-08-07T06:08:00Z</time>
      </trkpt>
      <trkpt lat="42.78032" lon="0.67929">
        <ele>1015.78</ele>
        <time>2018-08-07T06:08:01Z</time>
      </trkpt>
      <trkpt lat="42.7805" lon="0.67923">
        <ele>1013.32</ele>
        <time>2018-08-07T06:08:02Z</time>
      </trkpt>
      <trkpt lat="42.78084" lon="0.67903">
        <ele>1009.14</ele>
        <time>2018-08-07T06:08:04Z</time>
      </trkpt>
      <trkpt lat="42.78103" lon="0.67869">
        <ele>1005.83</ele>
        <time>2018-08-07T06:08:06Z</time>
      </trkpt>
      <trkpt lat="42.78107" lon="0.6784">
        <ele>1003.01</ele>
        <time>2018-08-07T06:08:08Z</time>
      </trkpt>
      <trkpt lat="42.78125" lon="0.67823">
        <ele>998.03</ele>
        <time>2018-08-07T06:08:11Z</time>
      </trkpt>
      <trkpt lat="42.78124" lon="0.67854">
        <ele>997.29</ele>
        <time>2018-08-07T06:08:14Z</time>
      </trkpt>
      <trkpt lat="42.78116" lon="0.6789">
        <ele>996.57</ele>
        <time>2018-08-07T06:08:16Z</time>
      </trkpt>
      <trkpt lat="42.78095" lon="0.67916">
        <ele>994.96</ele>
        <time>2018-08-07T06:08:17Z</time>
      </trkpt>
      <trkpt lat="42.78077" lon="0.67931">
        <ele>993.07</ele>
        <time>2018-08-07T06:08:18Z</time>
      </trkpt>
      <trkpt lat="42.78062" lon="0.67948">
        <ele>991.81</ele>
        <time>2018-08-07T06:08:19Z</time>
      </trkpt>
      <trkpt lat="42.78043" lon="0.67958">
        <ele>989.33</ele>
        <time>2018-08-07T06:08:20Z</time>
      </trkpt>
      <trkpt lat="42.78028" lon="0.67973">
        <ele>987.89</ele>
        <time>2018-08-07T06:08:21Z</time>
      </trkpt>
      <trkpt lat="42.78014" lon="0.67993">
        <ele>986.05</ele>
        <time>2018-08-07T06:08:22Z</time>
      </trkpt>
      <trkpt lat="42.78001" lon="0.68013">
        <ele>984.8</ele>
        <time>2018-08-07T06:08:23Z</time>
      </trkpt>
      <trkpt lat="42.77988" lon="0.68031">
        <ele>982.33</ele>
        <time>2018-08-07T06:08:24Z</time>
      </trkpt>
      <trkpt lat="42.77975" lon="0.6805">
        <ele>980.89</ele>
        <time>2018-08-07T06:08:25Z</time>
      </trkpt>
      <trkpt lat="42.77961" lon="0.68067">
        <ele>979.05</ele>
        <time>2018-08-07T06:08:26Z</time>
      </trkpt>
      <trkpt lat="42.77932" lon="0.68092">
        <ele>976.03</ele>
        <time>2018-08-07T06:08:28Z</time>
      </trkpt>
      <trkpt lat="42.77913" lon="0.68101">
        <ele>974.8</ele>
        <time>2018-08-07T06:08:29Z</time>
      </trkpt>
      <trkpt lat="42.77894" lon="0.6811">
        <ele>973.73</ele>
        <time>2018-08-07T06:08:30Z</time>
      </trkpt>
      <trkpt lat="42.77877" lon="0.6812">
        <ele>972.7</ele>
        <time>2018-08-07T06:08:31Z</time>
      </trkpt>
      <trkpt lat="42.7786" lon="0.68132">
        <ele>971.7</ele>
        <time>2018-08-07T06:08:32Z</time>
      </trkpt>
      <trkpt lat="42.77844" lon="0.68143">
        <ele>970.7</ele>
        <time>2018-08-07T06:08:33Z</time>
      </trkpt>
      <trkpt lat="42.77826" lon="0.68152">
        <ele>969.7</ele>
        <time>2018-08-07T06:08:34Z</time>
      </trkpt>
      <trkpt lat="42.77808" lon="0.68159">
        <ele>969.4</ele>
        <time>2018-08-07T06:08:35Z</time>
      </trkpt>
      <trkpt lat="42.77774" lon="0.68169">
        <ele>966.76</ele>
        <time>2018-08-07T06:08:37Z</time>
      </trkpt>
      <trkpt lat="42.77745" lon="0.68174">
        <ele>964.7</ele>
        <time>2018-08-07T06:08:39Z</time>
      </trkpt>
      <trkpt lat="42.77718" lon="0.68157">
        <ele>963.61</ele>
        <time>2018-08-07T06:08:41Z</time>
      </trkpt>
      <trkpt lat="42.77706" lon="0.68138">
        <ele>961.27</ele>
        <time>2018-08-07T06:08:42Z</time>
      </trkpt>
      <trkpt lat="42.77681" lon="0.68101">
        <ele>958.96</ele>
        <time>2018-08-07T06:08:44Z</time>
      </trkpt>
      <trkpt lat="42.77654" lon="0.6807">
        <ele>956.93</ele>
        <time>2018-08-07T06:08:46Z</time>
      </trkpt>
      <trkpt lat="42.77625" lon="0.68048">
        <ele>955.42</ele>
        <time>2018-08-07T06:08:48Z</time>
      </trkpt>
      <trkpt lat="42.77605" lon="0.68045">
        <ele>955.31</ele>
        <time>2018-08-07T06:08:49Z</time>
      </trkpt>
      <trkpt lat="42.77586" lon="0.68044">
        <ele>954.58</ele>
        <time>2018-08-07T06:08:50Z</time>
      </trkpt>
      <trkpt lat="42.77568" lon="0.68045">
        <ele>954.36</ele>
        <time>2018-08-07T06:08:51Z</time>
      </trkpt>
      <trkpt lat="42.77549" lon="0.68052">
        <ele>955</ele>
        <time>2018-08-07T06:08:52Z</time>
      </trkpt>
      <trkpt lat="42.77531" lon="0.68057">
        <ele>954.49</ele>
        <time>2018-08-07T06:08:53Z</time>
      </trkpt>
      <trkpt lat="42.77499" lon="0.68061">
        <ele>953.38</ele>
        <time>2018-08-07T06:08:55Z</time>
      </trkpt>
      <trkpt lat="42.77478" lon="0.68065">
        <ele>953.3</ele>
        <time>2018-08-07T06:08:56Z</time>
      </trkpt>
      <trkpt lat="42.77459" lon="0.68072">
        <ele>952.58</ele>
        <time>2018-08-07T06:08:57Z</time>
      </trkpt>
      <trkpt lat="42.7744" lon="0.68074">
        <ele>950.96</ele>
        <time>2018-08-07T06:08:58Z</time>
      </trkpt>
      <trkpt lat="42.7742" lon="0.68077">
        <ele>951.17</ele>
        <time>2018-08-07T06:08:59Z</time>
      </trkpt>
      <trkpt lat="42.77401" lon="0.68079">
        <ele>949.84</ele>
        <time>2018-08-07T06:09:00Z</time>
      </trkpt>
      <trkpt lat="42.77364" lon="0.68086">
        <ele>943.16</ele>
        <time>2018-08-07T06:09:02Z</time>
      </trkpt>
      <trkpt lat="42.77331" lon="0.68086">
        <ele>943.26</ele>
        <time>2018-08-07T06:09:04Z</time>
      </trkpt>
      <trkpt lat="42.77306" lon="0.68085">
        <ele>939.77</ele>
        <time>2018-08-07T06:09:07Z</time>
      </trkpt>
      <trkpt lat="42.7731" lon="0.6811">
        <ele>933.55</ele>
        <time>2018-08-07T06:09:12Z</time>
      </trkpt>
      <trkpt lat="42.77338" lon="0.68115">
        <ele>931.33</ele>
        <time>2018-08-07T06:09:15Z</time>
      </trkpt>
      <trkpt lat="42.77397" lon="0.68116">
        <ele>929.87</ele>
        <time>2018-08-07T06:09:17Z</time>
      </trkpt>
      <trkpt lat="42.77426" lon="0.68116">
        <ele>926.65</ele>
        <time>2018-08-07T06:09:18Z</time>
      </trkpt>
      <trkpt lat="42.77447" lon="0.68118">
        <ele>924.98</ele>
        <time>2018-08-07T06:09:19Z</time>
      </trkpt>
      <trkpt lat="42.7747" lon="0.68125">
        <ele>924.48</ele>
        <time>2018-08-07T06:09:20Z</time>
      </trkpt>
      <trkpt lat="42.77489" lon="0.6813">
        <ele>924.33</ele>
        <time>2018-08-07T06:09:21Z</time>
      </trkpt>
      <trkpt lat="42.77506" lon="0.68142">
        <ele>922.19</ele>
        <time>2018-08-07T06:09:22Z</time>
      </trkpt>
      <trkpt lat="42.77525" lon="0.68149">
        <ele>920.84</ele>
        <time>2018-08-07T06:09:23Z</time>
      </trkpt>
      <trkpt lat="42.77543" lon="0.68155">
        <ele>920.44</ele>
        <time>2018-08-07T06:09:24Z</time>
      </trkpt>
      <trkpt lat="42.77561" lon="0.68161">
        <ele>920.32</ele>
        <time>2018-08-07T06:09:25Z</time>
      </trkpt>
      <trkpt lat="42.77578" lon="0.68174">
        <ele>918.18</ele>
        <time>2018-08-07T06:09:26Z</time>
      </trkpt>
      <trkpt lat="42.77595" lon="0.68185">
        <ele>915.44</ele>
        <time>2018-08-07T06:09:27Z</time>
      </trkpt>
      <trkpt lat="42.77611" lon="0.68197">
        <ele>913.22</ele>
        <time>2018-08-07T06:09:28Z</time>
      </trkpt>
      <trkpt lat="42.77626" lon="0.6821">
        <ele>912.55</ele>
        <time>2018-08-07T06:09:29Z</time>
      </trkpt>
      <trkpt lat="42.77648" lon="0.68242">
        <ele>907.67</ele>
        <time>2018-08-07T06:09:31Z</time>
      </trkpt>
      <trkpt lat="42.77668" lon="0.68263">
        <ele>904.57</ele>
        <time>2018-08-07T06:09:33Z</time>
      </trkpt>
      <trkpt lat="42.7769" lon="0.68276">
        <ele>904.29</ele>
        <time>2018-08-07T06:09:35Z</time>
      </trkpt>
      <trkpt lat="42.77715" lon="0.68291">
        <ele>894.26</ele>
        <time>2018-08-07T06:09:37Z</time>
      </trkpt>
      <trkpt lat="42.77738" lon="0.68303">
        <ele>891.75</ele>
        <time>2018-08-07T06:09:39Z</time>
      </trkpt>
      <trkpt lat="42.77767" lon="0.68302">
        <ele>891.52</ele>
        <time>2018-08-07T06:09:41Z</time>
      </trkpt>
      <trkpt lat="42.77798" lon="0.68318">
        <ele>884.99</ele>
        <time>2018-08-07T06:09:43Z</time>
      </trkpt>
      <trkpt lat="42.77822" lon="0.68335">
        <ele>881.81</ele>
        <time>2018-08-07T06:09:45Z</time>
      </trkpt>
      <trkpt lat="42.77853" lon="0.68333">
        <ele>879.5</ele>
        <time>2018-08-07T06:09:47Z</time>
      </trkpt>
      <trkpt lat="42.77888" lon="0.6833">
        <ele>879.29</ele>
        <time>2018-08-07T06:09:49Z</time>
      </trkpt>
      <trkpt lat="42.77918" lon="0.68326">
        <ele>877.45</ele>
        <time>2018-08-07T06:09:51Z</time>
      </trkpt>
      <trkpt lat="42.77942" lon="0.6831">
        <ele>876.58</ele>
        <time>2018-08-07T06:09:53Z</time>
      </trkpt>
      <trkpt lat="42.77964" lon="0.68301">
        <ele>868.25</ele>
        <time>2018-08-07T06:09:55Z</time>
      </trkpt>
      <trkpt lat="42.77984" lon="0.683">
        <ele>865.33</ele>
        <time>2018-08-07T06:09:57Z</time>
      </trkpt>
      <trkpt lat="42.77975" lon="0.68335">
        <ele>864.85</ele>
        <time>2018-08-07T06:10:01Z</time>
      </trkpt>
      <trkpt lat="42.77951" lon="0.68349">
        <ele>863.74</ele>
        <time>2018-08-07T06:10:02Z</time>
      </trkpt>
      <trkpt lat="42.77929" lon="0.6836">
        <ele>862.01</ele>
        <time>2018-08-07T06:10:03Z</time>
      </trkpt>
      <trkpt lat="42.77909" lon="0.6836">
        <ele>860.79</ele>
        <time>2018-08-07T06:10:04Z</time>
      </trkpt>
      <trkpt lat="42.77889" lon="0.68353">
        <ele>860.42</ele>
        <time>2018-08-07T06:10:05Z</time>
      </trkpt>
      <trkpt lat="42.77857" lon="0.6836">
        <ele>861.19</ele>
        <time>2018-08-07T06:10:07Z</time>
      </trkpt>
      <trkpt lat="42.77829" lon="0.68362">
        <ele>855.8</ele>
        <time>2018-08-07T06:10:09Z</time>
      </trkpt>
      <trkpt lat="42.77802" lon="0.68355">
        <ele>855.32</ele>
        <time>2018-08-07T06:10:11Z</time>
      </trkpt>
      <trkpt lat="42.77775" lon="0.68339">
        <ele>855.27</ele>
        <time>2018-08-07T06:10:13Z</time>
      </trkpt>
      <trkpt lat="42.7774" lon="0.68333">
        <ele>851.84</ele>
        <time>2018-08-07T06:10:15Z</time>
      </trkpt>
      <trkpt lat="42.77722" lon="0.68327">
        <ele>850.74</ele>
        <time>2018-08-07T06:10:16Z</time>
      </trkpt>
      <trkpt lat="42.77703" lon="0.68319">
        <ele>850.41</ele>
        <time>2018-08-07T06:10:17Z</time>
      </trkpt>
      <trkpt lat="42.77684" lon="0.68313">
        <ele>850.31</ele>
        <time>2018-08-07T06:10:18Z</time>
      </trkpt>
      <trkpt lat="42.77665" lon="0.68307">
        <ele>850.28</ele>
        <time>2018-08-07T06:10:19Z</time>
      </trkpt>
      <trkpt lat="42.77647" lon="0.68302">
        <ele>850.27</ele>
        <time>2018-08-07T06:10:20Z</time>
      </trkpt>
      <trkpt lat="42.77629" lon="0.68297">
        <ele>850.27</ele>
        <time>2018-08-07T06:10:21Z</time>
      </trkpt>
      <trkpt lat="42.77603" lon="0.68283">
        <ele>849.57</ele>
        <time>2018-08-07T06:10:23Z</time>
      </trkpt>
      <trkpt lat="42.77574" lon="0.68283">
        <ele>847.89</ele>
        <time>2018-08-07T06:10:25Z</time>
      </trkpt>
      <trkpt lat="42.77541" lon="0.68287">
        <ele>843.89</ele>
        <time>2018-08-07T06:10:27Z</time>
      </trkpt>
      <trkpt lat="42.77523" lon="0.68294">
        <ele>844.15</ele>
        <time>2018-08-07T06:10:28Z</time>
      </trkpt>
      <trkpt lat="42.77504" lon="0.68299">
        <ele>844.23</ele>
        <time>2018-08-07T06:10:29Z</time>
      </trkpt>
      <trkpt lat="42.77484" lon="0.68305">
        <ele>843.56</ele>
        <time>2018-08-07T06:10:30Z</time>
      </trkpt>
      <trkpt lat="42.77465" lon="0.68306">
        <ele>844.05</ele>
        <time>2018-08-07T06:10:31Z</time>
      </trkpt>
      <trkpt lat="42.77447" lon="0.68302">
        <ele>843.5</ele>
        <time>2018-08-07T06:10:32Z</time>
      </trkpt>
      <trkpt lat="42.77413" lon="0.68305">
        <ele>843.29</ele>
        <time>2018-08-07T06:10:34Z</time>
      </trkpt>
      <trkpt lat="42.77383" lon="0.68318">
        <ele>843.27</ele>
        <time>2018-08-07T06:10:36Z</time>
      </trkpt>
      <trkpt lat="42.77359" lon="0.68337">
        <ele>840.96</ele>
        <time>2018-08-07T06:10:38Z</time>
      </trkpt>
      <trkpt lat="42.77335" lon="0.68347">
        <ele>834.87</ele>
        <time>2018-08-07T06:10:40Z</time>
      </trkpt>
      <trkpt lat="42.77306" lon="0.68351">
        <ele>833.41</ele>
        <time>2018-08-07T06:10:42Z</time>
      </trkpt>
      <trkpt lat="42.77278" lon="0.68333">
        <ele>829.85</ele>
        <time>2018-08-07T06:10:44Z</time>
      </trkpt>
      <trkpt lat="42.77246" lon="0.68318">
        <ele>827.22</ele>
        <time>2018-08-07T06:10:46Z</time>
      </trkpt>
      <trkpt lat="42.77215" lon="0.68312">
        <ele>825.44</ele>
        <time>2018-08-07T06:10:48Z</time>
      </trkpt>
      <trkpt lat="42.77183" lon="0.68316">
        <ele>823.67</ele>
        <time>2018-08-07T06:10:50Z</time>
      </trkpt>
      <trkpt lat="42.77162" lon="0.68335">
        <ele>822.6</ele>
        <time>2018-08-07T06:10:52Z</time>
      </trkpt>
      <trkpt lat="42.77148" lon="0.68356">
        <ele>819.29</ele>
        <time>2018-08-07T06:10:54Z</time>
      </trkpt>
      <trkpt lat="42.77162" lon="0.68376">
        <ele>807.11</ele>
        <time>2018-08-07T06:10:58Z</time>
      </trkpt>
      <trkpt lat="42.77186" lon="0.68362">
        <ele>805.82</ele>
        <time>2018-08-07T06:10:59Z</time>
      </trkpt>
      <trkpt lat="42.77214" lon="0.68361">
        <ele>806.83</ele>
        <time>2018-08-07T06:11:00Z</time>
      </trkpt>
      <trkpt lat="42.77247" lon="0.6837">
        <ele>807.23</ele>
        <time>2018-08-07T06:11:02Z</time>
      </trkpt>
      <trkpt lat="42.77266" lon="0.68373">
        <ele>805.86</ele>
        <time>2018-08-07T06:11:03Z</time>
      </trkpt>
      <trkpt lat="42.773" lon="0.68385">
        <ele>803.22</ele>
        <time>2018-08-07T06:11:05Z</time>
      </trkpt>
      <trkpt lat="42.77333" lon="0.68399">
        <ele>802.35</ele>
        <time>2018-08-07T06:11:07Z</time>
      </trkpt>
      <trkpt lat="42.77368" lon="0.68402">
        <ele>802.27</ele>
        <time>2018-08-07T06:11:09Z</time>
      </trkpt>
      <trkpt lat="42.77403" lon="0.68402">
        <ele>803.18</ele>
        <time>2018-08-07T06:11:11Z</time>
      </trkpt>
      <trkpt lat="42.77421" lon="0.68405">
        <ele>803.24</ele>
        <time>2018-08-07T06:11:12Z</time>
      </trkpt>
      <trkpt lat="42.77442" lon="0.68404">
        <ele>801.86</ele>
        <time>2018-08-07T06:11:13Z</time>
      </trkpt>
      <trkpt lat="42.77461" lon="0.68405">
        <ele>800.74</ele>
        <time>2018-08-07T06:11:14Z</time>
      </trkpt>
      <trkpt lat="42.7748" lon="0.68404">
        <ele>800.41</ele>
        <time>2018-08-07T06:11:15Z</time>
      </trkpt>
      <trkpt lat="42.775" lon="0.68404">
        <ele>800.31</ele>
        <time>2018-08-07T06:11:16Z</time>
      </trkpt>
      <trkpt lat="42.7752" lon="0.68407">
        <ele>800.28</ele>
        <time>2018-08-07T06:11:17Z</time>
      </trkpt>
      <trkpt lat="42.77539" lon="0.68412">
        <ele>800.27</ele>
        <time>2018-08-07T06:11:18Z</time>
      </trkpt>
      <trkpt lat="42.77559" lon="0.68417">
        <ele>799.57</ele>
        <time>2018-08-07T06:11:19Z</time>
      </trkpt>
      <trkpt lat="42.77579" lon="0.6842">
        <ele>798.66</ele>
        <time>2018-08-07T06:11:20Z</time>
      </trkpt>
      <trkpt lat="42.77599" lon="0.68422">
        <ele>796.28</ele>
        <time>2018-08-07T06:11:21Z</time>
      </trkpt>
      <trkpt lat="42.77618" lon="0.68429">
        <ele>795.57</ele>
        <time>2018-08-07T06:11:22Z</time>
      </trkpt>
      <trkpt lat="42.77637" lon="0.68439">
        <ele>795.36</ele>
        <time>2018-08-07T06:11:23Z</time>
      </trkpt>
      <trkpt lat="42.77657" lon="0.6845">
        <ele>793.89</ele>
        <time>2018-08-07T06:11:24Z</time>
      </trkpt>
      <trkpt lat="42.77679" lon="0.68458">
        <ele>787.86</ele>
        <time>2018-08-07T06:11:25Z</time>
      </trkpt>
      <trkpt lat="42.77694" lon="0.68474">
        <ele>784.64</ele>
        <time>2018-08-07T06:11:26Z</time>
      </trkpt>
      <trkpt lat="42.77711" lon="0.68486">
        <ele>783.68</ele>
        <time>2018-08-07T06:11:27Z</time>
      </trkpt>
      <trkpt lat="42.77728" lon="0.68497">
        <ele>783.39</ele>
        <time>2018-08-07T06:11:28Z</time>
      </trkpt>
      <trkpt lat="42.77745" lon="0.68508">
        <ele>782.6</ele>
        <time>2018-08-07T06:11:29Z</time>
      </trkpt>
      <trkpt lat="42.77781" lon="0.68516">
        <ele>783.7</ele>
        <time>2018-08-07T06:11:31Z</time>
      </trkpt>
      <trkpt lat="42.77801" lon="0.68526">
        <ele>783.4</ele>
        <time>2018-08-07T06:11:32Z</time>
      </trkpt>
      <trkpt lat="42.77817" lon="0.6854">
        <ele>782.61</ele>
        <time>2018-08-07T06:11:33Z</time>
      </trkpt>
      <trkpt lat="42.77834" lon="0.68555">
        <ele>780.97</ele>
        <time>2018-08-07T06:11:34Z</time>
      </trkpt>
      <trkpt lat="42.77849" lon="0.68569">
        <ele>779.78</ele>
        <time>2018-08-07T06:11:35Z</time>
      </trkpt>
      <trkpt lat="42.77876" lon="0.6859">
        <ele>774.69</ele>
        <time>2018-08-07T06:11:37Z</time>
      </trkpt>
      <trkpt lat="42.7789" lon="0.68624">
        <ele>769.27</ele>
        <time>2018-08-07T06:11:39Z</time>
      </trkpt>
      <trkpt lat="42.77886" lon="0.68649">
        <ele>766.47</ele>
        <time>2018-08-07T06:11:40Z</time>
      </trkpt>
      <trkpt lat="42.77888" lon="0.68695">
        <ele>762.15</ele>
        <time>2018-08-07T06:11:42Z</time>
      </trkpt>
      <trkpt lat="42.77891" lon="0.68743">
        <ele>757.22</ele>
        <time>2018-08-07T06:11:44Z</time>
      </trkpt>
      <trkpt lat="42.77899" lon="0.68787">
        <ele>754.53</ele>
        <time>2018-08-07T06:11:46Z</time>
      </trkpt>
      <trkpt lat="42.77911" lon="0.68827">
        <ele>750.86</ele>
        <time>2018-08-07T06:11:48Z</time>
      </trkpt>
      <trkpt lat="42.7793" lon="0.6886">
        <ele>747.1</ele>
        <time>2018-08-07T06:11:50Z</time>
      </trkpt>
      <trkpt lat="42.77956" lon="0.68886">
        <ele>744.73</ele>
        <time>2018-08-07T06:11:52Z</time>
      </trkpt>
      <trkpt lat="42.77984" lon="0.68906">
        <ele>741.79</ele>
        <time>2018-08-07T06:11:54Z</time>
      </trkpt>
      <trkpt lat="42.78013" lon="0.68916">
        <ele>739.91</ele>
        <time>2018-08-07T06:11:56Z</time>
      </trkpt>
      <trkpt lat="42.78042" lon="0.68925">
        <ele>738.42</ele>
        <time>2018-08-07T06:11:58Z</time>
      </trkpt>
      <trkpt lat="42.78066" lon="0.6894">
        <ele>736.88</ele>
        <time>2018-08-07T06:12:00Z</time>
      </trkpt>
      <trkpt lat="42.78076" lon="0.68966">
        <ele>734.71</ele>
        <time>2018-08-07T06:12:02Z</time>
      </trkpt>
      <trkpt lat="42.78073" lon="0.68993">
        <ele>731.79</ele>
        <time>2018-08-07T06:12:04Z</time>
      </trkpt>
      <trkpt lat="42.78053" lon="0.69007">
        <ele>731.07</ele>
        <time>2018-08-07T06:12:07Z</time>
      </trkpt>
      <trkpt lat="42.78035" lon="0.69003">
        <ele>731.25</ele>
        <time>2018-08-07T06:12:09Z</time>
      </trkpt>
      <trkpt lat="42.7801" lon="0.68996">
        <ele>730.36</ele>
        <time>2018-08-07T06:12:11Z</time>
      </trkpt>
      <trkpt lat="42.77975" lon="0.68989">
        <ele>730.97</ele>
        <time>2018-08-07T06:12:13Z</time>
      </trkpt>
      <trkpt lat="42.77957" lon="0.68984">
        <ele>730.48</ele>
        <time>2018-08-07T06:12:14Z</time>
      </trkpt>
      <trkpt lat="42.77937" lon="0.68978">
        <ele>730.33</ele>
        <time>2018-08-07T06:12:15Z</time>
      </trkpt>
      <trkpt lat="42.77915" lon="0.68972">
        <ele>730.29</ele>
        <time>2018-08-07T06:12:16Z</time>
      </trkpt>
      <trkpt lat="42.77896" lon="0.68959">
        <ele>730.27</ele>
        <time>2018-08-07T06:12:17Z</time>
      </trkpt>
      <trkpt lat="42.77876" lon="0.68942">
        <ele>730.27</ele>
        <time>2018-08-07T06:12:18Z</time>
      </trkpt>
      <trkpt lat="42.77859" lon="0.6892">
        <ele>730.27</ele>
        <time>2018-08-07T06:12:19Z</time>
      </trkpt>
      <trkpt lat="42.77845" lon="0.68894">
        <ele>730.27</ele>
        <time>2018-08-07T06:12:20Z</time>
      </trkpt>
      <trkpt lat="42.77833" lon="0.68864">
        <ele>730.27</ele>
        <time>2018-08-07T06:12:21Z</time>
      </trkpt>
      <trkpt lat="42.77824" lon="0.68832">
        <ele>730.27</ele>
        <time>2018-08-07T06:12:22Z</time>
      </trkpt>
      <trkpt lat="42.77815" lon="0.68801">
        <ele>730.27</ele>
        <time>2018-08-07T06:12:23Z</time>
      </trkpt>
      <trkpt lat="42.77806" lon="0.6877">
        <ele>730.27</ele>
        <time>2018-08-07T06:12:24Z</time>
      </trkpt>
      <trkpt lat="42.77796" lon="0.6874">
        <ele>730.27</ele>
        <time>2018-08-07T06:12:25Z</time>
      </trkpt>
      <trkpt lat="42.77787" lon="0.68711">
        <ele>730.27</ele>
        <time>2018-08-07T06:12:26Z</time>
      </trkpt>
      <trkpt lat="42.77776" lon="0.68682">
        <ele>730.27</ele>
        <time>2018-08-07T06:12:27Z</time>
      </trkpt>
      <trkpt lat="42.77766" lon="0.68655">
        <ele>730.27</ele>
        <time>2018-08-07T06:12:28Z</time>
      </trkpt>
      <trkpt lat="42.77753" lon="0.68629">
        <ele>730.27</ele>
        <time>2018-08-07T06:12:29Z</time>
      </trkpt>
      <trkpt lat="42.77739" lon="0.68604">
        <ele>730.27</ele>
        <time>2018-08-07T06:12:30Z</time>
      </trkpt>
      <trkpt lat="42.77724" lon="0.68581">
        <ele>729.57</ele>
        <time>2018-08-07T06:12:31Z</time>
      </trkpt>
      <trkpt lat="42.77706" lon="0.68561">
        <ele>730.06</ele>
        <time>2018-08-07T06:12:32Z</time>
      </trkpt>
      <trkpt lat="42.77687" lon="0.68543">
        <ele>730.2</ele>
        <time>2018-08-07T06:12:33Z</time>
      </trkpt>
      <trkpt lat="42.77665" lon="0.68527">
        <ele>730.95</ele>
        <time>2018-08-07T06:12:34Z</time>
      </trkpt>
      <trkpt lat="42.77643" lon="0.68514">
        <ele>731.17</ele>
        <time>2018-08-07T06:12:35Z</time>
      </trkpt>
      <trkpt lat="42.77621" lon="0.68504">
        <ele>731.24</ele>
        <time>2018-08-07T06:12:36Z</time>
      </trkpt>
      <trkpt lat="42.77597" lon="0.68496">
        <ele>731.26</ele>
        <time>2018-08-07T06:12:37Z</time>
      </trkpt>
      <trkpt lat="42.77573" lon="0.68491">
        <ele>731.96</ele>
        <time>2018-08-07T06:12:38Z</time>
      </trkpt>
      <trkpt lat="42.77549" lon="0.68486">
        <ele>733.58</ele>
        <time>2018-08-07T06:12:39Z</time>
      </trkpt>
      <trkpt lat="42.77526" lon="0.68481">
        <ele>734.76</ele>
        <time>2018-08-07T06:12:40Z</time>
      </trkpt>
      <trkpt lat="42.77502" lon="0.68479">
        <ele>736.51</ele>
        <time>2018-08-07T06:12:41Z</time>
      </trkpt>
      <trkpt lat="42.77478" lon="0.68477">
        <ele>738.44</ele>
        <time>2018-08-07T06:12:42Z</time>
      </trkpt>
      <trkpt lat="42.77455" lon="0.68477">
        <ele>739.72</ele>
        <time>2018-08-07T06:12:43Z</time>
      </trkpt>
      <trkpt lat="42.77431" lon="0.68479">
        <ele>741.5</ele>
        <time>2018-08-07T06:12:44Z</time>
      </trkpt>
      <trkpt lat="42.77407" lon="0.68481">
        <ele>743.44</ele>
        <time>2018-08-07T06:12:45Z</time>
      </trkpt>
      <trkpt lat="42.77384" lon="0.68485">
        <ele>744.72</ele>
        <time>2018-08-07T06:12:46Z</time>
      </trkpt>
      <trkpt lat="42.77361" lon="0.68489">
        <ele>745.8</ele>
        <time>2018-08-07T06:12:47Z</time>
      </trkpt>
      <trkpt lat="42.77338" lon="0.68493">
        <ele>746.83</ele>
        <time>2018-08-07T06:12:48Z</time>
      </trkpt>
      <trkpt lat="42.77315" lon="0.68498">
        <ele>747.84</ele>
        <time>2018-08-07T06:12:49Z</time>
      </trkpt>
      <trkpt lat="42.77291" lon="0.68502">
        <ele>748.84</ele>
        <time>2018-08-07T06:12:50Z</time>
      </trkpt>
      <trkpt lat="42.77268" lon="0.68507">
        <ele>749.14</ele>
        <time>2018-08-07T06:12:51Z</time>
      </trkpt>
      <trkpt lat="42.77243" lon="0.68511">
        <ele>749.23</ele>
        <time>2018-08-07T06:12:52Z</time>
      </trkpt>
      <trkpt lat="42.77219" lon="0.68516">
        <ele>749.26</ele>
        <time>2018-08-07T06:12:53Z</time>
      </trkpt>
      <trkpt lat="42.77195" lon="0.68522">
        <ele>749.26</ele>
        <time>2018-08-07T06:12:54Z</time>
      </trkpt>
      <trkpt lat="42.7717" lon="0.68527">
        <ele>749.27</ele>
        <time>2018-08-07T06:12:55Z</time>
      </trkpt>
      <trkpt lat="42.77145" lon="0.68533">
        <ele>749.27</ele>
        <time>2018-08-07T06:12:56Z</time>
      </trkpt>
      <trkpt lat="42.7712" lon="0.68537">
        <ele>748.57</ele>
        <time>2018-08-07T06:12:57Z</time>
      </trkpt>
      <trkpt lat="42.77095" lon="0.68544">
        <ele>749.06</ele>
        <time>2018-08-07T06:12:58Z</time>
      </trkpt>
      <trkpt lat="42.77069" lon="0.68551">
        <ele>749.2</ele>
        <time>2018-08-07T06:12:59Z</time>
      </trkpt>
      <trkpt lat="42.77043" lon="0.68558">
        <ele>750.65</ele>
        <time>2018-08-07T06:13:00Z</time>
      </trkpt>
      <trkpt lat="42.77017" lon="0.68563">
        <ele>751.08</ele>
        <time>2018-08-07T06:13:01Z</time>
      </trkpt>
      <trkpt lat="42.76992" lon="0.6857">
        <ele>751.91</ele>
        <time>2018-08-07T06:13:02Z</time>
      </trkpt>
      <trkpt lat="42.76966" lon="0.68576">
        <ele>752.16</ele>
        <time>2018-08-07T06:13:03Z</time>
      </trkpt>
      <trkpt lat="42.76941" lon="0.68582">
        <ele>752.23</ele>
        <time>2018-08-07T06:13:04Z</time>
      </trkpt>
      <trkpt lat="42.76917" lon="0.68587">
        <ele>752.26</ele>
        <time>2018-08-07T06:13:05Z</time>
      </trkpt>
      <trkpt lat="42.76892" lon="0.68593">
        <ele>752.26</ele>
        <time>2018-08-07T06:13:06Z</time>
      </trkpt>
      <trkpt lat="42.76868" lon="0.68599">
        <ele>752.27</ele>
        <time>2018-08-07T06:13:07Z</time>
      </trkpt>
      <trkpt lat="42.76845" lon="0.68604">
        <ele>752.27</ele>
        <time>2018-08-07T06:13:08Z</time>
      </trkpt>
      <trkpt lat="42.76821" lon="0.6861">
        <ele>752.27</ele>
        <time>2018-08-07T06:13:09Z</time>
      </trkpt>
      <trkpt lat="42.76798" lon="0.68615">
        <ele>752.27</ele>
        <time>2018-08-07T06:13:10Z</time>
      </trkpt>
      <trkpt lat="42.76774" lon="0.6862">
        <ele>752.27</ele>
        <time>2018-08-07T06:13:11Z</time>
      </trkpt>
      <trkpt lat="42.76751" lon="0.68625">
        <ele>752.27</ele>
        <time>2018-08-07T06:13:12Z</time>
      </trkpt>
      <trkpt lat="42.76728" lon="0.6863">
        <ele>752.27</ele>
        <time>2018-08-07T06:13:13Z</time>
      </trkpt>
      <trkpt lat="42.76705" lon="0.68636">
        <ele>752.27</ele>
        <time>2018-08-07T06:13:14Z</time>
      </trkpt>
      <trkpt lat="42.76682" lon="0.68642">
        <ele>751.57</ele>
        <time>2018-08-07T06:13:15Z</time>
      </trkpt>
      <trkpt lat="42.76659" lon="0.68649">
        <ele>752.76</ele>
        <time>2018-08-07T06:13:16Z</time>
      </trkpt>
      <trkpt lat="42.76636" lon="0.68656">
        <ele>752.41</ele>
        <time>2018-08-07T06:13:17Z</time>
      </trkpt>
      <trkpt lat="42.76613" lon="0.68665">
        <ele>753.01</ele>
        <time>2018-08-07T06:13:18Z</time>
      </trkpt>
      <trkpt lat="42.76591" lon="0.68677">
        <ele>753.19</ele>
        <time>2018-08-07T06:13:19Z</time>
      </trkpt>
      <trkpt lat="42.76569" lon="0.68689">
        <ele>753.24</ele>
        <time>2018-08-07T06:13:20Z</time>
      </trkpt>
      <trkpt lat="42.76549" lon="0.68706">
        <ele>753.26</ele>
        <time>2018-08-07T06:13:21Z</time>
      </trkpt>
      <trkpt lat="42.76529" lon="0.68724">
        <ele>753.26</ele>
        <time>2018-08-07T06:13:22Z</time>
      </trkpt>
      <trkpt lat="42.7651" lon="0.68746">
        <ele>753.27</ele>
        <time>2018-08-07T06:13:23Z</time>
      </trkpt>
      <trkpt lat="42.76492" lon="0.68766">
        <ele>751.87</ele>
        <time>2018-08-07T06:13:24Z</time>
      </trkpt>
      <trkpt lat="42.76474" lon="0.6879">
        <ele>752.85</ele>
        <time>2018-08-07T06:13:25Z</time>
      </trkpt>
      <trkpt lat="42.76458" lon="0.68812">
        <ele>751.74</ele>
        <time>2018-08-07T06:13:26Z</time>
      </trkpt>
      <trkpt lat="42.76441" lon="0.68836">
        <ele>752.11</ele>
        <time>2018-08-07T06:13:27Z</time>
      </trkpt>
      <trkpt lat="42.76424" lon="0.68859">
        <ele>752.22</ele>
        <time>2018-08-07T06:13:28Z</time>
      </trkpt>
      <trkpt lat="42.76406" lon="0.68882">
        <ele>752.25</ele>
        <time>2018-08-07T06:13:29Z</time>
      </trkpt>
      <trkpt lat="42.76388" lon="0.68904">
        <ele>752.26</ele>
        <time>2018-08-07T06:13:30Z</time>
      </trkpt>
      <trkpt lat="42.7637" lon="0.68926">
        <ele>752.27</ele>
        <time>2018-08-07T06:13:31Z</time>
      </trkpt>
      <trkpt lat="42.76352" lon="0.68948">
        <ele>752.97</ele>
        <time>2018-08-07T06:13:32Z</time>
      </trkpt>
      <trkpt lat="42.76333" lon="0.6897">
        <ele>753.18</ele>
        <time>2018-08-07T06:13:33Z</time>
      </trkpt>
      <trkpt lat="42.76314" lon="0.6899">
        <ele>753.24</ele>
        <time>2018-08-07T06:13:34Z</time>
      </trkpt>
      <trkpt lat="42.76295" lon="0.69011">
        <ele>752.56</ele>
        <time>2018-08-07T06:13:35Z</time>
      </trkpt>
      <trkpt lat="42.76276" lon="0.6903">
        <ele>753.05</ele>
        <time>2018-08-07T06:13:36Z</time>
      </trkpt>
      <trkpt lat="42.76255" lon="0.6905">
        <ele>753.9</ele>
        <time>2018-08-07T06:13:37Z</time>
      </trkpt>
      <trkpt lat="42.76236" lon="0.6907">
        <ele>754.86</ele>
        <time>2018-08-07T06:13:38Z</time>
      </trkpt>
      <trkpt lat="42.76216" lon="0.69091">
        <ele>755.84</ele>
        <time>2018-08-07T06:13:39Z</time>
      </trkpt>
      <trkpt lat="42.76196" lon="0.6911">
        <ele>756.14</ele>
        <time>2018-08-07T06:13:40Z</time>
      </trkpt>
      <trkpt lat="42.76177" lon="0.69129">
        <ele>756.23</ele>
        <time>2018-08-07T06:13:41Z</time>
      </trkpt>
      <trkpt lat="42.76156" lon="0.69146">
        <ele>756.26</ele>
        <time>2018-08-07T06:13:42Z</time>
      </trkpt>
      <trkpt lat="42.76134" lon="0.6916">
        <ele>757.66</ele>
        <time>2018-08-07T06:13:43Z</time>
      </trkpt>
      <trkpt lat="42.76112" lon="0.6917">
        <ele>758.09</ele>
        <time>2018-08-07T06:13:44Z</time>
      </trkpt>
      <trkpt lat="42.76089" lon="0.69178">
        <ele>758.21</ele>
        <time>2018-08-07T06:13:45Z</time>
      </trkpt>
      <trkpt lat="42.76066" lon="0.69185">
        <ele>758.25</ele>
        <time>2018-08-07T06:13:46Z</time>
      </trkpt>
      <trkpt lat="42.76042" lon="0.69192">
        <ele>758.26</ele>
        <time>2018-08-07T06:13:47Z</time>
      </trkpt>
      <trkpt lat="42.76019" lon="0.692">
        <ele>758.27</ele>
        <time>2018-08-07T06:13:48Z</time>
      </trkpt>
      <trkpt lat="42.75997" lon="0.6921">
        <ele>758.27</ele>
        <time>2018-08-07T06:13:49Z</time>
      </trkpt>
      <trkpt lat="42.75975" lon="0.69221">
        <ele>758.27</ele>
        <time>2018-08-07T06:13:50Z</time>
      </trkpt>
      <trkpt lat="42.75954" lon="0.69235">
        <ele>758.27</ele>
        <time>2018-08-07T06:13:51Z</time>
      </trkpt>
      <trkpt lat="42.75933" lon="0.69252">
        <ele>758.27</ele>
        <time>2018-08-07T06:13:52Z</time>
      </trkpt>
      <trkpt lat="42.75915" lon="0.69272">
        <ele>758.97</ele>
        <time>2018-08-07T06:13:53Z</time>
      </trkpt>
      <trkpt lat="42.75897" lon="0.69292">
        <ele>759.18</ele>
        <time>2018-08-07T06:13:54Z</time>
      </trkpt>
      <trkpt lat="42.75881" lon="0.69316">
        <ele>759.94</ele>
        <time>2018-08-07T06:13:55Z</time>
      </trkpt>
      <trkpt lat="42.75865" lon="0.69341">
        <ele>760.17</ele>
        <time>2018-08-07T06:13:56Z</time>
      </trkpt>
      <trkpt lat="42.75851" lon="0.69364">
        <ele>758.84</ele>
        <time>2018-08-07T06:13:57Z</time>
      </trkpt>
      <trkpt lat="42.75837" lon="0.69391">
        <ele>759.84</ele>
        <time>2018-08-07T06:13:58Z</time>
      </trkpt>
      <trkpt lat="42.75823" lon="0.69415">
        <ele>759.44</ele>
        <time>2018-08-07T06:13:59Z</time>
      </trkpt>
      <trkpt lat="42.75808" lon="0.69439">
        <ele>760.02</ele>
        <time>2018-08-07T06:14:00Z</time>
      </trkpt>
      <trkpt lat="42.7579" lon="0.6946">
        <ele>760.89</ele>
        <time>2018-08-07T06:14:01Z</time>
      </trkpt>
      <trkpt lat="42.75771" lon="0.69478">
        <ele>761.85</ele>
        <time>2018-08-07T06:14:02Z</time>
      </trkpt>
      <trkpt lat="42.75751" lon="0.69496">
        <ele>762.14</ele>
        <time>2018-08-07T06:14:03Z</time>
      </trkpt>
      <trkpt lat="42.75733" lon="0.69513">
        <ele>762.93</ele>
        <time>2018-08-07T06:14:04Z</time>
      </trkpt>
      <trkpt lat="42.75715" lon="0.69531">
        <ele>763.87</ele>
        <time>2018-08-07T06:14:05Z</time>
      </trkpt>
      <trkpt lat="42.75699" lon="0.69548">
        <ele>764.85</ele>
        <time>2018-08-07T06:14:06Z</time>
      </trkpt>
      <trkpt lat="42.75682" lon="0.69564">
        <ele>765.14</ele>
        <time>2018-08-07T06:14:07Z</time>
      </trkpt>
      <trkpt lat="42.75665" lon="0.6958">
        <ele>765.93</ele>
        <time>2018-08-07T06:14:08Z</time>
      </trkpt>
      <trkpt lat="42.75647" lon="0.69596">
        <ele>766.87</ele>
        <time>2018-08-07T06:14:09Z</time>
      </trkpt>
      <trkpt lat="42.75628" lon="0.69612">
        <ele>767.85</ele>
        <time>2018-08-07T06:14:10Z</time>
      </trkpt>
      <trkpt lat="42.7561" lon="0.69628">
        <ele>768.84</ele>
        <time>2018-08-07T06:14:11Z</time>
      </trkpt>
      <trkpt lat="42.7559" lon="0.69645">
        <ele>769.14</ele>
        <time>2018-08-07T06:14:12Z</time>
      </trkpt>
      <trkpt lat="42.7557" lon="0.69662">
        <ele>769.93</ele>
        <time>2018-08-07T06:14:13Z</time>
      </trkpt>
      <trkpt lat="42.75551" lon="0.69681">
        <ele>770.87</ele>
        <time>2018-08-07T06:14:14Z</time>
      </trkpt>
      <trkpt lat="42.75531" lon="0.69699">
        <ele>771.85</ele>
        <time>2018-08-07T06:14:15Z</time>
      </trkpt>
      <trkpt lat="42.7551" lon="0.69716">
        <ele>772.84</ele>
        <time>2018-08-07T06:14:16Z</time>
      </trkpt>
      <trkpt lat="42.75488" lon="0.6973">
        <ele>773.84</ele>
        <time>2018-08-07T06:14:17Z</time>
      </trkpt>
      <trkpt lat="42.75465" lon="0.69742">
        <ele>775.54</ele>
        <time>2018-08-07T06:14:18Z</time>
      </trkpt>
      <trkpt lat="42.75441" lon="0.69753">
        <ele>776.05</ele>
        <time>2018-08-07T06:14:19Z</time>
      </trkpt>
      <trkpt lat="42.75417" lon="0.69762">
        <ele>776.9</ele>
        <time>2018-08-07T06:14:20Z</time>
      </trkpt>
      <trkpt lat="42.75393" lon="0.69767">
        <ele>777.86</ele>
        <time>2018-08-07T06:14:21Z</time>
      </trkpt>
      <trkpt lat="42.75369" lon="0.69772">
        <ele>778.84</ele>
        <time>2018-08-07T06:14:22Z</time>
      </trkpt>
      <trkpt lat="42.75346" lon="0.69778">
        <ele>779.14</ele>
        <time>2018-08-07T06:14:23Z</time>
      </trkpt>
      <trkpt lat="42.75324" lon="0.69785">
        <ele>779.23</ele>
        <time>2018-08-07T06:14:24Z</time>
      </trkpt>
      <trkpt lat="42.75303" lon="0.69794">
        <ele>779.26</ele>
        <time>2018-08-07T06:14:25Z</time>
      </trkpt>
      <trkpt lat="42.75282" lon="0.69805">
        <ele>779.96</ele>
        <time>2018-08-07T06:14:26Z</time>
      </trkpt>
      <trkpt lat="42.75261" lon="0.69816">
        <ele>779.48</ele>
        <time>2018-08-07T06:14:27Z</time>
      </trkpt>
      <trkpt lat="42.75242" lon="0.6983">
        <ele>779.33</ele>
        <time>2018-08-07T06:14:28Z</time>
      </trkpt>
      <trkpt lat="42.75223" lon="0.69843">
        <ele>779.29</ele>
        <time>2018-08-07T06:14:29Z</time>
      </trkpt>
      <trkpt lat="42.75204" lon="0.69856">
        <ele>778.57</ele>
        <time>2018-08-07T06:14:30Z</time>
      </trkpt>
      <trkpt lat="42.75184" lon="0.6987">
        <ele>778.36</ele>
        <time>2018-08-07T06:14:31Z</time>
      </trkpt>
      <trkpt lat="42.75166" lon="0.69883">
        <ele>778.29</ele>
        <time>2018-08-07T06:14:32Z</time>
      </trkpt>
      <trkpt lat="42.75147" lon="0.69897">
        <ele>778.28</ele>
        <time>2018-08-07T06:14:33Z</time>
      </trkpt>
      <trkpt lat="42.75129" lon="0.69914">
        <ele>777.57</ele>
        <time>2018-08-07T06:14:34Z</time>
      </trkpt>
      <trkpt lat="42.75112" lon="0.69931">
        <ele>777.36</ele>
        <time>2018-08-07T06:14:35Z</time>
      </trkpt>
      <trkpt lat="42.75097" lon="0.69949">
        <ele>776.59</ele>
        <time>2018-08-07T06:14:36Z</time>
      </trkpt>
      <trkpt lat="42.75082" lon="0.6997">
        <ele>777.07</ele>
        <time>2018-08-07T06:14:37Z</time>
      </trkpt>
      <trkpt lat="42.75067" lon="0.69988">
        <ele>777.21</ele>
        <time>2018-08-07T06:14:38Z</time>
      </trkpt>
      <trkpt lat="42.75052" lon="0.70006">
        <ele>777.25</ele>
        <time>2018-08-07T06:14:39Z</time>
      </trkpt>
      <trkpt lat="42.75036" lon="0.70022">
        <ele>777.26</ele>
        <time>2018-08-07T06:14:40Z</time>
      </trkpt>
      <trkpt lat="42.75019" lon="0.70034">
        <ele>776.57</ele>
        <time>2018-08-07T06:14:41Z</time>
      </trkpt>
      <trkpt lat="42.75002" lon="0.70044">
        <ele>777.06</ele>
        <time>2018-08-07T06:14:42Z</time>
      </trkpt>
      <trkpt lat="42.74974" lon="0.70055">
        <ele>777.12</ele>
        <time>2018-08-07T06:14:44Z</time>
      </trkpt>
      <trkpt lat="42.74951" lon="0.70046">
        <ele>777.13</ele>
        <time>2018-08-07T06:14:47Z</time>
      </trkpt>
      <trkpt lat="42.74934" lon="0.7005">
        <ele>775.43</ele>
        <time>2018-08-07T06:14:52Z</time>
      </trkpt>
      <trkpt lat="42.74917" lon="0.70063">
        <ele>778.83</ele>
        <time>2018-08-07T06:24:10Z</time>
      </trkpt>
      <trkpt lat="42.74901" lon="0.70082">
        <ele>781.7</ele>
        <time>2018-08-07T06:24:13Z</time>
      </trkpt>
      <trkpt lat="42.74881" lon="0.70097">
        <ele>783.91</ele>
        <time>2018-08-07T06:24:15Z</time>
      </trkpt>
      <trkpt lat="42.74857" lon="0.70117">
        <ele>784.81</ele>
        <time>2018-08-07T06:24:17Z</time>
      </trkpt>
      <trkpt lat="42.74834" lon="0.70147">
        <ele>785.8</ele>
        <time>2018-08-07T06:24:19Z</time>
      </trkpt>
      <trkpt lat="42.74812" lon="0.70181">
        <ele>786.8</ele>
        <time>2018-08-07T06:24:21Z</time>
      </trkpt>
      <trkpt lat="42.74788" lon="0.70216">
        <ele>788.71</ele>
        <time>2018-08-07T06:24:23Z</time>
      </trkpt>
      <trkpt lat="42.74775" lon="0.70234">
        <ele>789</ele>
        <time>2018-08-07T06:24:24Z</time>
      </trkpt>
      <trkpt lat="42.74761" lon="0.70251">
        <ele>789.09</ele>
        <time>2018-08-07T06:24:25Z</time>
      </trkpt>
      <trkpt lat="42.74745" lon="0.70268">
        <ele>789.82</ele>
        <time>2018-08-07T06:24:26Z</time>
      </trkpt>
      <trkpt lat="42.7473" lon="0.70285">
        <ele>790.74</ele>
        <time>2018-08-07T06:24:27Z</time>
      </trkpt>
      <trkpt lat="42.74714" lon="0.70303">
        <ele>791.71</ele>
        <time>2018-08-07T06:24:28Z</time>
      </trkpt>
      <trkpt lat="42.74698" lon="0.7032">
        <ele>792</ele>
        <time>2018-08-07T06:24:29Z</time>
      </trkpt>
      <trkpt lat="42.74683" lon="0.70339">
        <ele>792.79</ele>
        <time>2018-08-07T06:24:30Z</time>
      </trkpt>
      <trkpt lat="42.74669" lon="0.70359">
        <ele>792.33</ele>
        <time>2018-08-07T06:24:31Z</time>
      </trkpt>
      <trkpt lat="42.74655" lon="0.70381">
        <ele>792.19</ele>
        <time>2018-08-07T06:24:32Z</time>
      </trkpt>
      <trkpt lat="42.74643" lon="0.70404">
        <ele>792.15</ele>
        <time>2018-08-07T06:24:33Z</time>
      </trkpt>
      <trkpt lat="42.7463" lon="0.70428">
        <ele>791.44</ele>
        <time>2018-08-07T06:24:34Z</time>
      </trkpt>
      <trkpt lat="42.74616" lon="0.70452">
        <ele>791.22</ele>
        <time>2018-08-07T06:24:35Z</time>
      </trkpt>
      <trkpt lat="42.74601" lon="0.70475">
        <ele>791.16</ele>
        <time>2018-08-07T06:24:36Z</time>
      </trkpt>
      <trkpt lat="42.74585" lon="0.70497">
        <ele>791.14</ele>
        <time>2018-08-07T06:24:37Z</time>
      </trkpt>
      <trkpt lat="42.74568" lon="0.70519">
        <ele>791.13</ele>
        <time>2018-08-07T06:24:38Z</time>
      </trkpt>
      <trkpt lat="42.74551" lon="0.7054">
        <ele>790.43</ele>
        <time>2018-08-07T06:24:39Z</time>
      </trkpt>
      <trkpt lat="42.74533" lon="0.70561">
        <ele>790.92</ele>
        <time>2018-08-07T06:24:40Z</time>
      </trkpt>
      <trkpt lat="42.74516" lon="0.70583">
        <ele>789.67</ele>
        <time>2018-08-07T06:24:41Z</time>
      </trkpt>
      <trkpt lat="42.74497" lon="0.70603">
        <ele>789.29</ele>
        <time>2018-08-07T06:24:42Z</time>
      </trkpt>
      <trkpt lat="42.74479" lon="0.70624">
        <ele>789.18</ele>
        <time>2018-08-07T06:24:43Z</time>
      </trkpt>
      <trkpt lat="42.74461" lon="0.70646">
        <ele>788.44</ele>
        <time>2018-08-07T06:24:44Z</time>
      </trkpt>
      <trkpt lat="42.74443" lon="0.70668">
        <ele>788.22</ele>
        <time>2018-08-07T06:24:45Z</time>
      </trkpt>
      <trkpt lat="42.74424" lon="0.70689">
        <ele>788.86</ele>
        <time>2018-08-07T06:24:46Z</time>
      </trkpt>
      <trkpt lat="42.74407" lon="0.7071">
        <ele>789.05</ele>
        <time>2018-08-07T06:24:47Z</time>
      </trkpt>
      <trkpt lat="42.74388" lon="0.70731">
        <ele>789.11</ele>
        <time>2018-08-07T06:24:48Z</time>
      </trkpt>
      <trkpt lat="42.7437" lon="0.70752">
        <ele>789.82</ele>
        <time>2018-08-07T06:24:49Z</time>
      </trkpt>
      <trkpt lat="42.74352" lon="0.70773">
        <ele>790.04</ele>
        <time>2018-08-07T06:24:50Z</time>
      </trkpt>
      <trkpt lat="42.74334" lon="0.70793">
        <ele>790.8</ele>
        <time>2018-08-07T06:24:51Z</time>
      </trkpt>
      <trkpt lat="42.74316" lon="0.70812">
        <ele>791.73</ele>
        <time>2018-08-07T06:24:52Z</time>
      </trkpt>
      <trkpt lat="42.74299" lon="0.70832">
        <ele>792.71</ele>
        <time>2018-08-07T06:24:53Z</time>
      </trkpt>
      <trkpt lat="42.74282" lon="0.70852">
        <ele>794.4</ele>
        <time>2018-08-07T06:24:54Z</time>
      </trkpt>
      <trkpt lat="42.74266" lon="0.70871">
        <ele>794.91</ele>
        <time>2018-08-07T06:24:55Z</time>
      </trkpt>
      <trkpt lat="42.7425" lon="0.70891">
        <ele>795.06</ele>
        <time>2018-08-07T06:24:56Z</time>
      </trkpt>
      <trkpt lat="42.74234" lon="0.7091">
        <ele>795.81</ele>
        <time>2018-08-07T06:24:57Z</time>
      </trkpt>
      <trkpt lat="42.7422" lon="0.70931">
        <ele>796.03</ele>
        <time>2018-08-07T06:24:58Z</time>
      </trkpt>
      <trkpt lat="42.74206" lon="0.70952">
        <ele>796.8</ele>
        <time>2018-08-07T06:24:59Z</time>
      </trkpt>
      <trkpt lat="42.74193" lon="0.70975">
        <ele>797.73</ele>
        <time>2018-08-07T06:25:00Z</time>
      </trkpt>
      <trkpt lat="42.74181" lon="0.70998">
        <ele>798.01</ele>
        <time>2018-08-07T06:25:01Z</time>
      </trkpt>
      <trkpt lat="42.7417" lon="0.71022">
        <ele>798.09</ele>
        <time>2018-08-07T06:25:02Z</time>
      </trkpt>
      <trkpt lat="42.74161" lon="0.71047">
        <ele>798.12</ele>
        <time>2018-08-07T06:25:03Z</time>
      </trkpt>
      <trkpt lat="42.74153" lon="0.71071">
        <ele>798.83</ele>
        <time>2018-08-07T06:25:04Z</time>
      </trkpt>
      <trkpt lat="42.74146" lon="0.71097">
        <ele>799.74</ele>
        <time>2018-08-07T06:25:05Z</time>
      </trkpt>
      <trkpt lat="42.7414" lon="0.71122">
        <ele>800.01</ele>
        <time>2018-08-07T06:25:06Z</time>
      </trkpt>
      <trkpt lat="42.74136" lon="0.71149">
        <ele>800.09</ele>
        <time>2018-08-07T06:25:07Z</time>
      </trkpt>
      <trkpt lat="42.74132" lon="0.71175">
        <ele>799.42</ele>
        <time>2018-08-07T06:25:08Z</time>
      </trkpt>
      <trkpt lat="42.7413" lon="0.71203">
        <ele>799.92</ele>
        <time>2018-08-07T06:25:09Z</time>
      </trkpt>
      <trkpt lat="42.74128" lon="0.71232">
        <ele>800.07</ele>
        <time>2018-08-07T06:25:10Z</time>
      </trkpt>
      <trkpt lat="42.74128" lon="0.71264">
        <ele>800.11</ele>
        <time>2018-08-07T06:25:11Z</time>
      </trkpt>
      <trkpt lat="42.74129" lon="0.71297">
        <ele>800.12</ele>
        <time>2018-08-07T06:25:12Z</time>
      </trkpt>
      <trkpt lat="42.74129" lon="0.7133">
        <ele>800.13</ele>
        <time>2018-08-07T06:25:13Z</time>
      </trkpt>
      <trkpt lat="42.7413" lon="0.71364">
        <ele>800.13</ele>
        <time>2018-08-07T06:25:14Z</time>
      </trkpt>
      <trkpt lat="42.74131" lon="0.71398">
        <ele>800.13</ele>
        <time>2018-08-07T06:25:15Z</time>
      </trkpt>
      <trkpt lat="42.74131" lon="0.71431">
        <ele>800.13</ele>
        <time>2018-08-07T06:25:16Z</time>
      </trkpt>
      <trkpt lat="42.7413" lon="0.71465">
        <ele>800.83</ele>
        <time>2018-08-07T06:25:17Z</time>
      </trkpt>
      <trkpt lat="42.74127" lon="0.71499">
        <ele>801.04</ele>
        <time>2018-08-07T06:25:18Z</time>
      </trkpt>
      <trkpt lat="42.74122" lon="0.71533">
        <ele>801.1</ele>
        <time>2018-08-07T06:25:19Z</time>
      </trkpt>
      <trkpt lat="42.74115" lon="0.71566">
        <ele>801.12</ele>
        <time>2018-08-07T06:25:20Z</time>
      </trkpt>
      <trkpt lat="42.74107" lon="0.716">
        <ele>801.83</ele>
        <time>2018-08-07T06:25:21Z</time>
      </trkpt>
      <trkpt lat="42.74096" lon="0.71632">
        <ele>802.04</ele>
        <time>2018-08-07T06:25:22Z</time>
      </trkpt>
      <trkpt lat="42.74083" lon="0.71664">
        <ele>802.8</ele>
        <time>2018-08-07T06:25:23Z</time>
      </trkpt>
      <trkpt lat="42.74069" lon="0.71694">
        <ele>803.03</ele>
        <time>2018-08-07T06:25:24Z</time>
      </trkpt>
      <trkpt lat="42.74053" lon="0.71722">
        <ele>803.8</ele>
        <time>2018-08-07T06:25:25Z</time>
      </trkpt>
      <trkpt lat="42.74037" lon="0.7175">
        <ele>804.03</ele>
        <time>2018-08-07T06:25:26Z</time>
      </trkpt>
      <trkpt lat="42.7402" lon="0.71777">
        <ele>804.8</ele>
        <time>2018-08-07T06:25:27Z</time>
      </trkpt>
      <trkpt lat="42.74003" lon="0.71803">
        <ele>805.03</ele>
        <time>2018-08-07T06:25:28Z</time>
      </trkpt>
      <trkpt lat="42.73986" lon="0.7183">
        <ele>805.8</ele>
        <time>2018-08-07T06:25:29Z</time>
      </trkpt>
      <trkpt lat="42.7397" lon="0.71856">
        <ele>806.73</ele>
        <time>2018-08-07T06:25:30Z</time>
      </trkpt>
      <trkpt lat="42.73955" lon="0.71884">
        <ele>806.31</ele>
        <time>2018-08-07T06:25:31Z</time>
      </trkpt>
      <trkpt lat="42.73943" lon="0.71914">
        <ele>806.88</ele>
        <time>2018-08-07T06:25:32Z</time>
      </trkpt>
      <trkpt lat="42.73935" lon="0.71947">
        <ele>807.06</ele>
        <time>2018-08-07T06:25:33Z</time>
      </trkpt>
      <trkpt lat="42.73931" lon="0.71983">
        <ele>807.11</ele>
        <time>2018-08-07T06:25:34Z</time>
      </trkpt>
      <trkpt lat="42.73926" lon="0.72019">
        <ele>807.12</ele>
        <time>2018-08-07T06:25:35Z</time>
      </trkpt>
      <trkpt lat="42.73921" lon="0.72055">
        <ele>807.13</ele>
        <time>2018-08-07T06:25:36Z</time>
      </trkpt>
      <trkpt lat="42.73916" lon="0.7209">
        <ele>807.83</ele>
        <time>2018-08-07T06:25:37Z</time>
      </trkpt>
      <trkpt lat="42.73911" lon="0.72125">
        <ele>808.04</ele>
        <time>2018-08-07T06:25:38Z</time>
      </trkpt>
      <trkpt lat="42.73905" lon="0.72159">
        <ele>808.1</ele>
        <time>2018-08-07T06:25:39Z</time>
      </trkpt>
      <trkpt lat="42.73899" lon="0.72194">
        <ele>808.82</ele>
        <time>2018-08-07T06:25:40Z</time>
      </trkpt>
      <trkpt lat="42.73892" lon="0.72228">
        <ele>809.04</ele>
        <time>2018-08-07T06:25:41Z</time>
      </trkpt>
      <trkpt lat="42.73885" lon="0.7226">
        <ele>809.8</ele>
        <time>2018-08-07T06:25:42Z</time>
      </trkpt>
      <trkpt lat="42.73879" lon="0.72292">
        <ele>810.03</ele>
        <time>2018-08-07T06:25:43Z</time>
      </trkpt>
      <trkpt lat="42.73873" lon="0.72323">
        <ele>810.8</ele>
        <time>2018-08-07T06:25:44Z</time>
      </trkpt>
      <trkpt lat="42.7387" lon="0.72355">
        <ele>811.73</ele>
        <time>2018-08-07T06:25:45Z</time>
      </trkpt>
      <trkpt lat="42.7387" lon="0.72388">
        <ele>812.01</ele>
        <time>2018-08-07T06:25:46Z</time>
      </trkpt>
      <trkpt lat="42.73872" lon="0.7242">
        <ele>812.79</ele>
        <time>2018-08-07T06:25:47Z</time>
      </trkpt>
      <trkpt lat="42.73875" lon="0.72453">
        <ele>813.73</ele>
        <time>2018-08-07T06:25:48Z</time>
      </trkpt>
      <trkpt lat="42.73877" lon="0.72486">
        <ele>814.71</ele>
        <time>2018-08-07T06:25:49Z</time>
      </trkpt>
      <trkpt lat="42.73877" lon="0.7252">
        <ele>815.7</ele>
        <time>2018-08-07T06:25:50Z</time>
      </trkpt>
      <trkpt lat="42.73875" lon="0.72554">
        <ele>817.4</ele>
        <time>2018-08-07T06:25:51Z</time>
      </trkpt>
      <trkpt lat="42.7387" lon="0.72587">
        <ele>818.61</ele>
        <time>2018-08-07T06:25:52Z</time>
      </trkpt>
      <trkpt lat="42.73863" lon="0.72619">
        <ele>819.67</ele>
        <time>2018-08-07T06:25:53Z</time>
      </trkpt>
      <trkpt lat="42.73854" lon="0.72651">
        <ele>820.69</ele>
        <time>2018-08-07T06:25:54Z</time>
      </trkpt>
      <trkpt lat="42.73845" lon="0.72682">
        <ele>821.7</ele>
        <time>2018-08-07T06:25:55Z</time>
      </trkpt>
      <trkpt lat="42.73836" lon="0.72712">
        <ele>822.7</ele>
        <time>2018-08-07T06:25:56Z</time>
      </trkpt>
      <trkpt lat="42.73827" lon="0.72742">
        <ele>824.4</ele>
        <time>2018-08-07T06:25:57Z</time>
      </trkpt>
      <trkpt lat="42.73821" lon="0.72772">
        <ele>825.61</ele>
        <time>2018-08-07T06:25:58Z</time>
      </trkpt>
      <trkpt lat="42.73816" lon="0.72803">
        <ele>825.97</ele>
        <time>2018-08-07T06:25:59Z</time>
      </trkpt>
      <trkpt lat="42.73814" lon="0.72834">
        <ele>826.78</ele>
        <time>2018-08-07T06:26:00Z</time>
      </trkpt>
      <trkpt lat="42.73814" lon="0.72864">
        <ele>827.73</ele>
        <time>2018-08-07T06:26:01Z</time>
      </trkpt>
      <trkpt lat="42.73814" lon="0.72895">
        <ele>828.71</ele>
        <time>2018-08-07T06:26:02Z</time>
      </trkpt>
      <trkpt lat="42.73816" lon="0.72924">
        <ele>829</ele>
        <time>2018-08-07T06:26:03Z</time>
      </trkpt>
      <trkpt lat="42.73817" lon="0.72954">
        <ele>829.09</ele>
        <time>2018-08-07T06:26:04Z</time>
      </trkpt>
      <trkpt lat="42.7382" lon="0.72984">
        <ele>829.12</ele>
        <time>2018-08-07T06:26:05Z</time>
      </trkpt>
      <trkpt lat="42.73824" lon="0.73013">
        <ele>829.83</ele>
        <time>2018-08-07T06:26:06Z</time>
      </trkpt>
      <trkpt lat="42.73831" lon="0.73042">
        <ele>830.04</ele>
        <time>2018-08-07T06:26:07Z</time>
      </trkpt>
      <trkpt lat="42.73839" lon="0.7307">
        <ele>830.1</ele>
        <time>2018-08-07T06:26:08Z</time>
      </trkpt>
      <trkpt lat="42.73849" lon="0.73098">
        <ele>830.82</ele>
        <time>2018-08-07T06:26:09Z</time>
      </trkpt>
      <trkpt lat="42.73857" lon="0.73126">
        <ele>831.04</ele>
        <time>2018-08-07T06:26:10Z</time>
      </trkpt>
      <trkpt lat="42.73862" lon="0.73156">
        <ele>830.4</ele>
        <time>2018-08-07T06:26:11Z</time>
      </trkpt>
      <trkpt lat="42.73866" lon="0.73188">
        <ele>830.21</ele>
        <time>2018-08-07T06:26:12Z</time>
      </trkpt>
      <trkpt lat="42.73864" lon="0.73219">
        <ele>830.15</ele>
        <time>2018-08-07T06:26:13Z</time>
      </trkpt>
      <trkpt lat="42.73859" lon="0.7325">
        <ele>830.84</ele>
        <time>2018-08-07T06:26:14Z</time>
      </trkpt>
      <trkpt lat="42.73853" lon="0.73281">
        <ele>831.04</ele>
        <time>2018-08-07T06:26:15Z</time>
      </trkpt>
      <trkpt lat="42.73837" lon="0.73306">
        <ele>831.1</ele>
        <time>2018-08-07T06:26:16Z</time>
      </trkpt>
      <trkpt lat="42.73822" lon="0.73332">
        <ele>831.12</ele>
        <time>2018-08-07T06:26:17Z</time>
      </trkpt>
      <trkpt lat="42.73808" lon="0.73358">
        <ele>831.83</ele>
        <time>2018-08-07T06:26:18Z</time>
      </trkpt>
      <trkpt lat="42.73796" lon="0.73385">
        <ele>832.04</ele>
        <time>2018-08-07T06:26:19Z</time>
      </trkpt>
      <trkpt lat="42.73787" lon="0.73414">
        <ele>832.1</ele>
        <time>2018-08-07T06:26:20Z</time>
      </trkpt>
      <trkpt lat="42.7378" lon="0.73444">
        <ele>832.12</ele>
        <time>2018-08-07T06:26:21Z</time>
      </trkpt>
      <trkpt lat="42.73775" lon="0.73476">
        <ele>832.83</ele>
        <time>2018-08-07T06:26:22Z</time>
      </trkpt>
      <trkpt lat="42.7377" lon="0.73507">
        <ele>833.04</ele>
        <time>2018-08-07T06:26:23Z</time>
      </trkpt>
      <trkpt lat="42.73765" lon="0.73538">
        <ele>833.1</ele>
        <time>2018-08-07T06:26:24Z</time>
      </trkpt>
      <trkpt lat="42.7376" lon="0.73569">
        <ele>833.12</ele>
        <time>2018-08-07T06:26:25Z</time>
      </trkpt>
      <trkpt lat="42.73755" lon="0.736">
        <ele>833.13</ele>
        <time>2018-08-07T06:26:26Z</time>
      </trkpt>
      <trkpt lat="42.73751" lon="0.73631">
        <ele>833.13</ele>
        <time>2018-08-07T06:26:27Z</time>
      </trkpt>
      <trkpt lat="42.73748" lon="0.73663">
        <ele>833.13</ele>
        <time>2018-08-07T06:26:28Z</time>
      </trkpt>
      <trkpt lat="42.73746" lon="0.73694">
        <ele>833.13</ele>
        <time>2018-08-07T06:26:29Z</time>
      </trkpt>
      <trkpt lat="42.73745" lon="0.73727">
        <ele>833.13</ele>
        <time>2018-08-07T06:26:30Z</time>
      </trkpt>
      <trkpt lat="42.73744" lon="0.73758">
        <ele>833.13</ele>
        <time>2018-08-07T06:26:31Z</time>
      </trkpt>
      <trkpt lat="42.73743" lon="0.73791">
        <ele>833.13</ele>
        <time>2018-08-07T06:26:32Z</time>
      </trkpt>
      <trkpt lat="42.73742" lon="0.73823">
        <ele>833.13</ele>
        <time>2018-08-07T06:26:33Z</time>
      </trkpt>
      <trkpt lat="42.7374" lon="0.73856">
        <ele>833.13</ele>
        <time>2018-08-07T06:26:34Z</time>
      </trkpt>
      <trkpt lat="42.73739" lon="0.73888">
        <ele>833.13</ele>
        <time>2018-08-07T06:26:35Z</time>
      </trkpt>
      <trkpt lat="42.73737" lon="0.73921">
        <ele>833.83</ele>
        <time>2018-08-07T06:26:36Z</time>
      </trkpt>
      <trkpt lat="42.73736" lon="0.73953">
        <ele>834.74</ele>
        <time>2018-08-07T06:26:37Z</time>
      </trkpt>
      <trkpt lat="42.73733" lon="0.73985">
        <ele>835.01</ele>
        <time>2018-08-07T06:26:38Z</time>
      </trkpt>
      <trkpt lat="42.73729" lon="0.74018">
        <ele>835.79</ele>
        <time>2018-08-07T06:26:39Z</time>
      </trkpt>
      <trkpt lat="42.73723" lon="0.74049">
        <ele>837.43</ele>
        <time>2018-08-07T06:26:40Z</time>
      </trkpt>
      <trkpt lat="42.73718" lon="0.74082">
        <ele>838.62</ele>
        <time>2018-08-07T06:26:41Z</time>
      </trkpt>
      <trkpt lat="42.73713" lon="0.74113">
        <ele>840.38</ele>
        <time>2018-08-07T06:26:42Z</time>
      </trkpt>
      <trkpt lat="42.73707" lon="0.74145">
        <ele>841.6</ele>
        <time>2018-08-07T06:26:43Z</time>
      </trkpt>
      <trkpt lat="42.73703" lon="0.74178">
        <ele>842.67</ele>
        <time>2018-08-07T06:26:44Z</time>
      </trkpt>
      <trkpt lat="42.73699" lon="0.7421">
        <ele>843.69</ele>
        <time>2018-08-07T06:26:45Z</time>
      </trkpt>
      <trkpt lat="42.73696" lon="0.74243">
        <ele>844</ele>
        <time>2018-08-07T06:26:46Z</time>
      </trkpt>
      <trkpt lat="42.73694" lon="0.74276">
        <ele>844.79</ele>
        <time>2018-08-07T06:26:47Z</time>
      </trkpt>
      <trkpt lat="42.7369" lon="0.74309">
        <ele>845.03</ele>
        <time>2018-08-07T06:26:48Z</time>
      </trkpt>
      <trkpt lat="42.73685" lon="0.74341">
        <ele>845.8</ele>
        <time>2018-08-07T06:26:49Z</time>
      </trkpt>
      <trkpt lat="42.73679" lon="0.74372">
        <ele>846.03</ele>
        <time>2018-08-07T06:26:50Z</time>
      </trkpt>
      <trkpt lat="42.73675" lon="0.74403">
        <ele>846.1</ele>
        <time>2018-08-07T06:26:51Z</time>
      </trkpt>
      <trkpt lat="42.73673" lon="0.74435">
        <ele>846.12</ele>
        <time>2018-08-07T06:26:52Z</time>
      </trkpt>
      <trkpt lat="42.73672" lon="0.74467">
        <ele>846.83</ele>
        <time>2018-08-07T06:26:53Z</time>
      </trkpt>
      <trkpt lat="42.73671" lon="0.74498">
        <ele>847.04</ele>
        <time>2018-08-07T06:26:54Z</time>
      </trkpt>
      <trkpt lat="42.73672" lon="0.74529">
        <ele>847.1</ele>
        <time>2018-08-07T06:26:55Z</time>
      </trkpt>
      <trkpt lat="42.73672" lon="0.74558">
        <ele>847.12</ele>
        <time>2018-08-07T06:26:56Z</time>
      </trkpt>
      <trkpt lat="42.73674" lon="0.74589">
        <ele>847.13</ele>
        <time>2018-08-07T06:26:57Z</time>
      </trkpt>
      <trkpt lat="42.73677" lon="0.74619">
        <ele>847.13</ele>
        <time>2018-08-07T06:26:58Z</time>
      </trkpt>
      <trkpt lat="42.73683" lon="0.74649">
        <ele>847.13</ele>
        <time>2018-08-07T06:26:59Z</time>
      </trkpt>
      <trkpt lat="42.73689" lon="0.74679">
        <ele>847.13</ele>
        <time>2018-08-07T06:27:00Z</time>
      </trkpt>
      <trkpt lat="42.73697" lon="0.74708">
        <ele>847.13</ele>
        <time>2018-08-07T06:27:01Z</time>
      </trkpt>
      <trkpt lat="42.73707" lon="0.74737">
        <ele>847.83</ele>
        <time>2018-08-07T06:27:02Z</time>
      </trkpt>
      <trkpt lat="42.73718" lon="0.74764">
        <ele>848.04</ele>
        <time>2018-08-07T06:27:03Z</time>
      </trkpt>
      <trkpt lat="42.7373" lon="0.74792">
        <ele>848.1</ele>
        <time>2018-08-07T06:27:04Z</time>
      </trkpt>
      <trkpt lat="42.73742" lon="0.74818">
        <ele>848.12</ele>
        <time>2018-08-07T06:27:05Z</time>
      </trkpt>
      <trkpt lat="42.73754" lon="0.74845">
        <ele>848.13</ele>
        <time>2018-08-07T06:27:06Z</time>
      </trkpt>
      <trkpt lat="42.73764" lon="0.74872">
        <ele>848.13</ele>
        <time>2018-08-07T06:27:07Z</time>
      </trkpt>
      <trkpt lat="42.73772" lon="0.74901">
        <ele>848.83</ele>
        <time>2018-08-07T06:27:08Z</time>
      </trkpt>
      <trkpt lat="42.73779" lon="0.7493">
        <ele>849.04</ele>
        <time>2018-08-07T06:27:09Z</time>
      </trkpt>
      <trkpt lat="42.73784" lon="0.7496">
        <ele>849.1</ele>
        <time>2018-08-07T06:27:10Z</time>
      </trkpt>
      <trkpt lat="42.73788" lon="0.74991">
        <ele>849.82</ele>
        <time>2018-08-07T06:27:11Z</time>
      </trkpt>
      <trkpt lat="42.73792" lon="0.75022">
        <ele>849.95</ele>
        <time>2018-08-07T06:27:12Z</time>
      </trkpt>
      <trkpt lat="42.73796" lon="0.75052">
        <ele>850.69</ele>
        <time>2018-08-07T06:27:13Z</time>
      </trkpt>
      <trkpt lat="42.73799" lon="0.75082">
        <ele>850.91</ele>
        <time>2018-08-07T06:27:14Z</time>
      </trkpt>
      <trkpt lat="42.738" lon="0.75112">
        <ele>851.68</ele>
        <time>2018-08-07T06:27:15Z</time>
      </trkpt>
      <trkpt lat="42.73799" lon="0.75143">
        <ele>851.91</ele>
        <time>2018-08-07T06:27:16Z</time>
      </trkpt>
      <trkpt lat="42.73795" lon="0.75173">
        <ele>853.38</ele>
        <time>2018-08-07T06:27:17Z</time>
      </trkpt>
      <trkpt lat="42.73788" lon="0.75202">
        <ele>854.52</ele>
        <time>2018-08-07T06:27:18Z</time>
      </trkpt>
      <trkpt lat="42.7378" lon="0.75229">
        <ele>854.86</ele>
        <time>2018-08-07T06:27:19Z</time>
      </trkpt>
      <trkpt lat="42.73771" lon="0.75257">
        <ele>855.66</ele>
        <time>2018-08-07T06:27:20Z</time>
      </trkpt>
      <trkpt lat="42.73764" lon="0.75284">
        <ele>856.6</ele>
        <time>2018-08-07T06:27:21Z</time>
      </trkpt>
      <trkpt lat="42.73758" lon="0.75309">
        <ele>857.59</ele>
        <time>2018-08-07T06:27:22Z</time>
      </trkpt>
      <trkpt lat="42.73755" lon="0.75335">
        <ele>857.88</ele>
        <time>2018-08-07T06:27:23Z</time>
      </trkpt>
      <trkpt lat="42.73755" lon="0.75361">
        <ele>858.67</ele>
        <time>2018-08-07T06:27:24Z</time>
      </trkpt>
      <trkpt lat="42.73757" lon="0.75386">
        <ele>859.61</ele>
        <time>2018-08-07T06:27:25Z</time>
      </trkpt>
      <trkpt lat="42.73761" lon="0.75433">
        <ele>859.97</ele>
        <time>2018-08-07T06:27:27Z</time>
      </trkpt>
      <trkpt lat="42.73766" lon="0.75475">
        <ele>860.7</ele>
        <time>2018-08-07T06:27:29Z</time>
      </trkpt>
      <trkpt lat="42.7377" lon="0.75511">
        <ele>861.68</ele>
        <time>2018-08-07T06:27:31Z</time>
      </trkpt>
      <trkpt lat="42.73773" lon="0.75544">
        <ele>861.98</ele>
        <time>2018-08-07T06:27:33Z</time>
      </trkpt>
      <trkpt lat="42.73775" lon="0.75575">
        <ele>862</ele>
        <time>2018-08-07T06:27:35Z</time>
      </trkpt>
      <trkpt lat="42.73777" lon="0.756">
        <ele>862.71</ele>
        <time>2018-08-07T06:27:37Z</time>
      </trkpt>
      <trkpt lat="42.73769" lon="0.75633">
        <ele>863</ele>
        <time>2018-08-07T06:27:40Z</time>
      </trkpt>
      <trkpt lat="42.73766" lon="0.75662">
        <ele>863.71</ele>
        <time>2018-08-07T06:27:42Z</time>
      </trkpt>
      <trkpt lat="42.73769" lon="0.75697">
        <ele>864.68</ele>
        <time>2018-08-07T06:27:44Z</time>
      </trkpt>
      <trkpt lat="42.73767" lon="0.75736">
        <ele>864.98</ele>
        <time>2018-08-07T06:27:46Z</time>
      </trkpt>
      <trkpt lat="42.73762" lon="0.75776">
        <ele>865.91</ele>
        <time>2018-08-07T06:27:48Z</time>
      </trkpt>
      <trkpt lat="42.73756" lon="0.75816">
        <ele>865.79</ele>
        <time>2018-08-07T06:27:50Z</time>
      </trkpt>
      <trkpt lat="42.73745" lon="0.75855">
        <ele>866.69</ele>
        <time>2018-08-07T06:27:52Z</time>
      </trkpt>
      <trkpt lat="42.73728" lon="0.75885">
        <ele>867.68</ele>
        <time>2018-08-07T06:27:54Z</time>
      </trkpt>
      <trkpt lat="42.73705" lon="0.75913">
        <ele>868.89</ele>
        <time>2018-08-07T06:27:56Z</time>
      </trkpt>
      <trkpt lat="42.7368" lon="0.75945">
        <ele>869</ele>
        <time>2018-08-07T06:27:58Z</time>
      </trkpt>
      <trkpt lat="42.73669" lon="0.75965">
        <ele>869</ele>
        <time>2018-08-07T06:27:59Z</time>
      </trkpt>
      <trkpt lat="42.73659" lon="0.75986">
        <ele>869.01</ele>
        <time>2018-08-07T06:28:00Z</time>
      </trkpt>
      <trkpt lat="42.73651" lon="0.76008">
        <ele>869.01</ele>
        <time>2018-08-07T06:28:01Z</time>
      </trkpt>
      <trkpt lat="42.73644" lon="0.76032">
        <ele>869.01</ele>
        <time>2018-08-07T06:28:02Z</time>
      </trkpt>
      <trkpt lat="42.73638" lon="0.76056">
        <ele>869.71</ele>
        <time>2018-08-07T06:28:03Z</time>
      </trkpt>
      <trkpt lat="42.73632" lon="0.76079">
        <ele>869.92</ele>
        <time>2018-08-07T06:28:04Z</time>
      </trkpt>
      <trkpt lat="42.73626" lon="0.76103">
        <ele>869.98</ele>
        <time>2018-08-07T06:28:05Z</time>
      </trkpt>
      <trkpt lat="42.73621" lon="0.76127">
        <ele>870</ele>
        <time>2018-08-07T06:28:06Z</time>
      </trkpt>
      <trkpt lat="42.73615" lon="0.76151">
        <ele>870.7</ele>
        <time>2018-08-07T06:28:07Z</time>
      </trkpt>
      <trkpt lat="42.73611" lon="0.76176">
        <ele>870.92</ele>
        <time>2018-08-07T06:28:08Z</time>
      </trkpt>
      <trkpt lat="42.73608" lon="0.76205">
        <ele>870.98</ele>
        <time>2018-08-07T06:28:09Z</time>
      </trkpt>
      <trkpt lat="42.73607" lon="0.76237">
        <ele>871</ele>
        <time>2018-08-07T06:28:10Z</time>
      </trkpt>
      <trkpt lat="42.73607" lon="0.76269">
        <ele>871.7</ele>
        <time>2018-08-07T06:28:11Z</time>
      </trkpt>
      <trkpt lat="42.73607" lon="0.76298">
        <ele>871.92</ele>
        <time>2018-08-07T06:28:12Z</time>
      </trkpt>
      <trkpt lat="42.73607" lon="0.76325">
        <ele>872.68</ele>
        <time>2018-08-07T06:28:13Z</time>
      </trkpt>
      <trkpt lat="42.73607" lon="0.76352">
        <ele>872.91</ele>
        <time>2018-08-07T06:28:14Z</time>
      </trkpt>
      <trkpt lat="42.73607" lon="0.76377">
        <ele>874.38</ele>
        <time>2018-08-07T06:28:15Z</time>
      </trkpt>
      <trkpt lat="42.73603" lon="0.76425">
        <ele>875.86</ele>
        <time>2018-08-07T06:28:17Z</time>
      </trkpt>
      <trkpt lat="42.736" lon="0.76449">
        <ele>876.66</ele>
        <time>2018-08-07T06:28:18Z</time>
      </trkpt>
      <trkpt lat="42.73589" lon="0.76495">
        <ele>877.68</ele>
        <time>2018-08-07T06:28:20Z</time>
      </trkpt>
      <trkpt lat="42.73572" lon="0.76535">
        <ele>878.68</ele>
        <time>2018-08-07T06:28:22Z</time>
      </trkpt>
      <trkpt lat="42.73549" lon="0.76574">
        <ele>878.77</ele>
        <time>2018-08-07T06:28:24Z</time>
      </trkpt>
      <trkpt lat="42.73535" lon="0.76595">
        <ele>878.94</ele>
        <time>2018-08-07T06:28:25Z</time>
      </trkpt>
      <trkpt lat="42.7352" lon="0.76617">
        <ele>878.99</ele>
        <time>2018-08-07T06:28:26Z</time>
      </trkpt>
      <trkpt lat="42.73503" lon="0.76639">
        <ele>879</ele>
        <time>2018-08-07T06:28:27Z</time>
      </trkpt>
      <trkpt lat="42.73485" lon="0.76659">
        <ele>879.71</ele>
        <time>2018-08-07T06:28:28Z</time>
      </trkpt>
      <trkpt lat="42.73468" lon="0.76679">
        <ele>879.92</ele>
        <time>2018-08-07T06:28:29Z</time>
      </trkpt>
      <trkpt lat="42.7345" lon="0.76698">
        <ele>879.98</ele>
        <time>2018-08-07T06:28:30Z</time>
      </trkpt>
      <trkpt lat="42.73433" lon="0.76715">
        <ele>880</ele>
        <time>2018-08-07T06:28:31Z</time>
      </trkpt>
      <trkpt lat="42.73419" lon="0.76734">
        <ele>880.7</ele>
        <time>2018-08-07T06:28:32Z</time>
      </trkpt>
      <trkpt lat="42.73405" lon="0.76753">
        <ele>880.92</ele>
        <time>2018-08-07T06:28:33Z</time>
      </trkpt>
      <trkpt lat="42.73392" lon="0.76773">
        <ele>881.68</ele>
        <time>2018-08-07T06:28:34Z</time>
      </trkpt>
      <trkpt lat="42.73382" lon="0.76795">
        <ele>881.91</ele>
        <time>2018-08-07T06:28:35Z</time>
      </trkpt>
      <trkpt lat="42.73375" lon="0.76819">
        <ele>881.28</ele>
        <time>2018-08-07T06:28:36Z</time>
      </trkpt>
      <trkpt lat="42.73369" lon="0.76845">
        <ele>881.09</ele>
        <time>2018-08-07T06:28:37Z</time>
      </trkpt>
      <trkpt lat="42.73365" lon="0.76871">
        <ele>881.03</ele>
        <time>2018-08-07T06:28:38Z</time>
      </trkpt>
      <trkpt lat="42.73363" lon="0.76901">
        <ele>882.41</ele>
        <time>2018-08-07T06:28:39Z</time>
      </trkpt>
      <trkpt lat="42.73361" lon="0.76934">
        <ele>882.83</ele>
        <time>2018-08-07T06:28:40Z</time>
      </trkpt>
      <trkpt lat="42.73358" lon="0.76968">
        <ele>884.35</ele>
        <time>2018-08-07T06:28:41Z</time>
      </trkpt>
      <trkpt lat="42.73355" lon="0.77004">
        <ele>885.51</ele>
        <time>2018-08-07T06:28:42Z</time>
      </trkpt>
      <trkpt lat="42.73352" lon="0.77041">
        <ele>886.56</ele>
        <time>2018-08-07T06:28:43Z</time>
      </trkpt>
      <trkpt lat="42.73349" lon="0.77078">
        <ele>888.27</ele>
        <time>2018-08-07T06:28:44Z</time>
      </trkpt>
      <trkpt lat="42.73346" lon="0.77116">
        <ele>890.19</ele>
        <time>2018-08-07T06:28:45Z</time>
      </trkpt>
      <trkpt lat="42.73343" lon="0.77153">
        <ele>891.46</ele>
        <time>2018-08-07T06:28:46Z</time>
      </trkpt>
      <trkpt lat="42.73339" lon="0.7719">
        <ele>893.24</ele>
        <time>2018-08-07T06:28:47Z</time>
      </trkpt>
      <trkpt lat="42.73335" lon="0.77227">
        <ele>894.48</ele>
        <time>2018-08-07T06:28:48Z</time>
      </trkpt>
      <trkpt lat="42.73331" lon="0.77262">
        <ele>895.55</ele>
        <time>2018-08-07T06:28:49Z</time>
      </trkpt>
      <trkpt lat="42.73326" lon="0.77297">
        <ele>897.27</ele>
        <time>2018-08-07T06:28:50Z</time>
      </trkpt>
      <trkpt lat="42.73321" lon="0.77331">
        <ele>898.49</ele>
        <time>2018-08-07T06:28:51Z</time>
      </trkpt>
      <trkpt lat="42.73316" lon="0.77364">
        <ele>899.55</ele>
        <time>2018-08-07T06:28:52Z</time>
      </trkpt>
      <trkpt lat="42.73308" lon="0.77395">
        <ele>900.57</ele>
        <time>2018-08-07T06:28:53Z</time>
      </trkpt>
      <trkpt lat="42.733" lon="0.77426">
        <ele>901.58</ele>
        <time>2018-08-07T06:28:54Z</time>
      </trkpt>
      <trkpt lat="42.73289" lon="0.77455">
        <ele>901.88</ele>
        <time>2018-08-07T06:28:55Z</time>
      </trkpt>
      <trkpt lat="42.73278" lon="0.77481">
        <ele>901.97</ele>
        <time>2018-08-07T06:28:56Z</time>
      </trkpt>
      <trkpt lat="42.73265" lon="0.77502">
        <ele>902</ele>
        <time>2018-08-07T06:28:57Z</time>
      </trkpt>
      <trkpt lat="42.73251" lon="0.77522">
        <ele>902.7</ele>
        <time>2018-08-07T06:28:58Z</time>
      </trkpt>
      <trkpt lat="42.73238" lon="0.7754">
        <ele>902.92</ele>
        <time>2018-08-07T06:28:59Z</time>
      </trkpt>
      <trkpt lat="42.7321" lon="0.77571">
        <ele>903</ele>
        <time>2018-08-07T06:29:01Z</time>
      </trkpt>
      <trkpt lat="42.73182" lon="0.77597">
        <ele>903.92</ele>
        <time>2018-08-07T06:29:03Z</time>
      </trkpt>
      <trkpt lat="42.73153" lon="0.77622">
        <ele>902.39</ele>
        <time>2018-08-07T06:29:05Z</time>
      </trkpt>
      <trkpt lat="42.73129" lon="0.77647">
        <ele>902.04</ele>
        <time>2018-08-07T06:29:07Z</time>
      </trkpt>
      <trkpt lat="42.73109" lon="0.77671">
        <ele>901.8</ele>
        <time>2018-08-07T06:29:09Z</time>
      </trkpt>
      <trkpt lat="42.73088" lon="0.77701">
        <ele>902.9</ele>
        <time>2018-08-07T06:29:11Z</time>
      </trkpt>
      <trkpt lat="42.73064" lon="0.77732">
        <ele>903</ele>
        <time>2018-08-07T06:29:13Z</time>
      </trkpt>
      <trkpt lat="42.73041" lon="0.77762">
        <ele>904.62</ele>
        <time>2018-08-07T06:29:15Z</time>
      </trkpt>
      <trkpt lat="42.73022" lon="0.77786">
        <ele>905.67</ele>
        <time>2018-08-07T06:29:17Z</time>
      </trkpt>
      <trkpt lat="42.73009" lon="0.77819">
        <ele>905.98</ele>
        <time>2018-08-07T06:29:19Z</time>
      </trkpt>
      <trkpt lat="42.72999" lon="0.77857">
        <ele>906.91</ele>
        <time>2018-08-07T06:29:21Z</time>
      </trkpt>
      <trkpt lat="42.72989" lon="0.77895">
        <ele>907.91</ele>
        <time>2018-08-07T06:29:23Z</time>
      </trkpt>
      <trkpt lat="42.72978" lon="0.77937">
        <ele>908.7</ele>
        <time>2018-08-07T06:29:25Z</time>
      </trkpt>
      <trkpt lat="42.72964" lon="0.77979">
        <ele>909.68</ele>
        <time>2018-08-07T06:29:27Z</time>
      </trkpt>
      <trkpt lat="42.72955" lon="0.78001">
        <ele>909.91</ele>
        <time>2018-08-07T06:29:28Z</time>
      </trkpt>
      <trkpt lat="42.72944" lon="0.78024">
        <ele>909.98</ele>
        <time>2018-08-07T06:29:29Z</time>
      </trkpt>
      <trkpt lat="42.7293" lon="0.78049">
        <ele>910.7</ele>
        <time>2018-08-07T06:29:30Z</time>
      </trkpt>
      <trkpt lat="42.72913" lon="0.78074">
        <ele>910.91</ele>
        <time>2018-08-07T06:29:31Z</time>
      </trkpt>
      <trkpt lat="42.72894" lon="0.78101">
        <ele>910.98</ele>
        <time>2018-08-07T06:29:32Z</time>
      </trkpt>
      <trkpt lat="42.72874" lon="0.78131">
        <ele>911</ele>
        <time>2018-08-07T06:29:33Z</time>
      </trkpt>
      <trkpt lat="42.72852" lon="0.78162">
        <ele>911</ele>
        <time>2018-08-07T06:29:34Z</time>
      </trkpt>
      <trkpt lat="42.72827" lon="0.78194">
        <ele>911.01</ele>
        <time>2018-08-07T06:29:35Z</time>
      </trkpt>
      <trkpt lat="42.72802" lon="0.78227">
        <ele>911.01</ele>
        <time>2018-08-07T06:29:36Z</time>
      </trkpt>
      <trkpt lat="42.72778" lon="0.7826">
        <ele>911.71</ele>
        <time>2018-08-07T06:29:37Z</time>
      </trkpt>
      <trkpt lat="42.72756" lon="0.78291">
        <ele>912.62</ele>
        <time>2018-08-07T06:29:38Z</time>
      </trkpt>
      <trkpt lat="42.72736" lon="0.78319">
        <ele>912.89</ele>
        <time>2018-08-07T06:29:39Z</time>
      </trkpt>
      <trkpt lat="42.72716" lon="0.78342">
        <ele>914.37</ele>
        <time>2018-08-07T06:29:40Z</time>
      </trkpt>
      <trkpt lat="42.72693" lon="0.78361">
        <ele>915.52</ele>
        <time>2018-08-07T06:29:41Z</time>
      </trkpt>
      <trkpt lat="42.7267" lon="0.78376">
        <ele>916.56</ele>
        <time>2018-08-07T06:29:42Z</time>
      </trkpt>
      <trkpt lat="42.72647" lon="0.78389">
        <ele>917.57</ele>
        <time>2018-08-07T06:29:43Z</time>
      </trkpt>
      <trkpt lat="42.72627" lon="0.78403">
        <ele>918.58</ele>
        <time>2018-08-07T06:29:44Z</time>
      </trkpt>
      <trkpt lat="42.72609" lon="0.78422">
        <ele>919.58</ele>
        <time>2018-08-07T06:29:45Z</time>
      </trkpt>
      <trkpt lat="42.72592" lon="0.78441">
        <ele>919.88</ele>
        <time>2018-08-07T06:29:46Z</time>
      </trkpt>
      <trkpt lat="42.72577" lon="0.7847">
        <ele>919.97</ele>
        <time>2018-08-07T06:29:47Z</time>
      </trkpt>
      <trkpt lat="42.72561" lon="0.78496">
        <ele>920.7</ele>
        <time>2018-08-07T06:29:48Z</time>
      </trkpt>
      <trkpt lat="42.72546" lon="0.78522">
        <ele>921.61</ele>
        <time>2018-08-07T06:29:49Z</time>
      </trkpt>
      <trkpt lat="42.72531" lon="0.78548">
        <ele>922.59</ele>
        <time>2018-08-07T06:29:50Z</time>
      </trkpt>
      <trkpt lat="42.72514" lon="0.78575">
        <ele>922.88</ele>
        <time>2018-08-07T06:29:51Z</time>
      </trkpt>
      <trkpt lat="42.72495" lon="0.78598">
        <ele>923.67</ele>
        <time>2018-08-07T06:29:52Z</time>
      </trkpt>
      <trkpt lat="42.72476" lon="0.7862">
        <ele>924.61</ele>
        <time>2018-08-07T06:29:53Z</time>
      </trkpt>
      <trkpt lat="42.72457" lon="0.78641">
        <ele>924.89</ele>
        <time>2018-08-07T06:29:54Z</time>
      </trkpt>
      <trkpt lat="42.7244" lon="0.78664">
        <ele>924.97</ele>
        <time>2018-08-07T06:29:55Z</time>
      </trkpt>
      <trkpt lat="42.72425" lon="0.78688">
        <ele>925</ele>
        <time>2018-08-07T06:29:56Z</time>
      </trkpt>
      <trkpt lat="42.72413" lon="0.78714">
        <ele>925</ele>
        <time>2018-08-07T06:29:57Z</time>
      </trkpt>
      <trkpt lat="42.72407" lon="0.78745">
        <ele>925.71</ele>
        <time>2018-08-07T06:29:58Z</time>
      </trkpt>
      <trkpt lat="42.72403" lon="0.78776">
        <ele>926.62</ele>
        <time>2018-08-07T06:29:59Z</time>
      </trkpt>
      <trkpt lat="42.72401" lon="0.78808">
        <ele>927.59</ele>
        <time>2018-08-07T06:30:00Z</time>
      </trkpt>
      <trkpt lat="42.72398" lon="0.78841">
        <ele>928.58</ele>
        <time>2018-08-07T06:30:01Z</time>
      </trkpt>
      <trkpt lat="42.72392" lon="0.78873">
        <ele>929.58</ele>
        <time>2018-08-07T06:30:02Z</time>
      </trkpt>
      <trkpt lat="42.72385" lon="0.78904">
        <ele>929.88</ele>
        <time>2018-08-07T06:30:03Z</time>
      </trkpt>
      <trkpt lat="42.7237" lon="0.78931">
        <ele>929.97</ele>
        <time>2018-08-07T06:30:04Z</time>
      </trkpt>
      <trkpt lat="42.72356" lon="0.78958">
        <ele>930</ele>
        <time>2018-08-07T06:30:05Z</time>
      </trkpt>
      <trkpt lat="42.72342" lon="0.78982">
        <ele>930.7</ele>
        <time>2018-08-07T06:30:06Z</time>
      </trkpt>
      <trkpt lat="42.72325" lon="0.79002">
        <ele>930.22</ele>
        <time>2018-08-07T06:30:07Z</time>
      </trkpt>
      <trkpt lat="42.72306" lon="0.79015">
        <ele>930.07</ele>
        <time>2018-08-07T06:30:08Z</time>
      </trkpt>
      <trkpt lat="42.72287" lon="0.79029">
        <ele>930.03</ele>
        <time>2018-08-07T06:30:09Z</time>
      </trkpt>
      <trkpt lat="42.72266" lon="0.79037">
        <ele>930.01</ele>
        <time>2018-08-07T06:30:10Z</time>
      </trkpt>
      <trkpt lat="42.72241" lon="0.79032">
        <ele>929.31</ele>
        <time>2018-08-07T06:30:11Z</time>
      </trkpt>
      <trkpt lat="42.72218" lon="0.79033">
        <ele>929.1</ele>
        <time>2018-08-07T06:30:12Z</time>
      </trkpt>
      <trkpt lat="42.72196" lon="0.79036">
        <ele>928.33</ele>
        <time>2018-08-07T06:30:13Z</time>
      </trkpt>
      <trkpt lat="42.72175" lon="0.79043">
        <ele>928.11</ele>
        <time>2018-08-07T06:30:14Z</time>
      </trkpt>
      <trkpt lat="42.72155" lon="0.79053">
        <ele>928.04</ele>
        <time>2018-08-07T06:30:15Z</time>
      </trkpt>
      <trkpt lat="42.72137" lon="0.79068">
        <ele>927.32</ele>
        <time>2018-08-07T06:30:16Z</time>
      </trkpt>
      <trkpt lat="42.72122" lon="0.79088">
        <ele>927.8</ele>
        <time>2018-08-07T06:30:17Z</time>
      </trkpt>
      <trkpt lat="42.72108" lon="0.7911">
        <ele>927.94</ele>
        <time>2018-08-07T06:30:18Z</time>
      </trkpt>
      <trkpt lat="42.72099" lon="0.79138">
        <ele>927.99</ele>
        <time>2018-08-07T06:30:19Z</time>
      </trkpt>
      <trkpt lat="42.72091" lon="0.79168">
        <ele>928.7</ele>
        <time>2018-08-07T06:30:20Z</time>
      </trkpt>
      <trkpt lat="42.72085" lon="0.792">
        <ele>928.92</ele>
        <time>2018-08-07T06:30:21Z</time>
      </trkpt>
      <trkpt lat="42.72078" lon="0.79233">
        <ele>928.98</ele>
        <time>2018-08-07T06:30:22Z</time>
      </trkpt>
      <trkpt lat="42.7207" lon="0.79266">
        <ele>929</ele>
        <time>2018-08-07T06:30:23Z</time>
      </trkpt>
      <trkpt lat="42.72063" lon="0.79299">
        <ele>929</ele>
        <time>2018-08-07T06:30:24Z</time>
      </trkpt>
      <trkpt lat="42.72055" lon="0.79329">
        <ele>929.01</ele>
        <time>2018-08-07T06:30:25Z</time>
      </trkpt>
      <trkpt lat="42.72043" lon="0.79358">
        <ele>929.71</ele>
        <time>2018-08-07T06:30:26Z</time>
      </trkpt>
      <trkpt lat="42.72031" lon="0.79387">
        <ele>929.92</ele>
        <time>2018-08-07T06:30:27Z</time>
      </trkpt>
      <trkpt lat="42.72014" lon="0.79414">
        <ele>929.98</ele>
        <time>2018-08-07T06:30:28Z</time>
      </trkpt>
      <trkpt lat="42.71989" lon="0.79427">
        <ele>930.7</ele>
        <time>2018-08-07T06:30:29Z</time>
      </trkpt>
      <trkpt lat="42.71969" lon="0.79445">
        <ele>930.91</ele>
        <time>2018-08-07T06:30:30Z</time>
      </trkpt>
      <trkpt lat="42.71946" lon="0.7946">
        <ele>930.98</ele>
        <time>2018-08-07T06:30:31Z</time>
      </trkpt>
      <trkpt lat="42.71921" lon="0.79465">
        <ele>932.4</ele>
        <time>2018-08-07T06:30:32Z</time>
      </trkpt>
      <trkpt lat="42.719" lon="0.79476">
        <ele>932.82</ele>
        <time>2018-08-07T06:30:33Z</time>
      </trkpt>
      <trkpt lat="42.7188" lon="0.7949">
        <ele>933.65</ele>
        <time>2018-08-07T06:30:34Z</time>
      </trkpt>
      <trkpt lat="42.71863" lon="0.79508">
        <ele>934.6</ele>
        <time>2018-08-07T06:30:35Z</time>
      </trkpt>
      <trkpt lat="42.71847" lon="0.7953">
        <ele>935.59</ele>
        <time>2018-08-07T06:30:36Z</time>
      </trkpt>
      <trkpt lat="42.71832" lon="0.79551">
        <ele>936.58</ele>
        <time>2018-08-07T06:30:37Z</time>
      </trkpt>
      <trkpt lat="42.71817" lon="0.79572">
        <ele>936.18</ele>
        <time>2018-08-07T06:30:38Z</time>
      </trkpt>
      <trkpt lat="42.71799" lon="0.79592">
        <ele>936.06</ele>
        <time>2018-08-07T06:30:39Z</time>
      </trkpt>
      <trkpt lat="42.7178" lon="0.79607">
        <ele>936.02</ele>
        <time>2018-08-07T06:30:40Z</time>
      </trkpt>
      <trkpt lat="42.71761" lon="0.7962">
        <ele>936.71</ele>
        <time>2018-08-07T06:30:41Z</time>
      </trkpt>
      <trkpt lat="42.71741" lon="0.79629">
        <ele>936.92</ele>
        <time>2018-08-07T06:30:42Z</time>
      </trkpt>
      <trkpt lat="42.71708" lon="0.79638">
        <ele>937</ele>
        <time>2018-08-07T06:30:44Z</time>
      </trkpt>
      <trkpt lat="42.71673" lon="0.79646">
        <ele>937.01</ele>
        <time>2018-08-07T06:30:46Z</time>
      </trkpt>
      <trkpt lat="42.71654" lon="0.79653">
        <ele>937.01</ele>
        <time>2018-08-07T06:30:47Z</time>
      </trkpt>
      <trkpt lat="42.71632" lon="0.79658">
        <ele>937.71</ele>
        <time>2018-08-07T06:30:48Z</time>
      </trkpt>
      <trkpt lat="42.7161" lon="0.79662">
        <ele>938.62</ele>
        <time>2018-08-07T06:30:49Z</time>
      </trkpt>
      <trkpt lat="42.71587" lon="0.79667">
        <ele>938.89</ele>
        <time>2018-08-07T06:30:50Z</time>
      </trkpt>
      <trkpt lat="42.71564" lon="0.79672">
        <ele>938.97</ele>
        <time>2018-08-07T06:30:51Z</time>
      </trkpt>
      <trkpt lat="42.71541" lon="0.79679">
        <ele>939.7</ele>
        <time>2018-08-07T06:30:52Z</time>
      </trkpt>
      <trkpt lat="42.71518" lon="0.79686">
        <ele>940.61</ele>
        <time>2018-08-07T06:30:53Z</time>
      </trkpt>
      <trkpt lat="42.71496" lon="0.79692">
        <ele>940.89</ele>
        <time>2018-08-07T06:30:54Z</time>
      </trkpt>
      <trkpt lat="42.71474" lon="0.79699">
        <ele>940.97</ele>
        <time>2018-08-07T06:30:55Z</time>
      </trkpt>
      <trkpt lat="42.71452" lon="0.79706">
        <ele>941</ele>
        <time>2018-08-07T06:30:56Z</time>
      </trkpt>
      <trkpt lat="42.71431" lon="0.79713">
        <ele>941.7</ele>
        <time>2018-08-07T06:30:57Z</time>
      </trkpt>
      <trkpt lat="42.71409" lon="0.79719">
        <ele>941.92</ele>
        <time>2018-08-07T06:30:58Z</time>
      </trkpt>
      <trkpt lat="42.71387" lon="0.79724">
        <ele>941.98</ele>
        <time>2018-08-07T06:30:59Z</time>
      </trkpt>
      <trkpt lat="42.71366" lon="0.79726">
        <ele>942</ele>
        <time>2018-08-07T06:31:00Z</time>
      </trkpt>
      <trkpt lat="42.71344" lon="0.79725">
        <ele>942</ele>
        <time>2018-08-07T06:31:01Z</time>
      </trkpt>
      <trkpt lat="42.71323" lon="0.79721">
        <ele>942.71</ele>
        <time>2018-08-07T06:31:02Z</time>
      </trkpt>
      <trkpt lat="42.71302" lon="0.79717">
        <ele>942.92</ele>
        <time>2018-08-07T06:31:03Z</time>
      </trkpt>
      <trkpt lat="42.71281" lon="0.79714">
        <ele>943.68</ele>
        <time>2018-08-07T06:31:04Z</time>
      </trkpt>
      <trkpt lat="42.7126" lon="0.79711">
        <ele>943.21</ele>
        <time>2018-08-07T06:31:05Z</time>
      </trkpt>
      <trkpt lat="42.71239" lon="0.79707">
        <ele>943.07</ele>
        <time>2018-08-07T06:31:06Z</time>
      </trkpt>
      <trkpt lat="42.71219" lon="0.79704">
        <ele>943.73</ele>
        <time>2018-08-07T06:31:07Z</time>
      </trkpt>
      <trkpt lat="42.71199" lon="0.797">
        <ele>943.92</ele>
        <time>2018-08-07T06:31:08Z</time>
      </trkpt>
      <trkpt lat="42.71179" lon="0.79696">
        <ele>944.68</ele>
        <time>2018-08-07T06:31:09Z</time>
      </trkpt>
      <trkpt lat="42.71159" lon="0.79693">
        <ele>944.91</ele>
        <time>2018-08-07T06:31:10Z</time>
      </trkpt>
      <trkpt lat="42.71139" lon="0.7969">
        <ele>945.68</ele>
        <time>2018-08-07T06:31:11Z</time>
      </trkpt>
      <trkpt lat="42.71119" lon="0.79686">
        <ele>945.91</ele>
        <time>2018-08-07T06:31:12Z</time>
      </trkpt>
      <trkpt lat="42.71099" lon="0.79684">
        <ele>945.98</ele>
        <time>2018-08-07T06:31:13Z</time>
      </trkpt>
      <trkpt lat="42.71079" lon="0.79681">
        <ele>946</ele>
        <time>2018-08-07T06:31:14Z</time>
      </trkpt>
      <trkpt lat="42.71059" lon="0.79678">
        <ele>946.7</ele>
        <time>2018-08-07T06:31:15Z</time>
      </trkpt>
      <trkpt lat="42.7104" lon="0.79675">
        <ele>947.62</ele>
        <time>2018-08-07T06:31:16Z</time>
      </trkpt>
      <trkpt lat="42.71021" lon="0.79671">
        <ele>947.89</ele>
        <time>2018-08-07T06:31:17Z</time>
      </trkpt>
      <trkpt lat="42.71002" lon="0.79669">
        <ele>947.97</ele>
        <time>2018-08-07T06:31:18Z</time>
      </trkpt>
      <trkpt lat="42.70983" lon="0.79666">
        <ele>948</ele>
        <time>2018-08-07T06:31:19Z</time>
      </trkpt>
      <trkpt lat="42.70965" lon="0.79663">
        <ele>948.7</ele>
        <time>2018-08-07T06:31:20Z</time>
      </trkpt>
      <trkpt lat="42.70946" lon="0.7966">
        <ele>948.92</ele>
        <time>2018-08-07T06:31:21Z</time>
      </trkpt>
      <trkpt lat="42.70928" lon="0.79656">
        <ele>948.98</ele>
        <time>2018-08-07T06:31:22Z</time>
      </trkpt>
      <trkpt lat="42.70911" lon="0.79652">
        <ele>949</ele>
        <time>2018-08-07T06:31:23Z</time>
      </trkpt>
      <trkpt lat="42.70875" lon="0.79644">
        <ele>949.92</ele>
        <time>2018-08-07T06:31:25Z</time>
      </trkpt>
      <trkpt lat="42.70841" lon="0.79636">
        <ele>950.7</ele>
        <time>2018-08-07T06:31:27Z</time>
      </trkpt>
      <trkpt lat="42.70808" lon="0.79629">
        <ele>952.59</ele>
        <time>2018-08-07T06:31:29Z</time>
      </trkpt>
      <trkpt lat="42.70778" lon="0.79622">
        <ele>953.67</ele>
        <time>2018-08-07T06:31:31Z</time>
      </trkpt>
      <trkpt lat="42.70751" lon="0.79615">
        <ele>953.98</ele>
        <time>2018-08-07T06:31:33Z</time>
      </trkpt>
      <trkpt lat="42.70724" lon="0.79608">
        <ele>955.61</ele>
        <time>2018-08-07T06:31:35Z</time>
      </trkpt>
      <trkpt lat="42.707" lon="0.79603">
        <ele>956.88</ele>
        <time>2018-08-07T06:31:37Z</time>
      </trkpt>
      <trkpt lat="42.7068" lon="0.79599">
        <ele>957</ele>
        <time>2018-08-07T06:31:39Z</time>
      </trkpt>
      <trkpt lat="42.70657" lon="0.79589">
        <ele>957.92</ele>
        <time>2018-08-07T06:31:42Z</time>
      </trkpt>
      <trkpt lat="42.70639" lon="0.7958">
        <ele>958</ele>
        <time>2018-08-07T06:31:45Z</time>
      </trkpt>
      <trkpt lat="42.70618" lon="0.79583">
        <ele>958.71</ele>
        <time>2018-08-07T06:31:48Z</time>
      </trkpt>
      <trkpt lat="42.70599" lon="0.7958">
        <ele>958.98</ele>
        <time>2018-08-07T06:31:50Z</time>
      </trkpt>
      <trkpt lat="42.70575" lon="0.79573">
        <ele>959</ele>
        <time>2018-08-07T06:31:52Z</time>
      </trkpt>
      <trkpt lat="42.7055" lon="0.79567">
        <ele>959.01</ele>
        <time>2018-08-07T06:31:54Z</time>
      </trkpt>
      <trkpt lat="42.70523" lon="0.79554">
        <ele>959.71</ele>
        <time>2018-08-07T06:31:56Z</time>
      </trkpt>
      <trkpt lat="42.70499" lon="0.79533">
        <ele>960.89</ele>
        <time>2018-08-07T06:31:58Z</time>
      </trkpt>
      <trkpt lat="42.70477" lon="0.7951">
        <ele>962.61</ele>
        <time>2018-08-07T06:32:00Z</time>
      </trkpt>
      <trkpt lat="42.70457" lon="0.79488">
        <ele>964.58</ele>
        <time>2018-08-07T06:32:02Z</time>
      </trkpt>
      <trkpt lat="42.70436" lon="0.79468">
        <ele>966.58</ele>
        <time>2018-08-07T06:32:04Z</time>
      </trkpt>
      <trkpt lat="42.70417" lon="0.79449">
        <ele>967.67</ele>
        <time>2018-08-07T06:32:06Z</time>
      </trkpt>
      <trkpt lat="42.70399" lon="0.79428">
        <ele>968.89</ele>
        <time>2018-08-07T06:32:08Z</time>
      </trkpt>
      <trkpt lat="42.70383" lon="0.79409">
        <ele>970.61</ele>
        <time>2018-08-07T06:32:10Z</time>
      </trkpt>
      <trkpt lat="42.70366" lon="0.79393">
        <ele>971.88</ele>
        <time>2018-08-07T06:32:12Z</time>
      </trkpt>
      <trkpt lat="42.70347" lon="0.79372">
        <ele>973.68</ele>
        <time>2018-08-07T06:32:15Z</time>
      </trkpt>
      <trkpt lat="42.70333" lon="0.79354">
        <ele>974.91</ele>
        <time>2018-08-07T06:32:18Z</time>
      </trkpt>
      <trkpt lat="42.70317" lon="0.79337">
        <ele>975.92</ele>
        <time>2018-08-07T06:32:22Z</time>
      </trkpt>
      <trkpt lat="42.70304" lon="0.79319">
        <ele>975.01</ele>
        <time>2018-08-07T06:32:28Z</time>
      </trkpt>
      <trkpt lat="42.70282" lon="0.79309">
        <ele>976.21</ele>
        <time>2018-08-07T06:32:33Z</time>
      </trkpt>
      <trkpt lat="42.70261" lon="0.79301">
        <ele>976.78</ele>
        <time>2018-08-07T06:32:36Z</time>
      </trkpt>
      <trkpt lat="42.70243" lon="0.79297">
        <ele>978.67</ele>
        <time>2018-08-07T06:32:39Z</time>
      </trkpt>
      <trkpt lat="42.70219" lon="0.79302">
        <ele>979.7</ele>
        <time>2018-08-07T06:32:42Z</time>
      </trkpt>
      <trkpt lat="42.70201" lon="0.7931">
        <ele>980.68</ele>
        <time>2018-08-07T06:32:44Z</time>
      </trkpt>
      <trkpt lat="42.70182" lon="0.79319">
        <ele>982.59</ele>
        <time>2018-08-07T06:32:46Z</time>
      </trkpt>
      <trkpt lat="42.70162" lon="0.79321">
        <ele>983.67</ele>
        <time>2018-08-07T06:32:48Z</time>
      </trkpt>
      <trkpt lat="42.70142" lon="0.79299">
        <ele>985.67</ele>
        <time>2018-08-07T06:32:51Z</time>
      </trkpt>
      <trkpt lat="42.70149" lon="0.79263">
        <ele>986.49</ele>
        <time>2018-08-07T06:32:54Z</time>
      </trkpt>
      <trkpt lat="42.70168" lon="0.79233">
        <ele>987.87</ele>
        <time>2018-08-07T06:32:56Z</time>
      </trkpt>
      <trkpt lat="42.70182" lon="0.79215">
        <ele>988.67</ele>
        <time>2018-08-07T06:32:57Z</time>
      </trkpt>
      <trkpt lat="42.70195" lon="0.79195">
        <ele>990.3</ele>
        <time>2018-08-07T06:32:58Z</time>
      </trkpt>
      <trkpt lat="42.7021" lon="0.79174">
        <ele>991.5</ele>
        <time>2018-08-07T06:32:59Z</time>
      </trkpt>
      <trkpt lat="42.70227" lon="0.79155">
        <ele>992.55</ele>
        <time>2018-08-07T06:33:00Z</time>
      </trkpt>
      <trkpt lat="42.70247" lon="0.79134">
        <ele>992.87</ele>
        <time>2018-08-07T06:33:01Z</time>
      </trkpt>
      <trkpt lat="42.70267" lon="0.79112">
        <ele>992.97</ele>
        <time>2018-08-07T06:33:02Z</time>
      </trkpt>
      <trkpt lat="42.70287" lon="0.7909">
        <ele>994.39</ele>
        <time>2018-08-07T06:33:03Z</time>
      </trkpt>
      <trkpt lat="42.70308" lon="0.79068">
        <ele>995.52</ele>
        <time>2018-08-07T06:33:04Z</time>
      </trkpt>
      <trkpt lat="42.70324" lon="0.79048">
        <ele>995.86</ele>
        <time>2018-08-07T06:33:05Z</time>
      </trkpt>
      <trkpt lat="42.70339" lon="0.79031">
        <ele>997.36</ele>
        <time>2018-08-07T06:33:06Z</time>
      </trkpt>
      <trkpt lat="42.70356" lon="0.79014">
        <ele>999.21</ele>
        <time>2018-08-07T06:33:07Z</time>
      </trkpt>
      <trkpt lat="42.70375" lon="0.79002">
        <ele>1000.47</ele>
        <time>2018-08-07T06:33:08Z</time>
      </trkpt>
      <trkpt lat="42.70395" lon="0.78991">
        <ele>1001.55</ele>
        <time>2018-08-07T06:33:09Z</time>
      </trkpt>
      <trkpt lat="42.70419" lon="0.78984">
        <ele>1001.87</ele>
        <time>2018-08-07T06:33:10Z</time>
      </trkpt>
      <trkpt lat="42.70442" lon="0.7898">
        <ele>1002.67</ele>
        <time>2018-08-07T06:33:11Z</time>
      </trkpt>
      <trkpt lat="42.70463" lon="0.78977">
        <ele>1006.4</ele>
        <time>2018-08-07T06:33:12Z</time>
      </trkpt>
      <trkpt lat="42.70483" lon="0.78972">
        <ele>1008.23</ele>
        <time>2018-08-07T06:33:13Z</time>
      </trkpt>
      <trkpt lat="42.70503" lon="0.78969">
        <ele>1010.17</ele>
        <time>2018-08-07T06:33:14Z</time>
      </trkpt>
      <trkpt lat="42.70522" lon="0.78967">
        <ele>1012.16</ele>
        <time>2018-08-07T06:33:15Z</time>
      </trkpt>
      <trkpt lat="42.7055" lon="0.7896">
        <ele>1014.54</ele>
        <time>2018-08-07T06:33:17Z</time>
      </trkpt>
      <trkpt lat="42.70564" lon="0.78939">
        <ele>1018.4</ele>
        <time>2018-08-07T06:33:19Z</time>
      </trkpt>
      <trkpt lat="42.7057" lon="0.78913">
        <ele>1018.95</ele>
        <time>2018-08-07T06:33:21Z</time>
      </trkpt>
      <trkpt lat="42.70539" lon="0.78898">
        <ele>1021.31</ele>
        <time>2018-08-07T06:33:23Z</time>
      </trkpt>
      <trkpt lat="42.70513" lon="0.78895">
        <ele>1022.85</ele>
        <time>2018-08-07T06:33:25Z</time>
      </trkpt>
      <trkpt lat="42.70477" lon="0.78914">
        <ele>1024.39</ele>
        <time>2018-08-07T06:33:27Z</time>
      </trkpt>
      <trkpt lat="42.70457" lon="0.78922">
        <ele>1024.82</ele>
        <time>2018-08-07T06:33:28Z</time>
      </trkpt>
      <trkpt lat="42.70432" lon="0.78924">
        <ele>1025.65</ele>
        <time>2018-08-07T06:33:29Z</time>
      </trkpt>
      <trkpt lat="42.70409" lon="0.78926">
        <ele>1027.3</ele>
        <time>2018-08-07T06:33:30Z</time>
      </trkpt>
      <trkpt lat="42.70386" lon="0.78927">
        <ele>1028.49</ele>
        <time>2018-08-07T06:33:31Z</time>
      </trkpt>
      <trkpt lat="42.70363" lon="0.78928">
        <ele>1030.95</ele>
        <time>2018-08-07T06:33:32Z</time>
      </trkpt>
      <trkpt lat="42.70341" lon="0.78929">
        <ele>1033.09</ele>
        <time>2018-08-07T06:33:33Z</time>
      </trkpt>
      <trkpt lat="42.7032" lon="0.7893">
        <ele>1034.43</ele>
        <time>2018-08-07T06:33:34Z</time>
      </trkpt>
      <trkpt lat="42.703" lon="0.78933">
        <ele>1035.53</ele>
        <time>2018-08-07T06:33:35Z</time>
      </trkpt>
      <trkpt lat="42.70277" lon="0.78942">
        <ele>1036.57</ele>
        <time>2018-08-07T06:33:36Z</time>
      </trkpt>
      <trkpt lat="42.70253" lon="0.78954">
        <ele>1037.57</ele>
        <time>2018-08-07T06:33:37Z</time>
      </trkpt>
      <trkpt lat="42.70226" lon="0.78966">
        <ele>1037.88</ele>
        <time>2018-08-07T06:33:38Z</time>
      </trkpt>
      <trkpt lat="42.70197" lon="0.78981">
        <ele>1037.97</ele>
        <time>2018-08-07T06:33:39Z</time>
      </trkpt>
      <trkpt lat="42.7017" lon="0.78997">
        <ele>1038.7</ele>
        <time>2018-08-07T06:33:40Z</time>
      </trkpt>
      <trkpt lat="42.7014" lon="0.79014">
        <ele>1039.61</ele>
        <time>2018-08-07T06:33:41Z</time>
      </trkpt>
      <trkpt lat="42.70111" lon="0.79035">
        <ele>1040.59</ele>
        <time>2018-08-07T06:33:42Z</time>
      </trkpt>
      <trkpt lat="42.70079" lon="0.79056">
        <ele>1041.58</ele>
        <time>2018-08-07T06:33:43Z</time>
      </trkpt>
      <trkpt lat="42.70051" lon="0.79074">
        <ele>1043.28</ele>
        <time>2018-08-07T06:33:44Z</time>
      </trkpt>
      <trkpt lat="42.70026" lon="0.79092">
        <ele>1046.59</ele>
        <time>2018-08-07T06:33:45Z</time>
      </trkpt>
      <trkpt lat="42.7" lon="0.79108">
        <ele>1048.98</ele>
        <time>2018-08-07T06:33:46Z</time>
      </trkpt>
      <trkpt lat="42.69978" lon="0.79124">
        <ele>1053.2</ele>
        <time>2018-08-07T06:33:47Z</time>
      </trkpt>
      <trkpt lat="42.69955" lon="0.79137">
        <ele>1055.86</ele>
        <time>2018-08-07T06:33:48Z</time>
      </trkpt>
      <trkpt lat="42.69922" lon="0.79154">
        <ele>1060.12</ele>
        <time>2018-08-07T06:33:50Z</time>
      </trkpt>
      <trkpt lat="42.69904" lon="0.79152">
        <ele>1062.14</ele>
        <time>2018-08-07T06:33:51Z</time>
      </trkpt>
      <trkpt lat="42.69885" lon="0.79151">
        <ele>1064.15</ele>
        <time>2018-08-07T06:33:52Z</time>
      </trkpt>
      <trkpt lat="42.69867" lon="0.79145">
        <ele>1066.15</ele>
        <time>2018-08-07T06:33:53Z</time>
      </trkpt>
      <trkpt lat="42.69834" lon="0.7914">
        <ele>1070.15</ele>
        <time>2018-08-07T06:33:55Z</time>
      </trkpt>
      <trkpt lat="42.6981" lon="0.79137">
        <ele>1074.85</ele>
        <time>2018-08-07T06:33:57Z</time>
      </trkpt>
      <trkpt lat="42.69792" lon="0.79119">
        <ele>1078.91</ele>
        <time>2018-08-07T06:33:59Z</time>
      </trkpt>
      <trkpt lat="42.6978" lon="0.7909">
        <ele>1080.82</ele>
        <time>2018-08-07T06:34:01Z</time>
      </trkpt>
      <trkpt lat="42.69784" lon="0.79061">
        <ele>1082.81</ele>
        <time>2018-08-07T06:34:03Z</time>
      </trkpt>
      <trkpt lat="42.69826" lon="0.79065">
        <ele>1084.61</ele>
        <time>2018-08-07T06:34:06Z</time>
      </trkpt>
      <trkpt lat="42.69857" lon="0.79068">
        <ele>1087.7</ele>
        <time>2018-08-07T06:34:08Z</time>
      </trkpt>
      <trkpt lat="42.69891" lon="0.79068">
        <ele>1091.41</ele>
        <time>2018-08-07T06:34:10Z</time>
      </trkpt>
      <trkpt lat="42.69919" lon="0.79061">
        <ele>1094.26</ele>
        <time>2018-08-07T06:34:12Z</time>
      </trkpt>
      <trkpt lat="42.6994" lon="0.79039">
        <ele>1096.55</ele>
        <time>2018-08-07T06:34:14Z</time>
      </trkpt>
      <trkpt lat="42.69957" lon="0.79008">
        <ele>1098.58</ele>
        <time>2018-08-07T06:34:16Z</time>
      </trkpt>
      <trkpt lat="42.69975" lon="0.78973">
        <ele>1101.28</ele>
        <time>2018-08-07T06:34:18Z</time>
      </trkpt>
      <trkpt lat="42.69992" lon="0.78939">
        <ele>1103.55</ele>
        <time>2018-08-07T06:34:20Z</time>
      </trkpt>
      <trkpt lat="42.69994" lon="0.78911">
        <ele>1105.58</ele>
        <time>2018-08-07T06:34:22Z</time>
      </trkpt>
      <trkpt lat="42.69983" lon="0.78886">
        <ele>1107.58</ele>
        <time>2018-08-07T06:34:24Z</time>
      </trkpt>
      <trkpt lat="42.69966" lon="0.78874">
        <ele>1107.27</ele>
        <time>2018-08-07T06:34:26Z</time>
      </trkpt>
      <trkpt lat="42.69943" lon="0.78884">
        <ele>1107.52</ele>
        <time>2018-08-07T06:34:28Z</time>
      </trkpt>
      <trkpt lat="42.6991" lon="0.78904">
        <ele>1107.96</ele>
        <time>2018-08-07T06:34:30Z</time>
      </trkpt>
      <trkpt lat="42.6989" lon="0.7891">
        <ele>1108.69</ele>
        <time>2018-08-07T06:34:31Z</time>
      </trkpt>
      <trkpt lat="42.69872" lon="0.78904">
        <ele>1109.61</ele>
        <time>2018-08-07T06:34:32Z</time>
      </trkpt>
      <trkpt lat="42.69854" lon="0.78894">
        <ele>1109.89</ele>
        <time>2018-08-07T06:34:33Z</time>
      </trkpt>
      <trkpt lat="42.69834" lon="0.78881">
        <ele>1112.77</ele>
        <time>2018-08-07T06:34:34Z</time>
      </trkpt>
      <trkpt lat="42.69816" lon="0.78875">
        <ele>1113.64</ele>
        <time>2018-08-07T06:34:35Z</time>
      </trkpt>
      <trkpt lat="42.69796" lon="0.78875">
        <ele>1115.3</ele>
        <time>2018-08-07T06:34:36Z</time>
      </trkpt>
      <trkpt lat="42.69777" lon="0.78878">
        <ele>1115.79</ele>
        <time>2018-08-07T06:34:37Z</time>
      </trkpt>
      <trkpt lat="42.69759" lon="0.78884">
        <ele>1116.64</ele>
        <time>2018-08-07T06:34:38Z</time>
      </trkpt>
      <trkpt lat="42.69728" lon="0.78888">
        <ele>1119.49</ele>
        <time>2018-08-07T06:34:40Z</time>
      </trkpt>
      <trkpt lat="42.69701" lon="0.78868">
        <ele>1122.27</ele>
        <time>2018-08-07T06:34:42Z</time>
      </trkpt>
      <trkpt lat="42.69686" lon="0.78853">
        <ele>1124.19</ele>
        <time>2018-08-07T06:34:43Z</time>
      </trkpt>
      <trkpt lat="42.69669" lon="0.78838">
        <ele>1126.16</ele>
        <time>2018-08-07T06:34:44Z</time>
      </trkpt>
      <trkpt lat="42.69648" lon="0.78826">
        <ele>1128.15</ele>
        <time>2018-08-07T06:34:45Z</time>
      </trkpt>
      <trkpt lat="42.69626" lon="0.78819">
        <ele>1128.75</ele>
        <time>2018-08-07T06:34:46Z</time>
      </trkpt>
      <trkpt lat="42.69601" lon="0.78818">
        <ele>1131.73</ele>
        <time>2018-08-07T06:34:47Z</time>
      </trkpt>
      <trkpt lat="42.69578" lon="0.7882">
        <ele>1133.32</ele>
        <time>2018-08-07T06:34:48Z</time>
      </trkpt>
      <trkpt lat="42.69557" lon="0.7882">
        <ele>1134.5</ele>
        <time>2018-08-07T06:34:49Z</time>
      </trkpt>
      <trkpt lat="42.69536" lon="0.7882">
        <ele>1134.86</ele>
        <time>2018-08-07T06:34:50Z</time>
      </trkpt>
      <trkpt lat="42.69503" lon="0.7881">
        <ele>1138.21</ele>
        <time>2018-08-07T06:34:52Z</time>
      </trkpt>
      <trkpt lat="42.69471" lon="0.78802">
        <ele>1140.55</ele>
        <time>2018-08-07T06:34:54Z</time>
      </trkpt>
      <trkpt lat="42.69453" lon="0.78796">
        <ele>1142.27</ele>
        <time>2018-08-07T06:34:55Z</time>
      </trkpt>
      <trkpt lat="42.69433" lon="0.78788">
        <ele>1143.49</ele>
        <time>2018-08-07T06:34:56Z</time>
      </trkpt>
      <trkpt lat="42.69411" lon="0.78777">
        <ele>1144.55</ele>
        <time>2018-08-07T06:34:57Z</time>
      </trkpt>
      <trkpt lat="42.69387" lon="0.78765">
        <ele>1146.97</ele>
        <time>2018-08-07T06:34:58Z</time>
      </trkpt>
      <trkpt lat="42.69363" lon="0.78753">
        <ele>1149.1</ele>
        <time>2018-08-07T06:34:59Z</time>
      </trkpt>
      <trkpt lat="42.69342" lon="0.78743">
        <ele>1150.43</ele>
        <time>2018-08-07T06:35:00Z</time>
      </trkpt>
      <trkpt lat="42.69321" lon="0.78736">
        <ele>1151.54</ele>
        <time>2018-08-07T06:35:01Z</time>
      </trkpt>
      <trkpt lat="42.69301" lon="0.78731">
        <ele>1151.87</ele>
        <time>2018-08-07T06:35:02Z</time>
      </trkpt>
      <trkpt lat="42.69279" lon="0.78735">
        <ele>1152.66</ele>
        <time>2018-08-07T06:35:03Z</time>
      </trkpt>
      <trkpt lat="42.69255" lon="0.7874">
        <ele>1154.3</ele>
        <time>2018-08-07T06:35:04Z</time>
      </trkpt>
      <trkpt lat="42.69233" lon="0.78744">
        <ele>1156.2</ele>
        <time>2018-08-07T06:35:05Z</time>
      </trkpt>
      <trkpt lat="42.69212" lon="0.78744">
        <ele>1156.76</ele>
        <time>2018-08-07T06:35:06Z</time>
      </trkpt>
      <trkpt lat="42.69189" lon="0.7874">
        <ele>1157.63</ele>
        <time>2018-08-07T06:35:07Z</time>
      </trkpt>
      <trkpt lat="42.69164" lon="0.78738">
        <ele>1158.6</ele>
        <time>2018-08-07T06:35:08Z</time>
      </trkpt>
      <trkpt lat="42.69139" lon="0.78735">
        <ele>1161.68</ele>
        <time>2018-08-07T06:35:09Z</time>
      </trkpt>
      <trkpt lat="42.69116" lon="0.78731">
        <ele>1164.01</ele>
        <time>2018-08-07T06:35:10Z</time>
      </trkpt>
      <trkpt lat="42.69095" lon="0.78726">
        <ele>1166.81</ele>
        <time>2018-08-07T06:35:11Z</time>
      </trkpt>
      <trkpt lat="42.69076" lon="0.78721">
        <ele>1169.05</ele>
        <time>2018-08-07T06:35:12Z</time>
      </trkpt>
      <trkpt lat="42.69045" lon="0.78698">
        <ele>1174.05</ele>
        <time>2018-08-07T06:35:14Z</time>
      </trkpt>
      <trkpt lat="42.69027" lon="0.78689">
        <ele>1176.12</ele>
        <time>2018-08-07T06:35:15Z</time>
      </trkpt>
      <trkpt lat="42.69008" lon="0.78683">
        <ele>1178.14</ele>
        <time>2018-08-07T06:35:16Z</time>
      </trkpt>
      <trkpt lat="42.68987" lon="0.78681">
        <ele>1179.45</ele>
        <time>2018-08-07T06:35:17Z</time>
      </trkpt>
      <trkpt lat="42.68966" lon="0.78684">
        <ele>1180.54</ele>
        <time>2018-08-07T06:35:18Z</time>
      </trkpt>
      <trkpt lat="42.68944" lon="0.78692">
        <ele>1181.57</ele>
        <time>2018-08-07T06:35:19Z</time>
      </trkpt>
      <trkpt lat="42.68921" lon="0.78704">
        <ele>1183.97</ele>
        <time>2018-08-07T06:35:20Z</time>
      </trkpt>
      <trkpt lat="42.68898" lon="0.78716">
        <ele>1186.1</ele>
        <time>2018-08-07T06:35:21Z</time>
      </trkpt>
      <trkpt lat="42.68876" lon="0.78728">
        <ele>1188.13</ele>
        <time>2018-08-07T06:35:22Z</time>
      </trkpt>
      <trkpt lat="42.68852" lon="0.78741">
        <ele>1189.45</ele>
        <time>2018-08-07T06:35:23Z</time>
      </trkpt>
      <trkpt lat="42.68829" lon="0.78753">
        <ele>1191.24</ele>
        <time>2018-08-07T06:35:24Z</time>
      </trkpt>
      <trkpt lat="42.68806" lon="0.78765">
        <ele>1193.18</ele>
        <time>2018-08-07T06:35:25Z</time>
      </trkpt>
      <trkpt lat="42.68782" lon="0.78775">
        <ele>1193.76</ele>
        <time>2018-08-07T06:35:26Z</time>
      </trkpt>
      <trkpt lat="42.68758" lon="0.78784">
        <ele>1194.63</ele>
        <time>2018-08-07T06:35:27Z</time>
      </trkpt>
      <trkpt lat="42.68731" lon="0.7879">
        <ele>1195.59</ele>
        <time>2018-08-07T06:35:28Z</time>
      </trkpt>
      <trkpt lat="42.68704" lon="0.78794">
        <ele>1195.88</ele>
        <time>2018-08-07T06:35:29Z</time>
      </trkpt>
      <trkpt lat="42.68687" lon="0.78758">
        <ele>1198.07</ele>
        <time>2018-08-07T06:35:30Z</time>
      </trkpt>
      <trkpt lat="42.68663" lon="0.78748">
        <ele>1198.73</ele>
        <time>2018-08-07T06:35:31Z</time>
      </trkpt>
      <trkpt lat="42.68638" lon="0.78739">
        <ele>1199.62</ele>
        <time>2018-08-07T06:35:32Z</time>
      </trkpt>
      <trkpt lat="42.68613" lon="0.78732">
        <ele>1199.89</ele>
        <time>2018-08-07T06:35:33Z</time>
      </trkpt>
      <trkpt lat="42.68586" lon="0.78731">
        <ele>1200.67</ele>
        <time>2018-08-07T06:35:34Z</time>
      </trkpt>
      <trkpt lat="42.68559" lon="0.78732">
        <ele>1200.91</ele>
        <time>2018-08-07T06:35:35Z</time>
      </trkpt>
      <trkpt lat="42.68531" lon="0.7874">
        <ele>1201.68</ele>
        <time>2018-08-07T06:35:36Z</time>
      </trkpt>
      <trkpt lat="42.68505" lon="0.78751">
        <ele>1201.91</ele>
        <time>2018-08-07T06:35:37Z</time>
      </trkpt>
      <trkpt lat="42.6848" lon="0.78757">
        <ele>1202.68</ele>
        <time>2018-08-07T06:35:38Z</time>
      </trkpt>
      <trkpt lat="42.68453" lon="0.78761">
        <ele>1203.61</ele>
        <time>2018-08-07T06:35:39Z</time>
      </trkpt>
      <trkpt lat="42.68426" lon="0.78761">
        <ele>1203.89</ele>
        <time>2018-08-07T06:35:40Z</time>
      </trkpt>
      <trkpt lat="42.68396" lon="0.78763">
        <ele>1206.77</ele>
        <time>2018-08-07T06:35:41Z</time>
      </trkpt>
      <trkpt lat="42.68367" lon="0.78764">
        <ele>1208.34</ele>
        <time>2018-08-07T06:35:42Z</time>
      </trkpt>
      <trkpt lat="42.68339" lon="0.78767">
        <ele>1211.61</ele>
        <time>2018-08-07T06:35:43Z</time>
      </trkpt>
      <trkpt lat="42.6831" lon="0.78771">
        <ele>1213.99</ele>
        <time>2018-08-07T06:35:44Z</time>
      </trkpt>
      <trkpt lat="42.68282" lon="0.78773">
        <ele>1214.7</ele>
        <time>2018-08-07T06:35:45Z</time>
      </trkpt>
      <trkpt lat="42.68257" lon="0.7877">
        <ele>1217.72</ele>
        <time>2018-08-07T06:35:46Z</time>
      </trkpt>
      <trkpt lat="42.68231" lon="0.78769">
        <ele>1220.02</ele>
        <time>2018-08-07T06:35:47Z</time>
      </trkpt>
      <trkpt lat="42.68205" lon="0.78764">
        <ele>1221.41</ele>
        <time>2018-08-07T06:35:48Z</time>
      </trkpt>
      <trkpt lat="42.68182" lon="0.78757">
        <ele>1223.93</ele>
        <time>2018-08-07T06:35:49Z</time>
      </trkpt>
      <trkpt lat="42.68157" lon="0.78749">
        <ele>1226.08</ele>
        <time>2018-08-07T06:35:50Z</time>
      </trkpt>
      <trkpt lat="42.68132" lon="0.78742">
        <ele>1228.13</ele>
        <time>2018-08-07T06:35:51Z</time>
      </trkpt>
      <trkpt lat="42.68108" lon="0.78732">
        <ele>1230.14</ele>
        <time>2018-08-07T06:35:52Z</time>
      </trkpt>
      <trkpt lat="42.68084" lon="0.78721">
        <ele>1231.45</ele>
        <time>2018-08-07T06:35:53Z</time>
      </trkpt>
      <trkpt lat="42.68059" lon="0.78711">
        <ele>1233.24</ele>
        <time>2018-08-07T06:35:54Z</time>
      </trkpt>
      <trkpt lat="42.68035" lon="0.78704">
        <ele>1235.18</ele>
        <time>2018-08-07T06:35:55Z</time>
      </trkpt>
      <trkpt lat="42.68012" lon="0.78698">
        <ele>1237.16</ele>
        <time>2018-08-07T06:35:56Z</time>
      </trkpt>
      <trkpt lat="42.67989" lon="0.78692">
        <ele>1239.15</ele>
        <time>2018-08-07T06:35:57Z</time>
      </trkpt>
      <trkpt lat="42.67969" lon="0.78683">
        <ele>1240.45</ele>
        <time>2018-08-07T06:35:58Z</time>
      </trkpt>
      <trkpt lat="42.67948" lon="0.78676">
        <ele>1242.24</ele>
        <time>2018-08-07T06:35:59Z</time>
      </trkpt>
      <trkpt lat="42.6793" lon="0.78663">
        <ele>1243.48</ele>
        <time>2018-08-07T06:36:00Z</time>
      </trkpt>
      <trkpt lat="42.67912" lon="0.78649">
        <ele>1245.25</ele>
        <time>2018-08-07T06:36:01Z</time>
      </trkpt>
      <trkpt lat="42.67895" lon="0.78631">
        <ele>1247.18</ele>
        <time>2018-08-07T06:36:02Z</time>
      </trkpt>
      <trkpt lat="42.67879" lon="0.78612">
        <ele>1248.46</ele>
        <time>2018-08-07T06:36:03Z</time>
      </trkpt>
      <trkpt lat="42.67863" lon="0.78591">
        <ele>1250.24</ele>
        <time>2018-08-07T06:36:04Z</time>
      </trkpt>
      <trkpt lat="42.67846" lon="0.78571">
        <ele>1252.88</ele>
        <time>2018-08-07T06:36:05Z</time>
      </trkpt>
      <trkpt lat="42.6783" lon="0.7855">
        <ele>1255.77</ele>
        <time>2018-08-07T06:36:06Z</time>
      </trkpt>
      <trkpt lat="42.67815" lon="0.7853">
        <ele>1258.04</ele>
        <time>2018-08-07T06:36:07Z</time>
      </trkpt>
      <trkpt lat="42.67801" lon="0.78511">
        <ele>1260.82</ele>
        <time>2018-08-07T06:36:08Z</time>
      </trkpt>
      <trkpt lat="42.67788" lon="0.78489">
        <ele>1263.75</ele>
        <time>2018-08-07T06:36:09Z</time>
      </trkpt>
      <trkpt lat="42.67777" lon="0.78464">
        <ele>1266.73</ele>
        <time>2018-08-07T06:36:10Z</time>
      </trkpt>
      <trkpt lat="42.67765" lon="0.78437">
        <ele>1268.32</ele>
        <time>2018-08-07T06:36:11Z</time>
      </trkpt>
      <trkpt lat="42.67752" lon="0.7841">
        <ele>1270.2</ele>
        <time>2018-08-07T06:36:12Z</time>
      </trkpt>
      <trkpt lat="42.67738" lon="0.78382">
        <ele>1272.87</ele>
        <time>2018-08-07T06:36:13Z</time>
      </trkpt>
      <trkpt lat="42.67726" lon="0.78351">
        <ele>1274.36</ele>
        <time>2018-08-07T06:36:14Z</time>
      </trkpt>
      <trkpt lat="42.67714" lon="0.7832">
        <ele>1276.21</ele>
        <time>2018-08-07T06:36:15Z</time>
      </trkpt>
      <trkpt lat="42.67703" lon="0.78288">
        <ele>1278.17</ele>
        <time>2018-08-07T06:36:16Z</time>
      </trkpt>
      <trkpt lat="42.67693" lon="0.78253">
        <ele>1280.16</ele>
        <time>2018-08-07T06:36:17Z</time>
      </trkpt>
      <trkpt lat="42.67682" lon="0.7822">
        <ele>1282.15</ele>
        <time>2018-08-07T06:36:18Z</time>
      </trkpt>
      <trkpt lat="42.67671" lon="0.78188">
        <ele>1284.15</ele>
        <time>2018-08-07T06:36:19Z</time>
      </trkpt>
      <trkpt lat="42.6766" lon="0.78159">
        <ele>1286.15</ele>
        <time>2018-08-07T06:36:20Z</time>
      </trkpt>
      <trkpt lat="42.67654" lon="0.78131">
        <ele>1287.45</ele>
        <time>2018-08-07T06:36:21Z</time>
      </trkpt>
      <trkpt lat="42.6765" lon="0.78104">
        <ele>1289.24</ele>
        <time>2018-08-07T06:36:22Z</time>
      </trkpt>
      <trkpt lat="42.6765" lon="0.78077">
        <ele>1291.18</ele>
        <time>2018-08-07T06:36:23Z</time>
      </trkpt>
      <trkpt lat="42.67653" lon="0.78048">
        <ele>1291.76</ele>
        <time>2018-08-07T06:36:24Z</time>
      </trkpt>
      <trkpt lat="42.67653" lon="0.78017">
        <ele>1292.63</ele>
        <time>2018-08-07T06:36:25Z</time>
      </trkpt>
      <trkpt lat="42.67651" lon="0.77986">
        <ele>1294.29</ele>
        <time>2018-08-07T06:36:26Z</time>
      </trkpt>
      <trkpt lat="42.6765" lon="0.77954">
        <ele>1296.19</ele>
        <time>2018-08-07T06:36:27Z</time>
      </trkpt>
      <trkpt lat="42.67649" lon="0.77922">
        <ele>1298.16</ele>
        <time>2018-08-07T06:36:28Z</time>
      </trkpt>
      <trkpt lat="42.67649" lon="0.77888">
        <ele>1300.15</ele>
        <time>2018-08-07T06:36:29Z</time>
      </trkpt>
      <trkpt lat="42.67649" lon="0.77854">
        <ele>1301.45</ele>
        <time>2018-08-07T06:36:30Z</time>
      </trkpt>
      <trkpt lat="42.6765" lon="0.7782">
        <ele>1303.24</ele>
        <time>2018-08-07T06:36:31Z</time>
      </trkpt>
      <trkpt lat="42.67652" lon="0.77787">
        <ele>1305.18</ele>
        <time>2018-08-07T06:36:32Z</time>
      </trkpt>
      <trkpt lat="42.67656" lon="0.77753">
        <ele>1307.16</ele>
        <time>2018-08-07T06:36:33Z</time>
      </trkpt>
      <trkpt lat="42.67658" lon="0.77719">
        <ele>1309.15</ele>
        <time>2018-08-07T06:36:34Z</time>
      </trkpt>
      <trkpt lat="42.67661" lon="0.77686">
        <ele>1311.15</ele>
        <time>2018-08-07T06:36:35Z</time>
      </trkpt>
      <trkpt lat="42.67661" lon="0.77654">
        <ele>1312.45</ele>
        <time>2018-08-07T06:36:36Z</time>
      </trkpt>
      <trkpt lat="42.67662" lon="0.77623">
        <ele>1314.24</ele>
        <time>2018-08-07T06:36:37Z</time>
      </trkpt>
      <trkpt lat="42.67665" lon="0.77592">
        <ele>1315.48</ele>
        <time>2018-08-07T06:36:38Z</time>
      </trkpt>
      <trkpt lat="42.67671" lon="0.77561">
        <ele>1317.25</ele>
        <time>2018-08-07T06:36:39Z</time>
      </trkpt>
      <trkpt lat="42.67675" lon="0.77528">
        <ele>1318.48</ele>
        <time>2018-08-07T06:36:40Z</time>
      </trkpt>
      <trkpt lat="42.67676" lon="0.77494">
        <ele>1320.25</ele>
        <time>2018-08-07T06:36:41Z</time>
      </trkpt>
      <trkpt lat="42.67677" lon="0.77463">
        <ele>1322.18</ele>
        <time>2018-08-07T06:36:42Z</time>
      </trkpt>
      <trkpt lat="42.67678" lon="0.77436">
        <ele>1323.46</ele>
        <time>2018-08-07T06:36:43Z</time>
      </trkpt>
      <trkpt lat="42.67675" lon="0.77389">
        <ele>1325.57</ele>
        <time>2018-08-07T06:36:45Z</time>
      </trkpt>
      <trkpt lat="42.67662" lon="0.77347">
        <ele>1327.58</ele>
        <time>2018-08-07T06:36:47Z</time>
      </trkpt>
      <trkpt lat="42.67651" lon="0.77305">
        <ele>1329.79</ele>
        <time>2018-08-07T06:36:49Z</time>
      </trkpt>
      <trkpt lat="42.67644" lon="0.77265">
        <ele>1332.51</ele>
        <time>2018-08-07T06:36:51Z</time>
      </trkpt>
      <trkpt lat="42.67638" lon="0.77229">
        <ele>1334.57</ele>
        <time>2018-08-07T06:36:53Z</time>
      </trkpt>
      <trkpt lat="42.67635" lon="0.77192">
        <ele>1336.58</ele>
        <time>2018-08-07T06:36:55Z</time>
      </trkpt>
      <trkpt lat="42.67638" lon="0.77155">
        <ele>1339.49</ele>
        <time>2018-08-07T06:36:57Z</time>
      </trkpt>
      <trkpt lat="42.67638" lon="0.77117">
        <ele>1341.57</ele>
        <time>2018-08-07T06:36:59Z</time>
      </trkpt>
      <trkpt lat="42.67633" lon="0.77074">
        <ele>1343.58</ele>
        <time>2018-08-07T06:37:01Z</time>
      </trkpt>
      <trkpt lat="42.67632" lon="0.77049">
        <ele>1344.58</ele>
        <time>2018-08-07T06:37:02Z</time>
      </trkpt>
      <trkpt lat="42.67631" lon="0.77025">
        <ele>1344.88</ele>
        <time>2018-08-07T06:37:03Z</time>
      </trkpt>
      <trkpt lat="42.67628" lon="0.76977">
        <ele>1345</ele>
        <time>2018-08-07T06:37:05Z</time>
      </trkpt>
      <trkpt lat="42.67619" lon="0.76939">
        <ele>1346.41</ele>
        <time>2018-08-07T06:37:07Z</time>
      </trkpt>
      <trkpt lat="42.67598" lon="0.76911">
        <ele>1346.74</ele>
        <time>2018-08-07T06:37:09Z</time>
      </trkpt>
      <trkpt lat="42.67573" lon="0.76897">
        <ele>1346.98</ele>
        <time>2018-08-07T06:37:11Z</time>
      </trkpt>
      <trkpt lat="42.67553" lon="0.76899">
        <ele>1346.3</ele>
        <time>2018-08-07T06:37:13Z</time>
      </trkpt>
      <trkpt lat="42.67521" lon="0.76945">
        <ele>1346.93</ele>
        <time>2018-08-07T06:37:16Z</time>
      </trkpt>
      <trkpt lat="42.67509" lon="0.76976">
        <ele>1346.98</ele>
        <time>2018-08-07T06:37:17Z</time>
      </trkpt>
      <trkpt lat="42.67512" lon="0.77012">
        <ele>1347.7</ele>
        <time>2018-08-07T06:37:18Z</time>
      </trkpt>
      <trkpt lat="42.67516" lon="0.77042">
        <ele>1349.31</ele>
        <time>2018-08-07T06:37:19Z</time>
      </trkpt>
      <trkpt lat="42.67513" lon="0.77067">
        <ele>1351.2</ele>
        <time>2018-08-07T06:37:20Z</time>
      </trkpt>
      <trkpt lat="42.67509" lon="0.77093">
        <ele>1352.46</ele>
        <time>2018-08-07T06:37:21Z</time>
      </trkpt>
      <trkpt lat="42.67501" lon="0.77118">
        <ele>1354.94</ele>
        <time>2018-08-07T06:37:22Z</time>
      </trkpt>
      <trkpt lat="42.67493" lon="0.77141">
        <ele>1356.39</ele>
        <time>2018-08-07T06:37:23Z</time>
      </trkpt>
      <trkpt lat="42.67484" lon="0.77164">
        <ele>1357.52</ele>
        <time>2018-08-07T06:37:24Z</time>
      </trkpt>
      <trkpt lat="42.67475" lon="0.77187">
        <ele>1359.96</ele>
        <time>2018-08-07T06:37:25Z</time>
      </trkpt>
      <trkpt lat="42.67467" lon="0.77209">
        <ele>1361.39</ele>
        <time>2018-08-07T06:37:26Z</time>
      </trkpt>
      <trkpt lat="42.67461" lon="0.77233">
        <ele>1361.82</ele>
        <time>2018-08-07T06:37:27Z</time>
      </trkpt>
      <trkpt lat="42.67456" lon="0.7728">
        <ele>1364.51</ele>
        <time>2018-08-07T06:37:29Z</time>
      </trkpt>
      <trkpt lat="42.67456" lon="0.77327">
        <ele>1366.57</ele>
        <time>2018-08-07T06:37:31Z</time>
      </trkpt>
      <trkpt lat="42.67454" lon="0.77372">
        <ele>1369.49</ele>
        <time>2018-08-07T06:37:33Z</time>
      </trkpt>
      <trkpt lat="42.67444" lon="0.77415">
        <ele>1372.48</ele>
        <time>2018-08-07T06:37:35Z</time>
      </trkpt>
      <trkpt lat="42.67427" lon="0.77456">
        <ele>1374.57</ele>
        <time>2018-08-07T06:37:37Z</time>
      </trkpt>
      <trkpt lat="42.67405" lon="0.77491">
        <ele>1377.49</ele>
        <time>2018-08-07T06:37:39Z</time>
      </trkpt>
      <trkpt lat="42.67382" lon="0.77526">
        <ele>1378.66</ele>
        <time>2018-08-07T06:37:41Z</time>
      </trkpt>
      <trkpt lat="42.67361" lon="0.77564">
        <ele>1379.68</ele>
        <time>2018-08-07T06:37:43Z</time>
      </trkpt>
      <trkpt lat="42.6735" lon="0.77584">
        <ele>1379.91</ele>
        <time>2018-08-07T06:37:44Z</time>
      </trkpt>
      <trkpt lat="42.67329" lon="0.77625">
        <ele>1380</ele>
        <time>2018-08-07T06:37:46Z</time>
      </trkpt>
      <trkpt lat="42.67318" lon="0.77646">
        <ele>1380</ele>
        <time>2018-08-07T06:37:47Z</time>
      </trkpt>
      <trkpt lat="42.67308" lon="0.77667">
        <ele>1380.01</ele>
        <time>2018-08-07T06:37:48Z</time>
      </trkpt>
      <trkpt lat="42.67297" lon="0.77688">
        <ele>1380.01</ele>
        <time>2018-08-07T06:37:49Z</time>
      </trkpt>
      <trkpt lat="42.67286" lon="0.77708">
        <ele>1380.71</ele>
        <time>2018-08-07T06:37:50Z</time>
      </trkpt>
      <trkpt lat="42.67273" lon="0.77727">
        <ele>1380.92</ele>
        <time>2018-08-07T06:37:51Z</time>
      </trkpt>
      <trkpt lat="42.67259" lon="0.77745">
        <ele>1380.98</ele>
        <time>2018-08-07T06:37:52Z</time>
      </trkpt>
      <trkpt lat="42.67244" lon="0.77762">
        <ele>1381</ele>
        <time>2018-08-07T06:37:53Z</time>
      </trkpt>
      <trkpt lat="42.67229" lon="0.77777">
        <ele>1381.7</ele>
        <time>2018-08-07T06:37:54Z</time>
      </trkpt>
      <trkpt lat="42.67212" lon="0.7779">
        <ele>1381.92</ele>
        <time>2018-08-07T06:37:55Z</time>
      </trkpt>
      <trkpt lat="42.67195" lon="0.77803">
        <ele>1383.38</ele>
        <time>2018-08-07T06:37:56Z</time>
      </trkpt>
      <trkpt lat="42.67178" lon="0.77814">
        <ele>1384.52</ele>
        <time>2018-08-07T06:37:57Z</time>
      </trkpt>
      <trkpt lat="42.67161" lon="0.77824">
        <ele>1385.56</ele>
        <time>2018-08-07T06:37:58Z</time>
      </trkpt>
      <trkpt lat="42.67143" lon="0.77832">
        <ele>1386.57</ele>
        <time>2018-08-07T06:37:59Z</time>
      </trkpt>
      <trkpt lat="42.67125" lon="0.77838">
        <ele>1387.58</ele>
        <time>2018-08-07T06:38:00Z</time>
      </trkpt>
      <trkpt lat="42.67107" lon="0.77841">
        <ele>1389.28</ele>
        <time>2018-08-07T06:38:01Z</time>
      </trkpt>
      <trkpt lat="42.67089" lon="0.77844">
        <ele>1390.49</ele>
        <time>2018-08-07T06:38:02Z</time>
      </trkpt>
      <trkpt lat="42.67071" lon="0.77846">
        <ele>1391.55</ele>
        <time>2018-08-07T06:38:03Z</time>
      </trkpt>
      <trkpt lat="42.67053" lon="0.77848">
        <ele>1392.57</ele>
        <time>2018-08-07T06:38:04Z</time>
      </trkpt>
      <trkpt lat="42.67035" lon="0.77849">
        <ele>1392.88</ele>
        <time>2018-08-07T06:38:05Z</time>
      </trkpt>
      <trkpt lat="42.67017" lon="0.77851">
        <ele>1392.97</ele>
        <time>2018-08-07T06:38:06Z</time>
      </trkpt>
      <trkpt lat="42.66998" lon="0.77852">
        <ele>1393</ele>
        <time>2018-08-07T06:38:07Z</time>
      </trkpt>
      <trkpt lat="42.62339" lon="0.76513">
        <ele>1480.5</ele>
        <time>2018-08-07T06:42:08Z</time>
      </trkpt>
      <trkpt lat="42.62311" lon="0.76502">
        <ele>1548.3</ele>
        <time>2018-08-07T06:42:10Z</time>
      </trkpt>
      <trkpt lat="42.6229" lon="0.76504">
        <ele>1560.7</ele>
        <time>2018-08-07T06:42:11Z</time>
      </trkpt>
      <trkpt lat="42.62269" lon="0.7651">
        <ele>1565.11</ele>
        <time>2018-08-07T06:42:12Z</time>
      </trkpt>
      <trkpt lat="42.62247" lon="0.76514">
        <ele>1568.54</ele>
        <time>2018-08-07T06:42:13Z</time>
      </trkpt>
      <trkpt lat="42.62225" lon="0.76518">
        <ele>1570.97</ele>
        <time>2018-08-07T06:42:14Z</time>
      </trkpt>
      <trkpt lat="42.62202" lon="0.7652">
        <ele>1571.69</ele>
        <time>2018-08-07T06:42:15Z</time>
      </trkpt>
      <trkpt lat="42.62179" lon="0.7652">
        <ele>1572.61</ele>
        <time>2018-08-07T06:42:16Z</time>
      </trkpt>
      <trkpt lat="42.62155" lon="0.7652">
        <ele>1573.59</ele>
        <time>2018-08-07T06:42:17Z</time>
      </trkpt>
      <trkpt lat="42.62131" lon="0.76517">
        <ele>1573.88</ele>
        <time>2018-08-07T06:42:18Z</time>
      </trkpt>
      <trkpt lat="42.62107" lon="0.76513">
        <ele>1573.27</ele>
        <time>2018-08-07T06:42:19Z</time>
      </trkpt>
      <trkpt lat="42.62083" lon="0.76509">
        <ele>1572.39</ele>
        <time>2018-08-07T06:42:20Z</time>
      </trkpt>
      <trkpt lat="42.62059" lon="0.76505">
        <ele>1572.12</ele>
        <time>2018-08-07T06:42:21Z</time>
      </trkpt>
      <trkpt lat="42.62034" lon="0.76501">
        <ele>1571.34</ele>
        <time>2018-08-07T06:42:22Z</time>
      </trkpt>
      <trkpt lat="42.6201" lon="0.76496">
        <ele>1570.41</ele>
        <time>2018-08-07T06:42:23Z</time>
      </trkpt>
      <trkpt lat="42.61985" lon="0.76493">
        <ele>1569.43</ele>
        <time>2018-08-07T06:42:24Z</time>
      </trkpt>
      <trkpt lat="42.6196" lon="0.7649">
        <ele>1568.43</ele>
        <time>2018-08-07T06:42:25Z</time>
      </trkpt>
      <trkpt lat="42.61935" lon="0.76488">
        <ele>1567.43</ele>
        <time>2018-08-07T06:42:26Z</time>
      </trkpt>
      <trkpt lat="42.6191" lon="0.76486">
        <ele>1565.74</ele>
        <time>2018-08-07T06:42:27Z</time>
      </trkpt>
      <trkpt lat="42.61886" lon="0.76483">
        <ele>1564.53</ele>
        <time>2018-08-07T06:42:28Z</time>
      </trkpt>
      <trkpt lat="42.6186" lon="0.76481">
        <ele>1563.46</ele>
        <time>2018-08-07T06:42:29Z</time>
      </trkpt>
      <trkpt lat="42.61835" lon="0.76478">
        <ele>1562.44</ele>
        <time>2018-08-07T06:42:30Z</time>
      </trkpt>
      <trkpt lat="42.61811" lon="0.76475">
        <ele>1562.14</ele>
        <time>2018-08-07T06:42:31Z</time>
      </trkpt>
      <trkpt lat="42.61787" lon="0.76472">
        <ele>1561.35</ele>
        <time>2018-08-07T06:42:32Z</time>
      </trkpt>
      <trkpt lat="42.61762" lon="0.7647">
        <ele>1560.41</ele>
        <time>2018-08-07T06:42:33Z</time>
      </trkpt>
      <trkpt lat="42.61738" lon="0.7647">
        <ele>1560.13</ele>
        <time>2018-08-07T06:42:34Z</time>
      </trkpt>
      <trkpt lat="42.61713" lon="0.76472">
        <ele>1559.34</ele>
        <time>2018-08-07T06:42:35Z</time>
      </trkpt>
      <trkpt lat="42.61689" lon="0.76477">
        <ele>1558.41</ele>
        <time>2018-08-07T06:42:36Z</time>
      </trkpt>
      <trkpt lat="42.61666" lon="0.76485">
        <ele>1558.13</ele>
        <time>2018-08-07T06:42:37Z</time>
      </trkpt>
      <trkpt lat="42.61643" lon="0.76494">
        <ele>1558.04</ele>
        <time>2018-08-07T06:42:38Z</time>
      </trkpt>
      <trkpt lat="42.6162" lon="0.76505">
        <ele>1558.02</ele>
        <time>2018-08-07T06:42:39Z</time>
      </trkpt>
      <trkpt lat="42.61598" lon="0.76516">
        <ele>1557.31</ele>
        <time>2018-08-07T06:42:40Z</time>
      </trkpt>
      <trkpt lat="42.61576" lon="0.76527">
        <ele>1557.1</ele>
        <time>2018-08-07T06:42:41Z</time>
      </trkpt>
      <trkpt lat="42.61554" lon="0.76536">
        <ele>1556.33</ele>
        <time>2018-08-07T06:42:42Z</time>
      </trkpt>
      <trkpt lat="42.61531" lon="0.76545">
        <ele>1555.41</ele>
        <time>2018-08-07T06:42:43Z</time>
      </trkpt>
      <trkpt lat="42.61508" lon="0.76554">
        <ele>1554.43</ele>
        <time>2018-08-07T06:42:44Z</time>
      </trkpt>
      <trkpt lat="42.61485" lon="0.76561">
        <ele>1553.43</ele>
        <time>2018-08-07T06:42:45Z</time>
      </trkpt>
      <trkpt lat="42.61463" lon="0.76568">
        <ele>1553.13</ele>
        <time>2018-08-07T06:42:46Z</time>
      </trkpt>
      <trkpt lat="42.61439" lon="0.76573">
        <ele>1552.35</ele>
        <time>2018-08-07T06:42:47Z</time>
      </trkpt>
      <trkpt lat="42.61415" lon="0.76579">
        <ele>1552.11</ele>
        <time>2018-08-07T06:42:48Z</time>
      </trkpt>
      <trkpt lat="42.61391" lon="0.76584">
        <ele>1551.34</ele>
        <time>2018-08-07T06:42:49Z</time>
      </trkpt>
      <trkpt lat="42.61368" lon="0.7659">
        <ele>1550.41</ele>
        <time>2018-08-07T06:42:50Z</time>
      </trkpt>
      <trkpt lat="42.61344" lon="0.76596">
        <ele>1548.73</ele>
        <time>2018-08-07T06:42:51Z</time>
      </trkpt>
      <trkpt lat="42.6132" lon="0.76601">
        <ele>1547.52</ele>
        <time>2018-08-07T06:42:52Z</time>
      </trkpt>
      <trkpt lat="42.61295" lon="0.76606">
        <ele>1547.16</ele>
        <time>2018-08-07T06:42:53Z</time>
      </trkpt>
      <trkpt lat="42.61271" lon="0.76612">
        <ele>1546.35</ele>
        <time>2018-08-07T06:42:54Z</time>
      </trkpt>
      <trkpt lat="42.61247" lon="0.76617">
        <ele>1546.11</ele>
        <time>2018-08-07T06:42:55Z</time>
      </trkpt>
      <trkpt lat="42.61222" lon="0.76622">
        <ele>1545.34</ele>
        <time>2018-08-07T06:42:56Z</time>
      </trkpt>
      <trkpt lat="42.61198" lon="0.76629">
        <ele>1543.71</ele>
        <time>2018-08-07T06:42:57Z</time>
      </trkpt>
      <trkpt lat="42.61174" lon="0.76634">
        <ele>1542.52</ele>
        <time>2018-08-07T06:42:58Z</time>
      </trkpt>
      <trkpt lat="42.61149" lon="0.7664">
        <ele>1540.06</ele>
        <time>2018-08-07T06:42:59Z</time>
      </trkpt>
      <trkpt lat="42.61125" lon="0.76646">
        <ele>1538.62</ele>
        <time>2018-08-07T06:43:00Z</time>
      </trkpt>
      <trkpt lat="42.61099" lon="0.76651">
        <ele>1536.79</ele>
        <time>2018-08-07T06:43:01Z</time>
      </trkpt>
      <trkpt lat="42.61074" lon="0.76657">
        <ele>1535.54</ele>
        <time>2018-08-07T06:43:02Z</time>
      </trkpt>
      <trkpt lat="42.61049" lon="0.76663">
        <ele>1533.77</ele>
        <time>2018-08-07T06:43:03Z</time>
      </trkpt>
      <trkpt lat="42.61023" lon="0.76668">
        <ele>1531.84</ele>
        <time>2018-08-07T06:43:04Z</time>
      </trkpt>
      <trkpt lat="42.60998" lon="0.76671">
        <ele>1529.86</ele>
        <time>2018-08-07T06:43:05Z</time>
      </trkpt>
      <trkpt lat="42.60972" lon="0.76672">
        <ele>1527.86</ele>
        <time>2018-08-07T06:43:06Z</time>
      </trkpt>
      <trkpt lat="42.60947" lon="0.7667">
        <ele>1526.56</ele>
        <time>2018-08-07T06:43:07Z</time>
      </trkpt>
      <trkpt lat="42.60921" lon="0.76666">
        <ele>1524.07</ele>
        <time>2018-08-07T06:43:08Z</time>
      </trkpt>
      <trkpt lat="42.60896" lon="0.7666">
        <ele>1522.63</ele>
        <time>2018-08-07T06:43:09Z</time>
      </trkpt>
      <trkpt lat="42.6087" lon="0.76652">
        <ele>1520.09</ele>
        <time>2018-08-07T06:43:10Z</time>
      </trkpt>
      <trkpt lat="42.60845" lon="0.76642">
        <ele>1518.63</ele>
        <time>2018-08-07T06:43:11Z</time>
      </trkpt>
      <trkpt lat="42.60821" lon="0.76629">
        <ele>1516.79</ele>
        <time>2018-08-07T06:43:12Z</time>
      </trkpt>
      <trkpt lat="42.60797" lon="0.76617">
        <ele>1515.54</ele>
        <time>2018-08-07T06:43:13Z</time>
      </trkpt>
      <trkpt lat="42.60773" lon="0.76606">
        <ele>1514.47</ele>
        <time>2018-08-07T06:43:14Z</time>
      </trkpt>
      <trkpt lat="42.60748" lon="0.76598">
        <ele>1512.75</ele>
        <time>2018-08-07T06:43:15Z</time>
      </trkpt>
      <trkpt lat="42.60723" lon="0.76591">
        <ele>1511.53</ele>
        <time>2018-08-07T06:43:16Z</time>
      </trkpt>
      <trkpt lat="42.60697" lon="0.7659">
        <ele>1510.46</ele>
        <time>2018-08-07T06:43:17Z</time>
      </trkpt>
      <trkpt lat="42.60672" lon="0.76591">
        <ele>1509.44</ele>
        <time>2018-08-07T06:43:18Z</time>
      </trkpt>
      <trkpt lat="42.60646" lon="0.76595">
        <ele>1508.44</ele>
        <time>2018-08-07T06:43:19Z</time>
      </trkpt>
      <trkpt lat="42.60621" lon="0.76601">
        <ele>1506.74</ele>
        <time>2018-08-07T06:43:20Z</time>
      </trkpt>
      <trkpt lat="42.60597" lon="0.76608">
        <ele>1505.53</ele>
        <time>2018-08-07T06:43:21Z</time>
      </trkpt>
      <trkpt lat="42.60574" lon="0.76614">
        <ele>1503.76</ele>
        <time>2018-08-07T06:43:22Z</time>
      </trkpt>
      <trkpt lat="42.6055" lon="0.76618">
        <ele>1501.83</ele>
        <time>2018-08-07T06:43:23Z</time>
      </trkpt>
      <trkpt lat="42.60527" lon="0.76618">
        <ele>1499.85</ele>
        <time>2018-08-07T06:43:24Z</time>
      </trkpt>
      <trkpt lat="42.60504" lon="0.76615">
        <ele>1498.56</ele>
        <time>2018-08-07T06:43:25Z</time>
      </trkpt>
      <trkpt lat="42.60481" lon="0.7661">
        <ele>1496.77</ele>
        <time>2018-08-07T06:43:26Z</time>
      </trkpt>
      <trkpt lat="42.60458" lon="0.76601">
        <ele>1494.84</ele>
        <time>2018-08-07T06:43:27Z</time>
      </trkpt>
      <trkpt lat="42.60435" lon="0.76588">
        <ele>1493.56</ele>
        <time>2018-08-07T06:43:28Z</time>
      </trkpt>
      <trkpt lat="42.60413" lon="0.76573">
        <ele>1491.77</ele>
        <time>2018-08-07T06:43:29Z</time>
      </trkpt>
      <trkpt lat="42.60392" lon="0.76554">
        <ele>1489.84</ele>
        <time>2018-08-07T06:43:30Z</time>
      </trkpt>
      <trkpt lat="42.60372" lon="0.76533">
        <ele>1488.56</ele>
        <time>2018-08-07T06:43:31Z</time>
      </trkpt>
      <trkpt lat="42.60352" lon="0.76511">
        <ele>1486.77</ele>
        <time>2018-08-07T06:43:32Z</time>
      </trkpt>
      <trkpt lat="42.60332" lon="0.7649">
        <ele>1485.54</ele>
        <time>2018-08-07T06:43:33Z</time>
      </trkpt>
      <trkpt lat="42.60311" lon="0.76469">
        <ele>1485.17</ele>
        <time>2018-08-07T06:43:34Z</time>
      </trkpt>
      <trkpt lat="42.60291" lon="0.76447">
        <ele>1484.35</ele>
        <time>2018-08-07T06:43:35Z</time>
      </trkpt>
      <trkpt lat="42.6027" lon="0.76427">
        <ele>1483.41</ele>
        <time>2018-08-07T06:43:36Z</time>
      </trkpt>
      <trkpt lat="42.60248" lon="0.76409">
        <ele>1482.43</ele>
        <time>2018-08-07T06:43:37Z</time>
      </trkpt>
      <trkpt lat="42.60227" lon="0.76393">
        <ele>1482.13</ele>
        <time>2018-08-07T06:43:38Z</time>
      </trkpt>
      <trkpt lat="42.60204" lon="0.76379">
        <ele>1481.34</ele>
        <time>2018-08-07T06:43:39Z</time>
      </trkpt>
      <trkpt lat="42.6018" lon="0.76368">
        <ele>1479.71</ele>
        <time>2018-08-07T06:43:40Z</time>
      </trkpt>
      <trkpt lat="42.60155" lon="0.7636">
        <ele>1478.52</ele>
        <time>2018-08-07T06:43:41Z</time>
      </trkpt>
      <trkpt lat="42.60131" lon="0.76353">
        <ele>1478.16</ele>
        <time>2018-08-07T06:43:42Z</time>
      </trkpt>
      <trkpt lat="42.60106" lon="0.76349">
        <ele>1477.35</ele>
        <time>2018-08-07T06:43:43Z</time>
      </trkpt>
      <trkpt lat="42.60081" lon="0.76347">
        <ele>1476.41</ele>
        <time>2018-08-07T06:43:44Z</time>
      </trkpt>
      <trkpt lat="42.60057" lon="0.76346">
        <ele>1475.43</ele>
        <time>2018-08-07T06:43:45Z</time>
      </trkpt>
      <trkpt lat="42.60032" lon="0.76346">
        <ele>1474.43</ele>
        <time>2018-08-07T06:43:46Z</time>
      </trkpt>
      <trkpt lat="42.60007" lon="0.76344">
        <ele>1473.43</ele>
        <time>2018-08-07T06:43:47Z</time>
      </trkpt>
      <trkpt lat="42.59983" lon="0.76343">
        <ele>1472.44</ele>
        <time>2018-08-07T06:43:48Z</time>
      </trkpt>
      <trkpt lat="42.59959" lon="0.7634">
        <ele>1472.14</ele>
        <time>2018-08-07T06:43:49Z</time>
      </trkpt>
      <trkpt lat="42.59934" lon="0.76337">
        <ele>1470.65</ele>
        <time>2018-08-07T06:43:50Z</time>
      </trkpt>
      <trkpt lat="42.5991" lon="0.76331">
        <ele>1469.5</ele>
        <time>2018-08-07T06:43:51Z</time>
      </trkpt>
      <trkpt lat="42.59886" lon="0.76323">
        <ele>1468.45</ele>
        <time>2018-08-07T06:43:52Z</time>
      </trkpt>
      <trkpt lat="42.59863" lon="0.76311">
        <ele>1466.74</ele>
        <time>2018-08-07T06:43:53Z</time>
      </trkpt>
      <trkpt lat="42.59841" lon="0.76297">
        <ele>1464.83</ele>
        <time>2018-08-07T06:43:54Z</time>
      </trkpt>
      <trkpt lat="42.5982" lon="0.7628">
        <ele>1463.55</ele>
        <time>2018-08-07T06:43:55Z</time>
      </trkpt>
      <trkpt lat="42.598" lon="0.7626">
        <ele>1461.77</ele>
        <time>2018-08-07T06:43:56Z</time>
      </trkpt>
      <trkpt lat="42.59781" lon="0.76238">
        <ele>1459.84</ele>
        <time>2018-08-07T06:43:57Z</time>
      </trkpt>
      <trkpt lat="42.59765" lon="0.76215">
        <ele>1458.56</ele>
        <time>2018-08-07T06:43:58Z</time>
      </trkpt>
      <trkpt lat="42.59748" lon="0.76191">
        <ele>1457.47</ele>
        <time>2018-08-07T06:43:59Z</time>
      </trkpt>
      <trkpt lat="42.59732" lon="0.76168">
        <ele>1455.75</ele>
        <time>2018-08-07T06:44:00Z</time>
      </trkpt>
      <trkpt lat="42.59716" lon="0.76144">
        <ele>1454.53</ele>
        <time>2018-08-07T06:44:01Z</time>
      </trkpt>
      <trkpt lat="42.59701" lon="0.7612">
        <ele>1453.46</ele>
        <time>2018-08-07T06:44:02Z</time>
      </trkpt>
      <trkpt lat="42.59688" lon="0.76094">
        <ele>1452.44</ele>
        <time>2018-08-07T06:44:03Z</time>
      </trkpt>
      <trkpt lat="42.59678" lon="0.76065">
        <ele>1451.44</ele>
        <time>2018-08-07T06:44:04Z</time>
      </trkpt>
      <trkpt lat="42.59671" lon="0.76035">
        <ele>1450.44</ele>
        <time>2018-08-07T06:44:05Z</time>
      </trkpt>
      <trkpt lat="42.59666" lon="0.76004">
        <ele>1450.14</ele>
        <time>2018-08-07T06:44:06Z</time>
      </trkpt>
      <trkpt lat="42.59664" lon="0.75973">
        <ele>1449.35</ele>
        <time>2018-08-07T06:44:07Z</time>
      </trkpt>
      <trkpt lat="42.59661" lon="0.75942">
        <ele>1449.11</ele>
        <time>2018-08-07T06:44:08Z</time>
      </trkpt>
      <trkpt lat="42.59656" lon="0.75913">
        <ele>1448.34</ele>
        <time>2018-08-07T06:44:09Z</time>
      </trkpt>
      <trkpt lat="42.5965" lon="0.75886">
        <ele>1448.11</ele>
        <time>2018-08-07T06:44:10Z</time>
      </trkpt>
      <trkpt lat="42.59642" lon="0.75861">
        <ele>1448.04</ele>
        <time>2018-08-07T06:44:11Z</time>
      </trkpt>
      <trkpt lat="42.59631" lon="0.75839">
        <ele>1448.02</ele>
        <time>2018-08-07T06:44:12Z</time>
      </trkpt>
      <trkpt lat="42.59619" lon="0.75819">
        <ele>1447.31</ele>
        <time>2018-08-07T06:44:13Z</time>
      </trkpt>
      <trkpt lat="42.59601" lon="0.75802">
        <ele>1446.4</ele>
        <time>2018-08-07T06:44:14Z</time>
      </trkpt>
      <trkpt lat="42.59569" lon="0.758">
        <ele>1446.12</ele>
        <time>2018-08-07T06:44:15Z</time>
      </trkpt>
      <trkpt lat="42.59544" lon="0.75793">
        <ele>1446.74</ele>
        <time>2018-08-07T06:44:16Z</time>
      </trkpt>
      <trkpt lat="42.59519" lon="0.75787">
        <ele>1446.23</ele>
        <time>2018-08-07T06:44:17Z</time>
      </trkpt>
      <trkpt lat="42.59492" lon="0.7578">
        <ele>1446.07</ele>
        <time>2018-08-07T06:44:18Z</time>
      </trkpt>
      <trkpt lat="42.59464" lon="0.75774">
        <ele>1445.33</ele>
        <time>2018-08-07T06:44:19Z</time>
      </trkpt>
      <trkpt lat="42.59437" lon="0.75766">
        <ele>1445.1</ele>
        <time>2018-08-07T06:44:20Z</time>
      </trkpt>
      <trkpt lat="42.59408" lon="0.75757">
        <ele>1445.04</ele>
        <time>2018-08-07T06:44:21Z</time>
      </trkpt>
      <trkpt lat="42.59379" lon="0.75749">
        <ele>1445.02</ele>
        <time>2018-08-07T06:44:22Z</time>
      </trkpt>
      <trkpt lat="42.59351" lon="0.75742">
        <ele>1445.01</ele>
        <time>2018-08-07T06:44:23Z</time>
      </trkpt>
      <trkpt lat="42.59324" lon="0.75735">
        <ele>1444.31</ele>
        <time>2018-08-07T06:44:24Z</time>
      </trkpt>
      <trkpt lat="42.59296" lon="0.75728">
        <ele>1444.1</ele>
        <time>2018-08-07T06:44:25Z</time>
      </trkpt>
      <trkpt lat="42.5927" lon="0.75721">
        <ele>1444.03</ele>
        <time>2018-08-07T06:44:26Z</time>
      </trkpt>
      <trkpt lat="42.59244" lon="0.75714">
        <ele>1443.32</ele>
        <time>2018-08-07T06:44:27Z</time>
      </trkpt>
      <trkpt lat="42.59218" lon="0.75709">
        <ele>1443.1</ele>
        <time>2018-08-07T06:44:28Z</time>
      </trkpt>
      <trkpt lat="42.59193" lon="0.75707">
        <ele>1442.33</ele>
        <time>2018-08-07T06:44:29Z</time>
      </trkpt>
      <trkpt lat="42.59167" lon="0.75708">
        <ele>1442.11</ele>
        <time>2018-08-07T06:44:30Z</time>
      </trkpt>
      <trkpt lat="42.59142" lon="0.75713">
        <ele>1442.04</ele>
        <time>2018-08-07T06:44:31Z</time>
      </trkpt>
      <trkpt lat="42.59116" lon="0.75723">
        <ele>1441.32</ele>
        <time>2018-08-07T06:44:32Z</time>
      </trkpt>
      <trkpt lat="42.59092" lon="0.75736">
        <ele>1441.1</ele>
        <time>2018-08-07T06:44:33Z</time>
      </trkpt>
      <trkpt lat="42.59069" lon="0.7575">
        <ele>1441.03</ele>
        <time>2018-08-07T06:44:34Z</time>
      </trkpt>
      <trkpt lat="42.59046" lon="0.75768">
        <ele>1440.32</ele>
        <time>2018-08-07T06:44:35Z</time>
      </trkpt>
      <trkpt lat="42.59022" lon="0.75782">
        <ele>1440.1</ele>
        <time>2018-08-07T06:44:36Z</time>
      </trkpt>
      <trkpt lat="42.58999" lon="0.75794">
        <ele>1440.03</ele>
        <time>2018-08-07T06:44:37Z</time>
      </trkpt>
      <trkpt lat="42.58974" lon="0.75802">
        <ele>1440.02</ele>
        <time>2018-08-07T06:44:38Z</time>
      </trkpt>
      <trkpt lat="42.58949" lon="0.75806">
        <ele>1440.01</ele>
        <time>2018-08-07T06:44:39Z</time>
      </trkpt>
      <trkpt lat="42.58923" lon="0.75807">
        <ele>1440.71</ele>
        <time>2018-08-07T06:44:40Z</time>
      </trkpt>
      <trkpt lat="42.58897" lon="0.75806">
        <ele>1440.22</ele>
        <time>2018-08-07T06:44:41Z</time>
      </trkpt>
      <trkpt lat="42.5887" lon="0.75803">
        <ele>1440.77</ele>
        <time>2018-08-07T06:44:42Z</time>
      </trkpt>
      <trkpt lat="42.58846" lon="0.75792">
        <ele>1440.24</ele>
        <time>2018-08-07T06:44:43Z</time>
      </trkpt>
      <trkpt lat="42.58823" lon="0.75779">
        <ele>1440.08</ele>
        <time>2018-08-07T06:44:44Z</time>
      </trkpt>
      <trkpt lat="42.58798" lon="0.75771">
        <ele>1440.73</ele>
        <time>2018-08-07T06:44:45Z</time>
      </trkpt>
      <trkpt lat="42.58773" lon="0.75764">
        <ele>1440.92</ele>
        <time>2018-08-07T06:44:46Z</time>
      </trkpt>
      <trkpt lat="42.58748" lon="0.75762">
        <ele>1440.28</ele>
        <time>2018-08-07T06:44:47Z</time>
      </trkpt>
      <trkpt lat="42.58724" lon="0.75764">
        <ele>1440.09</ele>
        <time>2018-08-07T06:44:48Z</time>
      </trkpt>
      <trkpt lat="42.58698" lon="0.7577">
        <ele>1440.03</ele>
        <time>2018-08-07T06:44:49Z</time>
      </trkpt>
      <trkpt lat="42.58674" lon="0.75779">
        <ele>1440.01</ele>
        <time>2018-08-07T06:44:50Z</time>
      </trkpt>
      <trkpt lat="42.5865" lon="0.7579">
        <ele>1439.31</ele>
        <time>2018-08-07T06:44:51Z</time>
      </trkpt>
      <trkpt lat="42.58626" lon="0.75798">
        <ele>1439.1</ele>
        <time>2018-08-07T06:44:52Z</time>
      </trkpt>
      <trkpt lat="42.58601" lon="0.75804">
        <ele>1439.03</ele>
        <time>2018-08-07T06:44:53Z</time>
      </trkpt>
      <trkpt lat="42.58577" lon="0.75808">
        <ele>1439.02</ele>
        <time>2018-08-07T06:44:54Z</time>
      </trkpt>
      <trkpt lat="42.58552" lon="0.75801">
        <ele>1439.01</ele>
        <time>2018-08-07T06:44:55Z</time>
      </trkpt>
      <trkpt lat="42.58528" lon="0.75795">
        <ele>1438.31</ele>
        <time>2018-08-07T06:44:56Z</time>
      </trkpt>
      <trkpt lat="42.58502" lon="0.75786">
        <ele>1438.8</ele>
        <time>2018-08-07T06:44:57Z</time>
      </trkpt>
      <trkpt lat="42.58478" lon="0.75773">
        <ele>1438.94</ele>
        <time>2018-08-07T06:44:58Z</time>
      </trkpt>
      <trkpt lat="42.58454" lon="0.75756">
        <ele>1439.69</ele>
        <time>2018-08-07T06:44:59Z</time>
      </trkpt>
      <trkpt lat="42.58434" lon="0.75732">
        <ele>1440.61</ele>
        <time>2018-08-07T06:45:00Z</time>
      </trkpt>
      <trkpt lat="42.58425" lon="0.75698">
        <ele>1441.59</ele>
        <time>2018-08-07T06:45:01Z</time>
      </trkpt>
      <trkpt lat="42.58404" lon="0.75676">
        <ele>1442.58</ele>
        <time>2018-08-07T06:45:02Z</time>
      </trkpt>
      <trkpt lat="42.58383" lon="0.75658">
        <ele>1442.88</ele>
        <time>2018-08-07T06:45:03Z</time>
      </trkpt>
      <trkpt lat="42.58359" lon="0.75644">
        <ele>1442.97</ele>
        <time>2018-08-07T06:45:04Z</time>
      </trkpt>
      <trkpt lat="42.58335" lon="0.75632">
        <ele>1443.7</ele>
        <time>2018-08-07T06:45:05Z</time>
      </trkpt>
      <trkpt lat="42.58309" lon="0.75625">
        <ele>1443.91</ele>
        <time>2018-08-07T06:45:06Z</time>
      </trkpt>
      <trkpt lat="42.58283" lon="0.75621">
        <ele>1443.98</ele>
        <time>2018-08-07T06:45:07Z</time>
      </trkpt>
      <trkpt lat="42.58258" lon="0.75617">
        <ele>1443.3</ele>
        <time>2018-08-07T06:45:08Z</time>
      </trkpt>
      <trkpt lat="42.58232" lon="0.75615">
        <ele>1443.09</ele>
        <time>2018-08-07T06:45:09Z</time>
      </trkpt>
      <trkpt lat="42.58207" lon="0.75612">
        <ele>1442.33</ele>
        <time>2018-08-07T06:45:10Z</time>
      </trkpt>
      <trkpt lat="42.58181" lon="0.75611">
        <ele>1442.8</ele>
        <time>2018-08-07T06:45:11Z</time>
      </trkpt>
      <trkpt lat="42.58157" lon="0.75609">
        <ele>1442.95</ele>
        <time>2018-08-07T06:45:12Z</time>
      </trkpt>
      <trkpt lat="42.58133" lon="0.75608">
        <ele>1442.99</ele>
        <time>2018-08-07T06:45:13Z</time>
      </trkpt>
      <trkpt lat="42.58109" lon="0.75607">
        <ele>1443</ele>
        <time>2018-08-07T06:45:14Z</time>
      </trkpt>
      <trkpt lat="42.58087" lon="0.75607">
        <ele>1442.31</ele>
        <time>2018-08-07T06:45:15Z</time>
      </trkpt>
      <trkpt lat="42.58065" lon="0.75608">
        <ele>1441.4</ele>
        <time>2018-08-07T06:45:16Z</time>
      </trkpt>
      <trkpt lat="42.58043" lon="0.75612">
        <ele>1441.12</ele>
        <time>2018-08-07T06:45:17Z</time>
      </trkpt>
      <trkpt lat="42.5802" lon="0.75619">
        <ele>1440.34</ele>
        <time>2018-08-07T06:45:18Z</time>
      </trkpt>
      <trkpt lat="42.57999" lon="0.75627">
        <ele>1440.11</ele>
        <time>2018-08-07T06:45:19Z</time>
      </trkpt>
      <trkpt lat="42.57979" lon="0.75633">
        <ele>1440.04</ele>
        <time>2018-08-07T06:45:20Z</time>
      </trkpt>
      <trkpt lat="42.57959" lon="0.75637">
        <ele>1440.02</ele>
        <time>2018-08-07T06:45:21Z</time>
      </trkpt>
      <trkpt lat="42.57938" lon="0.75638">
        <ele>1440.01</ele>
        <time>2018-08-07T06:45:22Z</time>
      </trkpt>
      <trkpt lat="42.57918" lon="0.75639">
        <ele>1440.01</ele>
        <time>2018-08-07T06:45:23Z</time>
      </trkpt>
      <trkpt lat="42.57896" lon="0.75638">
        <ele>1440.01</ele>
        <time>2018-08-07T06:45:24Z</time>
      </trkpt>
      <trkpt lat="42.57874" lon="0.75638">
        <ele>1440.01</ele>
        <time>2018-08-07T06:45:25Z</time>
      </trkpt>
      <trkpt lat="42.57853" lon="0.75638">
        <ele>1440.01</ele>
        <time>2018-08-07T06:45:26Z</time>
      </trkpt>
      <trkpt lat="42.57657" lon="0.75626">
        <ele>1435.81</ele>
        <time>2018-08-07T06:45:34Z</time>
      </trkpt>
      <trkpt lat="42.57634" lon="0.75622">
        <ele>1433.15</ele>
        <time>2018-08-07T06:45:35Z</time>
      </trkpt>
      <trkpt lat="42.57609" lon="0.75627">
        <ele>1431.65</ele>
        <time>2018-08-07T06:45:36Z</time>
      </trkpt>
      <trkpt lat="42.57585" lon="0.75631">
        <ele>1430.5</ele>
        <time>2018-08-07T06:45:37Z</time>
      </trkpt>
      <trkpt lat="42.57561" lon="0.75633">
        <ele>1428.75</ele>
        <time>2018-08-07T06:45:38Z</time>
      </trkpt>
      <trkpt lat="42.57537" lon="0.75634">
        <ele>1427.53</ele>
        <time>2018-08-07T06:45:39Z</time>
      </trkpt>
      <trkpt lat="42.57513" lon="0.75636">
        <ele>1425.76</ele>
        <time>2018-08-07T06:45:40Z</time>
      </trkpt>
      <trkpt lat="42.57491" lon="0.75632">
        <ele>1423.13</ele>
        <time>2018-08-07T06:45:41Z</time>
      </trkpt>
      <trkpt lat="42.57467" lon="0.75628">
        <ele>1420.95</ele>
        <time>2018-08-07T06:45:42Z</time>
      </trkpt>
      <trkpt lat="42.57444" lon="0.75621">
        <ele>1418.19</ele>
        <time>2018-08-07T06:45:43Z</time>
      </trkpt>
      <trkpt lat="42.5742" lon="0.75614">
        <ele>1415.96</ele>
        <time>2018-08-07T06:45:44Z</time>
      </trkpt>
      <trkpt lat="42.57396" lon="0.75605">
        <ele>1413.89</ele>
        <time>2018-08-07T06:45:45Z</time>
      </trkpt>
      <trkpt lat="42.57373" lon="0.75597">
        <ele>1413.27</ele>
        <time>2018-08-07T06:45:46Z</time>
      </trkpt>
      <trkpt lat="42.5735" lon="0.75593">
        <ele>1412.39</ele>
        <time>2018-08-07T06:45:47Z</time>
      </trkpt>
      <trkpt lat="42.57328" lon="0.75586">
        <ele>1411.42</ele>
        <time>2018-08-07T06:45:48Z</time>
      </trkpt>
      <trkpt lat="42.57306" lon="0.7558">
        <ele>1411.13</ele>
        <time>2018-08-07T06:45:49Z</time>
      </trkpt>
      <trkpt lat="42.57283" lon="0.75574">
        <ele>1411.04</ele>
        <time>2018-08-07T06:45:50Z</time>
      </trkpt>
      <trkpt lat="42.57261" lon="0.75568">
        <ele>1410.32</ele>
        <time>2018-08-07T06:45:51Z</time>
      </trkpt>
      <trkpt lat="42.57238" lon="0.75562">
        <ele>1410.1</ele>
        <time>2018-08-07T06:45:52Z</time>
      </trkpt>
      <trkpt lat="42.57216" lon="0.75556">
        <ele>1410.04</ele>
        <time>2018-08-07T06:45:53Z</time>
      </trkpt>
      <trkpt lat="42.57194" lon="0.75551">
        <ele>1410.02</ele>
        <time>2018-08-07T06:45:54Z</time>
      </trkpt>
      <trkpt lat="42.57172" lon="0.75544">
        <ele>1409.31</ele>
        <time>2018-08-07T06:45:55Z</time>
      </trkpt>
      <trkpt lat="42.5706" lon="0.75502">
        <ele>1404.2</ele>
        <time>2018-08-07T06:46:00Z</time>
      </trkpt>
      <trkpt lat="42.57035" lon="0.75496">
        <ele>1400.56</ele>
        <time>2018-08-07T06:46:01Z</time>
      </trkpt>
      <trkpt lat="42.5701" lon="0.75488">
        <ele>1395.97</ele>
        <time>2018-08-07T06:46:02Z</time>
      </trkpt>
      <trkpt lat="42.56988" lon="0.75481">
        <ele>1391.1</ele>
        <time>2018-08-07T06:46:03Z</time>
      </trkpt>
      <trkpt lat="42.56965" lon="0.75472">
        <ele>1388.23</ele>
        <time>2018-08-07T06:46:04Z</time>
      </trkpt>
      <trkpt lat="42.56942" lon="0.75465">
        <ele>1385.28</ele>
        <time>2018-08-07T06:46:05Z</time>
      </trkpt>
      <trkpt lat="42.5692" lon="0.75459">
        <ele>1383.69</ele>
        <time>2018-08-07T06:46:06Z</time>
      </trkpt>
      <trkpt lat="42.56898" lon="0.75446">
        <ele>1382.51</ele>
        <time>2018-08-07T06:46:07Z</time>
      </trkpt>
      <trkpt lat="42.56875" lon="0.75437">
        <ele>1382.16</ele>
        <time>2018-08-07T06:46:08Z</time>
      </trkpt>
      <trkpt lat="42.56853" lon="0.75427">
        <ele>1382.05</ele>
        <time>2018-08-07T06:46:09Z</time>
      </trkpt>
      <trkpt lat="42.56713" lon="0.75259">
        <ele>1375.02</ele>
        <time>2018-08-07T06:46:17Z</time>
      </trkpt>
      <trkpt lat="42.56698" lon="0.75234">
        <ele>1369.41</ele>
        <time>2018-08-07T06:46:18Z</time>
      </trkpt>
      <trkpt lat="42.56681" lon="0.7521">
        <ele>1365.63</ele>
        <time>2018-08-07T06:46:19Z</time>
      </trkpt>
      <trkpt lat="42.56663" lon="0.75187">
        <ele>1362.39</ele>
        <time>2018-08-07T06:46:20Z</time>
      </trkpt>
      <trkpt lat="42.56645" lon="0.75164">
        <ele>1360.02</ele>
        <time>2018-08-07T06:46:21Z</time>
      </trkpt>
      <trkpt lat="42.56626" lon="0.75142">
        <ele>1357.21</ele>
        <time>2018-08-07T06:46:22Z</time>
      </trkpt>
      <trkpt lat="42.56605" lon="0.75125">
        <ele>1354.27</ele>
        <time>2018-08-07T06:46:23Z</time>
      </trkpt>
      <trkpt lat="42.56583" lon="0.75107">
        <ele>1352.69</ele>
        <time>2018-08-07T06:46:24Z</time>
      </trkpt>
      <trkpt lat="42.56561" lon="0.75089">
        <ele>1350.11</ele>
        <time>2018-08-07T06:46:25Z</time>
      </trkpt>
      <trkpt lat="42.56541" lon="0.75073">
        <ele>1347.94</ele>
        <time>2018-08-07T06:46:26Z</time>
      </trkpt>
      <trkpt lat="42.56519" lon="0.75056">
        <ele>1346.59</ele>
        <time>2018-08-07T06:46:27Z</time>
      </trkpt>
      <trkpt lat="42.56497" lon="0.7504">
        <ele>1344.78</ele>
        <time>2018-08-07T06:46:28Z</time>
      </trkpt>
      <trkpt lat="42.56477" lon="0.75024">
        <ele>1343.54</ele>
        <time>2018-08-07T06:46:29Z</time>
      </trkpt>
      <trkpt lat="42.56456" lon="0.75008">
        <ele>1341.77</ele>
        <time>2018-08-07T06:46:30Z</time>
      </trkpt>
      <trkpt lat="42.56435" lon="0.74993">
        <ele>1339.92</ele>
        <time>2018-08-07T06:46:31Z</time>
      </trkpt>
      <trkpt lat="42.5641" lon="0.74981">
        <ele>1337.27</ele>
        <time>2018-08-07T06:46:32Z</time>
      </trkpt>
      <trkpt lat="42.56386" lon="0.74971">
        <ele>1335.07</ele>
        <time>2018-08-07T06:46:33Z</time>
      </trkpt>
      <trkpt lat="42.56362" lon="0.74963">
        <ele>1333.01</ele>
        <time>2018-08-07T06:46:34Z</time>
      </trkpt>
      <trkpt lat="42.56337" lon="0.74959">
        <ele>1331.69</ele>
        <time>2018-08-07T06:46:35Z</time>
      </trkpt>
      <trkpt lat="42.56312" lon="0.74957">
        <ele>1329.2</ele>
        <time>2018-08-07T06:46:36Z</time>
      </trkpt>
      <trkpt lat="42.56287" lon="0.74956">
        <ele>1327.75</ele>
        <time>2018-08-07T06:46:37Z</time>
      </trkpt>
      <trkpt lat="42.56262" lon="0.74955">
        <ele>1325.92</ele>
        <time>2018-08-07T06:46:38Z</time>
      </trkpt>
      <trkpt lat="42.56238" lon="0.74953">
        <ele>1323.97</ele>
        <time>2018-08-07T06:46:39Z</time>
      </trkpt>
      <trkpt lat="42.56214" lon="0.74951">
        <ele>1321.98</ele>
        <time>2018-08-07T06:46:40Z</time>
      </trkpt>
      <trkpt lat="42.56189" lon="0.74948">
        <ele>1319.99</ele>
        <time>2018-08-07T06:46:41Z</time>
      </trkpt>
      <trkpt lat="42.56165" lon="0.74942">
        <ele>1317.99</ele>
        <time>2018-08-07T06:46:42Z</time>
      </trkpt>
      <trkpt lat="42.56142" lon="0.74935">
        <ele>1315.99</ele>
        <time>2018-08-07T06:46:43Z</time>
      </trkpt>
      <trkpt lat="42.5612" lon="0.74928">
        <ele>1313.99</ele>
        <time>2018-08-07T06:46:44Z</time>
      </trkpt>
      <trkpt lat="42.56098" lon="0.74921">
        <ele>1311.99</ele>
        <time>2018-08-07T06:46:45Z</time>
      </trkpt>
      <trkpt lat="42.56076" lon="0.74914">
        <ele>1310.69</ele>
        <time>2018-08-07T06:46:46Z</time>
      </trkpt>
      <trkpt lat="42.56054" lon="0.74906">
        <ele>1308.9</ele>
        <time>2018-08-07T06:46:47Z</time>
      </trkpt>
      <trkpt lat="42.56032" lon="0.74897">
        <ele>1307.66</ele>
        <time>2018-08-07T06:46:48Z</time>
      </trkpt>
      <trkpt lat="42.5601" lon="0.74888">
        <ele>1305.89</ele>
        <time>2018-08-07T06:46:49Z</time>
      </trkpt>
      <trkpt lat="42.55988" lon="0.74877">
        <ele>1304.66</ele>
        <time>2018-08-07T06:46:50Z</time>
      </trkpt>
      <trkpt lat="42.55967" lon="0.74864">
        <ele>1302.89</ele>
        <time>2018-08-07T06:46:51Z</time>
      </trkpt>
      <trkpt lat="42.55947" lon="0.74848">
        <ele>1301.66</ele>
        <time>2018-08-07T06:46:52Z</time>
      </trkpt>
      <trkpt lat="42.55928" lon="0.74829">
        <ele>1299.89</ele>
        <time>2018-08-07T06:46:53Z</time>
      </trkpt>
      <trkpt lat="42.5591" lon="0.7481">
        <ele>1298.66</ele>
        <time>2018-08-07T06:46:54Z</time>
      </trkpt>
      <trkpt lat="42.55891" lon="0.74791">
        <ele>1296.89</ele>
        <time>2018-08-07T06:46:55Z</time>
      </trkpt>
      <trkpt lat="42.55871" lon="0.74775">
        <ele>1294.96</ele>
        <time>2018-08-07T06:46:56Z</time>
      </trkpt>
      <trkpt lat="42.55849" lon="0.74764">
        <ele>1293.68</ele>
        <time>2018-08-07T06:46:57Z</time>
      </trkpt>
      <trkpt lat="42.55827" lon="0.74756">
        <ele>1292.59</ele>
        <time>2018-08-07T06:46:58Z</time>
      </trkpt>
      <trkpt lat="42.55804" lon="0.74752">
        <ele>1291.57</ele>
        <time>2018-08-07T06:46:59Z</time>
      </trkpt>
      <trkpt lat="42.55779" lon="0.74752">
        <ele>1290.56</ele>
        <time>2018-08-07T06:47:00Z</time>
      </trkpt>
      <trkpt lat="42.55754" lon="0.74753">
        <ele>1289.56</ele>
        <time>2018-08-07T06:47:01Z</time>
      </trkpt>
      <trkpt lat="42.55729" lon="0.74754">
        <ele>1288.56</ele>
        <time>2018-08-07T06:47:02Z</time>
      </trkpt>
      <trkpt lat="42.55703" lon="0.74756">
        <ele>1287.56</ele>
        <time>2018-08-07T06:47:03Z</time>
      </trkpt>
      <trkpt lat="42.55678" lon="0.74757">
        <ele>1287.26</ele>
        <time>2018-08-07T06:47:04Z</time>
      </trkpt>
      <trkpt lat="42.55653" lon="0.74757">
        <ele>1286.47</ele>
        <time>2018-08-07T06:47:05Z</time>
      </trkpt>
      <trkpt lat="42.55627" lon="0.74759">
        <ele>1285.53</ele>
        <time>2018-08-07T06:47:06Z</time>
      </trkpt>
      <trkpt lat="42.55602" lon="0.74762">
        <ele>1284.55</ele>
        <time>2018-08-07T06:47:07Z</time>
      </trkpt>
      <trkpt lat="42.55576" lon="0.74765">
        <ele>1283.56</ele>
        <time>2018-08-07T06:47:08Z</time>
      </trkpt>
      <trkpt lat="42.55551" lon="0.74765">
        <ele>1281.86</ele>
        <time>2018-08-07T06:47:09Z</time>
      </trkpt>
      <trkpt lat="42.55526" lon="0.74767">
        <ele>1279.25</ele>
        <time>2018-08-07T06:47:10Z</time>
      </trkpt>
      <trkpt lat="42.55501" lon="0.74772">
        <ele>1277.77</ele>
        <time>2018-08-07T06:47:11Z</time>
      </trkpt>
      <trkpt lat="42.55477" lon="0.74781">
        <ele>1276.62</ele>
        <time>2018-08-07T06:47:12Z</time>
      </trkpt>
      <trkpt lat="42.55453" lon="0.74795">
        <ele>1274.88</ele>
        <time>2018-08-07T06:47:13Z</time>
      </trkpt>
      <trkpt lat="42.5543" lon="0.74809">
        <ele>1273.65</ele>
        <time>2018-08-07T06:47:14Z</time>
      </trkpt>
      <trkpt lat="42.5541" lon="0.74825">
        <ele>1271.89</ele>
        <time>2018-08-07T06:47:15Z</time>
      </trkpt>
      <trkpt lat="42.55392" lon="0.7484">
        <ele>1270.66</ele>
        <time>2018-08-07T06:47:16Z</time>
      </trkpt>
      <trkpt lat="42.55373" lon="0.74855">
        <ele>1269.59</ele>
        <time>2018-08-07T06:47:17Z</time>
      </trkpt>
      <trkpt lat="42.55339" lon="0.74873">
        <ele>1269.17</ele>
        <time>2018-08-07T06:47:19Z</time>
      </trkpt>
      <trkpt lat="42.5532" lon="0.74882">
        <ele>1268.44</ele>
        <time>2018-08-07T06:47:20Z</time>
      </trkpt>
      <trkpt lat="42.55296" lon="0.74885">
        <ele>1266.82</ele>
        <time>2018-08-07T06:47:21Z</time>
      </trkpt>
      <trkpt lat="42.55277" lon="0.74884">
        <ele>1267.04</ele>
        <time>2018-08-07T06:47:22Z</time>
      </trkpt>
      <trkpt lat="42.55256" lon="0.74876">
        <ele>1267.1</ele>
        <time>2018-08-07T06:47:23Z</time>
      </trkpt>
      <trkpt lat="42.55235" lon="0.74867">
        <ele>1267.12</ele>
        <time>2018-08-07T06:47:24Z</time>
      </trkpt>
      <trkpt lat="42.55225" lon="0.74813">
        <ele>1261.53</ele>
        <time>2018-08-07T06:47:25Z</time>
      </trkpt>
      <trkpt lat="42.5521" lon="0.74788">
        <ele>1257.75</ele>
        <time>2018-08-07T06:47:26Z</time>
      </trkpt>
      <trkpt lat="42.55191" lon="0.74769">
        <ele>1255.22</ele>
        <time>2018-08-07T06:47:27Z</time>
      </trkpt>
      <trkpt lat="42.55173" lon="0.7475">
        <ele>1253.06</ele>
        <time>2018-08-07T06:47:28Z</time>
      </trkpt>
      <trkpt lat="42.55153" lon="0.7473">
        <ele>1251.01</ele>
        <time>2018-08-07T06:47:29Z</time>
      </trkpt>
      <trkpt lat="42.55134" lon="0.74711">
        <ele>1248.99</ele>
        <time>2018-08-07T06:47:30Z</time>
      </trkpt>
      <trkpt lat="42.55115" lon="0.74692">
        <ele>1247.69</ele>
        <time>2018-08-07T06:47:31Z</time>
      </trkpt>
      <trkpt lat="42.55097" lon="0.74672">
        <ele>1246.6</ele>
        <time>2018-08-07T06:47:32Z</time>
      </trkpt>
      <trkpt lat="42.55079" lon="0.74652">
        <ele>1245.57</ele>
        <time>2018-08-07T06:47:33Z</time>
      </trkpt>
      <trkpt lat="42.5507" lon="0.74623">
        <ele>1243.86</ele>
        <time>2018-08-07T06:47:34Z</time>
      </trkpt>
      <trkpt lat="42.55061" lon="0.74595">
        <ele>1241.25</ele>
        <time>2018-08-07T06:47:35Z</time>
      </trkpt>
      <trkpt lat="42.55052" lon="0.74568">
        <ele>1239.77</ele>
        <time>2018-08-07T06:47:36Z</time>
      </trkpt>
      <trkpt lat="42.55041" lon="0.74541">
        <ele>1237.92</ele>
        <time>2018-08-07T06:47:37Z</time>
      </trkpt>
      <trkpt lat="42.55028" lon="0.74517">
        <ele>1235.97</ele>
        <time>2018-08-07T06:47:38Z</time>
      </trkpt>
      <trkpt lat="42.5501" lon="0.74497">
        <ele>1234.68</ele>
        <time>2018-08-07T06:47:39Z</time>
      </trkpt>
      <trkpt lat="42.54992" lon="0.74477">
        <ele>1232.9</ele>
        <time>2018-08-07T06:47:40Z</time>
      </trkpt>
      <trkpt lat="42.54973" lon="0.7446">
        <ele>1230.96</ele>
        <time>2018-08-07T06:47:41Z</time>
      </trkpt>
      <trkpt lat="42.54954" lon="0.74444">
        <ele>1228.98</ele>
        <time>2018-08-07T06:47:42Z</time>
      </trkpt>
      <trkpt lat="42.54937" lon="0.74427">
        <ele>1226.98</ele>
        <time>2018-08-07T06:47:43Z</time>
      </trkpt>
      <trkpt lat="42.54921" lon="0.74409">
        <ele>1225.69</ele>
        <time>2018-08-07T06:47:44Z</time>
      </trkpt>
      <trkpt lat="42.54906" lon="0.7439">
        <ele>1224.6</ele>
        <time>2018-08-07T06:47:45Z</time>
      </trkpt>
      <trkpt lat="42.54892" lon="0.74371">
        <ele>1223.57</ele>
        <time>2018-08-07T06:47:46Z</time>
      </trkpt>
      <trkpt lat="42.54882" lon="0.74349">
        <ele>1223.26</ele>
        <time>2018-08-07T06:47:47Z</time>
      </trkpt>
      <trkpt lat="42.54889" lon="0.74314">
        <ele>1221.77</ele>
        <time>2018-08-07T06:47:48Z</time>
      </trkpt>
      <trkpt lat="42.54884" lon="0.74289">
        <ele>1220.62</ele>
        <time>2018-08-07T06:47:49Z</time>
      </trkpt>
      <trkpt lat="42.54878" lon="0.74265">
        <ele>1218.88</ele>
        <time>2018-08-07T06:47:50Z</time>
      </trkpt>
      <trkpt lat="42.54872" lon="0.74241">
        <ele>1217.65</ele>
        <time>2018-08-07T06:47:51Z</time>
      </trkpt>
      <trkpt lat="42.5485" lon="0.74204">
        <ele>1214.87</ele>
        <time>2018-08-07T06:47:53Z</time>
      </trkpt>
      <trkpt lat="42.5482" lon="0.74181">
        <ele>1212.59</ele>
        <time>2018-08-07T06:47:55Z</time>
      </trkpt>
      <trkpt lat="42.54802" lon="0.74175">
        <ele>1211.57</ele>
        <time>2018-08-07T06:47:56Z</time>
      </trkpt>
      <trkpt lat="42.54769" lon="0.74161">
        <ele>1209.56</ele>
        <time>2018-08-07T06:47:58Z</time>
      </trkpt>
      <trkpt lat="42.5475" lon="0.74155">
        <ele>1208.56</ele>
        <time>2018-08-07T06:47:59Z</time>
      </trkpt>
      <trkpt lat="42.54732" lon="0.74149">
        <ele>1208.26</ele>
        <time>2018-08-07T06:48:00Z</time>
      </trkpt>
      <trkpt lat="42.54699" lon="0.74132">
        <ele>1207.23</ele>
        <time>2018-08-07T06:48:02Z</time>
      </trkpt>
      <trkpt lat="42.54667" lon="0.74114">
        <ele>1206.23</ele>
        <time>2018-08-07T06:48:04Z</time>
      </trkpt>
      <trkpt lat="42.5462" lon="0.73856">
        <ele>1201.24</ele>
        <time>2018-08-07T06:48:14Z</time>
      </trkpt>
      <trkpt lat="42.54631" lon="0.73823">
        <ele>1197.66</ele>
        <time>2018-08-07T06:48:15Z</time>
      </trkpt>
      <trkpt lat="42.54642" lon="0.73788">
        <ele>1194.49</ele>
        <time>2018-08-07T06:48:16Z</time>
      </trkpt>
      <trkpt lat="42.54645" lon="0.73746">
        <ele>1192.14</ele>
        <time>2018-08-07T06:48:17Z</time>
      </trkpt>
      <trkpt lat="42.54645" lon="0.73707">
        <ele>1187.93</ele>
        <time>2018-08-07T06:48:18Z</time>
      </trkpt>
      <trkpt lat="42.54647" lon="0.73669">
        <ele>1183.87</ele>
        <time>2018-08-07T06:48:19Z</time>
      </trkpt>
      <trkpt lat="42.54648" lon="0.73632">
        <ele>1180.55</ele>
        <time>2018-08-07T06:48:20Z</time>
      </trkpt>
      <trkpt lat="42.54649" lon="0.73595">
        <ele>1177.46</ele>
        <time>2018-08-07T06:48:21Z</time>
      </trkpt>
      <trkpt lat="42.54649" lon="0.73559">
        <ele>1175.83</ele>
        <time>2018-08-07T06:48:22Z</time>
      </trkpt>
      <trkpt lat="42.54648" lon="0.73523">
        <ele>1173.24</ele>
        <time>2018-08-07T06:48:23Z</time>
      </trkpt>
      <trkpt lat="42.54644" lon="0.73488">
        <ele>1170.36</ele>
        <time>2018-08-07T06:48:24Z</time>
      </trkpt>
      <trkpt lat="42.54639" lon="0.73452">
        <ele>1168.1</ele>
        <time>2018-08-07T06:48:25Z</time>
      </trkpt>
      <trkpt lat="42.54631" lon="0.73417">
        <ele>1166.02</ele>
        <time>2018-08-07T06:48:26Z</time>
      </trkpt>
      <trkpt lat="42.54619" lon="0.73383">
        <ele>1163.3</ele>
        <time>2018-08-07T06:48:27Z</time>
      </trkpt>
      <trkpt lat="42.54607" lon="0.73346">
        <ele>1162.48</ele>
        <time>2018-08-07T06:48:28Z</time>
      </trkpt>
      <trkpt lat="42.54587" lon="0.73311">
        <ele>1160.14</ele>
        <time>2018-08-07T06:48:29Z</time>
      </trkpt>
      <trkpt lat="42.5457" lon="0.73276">
        <ele>1158.73</ele>
        <time>2018-08-07T06:48:30Z</time>
      </trkpt>
      <trkpt lat="42.54555" lon="0.73242">
        <ele>1156.21</ele>
        <time>2018-08-07T06:48:31Z</time>
      </trkpt>
      <trkpt lat="42.5454" lon="0.73209">
        <ele>1154.05</ele>
        <time>2018-08-07T06:48:32Z</time>
      </trkpt>
      <trkpt lat="42.54524" lon="0.73178">
        <ele>1152.71</ele>
        <time>2018-08-07T06:48:33Z</time>
      </trkpt>
      <trkpt lat="42.5451" lon="0.73148">
        <ele>1150.9</ele>
        <time>2018-08-07T06:48:34Z</time>
      </trkpt>
      <trkpt lat="42.54495" lon="0.7312">
        <ele>1148.96</ele>
        <time>2018-08-07T06:48:35Z</time>
      </trkpt>
      <trkpt lat="42.5448" lon="0.73094">
        <ele>1146.98</ele>
        <time>2018-08-07T06:48:36Z</time>
      </trkpt>
      <trkpt lat="42.5446" lon="0.73073">
        <ele>1145.68</ele>
        <time>2018-08-07T06:48:37Z</time>
      </trkpt>
      <trkpt lat="42.54438" lon="0.73054">
        <ele>1143.9</ele>
        <time>2018-08-07T06:48:38Z</time>
      </trkpt>
      <trkpt lat="42.54415" lon="0.73039">
        <ele>1141.96</ele>
        <time>2018-08-07T06:48:39Z</time>
      </trkpt>
      <trkpt lat="42.54392" lon="0.73023">
        <ele>1140.68</ele>
        <time>2018-08-07T06:48:40Z</time>
      </trkpt>
      <trkpt lat="42.54368" lon="0.73009">
        <ele>1139.59</ele>
        <time>2018-08-07T06:48:41Z</time>
      </trkpt>
      <trkpt lat="42.54343" lon="0.72995">
        <ele>1139.27</ele>
        <time>2018-08-07T06:48:42Z</time>
      </trkpt>
      <trkpt lat="42.54317" lon="0.72985">
        <ele>1138.47</ele>
        <time>2018-08-07T06:48:43Z</time>
      </trkpt>
      <trkpt lat="42.54291" lon="0.72972">
        <ele>1137.53</ele>
        <time>2018-08-07T06:48:44Z</time>
      </trkpt>
      <trkpt lat="42.54262" lon="0.72965">
        <ele>1136.55</ele>
        <time>2018-08-07T06:48:45Z</time>
      </trkpt>
      <trkpt lat="42.54236" lon="0.72956">
        <ele>1135.56</ele>
        <time>2018-08-07T06:48:46Z</time>
      </trkpt>
      <trkpt lat="42.54212" lon="0.72948">
        <ele>1134.56</ele>
        <time>2018-08-07T06:48:47Z</time>
      </trkpt>
      <trkpt lat="42.54186" lon="0.72943">
        <ele>1134.26</ele>
        <time>2018-08-07T06:48:48Z</time>
      </trkpt>
      <trkpt lat="42.5416" lon="0.72934">
        <ele>1133.47</ele>
        <time>2018-08-07T06:48:49Z</time>
      </trkpt>
      <trkpt lat="42.54139" lon="0.72917">
        <ele>1131.83</ele>
        <time>2018-08-07T06:48:50Z</time>
      </trkpt>
      <trkpt lat="42.54115" lon="0.72905">
        <ele>1130.64</ele>
        <time>2018-08-07T06:48:51Z</time>
      </trkpt>
      <trkpt lat="42.5409" lon="0.72891">
        <ele>1130.28</ele>
        <time>2018-08-07T06:48:52Z</time>
      </trkpt>
      <trkpt lat="42.54066" lon="0.72878">
        <ele>1129.48</ele>
        <time>2018-08-07T06:48:53Z</time>
      </trkpt>
      <trkpt lat="42.54042" lon="0.72864">
        <ele>1128.53</ele>
        <time>2018-08-07T06:48:54Z</time>
      </trkpt>
      <trkpt lat="42.54018" lon="0.72843">
        <ele>1123.35</ele>
        <time>2018-08-07T06:48:55Z</time>
      </trkpt>
      <trkpt lat="42.53998" lon="0.72823">
        <ele>1119</ele>
        <time>2018-08-07T06:48:56Z</time>
      </trkpt>
      <trkpt lat="42.53975" lon="0.72806">
        <ele>1116.29</ele>
        <time>2018-08-07T06:48:57Z</time>
      </trkpt>
      <trkpt lat="42.53952" lon="0.7279">
        <ele>1114.08</ele>
        <time>2018-08-07T06:48:58Z</time>
      </trkpt>
      <trkpt lat="42.53928" lon="0.72776">
        <ele>1111.31</ele>
        <time>2018-08-07T06:48:59Z</time>
      </trkpt>
      <trkpt lat="42.53904" lon="0.72764">
        <ele>1109.09</ele>
        <time>2018-08-07T06:49:00Z</time>
      </trkpt>
      <trkpt lat="42.5388" lon="0.72755">
        <ele>1107.02</ele>
        <time>2018-08-07T06:49:01Z</time>
      </trkpt>
      <trkpt lat="42.53856" lon="0.72749">
        <ele>1105</ele>
        <time>2018-08-07T06:49:02Z</time>
      </trkpt>
      <trkpt lat="42.53832" lon="0.72743">
        <ele>1103.69</ele>
        <time>2018-08-07T06:49:03Z</time>
      </trkpt>
      <trkpt lat="42.53808" lon="0.72739">
        <ele>1102.6</ele>
        <time>2018-08-07T06:49:04Z</time>
      </trkpt>
      <trkpt lat="42.53786" lon="0.72736">
        <ele>1102.27</ele>
        <time>2018-08-07T06:49:05Z</time>
      </trkpt>
      <trkpt lat="42.53765" lon="0.72733">
        <ele>1101.47</ele>
        <time>2018-08-07T06:49:06Z</time>
      </trkpt>
      <trkpt lat="42.53748" lon="0.72724">
        <ele>1099.83</ele>
        <time>2018-08-07T06:49:07Z</time>
      </trkpt>
      <trkpt lat="42.53731" lon="0.72714">
        <ele>1098.64</ele>
        <time>2018-08-07T06:49:08Z</time>
      </trkpt>
      <trkpt lat="42.53714" lon="0.72703">
        <ele>1097.58</ele>
        <time>2018-08-07T06:49:09Z</time>
      </trkpt>
      <trkpt lat="42.53696" lon="0.72688">
        <ele>1096.57</ele>
        <time>2018-08-07T06:49:10Z</time>
      </trkpt>
      <trkpt lat="42.53681" lon="0.72665">
        <ele>1095.56</ele>
        <time>2018-08-07T06:49:11Z</time>
      </trkpt>
      <trkpt lat="42.53678" lon="0.72633">
        <ele>1092.46</ele>
        <time>2018-08-07T06:49:12Z</time>
      </trkpt>
      <trkpt lat="42.53664" lon="0.72612">
        <ele>1090.13</ele>
        <time>2018-08-07T06:49:13Z</time>
      </trkpt>
      <trkpt lat="42.53649" lon="0.72594">
        <ele>1088.03</ele>
        <time>2018-08-07T06:49:14Z</time>
      </trkpt>
      <trkpt lat="42.53629" lon="0.72582">
        <ele>1086</ele>
        <time>2018-08-07T06:49:15Z</time>
      </trkpt>
      <trkpt lat="42.53606" lon="0.72576">
        <ele>1083.99</ele>
        <time>2018-08-07T06:49:16Z</time>
      </trkpt>
      <trkpt lat="42.53582" lon="0.72574">
        <ele>1081.29</ele>
        <time>2018-08-07T06:49:17Z</time>
      </trkpt>
      <trkpt lat="42.53559" lon="0.72571">
        <ele>1079.78</ele>
        <time>2018-08-07T06:49:18Z</time>
      </trkpt>
      <trkpt lat="42.53535" lon="0.7257">
        <ele>1077.92</ele>
        <time>2018-08-07T06:49:19Z</time>
      </trkpt>
      <trkpt lat="42.53514" lon="0.72566">
        <ele>1075.97</ele>
        <time>2018-08-07T06:49:20Z</time>
      </trkpt>
      <trkpt lat="42.53492" lon="0.72561">
        <ele>1074.68</ele>
        <time>2018-08-07T06:49:21Z</time>
      </trkpt>
      <trkpt lat="42.53474" lon="0.72545">
        <ele>1072.9</ele>
        <time>2018-08-07T06:49:22Z</time>
      </trkpt>
      <trkpt lat="42.53454" lon="0.7253">
        <ele>1071.66</ele>
        <time>2018-08-07T06:49:23Z</time>
      </trkpt>
      <trkpt lat="42.53435" lon="0.72509">
        <ele>1069.89</ele>
        <time>2018-08-07T06:49:24Z</time>
      </trkpt>
      <trkpt lat="42.53418" lon="0.72481">
        <ele>1069.36</ele>
        <time>2018-08-07T06:49:25Z</time>
      </trkpt>
      <trkpt lat="42.5341" lon="0.72447">
        <ele>1067.1</ele>
        <time>2018-08-07T06:49:26Z</time>
      </trkpt>
      <trkpt lat="42.53396" lon="0.72419">
        <ele>1064.32</ele>
        <time>2018-08-07T06:49:27Z</time>
      </trkpt>
      <trkpt lat="42.53382" lon="0.72392">
        <ele>1062.79</ele>
        <time>2018-08-07T06:49:28Z</time>
      </trkpt>
      <trkpt lat="42.53368" lon="0.72367">
        <ele>1060.23</ele>
        <time>2018-08-07T06:49:29Z</time>
      </trkpt>
      <trkpt lat="42.53355" lon="0.72345">
        <ele>1059.46</ele>
        <time>2018-08-07T06:49:30Z</time>
      </trkpt>
      <trkpt lat="42.53338" lon="0.72329">
        <ele>1058.53</ele>
        <time>2018-08-07T06:49:31Z</time>
      </trkpt>
      <trkpt lat="42.53313" lon="0.7232">
        <ele>1057.55</ele>
        <time>2018-08-07T06:49:32Z</time>
      </trkpt>
      <trkpt lat="42.53289" lon="0.72309">
        <ele>1056.56</ele>
        <time>2018-08-07T06:49:33Z</time>
      </trkpt>
      <trkpt lat="42.53265" lon="0.72298">
        <ele>1055.56</ele>
        <time>2018-08-07T06:49:34Z</time>
      </trkpt>
      <trkpt lat="42.53239" lon="0.72287">
        <ele>1055.26</ele>
        <time>2018-08-07T06:49:35Z</time>
      </trkpt>
      <trkpt lat="42.53214" lon="0.72276">
        <ele>1053.77</ele>
        <time>2018-08-07T06:49:36Z</time>
      </trkpt>
      <trkpt lat="42.53189" lon="0.72265">
        <ele>1052.62</ele>
        <time>2018-08-07T06:49:37Z</time>
      </trkpt>
      <trkpt lat="42.53164" lon="0.72254">
        <ele>1052.28</ele>
        <time>2018-08-07T06:49:38Z</time>
      </trkpt>
      <trkpt lat="42.5314" lon="0.72244">
        <ele>1050.77</ele>
        <time>2018-08-07T06:49:39Z</time>
      </trkpt>
      <trkpt lat="42.53115" lon="0.72234">
        <ele>1050.32</ele>
        <time>2018-08-07T06:49:40Z</time>
      </trkpt>
      <trkpt lat="42.53092" lon="0.72224">
        <ele>1049.49</ele>
        <time>2018-08-07T06:49:41Z</time>
      </trkpt>
      <trkpt lat="42.53068" lon="0.72214">
        <ele>1049.24</ele>
        <time>2018-08-07T06:49:42Z</time>
      </trkpt>
      <trkpt lat="42.53045" lon="0.72203">
        <ele>1048.46</ele>
        <time>2018-08-07T06:49:43Z</time>
      </trkpt>
      <trkpt lat="42.53021" lon="0.72193">
        <ele>1047.53</ele>
        <time>2018-08-07T06:49:44Z</time>
      </trkpt>
      <trkpt lat="42.52998" lon="0.72183">
        <ele>1046.55</ele>
        <time>2018-08-07T06:49:45Z</time>
      </trkpt>
      <trkpt lat="42.52974" lon="0.72172">
        <ele>1046.26</ele>
        <time>2018-08-07T06:49:46Z</time>
      </trkpt>
      <trkpt lat="42.5295" lon="0.72162">
        <ele>1044.77</ele>
        <time>2018-08-07T06:49:47Z</time>
      </trkpt>
      <trkpt lat="42.52925" lon="0.72151">
        <ele>1044.32</ele>
        <time>2018-08-07T06:49:48Z</time>
      </trkpt>
      <trkpt lat="42.52901" lon="0.7214">
        <ele>1044.19</ele>
        <time>2018-08-07T06:49:49Z</time>
      </trkpt>
      <trkpt lat="42.52877" lon="0.72129">
        <ele>1043.45</ele>
        <time>2018-08-07T06:49:50Z</time>
      </trkpt>
      <trkpt lat="42.52852" lon="0.72119">
        <ele>1042.53</ele>
        <time>2018-08-07T06:49:51Z</time>
      </trkpt>
      <trkpt lat="42.52827" lon="0.72109">
        <ele>1041.55</ele>
        <time>2018-08-07T06:49:52Z</time>
      </trkpt>
      <trkpt lat="42.52802" lon="0.72099">
        <ele>1041.26</ele>
        <time>2018-08-07T06:49:53Z</time>
      </trkpt>
      <trkpt lat="42.52777" lon="0.72089">
        <ele>1041.17</ele>
        <time>2018-08-07T06:49:54Z</time>
      </trkpt>
      <trkpt lat="42.52753" lon="0.72079">
        <ele>1040.44</ele>
        <time>2018-08-07T06:49:55Z</time>
      </trkpt>
      <trkpt lat="42.52728" lon="0.72068">
        <ele>1040.22</ele>
        <time>2018-08-07T06:49:56Z</time>
      </trkpt>
      <trkpt lat="42.52704" lon="0.72058">
        <ele>1039.46</ele>
        <time>2018-08-07T06:49:57Z</time>
      </trkpt>
      <trkpt lat="42.5268" lon="0.72048">
        <ele>1039.23</ele>
        <time>2018-08-07T06:49:58Z</time>
      </trkpt>
      <trkpt lat="42.52656" lon="0.72038">
        <ele>1037.76</ele>
        <time>2018-08-07T06:49:59Z</time>
      </trkpt>
      <trkpt lat="42.52633" lon="0.72028">
        <ele>1037.32</ele>
        <time>2018-08-07T06:50:00Z</time>
      </trkpt>
      <trkpt lat="42.52609" lon="0.72017">
        <ele>1037.19</ele>
        <time>2018-08-07T06:50:01Z</time>
      </trkpt>
      <trkpt lat="42.52586" lon="0.72008">
        <ele>1037.15</ele>
        <time>2018-08-07T06:50:02Z</time>
      </trkpt>
      <trkpt lat="42.52564" lon="0.72001">
        <ele>1037.14</ele>
        <time>2018-08-07T06:50:03Z</time>
      </trkpt>
      <trkpt lat="42.52541" lon="0.71998">
        <ele>1037.13</ele>
        <time>2018-08-07T06:50:04Z</time>
      </trkpt>
      <trkpt lat="42.52518" lon="0.72001">
        <ele>1036.43</ele>
        <time>2018-08-07T06:50:05Z</time>
      </trkpt>
      <trkpt lat="42.52495" lon="0.7201">
        <ele>1036.22</ele>
        <time>2018-08-07T06:50:06Z</time>
      </trkpt>
      <trkpt lat="42.52472" lon="0.72019">
        <ele>1036.16</ele>
        <time>2018-08-07T06:50:07Z</time>
      </trkpt>
      <trkpt lat="42.52449" lon="0.72034">
        <ele>1036.14</ele>
        <time>2018-08-07T06:50:08Z</time>
      </trkpt>
      <trkpt lat="42.52425" lon="0.72047">
        <ele>1035.43</ele>
        <time>2018-08-07T06:50:09Z</time>
      </trkpt>
      <trkpt lat="42.52402" lon="0.72059">
        <ele>1035.22</ele>
        <time>2018-08-07T06:50:10Z</time>
      </trkpt>
      <trkpt lat="42.52379" lon="0.72073">
        <ele>1035.16</ele>
        <time>2018-08-07T06:50:11Z</time>
      </trkpt>
      <trkpt lat="42.52355" lon="0.72086">
        <ele>1035.14</ele>
        <time>2018-08-07T06:50:12Z</time>
      </trkpt>
      <trkpt lat="42.52332" lon="0.721">
        <ele>1035.13</ele>
        <time>2018-08-07T06:50:13Z</time>
      </trkpt>
      <trkpt lat="42.52307" lon="0.72114">
        <ele>1035.13</ele>
        <time>2018-08-07T06:50:14Z</time>
      </trkpt>
      <trkpt lat="42.52282" lon="0.7213">
        <ele>1035.83</ele>
        <time>2018-08-07T06:50:15Z</time>
      </trkpt>
      <trkpt lat="42.52256" lon="0.72144">
        <ele>1036.74</ele>
        <time>2018-08-07T06:50:16Z</time>
      </trkpt>
      <trkpt lat="42.5223" lon="0.72156">
        <ele>1037.71</ele>
        <time>2018-08-07T06:50:17Z</time>
      </trkpt>
      <trkpt lat="42.52204" lon="0.7217">
        <ele>1038</ele>
        <time>2018-08-07T06:50:18Z</time>
      </trkpt>
      <trkpt lat="42.52179" lon="0.72184">
        <ele>1038.79</ele>
        <time>2018-08-07T06:50:19Z</time>
      </trkpt>
      <trkpt lat="42.52153" lon="0.72198">
        <ele>1039.03</ele>
        <time>2018-08-07T06:50:20Z</time>
      </trkpt>
      <trkpt lat="42.52128" lon="0.72212">
        <ele>1039.1</ele>
        <time>2018-08-07T06:50:21Z</time>
      </trkpt>
      <trkpt lat="42.52104" lon="0.72225">
        <ele>1038.42</ele>
        <time>2018-08-07T06:50:22Z</time>
      </trkpt>
      <trkpt lat="42.5208" lon="0.72238">
        <ele>1038.22</ele>
        <time>2018-08-07T06:50:23Z</time>
      </trkpt>
      <trkpt lat="42.52057" lon="0.7225">
        <ele>1038.16</ele>
        <time>2018-08-07T06:50:24Z</time>
      </trkpt>
      <trkpt lat="42.52033" lon="0.7226">
        <ele>1038.84</ele>
        <time>2018-08-07T06:50:25Z</time>
      </trkpt>
      <trkpt lat="42.52009" lon="0.72268">
        <ele>1037.64</ele>
        <time>2018-08-07T06:50:26Z</time>
      </trkpt>
      <trkpt lat="42.51985" lon="0.72272">
        <ele>1036.58</ele>
        <time>2018-08-07T06:50:27Z</time>
      </trkpt>
      <trkpt lat="42.5196" lon="0.72276">
        <ele>1035.57</ele>
        <time>2018-08-07T06:50:28Z</time>
      </trkpt>
      <trkpt lat="42.51935" lon="0.72281">
        <ele>1034.56</ele>
        <time>2018-08-07T06:50:29Z</time>
      </trkpt>
      <trkpt lat="42.51911" lon="0.72286">
        <ele>1033.56</ele>
        <time>2018-08-07T06:50:30Z</time>
      </trkpt>
      <trkpt lat="42.51887" lon="0.72291">
        <ele>1033.26</ele>
        <time>2018-08-07T06:50:31Z</time>
      </trkpt>
      <trkpt lat="42.51865" lon="0.72293">
        <ele>1032.47</ele>
        <time>2018-08-07T06:50:32Z</time>
      </trkpt>
      <trkpt lat="42.51845" lon="0.7229">
        <ele>1032.23</ele>
        <time>2018-08-07T06:50:33Z</time>
      </trkpt>
      <trkpt lat="42.51824" lon="0.72285">
        <ele>1030.76</ele>
        <time>2018-08-07T06:50:34Z</time>
      </trkpt>
      <trkpt lat="42.51802" lon="0.72277">
        <ele>1030.32</ele>
        <time>2018-08-07T06:50:35Z</time>
      </trkpt>
      <trkpt lat="42.51781" lon="0.72263">
        <ele>1030.19</ele>
        <time>2018-08-07T06:50:36Z</time>
      </trkpt>
      <trkpt lat="42.51762" lon="0.72236">
        <ele>1030.15</ele>
        <time>2018-08-07T06:50:37Z</time>
      </trkpt>
      <trkpt lat="42.51743" lon="0.72209">
        <ele>1030.14</ele>
        <time>2018-08-07T06:50:38Z</time>
      </trkpt>
      <trkpt lat="42.51722" lon="0.72185">
        <ele>1030.83</ele>
        <time>2018-08-07T06:50:39Z</time>
      </trkpt>
      <trkpt lat="42.51701" lon="0.72162">
        <ele>1031.04</ele>
        <time>2018-08-07T06:50:40Z</time>
      </trkpt>
      <trkpt lat="42.5168" lon="0.72139">
        <ele>1031.8</ele>
        <time>2018-08-07T06:50:41Z</time>
      </trkpt>
      <trkpt lat="42.51659" lon="0.72116">
        <ele>1031.33</ele>
        <time>2018-08-07T06:50:42Z</time>
      </trkpt>
      <trkpt lat="42.51638" lon="0.72094">
        <ele>1031.19</ele>
        <time>2018-08-07T06:50:43Z</time>
      </trkpt>
      <trkpt lat="42.51618" lon="0.72073">
        <ele>1031.15</ele>
        <time>2018-08-07T06:50:44Z</time>
      </trkpt>
      <trkpt lat="42.51598" lon="0.72053">
        <ele>1030.44</ele>
        <time>2018-08-07T06:50:45Z</time>
      </trkpt>
      <trkpt lat="42.51579" lon="0.72034">
        <ele>1029.52</ele>
        <time>2018-08-07T06:50:46Z</time>
      </trkpt>
      <trkpt lat="42.51559" lon="0.72016">
        <ele>1028.55</ele>
        <time>2018-08-07T06:50:47Z</time>
      </trkpt>
      <trkpt lat="42.51538" lon="0.72001">
        <ele>1027.56</ele>
        <time>2018-08-07T06:50:48Z</time>
      </trkpt>
      <trkpt lat="42.51516" lon="0.7199">
        <ele>1027.26</ele>
        <time>2018-08-07T06:50:49Z</time>
      </trkpt>
      <trkpt lat="42.51491" lon="0.71984">
        <ele>1026.47</ele>
        <time>2018-08-07T06:50:50Z</time>
      </trkpt>
      <trkpt lat="42.51466" lon="0.7198">
        <ele>1025.53</ele>
        <time>2018-08-07T06:50:51Z</time>
      </trkpt>
      <trkpt lat="42.51441" lon="0.71976">
        <ele>1024.55</ele>
        <time>2018-08-07T06:50:52Z</time>
      </trkpt>
      <trkpt lat="42.51415" lon="0.71974">
        <ele>1024.26</ele>
        <time>2018-08-07T06:50:53Z</time>
      </trkpt>
      <trkpt lat="42.51389" lon="0.71972">
        <ele>1023.47</ele>
        <time>2018-08-07T06:50:54Z</time>
      </trkpt>
      <trkpt lat="42.51365" lon="0.71969">
        <ele>1022.53</ele>
        <time>2018-08-07T06:50:55Z</time>
      </trkpt>
      <trkpt lat="42.5134" lon="0.71964">
        <ele>1022.25</ele>
        <time>2018-08-07T06:50:56Z</time>
      </trkpt>
      <trkpt lat="42.51318" lon="0.71953">
        <ele>1022.17</ele>
        <time>2018-08-07T06:50:57Z</time>
      </trkpt>
      <trkpt lat="42.51295" lon="0.71942">
        <ele>1022.14</ele>
        <time>2018-08-07T06:50:58Z</time>
      </trkpt>
      <trkpt lat="42.51271" lon="0.71928">
        <ele>1022.13</ele>
        <time>2018-08-07T06:50:59Z</time>
      </trkpt>
      <trkpt lat="42.51251" lon="0.71906">
        <ele>1021.43</ele>
        <time>2018-08-07T06:51:00Z</time>
      </trkpt>
      <trkpt lat="42.51241" lon="0.71876">
        <ele>1021.92</ele>
        <time>2018-08-07T06:51:01Z</time>
      </trkpt>
      <trkpt lat="42.51224" lon="0.71854">
        <ele>1022.77</ele>
        <time>2018-08-07T06:51:02Z</time>
      </trkpt>
      <trkpt lat="42.51206" lon="0.71836">
        <ele>1023.72</ele>
        <time>2018-08-07T06:51:03Z</time>
      </trkpt>
      <trkpt lat="42.51187" lon="0.71823">
        <ele>1024.01</ele>
        <time>2018-08-07T06:51:04Z</time>
      </trkpt>
      <trkpt lat="42.51166" lon="0.71816">
        <ele>1025.49</ele>
        <time>2018-08-07T06:51:05Z</time>
      </trkpt>
      <trkpt lat="42.51144" lon="0.71814">
        <ele>1027.34</ele>
        <time>2018-08-07T06:51:06Z</time>
      </trkpt>
      <trkpt lat="42.51123" lon="0.71815">
        <ele>1027.89</ele>
        <time>2018-08-07T06:51:07Z</time>
      </trkpt>
      <trkpt lat="42.51101" lon="0.71819">
        <ele>1028.06</ele>
        <time>2018-08-07T06:51:08Z</time>
      </trkpt>
      <trkpt lat="42.51078" lon="0.71827">
        <ele>1028.11</ele>
        <time>2018-08-07T06:51:09Z</time>
      </trkpt>
      <trkpt lat="42.51056" lon="0.71833">
        <ele>1028.12</ele>
        <time>2018-08-07T06:51:10Z</time>
      </trkpt>
      <trkpt lat="42.51033" lon="0.71839">
        <ele>1028.13</ele>
        <time>2018-08-07T06:51:11Z</time>
      </trkpt>
      <trkpt lat="42.51011" lon="0.71845">
        <ele>1026.73</ele>
        <time>2018-08-07T06:51:12Z</time>
      </trkpt>
      <trkpt lat="42.50988" lon="0.71849">
        <ele>1025.61</ele>
        <time>2018-08-07T06:51:13Z</time>
      </trkpt>
      <trkpt lat="42.50965" lon="0.71851">
        <ele>1023.87</ele>
        <time>2018-08-07T06:51:14Z</time>
      </trkpt>
      <trkpt lat="42.50941" lon="0.71849">
        <ele>1022.65</ele>
        <time>2018-08-07T06:51:15Z</time>
      </trkpt>
      <trkpt lat="42.50917" lon="0.71846">
        <ele>1021.59</ele>
        <time>2018-08-07T06:51:16Z</time>
      </trkpt>
      <trkpt lat="42.50891" lon="0.71843">
        <ele>1020.57</ele>
        <time>2018-08-07T06:51:17Z</time>
      </trkpt>
      <trkpt lat="42.50866" lon="0.7184">
        <ele>1019.56</ele>
        <time>2018-08-07T06:51:18Z</time>
      </trkpt>
      <trkpt lat="42.5084" lon="0.71837">
        <ele>1017.86</ele>
        <time>2018-08-07T06:51:19Z</time>
      </trkpt>
      <trkpt lat="42.50814" lon="0.71834">
        <ele>1016.65</ele>
        <time>2018-08-07T06:51:20Z</time>
      </trkpt>
      <trkpt lat="42.50789" lon="0.71831">
        <ele>1016.29</ele>
        <time>2018-08-07T06:51:21Z</time>
      </trkpt>
      <trkpt lat="42.50763" lon="0.71828">
        <ele>1015.48</ele>
        <time>2018-08-07T06:51:22Z</time>
      </trkpt>
      <trkpt lat="42.50738" lon="0.71825">
        <ele>1015.23</ele>
        <time>2018-08-07T06:51:23Z</time>
      </trkpt>
      <trkpt lat="42.50714" lon="0.71823">
        <ele>1014.46</ele>
        <time>2018-08-07T06:51:24Z</time>
      </trkpt>
      <trkpt lat="42.50688" lon="0.7182">
        <ele>1014.23</ele>
        <time>2018-08-07T06:51:25Z</time>
      </trkpt>
      <trkpt lat="42.50664" lon="0.71816">
        <ele>1013.46</ele>
        <time>2018-08-07T06:51:26Z</time>
      </trkpt>
      <trkpt lat="42.50639" lon="0.7181">
        <ele>1011.83</ele>
        <time>2018-08-07T06:51:27Z</time>
      </trkpt>
      <trkpt lat="42.50617" lon="0.71802">
        <ele>1010.64</ele>
        <time>2018-08-07T06:51:28Z</time>
      </trkpt>
      <trkpt lat="42.50598" lon="0.71788">
        <ele>1010.98</ele>
        <time>2018-08-07T06:51:29Z</time>
      </trkpt>
      <trkpt lat="42.50579" lon="0.71771">
        <ele>1011.79</ele>
        <time>2018-08-07T06:51:30Z</time>
      </trkpt>
      <trkpt lat="42.50559" lon="0.7175">
        <ele>1011.33</ele>
        <time>2018-08-07T06:51:31Z</time>
      </trkpt>
      <trkpt lat="42.50552" lon="0.71717">
        <ele>1010.49</ele>
        <time>2018-08-07T06:51:32Z</time>
      </trkpt>
      <trkpt lat="42.50536" lon="0.71693">
        <ele>1010.24</ele>
        <time>2018-08-07T06:51:33Z</time>
      </trkpt>
      <trkpt lat="42.50521" lon="0.71669">
        <ele>1010.16</ele>
        <time>2018-08-07T06:51:34Z</time>
      </trkpt>
      <trkpt lat="42.50508" lon="0.71645">
        <ele>1009.44</ele>
        <time>2018-08-07T06:51:35Z</time>
      </trkpt>
      <trkpt lat="42.50494" lon="0.71623">
        <ele>1009.22</ele>
        <time>2018-08-07T06:51:36Z</time>
      </trkpt>
      <trkpt lat="42.50479" lon="0.71603">
        <ele>1008.46</ele>
        <time>2018-08-07T06:51:37Z</time>
      </trkpt>
      <trkpt lat="42.50464" lon="0.71585">
        <ele>1008.93</ele>
        <time>2018-08-07T06:51:38Z</time>
      </trkpt>
      <trkpt lat="42.50449" lon="0.71572">
        <ele>1009.07</ele>
        <time>2018-08-07T06:51:39Z</time>
      </trkpt>
      <trkpt lat="42.50416" lon="0.71558">
        <ele>1009.12</ele>
        <time>2018-08-07T06:51:41Z</time>
      </trkpt>
      <trkpt lat="42.50382" lon="0.7156">
        <ele>1008.43</ele>
        <time>2018-08-07T06:51:43Z</time>
      </trkpt>
      <trkpt lat="42.5036" lon="0.71586">
        <ele>1006.82</ele>
        <time>2018-08-07T06:51:44Z</time>
      </trkpt>
      <trkpt lat="42.50341" lon="0.71601">
        <ele>1005.64</ele>
        <time>2018-08-07T06:51:45Z</time>
      </trkpt>
      <trkpt lat="42.50321" lon="0.71615">
        <ele>1003.88</ele>
        <time>2018-08-07T06:51:46Z</time>
      </trkpt>
      <trkpt lat="42.50301" lon="0.71628">
        <ele>1002.66</ele>
        <time>2018-08-07T06:51:47Z</time>
      </trkpt>
      <trkpt lat="42.50281" lon="0.71638">
        <ele>1002.29</ele>
        <time>2018-08-07T06:51:48Z</time>
      </trkpt>
      <trkpt lat="42.50259" lon="0.71646">
        <ele>1000.78</ele>
        <time>2018-08-07T06:51:49Z</time>
      </trkpt>
      <trkpt lat="42.50234" lon="0.71654">
        <ele>1000.32</ele>
        <time>2018-08-07T06:51:50Z</time>
      </trkpt>
      <trkpt lat="42.50208" lon="0.71663">
        <ele>999.49</ele>
        <time>2018-08-07T06:51:51Z</time>
      </trkpt>
      <trkpt lat="42.50181" lon="0.71669">
        <ele>998.54</ele>
        <time>2018-08-07T06:51:52Z</time>
      </trkpt>
      <trkpt lat="42.50154" lon="0.71674">
        <ele>998.25</ele>
        <time>2018-08-07T06:51:53Z</time>
      </trkpt>
      <trkpt lat="42.50128" lon="0.71681">
        <ele>998.17</ele>
        <time>2018-08-07T06:51:54Z</time>
      </trkpt>
      <trkpt lat="42.50102" lon="0.71688">
        <ele>997.44</ele>
        <time>2018-08-07T06:51:55Z</time>
      </trkpt>
      <trkpt lat="42.50076" lon="0.71694">
        <ele>996.52</ele>
        <time>2018-08-07T06:51:56Z</time>
      </trkpt>
      <trkpt lat="42.5005" lon="0.71701">
        <ele>996.25</ele>
        <time>2018-08-07T06:51:57Z</time>
      </trkpt>
      <trkpt lat="42.50024" lon="0.71707">
        <ele>996.17</ele>
        <time>2018-08-07T06:51:58Z</time>
      </trkpt>
      <trkpt lat="42.49999" lon="0.71715">
        <ele>995.44</ele>
        <time>2018-08-07T06:51:59Z</time>
      </trkpt>
      <trkpt lat="42.49974" lon="0.71722">
        <ele>994.52</ele>
        <time>2018-08-07T06:52:00Z</time>
      </trkpt>
      <trkpt lat="42.4995" lon="0.71728">
        <ele>994.25</ele>
        <time>2018-08-07T06:52:01Z</time>
      </trkpt>
      <trkpt lat="42.49926" lon="0.71735">
        <ele>994.17</ele>
        <time>2018-08-07T06:52:02Z</time>
      </trkpt>
      <trkpt lat="42.49902" lon="0.71741">
        <ele>994.14</ele>
        <time>2018-08-07T06:52:03Z</time>
      </trkpt>
      <trkpt lat="42.49878" lon="0.71747">
        <ele>994.83</ele>
        <time>2018-08-07T06:52:04Z</time>
      </trkpt>
      <trkpt lat="42.49854" lon="0.71752">
        <ele>995.04</ele>
        <time>2018-08-07T06:52:05Z</time>
      </trkpt>
      <trkpt lat="42.49829" lon="0.71756">
        <ele>995.1</ele>
        <time>2018-08-07T06:52:06Z</time>
      </trkpt>
      <trkpt lat="42.49804" lon="0.71757">
        <ele>995.12</ele>
        <time>2018-08-07T06:52:07Z</time>
      </trkpt>
      <trkpt lat="42.49779" lon="0.71758">
        <ele>995.13</ele>
        <time>2018-08-07T06:52:08Z</time>
      </trkpt>
      <trkpt lat="42.49755" lon="0.71761">
        <ele>995.13</ele>
        <time>2018-08-07T06:52:09Z</time>
      </trkpt>
      <trkpt lat="42.4973" lon="0.71763">
        <ele>995.13</ele>
        <time>2018-08-07T06:52:10Z</time>
      </trkpt>
      <trkpt lat="42.49706" lon="0.71765">
        <ele>994.43</ele>
        <time>2018-08-07T06:52:11Z</time>
      </trkpt>
      <trkpt lat="42.49681" lon="0.71767">
        <ele>994.92</ele>
        <time>2018-08-07T06:52:12Z</time>
      </trkpt>
      <trkpt lat="42.49656" lon="0.71768">
        <ele>995.07</ele>
        <time>2018-08-07T06:52:13Z</time>
      </trkpt>
      <trkpt lat="42.4963" lon="0.71769">
        <ele>995.11</ele>
        <time>2018-08-07T06:52:14Z</time>
      </trkpt>
      <trkpt lat="42.49604" lon="0.71771">
        <ele>995.12</ele>
        <time>2018-08-07T06:52:15Z</time>
      </trkpt>
      <trkpt lat="42.49579" lon="0.71773">
        <ele>995.13</ele>
        <time>2018-08-07T06:52:16Z</time>
      </trkpt>
      <trkpt lat="42.49554" lon="0.71777">
        <ele>994.43</ele>
        <time>2018-08-07T06:52:17Z</time>
      </trkpt>
      <trkpt lat="42.49529" lon="0.71779">
        <ele>993.52</ele>
        <time>2018-08-07T06:52:18Z</time>
      </trkpt>
      <trkpt lat="42.49504" lon="0.71781">
        <ele>993.25</ele>
        <time>2018-08-07T06:52:19Z</time>
      </trkpt>
      <trkpt lat="42.4948" lon="0.71783">
        <ele>993.17</ele>
        <time>2018-08-07T06:52:20Z</time>
      </trkpt>
      <trkpt lat="42.49454" lon="0.71784">
        <ele>993.84</ele>
        <time>2018-08-07T06:52:21Z</time>
      </trkpt>
      <trkpt lat="42.49429" lon="0.71785">
        <ele>994.04</ele>
        <time>2018-08-07T06:52:22Z</time>
      </trkpt>
      <trkpt lat="42.49405" lon="0.71788">
        <ele>994.1</ele>
        <time>2018-08-07T06:52:23Z</time>
      </trkpt>
      <trkpt lat="42.4938" lon="0.71794">
        <ele>994.12</ele>
        <time>2018-08-07T06:52:24Z</time>
      </trkpt>
      <trkpt lat="42.49357" lon="0.71802">
        <ele>994.13</ele>
        <time>2018-08-07T06:52:25Z</time>
      </trkpt>
      <trkpt lat="42.49333" lon="0.71811">
        <ele>994.83</ele>
        <time>2018-08-07T06:52:26Z</time>
      </trkpt>
      <trkpt lat="42.49309" lon="0.7182">
        <ele>995.04</ele>
        <time>2018-08-07T06:52:27Z</time>
      </trkpt>
      <trkpt lat="42.49284" lon="0.71826">
        <ele>995.1</ele>
        <time>2018-08-07T06:52:28Z</time>
      </trkpt>
      <trkpt lat="42.49259" lon="0.71828">
        <ele>995.12</ele>
        <time>2018-08-07T06:52:29Z</time>
      </trkpt>
      <trkpt lat="42.49234" lon="0.71828">
        <ele>995.13</ele>
        <time>2018-08-07T06:52:30Z</time>
      </trkpt>
      <trkpt lat="42.49208" lon="0.71827">
        <ele>995.13</ele>
        <time>2018-08-07T06:52:31Z</time>
      </trkpt>
      <trkpt lat="42.49182" lon="0.71827">
        <ele>994.43</ele>
        <time>2018-08-07T06:52:32Z</time>
      </trkpt>
      <trkpt lat="42.49157" lon="0.71827">
        <ele>994.22</ele>
        <time>2018-08-07T06:52:33Z</time>
      </trkpt>
      <trkpt lat="42.49131" lon="0.71827">
        <ele>994.86</ele>
        <time>2018-08-07T06:52:34Z</time>
      </trkpt>
      <trkpt lat="42.49106" lon="0.71827">
        <ele>995.05</ele>
        <time>2018-08-07T06:52:35Z</time>
      </trkpt>
      <trkpt lat="42.4908" lon="0.71826">
        <ele>995.11</ele>
        <time>2018-08-07T06:52:36Z</time>
      </trkpt>
      <trkpt lat="42.49054" lon="0.71832">
        <ele>995.12</ele>
        <time>2018-08-07T06:52:37Z</time>
      </trkpt>
      <trkpt lat="42.49028" lon="0.71837">
        <ele>995.13</ele>
        <time>2018-08-07T06:52:38Z</time>
      </trkpt>
      <trkpt lat="42.49002" lon="0.71843">
        <ele>995.13</ele>
        <time>2018-08-07T06:52:39Z</time>
      </trkpt>
      <trkpt lat="42.48977" lon="0.71848">
        <ele>995.13</ele>
        <time>2018-08-07T06:52:40Z</time>
      </trkpt>
      <trkpt lat="42.48951" lon="0.71853">
        <ele>995.13</ele>
        <time>2018-08-07T06:52:41Z</time>
      </trkpt>
      <trkpt lat="42.48925" lon="0.71854">
        <ele>995.13</ele>
        <time>2018-08-07T06:52:42Z</time>
      </trkpt>
      <trkpt lat="42.48899" lon="0.71852">
        <ele>995.13</ele>
        <time>2018-08-07T06:52:43Z</time>
      </trkpt>
      <trkpt lat="42.48874" lon="0.7185">
        <ele>994.43</ele>
        <time>2018-08-07T06:52:44Z</time>
      </trkpt>
      <trkpt lat="42.48848" lon="0.71848">
        <ele>994.22</ele>
        <time>2018-08-07T06:52:45Z</time>
      </trkpt>
      <trkpt lat="42.48823" lon="0.71845">
        <ele>994.16</ele>
        <time>2018-08-07T06:52:46Z</time>
      </trkpt>
      <trkpt lat="42.48799" lon="0.71839">
        <ele>994.14</ele>
        <time>2018-08-07T06:52:47Z</time>
      </trkpt>
      <trkpt lat="42.48774" lon="0.71832">
        <ele>994.13</ele>
        <time>2018-08-07T06:52:48Z</time>
      </trkpt>
      <trkpt lat="42.4875" lon="0.71823">
        <ele>994.13</ele>
        <time>2018-08-07T06:52:49Z</time>
      </trkpt>
      <trkpt lat="42.48726" lon="0.71816">
        <ele>993.43</ele>
        <time>2018-08-07T06:52:50Z</time>
      </trkpt>
      <trkpt lat="42.48702" lon="0.71807">
        <ele>993.92</ele>
        <time>2018-08-07T06:52:51Z</time>
      </trkpt>
      <trkpt lat="42.48679" lon="0.718">
        <ele>994.07</ele>
        <time>2018-08-07T06:52:52Z</time>
      </trkpt>
      <trkpt lat="42.48656" lon="0.71793">
        <ele>993.41</ele>
        <time>2018-08-07T06:52:53Z</time>
      </trkpt>
      <trkpt lat="42.48634" lon="0.71787">
        <ele>993.91</ele>
        <time>2018-08-07T06:52:54Z</time>
      </trkpt>
      <trkpt lat="42.48613" lon="0.71783">
        <ele>994.07</ele>
        <time>2018-08-07T06:52:55Z</time>
      </trkpt>
      <trkpt lat="42.48593" lon="0.71784">
        <ele>994.11</ele>
        <time>2018-08-07T06:52:56Z</time>
      </trkpt>
      <trkpt lat="42.48573" lon="0.71789">
        <ele>994.12</ele>
        <time>2018-08-07T06:52:57Z</time>
      </trkpt>
      <trkpt lat="42.48552" lon="0.71796">
        <ele>993.43</ele>
        <time>2018-08-07T06:52:58Z</time>
      </trkpt>
      <trkpt lat="42.4853" lon="0.71804">
        <ele>993.22</ele>
        <time>2018-08-07T06:52:59Z</time>
      </trkpt>
      <trkpt lat="42.48507" lon="0.71812">
        <ele>993.16</ele>
        <time>2018-08-07T06:53:00Z</time>
      </trkpt>
      <trkpt lat="42.48484" lon="0.71824">
        <ele>993.14</ele>
        <time>2018-08-07T06:53:01Z</time>
      </trkpt>
      <trkpt lat="42.4846" lon="0.71835">
        <ele>992.43</ele>
        <time>2018-08-07T06:53:02Z</time>
      </trkpt>
      <trkpt lat="42.48437" lon="0.71844">
        <ele>992.22</ele>
        <time>2018-08-07T06:53:03Z</time>
      </trkpt>
      <trkpt lat="42.48413" lon="0.71855">
        <ele>991.46</ele>
        <time>2018-08-07T06:53:04Z</time>
      </trkpt>
      <trkpt lat="42.48389" lon="0.71864">
        <ele>991.23</ele>
        <time>2018-08-07T06:53:05Z</time>
      </trkpt>
      <trkpt lat="42.48366" lon="0.71874">
        <ele>990.46</ele>
        <time>2018-08-07T06:53:06Z</time>
      </trkpt>
      <trkpt lat="42.48344" lon="0.71884">
        <ele>990.23</ele>
        <time>2018-08-07T06:53:07Z</time>
      </trkpt>
      <trkpt lat="42.48322" lon="0.7189">
        <ele>989.46</ele>
        <time>2018-08-07T06:53:08Z</time>
      </trkpt>
      <trkpt lat="42.48298" lon="0.71893">
        <ele>988.53</ele>
        <time>2018-08-07T06:53:09Z</time>
      </trkpt>
      <trkpt lat="42.48274" lon="0.71893">
        <ele>988.25</ele>
        <time>2018-08-07T06:53:10Z</time>
      </trkpt>
      <trkpt lat="42.4825" lon="0.71891">
        <ele>988.17</ele>
        <time>2018-08-07T06:53:11Z</time>
      </trkpt>
      <trkpt lat="42.48226" lon="0.71889">
        <ele>988.84</ele>
        <time>2018-08-07T06:53:12Z</time>
      </trkpt>
      <trkpt lat="42.48201" lon="0.71887">
        <ele>989.04</ele>
        <time>2018-08-07T06:53:13Z</time>
      </trkpt>
      <trkpt lat="42.48176" lon="0.71886">
        <ele>989.1</ele>
        <time>2018-08-07T06:53:14Z</time>
      </trkpt>
      <trkpt lat="42.48152" lon="0.71884">
        <ele>989.12</ele>
        <time>2018-08-07T06:53:15Z</time>
      </trkpt>
      <trkpt lat="42.48127" lon="0.71882">
        <ele>989.83</ele>
        <time>2018-08-07T06:53:16Z</time>
      </trkpt>
      <trkpt lat="42.48104" lon="0.71881">
        <ele>989.34</ele>
        <time>2018-08-07T06:53:17Z</time>
      </trkpt>
      <trkpt lat="42.4808" lon="0.71879">
        <ele>989.19</ele>
        <time>2018-08-07T06:53:18Z</time>
      </trkpt>
      <trkpt lat="42.48057" lon="0.71877">
        <ele>989.15</ele>
        <time>2018-08-07T06:53:19Z</time>
      </trkpt>
      <trkpt lat="42.48035" lon="0.71875">
        <ele>989.14</ele>
        <time>2018-08-07T06:53:20Z</time>
      </trkpt>
      <trkpt lat="42.48013" lon="0.71874">
        <ele>989.13</ele>
        <time>2018-08-07T06:53:21Z</time>
      </trkpt>
      <trkpt lat="42.47993" lon="0.71872">
        <ele>989.13</ele>
        <time>2018-08-07T06:53:22Z</time>
      </trkpt>
      <trkpt lat="42.47974" lon="0.71871">
        <ele>989.13</ele>
        <time>2018-08-07T06:53:23Z</time>
      </trkpt>
      <trkpt lat="42.47943" lon="0.71869">
        <ele>989.13</ele>
        <time>2018-08-07T06:53:25Z</time>
      </trkpt>
      <trkpt lat="42.47915" lon="0.71868">
        <ele>988.22</ele>
        <time>2018-08-07T06:53:27Z</time>
      </trkpt>
      <trkpt lat="42.47887" lon="0.71866">
        <ele>988.14</ele>
        <time>2018-08-07T06:53:29Z</time>
      </trkpt>
      <trkpt lat="42.4786" lon="0.71864">
        <ele>988.13</ele>
        <time>2018-08-07T06:53:31Z</time>
      </trkpt>
      <trkpt lat="42.47834" lon="0.71855">
        <ele>988.13</ele>
        <time>2018-08-07T06:53:33Z</time>
      </trkpt>
      <trkpt lat="42.4781" lon="0.71841">
        <ele>987.22</ele>
        <time>2018-08-07T06:53:35Z</time>
      </trkpt>
      <trkpt lat="42.47785" lon="0.71825">
        <ele>986.23</ele>
        <time>2018-08-07T06:53:37Z</time>
      </trkpt>
      <trkpt lat="42.47761" lon="0.7181">
        <ele>986.14</ele>
        <time>2018-08-07T06:53:39Z</time>
      </trkpt>
      <trkpt lat="42.47738" lon="0.71797">
        <ele>985.43</ele>
        <time>2018-08-07T06:53:41Z</time>
      </trkpt>
      <trkpt lat="42.47717" lon="0.71784">
        <ele>985.16</ele>
        <time>2018-08-07T06:53:43Z</time>
      </trkpt>
      <trkpt lat="42.47696" lon="0.71772">
        <ele>984.43</ele>
        <time>2018-08-07T06:53:45Z</time>
      </trkpt>
      <trkpt lat="42.47676" lon="0.71758">
        <ele>984.16</ele>
        <time>2018-08-07T06:53:47Z</time>
      </trkpt>
      <trkpt lat="42.47657" lon="0.71745">
        <ele>984.13</ele>
        <time>2018-08-07T06:53:49Z</time>
      </trkpt>
      <trkpt lat="42.47635" lon="0.71733">
        <ele>984.13</ele>
        <time>2018-08-07T06:53:51Z</time>
      </trkpt>
      <trkpt lat="42.47613" lon="0.71722">
        <ele>984.13</ele>
        <time>2018-08-07T06:53:53Z</time>
      </trkpt>
      <trkpt lat="42.47588" lon="0.71713">
        <ele>984.83</ele>
        <time>2018-08-07T06:53:55Z</time>
      </trkpt>
      <trkpt lat="42.47566" lon="0.71703">
        <ele>985.1</ele>
        <time>2018-08-07T06:53:57Z</time>
      </trkpt>
      <trkpt lat="42.47545" lon="0.71695">
        <ele>984.22</ele>
        <time>2018-08-07T06:53:59Z</time>
      </trkpt>
      <trkpt lat="42.47525" lon="0.71688">
        <ele>984.14</ele>
        <time>2018-08-07T06:54:01Z</time>
      </trkpt>
      <trkpt lat="42.47506" lon="0.71678">
        <ele>983.22</ele>
        <time>2018-08-07T06:54:03Z</time>
      </trkpt>
      <trkpt lat="42.47487" lon="0.7167">
        <ele>981.53</ele>
        <time>2018-08-07T06:54:05Z</time>
      </trkpt>
      <trkpt lat="42.47467" lon="0.71662">
        <ele>981.17</ele>
        <time>2018-08-07T06:54:07Z</time>
      </trkpt>
      <trkpt lat="42.47443" lon="0.71653">
        <ele>981.13</ele>
        <time>2018-08-07T06:54:09Z</time>
      </trkpt>
      <trkpt lat="42.47417" lon="0.71643">
        <ele>980.22</ele>
        <time>2018-08-07T06:54:11Z</time>
      </trkpt>
      <trkpt lat="42.4739" lon="0.71631">
        <ele>979.23</ele>
        <time>2018-08-07T06:54:13Z</time>
      </trkpt>
      <trkpt lat="42.47362" lon="0.7162">
        <ele>979.14</ele>
        <time>2018-08-07T06:54:15Z</time>
      </trkpt>
      <trkpt lat="42.47333" lon="0.7161">
        <ele>979.13</ele>
        <time>2018-08-07T06:54:17Z</time>
      </trkpt>
      <trkpt lat="42.47296" lon="0.71602">
        <ele>979.13</ele>
        <time>2018-08-07T06:54:19Z</time>
      </trkpt>
      <trkpt lat="42.47274" lon="0.71597">
        <ele>979.13</ele>
        <time>2018-08-07T06:54:20Z</time>
      </trkpt>
      <trkpt lat="42.47252" lon="0.71593">
        <ele>979.13</ele>
        <time>2018-08-07T06:54:21Z</time>
      </trkpt>
      <trkpt lat="42.47228" lon="0.71589">
        <ele>979.13</ele>
        <time>2018-08-07T06:54:22Z</time>
      </trkpt>
      <trkpt lat="42.47197" lon="0.71587">
        <ele>979.83</ele>
        <time>2018-08-07T06:54:23Z</time>
      </trkpt>
      <trkpt lat="42.47168" lon="0.71584">
        <ele>980.74</ele>
        <time>2018-08-07T06:54:24Z</time>
      </trkpt>
      <trkpt lat="42.47138" lon="0.71582">
        <ele>982.41</ele>
        <time>2018-08-07T06:54:25Z</time>
      </trkpt>
      <trkpt lat="42.47107" lon="0.71578">
        <ele>983.61</ele>
        <time>2018-08-07T06:54:26Z</time>
      </trkpt>
      <trkpt lat="42.47077" lon="0.71574">
        <ele>984.68</ele>
        <time>2018-08-07T06:54:27Z</time>
      </trkpt>
      <trkpt lat="42.47048" lon="0.71568">
        <ele>985.69</ele>
        <time>2018-08-07T06:54:28Z</time>
      </trkpt>
      <trkpt lat="42.4702" lon="0.7156">
        <ele>986</ele>
        <time>2018-08-07T06:54:29Z</time>
      </trkpt>
      <trkpt lat="42.46993" lon="0.71553">
        <ele>986.09</ele>
        <time>2018-08-07T06:54:30Z</time>
      </trkpt>
      <trkpt lat="42.46968" lon="0.71544">
        <ele>986.12</ele>
        <time>2018-08-07T06:54:31Z</time>
      </trkpt>
      <trkpt lat="42.46945" lon="0.71535">
        <ele>986.13</ele>
        <time>2018-08-07T06:54:32Z</time>
      </trkpt>
      <trkpt lat="42.46926" lon="0.71526">
        <ele>986.83</ele>
        <time>2018-08-07T06:54:33Z</time>
      </trkpt>
      <trkpt lat="42.46906" lon="0.71517">
        <ele>987.04</ele>
        <time>2018-08-07T06:54:34Z</time>
      </trkpt>
      <trkpt lat="42.46887" lon="0.71508">
        <ele>987.8</ele>
        <time>2018-08-07T06:54:35Z</time>
      </trkpt>
      <trkpt lat="42.46868" lon="0.715">
        <ele>988.03</ele>
        <time>2018-08-07T06:54:36Z</time>
      </trkpt>
      <trkpt lat="42.4685" lon="0.71492">
        <ele>988.8</ele>
        <time>2018-08-07T06:54:37Z</time>
      </trkpt>
      <trkpt lat="42.46831" lon="0.71484">
        <ele>989.03</ele>
        <time>2018-08-07T06:54:38Z</time>
      </trkpt>
      <trkpt lat="42.4681" lon="0.71476">
        <ele>989.1</ele>
        <time>2018-08-07T06:54:39Z</time>
      </trkpt>
      <trkpt lat="42.46787" lon="0.71468">
        <ele>988.42</ele>
        <time>2018-08-07T06:54:40Z</time>
      </trkpt>
      <trkpt lat="42.46764" lon="0.71456">
        <ele>988.22</ele>
        <time>2018-08-07T06:54:41Z</time>
      </trkpt>
      <trkpt lat="42.46742" lon="0.71445">
        <ele>987.46</ele>
        <time>2018-08-07T06:54:42Z</time>
      </trkpt>
      <trkpt lat="42.46719" lon="0.71435">
        <ele>986.53</ele>
        <time>2018-08-07T06:54:43Z</time>
      </trkpt>
      <trkpt lat="42.46695" lon="0.71426">
        <ele>985.55</ele>
        <time>2018-08-07T06:54:44Z</time>
      </trkpt>
      <trkpt lat="42.46674" lon="0.71418">
        <ele>984.56</ele>
        <time>2018-08-07T06:54:45Z</time>
      </trkpt>
      <trkpt lat="42.46652" lon="0.7141">
        <ele>984.26</ele>
        <time>2018-08-07T06:54:46Z</time>
      </trkpt>
      <trkpt lat="42.46631" lon="0.71406">
        <ele>983.47</ele>
        <time>2018-08-07T06:54:47Z</time>
      </trkpt>
      <trkpt lat="42.46611" lon="0.71401">
        <ele>982.53</ele>
        <time>2018-08-07T06:54:48Z</time>
      </trkpt>
      <trkpt lat="42.46591" lon="0.71397">
        <ele>980.85</ele>
        <time>2018-08-07T06:54:49Z</time>
      </trkpt>
      <trkpt lat="42.46571" lon="0.71392">
        <ele>979.65</ele>
        <time>2018-08-07T06:54:50Z</time>
      </trkpt>
      <trkpt lat="42.46552" lon="0.71388">
        <ele>978.58</ele>
        <time>2018-08-07T06:54:51Z</time>
      </trkpt>
      <trkpt lat="42.46533" lon="0.71384">
        <ele>976.87</ele>
        <time>2018-08-07T06:54:52Z</time>
      </trkpt>
      <trkpt lat="42.46515" lon="0.7138">
        <ele>975.65</ele>
        <time>2018-08-07T06:54:53Z</time>
      </trkpt>
      <trkpt lat="42.46496" lon="0.71375">
        <ele>973.89</ele>
        <time>2018-08-07T06:54:54Z</time>
      </trkpt>
      <trkpt lat="42.46477" lon="0.71371">
        <ele>972.66</ele>
        <time>2018-08-07T06:54:55Z</time>
      </trkpt>
      <trkpt lat="42.46457" lon="0.71364">
        <ele>971.59</ele>
        <time>2018-08-07T06:54:56Z</time>
      </trkpt>
      <trkpt lat="42.46439" lon="0.71354">
        <ele>971.27</ele>
        <time>2018-08-07T06:54:57Z</time>
      </trkpt>
      <trkpt lat="42.46422" lon="0.71338">
        <ele>970.47</ele>
        <time>2018-08-07T06:54:58Z</time>
      </trkpt>
      <trkpt lat="42.46406" lon="0.7132">
        <ele>969.53</ele>
        <time>2018-08-07T06:54:59Z</time>
      </trkpt>
      <trkpt lat="42.46392" lon="0.71299">
        <ele>968.55</ele>
        <time>2018-08-07T06:55:00Z</time>
      </trkpt>
      <trkpt lat="42.46377" lon="0.71277">
        <ele>967.56</ele>
        <time>2018-08-07T06:55:01Z</time>
      </trkpt>
      <trkpt lat="42.46363" lon="0.71256">
        <ele>966.56</ele>
        <time>2018-08-07T06:55:02Z</time>
      </trkpt>
      <trkpt lat="42.46348" lon="0.71235">
        <ele>964.86</ele>
        <time>2018-08-07T06:55:03Z</time>
      </trkpt>
      <trkpt lat="42.46333" lon="0.71216">
        <ele>963.65</ele>
        <time>2018-08-07T06:55:04Z</time>
      </trkpt>
      <trkpt lat="42.46318" lon="0.71197">
        <ele>963.29</ele>
        <time>2018-08-07T06:55:05Z</time>
      </trkpt>
      <trkpt lat="42.463" lon="0.71186">
        <ele>961.78</ele>
        <time>2018-08-07T06:55:06Z</time>
      </trkpt>
      <trkpt lat="42.46282" lon="0.71176">
        <ele>960.62</ele>
        <time>2018-08-07T06:55:07Z</time>
      </trkpt>
      <trkpt lat="42.46262" lon="0.71175">
        <ele>959.58</ele>
        <time>2018-08-07T06:55:08Z</time>
      </trkpt>
      <trkpt lat="42.46242" lon="0.71172">
        <ele>957.86</ele>
        <time>2018-08-07T06:55:09Z</time>
      </trkpt>
      <trkpt lat="42.46223" lon="0.71171">
        <ele>957.35</ele>
        <time>2018-08-07T06:55:10Z</time>
      </trkpt>
      <trkpt lat="42.46203" lon="0.7117">
        <ele>956.5</ele>
        <time>2018-08-07T06:55:11Z</time>
      </trkpt>
      <trkpt lat="42.46182" lon="0.71168">
        <ele>956.24</ele>
        <time>2018-08-07T06:55:12Z</time>
      </trkpt>
      <trkpt lat="42.46162" lon="0.71168">
        <ele>954.76</ele>
        <time>2018-08-07T06:55:13Z</time>
      </trkpt>
      <trkpt lat="42.46142" lon="0.71165">
        <ele>953.62</ele>
        <time>2018-08-07T06:55:14Z</time>
      </trkpt>
      <trkpt lat="42.46122" lon="0.71158">
        <ele>952.58</ele>
        <time>2018-08-07T06:55:15Z</time>
      </trkpt>
      <trkpt lat="42.46103" lon="0.71148">
        <ele>950.86</ele>
        <time>2018-08-07T06:55:16Z</time>
      </trkpt>
      <trkpt lat="42.46085" lon="0.71136">
        <ele>949.65</ele>
        <time>2018-08-07T06:55:17Z</time>
      </trkpt>
      <trkpt lat="42.46068" lon="0.71123">
        <ele>948.59</ele>
        <time>2018-08-07T06:55:18Z</time>
      </trkpt>
      <trkpt lat="42.46052" lon="0.71111">
        <ele>947.57</ele>
        <time>2018-08-07T06:55:19Z</time>
      </trkpt>
      <trkpt lat="42.46035" lon="0.71098">
        <ele>946.56</ele>
        <time>2018-08-07T06:55:20Z</time>
      </trkpt>
      <trkpt lat="42.46018" lon="0.71086">
        <ele>944.16</ele>
        <time>2018-08-07T06:55:21Z</time>
      </trkpt>
      <trkpt lat="42.46001" lon="0.71072">
        <ele>943.44</ele>
        <time>2018-08-07T06:55:22Z</time>
      </trkpt>
      <trkpt lat="42.45984" lon="0.71058">
        <ele>942.52</ele>
        <time>2018-08-07T06:55:23Z</time>
      </trkpt>
      <trkpt lat="42.45966" lon="0.71045">
        <ele>941.55</ele>
        <time>2018-08-07T06:55:24Z</time>
      </trkpt>
      <trkpt lat="42.45948" lon="0.71031">
        <ele>941.26</ele>
        <time>2018-08-07T06:55:25Z</time>
      </trkpt>
      <trkpt lat="42.45931" lon="0.71018">
        <ele>941.17</ele>
        <time>2018-08-07T06:55:26Z</time>
      </trkpt>
      <trkpt lat="42.45913" lon="0.71003">
        <ele>941.14</ele>
        <time>2018-08-07T06:55:27Z</time>
      </trkpt>
      <trkpt lat="42.45895" lon="0.7099">
        <ele>941.13</ele>
        <time>2018-08-07T06:55:28Z</time>
      </trkpt>
      <trkpt lat="42.45878" lon="0.70976">
        <ele>941.13</ele>
        <time>2018-08-07T06:55:29Z</time>
      </trkpt>
      <trkpt lat="42.4586" lon="0.70962">
        <ele>941.13</ele>
        <time>2018-08-07T06:55:30Z</time>
      </trkpt>
      <trkpt lat="42.45842" lon="0.70947">
        <ele>940.43</ele>
        <time>2018-08-07T06:55:31Z</time>
      </trkpt>
      <trkpt lat="42.45823" lon="0.70931">
        <ele>939.52</ele>
        <time>2018-08-07T06:55:32Z</time>
      </trkpt>
      <trkpt lat="42.45803" lon="0.70915">
        <ele>939.25</ele>
        <time>2018-08-07T06:55:33Z</time>
      </trkpt>
      <trkpt lat="42.45785" lon="0.70898">
        <ele>939.17</ele>
        <time>2018-08-07T06:55:34Z</time>
      </trkpt>
      <trkpt lat="42.45766" lon="0.70882">
        <ele>939.14</ele>
        <time>2018-08-07T06:55:35Z</time>
      </trkpt>
      <trkpt lat="42.45748" lon="0.70866">
        <ele>939.13</ele>
        <time>2018-08-07T06:55:36Z</time>
      </trkpt>
      <trkpt lat="42.45729" lon="0.70853">
        <ele>938.43</ele>
        <time>2018-08-07T06:55:37Z</time>
      </trkpt>
      <trkpt lat="42.45709" lon="0.70841">
        <ele>938.22</ele>
        <time>2018-08-07T06:55:38Z</time>
      </trkpt>
      <trkpt lat="42.45689" lon="0.70833">
        <ele>938.16</ele>
        <time>2018-08-07T06:55:39Z</time>
      </trkpt>
      <trkpt lat="42.45668" lon="0.70828">
        <ele>937.44</ele>
        <time>2018-08-07T06:55:40Z</time>
      </trkpt>
      <trkpt lat="42.45646" lon="0.70828">
        <ele>937.22</ele>
        <time>2018-08-07T06:55:41Z</time>
      </trkpt>
      <trkpt lat="42.45624" lon="0.70831">
        <ele>937.86</ele>
        <time>2018-08-07T06:55:42Z</time>
      </trkpt>
      <trkpt lat="42.45603" lon="0.70835">
        <ele>938.75</ele>
        <time>2018-08-07T06:55:43Z</time>
      </trkpt>
      <trkpt lat="42.45581" lon="0.70839">
        <ele>939.02</ele>
        <time>2018-08-07T06:55:44Z</time>
      </trkpt>
      <trkpt lat="42.45559" lon="0.70845">
        <ele>938.4</ele>
        <time>2018-08-07T06:55:45Z</time>
      </trkpt>
      <trkpt lat="42.45537" lon="0.70852">
        <ele>938.21</ele>
        <time>2018-08-07T06:55:46Z</time>
      </trkpt>
      <trkpt lat="42.45514" lon="0.7086">
        <ele>937.45</ele>
        <time>2018-08-07T06:55:47Z</time>
      </trkpt>
      <trkpt lat="42.4549" lon="0.70868">
        <ele>937.93</ele>
        <time>2018-08-07T06:55:48Z</time>
      </trkpt>
      <trkpt lat="42.45467" lon="0.70874">
        <ele>937.37</ele>
        <time>2018-08-07T06:55:49Z</time>
      </trkpt>
      <trkpt lat="42.45443" lon="0.70879">
        <ele>937.2</ele>
        <time>2018-08-07T06:55:50Z</time>
      </trkpt>
      <trkpt lat="42.45419" lon="0.70882">
        <ele>936.45</ele>
        <time>2018-08-07T06:55:51Z</time>
      </trkpt>
      <trkpt lat="42.45396" lon="0.70885">
        <ele>936.93</ele>
        <time>2018-08-07T06:55:52Z</time>
      </trkpt>
      <trkpt lat="42.45374" lon="0.70889">
        <ele>937.07</ele>
        <time>2018-08-07T06:55:53Z</time>
      </trkpt>
      <trkpt lat="42.45352" lon="0.70892">
        <ele>936.41</ele>
        <time>2018-08-07T06:55:54Z</time>
      </trkpt>
      <trkpt lat="42.4533" lon="0.70895">
        <ele>935.51</ele>
        <time>2018-08-07T06:55:55Z</time>
      </trkpt>
      <trkpt lat="42.45309" lon="0.70899">
        <ele>935.25</ele>
        <time>2018-08-07T06:55:56Z</time>
      </trkpt>
      <trkpt lat="42.45288" lon="0.70904">
        <ele>935.16</ele>
        <time>2018-08-07T06:55:57Z</time>
      </trkpt>
      <trkpt lat="42.45268" lon="0.7091">
        <ele>935.84</ele>
        <time>2018-08-07T06:55:58Z</time>
      </trkpt>
      <trkpt lat="42.45247" lon="0.70916">
        <ele>935.34</ele>
        <time>2018-08-07T06:55:59Z</time>
      </trkpt>
      <trkpt lat="42.45229" lon="0.70921">
        <ele>935.89</ele>
        <time>2018-08-07T06:56:00Z</time>
      </trkpt>
      <trkpt lat="42.4521" lon="0.70925">
        <ele>936.06</ele>
        <time>2018-08-07T06:56:01Z</time>
      </trkpt>
      <trkpt lat="42.45178" lon="0.70932">
        <ele>936.12</ele>
        <time>2018-08-07T06:56:03Z</time>
      </trkpt>
      <trkpt lat="42.45151" lon="0.70931">
        <ele>937.04</ele>
        <time>2018-08-07T06:56:05Z</time>
      </trkpt>
      <trkpt lat="42.45128" lon="0.70909">
        <ele>935.51</ele>
        <time>2018-08-07T06:56:07Z</time>
      </trkpt>
      <trkpt lat="42.45115" lon="0.70888">
        <ele>933.84</ele>
        <time>2018-08-07T06:56:08Z</time>
      </trkpt>
      <trkpt lat="42.45101" lon="0.70871">
        <ele>932.64</ele>
        <time>2018-08-07T06:56:09Z</time>
      </trkpt>
      <trkpt lat="42.45086" lon="0.70854">
        <ele>932.28</ele>
        <time>2018-08-07T06:56:10Z</time>
      </trkpt>
      <trkpt lat="42.45072" lon="0.70837">
        <ele>930.78</ele>
        <time>2018-08-07T06:56:11Z</time>
      </trkpt>
      <trkpt lat="42.45056" lon="0.7082">
        <ele>928.92</ele>
        <time>2018-08-07T06:56:12Z</time>
      </trkpt>
      <trkpt lat="42.45041" lon="0.70802">
        <ele>928.37</ele>
        <time>2018-08-07T06:56:13Z</time>
      </trkpt>
      <trkpt lat="42.45026" lon="0.70783">
        <ele>927.5</ele>
        <time>2018-08-07T06:56:14Z</time>
      </trkpt>
      <trkpt lat="42.45012" lon="0.7076">
        <ele>926.54</ele>
        <time>2018-08-07T06:56:15Z</time>
      </trkpt>
      <trkpt lat="42.44997" lon="0.70737">
        <ele>925.55</ele>
        <time>2018-08-07T06:56:16Z</time>
      </trkpt>
      <trkpt lat="42.44983" lon="0.70716">
        <ele>925.26</ele>
        <time>2018-08-07T06:56:17Z</time>
      </trkpt>
      <trkpt lat="42.4497" lon="0.70694">
        <ele>925.17</ele>
        <time>2018-08-07T06:56:18Z</time>
      </trkpt>
      <trkpt lat="42.44958" lon="0.70674">
        <ele>925.14</ele>
        <time>2018-08-07T06:56:19Z</time>
      </trkpt>
      <trkpt lat="42.44939" lon="0.70642">
        <ele>925.83</ele>
        <time>2018-08-07T06:56:21Z</time>
      </trkpt>
      <trkpt lat="42.44922" lon="0.70623">
        <ele>925.19</ele>
        <time>2018-08-07T06:56:23Z</time>
      </trkpt>
      <trkpt lat="42.44895" lon="0.70622">
        <ele>924.22</ele>
        <time>2018-08-07T06:56:26Z</time>
      </trkpt>
      <trkpt lat="42.4487" lon="0.70634">
        <ele>924.14</ele>
        <time>2018-08-07T06:56:28Z</time>
      </trkpt>
      <trkpt lat="42.44836" lon="0.70672">
        <ele>923.43</ele>
        <time>2018-08-07T06:56:29Z</time>
      </trkpt>
      <trkpt lat="42.44819" lon="0.70688">
        <ele>923.92</ele>
        <time>2018-08-07T06:56:30Z</time>
      </trkpt>
      <trkpt lat="42.44799" lon="0.70696">
        <ele>924.07</ele>
        <time>2018-08-07T06:56:31Z</time>
      </trkpt>
      <trkpt lat="42.44777" lon="0.70699">
        <ele>925.51</ele>
        <time>2018-08-07T06:56:32Z</time>
      </trkpt>
      <trkpt lat="42.44755" lon="0.70699">
        <ele>926.64</ele>
        <time>2018-08-07T06:56:33Z</time>
      </trkpt>
      <trkpt lat="42.44731" lon="0.70699">
        <ele>926.28</ele>
        <time>2018-08-07T06:56:34Z</time>
      </trkpt>
      <trkpt lat="42.44704" lon="0.70699">
        <ele>926.18</ele>
        <time>2018-08-07T06:56:35Z</time>
      </trkpt>
      <trkpt lat="42.44677" lon="0.70698">
        <ele>926.14</ele>
        <time>2018-08-07T06:56:36Z</time>
      </trkpt>
      <trkpt lat="42.4465" lon="0.70697">
        <ele>926.13</ele>
        <time>2018-08-07T06:56:37Z</time>
      </trkpt>
      <trkpt lat="42.44623" lon="0.70696">
        <ele>926.13</ele>
        <time>2018-08-07T06:56:38Z</time>
      </trkpt>
      <trkpt lat="42.44596" lon="0.70696">
        <ele>926.13</ele>
        <time>2018-08-07T06:56:39Z</time>
      </trkpt>
      <trkpt lat="42.44571" lon="0.70695">
        <ele>926.13</ele>
        <time>2018-08-07T06:56:40Z</time>
      </trkpt>
      <trkpt lat="42.44547" lon="0.70695">
        <ele>926.13</ele>
        <time>2018-08-07T06:56:41Z</time>
      </trkpt>
      <trkpt lat="42.44525" lon="0.70694">
        <ele>926.83</ele>
        <time>2018-08-07T06:56:42Z</time>
      </trkpt>
      <trkpt lat="42.44506" lon="0.70694">
        <ele>927.04</ele>
        <time>2018-08-07T06:56:43Z</time>
      </trkpt>
      <trkpt lat="42.44471" lon="0.70693">
        <ele>927.12</ele>
        <time>2018-08-07T06:56:45Z</time>
      </trkpt>
      <trkpt lat="42.4444" lon="0.70692">
        <ele>928.04</ele>
        <time>2018-08-07T06:56:47Z</time>
      </trkpt>
      <trkpt lat="42.44408" lon="0.70694">
        <ele>929.03</ele>
        <time>2018-08-07T06:56:49Z</time>
      </trkpt>
      <trkpt lat="42.44383" lon="0.70691">
        <ele>929.1</ele>
        <time>2018-08-07T06:56:50Z</time>
      </trkpt>
      <trkpt lat="42.44363" lon="0.70689">
        <ele>929.12</ele>
        <time>2018-08-07T06:56:51Z</time>
      </trkpt>
      <trkpt lat="42.44341" lon="0.70688">
        <ele>929.83</ele>
        <time>2018-08-07T06:56:52Z</time>
      </trkpt>
      <trkpt lat="42.44321" lon="0.70689">
        <ele>930.04</ele>
        <time>2018-08-07T06:56:53Z</time>
      </trkpt>
      <trkpt lat="42.44284" lon="0.707">
        <ele>930.12</ele>
        <time>2018-08-07T06:56:55Z</time>
      </trkpt>
      <trkpt lat="42.44268" lon="0.70723">
        <ele>931.53</ele>
        <time>2018-08-07T06:56:56Z</time>
      </trkpt>
      <trkpt lat="42.44251" lon="0.70737">
        <ele>933.35</ele>
        <time>2018-08-07T06:56:57Z</time>
      </trkpt>
      <trkpt lat="42.44234" lon="0.70746">
        <ele>934.6</ele>
        <time>2018-08-07T06:56:58Z</time>
      </trkpt>
      <trkpt lat="42.44216" lon="0.70753">
        <ele>934.97</ele>
        <time>2018-08-07T06:56:59Z</time>
      </trkpt>
      <trkpt lat="42.44196" lon="0.70757">
        <ele>935.78</ele>
        <time>2018-08-07T06:57:00Z</time>
      </trkpt>
      <trkpt lat="42.44179" lon="0.70764">
        <ele>936.03</ele>
        <time>2018-08-07T06:57:01Z</time>
      </trkpt>
      <trkpt lat="42.44148" lon="0.70793">
        <ele>936.82</ele>
        <time>2018-08-07T06:57:03Z</time>
      </trkpt>
      <trkpt lat="42.44133" lon="0.70807">
        <ele>938.44</ele>
        <time>2018-08-07T06:57:04Z</time>
      </trkpt>
      <trkpt lat="42.44116" lon="0.70815">
        <ele>938.92</ele>
        <time>2018-08-07T06:57:05Z</time>
      </trkpt>
      <trkpt lat="42.44085" lon="0.70835">
        <ele>940.93</ele>
        <time>2018-08-07T06:57:07Z</time>
      </trkpt>
      <trkpt lat="42.44057" lon="0.70845">
        <ele>943.42</ele>
        <time>2018-08-07T06:57:09Z</time>
      </trkpt>
      <trkpt lat="42.44031" lon="0.7083">
        <ele>945.89</ele>
        <time>2018-08-07T06:57:11Z</time>
      </trkpt>
      <trkpt lat="42.44017" lon="0.70789">
        <ele>948.63</ele>
        <time>2018-08-07T06:57:13Z</time>
      </trkpt>
      <trkpt lat="42.43994" lon="0.70766">
        <ele>950.69</ele>
        <time>2018-08-07T06:57:15Z</time>
      </trkpt>
      <trkpt lat="42.43972" lon="0.70756">
        <ele>950.39</ele>
        <time>2018-08-07T06:57:17Z</time>
      </trkpt>
      <trkpt lat="42.43948" lon="0.70776">
        <ele>950.21</ele>
        <time>2018-08-07T06:57:18Z</time>
      </trkpt>
      <trkpt lat="42.43916" lon="0.70785">
        <ele>949.23</ele>
        <time>2018-08-07T06:57:20Z</time>
      </trkpt>
      <trkpt lat="42.43886" lon="0.70787">
        <ele>949.84</ele>
        <time>2018-08-07T06:57:22Z</time>
      </trkpt>
      <trkpt lat="42.43863" lon="0.70778">
        <ele>950.31</ele>
        <time>2018-08-07T06:57:24Z</time>
      </trkpt>
      <trkpt lat="42.43867" lon="0.70733">
        <ele>949.66</ele>
        <time>2018-08-07T06:57:26Z</time>
      </trkpt>
      <trkpt lat="42.43875" lon="0.70684">
        <ele>949.18</ele>
        <time>2018-08-07T06:57:28Z</time>
      </trkpt>
      <trkpt lat="42.43876" lon="0.70658">
        <ele>949.14</ele>
        <time>2018-08-07T06:57:29Z</time>
      </trkpt>
      <trkpt lat="42.43884" lon="0.70624">
        <ele>947.03</ele>
        <time>2018-08-07T06:57:30Z</time>
      </trkpt>
      <trkpt lat="42.43889" lon="0.70592">
        <ele>945</ele>
        <time>2018-08-07T06:57:31Z</time>
      </trkpt>
      <trkpt lat="42.43892" lon="0.70561">
        <ele>943.69</ele>
        <time>2018-08-07T06:57:32Z</time>
      </trkpt>
      <trkpt lat="42.43895" lon="0.70529">
        <ele>942.6</ele>
        <time>2018-08-07T06:57:33Z</time>
      </trkpt>
      <trkpt lat="42.43898" lon="0.70497">
        <ele>940.17</ele>
        <time>2018-08-07T06:57:34Z</time>
      </trkpt>
      <trkpt lat="42.43902" lon="0.70463">
        <ele>937.34</ele>
        <time>2018-08-07T06:57:35Z</time>
      </trkpt>
      <trkpt lat="42.43905" lon="0.7043">
        <ele>935.79</ele>
        <time>2018-08-07T06:57:36Z</time>
      </trkpt>
      <trkpt lat="42.4391" lon="0.70397">
        <ele>933.23</ele>
        <time>2018-08-07T06:57:37Z</time>
      </trkpt>
      <trkpt lat="42.43913" lon="0.70366">
        <ele>931.06</ele>
        <time>2018-08-07T06:57:38Z</time>
      </trkpt>
      <trkpt lat="42.43917" lon="0.70336">
        <ele>928.31</ele>
        <time>2018-08-07T06:57:39Z</time>
      </trkpt>
      <trkpt lat="42.43922" lon="0.70307">
        <ele>926.08</ele>
        <time>2018-08-07T06:57:40Z</time>
      </trkpt>
      <trkpt lat="42.43927" lon="0.70281">
        <ele>923.32</ele>
        <time>2018-08-07T06:57:41Z</time>
      </trkpt>
      <trkpt lat="42.43933" lon="0.70257">
        <ele>921.79</ele>
        <time>2018-08-07T06:57:42Z</time>
      </trkpt>
      <trkpt lat="42.43947" lon="0.70213">
        <ele>920.28</ele>
        <time>2018-08-07T06:57:44Z</time>
      </trkpt>
      <trkpt lat="42.43966" lon="0.70205">
        <ele>918.77</ele>
        <time>2018-08-07T06:57:45Z</time>
      </trkpt>
      <trkpt lat="42.43985" lon="0.70168">
        <ele>916.58</ele>
        <time>2018-08-07T06:57:47Z</time>
      </trkpt>
      <trkpt lat="42.43993" lon="0.70146">
        <ele>915.56</ele>
        <time>2018-08-07T06:57:48Z</time>
      </trkpt>
      <trkpt lat="42.43998" lon="0.70121">
        <ele>915.26</ele>
        <time>2018-08-07T06:57:49Z</time>
      </trkpt>
      <trkpt lat="42.44002" lon="0.70094">
        <ele>915.17</ele>
        <time>2018-08-07T06:57:50Z</time>
      </trkpt>
      <trkpt lat="42.43996" lon="0.70063">
        <ele>913.74</ele>
        <time>2018-08-07T06:57:51Z</time>
      </trkpt>
      <trkpt lat="42.43998" lon="0.70038">
        <ele>914.01</ele>
        <time>2018-08-07T06:57:52Z</time>
      </trkpt>
      <trkpt lat="42.44004" lon="0.69994">
        <ele>914.82</ele>
        <time>2018-08-07T06:57:54Z</time>
      </trkpt>
      <trkpt lat="42.44008" lon="0.69952">
        <ele>916.01</ele>
        <time>2018-08-07T06:57:56Z</time>
      </trkpt>
      <trkpt lat="42.44009" lon="0.69923">
        <ele>916.12</ele>
        <time>2018-08-07T06:57:58Z</time>
      </trkpt>
      <trkpt lat="42.44016" lon="0.69896">
        <ele>916.13</ele>
        <time>2018-08-07T06:58:01Z</time>
      </trkpt>
      <trkpt lat="42.44029" lon="0.69879">
        <ele>916.34</ele>
        <time>2018-08-07T06:58:03Z</time>
      </trkpt>
      <trkpt lat="42.4405" lon="0.69856">
        <ele>916.15</ele>
        <time>2018-08-07T06:58:05Z</time>
      </trkpt>
      <trkpt lat="42.44073" lon="0.69824">
        <ele>916.13</ele>
        <time>2018-08-07T06:58:07Z</time>
      </trkpt>
      <trkpt lat="42.44091" lon="0.69784">
        <ele>916.83</ele>
        <time>2018-08-07T06:58:09Z</time>
      </trkpt>
      <trkpt lat="42.44108" lon="0.69746">
        <ele>917.1</ele>
        <time>2018-08-07T06:58:11Z</time>
      </trkpt>
      <trkpt lat="42.44124" lon="0.6973">
        <ele>918.52</ele>
        <time>2018-08-07T06:58:12Z</time>
      </trkpt>
      <trkpt lat="42.4414" lon="0.69715">
        <ele>919.65</ele>
        <time>2018-08-07T06:58:13Z</time>
      </trkpt>
      <trkpt lat="42.44155" lon="0.69701">
        <ele>920.69</ele>
        <time>2018-08-07T06:58:14Z</time>
      </trkpt>
      <trkpt lat="42.44172" lon="0.69689">
        <ele>920.3</ele>
        <time>2018-08-07T06:58:15Z</time>
      </trkpt>
      <trkpt lat="42.44193" lon="0.69683">
        <ele>919.48</ele>
        <time>2018-08-07T06:58:16Z</time>
      </trkpt>
      <trkpt lat="42.44215" lon="0.69672">
        <ele>918.53</ele>
        <time>2018-08-07T06:58:17Z</time>
      </trkpt>
      <trkpt lat="42.44236" lon="0.69666">
        <ele>918.95</ele>
        <time>2018-08-07T06:58:18Z</time>
      </trkpt>
      <trkpt lat="42.44256" lon="0.69659">
        <ele>919.08</ele>
        <time>2018-08-07T06:58:19Z</time>
      </trkpt>
      <trkpt lat="42.44276" lon="0.69651">
        <ele>919.11</ele>
        <time>2018-08-07T06:58:20Z</time>
      </trkpt>
      <trkpt lat="42.44294" lon="0.69642">
        <ele>919.13</ele>
        <time>2018-08-07T06:58:21Z</time>
      </trkpt>
      <trkpt lat="42.44313" lon="0.6963">
        <ele>919.13</ele>
        <time>2018-08-07T06:58:22Z</time>
      </trkpt>
      <trkpt lat="42.44331" lon="0.69614">
        <ele>919.13</ele>
        <time>2018-08-07T06:58:23Z</time>
      </trkpt>
      <trkpt lat="42.44347" lon="0.69595">
        <ele>919.83</ele>
        <time>2018-08-07T06:58:24Z</time>
      </trkpt>
      <trkpt lat="42.44361" lon="0.69575">
        <ele>920.04</ele>
        <time>2018-08-07T06:58:25Z</time>
      </trkpt>
      <trkpt lat="42.4437" lon="0.69551">
        <ele>920.8</ele>
        <time>2018-08-07T06:58:26Z</time>
      </trkpt>
      <trkpt lat="42.44381" lon="0.69521">
        <ele>921.73</ele>
        <time>2018-08-07T06:58:27Z</time>
      </trkpt>
      <trkpt lat="42.44389" lon="0.69491">
        <ele>922.71</ele>
        <time>2018-08-07T06:58:28Z</time>
      </trkpt>
      <trkpt lat="42.44395" lon="0.69464">
        <ele>923.7</ele>
        <time>2018-08-07T06:58:29Z</time>
      </trkpt>
      <trkpt lat="42.44403" lon="0.69429">
        <ele>924.7</ele>
        <time>2018-08-07T06:58:30Z</time>
      </trkpt>
      <trkpt lat="42.44412" lon="0.69399">
        <ele>925.7</ele>
        <time>2018-08-07T06:58:31Z</time>
      </trkpt>
      <trkpt lat="42.44422" lon="0.69368">
        <ele>927.4</ele>
        <time>2018-08-07T06:58:32Z</time>
      </trkpt>
      <trkpt lat="42.44431" lon="0.69338">
        <ele>927.91</ele>
        <time>2018-08-07T06:58:33Z</time>
      </trkpt>
      <trkpt lat="42.4444" lon="0.6931">
        <ele>928.06</ele>
        <time>2018-08-07T06:58:34Z</time>
      </trkpt>
      <trkpt lat="42.44448" lon="0.69282">
        <ele>928.81</ele>
        <time>2018-08-07T06:58:35Z</time>
      </trkpt>
      <trkpt lat="42.44456" lon="0.69257">
        <ele>928.33</ele>
        <time>2018-08-07T06:58:36Z</time>
      </trkpt>
      <trkpt lat="42.4446" lon="0.69231">
        <ele>927.49</ele>
        <time>2018-08-07T06:58:37Z</time>
      </trkpt>
      <trkpt lat="42.44461" lon="0.69203">
        <ele>927.24</ele>
        <time>2018-08-07T06:58:38Z</time>
      </trkpt>
      <trkpt lat="42.44461" lon="0.69173">
        <ele>927.86</ele>
        <time>2018-08-07T06:58:39Z</time>
      </trkpt>
      <trkpt lat="42.44456" lon="0.69145">
        <ele>928.05</ele>
        <time>2018-08-07T06:58:40Z</time>
      </trkpt>
      <trkpt lat="42.44449" lon="0.69115">
        <ele>929.51</ele>
        <time>2018-08-07T06:58:41Z</time>
      </trkpt>
      <trkpt lat="42.44442" lon="0.69085">
        <ele>931.34</ele>
        <time>2018-08-07T06:58:42Z</time>
      </trkpt>
      <trkpt lat="42.44435" lon="0.69056">
        <ele>933.29</ele>
        <time>2018-08-07T06:58:43Z</time>
      </trkpt>
      <trkpt lat="42.4443" lon="0.69028">
        <ele>934.58</ele>
        <time>2018-08-07T06:58:44Z</time>
      </trkpt>
      <trkpt lat="42.44426" lon="0.69001">
        <ele>936.36</ele>
        <time>2018-08-07T06:58:45Z</time>
      </trkpt>
      <trkpt lat="42.44423" lon="0.68975">
        <ele>937.6</ele>
        <time>2018-08-07T06:58:46Z</time>
      </trkpt>
      <trkpt lat="42.44423" lon="0.6895">
        <ele>939.37</ele>
        <time>2018-08-07T06:58:47Z</time>
      </trkpt>
      <trkpt lat="42.44425" lon="0.68923">
        <ele>940.6</ele>
        <time>2018-08-07T06:58:48Z</time>
      </trkpt>
      <trkpt lat="42.4443" lon="0.68896">
        <ele>941.67</ele>
        <time>2018-08-07T06:58:49Z</time>
      </trkpt>
      <trkpt lat="42.44436" lon="0.68869">
        <ele>942.69</ele>
        <time>2018-08-07T06:58:50Z</time>
      </trkpt>
      <trkpt lat="42.44441" lon="0.68841">
        <ele>944.4</ele>
        <time>2018-08-07T06:58:51Z</time>
      </trkpt>
      <trkpt lat="42.44447" lon="0.68813">
        <ele>944.91</ele>
        <time>2018-08-07T06:58:52Z</time>
      </trkpt>
      <trkpt lat="42.44453" lon="0.68786">
        <ele>946.46</ele>
        <time>2018-08-07T06:58:53Z</time>
      </trkpt>
      <trkpt lat="42.4446" lon="0.6876">
        <ele>946.93</ele>
        <time>2018-08-07T06:58:54Z</time>
      </trkpt>
      <trkpt lat="42.44468" lon="0.68733">
        <ele>947.07</ele>
        <time>2018-08-07T06:58:55Z</time>
      </trkpt>
      <trkpt lat="42.44479" lon="0.68705">
        <ele>947.11</ele>
        <time>2018-08-07T06:58:56Z</time>
      </trkpt>
      <trkpt lat="42.4449" lon="0.68682">
        <ele>947.12</ele>
        <time>2018-08-07T06:58:57Z</time>
      </trkpt>
      <trkpt lat="42.445" lon="0.6866">
        <ele>947.13</ele>
        <time>2018-08-07T06:58:58Z</time>
      </trkpt>
      <trkpt lat="42.44506" lon="0.68636">
        <ele>947.13</ele>
        <time>2018-08-07T06:58:59Z</time>
      </trkpt>
      <trkpt lat="42.44512" lon="0.68609">
        <ele>947.83</ele>
        <time>2018-08-07T06:59:00Z</time>
      </trkpt>
      <trkpt lat="42.44508" lon="0.6858">
        <ele>950.14</ele>
        <time>2018-08-07T06:59:01Z</time>
      </trkpt>
      <trkpt lat="42.44509" lon="0.68552">
        <ele>951.53</ele>
        <time>2018-08-07T06:59:02Z</time>
      </trkpt>
      <trkpt lat="42.4451" lon="0.68524">
        <ele>952.65</ele>
        <time>2018-08-07T06:59:03Z</time>
      </trkpt>
      <trkpt lat="42.44512" lon="0.68499">
        <ele>953.69</ele>
        <time>2018-08-07T06:59:04Z</time>
      </trkpt>
      <trkpt lat="42.4451" lon="0.68471">
        <ele>954.7</ele>
        <time>2018-08-07T06:59:05Z</time>
      </trkpt>
      <trkpt lat="42.44508" lon="0.68442">
        <ele>955</ele>
        <time>2018-08-07T06:59:06Z</time>
      </trkpt>
      <trkpt lat="42.44505" lon="0.68413">
        <ele>955.09</ele>
        <time>2018-08-07T06:59:07Z</time>
      </trkpt>
      <trkpt lat="42.44504" lon="0.68383">
        <ele>955.12</ele>
        <time>2018-08-07T06:59:08Z</time>
      </trkpt>
      <trkpt lat="42.44507" lon="0.68353">
        <ele>955.13</ele>
        <time>2018-08-07T06:59:09Z</time>
      </trkpt>
      <trkpt lat="42.44509" lon="0.68325">
        <ele>955.83</ele>
        <time>2018-08-07T06:59:10Z</time>
      </trkpt>
      <trkpt lat="42.44512" lon="0.68298">
        <ele>956.04</ele>
        <time>2018-08-07T06:59:11Z</time>
      </trkpt>
      <trkpt lat="42.44517" lon="0.68271">
        <ele>955.4</ele>
        <time>2018-08-07T06:59:12Z</time>
      </trkpt>
      <trkpt lat="42.44523" lon="0.68245">
        <ele>954.51</ele>
        <time>2018-08-07T06:59:13Z</time>
      </trkpt>
      <trkpt lat="42.44532" lon="0.6822">
        <ele>954.24</ele>
        <time>2018-08-07T06:59:14Z</time>
      </trkpt>
      <trkpt lat="42.44541" lon="0.68196">
        <ele>954.86</ele>
        <time>2018-08-07T06:59:15Z</time>
      </trkpt>
      <trkpt lat="42.44552" lon="0.68174">
        <ele>955.05</ele>
        <time>2018-08-07T06:59:16Z</time>
      </trkpt>
      <trkpt lat="42.44565" lon="0.68155">
        <ele>955.81</ele>
        <time>2018-08-07T06:59:17Z</time>
      </trkpt>
      <trkpt lat="42.44578" lon="0.68138">
        <ele>956.03</ele>
        <time>2018-08-07T06:59:18Z</time>
      </trkpt>
      <trkpt lat="42.44591" lon="0.68117">
        <ele>956.1</ele>
        <time>2018-08-07T06:59:19Z</time>
      </trkpt>
      <trkpt lat="42.44601" lon="0.68094">
        <ele>956.12</ele>
        <time>2018-08-07T06:59:20Z</time>
      </trkpt>
      <trkpt lat="42.44608" lon="0.6807">
        <ele>955.43</ele>
        <time>2018-08-07T06:59:21Z</time>
      </trkpt>
      <trkpt lat="42.44614" lon="0.68042">
        <ele>955.92</ele>
        <time>2018-08-07T06:59:22Z</time>
      </trkpt>
      <trkpt lat="42.4462" lon="0.68014">
        <ele>955.37</ele>
        <time>2018-08-07T06:59:23Z</time>
      </trkpt>
      <trkpt lat="42.44627" lon="0.67987">
        <ele>955.9</ele>
        <time>2018-08-07T06:59:24Z</time>
      </trkpt>
      <trkpt lat="42.44632" lon="0.6796">
        <ele>956.76</ele>
        <time>2018-08-07T06:59:25Z</time>
      </trkpt>
      <trkpt lat="42.44638" lon="0.67934">
        <ele>957.02</ele>
        <time>2018-08-07T06:59:26Z</time>
      </trkpt>
      <trkpt lat="42.44646" lon="0.67912">
        <ele>957.1</ele>
        <time>2018-08-07T06:59:27Z</time>
      </trkpt>
      <trkpt lat="42.44655" lon="0.6789">
        <ele>957.12</ele>
        <time>2018-08-07T06:59:28Z</time>
      </trkpt>
      <trkpt lat="42.44674" lon="0.67853">
        <ele>957.13</ele>
        <time>2018-08-07T06:59:30Z</time>
      </trkpt>
      <trkpt lat="42.44684" lon="0.67832">
        <ele>957.13</ele>
        <time>2018-08-07T06:59:31Z</time>
      </trkpt>
      <trkpt lat="42.44694" lon="0.6781">
        <ele>957.13</ele>
        <time>2018-08-07T06:59:32Z</time>
      </trkpt>
      <trkpt lat="42.44697" lon="0.67782">
        <ele>957.13</ele>
        <time>2018-08-07T06:59:33Z</time>
      </trkpt>
      <trkpt lat="42.44705" lon="0.67754">
        <ele>957.13</ele>
        <time>2018-08-07T06:59:34Z</time>
      </trkpt>
      <trkpt lat="42.44713" lon="0.67726">
        <ele>957.83</ele>
        <time>2018-08-07T06:59:35Z</time>
      </trkpt>
      <trkpt lat="42.44722" lon="0.67699">
        <ele>958.04</ele>
        <time>2018-08-07T06:59:36Z</time>
      </trkpt>
      <trkpt lat="42.44731" lon="0.67671">
        <ele>958.1</ele>
        <time>2018-08-07T06:59:37Z</time>
      </trkpt>
      <trkpt lat="42.44741" lon="0.67643">
        <ele>958.12</ele>
        <time>2018-08-07T06:59:38Z</time>
      </trkpt>
      <trkpt lat="42.44751" lon="0.67615">
        <ele>958.13</ele>
        <time>2018-08-07T06:59:39Z</time>
      </trkpt>
      <trkpt lat="42.4476" lon="0.67587">
        <ele>958.83</ele>
        <time>2018-08-07T06:59:40Z</time>
      </trkpt>
      <trkpt lat="42.44772" lon="0.67558">
        <ele>959.74</ele>
        <time>2018-08-07T06:59:41Z</time>
      </trkpt>
      <trkpt lat="42.44781" lon="0.67528">
        <ele>960.71</ele>
        <time>2018-08-07T06:59:42Z</time>
      </trkpt>
      <trkpt lat="42.44793" lon="0.67498">
        <ele>960.3</ele>
        <time>2018-08-07T06:59:43Z</time>
      </trkpt>
      <trkpt lat="42.44805" lon="0.6747">
        <ele>960.88</ele>
        <time>2018-08-07T06:59:44Z</time>
      </trkpt>
      <trkpt lat="42.44817" lon="0.67442">
        <ele>961.76</ele>
        <time>2018-08-07T06:59:45Z</time>
      </trkpt>
      <trkpt lat="42.4483" lon="0.67414">
        <ele>962.72</ele>
        <time>2018-08-07T06:59:46Z</time>
      </trkpt>
      <trkpt lat="42.44841" lon="0.67387">
        <ele>962.31</ele>
        <time>2018-08-07T06:59:47Z</time>
      </trkpt>
      <trkpt lat="42.44853" lon="0.6736">
        <ele>962.18</ele>
        <time>2018-08-07T06:59:48Z</time>
      </trkpt>
      <trkpt lat="42.44863" lon="0.67335">
        <ele>962.85</ele>
        <time>2018-08-07T06:59:49Z</time>
      </trkpt>
      <trkpt lat="42.44874" lon="0.6731">
        <ele>963.04</ele>
        <time>2018-08-07T06:59:50Z</time>
      </trkpt>
      <trkpt lat="42.44886" lon="0.67287">
        <ele>961.7</ele>
        <time>2018-08-07T06:59:51Z</time>
      </trkpt>
      <trkpt lat="42.44898" lon="0.67265">
        <ele>962</ele>
        <time>2018-08-07T06:59:52Z</time>
      </trkpt>
      <trkpt lat="42.44912" lon="0.67243">
        <ele>962.79</ele>
        <time>2018-08-07T06:59:53Z</time>
      </trkpt>
      <trkpt lat="42.44928" lon="0.67223">
        <ele>962.33</ele>
        <time>2018-08-07T06:59:54Z</time>
      </trkpt>
      <trkpt lat="42.44943" lon="0.67203">
        <ele>962.89</ele>
        <time>2018-08-07T06:59:55Z</time>
      </trkpt>
      <trkpt lat="42.44957" lon="0.67184">
        <ele>963.06</ele>
        <time>2018-08-07T06:59:56Z</time>
      </trkpt>
      <trkpt lat="42.44972" lon="0.67163">
        <ele>963.11</ele>
        <time>2018-08-07T06:59:57Z</time>
      </trkpt>
      <trkpt lat="42.44988" lon="0.67141">
        <ele>963.12</ele>
        <time>2018-08-07T06:59:58Z</time>
      </trkpt>
      <trkpt lat="42.45" lon="0.67121">
        <ele>964.53</ele>
        <time>2018-08-07T06:59:59Z</time>
      </trkpt>
      <trkpt lat="42.45013" lon="0.67098">
        <ele>965.65</ele>
        <time>2018-08-07T07:00:00Z</time>
      </trkpt>
      <trkpt lat="42.45025" lon="0.67077">
        <ele>966.69</ele>
        <time>2018-08-07T07:00:01Z</time>
      </trkpt>
      <trkpt lat="42.45034" lon="0.6705">
        <ele>967.7</ele>
        <time>2018-08-07T07:00:02Z</time>
      </trkpt>
      <trkpt lat="42.45036" lon="0.67022">
        <ele>968</ele>
        <time>2018-08-07T07:00:03Z</time>
      </trkpt>
      <trkpt lat="42.45038" lon="0.66995">
        <ele>969.49</ele>
        <time>2018-08-07T07:00:04Z</time>
      </trkpt>
      <trkpt lat="42.45039" lon="0.66968">
        <ele>971.34</ele>
        <time>2018-08-07T07:00:05Z</time>
      </trkpt>
      <trkpt lat="42.45036" lon="0.66941">
        <ele>973.29</ele>
        <time>2018-08-07T07:00:06Z</time>
      </trkpt>
      <trkpt lat="42.45029" lon="0.66914">
        <ele>975.28</ele>
        <time>2018-08-07T07:00:07Z</time>
      </trkpt>
      <trkpt lat="42.45022" lon="0.66889">
        <ele>977.97</ele>
        <time>2018-08-07T07:00:08Z</time>
      </trkpt>
      <trkpt lat="42.45017" lon="0.66865">
        <ele>979.48</ele>
        <time>2018-08-07T07:00:09Z</time>
      </trkpt>
      <trkpt lat="42.45017" lon="0.66839">
        <ele>980.64</ele>
        <time>2018-08-07T07:00:10Z</time>
      </trkpt>
      <trkpt lat="42.45018" lon="0.66813">
        <ele>982.38</ele>
        <time>2018-08-07T07:00:11Z</time>
      </trkpt>
      <trkpt lat="42.4502" lon="0.66784">
        <ele>982.91</ele>
        <time>2018-08-07T07:00:12Z</time>
      </trkpt>
      <trkpt lat="42.45022" lon="0.66756">
        <ele>983.76</ele>
        <time>2018-08-07T07:00:13Z</time>
      </trkpt>
      <trkpt lat="42.45024" lon="0.66727">
        <ele>984.02</ele>
        <time>2018-08-07T07:00:14Z</time>
      </trkpt>
      <trkpt lat="42.45027" lon="0.667">
        <ele>985.5</ele>
        <time>2018-08-07T07:00:15Z</time>
      </trkpt>
      <trkpt lat="42.45031" lon="0.66672">
        <ele>986.64</ele>
        <time>2018-08-07T07:00:16Z</time>
      </trkpt>
      <trkpt lat="42.45036" lon="0.66647">
        <ele>989.08</ele>
        <time>2018-08-07T07:00:17Z</time>
      </trkpt>
      <trkpt lat="42.45044" lon="0.66623">
        <ele>989.82</ele>
        <time>2018-08-07T07:00:18Z</time>
      </trkpt>
      <trkpt lat="42.45054" lon="0.66599">
        <ele>990.74</ele>
        <time>2018-08-07T07:00:19Z</time>
      </trkpt>
      <trkpt lat="42.45065" lon="0.66574">
        <ele>990.31</ele>
        <time>2018-08-07T07:00:20Z</time>
      </trkpt>
      <trkpt lat="42.45076" lon="0.66548">
        <ele>990.18</ele>
        <time>2018-08-07T07:00:21Z</time>
      </trkpt>
      <trkpt lat="42.45088" lon="0.6652">
        <ele>990.15</ele>
        <time>2018-08-07T07:00:22Z</time>
      </trkpt>
      <trkpt lat="42.45098" lon="0.66494">
        <ele>990.13</ele>
        <time>2018-08-07T07:00:23Z</time>
      </trkpt>
      <trkpt lat="42.45109" lon="0.66466">
        <ele>989.43</ele>
        <time>2018-08-07T07:00:24Z</time>
      </trkpt>
      <trkpt lat="42.45118" lon="0.66439">
        <ele>988.52</ele>
        <time>2018-08-07T07:00:25Z</time>
      </trkpt>
      <trkpt lat="42.45126" lon="0.66412">
        <ele>988.95</ele>
        <time>2018-08-07T07:00:26Z</time>
      </trkpt>
      <trkpt lat="42.45135" lon="0.66385">
        <ele>988.38</ele>
        <time>2018-08-07T07:00:27Z</time>
      </trkpt>
      <trkpt lat="42.45143" lon="0.6636">
        <ele>988.9</ele>
        <time>2018-08-07T07:00:28Z</time>
      </trkpt>
      <trkpt lat="42.45151" lon="0.66337">
        <ele>989.06</ele>
        <time>2018-08-07T07:00:29Z</time>
      </trkpt>
      <trkpt lat="42.45173" lon="0.663">
        <ele>989.82</ele>
        <time>2018-08-07T07:00:31Z</time>
      </trkpt>
      <trkpt lat="42.45188" lon="0.66284">
        <ele>990.04</ele>
        <time>2018-08-07T07:00:32Z</time>
      </trkpt>
      <trkpt lat="42.45206" lon="0.66271">
        <ele>989.4</ele>
        <time>2018-08-07T07:00:33Z</time>
      </trkpt>
      <trkpt lat="42.45226" lon="0.66259">
        <ele>989.91</ele>
        <time>2018-08-07T07:00:34Z</time>
      </trkpt>
      <trkpt lat="42.45247" lon="0.66247">
        <ele>989.36</ele>
        <time>2018-08-07T07:00:35Z</time>
      </trkpt>
      <trkpt lat="42.45268" lon="0.66236">
        <ele>988.5</ele>
        <time>2018-08-07T07:00:36Z</time>
      </trkpt>
      <trkpt lat="42.45289" lon="0.66224">
        <ele>988.24</ele>
        <time>2018-08-07T07:00:37Z</time>
      </trkpt>
      <trkpt lat="42.4531" lon="0.66211">
        <ele>988.16</ele>
        <time>2018-08-07T07:00:38Z</time>
      </trkpt>
      <trkpt lat="42.45331" lon="0.66198">
        <ele>988.14</ele>
        <time>2018-08-07T07:00:39Z</time>
      </trkpt>
      <trkpt lat="42.45353" lon="0.66186">
        <ele>988.13</ele>
        <time>2018-08-07T07:00:40Z</time>
      </trkpt>
      <trkpt lat="42.45374" lon="0.6618">
        <ele>987.43</ele>
        <time>2018-08-07T07:00:41Z</time>
      </trkpt>
      <trkpt lat="42.45397" lon="0.66171">
        <ele>987.92</ele>
        <time>2018-08-07T07:00:42Z</time>
      </trkpt>
      <trkpt lat="42.45419" lon="0.66166">
        <ele>988.07</ele>
        <time>2018-08-07T07:00:43Z</time>
      </trkpt>
      <trkpt lat="42.45441" lon="0.66162">
        <ele>988.81</ele>
        <time>2018-08-07T07:00:44Z</time>
      </trkpt>
      <trkpt lat="42.45462" lon="0.66159">
        <ele>989.73</ele>
        <time>2018-08-07T07:00:45Z</time>
      </trkpt>
      <trkpt lat="42.45483" lon="0.66155">
        <ele>989.31</ele>
        <time>2018-08-07T07:00:46Z</time>
      </trkpt>
      <trkpt lat="42.45504" lon="0.66152">
        <ele>989.88</ele>
        <time>2018-08-07T07:00:47Z</time>
      </trkpt>
      <trkpt lat="42.45523" lon="0.66155">
        <ele>990.76</ele>
        <time>2018-08-07T07:00:48Z</time>
      </trkpt>
      <trkpt lat="42.45545" lon="0.6616">
        <ele>991.02</ele>
        <time>2018-08-07T07:00:49Z</time>
      </trkpt>
      <trkpt lat="42.45567" lon="0.66169">
        <ele>991.8</ele>
        <time>2018-08-07T07:00:50Z</time>
      </trkpt>
      <trkpt lat="42.45586" lon="0.66181">
        <ele>992.73</ele>
        <time>2018-08-07T07:00:51Z</time>
      </trkpt>
      <trkpt lat="42.45603" lon="0.66196">
        <ele>993.71</ele>
        <time>2018-08-07T07:00:52Z</time>
      </trkpt>
      <trkpt lat="42.45621" lon="0.66208">
        <ele>994.7</ele>
        <time>2018-08-07T07:00:53Z</time>
      </trkpt>
      <trkpt lat="42.45639" lon="0.66217">
        <ele>995</ele>
        <time>2018-08-07T07:00:54Z</time>
      </trkpt>
      <trkpt lat="42.45656" lon="0.66225">
        <ele>995.09</ele>
        <time>2018-08-07T07:00:55Z</time>
      </trkpt>
      <trkpt lat="42.45675" lon="0.6623">
        <ele>995.12</ele>
        <time>2018-08-07T07:00:56Z</time>
      </trkpt>
      <trkpt lat="42.45693" lon="0.66233">
        <ele>995.13</ele>
        <time>2018-08-07T07:00:57Z</time>
      </trkpt>
      <trkpt lat="42.45725" lon="0.66222">
        <ele>996.74</ele>
        <time>2018-08-07T07:00:59Z</time>
      </trkpt>
      <trkpt lat="42.45736" lon="0.66203">
        <ele>997.01</ele>
        <time>2018-08-07T07:01:00Z</time>
      </trkpt>
      <trkpt lat="42.45755" lon="0.66189">
        <ele>997.79</ele>
        <time>2018-08-07T07:01:01Z</time>
      </trkpt>
      <trkpt lat="42.45784" lon="0.66163">
        <ele>999.01</ele>
        <time>2018-08-07T07:01:03Z</time>
      </trkpt>
      <trkpt lat="42.4581" lon="0.66133">
        <ele>999.82</ele>
        <time>2018-08-07T07:01:05Z</time>
      </trkpt>
      <trkpt lat="42.45823" lon="0.66097">
        <ele>998.49</ele>
        <time>2018-08-07T07:01:07Z</time>
      </trkpt>
      <trkpt lat="42.45824" lon="0.66056">
        <ele>999.07</ele>
        <time>2018-08-07T07:01:09Z</time>
      </trkpt>
      <trkpt lat="42.45813" lon="0.66018">
        <ele>1000.73</ele>
        <time>2018-08-07T07:01:11Z</time>
      </trkpt>
      <trkpt lat="42.45792" lon="0.65992">
        <ele>1002</ele>
        <time>2018-08-07T07:01:13Z</time>
      </trkpt>
      <trkpt lat="42.45772" lon="0.65986">
        <ele>1001.39</ele>
        <time>2018-08-07T07:01:14Z</time>
      </trkpt>
      <trkpt lat="42.45743" lon="0.65972">
        <ele>1002.06</ele>
        <time>2018-08-07T07:01:16Z</time>
      </trkpt>
      <trkpt lat="42.45721" lon="0.65975">
        <ele>1002.11</ele>
        <time>2018-08-07T07:01:17Z</time>
      </trkpt>
      <trkpt lat="42.45687" lon="0.65964">
        <ele>1003.04</ele>
        <time>2018-08-07T07:01:19Z</time>
      </trkpt>
      <trkpt lat="42.45657" lon="0.65941">
        <ele>1007.04</ele>
        <time>2018-08-07T07:01:21Z</time>
      </trkpt>
      <trkpt lat="42.45631" lon="0.65909">
        <ele>1012.16</ele>
        <time>2018-08-07T07:01:23Z</time>
      </trkpt>
      <trkpt lat="42.45606" lon="0.65884">
        <ele>1016.26</ele>
        <time>2018-08-07T07:01:25Z</time>
      </trkpt>
      <trkpt lat="42.45594" lon="0.6585">
        <ele>1019.36</ele>
        <time>2018-08-07T07:01:27Z</time>
      </trkpt>
      <trkpt lat="42.45599" lon="0.65812">
        <ele>1021.67</ele>
        <time>2018-08-07T07:01:29Z</time>
      </trkpt>
      <trkpt lat="42.45608" lon="0.65781">
        <ele>1023</ele>
        <time>2018-08-07T07:01:31Z</time>
      </trkpt>
      <trkpt lat="42.45642" lon="0.65774">
        <ele>1022.21</ele>
        <time>2018-08-07T07:01:33Z</time>
      </trkpt>
      <trkpt lat="42.45668" lon="0.65779">
        <ele>1022.15</ele>
        <time>2018-08-07T07:01:34Z</time>
      </trkpt>
      <trkpt lat="42.45682" lon="0.65811">
        <ele>1022.14</ele>
        <time>2018-08-07T07:01:35Z</time>
      </trkpt>
      <trkpt lat="42.45715" lon="0.65829">
        <ele>1023.53</ele>
        <time>2018-08-07T07:01:37Z</time>
      </trkpt>
      <trkpt lat="42.45733" lon="0.65832">
        <ele>1024.65</ele>
        <time>2018-08-07T07:01:38Z</time>
      </trkpt>
      <trkpt lat="42.45769" lon="0.65836">
        <ele>1027.61</ele>
        <time>2018-08-07T07:01:40Z</time>
      </trkpt>
      <trkpt lat="42.45787" lon="0.65832">
        <ele>1030.07</ele>
        <time>2018-08-07T07:01:41Z</time>
      </trkpt>
      <trkpt lat="42.45806" lon="0.65827">
        <ele>1031.51</ele>
        <time>2018-08-07T07:01:42Z</time>
      </trkpt>
      <trkpt lat="42.45823" lon="0.65818">
        <ele>1032.64</ele>
        <time>2018-08-07T07:01:43Z</time>
      </trkpt>
      <trkpt lat="42.45846" lon="0.65799">
        <ele>1034.91</ele>
        <time>2018-08-07T07:01:45Z</time>
      </trkpt>
      <trkpt lat="42.45863" lon="0.65771">
        <ele>1036.72</ele>
        <time>2018-08-07T07:01:47Z</time>
      </trkpt>
      <trkpt lat="42.45876" lon="0.65736">
        <ele>1037.79</ele>
        <time>2018-08-07T07:01:49Z</time>
      </trkpt>
      <trkpt lat="42.45877" lon="0.65707">
        <ele>1038.03</ele>
        <time>2018-08-07T07:01:50Z</time>
      </trkpt>
      <trkpt lat="42.45876" lon="0.65673">
        <ele>1041.6</ele>
        <time>2018-08-07T07:01:51Z</time>
      </trkpt>
      <trkpt lat="42.4588" lon="0.65644">
        <ele>1044.07</ele>
        <time>2018-08-07T07:01:52Z</time>
      </trkpt>
      <trkpt lat="42.45883" lon="0.65614">
        <ele>1046.91</ele>
        <time>2018-08-07T07:01:53Z</time>
      </trkpt>
      <trkpt lat="42.45891" lon="0.65588">
        <ele>1049.16</ele>
        <time>2018-08-07T07:01:54Z</time>
      </trkpt>
      <trkpt lat="42.459" lon="0.65562">
        <ele>1050.54</ele>
        <time>2018-08-07T07:01:55Z</time>
      </trkpt>
      <trkpt lat="42.45914" lon="0.65521">
        <ele>1054.79</ele>
        <time>2018-08-07T07:01:57Z</time>
      </trkpt>
      <trkpt lat="42.4592" lon="0.65472">
        <ele>1056.22</ele>
        <time>2018-08-07T07:01:59Z</time>
      </trkpt>
      <trkpt lat="42.45907" lon="0.65443">
        <ele>1059.66</ele>
        <time>2018-08-07T07:02:00Z</time>
      </trkpt>
      <trkpt lat="42.45904" lon="0.65414">
        <ele>1062.79</ele>
        <time>2018-08-07T07:02:01Z</time>
      </trkpt>
      <trkpt lat="42.45903" lon="0.65381">
        <ele>1065.13</ele>
        <time>2018-08-07T07:02:02Z</time>
      </trkpt>
      <trkpt lat="42.45901" lon="0.65349">
        <ele>1067.23</ele>
        <time>2018-08-07T07:02:03Z</time>
      </trkpt>
      <trkpt lat="42.45901" lon="0.65314">
        <ele>1069.26</ele>
        <time>2018-08-07T07:02:04Z</time>
      </trkpt>
      <trkpt lat="42.45902" lon="0.6528">
        <ele>1071.27</ele>
        <time>2018-08-07T07:02:05Z</time>
      </trkpt>
      <trkpt lat="42.45904" lon="0.65245">
        <ele>1073.97</ele>
        <time>2018-08-07T07:02:06Z</time>
      </trkpt>
      <trkpt lat="42.45906" lon="0.65211">
        <ele>1076.18</ele>
        <time>2018-08-07T07:02:07Z</time>
      </trkpt>
      <trkpt lat="42.45908" lon="0.65179">
        <ele>1078.25</ele>
        <time>2018-08-07T07:02:08Z</time>
      </trkpt>
      <trkpt lat="42.4591" lon="0.65149">
        <ele>1080.26</ele>
        <time>2018-08-07T07:02:09Z</time>
      </trkpt>
      <trkpt lat="42.45912" lon="0.65122">
        <ele>1081.57</ele>
        <time>2018-08-07T07:02:10Z</time>
      </trkpt>
      <trkpt lat="42.45915" lon="0.65096">
        <ele>1083.36</ele>
        <time>2018-08-07T07:02:11Z</time>
      </trkpt>
      <trkpt lat="42.45919" lon="0.65072">
        <ele>1085.3</ele>
        <time>2018-08-07T07:02:12Z</time>
      </trkpt>
      <trkpt lat="42.4593" lon="0.65031">
        <ele>1087.46</ele>
        <time>2018-08-07T07:02:14Z</time>
      </trkpt>
      <trkpt lat="42.45969" lon="0.65004">
        <ele>1093.18</ele>
        <time>2018-08-07T07:02:16Z</time>
      </trkpt>
      <trkpt lat="42.45986" lon="0.6499">
        <ele>1095.94</ele>
        <time>2018-08-07T07:02:17Z</time>
      </trkpt>
      <trkpt lat="42.46003" lon="0.64976">
        <ele>1097.47</ele>
        <time>2018-08-07T07:02:18Z</time>
      </trkpt>
      <trkpt lat="42.4602" lon="0.64959">
        <ele>1097.93</ele>
        <time>2018-08-07T07:02:19Z</time>
      </trkpt>
      <trkpt lat="42.46036" lon="0.64938">
        <ele>1100.17</ele>
        <time>2018-08-07T07:02:20Z</time>
      </trkpt>
      <trkpt lat="42.46052" lon="0.64916">
        <ele>1101.54</ele>
        <time>2018-08-07T07:02:21Z</time>
      </trkpt>
      <trkpt lat="42.46067" lon="0.64893">
        <ele>1101.95</ele>
        <time>2018-08-07T07:02:22Z</time>
      </trkpt>
      <trkpt lat="42.46082" lon="0.64869">
        <ele>1102.78</ele>
        <time>2018-08-07T07:02:23Z</time>
      </trkpt>
      <trkpt lat="42.46096" lon="0.64847">
        <ele>1103.02</ele>
        <time>2018-08-07T07:02:24Z</time>
      </trkpt>
      <trkpt lat="42.46109" lon="0.64826">
        <ele>1103.1</ele>
        <time>2018-08-07T07:02:25Z</time>
      </trkpt>
      <trkpt lat="42.46123" lon="0.64807">
        <ele>1107.32</ele>
        <time>2018-08-07T07:02:26Z</time>
      </trkpt>
      <trkpt lat="42.46134" lon="0.64786">
        <ele>1110.69</ele>
        <time>2018-08-07T07:02:27Z</time>
      </trkpt>
      <trkpt lat="42.46144" lon="0.64763">
        <ele>1113.1</ele>
        <time>2018-08-07T07:02:28Z</time>
      </trkpt>
      <trkpt lat="42.46151" lon="0.64737">
        <ele>1114.52</ele>
        <time>2018-08-07T07:02:29Z</time>
      </trkpt>
      <trkpt lat="42.46155" lon="0.64708">
        <ele>1116.35</ele>
        <time>2018-08-07T07:02:30Z</time>
      </trkpt>
      <trkpt lat="42.46156" lon="0.64682">
        <ele>1118.3</ele>
        <time>2018-08-07T07:02:31Z</time>
      </trkpt>
      <trkpt lat="42.46158" lon="0.6464">
        <ele>1123.18</ele>
        <time>2018-08-07T07:02:33Z</time>
      </trkpt>
      <trkpt lat="42.46167" lon="0.64608">
        <ele>1126.77</ele>
        <time>2018-08-07T07:02:35Z</time>
      </trkpt>
      <trkpt lat="42.46194" lon="0.64595">
        <ele>1127.1</ele>
        <time>2018-08-07T07:02:37Z</time>
      </trkpt>
      <trkpt lat="42.46214" lon="0.64595">
        <ele>1127.12</ele>
        <time>2018-08-07T07:02:38Z</time>
      </trkpt>
      <trkpt lat="42.46237" lon="0.64595">
        <ele>1127.13</ele>
        <time>2018-08-07T07:02:39Z</time>
      </trkpt>
      <trkpt lat="42.46261" lon="0.64588">
        <ele>1127.83</ele>
        <time>2018-08-07T07:02:40Z</time>
      </trkpt>
      <trkpt lat="42.46283" lon="0.64583">
        <ele>1128.74</ele>
        <time>2018-08-07T07:02:41Z</time>
      </trkpt>
      <trkpt lat="42.46309" lon="0.64571">
        <ele>1129.71</ele>
        <time>2018-08-07T07:02:42Z</time>
      </trkpt>
      <trkpt lat="42.46329" lon="0.64567">
        <ele>1130.7</ele>
        <time>2018-08-07T07:02:43Z</time>
      </trkpt>
      <trkpt lat="42.46348" lon="0.64559">
        <ele>1130.3</ele>
        <time>2018-08-07T07:02:44Z</time>
      </trkpt>
      <trkpt lat="42.46365" lon="0.64549">
        <ele>1130.88</ele>
        <time>2018-08-07T07:02:45Z</time>
      </trkpt>
      <trkpt lat="42.46385" lon="0.64537">
        <ele>1131.76</ele>
        <time>2018-08-07T07:02:46Z</time>
      </trkpt>
      <trkpt lat="42.46405" lon="0.64517">
        <ele>1132.02</ele>
        <time>2018-08-07T07:02:47Z</time>
      </trkpt>
      <trkpt lat="42.46421" lon="0.64495">
        <ele>1132.1</ele>
        <time>2018-08-07T07:02:48Z</time>
      </trkpt>
      <trkpt lat="42.46438" lon="0.6447">
        <ele>1132.82</ele>
        <time>2018-08-07T07:02:49Z</time>
      </trkpt>
      <trkpt lat="42.46453" lon="0.64431">
        <ele>1135.62</ele>
        <time>2018-08-07T07:02:51Z</time>
      </trkpt>
      <trkpt lat="42.46481" lon="0.64405">
        <ele>1137.48</ele>
        <time>2018-08-07T07:02:53Z</time>
      </trkpt>
      <trkpt lat="42.46516" lon="0.6439">
        <ele>1139.68</ele>
        <time>2018-08-07T07:02:55Z</time>
      </trkpt>
      <trkpt lat="42.46543" lon="0.64396">
        <ele>1142.8</ele>
        <time>2018-08-07T07:02:56Z</time>
      </trkpt>
      <trkpt lat="42.46564" lon="0.64394">
        <ele>1145.13</ele>
        <time>2018-08-07T07:02:57Z</time>
      </trkpt>
      <trkpt lat="42.46599" lon="0.6439">
        <ele>1150.87</ele>
        <time>2018-08-07T07:02:59Z</time>
      </trkpt>
      <trkpt lat="42.46624" lon="0.64378">
        <ele>1156.15</ele>
        <time>2018-08-07T07:03:01Z</time>
      </trkpt>
      <trkpt lat="42.46618" lon="0.64353">
        <ele>1158.93</ele>
        <time>2018-08-07T07:03:02Z</time>
      </trkpt>
      <trkpt lat="42.46603" lon="0.64327">
        <ele>1162.82</ele>
        <time>2018-08-07T07:03:04Z</time>
      </trkpt>
      <trkpt lat="42.46569" lon="0.6431">
        <ele>1168.14</ele>
        <time>2018-08-07T07:03:06Z</time>
      </trkpt>
      <trkpt lat="42.4655" lon="0.64302">
        <ele>1169.53</ele>
        <time>2018-08-07T07:03:07Z</time>
      </trkpt>
      <trkpt lat="42.46529" lon="0.64292">
        <ele>1171.35</ele>
        <time>2018-08-07T07:03:08Z</time>
      </trkpt>
      <trkpt lat="42.46508" lon="0.64284">
        <ele>1172.6</ele>
        <time>2018-08-07T07:03:09Z</time>
      </trkpt>
      <trkpt lat="42.46486" lon="0.64276">
        <ele>1174.37</ele>
        <time>2018-08-07T07:03:10Z</time>
      </trkpt>
      <trkpt lat="42.46465" lon="0.64272">
        <ele>1177</ele>
        <time>2018-08-07T07:03:11Z</time>
      </trkpt>
      <trkpt lat="42.46446" lon="0.6427">
        <ele>1177.79</ele>
        <time>2018-08-07T07:03:12Z</time>
      </trkpt>
      <trkpt lat="42.46426" lon="0.64272">
        <ele>1178.73</ele>
        <time>2018-08-07T07:03:13Z</time>
      </trkpt>
      <trkpt lat="42.46392" lon="0.64266">
        <ele>1180</ele>
        <time>2018-08-07T07:03:15Z</time>
      </trkpt>
      <trkpt lat="42.46373" lon="0.64257">
        <ele>1180.79</ele>
        <time>2018-08-07T07:03:16Z</time>
      </trkpt>
      <trkpt lat="42.46354" lon="0.64246">
        <ele>1181.73</ele>
        <time>2018-08-07T07:03:17Z</time>
      </trkpt>
      <trkpt lat="42.46334" lon="0.64208">
        <ele>1183.49</ele>
        <time>2018-08-07T07:03:19Z</time>
      </trkpt>
      <trkpt lat="42.46311" lon="0.6418">
        <ele>1185.47</ele>
        <time>2018-08-07T07:03:21Z</time>
      </trkpt>
      <trkpt lat="42.46292" lon="0.64164">
        <ele>1186.98</ele>
        <time>2018-08-07T07:03:23Z</time>
      </trkpt>
      <trkpt lat="42.46258" lon="0.64173">
        <ele>1187.33</ele>
        <time>2018-08-07T07:03:25Z</time>
      </trkpt>
      <trkpt lat="42.46245" lon="0.64197">
        <ele>1189.29</ele>
        <time>2018-08-07T07:03:26Z</time>
      </trkpt>
      <trkpt lat="42.46228" lon="0.64219">
        <ele>1190.58</ele>
        <time>2018-08-07T07:03:27Z</time>
      </trkpt>
      <trkpt lat="42.46205" lon="0.64247">
        <ele>1195.21</ele>
        <time>2018-08-07T07:03:29Z</time>
      </trkpt>
      <trkpt lat="42.46178" lon="0.64252">
        <ele>1196.96</ele>
        <time>2018-08-07T07:03:31Z</time>
      </trkpt>
      <trkpt lat="42.46165" lon="0.64217">
        <ele>1199.42</ele>
        <time>2018-08-07T07:03:33Z</time>
      </trkpt>
      <trkpt lat="42.46168" lon="0.64176">
        <ele>1200.98</ele>
        <time>2018-08-07T07:03:35Z</time>
      </trkpt>
      <trkpt lat="42.4618" lon="0.64147">
        <ele>1201.08</ele>
        <time>2018-08-07T07:03:36Z</time>
      </trkpt>
      <trkpt lat="42.46198" lon="0.64124">
        <ele>1202.52</ele>
        <time>2018-08-07T07:03:37Z</time>
      </trkpt>
      <trkpt lat="42.46221" lon="0.6409">
        <ele>1203.77</ele>
        <time>2018-08-07T07:03:39Z</time>
      </trkpt>
      <trkpt lat="42.4625" lon="0.64067">
        <ele>1204.31</ele>
        <time>2018-08-07T07:03:41Z</time>
      </trkpt>
      <trkpt lat="42.46277" lon="0.64063">
        <ele>1204.88</ele>
        <time>2018-08-07T07:03:42Z</time>
      </trkpt>
      <trkpt lat="42.46302" lon="0.64079">
        <ele>1205.06</ele>
        <time>2018-08-07T07:03:43Z</time>
      </trkpt>
      <trkpt lat="42.46321" lon="0.64093">
        <ele>1205.81</ele>
        <time>2018-08-07T07:03:44Z</time>
      </trkpt>
      <trkpt lat="42.46339" lon="0.64094">
        <ele>1207.43</ele>
        <time>2018-08-07T07:03:45Z</time>
      </trkpt>
      <trkpt lat="42.46372" lon="0.64089">
        <ele>1211.08</ele>
        <time>2018-08-07T07:03:47Z</time>
      </trkpt>
      <trkpt lat="42.46398" lon="0.64062">
        <ele>1213.44</ele>
        <time>2018-08-07T07:03:49Z</time>
      </trkpt>
      <trkpt lat="42.46412" lon="0.64044">
        <ele>1213.92</ele>
        <time>2018-08-07T07:03:50Z</time>
      </trkpt>
      <trkpt lat="42.46427" lon="0.64028">
        <ele>1215.47</ele>
        <time>2018-08-07T07:03:51Z</time>
      </trkpt>
      <trkpt lat="42.46445" lon="0.64012">
        <ele>1215.93</ele>
        <time>2018-08-07T07:03:52Z</time>
      </trkpt>
      <trkpt lat="42.46462" lon="0.64001">
        <ele>1216.77</ele>
        <time>2018-08-07T07:03:53Z</time>
      </trkpt>
      <trkpt lat="42.46485" lon="0.63993">
        <ele>1217.72</ele>
        <time>2018-08-07T07:03:54Z</time>
      </trkpt>
      <trkpt lat="42.46504" lon="0.63981">
        <ele>1218.01</ele>
        <time>2018-08-07T07:03:55Z</time>
      </trkpt>
      <trkpt lat="42.46523" lon="0.63973">
        <ele>1217.39</ele>
        <time>2018-08-07T07:03:56Z</time>
      </trkpt>
      <trkpt lat="42.46553" lon="0.63956">
        <ele>1221.28</ele>
        <time>2018-08-07T07:03:58Z</time>
      </trkpt>
      <trkpt lat="42.46572" lon="0.63935">
        <ele>1227.37</ele>
        <time>2018-08-07T07:04:00Z</time>
      </trkpt>
      <trkpt lat="42.46571" lon="0.63906">
        <ele>1233.1</ele>
        <time>2018-08-07T07:04:02Z</time>
      </trkpt>
      <trkpt lat="42.46564" lon="0.63883">
        <ele>1236.56</ele>
        <time>2018-08-07T07:04:04Z</time>
      </trkpt>
      <trkpt lat="42.46542" lon="0.63879">
        <ele>1238.3</ele>
        <time>2018-08-07T07:04:07Z</time>
      </trkpt>
      <trkpt lat="42.46509" lon="0.63912">
        <ele>1238.36</ele>
        <time>2018-08-07T07:04:09Z</time>
      </trkpt>
      <trkpt lat="42.46485" lon="0.63921">
        <ele>1238.2</ele>
        <time>2018-08-07T07:04:10Z</time>
      </trkpt>
      <trkpt lat="42.46451" lon="0.63936">
        <ele>1243.88</ele>
        <time>2018-08-07T07:04:12Z</time>
      </trkpt>
      <trkpt lat="42.46431" lon="0.63934">
        <ele>1245.45</ele>
        <time>2018-08-07T07:04:13Z</time>
      </trkpt>
      <trkpt lat="42.4641" lon="0.63927">
        <ele>1245.93</ele>
        <time>2018-08-07T07:04:14Z</time>
      </trkpt>
      <trkpt lat="42.464" lon="0.63901">
        <ele>1248.87</ele>
        <time>2018-08-07T07:04:15Z</time>
      </trkpt>
      <trkpt lat="42.46384" lon="0.63887">
        <ele>1252.55</ele>
        <time>2018-08-07T07:04:16Z</time>
      </trkpt>
      <trkpt lat="42.46364" lon="0.63878">
        <ele>1255.06</ele>
        <time>2018-08-07T07:04:17Z</time>
      </trkpt>
      <trkpt lat="42.46344" lon="0.63873">
        <ele>1258.61</ele>
        <time>2018-08-07T07:04:18Z</time>
      </trkpt>
      <trkpt lat="42.46322" lon="0.63869">
        <ele>1261.77</ele>
        <time>2018-08-07T07:04:19Z</time>
      </trkpt>
      <trkpt lat="42.46299" lon="0.63865">
        <ele>1263.42</ele>
        <time>2018-08-07T07:04:20Z</time>
      </trkpt>
      <trkpt lat="42.46277" lon="0.6386">
        <ele>1264.62</ele>
        <time>2018-08-07T07:04:21Z</time>
      </trkpt>
      <trkpt lat="42.46255" lon="0.63856">
        <ele>1266.38</ele>
        <time>2018-08-07T07:04:22Z</time>
      </trkpt>
      <trkpt lat="42.46234" lon="0.63852">
        <ele>1268.3</ele>
        <time>2018-08-07T07:04:23Z</time>
      </trkpt>
      <trkpt lat="42.46213" lon="0.63847">
        <ele>1270.28</ele>
        <time>2018-08-07T07:04:24Z</time>
      </trkpt>
      <trkpt lat="42.46192" lon="0.63841">
        <ele>1272.98</ele>
        <time>2018-08-07T07:04:25Z</time>
      </trkpt>
      <trkpt lat="42.46172" lon="0.63829">
        <ele>1275.18</ele>
        <time>2018-08-07T07:04:26Z</time>
      </trkpt>
      <trkpt lat="42.46152" lon="0.63817">
        <ele>1277.95</ele>
        <time>2018-08-07T07:04:27Z</time>
      </trkpt>
      <trkpt lat="42.46135" lon="0.63805">
        <ele>1279.47</ele>
        <time>2018-08-07T07:04:28Z</time>
      </trkpt>
      <trkpt lat="42.46104" lon="0.63781">
        <ele>1281.68</ele>
        <time>2018-08-07T07:04:30Z</time>
      </trkpt>
      <trkpt lat="42.46087" lon="0.6375">
        <ele>1285.31</ele>
        <time>2018-08-07T07:04:32Z</time>
      </trkpt>
      <trkpt lat="42.46089" lon="0.63708">
        <ele>1287.18</ele>
        <time>2018-08-07T07:04:34Z</time>
      </trkpt>
      <trkpt lat="42.46098" lon="0.63667">
        <ele>1286.22</ele>
        <time>2018-08-07T07:04:36Z</time>
      </trkpt>
      <trkpt lat="42.46106" lon="0.63645">
        <ele>1286.16</ele>
        <time>2018-08-07T07:04:37Z</time>
      </trkpt>
      <trkpt lat="42.46121" lon="0.63616">
        <ele>1286.14</ele>
        <time>2018-08-07T07:04:38Z</time>
      </trkpt>
      <trkpt lat="42.46137" lon="0.6359">
        <ele>1286.83</ele>
        <time>2018-08-07T07:04:39Z</time>
      </trkpt>
      <trkpt lat="42.46165" lon="0.6356">
        <ele>1289.84</ele>
        <time>2018-08-07T07:04:40Z</time>
      </trkpt>
      <trkpt lat="42.46184" lon="0.63539">
        <ele>1291.44</ele>
        <time>2018-08-07T07:04:41Z</time>
      </trkpt>
      <trkpt lat="42.46198" lon="0.63515">
        <ele>1292.62</ele>
        <time>2018-08-07T07:04:42Z</time>
      </trkpt>
      <trkpt lat="42.4621" lon="0.63494">
        <ele>1293.68</ele>
        <time>2018-08-07T07:04:43Z</time>
      </trkpt>
      <trkpt lat="42.4622" lon="0.63471">
        <ele>1296.09</ele>
        <time>2018-08-07T07:04:44Z</time>
      </trkpt>
      <trkpt lat="42.46226" lon="0.63447">
        <ele>1296.82</ele>
        <time>2018-08-07T07:04:45Z</time>
      </trkpt>
      <trkpt lat="42.46234" lon="0.63423">
        <ele>1297.04</ele>
        <time>2018-08-07T07:04:46Z</time>
      </trkpt>
      <trkpt lat="42.46235" lon="0.63395">
        <ele>1297.8</ele>
        <time>2018-08-07T07:04:47Z</time>
      </trkpt>
      <trkpt lat="42.46234" lon="0.63365">
        <ele>1300.13</ele>
        <time>2018-08-07T07:04:48Z</time>
      </trkpt>
      <trkpt lat="42.46232" lon="0.63337">
        <ele>1302.23</ele>
        <time>2018-08-07T07:04:49Z</time>
      </trkpt>
      <trkpt lat="42.46226" lon="0.63311">
        <ele>1304.96</ele>
        <time>2018-08-07T07:04:50Z</time>
      </trkpt>
      <trkpt lat="42.46216" lon="0.63287">
        <ele>1307.88</ele>
        <time>2018-08-07T07:04:51Z</time>
      </trkpt>
      <trkpt lat="42.46206" lon="0.63265">
        <ele>1310.15</ele>
        <time>2018-08-07T07:04:52Z</time>
      </trkpt>
      <trkpt lat="42.46193" lon="0.63244">
        <ele>1312.24</ele>
        <time>2018-08-07T07:04:53Z</time>
      </trkpt>
      <trkpt lat="42.46181" lon="0.63225">
        <ele>1313.56</ele>
        <time>2018-08-07T07:04:54Z</time>
      </trkpt>
      <trkpt lat="42.4615" lon="0.63205">
        <ele>1314.99</ele>
        <time>2018-08-07T07:04:56Z</time>
      </trkpt>
      <trkpt lat="42.46121" lon="0.63207">
        <ele>1315.82</ele>
        <time>2018-08-07T07:04:58Z</time>
      </trkpt>
      <trkpt lat="42.46095" lon="0.63234">
        <ele>1316.74</ele>
        <time>2018-08-07T07:04:59Z</time>
      </trkpt>
      <trkpt lat="42.46071" lon="0.63269">
        <ele>1318.41</ele>
        <time>2018-08-07T07:05:00Z</time>
      </trkpt>
      <trkpt lat="42.46062" lon="0.63295">
        <ele>1321.71</ele>
        <time>2018-08-07T07:05:01Z</time>
      </trkpt>
      <trkpt lat="42.46049" lon="0.63316">
        <ele>1324.81</ele>
        <time>2018-08-07T07:05:02Z</time>
      </trkpt>
      <trkpt lat="42.46021" lon="0.63335">
        <ele>1330.84</ele>
        <time>2018-08-07T07:05:04Z</time>
      </trkpt>
      <trkpt lat="42.45987" lon="0.63329">
        <ele>1334.32</ele>
        <time>2018-08-07T07:05:06Z</time>
      </trkpt>
      <trkpt lat="42.4597" lon="0.6332">
        <ele>1335.59</ele>
        <time>2018-08-07T07:05:07Z</time>
      </trkpt>
      <trkpt lat="42.45947" lon="0.63291">
        <ele>1337.69</ele>
        <time>2018-08-07T07:05:09Z</time>
      </trkpt>
      <trkpt lat="42.45947" lon="0.63262">
        <ele>1339.4</ele>
        <time>2018-08-07T07:05:10Z</time>
      </trkpt>
      <trkpt lat="42.45946" lon="0.63235">
        <ele>1340.61</ele>
        <time>2018-08-07T07:05:11Z</time>
      </trkpt>
      <trkpt lat="42.45955" lon="0.63203">
        <ele>1342.37</ele>
        <time>2018-08-07T07:05:12Z</time>
      </trkpt>
      <trkpt lat="42.45963" lon="0.63177">
        <ele>1345</ele>
        <time>2018-08-07T07:05:13Z</time>
      </trkpt>
      <trkpt lat="42.45976" lon="0.63151">
        <ele>1347.19</ele>
        <time>2018-08-07T07:05:14Z</time>
      </trkpt>
      <trkpt lat="42.45991" lon="0.63125">
        <ele>1349.25</ele>
        <time>2018-08-07T07:05:15Z</time>
      </trkpt>
      <trkpt lat="42.46007" lon="0.63095">
        <ele>1351.27</ele>
        <time>2018-08-07T07:05:16Z</time>
      </trkpt>
      <trkpt lat="42.46023" lon="0.63067">
        <ele>1352.57</ele>
        <time>2018-08-07T07:05:17Z</time>
      </trkpt>
      <trkpt lat="42.46037" lon="0.6304">
        <ele>1354.36</ele>
        <time>2018-08-07T07:05:18Z</time>
      </trkpt>
      <trkpt lat="42.46049" lon="0.63016">
        <ele>1356.3</ele>
        <time>2018-08-07T07:05:19Z</time>
      </trkpt>
      <trkpt lat="42.4606" lon="0.62994">
        <ele>1358.28</ele>
        <time>2018-08-07T07:05:20Z</time>
      </trkpt>
      <trkpt lat="42.46072" lon="0.62972">
        <ele>1359.58</ele>
        <time>2018-08-07T07:05:21Z</time>
      </trkpt>
      <trkpt lat="42.46083" lon="0.62952">
        <ele>1360.66</ele>
        <time>2018-08-07T07:05:22Z</time>
      </trkpt>
      <trkpt lat="42.46097" lon="0.62934">
        <ele>1361.69</ele>
        <time>2018-08-07T07:05:23Z</time>
      </trkpt>
      <trkpt lat="42.46111" lon="0.62918">
        <ele>1363.4</ele>
        <time>2018-08-07T07:05:24Z</time>
      </trkpt>
      <trkpt lat="42.46138" lon="0.6289">
        <ele>1366.58</ele>
        <time>2018-08-07T07:05:26Z</time>
      </trkpt>
      <trkpt lat="42.46153" lon="0.62874">
        <ele>1367.67</ele>
        <time>2018-08-07T07:05:27Z</time>
      </trkpt>
      <trkpt lat="42.46168" lon="0.62857">
        <ele>1369.39</ele>
        <time>2018-08-07T07:05:28Z</time>
      </trkpt>
      <trkpt lat="42.4618" lon="0.62838">
        <ele>1370.61</ele>
        <time>2018-08-07T07:05:29Z</time>
      </trkpt>
      <trkpt lat="42.46193" lon="0.62817">
        <ele>1371.67</ele>
        <time>2018-08-07T07:05:30Z</time>
      </trkpt>
      <trkpt lat="42.46206" lon="0.62794">
        <ele>1373.39</ele>
        <time>2018-08-07T07:05:31Z</time>
      </trkpt>
      <trkpt lat="42.46215" lon="0.62768">
        <ele>1373.91</ele>
        <time>2018-08-07T07:05:32Z</time>
      </trkpt>
      <trkpt lat="42.46215" lon="0.62737">
        <ele>1375.46</ele>
        <time>2018-08-07T07:05:33Z</time>
      </trkpt>
      <trkpt lat="42.46224" lon="0.62709">
        <ele>1376.63</ele>
        <time>2018-08-07T07:05:34Z</time>
      </trkpt>
      <trkpt lat="42.46239" lon="0.62686">
        <ele>1378.38</ele>
        <time>2018-08-07T07:05:35Z</time>
      </trkpt>
      <trkpt lat="42.46252" lon="0.62664">
        <ele>1379.6</ele>
        <time>2018-08-07T07:05:36Z</time>
      </trkpt>
      <trkpt lat="42.46267" lon="0.62643">
        <ele>1380.67</ele>
        <time>2018-08-07T07:05:37Z</time>
      </trkpt>
      <trkpt lat="42.46288" lon="0.6263">
        <ele>1383.09</ele>
        <time>2018-08-07T07:05:38Z</time>
      </trkpt>
      <trkpt lat="42.46305" lon="0.62613">
        <ele>1384.52</ele>
        <time>2018-08-07T07:05:39Z</time>
      </trkpt>
      <trkpt lat="42.46318" lon="0.6259">
        <ele>1386.35</ele>
        <time>2018-08-07T07:05:40Z</time>
      </trkpt>
      <trkpt lat="42.46328" lon="0.62563">
        <ele>1387.59</ele>
        <time>2018-08-07T07:05:41Z</time>
      </trkpt>
      <trkpt lat="42.46337" lon="0.62536">
        <ele>1388.67</ele>
        <time>2018-08-07T07:05:42Z</time>
      </trkpt>
      <trkpt lat="42.46345" lon="0.62511">
        <ele>1390.39</ele>
        <time>2018-08-07T07:05:43Z</time>
      </trkpt>
      <trkpt lat="42.46352" lon="0.62487">
        <ele>1392.31</ele>
        <time>2018-08-07T07:05:44Z</time>
      </trkpt>
      <trkpt lat="42.46359" lon="0.62462">
        <ele>1393.58</ele>
        <time>2018-08-07T07:05:45Z</time>
      </trkpt>
      <trkpt lat="42.46366" lon="0.62439">
        <ele>1394.67</ele>
        <time>2018-08-07T07:05:46Z</time>
      </trkpt>
      <trkpt lat="42.46372" lon="0.62416">
        <ele>1395.69</ele>
        <time>2018-08-07T07:05:47Z</time>
      </trkpt>
      <trkpt lat="42.4638" lon="0.62393">
        <ele>1396.7</ele>
        <time>2018-08-07T07:05:48Z</time>
      </trkpt>
      <trkpt lat="42.46387" lon="0.62369">
        <ele>1397</ele>
        <time>2018-08-07T07:05:49Z</time>
      </trkpt>
      <trkpt lat="42.46395" lon="0.62344">
        <ele>1397.79</ele>
        <time>2018-08-07T07:05:50Z</time>
      </trkpt>
      <trkpt lat="42.46402" lon="0.6232">
        <ele>1398.03</ele>
        <time>2018-08-07T07:05:51Z</time>
      </trkpt>
      <trkpt lat="42.46409" lon="0.62296">
        <ele>1398.8</ele>
        <time>2018-08-07T07:05:52Z</time>
      </trkpt>
      <trkpt lat="42.46414" lon="0.6227">
        <ele>1399.73</ele>
        <time>2018-08-07T07:05:53Z</time>
      </trkpt>
      <trkpt lat="42.46417" lon="0.62243">
        <ele>1400.01</ele>
        <time>2018-08-07T07:05:54Z</time>
      </trkpt>
      <trkpt lat="42.4642" lon="0.62217">
        <ele>1400.79</ele>
        <time>2018-08-07T07:05:55Z</time>
      </trkpt>
      <trkpt lat="42.46423" lon="0.62191">
        <ele>1401.03</ele>
        <time>2018-08-07T07:05:56Z</time>
      </trkpt>
      <trkpt lat="42.46426" lon="0.62165">
        <ele>1401.1</ele>
        <time>2018-08-07T07:05:57Z</time>
      </trkpt>
      <trkpt lat="42.46428" lon="0.6214">
        <ele>1401.82</ele>
        <time>2018-08-07T07:05:58Z</time>
      </trkpt>
      <trkpt lat="42.46431" lon="0.62115">
        <ele>1402.04</ele>
        <time>2018-08-07T07:05:59Z</time>
      </trkpt>
      <trkpt lat="42.46436" lon="0.62065">
        <ele>1402.12</ele>
        <time>2018-08-07T07:06:01Z</time>
      </trkpt>
      <trkpt lat="42.46442" lon="0.6204">
        <ele>1402.83</ele>
        <time>2018-08-07T07:06:02Z</time>
      </trkpt>
      <trkpt lat="42.46449" lon="0.62015">
        <ele>1403.04</ele>
        <time>2018-08-07T07:06:03Z</time>
      </trkpt>
      <trkpt lat="42.46456" lon="0.61991">
        <ele>1403.1</ele>
        <time>2018-08-07T07:06:04Z</time>
      </trkpt>
      <trkpt lat="42.46464" lon="0.61965">
        <ele>1403.82</ele>
        <time>2018-08-07T07:06:05Z</time>
      </trkpt>
      <trkpt lat="42.46472" lon="0.61938">
        <ele>1402.64</ele>
        <time>2018-08-07T07:06:06Z</time>
      </trkpt>
      <trkpt lat="42.4648" lon="0.61913">
        <ele>1401.58</ele>
        <time>2018-08-07T07:06:07Z</time>
      </trkpt>
      <trkpt lat="42.46487" lon="0.61887">
        <ele>1400.57</ele>
        <time>2018-08-07T07:06:08Z</time>
      </trkpt>
      <trkpt lat="42.46496" lon="0.61861">
        <ele>1400.26</ele>
        <time>2018-08-07T07:06:09Z</time>
      </trkpt>
      <trkpt lat="42.46503" lon="0.61834">
        <ele>1400.17</ele>
        <time>2018-08-07T07:06:10Z</time>
      </trkpt>
      <trkpt lat="42.46511" lon="0.61809">
        <ele>1399.44</ele>
        <time>2018-08-07T07:06:11Z</time>
      </trkpt>
      <trkpt lat="42.46519" lon="0.61782">
        <ele>1398.52</ele>
        <time>2018-08-07T07:06:12Z</time>
      </trkpt>
      <trkpt lat="42.46527" lon="0.61756">
        <ele>1398.25</ele>
        <time>2018-08-07T07:06:13Z</time>
      </trkpt>
      <trkpt lat="42.46534" lon="0.6173">
        <ele>1397.47</ele>
        <time>2018-08-07T07:06:14Z</time>
      </trkpt>
      <trkpt lat="42.46542" lon="0.61703">
        <ele>1397.23</ele>
        <time>2018-08-07T07:06:15Z</time>
      </trkpt>
      <trkpt lat="42.46551" lon="0.61677">
        <ele>1397.16</ele>
        <time>2018-08-07T07:06:16Z</time>
      </trkpt>
      <trkpt lat="42.46559" lon="0.61649">
        <ele>1396.44</ele>
        <time>2018-08-07T07:06:17Z</time>
      </trkpt>
      <trkpt lat="42.46567" lon="0.61622">
        <ele>1396.22</ele>
        <time>2018-08-07T07:06:18Z</time>
      </trkpt>
      <trkpt lat="42.46575" lon="0.61595">
        <ele>1396.16</ele>
        <time>2018-08-07T07:06:19Z</time>
      </trkpt>
      <trkpt lat="42.46583" lon="0.61568">
        <ele>1394.74</ele>
        <time>2018-08-07T07:06:20Z</time>
      </trkpt>
      <trkpt lat="42.46591" lon="0.6154">
        <ele>1394.31</ele>
        <time>2018-08-07T07:06:21Z</time>
      </trkpt>
      <trkpt lat="42.46599" lon="0.61513">
        <ele>1393.48</ele>
        <time>2018-08-07T07:06:22Z</time>
      </trkpt>
      <trkpt lat="42.46607" lon="0.61485">
        <ele>1393.24</ele>
        <time>2018-08-07T07:06:23Z</time>
      </trkpt>
      <trkpt lat="42.46616" lon="0.61457">
        <ele>1392.46</ele>
        <time>2018-08-07T07:06:24Z</time>
      </trkpt>
      <trkpt lat="42.46625" lon="0.61429">
        <ele>1392.23</ele>
        <time>2018-08-07T07:06:25Z</time>
      </trkpt>
      <trkpt lat="42.46633" lon="0.614">
        <ele>1392.16</ele>
        <time>2018-08-07T07:06:26Z</time>
      </trkpt>
      <trkpt lat="42.46641" lon="0.61373">
        <ele>1391.44</ele>
        <time>2018-08-07T07:06:27Z</time>
      </trkpt>
      <trkpt lat="42.46649" lon="0.61346">
        <ele>1389.82</ele>
        <time>2018-08-07T07:06:28Z</time>
      </trkpt>
      <trkpt lat="42.46657" lon="0.61318">
        <ele>1389.34</ele>
        <time>2018-08-07T07:06:29Z</time>
      </trkpt>
      <trkpt lat="42.46666" lon="0.61291">
        <ele>1388.49</ele>
        <time>2018-08-07T07:06:30Z</time>
      </trkpt>
      <trkpt lat="42.46674" lon="0.61265">
        <ele>1388.24</ele>
        <time>2018-08-07T07:06:31Z</time>
      </trkpt>
      <trkpt lat="42.46682" lon="0.6124">
        <ele>1388.16</ele>
        <time>2018-08-07T07:06:32Z</time>
      </trkpt>
      <trkpt lat="42.4669" lon="0.61216">
        <ele>1387.44</ele>
        <time>2018-08-07T07:06:33Z</time>
      </trkpt>
      <trkpt lat="42.467" lon="0.61195">
        <ele>1387.22</ele>
        <time>2018-08-07T07:06:34Z</time>
      </trkpt>
      <trkpt lat="42.46715" lon="0.61176">
        <ele>1387.16</ele>
        <time>2018-08-07T07:06:35Z</time>
      </trkpt>
      <trkpt lat="42.46732" lon="0.61158">
        <ele>1388.54</ele>
        <time>2018-08-07T07:06:36Z</time>
      </trkpt>
      <trkpt lat="42.46752" lon="0.61141">
        <ele>1389.65</ele>
        <time>2018-08-07T07:06:37Z</time>
      </trkpt>
      <trkpt lat="42.46771" lon="0.6112">
        <ele>1389.29</ele>
        <time>2018-08-07T07:06:38Z</time>
      </trkpt>
      <trkpt lat="42.46788" lon="0.611">
        <ele>1389.88</ele>
        <time>2018-08-07T07:06:39Z</time>
      </trkpt>
      <trkpt lat="42.46805" lon="0.61081">
        <ele>1390.05</ele>
        <time>2018-08-07T07:06:40Z</time>
      </trkpt>
      <trkpt lat="42.46822" lon="0.61059">
        <ele>1391.51</ele>
        <time>2018-08-07T07:06:41Z</time>
      </trkpt>
      <trkpt lat="42.46839" lon="0.61039">
        <ele>1391.94</ele>
        <time>2018-08-07T07:06:42Z</time>
      </trkpt>
      <trkpt lat="42.46857" lon="0.61019">
        <ele>1392.77</ele>
        <time>2018-08-07T07:06:43Z</time>
      </trkpt>
      <trkpt lat="42.46873" lon="0.60999">
        <ele>1393.72</ele>
        <time>2018-08-07T07:06:44Z</time>
      </trkpt>
      <trkpt lat="42.469" lon="0.60965">
        <ele>1394.09</ele>
        <time>2018-08-07T07:06:46Z</time>
      </trkpt>
      <trkpt lat="42.46913" lon="0.60944">
        <ele>1394.12</ele>
        <time>2018-08-07T07:06:47Z</time>
      </trkpt>
      <trkpt lat="42.46925" lon="0.60921">
        <ele>1393.43</ele>
        <time>2018-08-07T07:06:48Z</time>
      </trkpt>
      <trkpt lat="42.46932" lon="0.60889">
        <ele>1393.92</ele>
        <time>2018-08-07T07:06:49Z</time>
      </trkpt>
      <trkpt lat="42.46942" lon="0.60861">
        <ele>1394.77</ele>
        <time>2018-08-07T07:06:50Z</time>
      </trkpt>
      <trkpt lat="42.46951" lon="0.60832">
        <ele>1395.72</ele>
        <time>2018-08-07T07:06:51Z</time>
      </trkpt>
      <trkpt lat="42.4696" lon="0.60803">
        <ele>1396.01</ele>
        <time>2018-08-07T07:06:52Z</time>
      </trkpt>
      <trkpt lat="42.46971" lon="0.60774">
        <ele>1396.79</ele>
        <time>2018-08-07T07:06:53Z</time>
      </trkpt>
      <trkpt lat="42.4698" lon="0.60743">
        <ele>1397.03</ele>
        <time>2018-08-07T07:06:54Z</time>
      </trkpt>
      <trkpt lat="42.4699" lon="0.60713">
        <ele>1397.8</ele>
        <time>2018-08-07T07:06:55Z</time>
      </trkpt>
      <trkpt lat="42.46999" lon="0.60682">
        <ele>1398.73</ele>
        <time>2018-08-07T07:06:56Z</time>
      </trkpt>
      <trkpt lat="42.47009" lon="0.60652">
        <ele>1399.71</ele>
        <time>2018-08-07T07:06:57Z</time>
      </trkpt>
      <trkpt lat="42.47019" lon="0.60621">
        <ele>1400.7</ele>
        <time>2018-08-07T07:06:58Z</time>
      </trkpt>
      <trkpt lat="42.47029" lon="0.6059">
        <ele>1401</ele>
        <time>2018-08-07T07:06:59Z</time>
      </trkpt>
      <trkpt lat="42.47039" lon="0.60559">
        <ele>1401.79</ele>
        <time>2018-08-07T07:07:00Z</time>
      </trkpt>
      <trkpt lat="42.47048" lon="0.6053">
        <ele>1402.73</ele>
        <time>2018-08-07T07:07:01Z</time>
      </trkpt>
      <trkpt lat="42.47058" lon="0.60501">
        <ele>1403.71</ele>
        <time>2018-08-07T07:07:02Z</time>
      </trkpt>
      <trkpt lat="42.47068" lon="0.60473">
        <ele>1404</ele>
        <time>2018-08-07T07:07:03Z</time>
      </trkpt>
      <trkpt lat="42.47078" lon="0.60447">
        <ele>1404.79</ele>
        <time>2018-08-07T07:07:04Z</time>
      </trkpt>
      <trkpt lat="42.47087" lon="0.60418">
        <ele>1405.03</ele>
        <time>2018-08-07T07:07:05Z</time>
      </trkpt>
      <trkpt lat="42.47096" lon="0.60391">
        <ele>1405.1</ele>
        <time>2018-08-07T07:07:06Z</time>
      </trkpt>
      <trkpt lat="42.47102" lon="0.60363">
        <ele>1405.82</ele>
        <time>2018-08-07T07:07:07Z</time>
      </trkpt>
      <trkpt lat="42.47105" lon="0.60333">
        <ele>1406.74</ele>
        <time>2018-08-07T07:07:08Z</time>
      </trkpt>
      <trkpt lat="42.47107" lon="0.60302">
        <ele>1407.71</ele>
        <time>2018-08-07T07:07:09Z</time>
      </trkpt>
      <trkpt lat="42.47107" lon="0.6027">
        <ele>1408.7</ele>
        <time>2018-08-07T07:07:10Z</time>
      </trkpt>
      <trkpt lat="42.47107" lon="0.60238">
        <ele>1409.7</ele>
        <time>2018-08-07T07:07:11Z</time>
      </trkpt>
      <trkpt lat="42.47107" lon="0.60206">
        <ele>1410.7</ele>
        <time>2018-08-07T07:07:12Z</time>
      </trkpt>
      <trkpt lat="42.47107" lon="0.60175">
        <ele>1411.7</ele>
        <time>2018-08-07T07:07:13Z</time>
      </trkpt>
      <trkpt lat="42.47107" lon="0.60145">
        <ele>1413.4</ele>
        <time>2018-08-07T07:07:14Z</time>
      </trkpt>
      <trkpt lat="42.47107" lon="0.60119">
        <ele>1415.31</ele>
        <time>2018-08-07T07:07:15Z</time>
      </trkpt>
      <trkpt lat="42.47107" lon="0.60077">
        <ele>1417.67</ele>
        <time>2018-08-07T07:07:17Z</time>
      </trkpt>
      <trkpt lat="42.47106" lon="0.6004">
        <ele>1419.7</ele>
        <time>2018-08-07T07:07:19Z</time>
      </trkpt>
      <trkpt lat="42.47106" lon="0.60004">
        <ele>1422.61</ele>
        <time>2018-08-07T07:07:21Z</time>
      </trkpt>
      <trkpt lat="42.47105" lon="0.59968">
        <ele>1425.39</ele>
        <time>2018-08-07T07:07:23Z</time>
      </trkpt>
      <trkpt lat="42.47106" lon="0.59933">
        <ele>1426.97</ele>
        <time>2018-08-07T07:07:25Z</time>
      </trkpt>
      <trkpt lat="42.47106" lon="0.59896">
        <ele>1428.73</ele>
        <time>2018-08-07T07:07:27Z</time>
      </trkpt>
      <trkpt lat="42.47107" lon="0.59858">
        <ele>1431.4</ele>
        <time>2018-08-07T07:07:29Z</time>
      </trkpt>
      <trkpt lat="42.47105" lon="0.59821">
        <ele>1433.67</ele>
        <time>2018-08-07T07:07:31Z</time>
      </trkpt>
      <trkpt lat="42.47105" lon="0.59783">
        <ele>1435.7</ele>
        <time>2018-08-07T07:07:33Z</time>
      </trkpt>
      <trkpt lat="42.47103" lon="0.59745">
        <ele>1437</ele>
        <time>2018-08-07T07:07:35Z</time>
      </trkpt>
      <trkpt lat="42.47101" lon="0.59704">
        <ele>1437.33</ele>
        <time>2018-08-07T07:07:37Z</time>
      </trkpt>
      <trkpt lat="42.47098" lon="0.59659">
        <ele>1437.15</ele>
        <time>2018-08-07T07:07:39Z</time>
      </trkpt>
      <trkpt lat="42.47096" lon="0.5961">
        <ele>1435.52</ele>
        <time>2018-08-07T07:07:41Z</time>
      </trkpt>
      <trkpt lat="42.47092" lon="0.59584">
        <ele>1434.55</ele>
        <time>2018-08-07T07:07:42Z</time>
      </trkpt>
      <trkpt lat="42.47086" lon="0.59559">
        <ele>1433.56</ele>
        <time>2018-08-07T07:07:43Z</time>
      </trkpt>
      <trkpt lat="42.47077" lon="0.59533">
        <ele>1433.26</ele>
        <time>2018-08-07T07:07:44Z</time>
      </trkpt>
      <trkpt lat="42.47067" lon="0.59508">
        <ele>1432.47</ele>
        <time>2018-08-07T07:07:45Z</time>
      </trkpt>
      <trkpt lat="42.47058" lon="0.59483">
        <ele>1432.23</ele>
        <time>2018-08-07T07:07:46Z</time>
      </trkpt>
      <trkpt lat="42.47048" lon="0.59458">
        <ele>1431.46</ele>
        <time>2018-08-07T07:07:47Z</time>
      </trkpt>
      <trkpt lat="42.47038" lon="0.59433">
        <ele>1431.23</ele>
        <time>2018-08-07T07:07:48Z</time>
      </trkpt>
      <trkpt lat="42.47028" lon="0.59409">
        <ele>1431.16</ele>
        <time>2018-08-07T07:07:49Z</time>
      </trkpt>
      <trkpt lat="42.47018" lon="0.59386">
        <ele>1431.14</ele>
        <time>2018-08-07T07:07:50Z</time>
      </trkpt>
      <trkpt lat="42.4701" lon="0.59362">
        <ele>1430.43</ele>
        <time>2018-08-07T07:07:51Z</time>
      </trkpt>
      <trkpt lat="42.47002" lon="0.59338">
        <ele>1430.22</ele>
        <time>2018-08-07T07:07:52Z</time>
      </trkpt>
      <trkpt lat="42.46998" lon="0.59313">
        <ele>1429.46</ele>
        <time>2018-08-07T07:07:53Z</time>
      </trkpt>
      <trkpt lat="42.46994" lon="0.59286">
        <ele>1428.53</ele>
        <time>2018-08-07T07:07:54Z</time>
      </trkpt>
      <trkpt lat="42.46991" lon="0.59259">
        <ele>1428.25</ele>
        <time>2018-08-07T07:07:55Z</time>
      </trkpt>
      <trkpt lat="42.46987" lon="0.59231">
        <ele>1428.17</ele>
        <time>2018-08-07T07:07:56Z</time>
      </trkpt>
      <trkpt lat="42.46983" lon="0.59202">
        <ele>1427.44</ele>
        <time>2018-08-07T07:07:57Z</time>
      </trkpt>
      <trkpt lat="42.4698" lon="0.59172">
        <ele>1426.52</ele>
        <time>2018-08-07T07:07:58Z</time>
      </trkpt>
      <trkpt lat="42.46976" lon="0.59142">
        <ele>1426.25</ele>
        <time>2018-08-07T07:07:59Z</time>
      </trkpt>
      <trkpt lat="42.46972" lon="0.59112">
        <ele>1425.47</ele>
        <time>2018-08-07T07:08:00Z</time>
      </trkpt>
      <trkpt lat="42.46968" lon="0.59081">
        <ele>1425.23</ele>
        <time>2018-08-07T07:08:01Z</time>
      </trkpt>
      <trkpt lat="42.46964" lon="0.59051">
        <ele>1424.46</ele>
        <time>2018-08-07T07:08:02Z</time>
      </trkpt>
      <trkpt lat="42.4696" lon="0.5902">
        <ele>1423.53</ele>
        <time>2018-08-07T07:08:03Z</time>
      </trkpt>
      <trkpt lat="42.46956" lon="0.5899">
        <ele>1423.25</ele>
        <time>2018-08-07T07:08:04Z</time>
      </trkpt>
      <trkpt lat="42.46953" lon="0.5896">
        <ele>1422.47</ele>
        <time>2018-08-07T07:08:05Z</time>
      </trkpt>
      <trkpt lat="42.46953" lon="0.58931">
        <ele>1421.53</ele>
        <time>2018-08-07T07:08:06Z</time>
      </trkpt>
      <trkpt lat="42.46956" lon="0.58903">
        <ele>1419.85</ele>
        <time>2018-08-07T07:08:07Z</time>
      </trkpt>
      <trkpt lat="42.46961" lon="0.58877">
        <ele>1419.35</ele>
        <time>2018-08-07T07:08:08Z</time>
      </trkpt>
      <trkpt lat="42.46969" lon="0.58853">
        <ele>1419.19</ele>
        <time>2018-08-07T07:08:09Z</time>
      </trkpt>
      <trkpt lat="42.46983" lon="0.58831">
        <ele>1418.45</ele>
        <time>2018-08-07T07:08:10Z</time>
      </trkpt>
      <trkpt lat="42.46996" lon="0.58809">
        <ele>1418.23</ele>
        <time>2018-08-07T07:08:11Z</time>
      </trkpt>
      <trkpt lat="42.47009" lon="0.58789">
        <ele>1417.46</ele>
        <time>2018-08-07T07:08:12Z</time>
      </trkpt>
      <trkpt lat="42.47024" lon="0.58768">
        <ele>1417.23</ele>
        <time>2018-08-07T07:08:13Z</time>
      </trkpt>
      <trkpt lat="42.47047" lon="0.58747">
        <ele>1416.46</ele>
        <time>2018-08-07T07:08:14Z</time>
      </trkpt>
      <trkpt lat="42.47065" lon="0.58727">
        <ele>1415.53</ele>
        <time>2018-08-07T07:08:15Z</time>
      </trkpt>
      <trkpt lat="42.47082" lon="0.58708">
        <ele>1414.55</ele>
        <time>2018-08-07T07:08:16Z</time>
      </trkpt>
      <trkpt lat="42.471" lon="0.58688">
        <ele>1413.56</ele>
        <time>2018-08-07T07:08:17Z</time>
      </trkpt>
      <trkpt lat="42.47117" lon="0.58669">
        <ele>1411.86</ele>
        <time>2018-08-07T07:08:18Z</time>
      </trkpt>
      <trkpt lat="42.47135" lon="0.58654">
        <ele>1411.35</ele>
        <time>2018-08-07T07:08:19Z</time>
      </trkpt>
      <trkpt lat="42.47153" lon="0.58643">
        <ele>1411.9</ele>
        <time>2018-08-07T07:08:20Z</time>
      </trkpt>
      <trkpt lat="42.4717" lon="0.58632">
        <ele>1411.36</ele>
        <time>2018-08-07T07:08:21Z</time>
      </trkpt>
      <trkpt lat="42.47197" lon="0.58614">
        <ele>1412.06</ele>
        <time>2018-08-07T07:08:23Z</time>
      </trkpt>
      <trkpt lat="42.47218" lon="0.58592">
        <ele>1411.42</ele>
        <time>2018-08-07T07:08:25Z</time>
      </trkpt>
      <trkpt lat="42.47211" lon="0.58564">
        <ele>1408.85</ele>
        <time>2018-08-07T07:08:27Z</time>
      </trkpt>
      <trkpt lat="42.47186" lon="0.58524">
        <ele>1408.4</ele>
        <time>2018-08-07T07:08:29Z</time>
      </trkpt>
      <trkpt lat="42.4717" lon="0.5851">
        <ele>1408.91</ele>
        <time>2018-08-07T07:08:30Z</time>
      </trkpt>
      <trkpt lat="42.47135" lon="0.58492">
        <ele>1408.36</ele>
        <time>2018-08-07T07:08:31Z</time>
      </trkpt>
      <trkpt lat="42.47114" lon="0.58476">
        <ele>1408.9</ele>
        <time>2018-08-07T07:08:32Z</time>
      </trkpt>
      <trkpt lat="42.47097" lon="0.58461">
        <ele>1409.06</ele>
        <time>2018-08-07T07:08:33Z</time>
      </trkpt>
      <trkpt lat="42.4708" lon="0.58445">
        <ele>1409.11</ele>
        <time>2018-08-07T07:08:34Z</time>
      </trkpt>
      <trkpt lat="42.47065" lon="0.58431">
        <ele>1409.12</ele>
        <time>2018-08-07T07:08:35Z</time>
      </trkpt>
      <trkpt lat="42.4705" lon="0.58417">
        <ele>1408.43</ele>
        <time>2018-08-07T07:08:36Z</time>
      </trkpt>
      <trkpt lat="42.47027" lon="0.58384">
        <ele>1407.46</ele>
        <time>2018-08-07T07:08:38Z</time>
      </trkpt>
      <trkpt lat="42.47012" lon="0.5834">
        <ele>1408.77</ele>
        <time>2018-08-07T07:08:40Z</time>
      </trkpt>
      <trkpt lat="42.47014" lon="0.5831">
        <ele>1408.32</ele>
        <time>2018-08-07T07:08:41Z</time>
      </trkpt>
      <trkpt lat="42.47024" lon="0.58279">
        <ele>1406.09</ele>
        <time>2018-08-07T07:08:42Z</time>
      </trkpt>
      <trkpt lat="42.47025" lon="0.58249">
        <ele>1404.72</ele>
        <time>2018-08-07T07:08:43Z</time>
      </trkpt>
      <trkpt lat="42.47027" lon="0.5822">
        <ele>1403.61</ele>
        <time>2018-08-07T07:08:44Z</time>
      </trkpt>
      <trkpt lat="42.47029" lon="0.5819">
        <ele>1401.87</ele>
        <time>2018-08-07T07:08:45Z</time>
      </trkpt>
      <trkpt lat="42.47032" lon="0.5816">
        <ele>1401.35</ele>
        <time>2018-08-07T07:08:46Z</time>
      </trkpt>
      <trkpt lat="42.47037" lon="0.58131">
        <ele>1401.2</ele>
        <time>2018-08-07T07:08:47Z</time>
      </trkpt>
      <trkpt lat="42.47043" lon="0.58099">
        <ele>1400.45</ele>
        <time>2018-08-07T07:08:48Z</time>
      </trkpt>
      <trkpt lat="42.4705" lon="0.58067">
        <ele>1399.53</ele>
        <time>2018-08-07T07:08:49Z</time>
      </trkpt>
      <trkpt lat="42.47059" lon="0.58033">
        <ele>1397.85</ele>
        <time>2018-08-07T07:08:50Z</time>
      </trkpt>
      <trkpt lat="42.47068" lon="0.57999">
        <ele>1395.95</ele>
        <time>2018-08-07T07:08:51Z</time>
      </trkpt>
      <trkpt lat="42.47077" lon="0.57966">
        <ele>1394.67</ele>
        <time>2018-08-07T07:08:52Z</time>
      </trkpt>
      <trkpt lat="42.47085" lon="0.57935">
        <ele>1393.59</ele>
        <time>2018-08-07T07:08:53Z</time>
      </trkpt>
      <trkpt lat="42.47093" lon="0.57905">
        <ele>1392.57</ele>
        <time>2018-08-07T07:08:54Z</time>
      </trkpt>
      <trkpt lat="42.47101" lon="0.57875">
        <ele>1391.56</ele>
        <time>2018-08-07T07:08:55Z</time>
      </trkpt>
      <trkpt lat="42.47109" lon="0.57846">
        <ele>1390.56</ele>
        <time>2018-08-07T07:08:56Z</time>
      </trkpt>
      <trkpt lat="42.47116" lon="0.57818">
        <ele>1389.56</ele>
        <time>2018-08-07T07:08:57Z</time>
      </trkpt>
      <trkpt lat="42.47122" lon="0.5779">
        <ele>1388.56</ele>
        <time>2018-08-07T07:08:58Z</time>
      </trkpt>
      <trkpt lat="42.4712" lon="0.57761">
        <ele>1387.56</ele>
        <time>2018-08-07T07:08:59Z</time>
      </trkpt>
      <trkpt lat="42.47118" lon="0.5773">
        <ele>1386.56</ele>
        <time>2018-08-07T07:09:00Z</time>
      </trkpt>
      <trkpt lat="42.47113" lon="0.57698">
        <ele>1384.86</ele>
        <time>2018-08-07T07:09:01Z</time>
      </trkpt>
      <trkpt lat="42.47108" lon="0.57668">
        <ele>1383.65</ele>
        <time>2018-08-07T07:09:02Z</time>
      </trkpt>
      <trkpt lat="42.47103" lon="0.57637">
        <ele>1381.89</ele>
        <time>2018-08-07T07:09:03Z</time>
      </trkpt>
      <trkpt lat="42.47098" lon="0.57607">
        <ele>1380.66</ele>
        <time>2018-08-07T07:09:04Z</time>
      </trkpt>
      <trkpt lat="42.47095" lon="0.57577">
        <ele>1378.19</ele>
        <time>2018-08-07T07:09:05Z</time>
      </trkpt>
      <trkpt lat="42.47093" lon="0.57546">
        <ele>1376.75</ele>
        <time>2018-08-07T07:09:06Z</time>
      </trkpt>
      <trkpt lat="42.47095" lon="0.57515">
        <ele>1374.92</ele>
        <time>2018-08-07T07:09:07Z</time>
      </trkpt>
      <trkpt lat="42.47098" lon="0.57484">
        <ele>1373.67</ele>
        <time>2018-08-07T07:09:08Z</time>
      </trkpt>
      <trkpt lat="42.47099" lon="0.57455">
        <ele>1371.19</ele>
        <time>2018-08-07T07:09:09Z</time>
      </trkpt>
      <trkpt lat="42.47102" lon="0.57427">
        <ele>1369.05</ele>
        <time>2018-08-07T07:09:10Z</time>
      </trkpt>
      <trkpt lat="42.47105" lon="0.574">
        <ele>1367.71</ele>
        <time>2018-08-07T07:09:11Z</time>
      </trkpt>
      <trkpt lat="42.4711" lon="0.57376">
        <ele>1368</ele>
        <time>2018-08-07T07:09:12Z</time>
      </trkpt>
      <trkpt lat="42.47126" lon="0.57337">
        <ele>1366.51</ele>
        <time>2018-08-07T07:09:14Z</time>
      </trkpt>
      <trkpt lat="42.4714" lon="0.57309">
        <ele>1366.24</ele>
        <time>2018-08-07T07:09:15Z</time>
      </trkpt>
      <trkpt lat="42.47158" lon="0.57284">
        <ele>1366.16</ele>
        <time>2018-08-07T07:09:16Z</time>
      </trkpt>
      <trkpt lat="42.47182" lon="0.57264">
        <ele>1364.04</ele>
        <time>2018-08-07T07:09:17Z</time>
      </trkpt>
      <trkpt lat="42.472" lon="0.57242">
        <ele>1361.3</ele>
        <time>2018-08-07T07:09:18Z</time>
      </trkpt>
      <trkpt lat="42.47215" lon="0.5722">
        <ele>1359.78</ele>
        <time>2018-08-07T07:09:19Z</time>
      </trkpt>
      <trkpt lat="42.47226" lon="0.57197">
        <ele>1357.93</ele>
        <time>2018-08-07T07:09:20Z</time>
      </trkpt>
      <trkpt lat="42.47233" lon="0.57171">
        <ele>1355.97</ele>
        <time>2018-08-07T07:09:21Z</time>
      </trkpt>
      <trkpt lat="42.47237" lon="0.5714">
        <ele>1353.98</ele>
        <time>2018-08-07T07:09:22Z</time>
      </trkpt>
      <trkpt lat="42.47241" lon="0.5711">
        <ele>1352.69</ele>
        <time>2018-08-07T07:09:23Z</time>
      </trkpt>
      <trkpt lat="42.47243" lon="0.57077">
        <ele>1351.6</ele>
        <time>2018-08-07T07:09:24Z</time>
      </trkpt>
      <trkpt lat="42.47237" lon="0.57038">
        <ele>1351.97</ele>
        <time>2018-08-07T07:09:25Z</time>
      </trkpt>
      <trkpt lat="42.47236" lon="0.57006">
        <ele>1352.78</ele>
        <time>2018-08-07T07:09:26Z</time>
      </trkpt>
      <trkpt lat="42.47235" lon="0.56977">
        <ele>1355.13</ele>
        <time>2018-08-07T07:09:27Z</time>
      </trkpt>
      <trkpt lat="42.47235" lon="0.5695">
        <ele>1357.23</ele>
        <time>2018-08-07T07:09:28Z</time>
      </trkpt>
      <trkpt lat="42.47246" lon="0.56906">
        <ele>1359.66</ele>
        <time>2018-08-07T07:09:30Z</time>
      </trkpt>
      <trkpt lat="42.47266" lon="0.56871">
        <ele>1361</ele>
        <time>2018-08-07T07:09:32Z</time>
      </trkpt>
      <trkpt lat="42.47288" lon="0.56837">
        <ele>1362.03</ele>
        <time>2018-08-07T07:09:34Z</time>
      </trkpt>
      <trkpt lat="42.47309" lon="0.568">
        <ele>1362.12</ele>
        <time>2018-08-07T07:09:36Z</time>
      </trkpt>
      <trkpt lat="42.47321" lon="0.56781">
        <ele>1362.83</ele>
        <time>2018-08-07T07:09:37Z</time>
      </trkpt>
      <trkpt lat="42.47331" lon="0.56759">
        <ele>1363.04</ele>
        <time>2018-08-07T07:09:38Z</time>
      </trkpt>
      <trkpt lat="42.47341" lon="0.56736">
        <ele>1363.1</ele>
        <time>2018-08-07T07:09:39Z</time>
      </trkpt>
      <trkpt lat="42.47348" lon="0.56708">
        <ele>1363.82</ele>
        <time>2018-08-07T07:09:40Z</time>
      </trkpt>
      <trkpt lat="42.47353" lon="0.5668">
        <ele>1364.04</ele>
        <time>2018-08-07T07:09:41Z</time>
      </trkpt>
      <trkpt lat="42.47357" lon="0.56652">
        <ele>1364.1</ele>
        <time>2018-08-07T07:09:42Z</time>
      </trkpt>
      <trkpt lat="42.47361" lon="0.56622">
        <ele>1364.82</ele>
        <time>2018-08-07T07:09:43Z</time>
      </trkpt>
      <trkpt lat="42.47366" lon="0.56594">
        <ele>1365.74</ele>
        <time>2018-08-07T07:09:44Z</time>
      </trkpt>
      <trkpt lat="42.47375" lon="0.56566">
        <ele>1366.01</ele>
        <time>2018-08-07T07:09:45Z</time>
      </trkpt>
      <trkpt lat="42.47387" lon="0.56539">
        <ele>1367.49</ele>
        <time>2018-08-07T07:09:46Z</time>
      </trkpt>
      <trkpt lat="42.47402" lon="0.5651">
        <ele>1368.64</ele>
        <time>2018-08-07T07:09:47Z</time>
      </trkpt>
      <trkpt lat="42.47417" lon="0.5648">
        <ele>1369.68</ele>
        <time>2018-08-07T07:09:48Z</time>
      </trkpt>
      <trkpt lat="42.47432" lon="0.56451">
        <ele>1371.4</ele>
        <time>2018-08-07T07:09:49Z</time>
      </trkpt>
      <trkpt lat="42.47447" lon="0.56422">
        <ele>1372.61</ele>
        <time>2018-08-07T07:09:50Z</time>
      </trkpt>
      <trkpt lat="42.47461" lon="0.56395">
        <ele>1374.37</ele>
        <time>2018-08-07T07:09:51Z</time>
      </trkpt>
      <trkpt lat="42.47474" lon="0.56369">
        <ele>1375.6</ele>
        <time>2018-08-07T07:09:52Z</time>
      </trkpt>
      <trkpt lat="42.47487" lon="0.56346">
        <ele>1376.67</ele>
        <time>2018-08-07T07:09:53Z</time>
      </trkpt>
      <trkpt lat="42.47502" lon="0.56327">
        <ele>1377.69</ele>
        <time>2018-08-07T07:09:54Z</time>
      </trkpt>
      <trkpt lat="42.47521" lon="0.56311">
        <ele>1378.7</ele>
        <time>2018-08-07T07:09:55Z</time>
      </trkpt>
      <trkpt lat="42.47541" lon="0.56297">
        <ele>1379.7</ele>
        <time>2018-08-07T07:09:56Z</time>
      </trkpt>
      <trkpt lat="42.47562" lon="0.56283">
        <ele>1380.7</ele>
        <time>2018-08-07T07:09:57Z</time>
      </trkpt>
      <trkpt lat="42.47583" lon="0.56273">
        <ele>1382.4</ele>
        <time>2018-08-07T07:09:58Z</time>
      </trkpt>
      <trkpt lat="42.47606" lon="0.56267">
        <ele>1384.31</ele>
        <time>2018-08-07T07:09:59Z</time>
      </trkpt>
      <trkpt lat="42.47629" lon="0.56264">
        <ele>1384.88</ele>
        <time>2018-08-07T07:10:00Z</time>
      </trkpt>
      <trkpt lat="42.47652" lon="0.56262">
        <ele>1385.06</ele>
        <time>2018-08-07T07:10:01Z</time>
      </trkpt>
      <trkpt lat="42.47675" lon="0.5626">
        <ele>1385.81</ele>
        <time>2018-08-07T07:10:02Z</time>
      </trkpt>
      <trkpt lat="42.47697" lon="0.56258">
        <ele>1387.43</ele>
        <time>2018-08-07T07:10:03Z</time>
      </trkpt>
      <trkpt lat="42.47717" lon="0.56255">
        <ele>1388.62</ele>
        <time>2018-08-07T07:10:04Z</time>
      </trkpt>
      <trkpt lat="42.47735" lon="0.56249">
        <ele>1389.68</ele>
        <time>2018-08-07T07:10:05Z</time>
      </trkpt>
      <trkpt lat="42.47752" lon="0.56237">
        <ele>1391.39</ele>
        <time>2018-08-07T07:10:06Z</time>
      </trkpt>
      <trkpt lat="42.47768" lon="0.56222">
        <ele>1392.61</ele>
        <time>2018-08-07T07:10:07Z</time>
      </trkpt>
      <trkpt lat="42.47781" lon="0.562">
        <ele>1393.67</ele>
        <time>2018-08-07T07:10:08Z</time>
      </trkpt>
      <trkpt lat="42.47794" lon="0.56178">
        <ele>1394.69</ele>
        <time>2018-08-07T07:10:09Z</time>
      </trkpt>
      <trkpt lat="42.47804" lon="0.56151">
        <ele>1396.4</ele>
        <time>2018-08-07T07:10:10Z</time>
      </trkpt>
      <trkpt lat="42.47816" lon="0.56125">
        <ele>1396.91</ele>
        <time>2018-08-07T07:10:11Z</time>
      </trkpt>
      <trkpt lat="42.47829" lon="0.561">
        <ele>1397.76</ele>
        <time>2018-08-07T07:10:12Z</time>
      </trkpt>
      <trkpt lat="42.47844" lon="0.56076">
        <ele>1398.72</ele>
        <time>2018-08-07T07:10:13Z</time>
      </trkpt>
      <trkpt lat="42.47858" lon="0.56053">
        <ele>1399.71</ele>
        <time>2018-08-07T07:10:14Z</time>
      </trkpt>
      <trkpt lat="42.47875" lon="0.56029">
        <ele>1400.7</ele>
        <time>2018-08-07T07:10:15Z</time>
      </trkpt>
      <trkpt lat="42.47891" lon="0.56003">
        <ele>1401</ele>
        <time>2018-08-07T07:10:16Z</time>
      </trkpt>
      <trkpt lat="42.47907" lon="0.55977">
        <ele>1401.09</ele>
        <time>2018-08-07T07:10:17Z</time>
      </trkpt>
      <trkpt lat="42.47923" lon="0.55951">
        <ele>1401.12</ele>
        <time>2018-08-07T07:10:18Z</time>
      </trkpt>
      <trkpt lat="42.47939" lon="0.55925">
        <ele>1401.13</ele>
        <time>2018-08-07T07:10:19Z</time>
      </trkpt>
      <trkpt lat="42.47956" lon="0.55898">
        <ele>1401.13</ele>
        <time>2018-08-07T07:10:20Z</time>
      </trkpt>
      <trkpt lat="42.47973" lon="0.55871">
        <ele>1401.13</ele>
        <time>2018-08-07T07:10:21Z</time>
      </trkpt>
      <trkpt lat="42.4799" lon="0.55845">
        <ele>1401.83</ele>
        <time>2018-08-07T07:10:22Z</time>
      </trkpt>
      <trkpt lat="42.48006" lon="0.55819">
        <ele>1402.04</ele>
        <time>2018-08-07T07:10:23Z</time>
      </trkpt>
      <trkpt lat="42.48023" lon="0.55797">
        <ele>1402.1</ele>
        <time>2018-08-07T07:10:24Z</time>
      </trkpt>
      <trkpt lat="42.48039" lon="0.55776">
        <ele>1402.12</ele>
        <time>2018-08-07T07:10:25Z</time>
      </trkpt>
      <trkpt lat="42.48058" lon="0.55772">
        <ele>1402.83</ele>
        <time>2018-08-07T07:10:26Z</time>
      </trkpt>
      <trkpt lat="42.48077" lon="0.55765">
        <ele>1403.04</ele>
        <time>2018-08-07T07:10:27Z</time>
      </trkpt>
      <trkpt lat="42.48097" lon="0.55757">
        <ele>1401.7</ele>
        <time>2018-08-07T07:10:28Z</time>
      </trkpt>
      <trkpt lat="42.48115" lon="0.55744">
        <ele>1401.3</ele>
        <time>2018-08-07T07:10:29Z</time>
      </trkpt>
      <trkpt lat="42.48132" lon="0.55731">
        <ele>1401.88</ele>
        <time>2018-08-07T07:10:30Z</time>
      </trkpt>
      <trkpt lat="42.48148" lon="0.55714">
        <ele>1402.06</ele>
        <time>2018-08-07T07:10:31Z</time>
      </trkpt>
      <trkpt lat="42.48161" lon="0.55697">
        <ele>1402.11</ele>
        <time>2018-08-07T07:10:32Z</time>
      </trkpt>
      <trkpt lat="42.48162" lon="0.55671">
        <ele>1400.72</ele>
        <time>2018-08-07T07:10:33Z</time>
      </trkpt>
      <trkpt lat="42.48158" lon="0.55612">
        <ele>1402.21</ele>
        <time>2018-08-07T07:10:35Z</time>
      </trkpt>
      <trkpt lat="42.48153" lon="0.55574">
        <ele>1404.26</ele>
        <time>2018-08-07T07:10:36Z</time>
      </trkpt>
      <trkpt lat="42.48153" lon="0.55538">
        <ele>1406.97</ele>
        <time>2018-08-07T07:10:37Z</time>
      </trkpt>
      <trkpt lat="42.48155" lon="0.55507">
        <ele>1409.18</ele>
        <time>2018-08-07T07:10:38Z</time>
      </trkpt>
      <trkpt lat="42.48161" lon="0.5548">
        <ele>1410.55</ele>
        <time>2018-08-07T07:10:39Z</time>
      </trkpt>
      <trkpt lat="42.48168" lon="0.55454">
        <ele>1411.65</ele>
        <time>2018-08-07T07:10:40Z</time>
      </trkpt>
      <trkpt lat="42.48181" lon="0.55433">
        <ele>1411.29</ele>
        <time>2018-08-07T07:10:41Z</time>
      </trkpt>
      <trkpt lat="42.48195" lon="0.55411">
        <ele>1410.48</ele>
        <time>2018-08-07T07:10:42Z</time>
      </trkpt>
      <trkpt lat="42.48211" lon="0.5539">
        <ele>1410.23</ele>
        <time>2018-08-07T07:10:43Z</time>
      </trkpt>
      <trkpt lat="42.48228" lon="0.55368">
        <ele>1410.86</ele>
        <time>2018-08-07T07:10:44Z</time>
      </trkpt>
      <trkpt lat="42.48248" lon="0.55346">
        <ele>1410.35</ele>
        <time>2018-08-07T07:10:45Z</time>
      </trkpt>
      <trkpt lat="42.48266" lon="0.55326">
        <ele>1410.9</ele>
        <time>2018-08-07T07:10:46Z</time>
      </trkpt>
      <trkpt lat="42.48285" lon="0.55308">
        <ele>1411.06</ele>
        <time>2018-08-07T07:10:47Z</time>
      </trkpt>
      <trkpt lat="42.48304" lon="0.5529">
        <ele>1410.41</ele>
        <time>2018-08-07T07:10:48Z</time>
      </trkpt>
      <trkpt lat="42.48325" lon="0.55276">
        <ele>1410.91</ele>
        <time>2018-08-07T07:10:49Z</time>
      </trkpt>
      <trkpt lat="42.48345" lon="0.55266">
        <ele>1411.07</ele>
        <time>2018-08-07T07:10:50Z</time>
      </trkpt>
      <trkpt lat="42.48366" lon="0.5526">
        <ele>1411.81</ele>
        <time>2018-08-07T07:10:51Z</time>
      </trkpt>
      <trkpt lat="42.48391" lon="0.55254">
        <ele>1412.03</ele>
        <time>2018-08-07T07:10:52Z</time>
      </trkpt>
      <trkpt lat="42.48415" lon="0.55257">
        <ele>1411.4</ele>
        <time>2018-08-07T07:10:53Z</time>
      </trkpt>
      <trkpt lat="42.48438" lon="0.55252">
        <ele>1411.21</ele>
        <time>2018-08-07T07:10:54Z</time>
      </trkpt>
      <trkpt lat="42.48457" lon="0.55248">
        <ele>1411.15</ele>
        <time>2018-08-07T07:10:55Z</time>
      </trkpt>
      <trkpt lat="42.48492" lon="0.55238">
        <ele>1411.13</ele>
        <time>2018-08-07T07:10:57Z</time>
      </trkpt>
      <trkpt lat="42.48509" lon="0.55226">
        <ele>1411.83</ele>
        <time>2018-08-07T07:10:58Z</time>
      </trkpt>
      <trkpt lat="42.4853" lon="0.55193">
        <ele>1411.89</ele>
        <time>2018-08-07T07:11:00Z</time>
      </trkpt>
      <trkpt lat="42.48526" lon="0.55155">
        <ele>1408.4</ele>
        <time>2018-08-07T07:11:02Z</time>
      </trkpt>
      <trkpt lat="42.48504" lon="0.55134">
        <ele>1406.81</ele>
        <time>2018-08-07T07:11:03Z</time>
      </trkpt>
      <trkpt lat="42.48488" lon="0.55121">
        <ele>1406.33</ele>
        <time>2018-08-07T07:11:04Z</time>
      </trkpt>
      <trkpt lat="42.48449" lon="0.55099">
        <ele>1410.56</ele>
        <time>2018-08-07T07:11:06Z</time>
      </trkpt>
      <trkpt lat="42.48431" lon="0.55082">
        <ele>1413.06</ele>
        <time>2018-08-07T07:11:07Z</time>
      </trkpt>
      <trkpt lat="42.48415" lon="0.55063">
        <ele>1415.91</ele>
        <time>2018-08-07T07:11:08Z</time>
      </trkpt>
      <trkpt lat="42.48402" lon="0.55041">
        <ele>1417.46</ele>
        <time>2018-08-07T07:11:09Z</time>
      </trkpt>
      <trkpt lat="42.4839" lon="0.55017">
        <ele>1418.63</ele>
        <time>2018-08-07T07:11:10Z</time>
      </trkpt>
      <trkpt lat="42.48382" lon="0.54989">
        <ele>1419.68</ele>
        <time>2018-08-07T07:11:11Z</time>
      </trkpt>
      <trkpt lat="42.48389" lon="0.54953">
        <ele>1422.8</ele>
        <time>2018-08-07T07:11:12Z</time>
      </trkpt>
      <trkpt lat="42.48391" lon="0.54921">
        <ele>1425.83</ele>
        <time>2018-08-07T07:11:13Z</time>
      </trkpt>
      <trkpt lat="42.48392" lon="0.54887">
        <ele>1428.14</ele>
        <time>2018-08-07T07:11:14Z</time>
      </trkpt>
      <trkpt lat="42.48393" lon="0.54852">
        <ele>1430.23</ele>
        <time>2018-08-07T07:11:15Z</time>
      </trkpt>
      <trkpt lat="42.48395" lon="0.54818">
        <ele>1432.26</ele>
        <time>2018-08-07T07:11:16Z</time>
      </trkpt>
      <trkpt lat="42.484" lon="0.54782">
        <ele>1434.97</ele>
        <time>2018-08-07T07:11:17Z</time>
      </trkpt>
      <trkpt lat="42.48406" lon="0.54746">
        <ele>1437.18</ele>
        <time>2018-08-07T07:11:18Z</time>
      </trkpt>
      <trkpt lat="42.48413" lon="0.54709">
        <ele>1439.25</ele>
        <time>2018-08-07T07:11:19Z</time>
      </trkpt>
      <trkpt lat="42.4842" lon="0.54673">
        <ele>1441.26</ele>
        <time>2018-08-07T07:11:20Z</time>
      </trkpt>
      <trkpt lat="42.48427" lon="0.54637">
        <ele>1443.27</ele>
        <time>2018-08-07T07:11:21Z</time>
      </trkpt>
      <trkpt lat="42.48434" lon="0.546">
        <ele>1445.27</ele>
        <time>2018-08-07T07:11:22Z</time>
      </trkpt>
      <trkpt lat="42.4844" lon="0.54565">
        <ele>1446.57</ele>
        <time>2018-08-07T07:11:23Z</time>
      </trkpt>
      <trkpt lat="42.48446" lon="0.5453">
        <ele>1448.36</ele>
        <time>2018-08-07T07:11:24Z</time>
      </trkpt>
      <trkpt lat="42.48453" lon="0.54495">
        <ele>1450.3</ele>
        <time>2018-08-07T07:11:25Z</time>
      </trkpt>
      <trkpt lat="42.48459" lon="0.54461">
        <ele>1452.28</ele>
        <time>2018-08-07T07:11:26Z</time>
      </trkpt>
      <trkpt lat="42.48465" lon="0.54428">
        <ele>1453.58</ele>
        <time>2018-08-07T07:11:27Z</time>
      </trkpt>
      <trkpt lat="42.48471" lon="0.54394">
        <ele>1455.36</ele>
        <time>2018-08-07T07:11:28Z</time>
      </trkpt>
      <trkpt lat="42.48478" lon="0.54361">
        <ele>1456.6</ele>
        <time>2018-08-07T07:11:29Z</time>
      </trkpt>
      <trkpt lat="42.48486" lon="0.54328">
        <ele>1459.07</ele>
        <time>2018-08-07T07:11:30Z</time>
      </trkpt>
      <trkpt lat="42.48496" lon="0.54299">
        <ele>1460.51</ele>
        <time>2018-08-07T07:11:31Z</time>
      </trkpt>
      <trkpt lat="42.48509" lon="0.5427">
        <ele>1462.34</ele>
        <time>2018-08-07T07:11:32Z</time>
      </trkpt>
      <trkpt lat="42.48523" lon="0.54242">
        <ele>1463.59</ele>
        <time>2018-08-07T07:11:33Z</time>
      </trkpt>
      <trkpt lat="42.48537" lon="0.54217">
        <ele>1465.37</ele>
        <time>2018-08-07T07:11:34Z</time>
      </trkpt>
      <trkpt lat="42.4855" lon="0.54193">
        <ele>1467.3</ele>
        <time>2018-08-07T07:11:35Z</time>
      </trkpt>
      <trkpt lat="42.48563" lon="0.5417">
        <ele>1468.58</ele>
        <time>2018-08-07T07:11:36Z</time>
      </trkpt>
      <trkpt lat="42.48578" lon="0.54147">
        <ele>1469.67</ele>
        <time>2018-08-07T07:11:37Z</time>
      </trkpt>
      <trkpt lat="42.48594" lon="0.54123">
        <ele>1470.69</ele>
        <time>2018-08-07T07:11:38Z</time>
      </trkpt>
      <trkpt lat="42.48613" lon="0.54097">
        <ele>1470.3</ele>
        <time>2018-08-07T07:11:39Z</time>
      </trkpt>
      <trkpt lat="42.4863" lon="0.54071">
        <ele>1470.18</ele>
        <time>2018-08-07T07:11:40Z</time>
      </trkpt>
      <trkpt lat="42.48647" lon="0.54044">
        <ele>1470.85</ele>
        <time>2018-08-07T07:11:41Z</time>
      </trkpt>
      <trkpt lat="42.48666" lon="0.54017">
        <ele>1470.34</ele>
        <time>2018-08-07T07:11:42Z</time>
      </trkpt>
      <trkpt lat="42.48684" lon="0.5399">
        <ele>1469.49</ele>
        <time>2018-08-07T07:11:43Z</time>
      </trkpt>
      <trkpt lat="42.48702" lon="0.53962">
        <ele>1469.24</ele>
        <time>2018-08-07T07:11:44Z</time>
      </trkpt>
      <trkpt lat="42.48719" lon="0.53935">
        <ele>1468.46</ele>
        <time>2018-08-07T07:11:45Z</time>
      </trkpt>
      <trkpt lat="42.48737" lon="0.5391">
        <ele>1466.83</ele>
        <time>2018-08-07T07:11:46Z</time>
      </trkpt>
      <trkpt lat="42.48754" lon="0.53886">
        <ele>1466.34</ele>
        <time>2018-08-07T07:11:47Z</time>
      </trkpt>
      <trkpt lat="42.4877" lon="0.5386">
        <ele>1466.19</ele>
        <time>2018-08-07T07:11:48Z</time>
      </trkpt>
      <trkpt lat="42.48786" lon="0.53833">
        <ele>1463.35</ele>
        <time>2018-08-07T07:11:49Z</time>
      </trkpt>
      <trkpt lat="42.488" lon="0.53802">
        <ele>1461.1</ele>
        <time>2018-08-07T07:11:50Z</time>
      </trkpt>
      <trkpt lat="42.48813" lon="0.53772">
        <ele>1459.72</ele>
        <time>2018-08-07T07:11:51Z</time>
      </trkpt>
      <trkpt lat="42.48827" lon="0.53742">
        <ele>1459.31</ele>
        <time>2018-08-07T07:11:52Z</time>
      </trkpt>
      <trkpt lat="42.48837" lon="0.53713">
        <ele>1457.78</ele>
        <time>2018-08-07T07:11:53Z</time>
      </trkpt>
      <trkpt lat="42.48849" lon="0.53666">
        <ele>1453.06</ele>
        <time>2018-08-07T07:11:55Z</time>
      </trkpt>
      <trkpt lat="42.4885" lon="0.53638">
        <ele>1451.71</ele>
        <time>2018-08-07T07:11:56Z</time>
      </trkpt>
      <trkpt lat="42.48848" lon="0.53608">
        <ele>1449.9</ele>
        <time>2018-08-07T07:11:57Z</time>
      </trkpt>
      <trkpt lat="42.48847" lon="0.53578">
        <ele>1449.36</ele>
        <time>2018-08-07T07:11:58Z</time>
      </trkpt>
      <trkpt lat="42.48847" lon="0.53551">
        <ele>1448.5</ele>
        <time>2018-08-07T07:11:59Z</time>
      </trkpt>
      <trkpt lat="42.48834" lon="0.53509">
        <ele>1444.03</ele>
        <time>2018-08-07T07:12:01Z</time>
      </trkpt>
      <trkpt lat="42.48814" lon="0.53474">
        <ele>1440.69</ele>
        <time>2018-08-07T07:12:03Z</time>
      </trkpt>
      <trkpt lat="42.48796" lon="0.5346">
        <ele>1440.3</ele>
        <time>2018-08-07T07:12:04Z</time>
      </trkpt>
      <trkpt lat="42.48777" lon="0.53448">
        <ele>1440.18</ele>
        <time>2018-08-07T07:12:05Z</time>
      </trkpt>
      <trkpt lat="42.48751" lon="0.53421">
        <ele>1437.61</ele>
        <time>2018-08-07T07:12:07Z</time>
      </trkpt>
      <trkpt lat="42.4873" lon="0.53384">
        <ele>1435.35</ele>
        <time>2018-08-07T07:12:09Z</time>
      </trkpt>
      <trkpt lat="42.48724" lon="0.53359">
        <ele>1434.5</ele>
        <time>2018-08-07T07:12:10Z</time>
      </trkpt>
      <trkpt lat="42.48722" lon="0.5333">
        <ele>1433.54</ele>
        <time>2018-08-07T07:12:11Z</time>
      </trkpt>
      <trkpt lat="42.48724" lon="0.53304">
        <ele>1433.25</ele>
        <time>2018-08-07T07:12:12Z</time>
      </trkpt>
      <trkpt lat="42.48737" lon="0.53278">
        <ele>1432.47</ele>
        <time>2018-08-07T07:12:13Z</time>
      </trkpt>
      <trkpt lat="42.4875" lon="0.53251">
        <ele>1431.53</ele>
        <time>2018-08-07T07:12:14Z</time>
      </trkpt>
      <trkpt lat="42.4876" lon="0.53222">
        <ele>1431.25</ele>
        <time>2018-08-07T07:12:15Z</time>
      </trkpt>
      <trkpt lat="42.48779" lon="0.53195">
        <ele>1430.47</ele>
        <time>2018-08-07T07:12:16Z</time>
      </trkpt>
      <trkpt lat="42.48792" lon="0.53163">
        <ele>1428.13</ele>
        <time>2018-08-07T07:12:17Z</time>
      </trkpt>
      <trkpt lat="42.48802" lon="0.53132">
        <ele>1423.23</ele>
        <time>2018-08-07T07:12:18Z</time>
      </trkpt>
      <trkpt lat="42.4881" lon="0.531">
        <ele>1421.06</ele>
        <time>2018-08-07T07:12:19Z</time>
      </trkpt>
      <trkpt lat="42.48816" lon="0.53071">
        <ele>1419.01</ele>
        <time>2018-08-07T07:12:20Z</time>
      </trkpt>
      <trkpt lat="42.48825" lon="0.53045">
        <ele>1416.99</ele>
        <time>2018-08-07T07:12:21Z</time>
      </trkpt>
      <trkpt lat="42.48833" lon="0.53019">
        <ele>1415.69</ele>
        <time>2018-08-07T07:12:22Z</time>
      </trkpt>
      <trkpt lat="42.48841" lon="0.52996">
        <ele>1413.9</ele>
        <time>2018-08-07T07:12:23Z</time>
      </trkpt>
      <trkpt lat="42.48873" lon="0.5297">
        <ele>1409.7</ele>
        <time>2018-08-07T07:12:25Z</time>
      </trkpt>
      <trkpt lat="42.48889" lon="0.52956">
        <ele>1408.6</ele>
        <time>2018-08-07T07:12:26Z</time>
      </trkpt>
      <trkpt lat="42.48914" lon="0.52957">
        <ele>1407.57</ele>
        <time>2018-08-07T07:12:27Z</time>
      </trkpt>
      <trkpt lat="42.48948" lon="0.52946">
        <ele>1406.26</ele>
        <time>2018-08-07T07:12:29Z</time>
      </trkpt>
      <trkpt lat="42.48967" lon="0.52945">
        <ele>1405.47</ele>
        <time>2018-08-07T07:12:30Z</time>
      </trkpt>
      <trkpt lat="42.48979" lon="0.52968">
        <ele>1404.53</ele>
        <time>2018-08-07T07:12:31Z</time>
      </trkpt>
      <trkpt lat="42.48995" lon="0.52982">
        <ele>1404.25</ele>
        <time>2018-08-07T07:12:32Z</time>
      </trkpt>
      <trkpt lat="42.49025" lon="0.53009">
        <ele>1403.23</ele>
        <time>2018-08-07T07:12:34Z</time>
      </trkpt>
      <trkpt lat="42.49061" lon="0.53018">
        <ele>1402.23</ele>
        <time>2018-08-07T07:12:36Z</time>
      </trkpt>
      <trkpt lat="42.49094" lon="0.53022">
        <ele>1402.14</ele>
        <time>2018-08-07T07:12:38Z</time>
      </trkpt>
      <trkpt lat="42.49125" lon="0.53012">
        <ele>1399.82</ele>
        <time>2018-08-07T07:12:40Z</time>
      </trkpt>
      <trkpt lat="42.49136" lon="0.52991">
        <ele>1397.94</ele>
        <time>2018-08-07T07:12:41Z</time>
      </trkpt>
      <trkpt lat="42.49152" lon="0.52974">
        <ele>1397.37</ele>
        <time>2018-08-07T07:12:42Z</time>
      </trkpt>
      <trkpt lat="42.49165" lon="0.52952">
        <ele>1396.5</ele>
        <time>2018-08-07T07:12:43Z</time>
      </trkpt>
      <trkpt lat="42.4917" lon="0.52923">
        <ele>1394.84</ele>
        <time>2018-08-07T07:12:44Z</time>
      </trkpt>
      <trkpt lat="42.49176" lon="0.52894">
        <ele>1395.04</ele>
        <time>2018-08-07T07:12:45Z</time>
      </trkpt>
      <trkpt lat="42.49171" lon="0.52854">
        <ele>1393.7</ele>
        <time>2018-08-07T07:12:46Z</time>
      </trkpt>
      <trkpt lat="42.49155" lon="0.52805">
        <ele>1389.8</ele>
        <time>2018-08-07T07:12:47Z</time>
      </trkpt>
      <trkpt lat="42.49156" lon="0.52771">
        <ele>1385.83</ele>
        <time>2018-08-07T07:12:48Z</time>
      </trkpt>
      <trkpt lat="42.49161" lon="0.52738">
        <ele>1382.54</ele>
        <time>2018-08-07T07:12:49Z</time>
      </trkpt>
      <trkpt lat="42.49169" lon="0.52708">
        <ele>1380.15</ele>
        <time>2018-08-07T07:12:50Z</time>
      </trkpt>
      <trkpt lat="42.49177" lon="0.52681">
        <ele>1377.34</ele>
        <time>2018-08-07T07:12:51Z</time>
      </trkpt>
      <trkpt lat="42.49185" lon="0.52655">
        <ele>1375.09</ele>
        <time>2018-08-07T07:12:52Z</time>
      </trkpt>
      <trkpt lat="42.49196" lon="0.5263">
        <ele>1374.42</ele>
        <time>2018-08-07T07:12:53Z</time>
      </trkpt>
      <trkpt lat="42.49213" lon="0.52603">
        <ele>1372.82</ele>
        <time>2018-08-07T07:12:54Z</time>
      </trkpt>
      <trkpt lat="42.49225" lon="0.52577">
        <ele>1372.34</ele>
        <time>2018-08-07T07:12:55Z</time>
      </trkpt>
      <trkpt lat="42.49248" lon="0.52556">
        <ele>1368.69</ele>
        <time>2018-08-07T07:12:56Z</time>
      </trkpt>
      <trkpt lat="42.49263" lon="0.52535">
        <ele>1366.2</ele>
        <time>2018-08-07T07:12:57Z</time>
      </trkpt>
      <trkpt lat="42.49275" lon="0.52513">
        <ele>1364.05</ele>
        <time>2018-08-07T07:12:58Z</time>
      </trkpt>
      <trkpt lat="42.49279" lon="0.52484">
        <ele>1361.31</ele>
        <time>2018-08-07T07:12:59Z</time>
      </trkpt>
      <trkpt lat="42.49285" lon="0.52456">
        <ele>1359.08</ele>
        <time>2018-08-07T07:13:00Z</time>
      </trkpt>
      <trkpt lat="42.49288" lon="0.52428">
        <ele>1357.72</ele>
        <time>2018-08-07T07:13:01Z</time>
      </trkpt>
      <trkpt lat="42.4929" lon="0.52401">
        <ele>1357.31</ele>
        <time>2018-08-07T07:13:02Z</time>
      </trkpt>
      <trkpt lat="42.49278" lon="0.52375">
        <ele>1355.78</ele>
        <time>2018-08-07T07:13:03Z</time>
      </trkpt>
      <trkpt lat="42.49272" lon="0.5235">
        <ele>1353.93</ele>
        <time>2018-08-07T07:13:04Z</time>
      </trkpt>
      <trkpt lat="42.49264" lon="0.52329">
        <ele>1352.67</ele>
        <time>2018-08-07T07:13:05Z</time>
      </trkpt>
      <trkpt lat="42.49252" lon="0.5231">
        <ele>1350.89</ele>
        <time>2018-08-07T07:13:06Z</time>
      </trkpt>
      <trkpt lat="42.4924" lon="0.52291">
        <ele>1349.66</ele>
        <time>2018-08-07T07:13:07Z</time>
      </trkpt>
      <trkpt lat="42.4922" lon="0.52282">
        <ele>1347.89</ele>
        <time>2018-08-07T07:13:08Z</time>
      </trkpt>
      <trkpt lat="42.49201" lon="0.52272">
        <ele>1345.96</ele>
        <time>2018-08-07T07:13:09Z</time>
      </trkpt>
      <trkpt lat="42.49181" lon="0.52266">
        <ele>1344.68</ele>
        <time>2018-08-07T07:13:10Z</time>
      </trkpt>
      <trkpt lat="42.49163" lon="0.52263">
        <ele>1342.89</ele>
        <time>2018-08-07T07:13:11Z</time>
      </trkpt>
      <trkpt lat="42.49143" lon="0.52261">
        <ele>1341.66</ele>
        <time>2018-08-07T07:13:12Z</time>
      </trkpt>
      <trkpt lat="42.49108" lon="0.52265">
        <ele>1338.66</ele>
        <time>2018-08-07T07:13:14Z</time>
      </trkpt>
      <trkpt lat="42.49076" lon="0.52283">
        <ele>1337.27</ele>
        <time>2018-08-07T07:13:16Z</time>
      </trkpt>
      <trkpt lat="42.4906" lon="0.52297">
        <ele>1337.17</ele>
        <time>2018-08-07T07:13:17Z</time>
      </trkpt>
      <trkpt lat="42.49048" lon="0.52316">
        <ele>1337.84</ele>
        <time>2018-08-07T07:13:18Z</time>
      </trkpt>
      <trkpt lat="42.49034" lon="0.52337">
        <ele>1338.04</ele>
        <time>2018-08-07T07:13:19Z</time>
      </trkpt>
      <trkpt lat="42.49023" lon="0.52367">
        <ele>1336.7</ele>
        <time>2018-08-07T07:13:20Z</time>
      </trkpt>
      <trkpt lat="42.49012" lon="0.52389">
        <ele>1335.6</ele>
        <time>2018-08-07T07:13:21Z</time>
      </trkpt>
      <trkpt lat="42.48994" lon="0.52425">
        <ele>1335.17</ele>
        <time>2018-08-07T07:13:23Z</time>
      </trkpt>
      <trkpt lat="42.48983" lon="0.5246">
        <ele>1333.03</ele>
        <time>2018-08-07T07:13:25Z</time>
      </trkpt>
      <trkpt lat="42.48981" lon="0.52496">
        <ele>1331.51</ele>
        <time>2018-08-07T07:13:27Z</time>
      </trkpt>
      <trkpt lat="42.48992" lon="0.52527">
        <ele>1329.34</ele>
        <time>2018-08-07T07:13:29Z</time>
      </trkpt>
      <trkpt lat="42.49008" lon="0.52558">
        <ele>1329.15</ele>
        <time>2018-08-07T07:13:31Z</time>
      </trkpt>
      <trkpt lat="42.49021" lon="0.5259">
        <ele>1327.52</ele>
        <time>2018-08-07T07:13:33Z</time>
      </trkpt>
      <trkpt lat="42.49022" lon="0.52621">
        <ele>1325.56</ele>
        <time>2018-08-07T07:13:35Z</time>
      </trkpt>
      <trkpt lat="42.49008" lon="0.52647">
        <ele>1323.56</ele>
        <time>2018-08-07T07:13:37Z</time>
      </trkpt>
      <trkpt lat="42.48991" lon="0.5266">
        <ele>1321.56</ele>
        <time>2018-08-07T07:13:39Z</time>
      </trkpt>
      <trkpt lat="42.48968" lon="0.52647">
        <ele>1319.56</ele>
        <time>2018-08-07T07:13:41Z</time>
      </trkpt>
      <trkpt lat="42.48952" lon="0.52619">
        <ele>1319.26</ele>
        <time>2018-08-07T07:13:42Z</time>
      </trkpt>
      <trkpt lat="42.48945" lon="0.52595">
        <ele>1317.77</ele>
        <time>2018-08-07T07:13:43Z</time>
      </trkpt>
      <trkpt lat="42.48939" lon="0.52564">
        <ele>1318.02</ele>
        <time>2018-08-07T07:13:44Z</time>
      </trkpt>
      <trkpt lat="42.4894" lon="0.52519">
        <ele>1316.7</ele>
        <time>2018-08-07T07:13:45Z</time>
      </trkpt>
      <trkpt lat="42.48937" lon="0.52492">
        <ele>1314.9</ele>
        <time>2018-08-07T07:13:46Z</time>
      </trkpt>
      <trkpt lat="42.48931" lon="0.52466">
        <ele>1312.96</ele>
        <time>2018-08-07T07:13:47Z</time>
      </trkpt>
      <trkpt lat="42.48929" lon="0.52438">
        <ele>1310.28</ele>
        <time>2018-08-07T07:13:48Z</time>
      </trkpt>
      <trkpt lat="42.48928" lon="0.52412">
        <ele>1308.77</ele>
        <time>2018-08-07T07:13:49Z</time>
      </trkpt>
      <trkpt lat="42.48945" lon="0.52387">
        <ele>1306.22</ele>
        <time>2018-08-07T07:13:50Z</time>
      </trkpt>
      <trkpt lat="42.48954" lon="0.52361">
        <ele>1304.76</ele>
        <time>2018-08-07T07:13:51Z</time>
      </trkpt>
      <trkpt lat="42.48964" lon="0.52335">
        <ele>1302.22</ele>
        <time>2018-08-07T07:13:52Z</time>
      </trkpt>
      <trkpt lat="42.48975" lon="0.5231">
        <ele>1298.66</ele>
        <time>2018-08-07T07:13:53Z</time>
      </trkpt>
      <trkpt lat="42.48984" lon="0.52283">
        <ele>1296.19</ele>
        <time>2018-08-07T07:13:54Z</time>
      </trkpt>
      <trkpt lat="42.48988" lon="0.52252">
        <ele>1294.75</ele>
        <time>2018-08-07T07:13:55Z</time>
      </trkpt>
      <trkpt lat="42.48992" lon="0.52224">
        <ele>1293.62</ele>
        <time>2018-08-07T07:13:56Z</time>
      </trkpt>
      <trkpt lat="42.48996" lon="0.52199">
        <ele>1291.88</ele>
        <time>2018-08-07T07:13:57Z</time>
      </trkpt>
      <trkpt lat="42.49004" lon="0.52158">
        <ele>1288.68</ele>
        <time>2018-08-07T07:13:59Z</time>
      </trkpt>
      <trkpt lat="42.49018" lon="0.52126">
        <ele>1285.45</ele>
        <time>2018-08-07T07:14:01Z</time>
      </trkpt>
      <trkpt lat="42.49042" lon="0.52096">
        <ele>1283.55</ele>
        <time>2018-08-07T07:14:03Z</time>
      </trkpt>
      <trkpt lat="42.49059" lon="0.52081">
        <ele>1282.56</ele>
        <time>2018-08-07T07:14:04Z</time>
      </trkpt>
      <trkpt lat="42.49079" lon="0.52065">
        <ele>1281.56</ele>
        <time>2018-08-07T07:14:05Z</time>
      </trkpt>
      <trkpt lat="42.491" lon="0.5205">
        <ele>1280.56</ele>
        <time>2018-08-07T07:14:06Z</time>
      </trkpt>
      <trkpt lat="42.49123" lon="0.52034">
        <ele>1279.56</ele>
        <time>2018-08-07T07:14:07Z</time>
      </trkpt>
      <trkpt lat="42.49148" lon="0.52021">
        <ele>1278.56</ele>
        <time>2018-08-07T07:14:08Z</time>
      </trkpt>
      <trkpt lat="42.49172" lon="0.52008">
        <ele>1277.56</ele>
        <time>2018-08-07T07:14:09Z</time>
      </trkpt>
      <trkpt lat="42.49203" lon="0.51997">
        <ele>1275.16</ele>
        <time>2018-08-07T07:14:10Z</time>
      </trkpt>
      <trkpt lat="42.49228" lon="0.51987">
        <ele>1272.34</ele>
        <time>2018-08-07T07:14:11Z</time>
      </trkpt>
      <trkpt lat="42.49254" lon="0.51978">
        <ele>1270.09</ele>
        <time>2018-08-07T07:14:12Z</time>
      </trkpt>
      <trkpt lat="42.49278" lon="0.51972">
        <ele>1268.02</ele>
        <time>2018-08-07T07:14:13Z</time>
      </trkpt>
      <trkpt lat="42.49301" lon="0.51968">
        <ele>1266.7</ele>
        <time>2018-08-07T07:14:14Z</time>
      </trkpt>
      <trkpt lat="42.49322" lon="0.51968">
        <ele>1264.9</ele>
        <time>2018-08-07T07:14:15Z</time>
      </trkpt>
      <trkpt lat="42.49341" lon="0.51968">
        <ele>1263.66</ele>
        <time>2018-08-07T07:14:16Z</time>
      </trkpt>
      <trkpt lat="42.4936" lon="0.51967">
        <ele>1262.59</ele>
        <time>2018-08-07T07:14:17Z</time>
      </trkpt>
      <trkpt lat="42.49386" lon="0.51954">
        <ele>1261.26</ele>
        <time>2018-08-07T07:14:19Z</time>
      </trkpt>
      <trkpt lat="42.4941" lon="0.51922">
        <ele>1258.62</ele>
        <time>2018-08-07T07:14:21Z</time>
      </trkpt>
      <trkpt lat="42.49414" lon="0.51895">
        <ele>1255.65</ele>
        <time>2018-08-07T07:14:23Z</time>
      </trkpt>
      <trkpt lat="42.49406" lon="0.51871">
        <ele>1254.59</ele>
        <time>2018-08-07T07:14:24Z</time>
      </trkpt>
      <trkpt lat="42.4938" lon="0.51849">
        <ele>1253.57</ele>
        <time>2018-08-07T07:14:25Z</time>
      </trkpt>
      <trkpt lat="42.49348" lon="0.51825">
        <ele>1247.92</ele>
        <time>2018-08-07T07:14:27Z</time>
      </trkpt>
      <trkpt lat="42.49318" lon="0.51825">
        <ele>1244.57</ele>
        <time>2018-08-07T07:14:28Z</time>
      </trkpt>
      <trkpt lat="42.49297" lon="0.51823">
        <ele>1242.86</ele>
        <time>2018-08-07T07:14:29Z</time>
      </trkpt>
      <trkpt lat="42.49277" lon="0.51822">
        <ele>1240.25</ele>
        <time>2018-08-07T07:14:30Z</time>
      </trkpt>
      <trkpt lat="42.49258" lon="0.51824">
        <ele>1239.47</ele>
        <time>2018-08-07T07:14:31Z</time>
      </trkpt>
      <trkpt lat="42.4924" lon="0.51839">
        <ele>1237.83</ele>
        <time>2018-08-07T07:14:32Z</time>
      </trkpt>
      <trkpt lat="42.49221" lon="0.51849">
        <ele>1236.64</ele>
        <time>2018-08-07T07:14:33Z</time>
      </trkpt>
      <trkpt lat="42.49189" lon="0.51855">
        <ele>1235.27</ele>
        <time>2018-08-07T07:14:35Z</time>
      </trkpt>
      <trkpt lat="42.49152" lon="0.51852">
        <ele>1234.23</ele>
        <time>2018-08-07T07:14:37Z</time>
      </trkpt>
      <trkpt lat="42.4913" lon="0.51841">
        <ele>1233.46</ele>
        <time>2018-08-07T07:14:38Z</time>
      </trkpt>
      <trkpt lat="42.49112" lon="0.51803">
        <ele>1230.43</ele>
        <time>2018-08-07T07:14:40Z</time>
      </trkpt>
      <trkpt lat="42.49114" lon="0.51778">
        <ele>1229.52</ele>
        <time>2018-08-07T07:14:41Z</time>
      </trkpt>
      <trkpt lat="42.4913" lon="0.51745">
        <ele>1227.85</ele>
        <time>2018-08-07T07:14:42Z</time>
      </trkpt>
      <trkpt lat="42.49127" lon="0.51706">
        <ele>1223.97</ele>
        <time>2018-08-07T07:14:44Z</time>
      </trkpt>
      <trkpt lat="42.49116" lon="0.51676">
        <ele>1222.51</ele>
        <time>2018-08-07T07:14:46Z</time>
      </trkpt>
      <trkpt lat="42.49088" lon="0.51682">
        <ele>1218.45</ele>
        <time>2018-08-07T07:14:48Z</time>
      </trkpt>
      <trkpt lat="42.49034" lon="0.51713">
        <ele>1217.25</ele>
        <time>2018-08-07T07:14:50Z</time>
      </trkpt>
      <trkpt lat="42.49007" lon="0.51726">
        <ele>1217.17</ele>
        <time>2018-08-07T07:14:51Z</time>
      </trkpt>
      <trkpt lat="42.48983" lon="0.51735">
        <ele>1217.14</ele>
        <time>2018-08-07T07:14:52Z</time>
      </trkpt>
      <trkpt lat="42.48958" lon="0.51745">
        <ele>1217.13</ele>
        <time>2018-08-07T07:14:53Z</time>
      </trkpt>
      <trkpt lat="42.48931" lon="0.51754">
        <ele>1215.73</ele>
        <time>2018-08-07T07:14:54Z</time>
      </trkpt>
      <trkpt lat="42.48907" lon="0.5176">
        <ele>1211.81</ele>
        <time>2018-08-07T07:14:55Z</time>
      </trkpt>
      <trkpt lat="42.48886" lon="0.51765">
        <ele>1209.23</ele>
        <time>2018-08-07T07:14:56Z</time>
      </trkpt>
      <trkpt lat="42.48867" lon="0.51765">
        <ele>1207.06</ele>
        <time>2018-08-07T07:14:57Z</time>
      </trkpt>
      <trkpt lat="42.48847" lon="0.51766">
        <ele>1205.71</ele>
        <time>2018-08-07T07:14:58Z</time>
      </trkpt>
      <trkpt lat="42.48816" lon="0.51774">
        <ele>1203.57</ele>
        <time>2018-08-07T07:15:00Z</time>
      </trkpt>
      <trkpt lat="42.48783" lon="0.51791">
        <ele>1200.65</ele>
        <time>2018-08-07T07:15:02Z</time>
      </trkpt>
      <trkpt lat="42.48768" lon="0.51815">
        <ele>1200.29</ele>
        <time>2018-08-07T07:15:03Z</time>
      </trkpt>
      <trkpt lat="42.48751" lon="0.51836">
        <ele>1198.78</ele>
        <time>2018-08-07T07:15:04Z</time>
      </trkpt>
      <trkpt lat="42.48748" lon="0.51873">
        <ele>1197.62</ele>
        <time>2018-08-07T07:15:05Z</time>
      </trkpt>
      <trkpt lat="42.48751" lon="0.51908">
        <ele>1195.88</ele>
        <time>2018-08-07T07:15:06Z</time>
      </trkpt>
      <trkpt lat="42.48743" lon="0.51935">
        <ele>1194.65</ele>
        <time>2018-08-07T07:15:07Z</time>
      </trkpt>
      <trkpt lat="42.48737" lon="0.51959">
        <ele>1192.89</ele>
        <time>2018-08-07T07:15:08Z</time>
      </trkpt>
      <trkpt lat="42.48725" lon="0.52">
        <ele>1190.38</ele>
        <time>2018-08-07T07:15:10Z</time>
      </trkpt>
      <trkpt lat="42.48712" lon="0.52032">
        <ele>1188.33</ele>
        <time>2018-08-07T07:15:12Z</time>
      </trkpt>
      <trkpt lat="42.48688" lon="0.52023">
        <ele>1186.05</ele>
        <time>2018-08-07T07:15:14Z</time>
      </trkpt>
      <trkpt lat="42.48663" lon="0.51998">
        <ele>1185.91</ele>
        <time>2018-08-07T07:15:16Z</time>
      </trkpt>
      <trkpt lat="42.48657" lon="0.51957">
        <ele>1187.02</ele>
        <time>2018-08-07T07:15:18Z</time>
      </trkpt>
      <trkpt lat="42.48668" lon="0.51931">
        <ele>1187.1</ele>
        <time>2018-08-07T07:15:19Z</time>
      </trkpt>
      <trkpt lat="42.48695" lon="0.51895">
        <ele>1184.32</ele>
        <time>2018-08-07T07:15:20Z</time>
      </trkpt>
      <trkpt lat="42.48697" lon="0.5187">
        <ele>1181.39</ele>
        <time>2018-08-07T07:15:21Z</time>
      </trkpt>
      <trkpt lat="42.487" lon="0.51844">
        <ele>1179.11</ele>
        <time>2018-08-07T07:15:22Z</time>
      </trkpt>
      <trkpt lat="42.48699" lon="0.51818">
        <ele>1178.42</ele>
        <time>2018-08-07T07:15:23Z</time>
      </trkpt>
      <trkpt lat="42.48697" lon="0.51791">
        <ele>1177.52</ele>
        <time>2018-08-07T07:15:24Z</time>
      </trkpt>
      <trkpt lat="42.48689" lon="0.51763">
        <ele>1175.15</ele>
        <time>2018-08-07T07:15:25Z</time>
      </trkpt>
      <trkpt lat="42.48687" lon="0.51732">
        <ele>1173.03</ele>
        <time>2018-08-07T07:15:26Z</time>
      </trkpt>
      <trkpt lat="42.48686" lon="0.51701">
        <ele>1171.7</ele>
        <time>2018-08-07T07:15:27Z</time>
      </trkpt>
      <trkpt lat="42.48689" lon="0.51673">
        <ele>1169.9</ele>
        <time>2018-08-07T07:15:28Z</time>
      </trkpt>
      <trkpt lat="42.48692" lon="0.51645">
        <ele>1168.66</ele>
        <time>2018-08-07T07:15:29Z</time>
      </trkpt>
      <trkpt lat="42.48696" lon="0.51616">
        <ele>1167.59</ele>
        <time>2018-08-07T07:15:30Z</time>
      </trkpt>
      <trkpt lat="42.487" lon="0.51589">
        <ele>1167.27</ele>
        <time>2018-08-07T07:15:31Z</time>
      </trkpt>
      <trkpt lat="42.48714" lon="0.51569">
        <ele>1165.07</ele>
        <time>2018-08-07T07:15:32Z</time>
      </trkpt>
      <trkpt lat="42.48723" lon="0.51544">
        <ele>1164.41</ele>
        <time>2018-08-07T07:15:33Z</time>
      </trkpt>
      <trkpt lat="42.48751" lon="0.51528">
        <ele>1163.51</ele>
        <time>2018-08-07T07:15:34Z</time>
      </trkpt>
      <trkpt lat="42.48774" lon="0.51522">
        <ele>1163.25</ele>
        <time>2018-08-07T07:15:35Z</time>
      </trkpt>
      <trkpt lat="42.48817" lon="0.51513">
        <ele>1162.46</ele>
        <time>2018-08-07T07:15:36Z</time>
      </trkpt>
      <trkpt lat="42.48843" lon="0.51496">
        <ele>1162.23</ele>
        <time>2018-08-07T07:15:37Z</time>
      </trkpt>
      <trkpt lat="42.48868" lon="0.5148">
        <ele>1162.16</ele>
        <time>2018-08-07T07:15:38Z</time>
      </trkpt>
      <trkpt lat="42.48892" lon="0.51465">
        <ele>1162.14</ele>
        <time>2018-08-07T07:15:39Z</time>
      </trkpt>
      <trkpt lat="42.48917" lon="0.51451">
        <ele>1162.13</ele>
        <time>2018-08-07T07:15:40Z</time>
      </trkpt>
      <trkpt lat="42.4894" lon="0.51436">
        <ele>1162.13</ele>
        <time>2018-08-07T07:15:41Z</time>
      </trkpt>
      <trkpt lat="42.48961" lon="0.51421">
        <ele>1162.13</ele>
        <time>2018-08-07T07:15:42Z</time>
      </trkpt>
      <trkpt lat="42.48982" lon="0.51407">
        <ele>1162.13</ele>
        <time>2018-08-07T07:15:43Z</time>
      </trkpt>
      <trkpt lat="42.49003" lon="0.5139">
        <ele>1162.13</ele>
        <time>2018-08-07T07:15:44Z</time>
      </trkpt>
      <trkpt lat="42.49026" lon="0.51374">
        <ele>1162.83</ele>
        <time>2018-08-07T07:15:45Z</time>
      </trkpt>
      <trkpt lat="42.49046" lon="0.51357">
        <ele>1163.04</ele>
        <time>2018-08-07T07:15:46Z</time>
      </trkpt>
      <trkpt lat="42.49067" lon="0.51339">
        <ele>1162.4</ele>
        <time>2018-08-07T07:15:47Z</time>
      </trkpt>
      <trkpt lat="42.49086" lon="0.51321">
        <ele>1162.91</ele>
        <time>2018-08-07T07:15:48Z</time>
      </trkpt>
      <trkpt lat="42.49106" lon="0.51304">
        <ele>1162.36</ele>
        <time>2018-08-07T07:15:49Z</time>
      </trkpt>
      <trkpt lat="42.49125" lon="0.51286">
        <ele>1160.8</ele>
        <time>2018-08-07T07:15:50Z</time>
      </trkpt>
      <trkpt lat="42.49144" lon="0.51268">
        <ele>1159.63</ele>
        <time>2018-08-07T07:15:51Z</time>
      </trkpt>
      <trkpt lat="42.49159" lon="0.51246">
        <ele>1157.88</ele>
        <time>2018-08-07T07:15:52Z</time>
      </trkpt>
      <trkpt lat="42.49171" lon="0.5122">
        <ele>1154.56</ele>
        <time>2018-08-07T07:15:53Z</time>
      </trkpt>
      <trkpt lat="42.49185" lon="0.51195">
        <ele>1152.16</ele>
        <time>2018-08-07T07:15:54Z</time>
      </trkpt>
      <trkpt lat="42.49197" lon="0.51169">
        <ele>1150.74</ele>
        <time>2018-08-07T07:15:55Z</time>
      </trkpt>
      <trkpt lat="42.4921" lon="0.51146">
        <ele>1149.61</ele>
        <time>2018-08-07T07:15:56Z</time>
      </trkpt>
      <trkpt lat="42.49222" lon="0.51127">
        <ele>1145.77</ele>
        <time>2018-08-07T07:15:57Z</time>
      </trkpt>
      <trkpt lat="42.49237" lon="0.51111">
        <ele>1142.52</ele>
        <time>2018-08-07T07:15:58Z</time>
      </trkpt>
      <trkpt lat="42.49251" lon="0.51096">
        <ele>1141.55</ele>
        <time>2018-08-07T07:15:59Z</time>
      </trkpt>
      <trkpt lat="42.49267" lon="0.51084">
        <ele>1140.56</ele>
        <time>2018-08-07T07:16:00Z</time>
      </trkpt>
      <trkpt lat="42.49285" lon="0.51072">
        <ele>1140.26</ele>
        <time>2018-08-07T07:16:01Z</time>
      </trkpt>
      <trkpt lat="42.49315" lon="0.51063">
        <ele>1139.47</ele>
        <time>2018-08-07T07:16:02Z</time>
      </trkpt>
      <trkpt lat="42.4934" lon="0.51054">
        <ele>1137.83</ele>
        <time>2018-08-07T07:16:03Z</time>
      </trkpt>
      <trkpt lat="42.4936" lon="0.51042">
        <ele>1134.54</ele>
        <time>2018-08-07T07:16:04Z</time>
      </trkpt>
      <trkpt lat="42.49382" lon="0.51032">
        <ele>1132.15</ele>
        <time>2018-08-07T07:16:05Z</time>
      </trkpt>
      <trkpt lat="42.49404" lon="0.51023">
        <ele>1130.04</ele>
        <time>2018-08-07T07:16:06Z</time>
      </trkpt>
      <trkpt lat="42.49424" lon="0.51013">
        <ele>1128</ele>
        <time>2018-08-07T07:16:07Z</time>
      </trkpt>
      <trkpt lat="42.49447" lon="0.51003">
        <ele>1125.99</ele>
        <time>2018-08-07T07:16:08Z</time>
      </trkpt>
      <trkpt lat="42.49468" lon="0.50995">
        <ele>1123.99</ele>
        <time>2018-08-07T07:16:09Z</time>
      </trkpt>
      <trkpt lat="42.49489" lon="0.50986">
        <ele>1122.69</ele>
        <time>2018-08-07T07:16:10Z</time>
      </trkpt>
      <trkpt lat="42.49509" lon="0.50977">
        <ele>1121.6</ele>
        <time>2018-08-07T07:16:11Z</time>
      </trkpt>
      <trkpt lat="42.49529" lon="0.50967">
        <ele>1120.57</ele>
        <time>2018-08-07T07:16:12Z</time>
      </trkpt>
      <trkpt lat="42.49549" lon="0.50958">
        <ele>1119.56</ele>
        <time>2018-08-07T07:16:13Z</time>
      </trkpt>
      <trkpt lat="42.49568" lon="0.50946">
        <ele>1119.26</ele>
        <time>2018-08-07T07:16:14Z</time>
      </trkpt>
      <trkpt lat="42.49586" lon="0.50934">
        <ele>1116.37</ele>
        <time>2018-08-07T07:16:15Z</time>
      </trkpt>
      <trkpt lat="42.49604" lon="0.50921">
        <ele>1114.8</ele>
        <time>2018-08-07T07:16:16Z</time>
      </trkpt>
      <trkpt lat="42.49622" lon="0.50908">
        <ele>1113.63</ele>
        <time>2018-08-07T07:16:17Z</time>
      </trkpt>
      <trkpt lat="42.49639" lon="0.50894">
        <ele>1111.88</ele>
        <time>2018-08-07T07:16:18Z</time>
      </trkpt>
      <trkpt lat="42.49655" lon="0.50881">
        <ele>1111.36</ele>
        <time>2018-08-07T07:16:19Z</time>
      </trkpt>
      <trkpt lat="42.49671" lon="0.5087">
        <ele>1110.5</ele>
        <time>2018-08-07T07:16:20Z</time>
      </trkpt>
      <trkpt lat="42.49702" lon="0.50853">
        <ele>1110.16</ele>
        <time>2018-08-07T07:16:22Z</time>
      </trkpt>
      <trkpt lat="42.49722" lon="0.5086">
        <ele>1109.44</ele>
        <time>2018-08-07T07:16:23Z</time>
      </trkpt>
      <trkpt lat="42.49742" lon="0.50857">
        <ele>1107.82</ele>
        <time>2018-08-07T07:16:24Z</time>
      </trkpt>
      <trkpt lat="42.4976" lon="0.50853">
        <ele>1105.94</ele>
        <time>2018-08-07T07:16:25Z</time>
      </trkpt>
      <trkpt lat="42.4978" lon="0.50849">
        <ele>1102.57</ele>
        <time>2018-08-07T07:16:26Z</time>
      </trkpt>
      <trkpt lat="42.498" lon="0.5085">
        <ele>1098.76</ele>
        <time>2018-08-07T07:16:27Z</time>
      </trkpt>
      <trkpt lat="42.49818" lon="0.50852">
        <ele>1096.22</ele>
        <time>2018-08-07T07:16:28Z</time>
      </trkpt>
      <trkpt lat="42.49836" lon="0.50851">
        <ele>1094.06</ele>
        <time>2018-08-07T07:16:29Z</time>
      </trkpt>
      <trkpt lat="42.49871" lon="0.50852">
        <ele>1091.6</ele>
        <time>2018-08-07T07:16:31Z</time>
      </trkpt>
      <trkpt lat="42.4989" lon="0.50856">
        <ele>1089.87</ele>
        <time>2018-08-07T07:16:32Z</time>
      </trkpt>
      <trkpt lat="42.49923" lon="0.50867">
        <ele>1086.19</ele>
        <time>2018-08-07T07:16:34Z</time>
      </trkpt>
      <trkpt lat="42.49955" lon="0.50878">
        <ele>1084.32</ele>
        <time>2018-08-07T07:16:36Z</time>
      </trkpt>
      <trkpt lat="42.49977" lon="0.50872">
        <ele>1082.54</ele>
        <time>2018-08-07T07:16:38Z</time>
      </trkpt>
      <trkpt lat="42.50003" lon="0.50855">
        <ele>1083.78</ele>
        <time>2018-08-07T07:16:40Z</time>
      </trkpt>
      <trkpt lat="42.5003" lon="0.50848">
        <ele>1082.49</ele>
        <time>2018-08-07T07:16:42Z</time>
      </trkpt>
      <trkpt lat="42.50048" lon="0.5085">
        <ele>1082.24</ele>
        <time>2018-08-07T07:16:43Z</time>
      </trkpt>
      <trkpt lat="42.50072" lon="0.50877">
        <ele>1081.93</ele>
        <time>2018-08-07T07:16:45Z</time>
      </trkpt>
      <trkpt lat="42.50096" lon="0.5089">
        <ele>1082.11</ele>
        <time>2018-08-07T07:16:47Z</time>
      </trkpt>
      <trkpt lat="42.50121" lon="0.5088">
        <ele>1083.04</ele>
        <time>2018-08-07T07:16:49Z</time>
      </trkpt>
      <trkpt lat="42.50152" lon="0.5088">
        <ele>1082.21</ele>
        <time>2018-08-07T07:16:51Z</time>
      </trkpt>
      <trkpt lat="42.50187" lon="0.50893">
        <ele>1080.53</ele>
        <time>2018-08-07T07:16:53Z</time>
      </trkpt>
      <trkpt lat="42.50209" lon="0.50904">
        <ele>1079.55</ele>
        <time>2018-08-07T07:16:54Z</time>
      </trkpt>
      <trkpt lat="42.5023" lon="0.50915">
        <ele>1079.26</ele>
        <time>2018-08-07T07:16:55Z</time>
      </trkpt>
      <trkpt lat="42.5025" lon="0.50925">
        <ele>1079.17</ele>
        <time>2018-08-07T07:16:56Z</time>
      </trkpt>
      <trkpt lat="42.50271" lon="0.50935">
        <ele>1078.44</ele>
        <time>2018-08-07T07:16:57Z</time>
      </trkpt>
      <trkpt lat="42.5029" lon="0.50944">
        <ele>1078.22</ele>
        <time>2018-08-07T07:16:58Z</time>
      </trkpt>
      <trkpt lat="42.50325" lon="0.50951">
        <ele>1076.53</ele>
        <time>2018-08-07T07:17:00Z</time>
      </trkpt>
      <trkpt lat="42.50357" lon="0.50942">
        <ele>1075.26</ele>
        <time>2018-08-07T07:17:02Z</time>
      </trkpt>
      <trkpt lat="42.50383" lon="0.50951">
        <ele>1071.92</ele>
        <time>2018-08-07T07:17:04Z</time>
      </trkpt>
      <trkpt lat="42.50406" lon="0.5098">
        <ele>1070.29</ele>
        <time>2018-08-07T07:17:06Z</time>
      </trkpt>
      <trkpt lat="42.50432" lon="0.51003">
        <ele>1067.62</ele>
        <time>2018-08-07T07:17:08Z</time>
      </trkpt>
      <trkpt lat="42.5046" lon="0.51007">
        <ele>1066.96</ele>
        <time>2018-08-07T07:17:10Z</time>
      </trkpt>
      <trkpt lat="42.505" lon="0.50992">
        <ele>1066.42</ele>
        <time>2018-08-07T07:17:12Z</time>
      </trkpt>
      <trkpt lat="42.50522" lon="0.50985">
        <ele>1066.22</ele>
        <time>2018-08-07T07:17:13Z</time>
      </trkpt>
      <trkpt lat="42.50543" lon="0.50973">
        <ele>1065.46</ele>
        <time>2018-08-07T07:17:14Z</time>
      </trkpt>
      <trkpt lat="42.50565" lon="0.50959">
        <ele>1063.83</ele>
        <time>2018-08-07T07:17:15Z</time>
      </trkpt>
      <trkpt lat="42.50587" lon="0.50946">
        <ele>1060.54</ele>
        <time>2018-08-07T07:17:16Z</time>
      </trkpt>
      <trkpt lat="42.50608" lon="0.50935">
        <ele>1058.85</ele>
        <time>2018-08-07T07:17:17Z</time>
      </trkpt>
      <trkpt lat="42.50629" lon="0.50927">
        <ele>1057.65</ele>
        <time>2018-08-07T07:17:18Z</time>
      </trkpt>
      <trkpt lat="42.5066" lon="0.50906">
        <ele>1054.45</ele>
        <time>2018-08-07T07:17:20Z</time>
      </trkpt>
      <trkpt lat="42.50692" lon="0.50873">
        <ele>1052.34</ele>
        <time>2018-08-07T07:17:22Z</time>
      </trkpt>
      <trkpt lat="42.50706" lon="0.50852">
        <ele>1051.49</ele>
        <time>2018-08-07T07:17:23Z</time>
      </trkpt>
      <trkpt lat="42.50715" lon="0.50804">
        <ele>1051.16</ele>
        <time>2018-08-07T07:17:25Z</time>
      </trkpt>
      <trkpt lat="42.50719" lon="0.50777">
        <ele>1051.84</ele>
        <time>2018-08-07T07:17:26Z</time>
      </trkpt>
      <trkpt lat="42.50709" lon="0.50742">
        <ele>1051.34</ele>
        <time>2018-08-07T07:17:27Z</time>
      </trkpt>
      <trkpt lat="42.50696" lon="0.50704">
        <ele>1048.14</ele>
        <time>2018-08-07T07:17:29Z</time>
      </trkpt>
      <trkpt lat="42.50699" lon="0.50673">
        <ele>1044.7</ele>
        <time>2018-08-07T07:17:31Z</time>
      </trkpt>
      <trkpt lat="42.50725" lon="0.5066">
        <ele>1039.77</ele>
        <time>2018-08-07T07:17:33Z</time>
      </trkpt>
      <trkpt lat="42.50744" lon="0.50676">
        <ele>1037.92</ele>
        <time>2018-08-07T07:17:34Z</time>
      </trkpt>
      <trkpt lat="42.50774" lon="0.50675">
        <ele>1038.77</ele>
        <time>2018-08-07T07:17:35Z</time>
      </trkpt>
      <trkpt lat="42.50794" lon="0.50677">
        <ele>1035.52</ele>
        <time>2018-08-07T07:17:36Z</time>
      </trkpt>
      <trkpt lat="42.50825" lon="0.50672">
        <ele>1032.65</ele>
        <time>2018-08-07T07:17:38Z</time>
      </trkpt>
      <trkpt lat="42.50852" lon="0.50684">
        <ele>1028.47</ele>
        <time>2018-08-07T07:17:40Z</time>
      </trkpt>
      <trkpt lat="42.50871" lon="0.50714">
        <ele>1025.64</ele>
        <time>2018-08-07T07:17:42Z</time>
      </trkpt>
      <trkpt lat="42.50864" lon="0.50763">
        <ele>1021.05</ele>
        <time>2018-08-07T07:17:44Z</time>
      </trkpt>
      <trkpt lat="42.50866" lon="0.50791">
        <ele>1021.1</ele>
        <time>2018-08-07T07:17:45Z</time>
      </trkpt>
      <trkpt lat="42.50849" lon="0.50826">
        <ele>1022.52</ele>
        <time>2018-08-07T07:17:46Z</time>
      </trkpt>
      <trkpt lat="42.50842" lon="0.50854">
        <ele>1022.25</ele>
        <time>2018-08-07T07:17:47Z</time>
      </trkpt>
      <trkpt lat="42.50835" lon="0.50881">
        <ele>1020.77</ele>
        <time>2018-08-07T07:17:48Z</time>
      </trkpt>
      <trkpt lat="42.50839" lon="0.50927">
        <ele>1016.27</ele>
        <time>2018-08-07T07:17:50Z</time>
      </trkpt>
      <trkpt lat="42.50846" lon="0.5095">
        <ele>1014.77</ele>
        <time>2018-08-07T07:17:51Z</time>
      </trkpt>
      <trkpt lat="42.50853" lon="0.50974">
        <ele>1014.32</ele>
        <time>2018-08-07T07:17:52Z</time>
      </trkpt>
      <trkpt lat="42.50865" lon="0.51017">
        <ele>1011.63</ele>
        <time>2018-08-07T07:17:54Z</time>
      </trkpt>
      <trkpt lat="42.5088" lon="0.51047">
        <ele>1007.25</ele>
        <time>2018-08-07T07:17:56Z</time>
      </trkpt>
      <trkpt lat="42.509" lon="0.51053">
        <ele>1004.62</ele>
        <time>2018-08-07T07:17:58Z</time>
      </trkpt>
      <trkpt lat="42.50919" lon="0.5104">
        <ele>1003.68</ele>
        <time>2018-08-07T07:18:00Z</time>
      </trkpt>
      <trkpt lat="42.50937" lon="0.51017">
        <ele>1002.27</ele>
        <time>2018-08-07T07:18:02Z</time>
      </trkpt>
      <trkpt lat="42.50941" lon="0.50976">
        <ele>1001.72</ele>
        <time>2018-08-07T07:18:04Z</time>
      </trkpt>
      <trkpt lat="42.50933" lon="0.50951">
        <ele>1002.71</ele>
        <time>2018-08-07T07:18:05Z</time>
      </trkpt>
      <trkpt lat="42.50926" lon="0.50909">
        <ele>1000.78</ele>
        <time>2018-08-07T07:18:07Z</time>
      </trkpt>
      <trkpt lat="42.50935" lon="0.50873">
        <ele>999.49</ele>
        <time>2018-08-07T07:18:09Z</time>
      </trkpt>
      <trkpt lat="42.50952" lon="0.50839">
        <ele>999.16</ele>
        <time>2018-08-07T07:18:11Z</time>
      </trkpt>
      <trkpt lat="42.50974" lon="0.50831">
        <ele>999.84</ele>
        <time>2018-08-07T07:18:12Z</time>
      </trkpt>
      <trkpt lat="42.50991" lon="0.50816">
        <ele>998.64</ele>
        <time>2018-08-07T07:18:13Z</time>
      </trkpt>
      <trkpt lat="42.51014" lon="0.50783">
        <ele>997.48</ele>
        <time>2018-08-07T07:18:15Z</time>
      </trkpt>
      <trkpt lat="42.51028" lon="0.50742">
        <ele>996.67</ele>
        <time>2018-08-07T07:18:17Z</time>
      </trkpt>
      <trkpt lat="42.51045" lon="0.50699">
        <ele>994.36</ele>
        <time>2018-08-07T07:18:19Z</time>
      </trkpt>
      <trkpt lat="42.51055" lon="0.50677">
        <ele>992.1</ele>
        <time>2018-08-07T07:18:20Z</time>
      </trkpt>
      <trkpt lat="42.51069" lon="0.50655">
        <ele>991.42</ele>
        <time>2018-08-07T07:18:21Z</time>
      </trkpt>
      <trkpt lat="42.51086" lon="0.50633">
        <ele>991.22</ele>
        <time>2018-08-07T07:18:22Z</time>
      </trkpt>
      <trkpt lat="42.511" lon="0.5061">
        <ele>990.46</ele>
        <time>2018-08-07T07:18:23Z</time>
      </trkpt>
      <trkpt lat="42.51117" lon="0.50588">
        <ele>989.53</ele>
        <time>2018-08-07T07:18:24Z</time>
      </trkpt>
      <trkpt lat="42.51132" lon="0.50563">
        <ele>989.95</ele>
        <time>2018-08-07T07:18:25Z</time>
      </trkpt>
      <trkpt lat="42.51148" lon="0.5054">
        <ele>989.38</ele>
        <time>2018-08-07T07:18:26Z</time>
      </trkpt>
      <trkpt lat="42.51168" lon="0.50497">
        <ele>982.99</ele>
        <time>2018-08-07T07:18:28Z</time>
      </trkpt>
      <trkpt lat="42.51188" lon="0.50457">
        <ele>982</ele>
        <time>2018-08-07T07:18:30Z</time>
      </trkpt>
      <trkpt lat="42.51183" lon="0.50433">
        <ele>980.69</ele>
        <time>2018-08-07T07:18:31Z</time>
      </trkpt>
      <trkpt lat="42.51196" lon="0.50392">
        <ele>979.97</ele>
        <time>2018-08-07T07:18:33Z</time>
      </trkpt>
      <trkpt lat="42.51208" lon="0.50372">
        <ele>979.38</ele>
        <time>2018-08-07T07:18:34Z</time>
      </trkpt>
      <trkpt lat="42.5122" lon="0.50351">
        <ele>978.51</ele>
        <time>2018-08-07T07:18:35Z</time>
      </trkpt>
      <trkpt lat="42.51234" lon="0.50333">
        <ele>975.44</ele>
        <time>2018-08-07T07:18:36Z</time>
      </trkpt>
      <trkpt lat="42.51248" lon="0.50314">
        <ele>973.82</ele>
        <time>2018-08-07T07:18:37Z</time>
      </trkpt>
      <trkpt lat="42.51267" lon="0.503">
        <ele>972.64</ele>
        <time>2018-08-07T07:18:38Z</time>
      </trkpt>
      <trkpt lat="42.51295" lon="0.50271">
        <ele>969.66</ele>
        <time>2018-08-07T07:18:40Z</time>
      </trkpt>
      <trkpt lat="42.51318" lon="0.50241">
        <ele>967.57</ele>
        <time>2018-08-07T07:18:42Z</time>
      </trkpt>
      <trkpt lat="42.51329" lon="0.50201">
        <ele>967.87</ele>
        <time>2018-08-07T07:18:44Z</time>
      </trkpt>
      <trkpt lat="42.51333" lon="0.50177">
        <ele>968.05</ele>
        <time>2018-08-07T07:18:45Z</time>
      </trkpt>
      <trkpt lat="42.51336" lon="0.5015">
        <ele>968.11</ele>
        <time>2018-08-07T07:18:46Z</time>
      </trkpt>
      <trkpt lat="42.51317" lon="0.50114">
        <ele>963.22</ele>
        <time>2018-08-07T07:18:47Z</time>
      </trkpt>
      <trkpt lat="42.51318" lon="0.50088">
        <ele>958.96</ele>
        <time>2018-08-07T07:18:48Z</time>
      </trkpt>
      <trkpt lat="42.51322" lon="0.50062">
        <ele>956.98</ele>
        <time>2018-08-07T07:18:49Z</time>
      </trkpt>
      <trkpt lat="42.51328" lon="0.50037">
        <ele>955.68</ele>
        <time>2018-08-07T07:18:50Z</time>
      </trkpt>
      <trkpt lat="42.51333" lon="0.50013">
        <ele>955.3</ele>
        <time>2018-08-07T07:18:51Z</time>
      </trkpt>
      <trkpt lat="42.51343" lon="0.49973">
        <ele>952.62</ele>
        <time>2018-08-07T07:18:53Z</time>
      </trkpt>
      <trkpt lat="42.5135" lon="0.4994">
        <ele>950.35</ele>
        <time>2018-08-07T07:18:55Z</time>
      </trkpt>
      <trkpt lat="42.51342" lon="0.49902">
        <ele>948.75</ele>
        <time>2018-08-07T07:18:57Z</time>
      </trkpt>
      <trkpt lat="42.51336" lon="0.49878">
        <ele>948.32</ele>
        <time>2018-08-07T07:18:58Z</time>
      </trkpt>
      <trkpt lat="42.51328" lon="0.49852">
        <ele>947.49</ele>
        <time>2018-08-07T07:18:59Z</time>
      </trkpt>
      <trkpt lat="42.5132" lon="0.49823">
        <ele>945.84</ele>
        <time>2018-08-07T07:19:00Z</time>
      </trkpt>
      <trkpt lat="42.51312" lon="0.49796">
        <ele>944.64</ele>
        <time>2018-08-07T07:19:01Z</time>
      </trkpt>
      <trkpt lat="42.51304" lon="0.4977">
        <ele>943.58</ele>
        <time>2018-08-07T07:19:02Z</time>
      </trkpt>
      <trkpt lat="42.51296" lon="0.49746">
        <ele>942.57</ele>
        <time>2018-08-07T07:19:03Z</time>
      </trkpt>
      <trkpt lat="42.5129" lon="0.49723">
        <ele>941.56</ele>
        <time>2018-08-07T07:19:04Z</time>
      </trkpt>
      <trkpt lat="42.51277" lon="0.49681">
        <ele>939.35</ele>
        <time>2018-08-07T07:19:06Z</time>
      </trkpt>
      <trkpt lat="42.51266" lon="0.49643">
        <ele>937.54</ele>
        <time>2018-08-07T07:19:08Z</time>
      </trkpt>
      <trkpt lat="42.51255" lon="0.49607">
        <ele>935.56</ele>
        <time>2018-08-07T07:19:10Z</time>
      </trkpt>
      <trkpt lat="42.51245" lon="0.49573">
        <ele>933.56</ele>
        <time>2018-08-07T07:19:12Z</time>
      </trkpt>
      <trkpt lat="42.51235" lon="0.49542">
        <ele>932.26</ele>
        <time>2018-08-07T07:19:14Z</time>
      </trkpt>
      <trkpt lat="42.51228" lon="0.49516">
        <ele>932.35</ele>
        <time>2018-08-07T07:19:16Z</time>
      </trkpt>
      <trkpt lat="42.5122" lon="0.49491">
        <ele>932.36</ele>
        <time>2018-08-07T07:19:18Z</time>
      </trkpt>
      <trkpt lat="42.51212" lon="0.49463">
        <ele>931.45</ele>
        <time>2018-08-07T07:19:20Z</time>
      </trkpt>
      <trkpt lat="42.5121" lon="0.49433">
        <ele>929.76</ele>
        <time>2018-08-07T07:19:22Z</time>
      </trkpt>
      <trkpt lat="42.51215" lon="0.49405">
        <ele>927.58</ele>
        <time>2018-08-07T07:19:24Z</time>
      </trkpt>
      <trkpt lat="42.51225" lon="0.49381">
        <ele>926.26</ele>
        <time>2018-08-07T07:19:26Z</time>
      </trkpt>
      <trkpt lat="42.51232" lon="0.49349">
        <ele>922.85</ele>
        <time>2018-08-07T07:19:29Z</time>
      </trkpt>
      <trkpt lat="42.51238" lon="0.49323">
        <ele>921.16</ele>
        <time>2018-08-07T07:19:34Z</time>
      </trkpt>
      <trkpt lat="42.51248" lon="0.49302">
        <ele>925.36</ele>
        <time>2018-08-07T07:50:47Z</time>
      </trkpt>
      <trkpt lat="42.51248" lon="0.49274">
        <ele>922.82</ele>
        <time>2018-08-07T07:51:17Z</time>
      </trkpt>
      <trkpt lat="42.51238" lon="0.49249">
        <ele>923.04</ele>
        <time>2018-08-07T07:51:23Z</time>
      </trkpt>
      <trkpt lat="42.51237" lon="0.49224">
        <ele>923.13</ele>
        <time>2018-08-07T07:51:26Z</time>
      </trkpt>
      <trkpt lat="42.51239" lon="0.49192">
        <ele>922.22</ele>
        <time>2018-08-07T07:51:29Z</time>
      </trkpt>
      <trkpt lat="42.51241" lon="0.49167">
        <ele>920.32</ele>
        <time>2018-08-07T07:51:31Z</time>
      </trkpt>
      <trkpt lat="42.51238" lon="0.49142">
        <ele>918.33</ele>
        <time>2018-08-07T07:51:33Z</time>
      </trkpt>
      <trkpt lat="42.51236" lon="0.49117">
        <ele>919.06</ele>
        <time>2018-08-07T07:51:35Z</time>
      </trkpt>
      <trkpt lat="42.51235" lon="0.49089">
        <ele>918.91</ele>
        <time>2018-08-07T07:51:37Z</time>
      </trkpt>
      <trkpt lat="42.51235" lon="0.49063">
        <ele>918.41</ele>
        <time>2018-08-07T07:51:39Z</time>
      </trkpt>
      <trkpt lat="42.51233" lon="0.49037">
        <ele>919.07</ele>
        <time>2018-08-07T07:51:41Z</time>
      </trkpt>
      <trkpt lat="42.51232" lon="0.49013">
        <ele>918.42</ele>
        <time>2018-08-07T07:51:43Z</time>
      </trkpt>
      <trkpt lat="42.51229" lon="0.48987">
        <ele>918.16</ele>
        <time>2018-08-07T07:51:45Z</time>
      </trkpt>
      <trkpt lat="42.5123" lon="0.4896">
        <ele>915.33</ele>
        <time>2018-08-07T07:51:47Z</time>
      </trkpt>
      <trkpt lat="42.51228" lon="0.48931">
        <ele>914.24</ele>
        <time>2018-08-07T07:51:49Z</time>
      </trkpt>
      <trkpt lat="42.51227" lon="0.48901">
        <ele>913.44</ele>
        <time>2018-08-07T07:51:51Z</time>
      </trkpt>
      <trkpt lat="42.51226" lon="0.48873">
        <ele>912.25</ele>
        <time>2018-08-07T07:51:53Z</time>
      </trkpt>
      <trkpt lat="42.51226" lon="0.48846">
        <ele>912.14</ele>
        <time>2018-08-07T07:51:55Z</time>
      </trkpt>
      <trkpt lat="42.51225" lon="0.48817">
        <ele>911.22</ele>
        <time>2018-08-07T07:51:57Z</time>
      </trkpt>
      <trkpt lat="42.51227" lon="0.48787">
        <ele>910.23</ele>
        <time>2018-08-07T07:51:59Z</time>
      </trkpt>
      <trkpt lat="42.51231" lon="0.48758">
        <ele>908.53</ele>
        <time>2018-08-07T07:52:01Z</time>
      </trkpt>
      <trkpt lat="42.51238" lon="0.48729">
        <ele>908.17</ele>
        <time>2018-08-07T07:52:03Z</time>
      </trkpt>
      <trkpt lat="42.51247" lon="0.487">
        <ele>906.52</ele>
        <time>2018-08-07T07:52:05Z</time>
      </trkpt>
      <trkpt lat="42.51256" lon="0.4867">
        <ele>906.17</ele>
        <time>2018-08-07T07:52:07Z</time>
      </trkpt>
      <trkpt lat="42.51264" lon="0.4864">
        <ele>903.82</ele>
        <time>2018-08-07T07:52:09Z</time>
      </trkpt>
      <trkpt lat="42.51272" lon="0.4861">
        <ele>903.19</ele>
        <time>2018-08-07T07:52:11Z</time>
      </trkpt>
      <trkpt lat="42.51281" lon="0.48581">
        <ele>902.23</ele>
        <time>2018-08-07T07:52:13Z</time>
      </trkpt>
      <trkpt lat="42.51291" lon="0.48554">
        <ele>902.14</ele>
        <time>2018-08-07T07:52:15Z</time>
      </trkpt>
      <trkpt lat="42.51299" lon="0.4853">
        <ele>902.13</ele>
        <time>2018-08-07T07:52:17Z</time>
      </trkpt>
      <trkpt lat="42.51307" lon="0.48505">
        <ele>902.13</ele>
        <time>2018-08-07T07:52:19Z</time>
      </trkpt>
      <trkpt lat="42.51315" lon="0.48481">
        <ele>902.13</ele>
        <time>2018-08-07T07:52:21Z</time>
      </trkpt>
      <trkpt lat="42.51323" lon="0.48448">
        <ele>902.13</ele>
        <time>2018-08-07T07:52:24Z</time>
      </trkpt>
      <trkpt lat="42.51334" lon="0.48417">
        <ele>902.13</ele>
        <time>2018-08-07T07:52:27Z</time>
      </trkpt>
      <trkpt lat="42.51329" lon="0.48389">
        <ele>901.92</ele>
        <time>2018-08-07T07:52:30Z</time>
      </trkpt>
      <trkpt lat="42.51307" lon="0.48377">
        <ele>901.15</ele>
        <time>2018-08-07T07:52:33Z</time>
      </trkpt>
      <trkpt lat="42.5129" lon="0.48364">
        <ele>901.13</ele>
        <time>2018-08-07T07:52:35Z</time>
      </trkpt>
      <trkpt lat="42.51273" lon="0.48344">
        <ele>900.22</ele>
        <time>2018-08-07T07:52:37Z</time>
      </trkpt>
      <trkpt lat="42.51255" lon="0.48323">
        <ele>900.14</ele>
        <time>2018-08-07T07:52:39Z</time>
      </trkpt>
      <trkpt lat="42.51236" lon="0.48301">
        <ele>899.22</ele>
        <time>2018-08-07T07:52:41Z</time>
      </trkpt>
      <trkpt lat="42.51217" lon="0.48277">
        <ele>898.44</ele>
        <time>2018-08-07T07:52:43Z</time>
      </trkpt>
      <trkpt lat="42.51199" lon="0.48251">
        <ele>898.16</ele>
        <time>2018-08-07T07:52:45Z</time>
      </trkpt>
      <trkpt lat="42.51187" lon="0.48224">
        <ele>898.13</ele>
        <time>2018-08-07T07:52:47Z</time>
      </trkpt>
      <trkpt lat="42.51187" lon="0.48197">
        <ele>898.13</ele>
        <time>2018-08-07T07:52:49Z</time>
      </trkpt>
      <trkpt lat="42.51192" lon="0.48172">
        <ele>897.22</ele>
        <time>2018-08-07T07:52:52Z</time>
      </trkpt>
      <trkpt lat="42.51176" lon="0.48148">
        <ele>895.17</ele>
        <time>2018-08-07T07:52:56Z</time>
      </trkpt>
      <trkpt lat="42.51155" lon="0.48138">
        <ele>895.83</ele>
        <time>2018-08-07T07:52:58Z</time>
      </trkpt>
      <trkpt lat="42.51132" lon="0.48126">
        <ele>897.71</ele>
        <time>2018-08-07T07:53:00Z</time>
      </trkpt>
      <trkpt lat="42.51106" lon="0.4811">
        <ele>897.39</ele>
        <time>2018-08-07T07:53:02Z</time>
      </trkpt>
      <trkpt lat="42.51078" lon="0.4809">
        <ele>897.15</ele>
        <time>2018-08-07T07:53:04Z</time>
      </trkpt>
      <trkpt lat="42.51048" lon="0.48066">
        <ele>897.34</ele>
        <time>2018-08-07T07:53:06Z</time>
      </trkpt>
      <trkpt lat="42.51033" lon="0.48054">
        <ele>897.19</ele>
        <time>2018-08-07T07:53:07Z</time>
      </trkpt>
      <trkpt lat="42.51017" lon="0.48041">
        <ele>897.15</ele>
        <time>2018-08-07T07:53:08Z</time>
      </trkpt>
      <trkpt lat="42.51" lon="0.48028">
        <ele>897.14</ele>
        <time>2018-08-07T07:53:09Z</time>
      </trkpt>
      <trkpt lat="42.50983" lon="0.48015">
        <ele>896.43</ele>
        <time>2018-08-07T07:53:10Z</time>
      </trkpt>
      <trkpt lat="42.50966" lon="0.48002">
        <ele>895.52</ele>
        <time>2018-08-07T07:53:11Z</time>
      </trkpt>
      <trkpt lat="42.50949" lon="0.47988">
        <ele>895.25</ele>
        <time>2018-08-07T07:53:12Z</time>
      </trkpt>
      <trkpt lat="42.50931" lon="0.47975">
        <ele>894.47</ele>
        <time>2018-08-07T07:53:13Z</time>
      </trkpt>
      <trkpt lat="42.50912" lon="0.47962">
        <ele>894.93</ele>
        <time>2018-08-07T07:53:14Z</time>
      </trkpt>
      <trkpt lat="42.50894" lon="0.47948">
        <ele>895.07</ele>
        <time>2018-08-07T07:53:15Z</time>
      </trkpt>
      <trkpt lat="42.50875" lon="0.47934">
        <ele>895.11</ele>
        <time>2018-08-07T07:53:16Z</time>
      </trkpt>
      <trkpt lat="42.50855" lon="0.47921">
        <ele>895.12</ele>
        <time>2018-08-07T07:53:17Z</time>
      </trkpt>
      <trkpt lat="42.50835" lon="0.47909">
        <ele>895.13</ele>
        <time>2018-08-07T07:53:18Z</time>
      </trkpt>
      <trkpt lat="42.50815" lon="0.47897">
        <ele>895.13</ele>
        <time>2018-08-07T07:53:19Z</time>
      </trkpt>
      <trkpt lat="42.50792" lon="0.47888">
        <ele>895.13</ele>
        <time>2018-08-07T07:53:20Z</time>
      </trkpt>
      <trkpt lat="42.50771" lon="0.47879">
        <ele>893.73</ele>
        <time>2018-08-07T07:53:21Z</time>
      </trkpt>
      <trkpt lat="42.5075" lon="0.47869">
        <ele>893.31</ele>
        <time>2018-08-07T07:53:22Z</time>
      </trkpt>
      <trkpt lat="42.50728" lon="0.47862">
        <ele>893.18</ele>
        <time>2018-08-07T07:53:23Z</time>
      </trkpt>
      <trkpt lat="42.50706" lon="0.47856">
        <ele>893.15</ele>
        <time>2018-08-07T07:53:24Z</time>
      </trkpt>
      <trkpt lat="42.50685" lon="0.47853">
        <ele>894.53</ele>
        <time>2018-08-07T07:53:25Z</time>
      </trkpt>
      <trkpt lat="42.50664" lon="0.47851">
        <ele>894.95</ele>
        <time>2018-08-07T07:53:26Z</time>
      </trkpt>
      <trkpt lat="42.50644" lon="0.47853">
        <ele>895.08</ele>
        <time>2018-08-07T07:53:27Z</time>
      </trkpt>
      <trkpt lat="42.50626" lon="0.47856">
        <ele>895.11</ele>
        <time>2018-08-07T07:53:28Z</time>
      </trkpt>
      <trkpt lat="42.50594" lon="0.47867">
        <ele>895.13</ele>
        <time>2018-08-07T07:53:30Z</time>
      </trkpt>
      <trkpt lat="42.50565" lon="0.47879">
        <ele>894.43</ele>
        <time>2018-08-07T07:53:32Z</time>
      </trkpt>
      <trkpt lat="42.50535" lon="0.47886">
        <ele>893.25</ele>
        <time>2018-08-07T07:53:34Z</time>
      </trkpt>
      <trkpt lat="42.50505" lon="0.4788">
        <ele>892.93</ele>
        <time>2018-08-07T07:53:36Z</time>
      </trkpt>
      <trkpt lat="42.50475" lon="0.47866">
        <ele>892.9</ele>
        <time>2018-08-07T07:53:38Z</time>
      </trkpt>
      <trkpt lat="42.50444" lon="0.47849">
        <ele>891.71</ele>
        <time>2018-08-07T07:53:40Z</time>
      </trkpt>
      <trkpt lat="42.50416" lon="0.47831">
        <ele>890.27</ele>
        <time>2018-08-07T07:53:42Z</time>
      </trkpt>
      <trkpt lat="42.50392" lon="0.4781">
        <ele>888.53</ele>
        <time>2018-08-07T07:53:44Z</time>
      </trkpt>
      <trkpt lat="42.5037" lon="0.47786">
        <ele>887.47</ele>
        <time>2018-08-07T07:53:46Z</time>
      </trkpt>
      <trkpt lat="42.50349" lon="0.4776">
        <ele>887.16</ele>
        <time>2018-08-07T07:53:48Z</time>
      </trkpt>
      <trkpt lat="42.50326" lon="0.47732">
        <ele>886.43</ele>
        <time>2018-08-07T07:53:50Z</time>
      </trkpt>
      <trkpt lat="42.50301" lon="0.47704">
        <ele>885.46</ele>
        <time>2018-08-07T07:53:52Z</time>
      </trkpt>
      <trkpt lat="42.50274" lon="0.47674">
        <ele>884.46</ele>
        <time>2018-08-07T07:53:54Z</time>
      </trkpt>
      <trkpt lat="42.5026" lon="0.47658">
        <ele>884.23</ele>
        <time>2018-08-07T07:53:55Z</time>
      </trkpt>
      <trkpt lat="42.50245" lon="0.47643">
        <ele>883.46</ele>
        <time>2018-08-07T07:53:56Z</time>
      </trkpt>
      <trkpt lat="42.50232" lon="0.47626">
        <ele>883.23</ele>
        <time>2018-08-07T07:53:57Z</time>
      </trkpt>
      <trkpt lat="42.50207" lon="0.47593">
        <ele>882.02</ele>
        <time>2018-08-07T07:53:59Z</time>
      </trkpt>
      <trkpt lat="42.50196" lon="0.47572">
        <ele>881.4</ele>
        <time>2018-08-07T07:54:00Z</time>
      </trkpt>
      <trkpt lat="42.50182" lon="0.47527">
        <ele>881.36</ele>
        <time>2018-08-07T07:54:02Z</time>
      </trkpt>
      <trkpt lat="42.50178" lon="0.47502">
        <ele>881.2</ele>
        <time>2018-08-07T07:54:03Z</time>
      </trkpt>
      <trkpt lat="42.50175" lon="0.47476">
        <ele>881.15</ele>
        <time>2018-08-07T07:54:04Z</time>
      </trkpt>
      <trkpt lat="42.50173" lon="0.4745">
        <ele>881.14</ele>
        <time>2018-08-07T07:54:05Z</time>
      </trkpt>
      <trkpt lat="42.50171" lon="0.47424">
        <ele>881.13</ele>
        <time>2018-08-07T07:54:06Z</time>
      </trkpt>
      <trkpt lat="42.50169" lon="0.47399">
        <ele>881.13</ele>
        <time>2018-08-07T07:54:07Z</time>
      </trkpt>
      <trkpt lat="42.50167" lon="0.47373">
        <ele>880.43</ele>
        <time>2018-08-07T07:54:08Z</time>
      </trkpt>
      <trkpt lat="42.50164" lon="0.47348">
        <ele>880.22</ele>
        <time>2018-08-07T07:54:09Z</time>
      </trkpt>
      <trkpt lat="42.50159" lon="0.47322">
        <ele>880.16</ele>
        <time>2018-08-07T07:54:10Z</time>
      </trkpt>
      <trkpt lat="42.50154" lon="0.47298">
        <ele>880.14</ele>
        <time>2018-08-07T07:54:11Z</time>
      </trkpt>
      <trkpt lat="42.50148" lon="0.47273">
        <ele>880.13</ele>
        <time>2018-08-07T07:54:12Z</time>
      </trkpt>
      <trkpt lat="42.50138" lon="0.47249">
        <ele>880.13</ele>
        <time>2018-08-07T07:54:13Z</time>
      </trkpt>
      <trkpt lat="42.50129" lon="0.47226">
        <ele>880.13</ele>
        <time>2018-08-07T07:54:14Z</time>
      </trkpt>
      <trkpt lat="42.50117" lon="0.47204">
        <ele>880.13</ele>
        <time>2018-08-07T07:54:15Z</time>
      </trkpt>
      <trkpt lat="42.50104" lon="0.47184">
        <ele>880.13</ele>
        <time>2018-08-07T07:54:16Z</time>
      </trkpt>
      <trkpt lat="42.5009" lon="0.47165">
        <ele>880.13</ele>
        <time>2018-08-07T07:54:17Z</time>
      </trkpt>
      <trkpt lat="42.50074" lon="0.47149">
        <ele>880.13</ele>
        <time>2018-08-07T07:54:18Z</time>
      </trkpt>
      <trkpt lat="42.50057" lon="0.47134">
        <ele>880.13</ele>
        <time>2018-08-07T07:54:19Z</time>
      </trkpt>
      <trkpt lat="42.50037" lon="0.47121">
        <ele>880.83</ele>
        <time>2018-08-07T07:54:20Z</time>
      </trkpt>
      <trkpt lat="42.50018" lon="0.47111">
        <ele>881.04</ele>
        <time>2018-08-07T07:54:21Z</time>
      </trkpt>
      <trkpt lat="42.49998" lon="0.47102">
        <ele>881.1</ele>
        <time>2018-08-07T07:54:22Z</time>
      </trkpt>
      <trkpt lat="42.49978" lon="0.47095">
        <ele>881.12</ele>
        <time>2018-08-07T07:54:23Z</time>
      </trkpt>
      <trkpt lat="42.49957" lon="0.4709">
        <ele>881.13</ele>
        <time>2018-08-07T07:54:24Z</time>
      </trkpt>
      <trkpt lat="42.49936" lon="0.47084">
        <ele>881.83</ele>
        <time>2018-08-07T07:54:25Z</time>
      </trkpt>
      <trkpt lat="42.49915" lon="0.4708">
        <ele>882.04</ele>
        <time>2018-08-07T07:54:26Z</time>
      </trkpt>
      <trkpt lat="42.49894" lon="0.47075">
        <ele>882.1</ele>
        <time>2018-08-07T07:54:27Z</time>
      </trkpt>
      <trkpt lat="42.49874" lon="0.47071">
        <ele>882.12</ele>
        <time>2018-08-07T07:54:28Z</time>
      </trkpt>
      <trkpt lat="42.49854" lon="0.47066">
        <ele>882.13</ele>
        <time>2018-08-07T07:54:29Z</time>
      </trkpt>
      <trkpt lat="42.49835" lon="0.47061">
        <ele>882.13</ele>
        <time>2018-08-07T07:54:30Z</time>
      </trkpt>
      <trkpt lat="42.49816" lon="0.47056">
        <ele>882.13</ele>
        <time>2018-08-07T07:54:31Z</time>
      </trkpt>
      <trkpt lat="42.49798" lon="0.47052">
        <ele>882.13</ele>
        <time>2018-08-07T07:54:32Z</time>
      </trkpt>
      <trkpt lat="42.4978" lon="0.47047">
        <ele>882.13</ele>
        <time>2018-08-07T07:54:33Z</time>
      </trkpt>
      <trkpt lat="42.49754" lon="0.47038">
        <ele>883.53</ele>
        <time>2018-08-07T07:54:35Z</time>
      </trkpt>
      <trkpt lat="42.49726" lon="0.47023">
        <ele>884.08</ele>
        <time>2018-08-07T07:54:37Z</time>
      </trkpt>
      <trkpt lat="42.497" lon="0.47002">
        <ele>885.04</ele>
        <time>2018-08-07T07:54:39Z</time>
      </trkpt>
      <trkpt lat="42.49679" lon="0.46969">
        <ele>885.33</ele>
        <time>2018-08-07T07:54:41Z</time>
      </trkpt>
      <trkpt lat="42.49661" lon="0.46933">
        <ele>885.15</ele>
        <time>2018-08-07T07:54:43Z</time>
      </trkpt>
      <trkpt lat="42.49633" lon="0.46906">
        <ele>885.13</ele>
        <time>2018-08-07T07:54:45Z</time>
      </trkpt>
      <trkpt lat="42.49617" lon="0.46894">
        <ele>885.13</ele>
        <time>2018-08-07T07:54:46Z</time>
      </trkpt>
      <trkpt lat="42.49599" lon="0.46883">
        <ele>885.13</ele>
        <time>2018-08-07T07:54:47Z</time>
      </trkpt>
      <trkpt lat="42.49582" lon="0.4687">
        <ele>883.03</ele>
        <time>2018-08-07T07:54:48Z</time>
      </trkpt>
      <trkpt lat="42.49563" lon="0.4686">
        <ele>883.8</ele>
        <time>2018-08-07T07:54:49Z</time>
      </trkpt>
      <trkpt lat="42.49545" lon="0.46848">
        <ele>882.63</ele>
        <time>2018-08-07T07:54:50Z</time>
      </trkpt>
      <trkpt lat="42.49529" lon="0.46837">
        <ele>882.28</ele>
        <time>2018-08-07T07:54:51Z</time>
      </trkpt>
      <trkpt lat="42.49512" lon="0.46827">
        <ele>882.18</ele>
        <time>2018-08-07T07:54:52Z</time>
      </trkpt>
      <trkpt lat="42.49494" lon="0.46819">
        <ele>882.14</ele>
        <time>2018-08-07T07:54:53Z</time>
      </trkpt>
      <trkpt lat="42.49477" lon="0.46812">
        <ele>882.13</ele>
        <time>2018-08-07T07:54:54Z</time>
      </trkpt>
      <trkpt lat="42.49442" lon="0.46805">
        <ele>882.13</ele>
        <time>2018-08-07T07:54:56Z</time>
      </trkpt>
      <trkpt lat="42.49408" lon="0.46808">
        <ele>881.22</ele>
        <time>2018-08-07T07:54:58Z</time>
      </trkpt>
      <trkpt lat="42.49374" lon="0.46818">
        <ele>879.53</ele>
        <time>2018-08-07T07:55:00Z</time>
      </trkpt>
      <trkpt lat="42.49342" lon="0.46834">
        <ele>879.87</ele>
        <time>2018-08-07T07:55:02Z</time>
      </trkpt>
      <trkpt lat="42.49311" lon="0.46855">
        <ele>878.5</ele>
        <time>2018-08-07T07:55:04Z</time>
      </trkpt>
      <trkpt lat="42.49279" lon="0.46867">
        <ele>878.16</ele>
        <time>2018-08-07T07:55:06Z</time>
      </trkpt>
      <trkpt lat="42.49246" lon="0.46872">
        <ele>878.13</ele>
        <time>2018-08-07T07:55:08Z</time>
      </trkpt>
      <trkpt lat="42.49217" lon="0.46879">
        <ele>878.13</ele>
        <time>2018-08-07T07:55:10Z</time>
      </trkpt>
      <trkpt lat="42.49191" lon="0.46879">
        <ele>879.04</ele>
        <time>2018-08-07T07:55:12Z</time>
      </trkpt>
      <trkpt lat="42.49174" lon="0.46861">
        <ele>880.03</ele>
        <time>2018-08-07T07:55:14Z</time>
      </trkpt>
      <trkpt lat="42.49157" lon="0.46836">
        <ele>880.82</ele>
        <time>2018-08-07T07:55:16Z</time>
      </trkpt>
      <trkpt lat="42.49141" lon="0.46821">
        <ele>882.03</ele>
        <time>2018-08-07T07:55:19Z</time>
      </trkpt>
      <trkpt lat="42.49113" lon="0.46815">
        <ele>884.01</ele>
        <time>2018-08-07T07:55:22Z</time>
      </trkpt>
      <trkpt lat="42.49094" lon="0.46803">
        <ele>884.12</ele>
        <time>2018-08-07T07:55:24Z</time>
      </trkpt>
      <trkpt lat="42.49074" lon="0.46774">
        <ele>883.22</ele>
        <time>2018-08-07T07:55:26Z</time>
      </trkpt>
      <trkpt lat="42.49051" lon="0.46751">
        <ele>882.44</ele>
        <time>2018-08-07T07:55:28Z</time>
      </trkpt>
      <trkpt lat="42.49028" lon="0.46727">
        <ele>882.16</ele>
        <time>2018-08-07T07:55:30Z</time>
      </trkpt>
      <trkpt lat="42.49005" lon="0.46696">
        <ele>881.43</ele>
        <time>2018-08-07T07:55:32Z</time>
      </trkpt>
      <trkpt lat="42.4899" lon="0.46658">
        <ele>881.86</ele>
        <time>2018-08-07T07:55:34Z</time>
      </trkpt>
      <trkpt lat="42.48981" lon="0.46612">
        <ele>878.82</ele>
        <time>2018-08-07T07:55:36Z</time>
      </trkpt>
      <trkpt lat="42.4898" lon="0.46567">
        <ele>872.73</ele>
        <time>2018-08-07T07:55:38Z</time>
      </trkpt>
      <trkpt lat="42.4898" lon="0.46524">
        <ele>870.78</ele>
        <time>2018-08-07T07:55:40Z</time>
      </trkpt>
      <trkpt lat="42.48985" lon="0.46486">
        <ele>870.19</ele>
        <time>2018-08-07T07:55:42Z</time>
      </trkpt>
      <trkpt lat="42.48995" lon="0.46448">
        <ele>869.23</ele>
        <time>2018-08-07T07:55:44Z</time>
      </trkpt>
      <trkpt lat="42.49002" lon="0.46411">
        <ele>869.14</ele>
        <time>2018-08-07T07:55:46Z</time>
      </trkpt>
      <trkpt lat="42.49005" lon="0.46378">
        <ele>867.31</ele>
        <time>2018-08-07T07:55:48Z</time>
      </trkpt>
      <trkpt lat="42.49001" lon="0.46347">
        <ele>866.45</ele>
        <time>2018-08-07T07:55:50Z</time>
      </trkpt>
      <trkpt lat="42.48992" lon="0.46317">
        <ele>866.16</ele>
        <time>2018-08-07T07:55:52Z</time>
      </trkpt>
      <trkpt lat="42.48982" lon="0.46285">
        <ele>866.13</ele>
        <time>2018-08-07T07:55:54Z</time>
      </trkpt>
      <trkpt lat="42.48969" lon="0.46252">
        <ele>867.04</ele>
        <time>2018-08-07T07:55:56Z</time>
      </trkpt>
      <trkpt lat="42.48965" lon="0.46214">
        <ele>866.21</ele>
        <time>2018-08-07T07:55:58Z</time>
      </trkpt>
      <trkpt lat="42.48948" lon="0.46185">
        <ele>865.44</ele>
        <time>2018-08-07T07:56:00Z</time>
      </trkpt>
      <trkpt lat="42.48942" lon="0.46155">
        <ele>864.46</ele>
        <time>2018-08-07T07:56:02Z</time>
      </trkpt>
      <trkpt lat="42.48913" lon="0.46148">
        <ele>865.07</ele>
        <time>2018-08-07T07:56:04Z</time>
      </trkpt>
      <trkpt lat="42.48889" lon="0.46151">
        <ele>865.11</ele>
        <time>2018-08-07T07:56:05Z</time>
      </trkpt>
      <trkpt lat="42.48856" lon="0.46147">
        <ele>866.04</ele>
        <time>2018-08-07T07:56:07Z</time>
      </trkpt>
      <trkpt lat="42.48827" lon="0.46133">
        <ele>865.21</ele>
        <time>2018-08-07T07:56:09Z</time>
      </trkpt>
      <trkpt lat="42.48798" lon="0.46117">
        <ele>865.14</ele>
        <time>2018-08-07T07:56:11Z</time>
      </trkpt>
      <trkpt lat="42.4877" lon="0.46101">
        <ele>865.13</ele>
        <time>2018-08-07T07:56:13Z</time>
      </trkpt>
      <trkpt lat="42.4874" lon="0.46089">
        <ele>864.43</ele>
        <time>2018-08-07T07:56:15Z</time>
      </trkpt>
      <trkpt lat="42.48713" lon="0.46073">
        <ele>863.46</ele>
        <time>2018-08-07T07:56:17Z</time>
      </trkpt>
      <trkpt lat="42.48688" lon="0.46052">
        <ele>851.05</ele>
        <time>2018-08-07T07:56:19Z</time>
      </trkpt>
      <trkpt lat="42.48666" lon="0.46025">
        <ele>848.11</ele>
        <time>2018-08-07T07:56:21Z</time>
      </trkpt>
      <trkpt lat="42.48647" lon="0.45995">
        <ele>847.64</ele>
        <time>2018-08-07T07:56:23Z</time>
      </trkpt>
      <trkpt lat="42.48628" lon="0.45962">
        <ele>847.18</ele>
        <time>2018-08-07T07:56:25Z</time>
      </trkpt>
      <trkpt lat="42.48611" lon="0.45926">
        <ele>845.73</ele>
        <time>2018-08-07T07:56:27Z</time>
      </trkpt>
      <trkpt lat="42.48598" lon="0.45886">
        <ele>845.18</ele>
        <time>2018-08-07T07:56:29Z</time>
      </trkpt>
      <trkpt lat="42.48576" lon="0.45851">
        <ele>845.13</ele>
        <time>2018-08-07T07:56:31Z</time>
      </trkpt>
      <trkpt lat="42.48566" lon="0.45807">
        <ele>846.04</ele>
        <time>2018-08-07T07:56:33Z</time>
      </trkpt>
      <trkpt lat="42.48563" lon="0.4576">
        <ele>847.03</ele>
        <time>2018-08-07T07:56:35Z</time>
      </trkpt>
      <trkpt lat="42.48538" lon="0.45732">
        <ele>845.3</ele>
        <time>2018-08-07T07:56:37Z</time>
      </trkpt>
      <trkpt lat="42.4853" lon="0.45694">
        <ele>842.42</ele>
        <time>2018-08-07T07:56:39Z</time>
      </trkpt>
      <trkpt lat="42.4852" lon="0.4566">
        <ele>840.34</ele>
        <time>2018-08-07T07:56:41Z</time>
      </trkpt>
      <trkpt lat="42.48503" lon="0.45651">
        <ele>840.19</ele>
        <time>2018-08-07T07:56:42Z</time>
      </trkpt>
      <trkpt lat="42.48487" lon="0.45624">
        <ele>840.35</ele>
        <time>2018-08-07T07:56:44Z</time>
      </trkpt>
      <trkpt lat="42.48465" lon="0.45601">
        <ele>839.45</ele>
        <time>2018-08-07T07:56:46Z</time>
      </trkpt>
      <trkpt lat="42.48434" lon="0.45584">
        <ele>839.16</ele>
        <time>2018-08-07T07:56:48Z</time>
      </trkpt>
      <trkpt lat="42.4841" lon="0.45561">
        <ele>834.51</ele>
        <time>2018-08-07T07:56:50Z</time>
      </trkpt>
      <trkpt lat="42.48407" lon="0.45524">
        <ele>829.61</ele>
        <time>2018-08-07T07:56:52Z</time>
      </trkpt>
      <trkpt lat="42.48377" lon="0.45507">
        <ele>828.47</ele>
        <time>2018-08-07T07:56:54Z</time>
      </trkpt>
      <trkpt lat="42.48349" lon="0.45484">
        <ele>829.07</ele>
        <time>2018-08-07T07:56:56Z</time>
      </trkpt>
      <trkpt lat="42.48336" lon="0.45452">
        <ele>829.12</ele>
        <time>2018-08-07T07:56:58Z</time>
      </trkpt>
      <trkpt lat="42.48335" lon="0.45427">
        <ele>828.22</ele>
        <time>2018-08-07T07:57:00Z</time>
      </trkpt>
      <trkpt lat="42.48315" lon="0.45421">
        <ele>828.84</ele>
        <time>2018-08-07T07:57:02Z</time>
      </trkpt>
      <trkpt lat="42.4833" lon="0.45395">
        <ele>830.03</ele>
        <time>2018-08-07T07:57:05Z</time>
      </trkpt>
      <trkpt lat="42.48338" lon="0.45359">
        <ele>836.8</ele>
        <time>2018-08-07T07:57:19Z</time>
      </trkpt>
      <trkpt lat="42.48333" lon="0.45335">
        <ele>836.89</ele>
        <time>2018-08-07T07:57:21Z</time>
      </trkpt>
      <trkpt lat="42.48309" lon="0.45315">
        <ele>837.11</ele>
        <time>2018-08-07T07:57:23Z</time>
      </trkpt>
      <trkpt lat="42.48294" lon="0.4528">
        <ele>837.34</ele>
        <time>2018-08-07T07:57:25Z</time>
      </trkpt>
      <trkpt lat="42.48276" lon="0.45269">
        <ele>836.49</ele>
        <time>2018-08-07T07:57:26Z</time>
      </trkpt>
      <trkpt lat="42.48263" lon="0.45238">
        <ele>835.95</ele>
        <time>2018-08-07T07:57:28Z</time>
      </trkpt>
      <trkpt lat="42.48252" lon="0.45207">
        <ele>836.81</ele>
        <time>2018-08-07T07:57:30Z</time>
      </trkpt>
      <trkpt lat="42.48237" lon="0.45179">
        <ele>836.61</ele>
        <time>2018-08-07T07:57:32Z</time>
      </trkpt>
      <trkpt lat="42.48223" lon="0.4515">
        <ele>836.38</ele>
        <time>2018-08-07T07:57:34Z</time>
      </trkpt>
      <trkpt lat="42.48209" lon="0.45117">
        <ele>834.54</ele>
        <time>2018-08-07T07:57:36Z</time>
      </trkpt>
      <trkpt lat="42.48198" lon="0.45085">
        <ele>834.87</ele>
        <time>2018-08-07T07:57:38Z</time>
      </trkpt>
      <trkpt lat="42.48188" lon="0.45054">
        <ele>836.23</ele>
        <time>2018-08-07T07:57:40Z</time>
      </trkpt>
      <trkpt lat="42.48182" lon="0.45024">
        <ele>836.84</ele>
        <time>2018-08-07T07:57:42Z</time>
      </trkpt>
      <trkpt lat="42.48178" lon="0.44995">
        <ele>837.1</ele>
        <time>2018-08-07T07:57:44Z</time>
      </trkpt>
      <trkpt lat="42.48175" lon="0.44965">
        <ele>837.62</ele>
        <time>2018-08-07T07:57:46Z</time>
      </trkpt>
      <trkpt lat="42.48178" lon="0.44934">
        <ele>837.59</ele>
        <time>2018-08-07T07:57:48Z</time>
      </trkpt>
      <trkpt lat="42.48179" lon="0.44903">
        <ele>837.87</ele>
        <time>2018-08-07T07:57:50Z</time>
      </trkpt>
      <trkpt lat="42.48182" lon="0.44867">
        <ele>836.71</ele>
        <time>2018-08-07T07:57:52Z</time>
      </trkpt>
      <trkpt lat="42.48179" lon="0.44829">
        <ele>834.78</ele>
        <time>2018-08-07T07:57:54Z</time>
      </trkpt>
      <trkpt lat="42.48191" lon="0.4479">
        <ele>834.4</ele>
        <time>2018-08-07T07:57:56Z</time>
      </trkpt>
      <trkpt lat="42.48208" lon="0.4475">
        <ele>828.83</ele>
        <time>2018-08-07T07:57:58Z</time>
      </trkpt>
      <trkpt lat="42.4821" lon="0.44721">
        <ele>826.16</ele>
        <time>2018-08-07T07:58:00Z</time>
      </trkpt>
      <trkpt lat="42.48206" lon="0.44686">
        <ele>822.3</ele>
        <time>2018-08-07T07:58:03Z</time>
      </trkpt>
      <trkpt lat="42.48125" lon="0.44469">
        <ele>819.38</ele>
        <time>2018-08-07T07:58:15Z</time>
      </trkpt>
      <trkpt lat="42.4812" lon="0.44431">
        <ele>819.85</ele>
        <time>2018-08-07T07:58:17Z</time>
      </trkpt>
      <trkpt lat="42.48109" lon="0.44401">
        <ele>817.8</ele>
        <time>2018-08-07T07:58:19Z</time>
      </trkpt>
      <trkpt lat="42.48096" lon="0.44378">
        <ele>815.58</ele>
        <time>2018-08-07T07:58:21Z</time>
      </trkpt>
      <trkpt lat="42.48073" lon="0.44362">
        <ele>815.17</ele>
        <time>2018-08-07T07:58:23Z</time>
      </trkpt>
      <trkpt lat="42.48059" lon="0.44341">
        <ele>814.43</ele>
        <time>2018-08-07T07:58:25Z</time>
      </trkpt>
      <trkpt lat="42.48038" lon="0.4432">
        <ele>815.38</ele>
        <time>2018-08-07T07:58:28Z</time>
      </trkpt>
      <trkpt lat="42.48019" lon="0.44321">
        <ele>813.54</ele>
        <time>2018-08-07T07:58:30Z</time>
      </trkpt>
      <trkpt lat="42.48001" lon="0.44333">
        <ele>813.17</ele>
        <time>2018-08-07T07:58:32Z</time>
      </trkpt>
      <trkpt lat="42.47976" lon="0.44368">
        <ele>814.04</ele>
        <time>2018-08-07T07:58:34Z</time>
      </trkpt>
      <trkpt lat="42.47957" lon="0.44374">
        <ele>814.1</ele>
        <time>2018-08-07T07:58:35Z</time>
      </trkpt>
      <trkpt lat="42.47922" lon="0.44382">
        <ele>814.13</ele>
        <time>2018-08-07T07:58:37Z</time>
      </trkpt>
      <trkpt lat="42.47884" lon="0.4437">
        <ele>814.83</ele>
        <time>2018-08-07T07:58:39Z</time>
      </trkpt>
      <trkpt lat="42.47866" lon="0.4436">
        <ele>815.74</ele>
        <time>2018-08-07T07:58:40Z</time>
      </trkpt>
      <trkpt lat="42.47846" lon="0.44346">
        <ele>816.01</ele>
        <time>2018-08-07T07:58:41Z</time>
      </trkpt>
      <trkpt lat="42.47826" lon="0.44331">
        <ele>816.09</ele>
        <time>2018-08-07T07:58:42Z</time>
      </trkpt>
      <trkpt lat="42.47805" lon="0.44318">
        <ele>815.42</ele>
        <time>2018-08-07T07:58:43Z</time>
      </trkpt>
      <trkpt lat="42.47786" lon="0.44304">
        <ele>814.52</ele>
        <time>2018-08-07T07:58:44Z</time>
      </trkpt>
      <trkpt lat="42.47766" lon="0.4429">
        <ele>815.65</ele>
        <time>2018-08-07T07:58:45Z</time>
      </trkpt>
      <trkpt lat="42.47745" lon="0.44278">
        <ele>815.98</ele>
        <time>2018-08-07T07:58:46Z</time>
      </trkpt>
      <trkpt lat="42.47726" lon="0.44266">
        <ele>815.39</ele>
        <time>2018-08-07T07:58:47Z</time>
      </trkpt>
      <trkpt lat="42.47707" lon="0.44255">
        <ele>815.21</ele>
        <time>2018-08-07T07:58:48Z</time>
      </trkpt>
      <trkpt lat="42.4769" lon="0.44244">
        <ele>814.45</ele>
        <time>2018-08-07T07:58:49Z</time>
      </trkpt>
      <trkpt lat="42.47673" lon="0.44233">
        <ele>813.53</ele>
        <time>2018-08-07T07:58:50Z</time>
      </trkpt>
      <trkpt lat="42.47645" lon="0.442">
        <ele>813.17</ele>
        <time>2018-08-07T07:58:52Z</time>
      </trkpt>
      <trkpt lat="42.47638" lon="0.44158">
        <ele>812.43</ele>
        <time>2018-08-07T07:58:54Z</time>
      </trkpt>
      <trkpt lat="42.47623" lon="0.44117">
        <ele>811.25</ele>
        <time>2018-08-07T07:58:56Z</time>
      </trkpt>
      <trkpt lat="42.47609" lon="0.44079">
        <ele>810.23</ele>
        <time>2018-08-07T07:58:58Z</time>
      </trkpt>
      <trkpt lat="42.47596" lon="0.44044">
        <ele>808.32</ele>
        <time>2018-08-07T07:59:00Z</time>
      </trkpt>
      <trkpt lat="42.47596" lon="0.44009">
        <ele>808.85</ele>
        <time>2018-08-07T07:59:02Z</time>
      </trkpt>
      <trkpt lat="42.47615" lon="0.4399">
        <ele>808.35</ele>
        <time>2018-08-07T07:59:03Z</time>
      </trkpt>
      <trkpt lat="42.47632" lon="0.4395">
        <ele>807.45</ele>
        <time>2018-08-07T07:59:05Z</time>
      </trkpt>
      <trkpt lat="42.47651" lon="0.43909">
        <ele>807.16</ele>
        <time>2018-08-07T07:59:07Z</time>
      </trkpt>
      <trkpt lat="42.47662" lon="0.43889">
        <ele>807.84</ele>
        <time>2018-08-07T07:59:08Z</time>
      </trkpt>
      <trkpt lat="42.47691" lon="0.43853">
        <ele>808.1</ele>
        <time>2018-08-07T07:59:10Z</time>
      </trkpt>
      <trkpt lat="42.47706" lon="0.43837">
        <ele>808.82</ele>
        <time>2018-08-07T07:59:11Z</time>
      </trkpt>
      <trkpt lat="42.47718" lon="0.43817">
        <ele>809.04</ele>
        <time>2018-08-07T07:59:12Z</time>
      </trkpt>
      <trkpt lat="42.47729" lon="0.43797">
        <ele>808.4</ele>
        <time>2018-08-07T07:59:13Z</time>
      </trkpt>
      <trkpt lat="42.47749" lon="0.43754">
        <ele>808.36</ele>
        <time>2018-08-07T07:59:15Z</time>
      </trkpt>
      <trkpt lat="42.47764" lon="0.43711">
        <ele>808.85</ele>
        <time>2018-08-07T07:59:17Z</time>
      </trkpt>
      <trkpt lat="42.47774" lon="0.43667">
        <ele>808.19</ele>
        <time>2018-08-07T07:59:19Z</time>
      </trkpt>
      <trkpt lat="42.47779" lon="0.4362">
        <ele>807.44</ele>
        <time>2018-08-07T07:59:21Z</time>
      </trkpt>
      <trkpt lat="42.47781" lon="0.43571">
        <ele>807.16</ele>
        <time>2018-08-07T07:59:23Z</time>
      </trkpt>
      <trkpt lat="42.47783" lon="0.43522">
        <ele>806.43</ele>
        <time>2018-08-07T07:59:25Z</time>
      </trkpt>
      <trkpt lat="42.47784" lon="0.43473">
        <ele>806.16</ele>
        <time>2018-08-07T07:59:27Z</time>
      </trkpt>
      <trkpt lat="42.47786" lon="0.43449">
        <ele>806.14</ele>
        <time>2018-08-07T07:59:28Z</time>
      </trkpt>
      <trkpt lat="42.47785" lon="0.43401">
        <ele>806.13</ele>
        <time>2018-08-07T07:59:30Z</time>
      </trkpt>
      <trkpt lat="42.4778" lon="0.43356">
        <ele>807.04</ele>
        <time>2018-08-07T07:59:32Z</time>
      </trkpt>
      <trkpt lat="42.47769" lon="0.43313">
        <ele>808.52</ele>
        <time>2018-08-07T07:59:34Z</time>
      </trkpt>
      <trkpt lat="42.47755" lon="0.43272">
        <ele>809.08</ele>
        <time>2018-08-07T07:59:36Z</time>
      </trkpt>
      <trkpt lat="42.47741" lon="0.43231">
        <ele>809.13</ele>
        <time>2018-08-07T07:59:38Z</time>
      </trkpt>
      <trkpt lat="42.47724" lon="0.43188">
        <ele>808.22</ele>
        <time>2018-08-07T07:59:40Z</time>
      </trkpt>
      <trkpt lat="42.47708" lon="0.43146">
        <ele>807.44</ele>
        <time>2018-08-07T07:59:42Z</time>
      </trkpt>
      <trkpt lat="42.47693" lon="0.43105">
        <ele>808.07</ele>
        <time>2018-08-07T07:59:44Z</time>
      </trkpt>
      <trkpt lat="42.47677" lon="0.43066">
        <ele>808.12</ele>
        <time>2018-08-07T07:59:46Z</time>
      </trkpt>
      <trkpt lat="42.47655" lon="0.43026">
        <ele>808.13</ele>
        <time>2018-08-07T07:59:48Z</time>
      </trkpt>
      <trkpt lat="42.47644" lon="0.43007">
        <ele>808.13</ele>
        <time>2018-08-07T07:59:49Z</time>
      </trkpt>
      <trkpt lat="42.47631" lon="0.42989">
        <ele>808.13</ele>
        <time>2018-08-07T07:59:50Z</time>
      </trkpt>
      <trkpt lat="42.47619" lon="0.42972">
        <ele>808.13</ele>
        <time>2018-08-07T07:59:51Z</time>
      </trkpt>
      <trkpt lat="42.47606" lon="0.42954">
        <ele>808.13</ele>
        <time>2018-08-07T07:59:52Z</time>
      </trkpt>
      <trkpt lat="42.47592" lon="0.42936">
        <ele>808.83</ele>
        <time>2018-08-07T07:59:53Z</time>
      </trkpt>
      <trkpt lat="42.47569" lon="0.42899">
        <ele>807.49</ele>
        <time>2018-08-07T07:59:55Z</time>
      </trkpt>
      <trkpt lat="42.47558" lon="0.42878">
        <ele>806.54</ele>
        <time>2018-08-07T07:59:56Z</time>
      </trkpt>
      <trkpt lat="42.47547" lon="0.42857">
        <ele>806.95</ele>
        <time>2018-08-07T07:59:57Z</time>
      </trkpt>
      <trkpt lat="42.47535" lon="0.42837">
        <ele>806.38</ele>
        <time>2018-08-07T07:59:58Z</time>
      </trkpt>
      <trkpt lat="42.47523" lon="0.42818">
        <ele>805.5</ele>
        <time>2018-08-07T07:59:59Z</time>
      </trkpt>
      <trkpt lat="42.4751" lon="0.428">
        <ele>804.54</ele>
        <time>2018-08-07T08:00:00Z</time>
      </trkpt>
      <trkpt lat="42.47495" lon="0.42786">
        <ele>803.55</ele>
        <time>2018-08-07T08:00:01Z</time>
      </trkpt>
      <trkpt lat="42.47462" lon="0.42766">
        <ele>804.57</ele>
        <time>2018-08-07T08:00:03Z</time>
      </trkpt>
      <trkpt lat="42.4743" lon="0.42745">
        <ele>804.17</ele>
        <time>2018-08-07T08:00:05Z</time>
      </trkpt>
      <trkpt lat="42.47413" lon="0.42732">
        <ele>803.44</ele>
        <time>2018-08-07T08:00:06Z</time>
      </trkpt>
      <trkpt lat="42.474" lon="0.42709">
        <ele>803.22</ele>
        <time>2018-08-07T08:00:07Z</time>
      </trkpt>
      <trkpt lat="42.47388" lon="0.42688">
        <ele>803.16</ele>
        <time>2018-08-07T08:00:08Z</time>
      </trkpt>
      <trkpt lat="42.47375" lon="0.42666">
        <ele>803.14</ele>
        <time>2018-08-07T08:00:09Z</time>
      </trkpt>
      <trkpt lat="42.47363" lon="0.42643">
        <ele>803.13</ele>
        <time>2018-08-07T08:00:10Z</time>
      </trkpt>
      <trkpt lat="42.47355" lon="0.4262">
        <ele>803.13</ele>
        <time>2018-08-07T08:00:11Z</time>
      </trkpt>
      <trkpt lat="42.47349" lon="0.4259">
        <ele>803.13</ele>
        <time>2018-08-07T08:00:12Z</time>
      </trkpt>
      <trkpt lat="42.47346" lon="0.42561">
        <ele>803.13</ele>
        <time>2018-08-07T08:00:13Z</time>
      </trkpt>
      <trkpt lat="42.47352" lon="0.42533">
        <ele>803.13</ele>
        <time>2018-08-07T08:00:14Z</time>
      </trkpt>
      <trkpt lat="42.47354" lon="0.42506">
        <ele>803.13</ele>
        <time>2018-08-07T08:00:15Z</time>
      </trkpt>
      <trkpt lat="42.47357" lon="0.42477">
        <ele>803.83</ele>
        <time>2018-08-07T08:00:16Z</time>
      </trkpt>
      <trkpt lat="42.47359" lon="0.42447">
        <ele>803.34</ele>
        <time>2018-08-07T08:00:17Z</time>
      </trkpt>
      <trkpt lat="42.47361" lon="0.42416">
        <ele>803.89</ele>
        <time>2018-08-07T08:00:18Z</time>
      </trkpt>
      <trkpt lat="42.47363" lon="0.42384">
        <ele>802.66</ele>
        <time>2018-08-07T08:00:19Z</time>
      </trkpt>
      <trkpt lat="42.47366" lon="0.42355">
        <ele>802.29</ele>
        <time>2018-08-07T08:00:20Z</time>
      </trkpt>
      <trkpt lat="42.47368" lon="0.42325">
        <ele>800.78</ele>
        <time>2018-08-07T08:00:21Z</time>
      </trkpt>
      <trkpt lat="42.47374" lon="0.42296">
        <ele>800.32</ele>
        <time>2018-08-07T08:00:22Z</time>
      </trkpt>
      <trkpt lat="42.47379" lon="0.42269">
        <ele>799.49</ele>
        <time>2018-08-07T08:00:23Z</time>
      </trkpt>
      <trkpt lat="42.47387" lon="0.42244">
        <ele>799.24</ele>
        <time>2018-08-07T08:00:24Z</time>
      </trkpt>
      <trkpt lat="42.47393" lon="0.4222">
        <ele>798.46</ele>
        <time>2018-08-07T08:00:25Z</time>
      </trkpt>
      <trkpt lat="42.47395" lon="0.42172">
        <ele>798.16</ele>
        <time>2018-08-07T08:00:27Z</time>
      </trkpt>
      <trkpt lat="42.47387" lon="0.42128">
        <ele>796.52</ele>
        <time>2018-08-07T08:00:29Z</time>
      </trkpt>
      <trkpt lat="42.47376" lon="0.42083">
        <ele>794.56</ele>
        <time>2018-08-07T08:00:31Z</time>
      </trkpt>
      <trkpt lat="42.47351" lon="0.4207">
        <ele>792.86</ele>
        <time>2018-08-07T08:00:32Z</time>
      </trkpt>
      <trkpt lat="42.47336" lon="0.42054">
        <ele>791.65</ele>
        <time>2018-08-07T08:00:33Z</time>
      </trkpt>
      <trkpt lat="42.4731" lon="0.42024">
        <ele>790.27</ele>
        <time>2018-08-07T08:00:35Z</time>
      </trkpt>
      <trkpt lat="42.47299" lon="0.41984">
        <ele>788.74</ele>
        <time>2018-08-07T08:00:37Z</time>
      </trkpt>
      <trkpt lat="42.47287" lon="0.41943">
        <ele>786.58</ele>
        <time>2018-08-07T08:00:39Z</time>
      </trkpt>
      <trkpt lat="42.47272" lon="0.41909">
        <ele>785.26</ele>
        <time>2018-08-07T08:00:41Z</time>
      </trkpt>
      <trkpt lat="42.47243" lon="0.41883">
        <ele>785.14</ele>
        <time>2018-08-07T08:00:43Z</time>
      </trkpt>
      <trkpt lat="42.47225" lon="0.41876">
        <ele>785.83</ele>
        <time>2018-08-07T08:00:44Z</time>
      </trkpt>
      <trkpt lat="42.47206" lon="0.41877">
        <ele>784.64</ele>
        <time>2018-08-07T08:00:45Z</time>
      </trkpt>
      <trkpt lat="42.47187" lon="0.41882">
        <ele>784.98</ele>
        <time>2018-08-07T08:00:46Z</time>
      </trkpt>
      <trkpt lat="42.47167" lon="0.41891">
        <ele>785.09</ele>
        <time>2018-08-07T08:00:47Z</time>
      </trkpt>
      <trkpt lat="42.47148" lon="0.41893">
        <ele>785.82</ele>
        <time>2018-08-07T08:00:48Z</time>
      </trkpt>
      <trkpt lat="42.47128" lon="0.41893">
        <ele>785.34</ele>
        <time>2018-08-07T08:00:49Z</time>
      </trkpt>
      <trkpt lat="42.4711" lon="0.41887">
        <ele>785.19</ele>
        <time>2018-08-07T08:00:50Z</time>
      </trkpt>
      <trkpt lat="42.4709" lon="0.41882">
        <ele>784.45</ele>
        <time>2018-08-07T08:00:51Z</time>
      </trkpt>
      <trkpt lat="42.47071" lon="0.41876">
        <ele>784.23</ele>
        <time>2018-08-07T08:00:52Z</time>
      </trkpt>
      <trkpt lat="42.47053" lon="0.41871">
        <ele>784.16</ele>
        <time>2018-08-07T08:00:53Z</time>
      </trkpt>
      <trkpt lat="42.47016" lon="0.41866">
        <ele>782.52</ele>
        <time>2018-08-07T08:00:55Z</time>
      </trkpt>
      <trkpt lat="42.46997" lon="0.41868">
        <ele>782.25</ele>
        <time>2018-08-07T08:00:56Z</time>
      </trkpt>
      <trkpt lat="42.46977" lon="0.4187">
        <ele>782.17</ele>
        <time>2018-08-07T08:00:57Z</time>
      </trkpt>
      <trkpt lat="42.46955" lon="0.41881">
        <ele>782.14</ele>
        <time>2018-08-07T08:00:58Z</time>
      </trkpt>
      <trkpt lat="42.46932" lon="0.41892">
        <ele>782.13</ele>
        <time>2018-08-07T08:00:59Z</time>
      </trkpt>
      <trkpt lat="42.46907" lon="0.41903">
        <ele>781.43</ele>
        <time>2018-08-07T08:01:00Z</time>
      </trkpt>
      <trkpt lat="42.46884" lon="0.41912">
        <ele>779.82</ele>
        <time>2018-08-07T08:01:01Z</time>
      </trkpt>
      <trkpt lat="42.4686" lon="0.41923">
        <ele>778.64</ele>
        <time>2018-08-07T08:01:02Z</time>
      </trkpt>
      <trkpt lat="42.46839" lon="0.41932">
        <ele>778.28</ele>
        <time>2018-08-07T08:01:03Z</time>
      </trkpt>
      <trkpt lat="42.46821" lon="0.4194">
        <ele>777.48</ele>
        <time>2018-08-07T08:01:04Z</time>
      </trkpt>
      <trkpt lat="42.46803" lon="0.41946">
        <ele>777.23</ele>
        <time>2018-08-07T08:01:05Z</time>
      </trkpt>
      <trkpt lat="42.46771" lon="0.41959">
        <ele>775.53</ele>
        <time>2018-08-07T08:01:07Z</time>
      </trkpt>
      <trkpt lat="42.46744" lon="0.41972">
        <ele>774.96</ele>
        <time>2018-08-07T08:01:09Z</time>
      </trkpt>
      <trkpt lat="42.46716" lon="0.41983">
        <ele>775.11</ele>
        <time>2018-08-07T08:01:11Z</time>
      </trkpt>
      <trkpt lat="42.46686" lon="0.41987">
        <ele>774.43</ele>
        <time>2018-08-07T08:01:13Z</time>
      </trkpt>
      <trkpt lat="42.46653" lon="0.41987">
        <ele>773.46</ele>
        <time>2018-08-07T08:01:15Z</time>
      </trkpt>
      <trkpt lat="42.46632" lon="0.41985">
        <ele>772.53</ele>
        <time>2018-08-07T08:01:16Z</time>
      </trkpt>
      <trkpt lat="42.46607" lon="0.41982">
        <ele>771.55</ele>
        <time>2018-08-07T08:01:17Z</time>
      </trkpt>
      <trkpt lat="42.46583" lon="0.41982">
        <ele>771.26</ele>
        <time>2018-08-07T08:01:18Z</time>
      </trkpt>
      <trkpt lat="42.46557" lon="0.41978">
        <ele>770.47</ele>
        <time>2018-08-07T08:01:19Z</time>
      </trkpt>
      <trkpt lat="42.46533" lon="0.41975">
        <ele>770.23</ele>
        <time>2018-08-07T08:01:20Z</time>
      </trkpt>
      <trkpt lat="42.4651" lon="0.4197">
        <ele>770.16</ele>
        <time>2018-08-07T08:01:21Z</time>
      </trkpt>
      <trkpt lat="42.46488" lon="0.41965">
        <ele>770.14</ele>
        <time>2018-08-07T08:01:22Z</time>
      </trkpt>
      <trkpt lat="42.46466" lon="0.41961">
        <ele>769.43</ele>
        <time>2018-08-07T08:01:23Z</time>
      </trkpt>
      <trkpt lat="42.46446" lon="0.41957">
        <ele>768.52</ele>
        <time>2018-08-07T08:01:24Z</time>
      </trkpt>
      <trkpt lat="42.46428" lon="0.41952">
        <ele>768.25</ele>
        <time>2018-08-07T08:01:25Z</time>
      </trkpt>
      <trkpt lat="42.46409" lon="0.41947">
        <ele>768.17</ele>
        <time>2018-08-07T08:01:26Z</time>
      </trkpt>
      <trkpt lat="42.46392" lon="0.41935">
        <ele>767.44</ele>
        <time>2018-08-07T08:01:27Z</time>
      </trkpt>
      <trkpt lat="42.46369" lon="0.41896">
        <ele>767.86</ele>
        <time>2018-08-07T08:01:29Z</time>
      </trkpt>
      <trkpt lat="42.46354" lon="0.41877">
        <ele>768.05</ele>
        <time>2018-08-07T08:01:30Z</time>
      </trkpt>
      <trkpt lat="42.46341" lon="0.41855">
        <ele>768.81</ele>
        <time>2018-08-07T08:01:31Z</time>
      </trkpt>
      <trkpt lat="42.46331" lon="0.41831">
        <ele>769.03</ele>
        <time>2018-08-07T08:01:32Z</time>
      </trkpt>
      <trkpt lat="42.46323" lon="0.41804">
        <ele>769.8</ele>
        <time>2018-08-07T08:01:33Z</time>
      </trkpt>
      <trkpt lat="42.46315" lon="0.41777">
        <ele>770.03</ele>
        <time>2018-08-07T08:01:34Z</time>
      </trkpt>
      <trkpt lat="42.46308" lon="0.4175">
        <ele>770.1</ele>
        <time>2018-08-07T08:01:35Z</time>
      </trkpt>
      <trkpt lat="42.46302" lon="0.4172">
        <ele>770.82</ele>
        <time>2018-08-07T08:01:36Z</time>
      </trkpt>
      <trkpt lat="42.463" lon="0.41689">
        <ele>771.74</ele>
        <time>2018-08-07T08:01:37Z</time>
      </trkpt>
      <trkpt lat="42.463" lon="0.41657">
        <ele>771.31</ele>
        <time>2018-08-07T08:01:38Z</time>
      </trkpt>
      <trkpt lat="42.463" lon="0.41626">
        <ele>771.18</ele>
        <time>2018-08-07T08:01:39Z</time>
      </trkpt>
      <trkpt lat="42.463" lon="0.41595">
        <ele>770.45</ele>
        <time>2018-08-07T08:01:40Z</time>
      </trkpt>
      <trkpt lat="42.46299" lon="0.41565">
        <ele>770.92</ele>
        <time>2018-08-07T08:01:41Z</time>
      </trkpt>
      <trkpt lat="42.46296" lon="0.41536">
        <ele>770.37</ele>
        <time>2018-08-07T08:01:42Z</time>
      </trkpt>
      <trkpt lat="42.46293" lon="0.41507">
        <ele>769.5</ele>
        <time>2018-08-07T08:01:43Z</time>
      </trkpt>
      <trkpt lat="42.4629" lon="0.41479">
        <ele>769.24</ele>
        <time>2018-08-07T08:01:44Z</time>
      </trkpt>
      <trkpt lat="42.46279" lon="0.41451">
        <ele>769.16</ele>
        <time>2018-08-07T08:01:45Z</time>
      </trkpt>
      <trkpt lat="42.46271" lon="0.41423">
        <ele>768.44</ele>
        <time>2018-08-07T08:01:46Z</time>
      </trkpt>
      <trkpt lat="42.46267" lon="0.41394">
        <ele>768.22</ele>
        <time>2018-08-07T08:01:47Z</time>
      </trkpt>
      <trkpt lat="42.46262" lon="0.41364">
        <ele>768.16</ele>
        <time>2018-08-07T08:01:48Z</time>
      </trkpt>
      <trkpt lat="42.46262" lon="0.41333">
        <ele>768.14</ele>
        <time>2018-08-07T08:01:49Z</time>
      </trkpt>
      <trkpt lat="42.46262" lon="0.41302">
        <ele>768.13</ele>
        <time>2018-08-07T08:01:50Z</time>
      </trkpt>
      <trkpt lat="42.46275" lon="0.41272">
        <ele>768.13</ele>
        <time>2018-08-07T08:01:51Z</time>
      </trkpt>
      <trkpt lat="42.46284" lon="0.41241">
        <ele>770.23</ele>
        <time>2018-08-07T08:01:52Z</time>
      </trkpt>
      <trkpt lat="42.46291" lon="0.41208">
        <ele>771.56</ele>
        <time>2018-08-07T08:01:53Z</time>
      </trkpt>
      <trkpt lat="42.46299" lon="0.41175">
        <ele>772.66</ele>
        <time>2018-08-07T08:01:54Z</time>
      </trkpt>
      <trkpt lat="42.46304" lon="0.41143">
        <ele>773.69</ele>
        <time>2018-08-07T08:01:55Z</time>
      </trkpt>
      <trkpt lat="42.46309" lon="0.41113">
        <ele>774</ele>
        <time>2018-08-07T08:01:56Z</time>
      </trkpt>
      <trkpt lat="42.4631" lon="0.41087">
        <ele>774.79</ele>
        <time>2018-08-07T08:01:57Z</time>
      </trkpt>
      <trkpt lat="42.46309" lon="0.41062">
        <ele>775.03</ele>
        <time>2018-08-07T08:01:58Z</time>
      </trkpt>
      <trkpt lat="42.463" lon="0.41016">
        <ele>776.24</ele>
        <time>2018-08-07T08:02:00Z</time>
      </trkpt>
      <trkpt lat="42.46296" lon="0.4097">
        <ele>776.84</ele>
        <time>2018-08-07T08:02:02Z</time>
      </trkpt>
      <trkpt lat="42.46309" lon="0.40921">
        <ele>776.4</ele>
        <time>2018-08-07T08:02:04Z</time>
      </trkpt>
      <trkpt lat="42.46312" lon="0.40895">
        <ele>776.21</ele>
        <time>2018-08-07T08:02:05Z</time>
      </trkpt>
      <trkpt lat="42.46315" lon="0.40868">
        <ele>776.15</ele>
        <time>2018-08-07T08:02:06Z</time>
      </trkpt>
      <trkpt lat="42.46316" lon="0.40842">
        <ele>776.84</ele>
        <time>2018-08-07T08:02:07Z</time>
      </trkpt>
      <trkpt lat="42.46315" lon="0.40817">
        <ele>777.74</ele>
        <time>2018-08-07T08:02:08Z</time>
      </trkpt>
      <trkpt lat="42.4631" lon="0.40768">
        <ele>779.71</ele>
        <time>2018-08-07T08:02:10Z</time>
      </trkpt>
      <trkpt lat="42.46308" lon="0.40744">
        <ele>780</ele>
        <time>2018-08-07T08:02:11Z</time>
      </trkpt>
      <trkpt lat="42.4631" lon="0.40699">
        <ele>782.64</ele>
        <time>2018-08-07T08:02:13Z</time>
      </trkpt>
      <trkpt lat="42.46312" lon="0.40656">
        <ele>784.7</ele>
        <time>2018-08-07T08:02:15Z</time>
      </trkpt>
      <trkpt lat="42.46315" lon="0.40617">
        <ele>786.49</ele>
        <time>2018-08-07T08:02:17Z</time>
      </trkpt>
      <trkpt lat="42.46313" lon="0.4058">
        <ele>787.28</ele>
        <time>2018-08-07T08:02:19Z</time>
      </trkpt>
      <trkpt lat="42.46308" lon="0.40543">
        <ele>786.44</ele>
        <time>2018-08-07T08:02:21Z</time>
      </trkpt>
      <trkpt lat="42.46294" lon="0.4051">
        <ele>786.86</ele>
        <time>2018-08-07T08:02:23Z</time>
      </trkpt>
      <trkpt lat="42.4628" lon="0.4048">
        <ele>789.42</ele>
        <time>2018-08-07T08:02:25Z</time>
      </trkpt>
      <trkpt lat="42.46273" lon="0.40449">
        <ele>790.77</ele>
        <time>2018-08-07T08:02:27Z</time>
      </trkpt>
      <trkpt lat="42.46253" lon="0.40425">
        <ele>790.4</ele>
        <time>2018-08-07T08:02:29Z</time>
      </trkpt>
      <trkpt lat="42.46229" lon="0.40392">
        <ele>789.24</ele>
        <time>2018-08-07T08:02:31Z</time>
      </trkpt>
      <trkpt lat="42.46221" lon="0.40369">
        <ele>789.16</ele>
        <time>2018-08-07T08:02:32Z</time>
      </trkpt>
      <trkpt lat="42.46211" lon="0.40344">
        <ele>789.14</ele>
        <time>2018-08-07T08:02:33Z</time>
      </trkpt>
      <trkpt lat="42.46196" lon="0.4032">
        <ele>788.43</ele>
        <time>2018-08-07T08:02:34Z</time>
      </trkpt>
      <trkpt lat="42.46182" lon="0.40296">
        <ele>788.22</ele>
        <time>2018-08-07T08:02:35Z</time>
      </trkpt>
      <trkpt lat="42.46167" lon="0.40271">
        <ele>787.46</ele>
        <time>2018-08-07T08:02:36Z</time>
      </trkpt>
      <trkpt lat="42.46153" lon="0.40247">
        <ele>786.53</ele>
        <time>2018-08-07T08:02:37Z</time>
      </trkpt>
      <trkpt lat="42.46139" lon="0.40223">
        <ele>786.25</ele>
        <time>2018-08-07T08:02:38Z</time>
      </trkpt>
      <trkpt lat="42.46121" lon="0.40203">
        <ele>786.17</ele>
        <time>2018-08-07T08:02:39Z</time>
      </trkpt>
      <trkpt lat="42.46106" lon="0.40182">
        <ele>784.74</ele>
        <time>2018-08-07T08:02:40Z</time>
      </trkpt>
      <trkpt lat="42.46092" lon="0.40161">
        <ele>784.31</ele>
        <time>2018-08-07T08:02:41Z</time>
      </trkpt>
      <trkpt lat="42.46079" lon="0.40139">
        <ele>783.48</ele>
        <time>2018-08-07T08:02:42Z</time>
      </trkpt>
      <trkpt lat="42.4607" lon="0.40116">
        <ele>782.54</ele>
        <time>2018-08-07T08:02:43Z</time>
      </trkpt>
      <trkpt lat="42.46059" lon="0.40095">
        <ele>780.85</ele>
        <time>2018-08-07T08:02:44Z</time>
      </trkpt>
      <trkpt lat="42.46047" lon="0.40074">
        <ele>780.35</ele>
        <time>2018-08-07T08:02:45Z</time>
      </trkpt>
      <trkpt lat="42.46034" lon="0.40056">
        <ele>779.49</ele>
        <time>2018-08-07T08:02:46Z</time>
      </trkpt>
      <trkpt lat="42.46013" lon="0.40023">
        <ele>779.16</ele>
        <time>2018-08-07T08:02:48Z</time>
      </trkpt>
      <trkpt lat="42.45996" lon="0.39999">
        <ele>776.82</ele>
        <time>2018-08-07T08:02:50Z</time>
      </trkpt>
      <trkpt lat="42.45975" lon="0.39973">
        <ele>775.49</ele>
        <time>2018-08-07T08:02:52Z</time>
      </trkpt>
      <trkpt lat="42.45947" lon="0.39941">
        <ele>774.46</ele>
        <time>2018-08-07T08:02:54Z</time>
      </trkpt>
      <trkpt lat="42.45933" lon="0.39921">
        <ele>774.23</ele>
        <time>2018-08-07T08:02:55Z</time>
      </trkpt>
      <trkpt lat="42.45919" lon="0.39899">
        <ele>773.46</ele>
        <time>2018-08-07T08:02:56Z</time>
      </trkpt>
      <trkpt lat="42.45905" lon="0.39876">
        <ele>771.83</ele>
        <time>2018-08-07T08:02:57Z</time>
      </trkpt>
      <trkpt lat="42.45892" lon="0.3985">
        <ele>771.34</ele>
        <time>2018-08-07T08:02:58Z</time>
      </trkpt>
      <trkpt lat="42.45879" lon="0.39825">
        <ele>769.09</ele>
        <time>2018-08-07T08:02:59Z</time>
      </trkpt>
      <trkpt lat="42.45866" lon="0.39799">
        <ele>767.72</ele>
        <time>2018-08-07T08:03:00Z</time>
      </trkpt>
      <trkpt lat="42.45853" lon="0.39773">
        <ele>767.31</ele>
        <time>2018-08-07T08:03:01Z</time>
      </trkpt>
      <trkpt lat="42.45838" lon="0.39749">
        <ele>765.78</ele>
        <time>2018-08-07T08:03:02Z</time>
      </trkpt>
      <trkpt lat="42.45826" lon="0.39723">
        <ele>764.63</ele>
        <time>2018-08-07T08:03:03Z</time>
      </trkpt>
      <trkpt lat="42.45814" lon="0.39694">
        <ele>764.28</ele>
        <time>2018-08-07T08:03:04Z</time>
      </trkpt>
      <trkpt lat="42.45801" lon="0.39667">
        <ele>762.07</ele>
        <time>2018-08-07T08:03:05Z</time>
      </trkpt>
      <trkpt lat="42.45789" lon="0.3964">
        <ele>760.01</ele>
        <time>2018-08-07T08:03:06Z</time>
      </trkpt>
      <trkpt lat="42.45778" lon="0.39613">
        <ele>759.4</ele>
        <time>2018-08-07T08:03:07Z</time>
      </trkpt>
      <trkpt lat="42.45767" lon="0.39585">
        <ele>758.51</ele>
        <time>2018-08-07T08:03:08Z</time>
      </trkpt>
      <trkpt lat="42.45759" lon="0.39557">
        <ele>757.54</ele>
        <time>2018-08-07T08:03:09Z</time>
      </trkpt>
      <trkpt lat="42.45749" lon="0.39529">
        <ele>757.25</ele>
        <time>2018-08-07T08:03:10Z</time>
      </trkpt>
      <trkpt lat="42.45739" lon="0.39501">
        <ele>756.47</ele>
        <time>2018-08-07T08:03:11Z</time>
      </trkpt>
      <trkpt lat="42.45729" lon="0.39474">
        <ele>756.23</ele>
        <time>2018-08-07T08:03:12Z</time>
      </trkpt>
      <trkpt lat="42.45719" lon="0.39447">
        <ele>756.16</ele>
        <time>2018-08-07T08:03:13Z</time>
      </trkpt>
      <trkpt lat="42.45711" lon="0.39421">
        <ele>755.44</ele>
        <time>2018-08-07T08:03:14Z</time>
      </trkpt>
      <trkpt lat="42.45704" lon="0.39394">
        <ele>755.22</ele>
        <time>2018-08-07T08:03:15Z</time>
      </trkpt>
      <trkpt lat="42.45697" lon="0.39369">
        <ele>755.16</ele>
        <time>2018-08-07T08:03:16Z</time>
      </trkpt>
      <trkpt lat="42.45694" lon="0.39344">
        <ele>755.84</ele>
        <time>2018-08-07T08:03:17Z</time>
      </trkpt>
      <trkpt lat="42.45691" lon="0.39299">
        <ele>754.49</ele>
        <time>2018-08-07T08:03:19Z</time>
      </trkpt>
      <trkpt lat="42.45684" lon="0.39254">
        <ele>753.46</ele>
        <time>2018-08-07T08:03:21Z</time>
      </trkpt>
      <trkpt lat="42.45671" lon="0.39229">
        <ele>752.53</ele>
        <time>2018-08-07T08:03:22Z</time>
      </trkpt>
      <trkpt lat="42.45662" lon="0.39207">
        <ele>752.25</ele>
        <time>2018-08-07T08:03:23Z</time>
      </trkpt>
      <trkpt lat="42.45643" lon="0.39168">
        <ele>753.05</ele>
        <time>2018-08-07T08:03:25Z</time>
      </trkpt>
      <trkpt lat="42.45623" lon="0.39136">
        <ele>751.72</ele>
        <time>2018-08-07T08:03:27Z</time>
      </trkpt>
      <trkpt lat="42.45587" lon="0.39111">
        <ele>751.88</ele>
        <time>2018-08-07T08:03:29Z</time>
      </trkpt>
      <trkpt lat="42.45571" lon="0.39098">
        <ele>752.06</ele>
        <time>2018-08-07T08:03:30Z</time>
      </trkpt>
      <trkpt lat="42.45553" lon="0.39085">
        <ele>752.11</ele>
        <time>2018-08-07T08:03:31Z</time>
      </trkpt>
      <trkpt lat="42.45534" lon="0.39072">
        <ele>751.42</ele>
        <time>2018-08-07T08:03:32Z</time>
      </trkpt>
      <trkpt lat="42.45517" lon="0.39059">
        <ele>751.22</ele>
        <time>2018-08-07T08:03:33Z</time>
      </trkpt>
      <trkpt lat="42.455" lon="0.39045">
        <ele>750.46</ele>
        <time>2018-08-07T08:03:34Z</time>
      </trkpt>
      <trkpt lat="42.45484" lon="0.39029">
        <ele>748.83</ele>
        <time>2018-08-07T08:03:35Z</time>
      </trkpt>
      <trkpt lat="42.45468" lon="0.39015">
        <ele>749.04</ele>
        <time>2018-08-07T08:03:36Z</time>
      </trkpt>
      <trkpt lat="42.45452" lon="0.39002">
        <ele>748.4</ele>
        <time>2018-08-07T08:03:37Z</time>
      </trkpt>
      <trkpt lat="42.45436" lon="0.38988">
        <ele>748.21</ele>
        <time>2018-08-07T08:03:38Z</time>
      </trkpt>
      <trkpt lat="42.45408" lon="0.38962">
        <ele>746.53</ele>
        <time>2018-08-07T08:03:40Z</time>
      </trkpt>
      <trkpt lat="42.45382" lon="0.38935">
        <ele>745.26</ele>
        <time>2018-08-07T08:03:42Z</time>
      </trkpt>
      <trkpt lat="42.45362" lon="0.38901">
        <ele>743.32</ele>
        <time>2018-08-07T08:03:44Z</time>
      </trkpt>
      <trkpt lat="42.4536" lon="0.38856">
        <ele>743.85</ele>
        <time>2018-08-07T08:03:46Z</time>
      </trkpt>
      <trkpt lat="42.4535" lon="0.38817">
        <ele>743.89</ele>
        <time>2018-08-07T08:03:48Z</time>
      </trkpt>
      <trkpt lat="42.45335" lon="0.38786">
        <ele>743.2</ele>
        <time>2018-08-07T08:03:50Z</time>
      </trkpt>
      <trkpt lat="42.45308" lon="0.38766">
        <ele>743.14</ele>
        <time>2018-08-07T08:03:52Z</time>
      </trkpt>
      <trkpt lat="42.45279" lon="0.38749">
        <ele>741.73</ele>
        <time>2018-08-07T08:03:54Z</time>
      </trkpt>
      <trkpt lat="42.45255" lon="0.38745">
        <ele>741.88</ele>
        <time>2018-08-07T08:03:56Z</time>
      </trkpt>
      <trkpt lat="42.45228" lon="0.38746">
        <ele>741.41</ele>
        <time>2018-08-07T08:03:58Z</time>
      </trkpt>
      <trkpt lat="42.45199" lon="0.38757">
        <ele>741.16</ele>
        <time>2018-08-07T08:04:00Z</time>
      </trkpt>
      <trkpt lat="42.45184" lon="0.38772">
        <ele>741.14</ele>
        <time>2018-08-07T08:04:01Z</time>
      </trkpt>
      <trkpt lat="42.45165" lon="0.38787">
        <ele>741.83</ele>
        <time>2018-08-07T08:04:02Z</time>
      </trkpt>
      <trkpt lat="42.45146" lon="0.38796">
        <ele>742.04</ele>
        <time>2018-08-07T08:04:03Z</time>
      </trkpt>
      <trkpt lat="42.45126" lon="0.38801">
        <ele>742.8</ele>
        <time>2018-08-07T08:04:04Z</time>
      </trkpt>
      <trkpt lat="42.45107" lon="0.38804">
        <ele>743.03</ele>
        <time>2018-08-07T08:04:05Z</time>
      </trkpt>
      <trkpt lat="42.4507" lon="0.388">
        <ele>741.3</ele>
        <time>2018-08-07T08:04:07Z</time>
      </trkpt>
      <trkpt lat="42.45052" lon="0.38789">
        <ele>740.48</ele>
        <time>2018-08-07T08:04:08Z</time>
      </trkpt>
      <trkpt lat="42.45041" lon="0.3877">
        <ele>740.24</ele>
        <time>2018-08-07T08:04:09Z</time>
      </trkpt>
      <trkpt lat="42.45026" lon="0.38753">
        <ele>740.86</ele>
        <time>2018-08-07T08:04:10Z</time>
      </trkpt>
      <trkpt lat="42.45022" lon="0.38726">
        <ele>740.35</ele>
        <time>2018-08-07T08:04:11Z</time>
      </trkpt>
      <trkpt lat="42.45012" lon="0.38706">
        <ele>740.2</ele>
        <time>2018-08-07T08:04:12Z</time>
      </trkpt>
      <trkpt lat="42.45002" lon="0.38682">
        <ele>740.15</ele>
        <time>2018-08-07T08:04:13Z</time>
      </trkpt>
      <trkpt lat="42.44994" lon="0.38655">
        <ele>740.84</ele>
        <time>2018-08-07T08:04:14Z</time>
      </trkpt>
      <trkpt lat="42.44996" lon="0.38623">
        <ele>741.04</ele>
        <time>2018-08-07T08:04:15Z</time>
      </trkpt>
      <trkpt lat="42.44997" lon="0.38595">
        <ele>741.1</ele>
        <time>2018-08-07T08:04:16Z</time>
      </trkpt>
      <trkpt lat="42.45003" lon="0.38569">
        <ele>741.12</ele>
        <time>2018-08-07T08:04:17Z</time>
      </trkpt>
      <trkpt lat="42.45007" lon="0.38543">
        <ele>741.83</ele>
        <time>2018-08-07T08:04:18Z</time>
      </trkpt>
      <trkpt lat="42.45007" lon="0.38494">
        <ele>740.49</ele>
        <time>2018-08-07T08:04:20Z</time>
      </trkpt>
      <trkpt lat="42.44999" lon="0.38447">
        <ele>738.55</ele>
        <time>2018-08-07T08:04:22Z</time>
      </trkpt>
      <trkpt lat="42.44993" lon="0.38424">
        <ele>737.56</ele>
        <time>2018-08-07T08:04:23Z</time>
      </trkpt>
      <trkpt lat="42.44978" lon="0.38383">
        <ele>736.26</ele>
        <time>2018-08-07T08:04:25Z</time>
      </trkpt>
      <trkpt lat="42.44955" lon="0.3835">
        <ele>735.44</ele>
        <time>2018-08-07T08:04:27Z</time>
      </trkpt>
      <trkpt lat="42.44938" lon="0.3834">
        <ele>733.82</ele>
        <time>2018-08-07T08:04:28Z</time>
      </trkpt>
      <trkpt lat="42.4492" lon="0.38332">
        <ele>731.94</ele>
        <time>2018-08-07T08:04:29Z</time>
      </trkpt>
      <trkpt lat="42.44897" lon="0.38332">
        <ele>732.07</ele>
        <time>2018-08-07T08:04:30Z</time>
      </trkpt>
      <trkpt lat="42.44874" lon="0.38333">
        <ele>732.81</ele>
        <time>2018-08-07T08:04:31Z</time>
      </trkpt>
      <trkpt lat="42.44841" lon="0.38339">
        <ele>733.73</ele>
        <time>2018-08-07T08:04:32Z</time>
      </trkpt>
      <trkpt lat="42.44815" lon="0.38341">
        <ele>734.71</ele>
        <time>2018-08-07T08:04:33Z</time>
      </trkpt>
      <trkpt lat="42.44792" lon="0.38344">
        <ele>736.4</ele>
        <time>2018-08-07T08:04:34Z</time>
      </trkpt>
      <trkpt lat="42.44769" lon="0.38347">
        <ele>736.91</ele>
        <time>2018-08-07T08:04:35Z</time>
      </trkpt>
      <trkpt lat="42.44746" lon="0.3835">
        <ele>737.76</ele>
        <time>2018-08-07T08:04:36Z</time>
      </trkpt>
      <trkpt lat="42.44725" lon="0.3835">
        <ele>737.32</ele>
        <time>2018-08-07T08:04:37Z</time>
      </trkpt>
      <trkpt lat="42.44704" lon="0.38349">
        <ele>737.19</ele>
        <time>2018-08-07T08:04:38Z</time>
      </trkpt>
      <trkpt lat="42.44684" lon="0.38346">
        <ele>737.15</ele>
        <time>2018-08-07T08:04:39Z</time>
      </trkpt>
      <trkpt lat="42.44665" lon="0.38335">
        <ele>737.14</ele>
        <time>2018-08-07T08:04:40Z</time>
      </trkpt>
      <trkpt lat="42.44647" lon="0.38329">
        <ele>737.13</ele>
        <time>2018-08-07T08:04:41Z</time>
      </trkpt>
      <trkpt lat="42.44628" lon="0.3832">
        <ele>737.13</ele>
        <time>2018-08-07T08:04:42Z</time>
      </trkpt>
      <trkpt lat="42.44611" lon="0.38306">
        <ele>736.43</ele>
        <time>2018-08-07T08:04:43Z</time>
      </trkpt>
      <trkpt lat="42.44594" lon="0.38296">
        <ele>735.52</ele>
        <time>2018-08-07T08:04:44Z</time>
      </trkpt>
      <trkpt lat="42.44573" lon="0.38274">
        <ele>736.78</ele>
        <time>2018-08-07T08:04:46Z</time>
      </trkpt>
      <trkpt lat="42.44544" lon="0.38266">
        <ele>738.01</ele>
        <time>2018-08-07T08:04:48Z</time>
      </trkpt>
      <trkpt lat="42.44519" lon="0.38264">
        <ele>738.82</ele>
        <time>2018-08-07T08:04:50Z</time>
      </trkpt>
      <trkpt lat="42.445" lon="0.38278">
        <ele>739.1</ele>
        <time>2018-08-07T08:04:52Z</time>
      </trkpt>
      <trkpt lat="42.44474" lon="0.38313">
        <ele>740.53</ele>
        <time>2018-08-07T08:04:54Z</time>
      </trkpt>
      <trkpt lat="42.44469" lon="0.38339">
        <ele>740.25</ele>
        <time>2018-08-07T08:04:55Z</time>
      </trkpt>
      <trkpt lat="42.44473" lon="0.38391">
        <ele>740.14</ele>
        <time>2018-08-07T08:04:57Z</time>
      </trkpt>
      <trkpt lat="42.44472" lon="0.38416">
        <ele>739.43</ele>
        <time>2018-08-07T08:04:58Z</time>
      </trkpt>
      <trkpt lat="42.44469" lon="0.38444">
        <ele>739.22</ele>
        <time>2018-08-07T08:04:59Z</time>
      </trkpt>
      <trkpt lat="42.44465" lon="0.38471">
        <ele>739.16</ele>
        <time>2018-08-07T08:05:00Z</time>
      </trkpt>
      <trkpt lat="42.44458" lon="0.38499">
        <ele>738.44</ele>
        <time>2018-08-07T08:05:01Z</time>
      </trkpt>
      <trkpt lat="42.44446" lon="0.38526">
        <ele>736.82</ele>
        <time>2018-08-07T08:05:02Z</time>
      </trkpt>
      <trkpt lat="42.44434" lon="0.38554">
        <ele>736.34</ele>
        <time>2018-08-07T08:05:03Z</time>
      </trkpt>
      <trkpt lat="42.44422" lon="0.38576">
        <ele>735.49</ele>
        <time>2018-08-07T08:05:04Z</time>
      </trkpt>
      <trkpt lat="42.4441" lon="0.38599">
        <ele>735.94</ele>
        <time>2018-08-07T08:05:05Z</time>
      </trkpt>
      <trkpt lat="42.44397" lon="0.38621">
        <ele>735.37</ele>
        <time>2018-08-07T08:05:06Z</time>
      </trkpt>
      <trkpt lat="42.44382" lon="0.38637">
        <ele>735.2</ele>
        <time>2018-08-07T08:05:07Z</time>
      </trkpt>
      <trkpt lat="42.44369" lon="0.38655">
        <ele>735.15</ele>
        <time>2018-08-07T08:05:08Z</time>
      </trkpt>
      <trkpt lat="42.44355" lon="0.38674">
        <ele>734.44</ele>
        <time>2018-08-07T08:05:09Z</time>
      </trkpt>
      <trkpt lat="42.44342" lon="0.38693">
        <ele>733.52</ele>
        <time>2018-08-07T08:05:10Z</time>
      </trkpt>
      <trkpt lat="42.44329" lon="0.38711">
        <ele>733.25</ele>
        <time>2018-08-07T08:05:11Z</time>
      </trkpt>
      <trkpt lat="42.44316" lon="0.38731">
        <ele>733.17</ele>
        <time>2018-08-07T08:05:12Z</time>
      </trkpt>
      <trkpt lat="42.44306" lon="0.38754">
        <ele>732.44</ele>
        <time>2018-08-07T08:05:13Z</time>
      </trkpt>
      <trkpt lat="42.44297" lon="0.38777">
        <ele>732.22</ele>
        <time>2018-08-07T08:05:14Z</time>
      </trkpt>
      <trkpt lat="42.44278" lon="0.38816">
        <ele>731.44</ele>
        <time>2018-08-07T08:05:16Z</time>
      </trkpt>
      <trkpt lat="42.44255" lon="0.38846">
        <ele>729.55</ele>
        <time>2018-08-07T08:05:18Z</time>
      </trkpt>
      <trkpt lat="42.44232" lon="0.3887">
        <ele>726.65</ele>
        <time>2018-08-07T08:05:20Z</time>
      </trkpt>
      <trkpt lat="42.44206" lon="0.38881">
        <ele>725.27</ele>
        <time>2018-08-07T08:05:22Z</time>
      </trkpt>
      <trkpt lat="42.44181" lon="0.38885">
        <ele>724.44</ele>
        <time>2018-08-07T08:05:24Z</time>
      </trkpt>
      <trkpt lat="42.44159" lon="0.38884">
        <ele>722.55</ele>
        <time>2018-08-07T08:05:26Z</time>
      </trkpt>
      <trkpt lat="42.44134" lon="0.38878">
        <ele>721.47</ele>
        <time>2018-08-07T08:05:28Z</time>
      </trkpt>
      <trkpt lat="42.44109" lon="0.38863">
        <ele>720.25</ele>
        <time>2018-08-07T08:05:30Z</time>
      </trkpt>
      <trkpt lat="42.44094" lon="0.38846">
        <ele>720.17</ele>
        <time>2018-08-07T08:05:31Z</time>
      </trkpt>
      <trkpt lat="42.44081" lon="0.38828">
        <ele>719.44</ele>
        <time>2018-08-07T08:05:32Z</time>
      </trkpt>
      <trkpt lat="42.44065" lon="0.38792">
        <ele>718.46</ele>
        <time>2018-08-07T08:05:34Z</time>
      </trkpt>
      <trkpt lat="42.44055" lon="0.38754">
        <ele>718.86</ele>
        <time>2018-08-07T08:05:36Z</time>
      </trkpt>
      <trkpt lat="42.44043" lon="0.38734">
        <ele>718.41</ele>
        <time>2018-08-07T08:05:38Z</time>
      </trkpt>
      <trkpt lat="42.4402" lon="0.38712">
        <ele>717.94</ele>
        <time>2018-08-07T08:05:40Z</time>
      </trkpt>
      <trkpt lat="42.43998" lon="0.38697">
        <ele>719.72</ele>
        <time>2018-08-07T08:05:42Z</time>
      </trkpt>
      <trkpt lat="42.43964" lon="0.38709">
        <ele>718.97</ele>
        <time>2018-08-07T08:05:44Z</time>
      </trkpt>
      <trkpt lat="42.43933" lon="0.38721">
        <ele>718.91</ele>
        <time>2018-08-07T08:05:46Z</time>
      </trkpt>
      <trkpt lat="42.439" lon="0.38726">
        <ele>718.41</ele>
        <time>2018-08-07T08:05:48Z</time>
      </trkpt>
      <trkpt lat="42.43867" lon="0.3872">
        <ele>718.86</ele>
        <time>2018-08-07T08:05:50Z</time>
      </trkpt>
      <trkpt lat="42.43836" lon="0.3872">
        <ele>719.32</ele>
        <time>2018-08-07T08:05:52Z</time>
      </trkpt>
      <trkpt lat="42.43807" lon="0.38717">
        <ele>718.24</ele>
        <time>2018-08-07T08:05:54Z</time>
      </trkpt>
      <trkpt lat="42.43785" lon="0.38696">
        <ele>717.93</ele>
        <time>2018-08-07T08:05:56Z</time>
      </trkpt>
      <trkpt lat="42.43763" lon="0.38677">
        <ele>718.32</ele>
        <time>2018-08-07T08:05:58Z</time>
      </trkpt>
      <trkpt lat="42.43746" lon="0.38667">
        <ele>720.46</ele>
        <time>2018-08-07T08:06:00Z</time>
      </trkpt>
      <trkpt lat="42.43719" lon="0.3867">
        <ele>723.63</ele>
        <time>2018-08-07T08:06:03Z</time>
      </trkpt>
      <trkpt lat="42.437" lon="0.38671">
        <ele>724.79</ele>
        <time>2018-08-07T08:06:05Z</time>
      </trkpt>
      <trkpt lat="42.43679" lon="0.3867">
        <ele>725.1</ele>
        <time>2018-08-07T08:06:07Z</time>
      </trkpt>
      <trkpt lat="42.43657" lon="0.38664">
        <ele>726.95</ele>
        <time>2018-08-07T08:06:10Z</time>
      </trkpt>
      <trkpt lat="42.43635" lon="0.38677">
        <ele>727.13</ele>
        <time>2018-08-07T08:06:13Z</time>
      </trkpt>
      <trkpt lat="42.43616" lon="0.38686">
        <ele>728.04</ele>
        <time>2018-08-07T08:06:15Z</time>
      </trkpt>
      <trkpt lat="42.43593" lon="0.38704">
        <ele>729.1</ele>
        <time>2018-08-07T08:06:18Z</time>
      </trkpt>
      <trkpt lat="42.43574" lon="0.38714">
        <ele>729.83</ele>
        <time>2018-08-07T08:06:20Z</time>
      </trkpt>
      <trkpt lat="42.43552" lon="0.38713">
        <ele>730.1</ele>
        <time>2018-08-07T08:06:22Z</time>
      </trkpt>
      <trkpt lat="42.43531" lon="0.3872">
        <ele>730.34</ele>
        <time>2018-08-07T08:06:24Z</time>
      </trkpt>
      <trkpt lat="42.43507" lon="0.38733">
        <ele>733.37</ele>
        <time>2018-08-07T08:06:26Z</time>
      </trkpt>
      <trkpt lat="42.43488" lon="0.38748">
        <ele>733.2</ele>
        <time>2018-08-07T08:06:27Z</time>
      </trkpt>
      <trkpt lat="42.43457" lon="0.3876">
        <ele>734.75</ele>
        <time>2018-08-07T08:06:29Z</time>
      </trkpt>
      <trkpt lat="42.43431" lon="0.38772">
        <ele>735.8</ele>
        <time>2018-08-07T08:06:31Z</time>
      </trkpt>
      <trkpt lat="42.43405" lon="0.38776">
        <ele>736.1</ele>
        <time>2018-08-07T08:06:33Z</time>
      </trkpt>
      <trkpt lat="42.4338" lon="0.38773">
        <ele>735.22</ele>
        <time>2018-08-07T08:06:35Z</time>
      </trkpt>
      <trkpt lat="42.43356" lon="0.38756">
        <ele>735.14</ele>
        <time>2018-08-07T08:06:37Z</time>
      </trkpt>
      <trkpt lat="42.43334" lon="0.3873">
        <ele>735.34</ele>
        <time>2018-08-07T08:06:39Z</time>
      </trkpt>
      <trkpt lat="42.43315" lon="0.387">
        <ele>736.06</ele>
        <time>2018-08-07T08:06:41Z</time>
      </trkpt>
      <trkpt lat="42.43299" lon="0.38681">
        <ele>736.11</ele>
        <time>2018-08-07T08:06:42Z</time>
      </trkpt>
      <trkpt lat="42.43281" lon="0.38659">
        <ele>736.12</ele>
        <time>2018-08-07T08:06:43Z</time>
      </trkpt>
      <trkpt lat="42.43266" lon="0.38637">
        <ele>736.83</ele>
        <time>2018-08-07T08:06:44Z</time>
      </trkpt>
      <trkpt lat="42.4325" lon="0.38618">
        <ele>737.04</ele>
        <time>2018-08-07T08:06:45Z</time>
      </trkpt>
      <trkpt lat="42.43237" lon="0.38599">
        <ele>736.4</ele>
        <time>2018-08-07T08:06:46Z</time>
      </trkpt>
      <trkpt lat="42.43223" lon="0.3858">
        <ele>736.21</ele>
        <time>2018-08-07T08:06:47Z</time>
      </trkpt>
      <trkpt lat="42.43216" lon="0.38556">
        <ele>738.25</ele>
        <time>2018-08-07T08:06:48Z</time>
      </trkpt>
      <trkpt lat="42.43209" lon="0.38533">
        <ele>740.27</ele>
        <time>2018-08-07T08:06:49Z</time>
      </trkpt>
      <trkpt lat="42.43194" lon="0.38495">
        <ele>742.66</ele>
        <time>2018-08-07T08:06:51Z</time>
      </trkpt>
      <trkpt lat="42.43182" lon="0.38467">
        <ele>747.01</ele>
        <time>2018-08-07T08:06:53Z</time>
      </trkpt>
      <trkpt lat="42.43166" lon="0.38448">
        <ele>748.73</ele>
        <time>2018-08-07T08:06:55Z</time>
      </trkpt>
      <trkpt lat="42.43136" lon="0.38464">
        <ele>749.09</ele>
        <time>2018-08-07T08:06:57Z</time>
      </trkpt>
      <trkpt lat="42.43106" lon="0.3846">
        <ele>748.22</ele>
        <time>2018-08-07T08:06:59Z</time>
      </trkpt>
      <trkpt lat="42.43079" lon="0.38436">
        <ele>748.35</ele>
        <time>2018-08-07T08:07:01Z</time>
      </trkpt>
      <trkpt lat="42.43056" lon="0.38407">
        <ele>745.84</ele>
        <time>2018-08-07T08:07:03Z</time>
      </trkpt>
      <trkpt lat="42.43027" lon="0.3838">
        <ele>745.19</ele>
        <time>2018-08-07T08:07:05Z</time>
      </trkpt>
      <trkpt lat="42.42994" lon="0.38364">
        <ele>746.05</ele>
        <time>2018-08-07T08:07:07Z</time>
      </trkpt>
      <trkpt lat="42.42976" lon="0.38359">
        <ele>744.7</ele>
        <time>2018-08-07T08:07:08Z</time>
      </trkpt>
      <trkpt lat="42.42946" lon="0.38358">
        <ele>744.18</ele>
        <time>2018-08-07T08:07:10Z</time>
      </trkpt>
      <trkpt lat="42.42917" lon="0.38374">
        <ele>743.43</ele>
        <time>2018-08-07T08:07:12Z</time>
      </trkpt>
      <trkpt lat="42.42893" lon="0.38391">
        <ele>741.34</ele>
        <time>2018-08-07T08:07:14Z</time>
      </trkpt>
      <trkpt lat="42.42888" lon="0.38424">
        <ele>740.24</ele>
        <time>2018-08-07T08:07:16Z</time>
      </trkpt>
      <trkpt lat="42.42881" lon="0.3846">
        <ele>738.53</ele>
        <time>2018-08-07T08:07:18Z</time>
      </trkpt>
      <trkpt lat="42.42874" lon="0.38494">
        <ele>735.65</ele>
        <time>2018-08-07T08:07:20Z</time>
      </trkpt>
      <trkpt lat="42.42873" lon="0.38532">
        <ele>733.08</ele>
        <time>2018-08-07T08:07:22Z</time>
      </trkpt>
      <trkpt lat="42.4287" lon="0.38574">
        <ele>730.82</ele>
        <time>2018-08-07T08:07:24Z</time>
      </trkpt>
      <trkpt lat="42.42862" lon="0.38607">
        <ele>730.19</ele>
        <time>2018-08-07T08:07:26Z</time>
      </trkpt>
      <trkpt lat="42.42846" lon="0.38629">
        <ele>729.23</ele>
        <time>2018-08-07T08:07:28Z</time>
      </trkpt>
      <trkpt lat="42.42819" lon="0.38632">
        <ele>729.16</ele>
        <time>2018-08-07T08:07:29Z</time>
      </trkpt>
      <trkpt lat="42.42789" lon="0.38652">
        <ele>727.52</ele>
        <time>2018-08-07T08:07:31Z</time>
      </trkpt>
      <trkpt lat="42.42773" lon="0.38665">
        <ele>727.25</ele>
        <time>2018-08-07T08:07:32Z</time>
      </trkpt>
      <trkpt lat="42.42758" lon="0.3868">
        <ele>725.77</ele>
        <time>2018-08-07T08:07:33Z</time>
      </trkpt>
      <trkpt lat="42.42743" lon="0.38694">
        <ele>723.92</ele>
        <time>2018-08-07T08:07:34Z</time>
      </trkpt>
      <trkpt lat="42.42728" lon="0.38707">
        <ele>723.37</ele>
        <time>2018-08-07T08:07:35Z</time>
      </trkpt>
      <trkpt lat="42.42712" lon="0.38721">
        <ele>722.5</ele>
        <time>2018-08-07T08:07:36Z</time>
      </trkpt>
      <trkpt lat="42.4268" lon="0.38735">
        <ele>720.06</ele>
        <time>2018-08-07T08:07:38Z</time>
      </trkpt>
      <trkpt lat="42.42652" lon="0.38736">
        <ele>717.6</ele>
        <time>2018-08-07T08:07:40Z</time>
      </trkpt>
      <trkpt lat="42.42628" lon="0.38725">
        <ele>714.65</ele>
        <time>2018-08-07T08:07:42Z</time>
      </trkpt>
      <trkpt lat="42.4261" lon="0.38734">
        <ele>714.18</ele>
        <time>2018-08-07T08:07:44Z</time>
      </trkpt>
      <trkpt lat="42.42588" lon="0.38743">
        <ele>711.61</ele>
        <time>2018-08-07T08:07:46Z</time>
      </trkpt>
      <trkpt lat="42.42562" lon="0.38753">
        <ele>708.65</ele>
        <time>2018-08-07T08:07:48Z</time>
      </trkpt>
      <trkpt lat="42.42536" lon="0.3877">
        <ele>707.48</ele>
        <time>2018-08-07T08:07:50Z</time>
      </trkpt>
      <trkpt lat="42.425" lon="0.38784">
        <ele>705.55</ele>
        <time>2018-08-07T08:07:52Z</time>
      </trkpt>
      <trkpt lat="42.42479" lon="0.38794">
        <ele>703.86</ele>
        <time>2018-08-07T08:07:53Z</time>
      </trkpt>
      <trkpt lat="42.42458" lon="0.38806">
        <ele>702.65</ele>
        <time>2018-08-07T08:07:54Z</time>
      </trkpt>
      <trkpt lat="42.42438" lon="0.38817">
        <ele>702.29</ele>
        <time>2018-08-07T08:07:55Z</time>
      </trkpt>
      <trkpt lat="42.42417" lon="0.38828">
        <ele>701.48</ele>
        <time>2018-08-07T08:07:56Z</time>
      </trkpt>
      <trkpt lat="42.42395" lon="0.38838">
        <ele>700.53</ele>
        <time>2018-08-07T08:07:57Z</time>
      </trkpt>
      <trkpt lat="42.42374" lon="0.38849">
        <ele>700.25</ele>
        <time>2018-08-07T08:07:58Z</time>
      </trkpt>
      <trkpt lat="42.42352" lon="0.38863">
        <ele>699.47</ele>
        <time>2018-08-07T08:07:59Z</time>
      </trkpt>
      <trkpt lat="42.4233" lon="0.38879">
        <ele>699.23</ele>
        <time>2018-08-07T08:08:00Z</time>
      </trkpt>
      <trkpt lat="42.42309" lon="0.38895">
        <ele>698.46</ele>
        <time>2018-08-07T08:08:01Z</time>
      </trkpt>
      <trkpt lat="42.42286" lon="0.3891">
        <ele>697.53</ele>
        <time>2018-08-07T08:08:02Z</time>
      </trkpt>
      <trkpt lat="42.42263" lon="0.38926">
        <ele>697.25</ele>
        <time>2018-08-07T08:08:03Z</time>
      </trkpt>
      <trkpt lat="42.4224" lon="0.38941">
        <ele>696.47</ele>
        <time>2018-08-07T08:08:04Z</time>
      </trkpt>
      <trkpt lat="42.42216" lon="0.38955">
        <ele>695.53</ele>
        <time>2018-08-07T08:08:05Z</time>
      </trkpt>
      <trkpt lat="42.42192" lon="0.38968">
        <ele>694.55</ele>
        <time>2018-08-07T08:08:06Z</time>
      </trkpt>
      <trkpt lat="42.42169" lon="0.3898">
        <ele>694.26</ele>
        <time>2018-08-07T08:08:07Z</time>
      </trkpt>
      <trkpt lat="42.42146" lon="0.38993">
        <ele>694.17</ele>
        <time>2018-08-07T08:08:08Z</time>
      </trkpt>
      <trkpt lat="42.42125" lon="0.39006">
        <ele>692.74</ele>
        <time>2018-08-07T08:08:09Z</time>
      </trkpt>
      <trkpt lat="42.42104" lon="0.3902">
        <ele>692.31</ele>
        <time>2018-08-07T08:08:10Z</time>
      </trkpt>
      <trkpt lat="42.42085" lon="0.39034">
        <ele>691.49</ele>
        <time>2018-08-07T08:08:11Z</time>
      </trkpt>
      <trkpt lat="42.42065" lon="0.39045">
        <ele>690.54</ele>
        <time>2018-08-07T08:08:12Z</time>
      </trkpt>
      <trkpt lat="42.42045" lon="0.39053">
        <ele>690.25</ele>
        <time>2018-08-07T08:08:13Z</time>
      </trkpt>
      <trkpt lat="42.42024" lon="0.39065">
        <ele>689.47</ele>
        <time>2018-08-07T08:08:14Z</time>
      </trkpt>
      <trkpt lat="42.42002" lon="0.39078">
        <ele>688.53</ele>
        <time>2018-08-07T08:08:15Z</time>
      </trkpt>
      <trkpt lat="42.41982" lon="0.39101">
        <ele>688.95</ele>
        <time>2018-08-07T08:08:16Z</time>
      </trkpt>
      <trkpt lat="42.41962" lon="0.39119">
        <ele>689.08</ele>
        <time>2018-08-07T08:08:17Z</time>
      </trkpt>
      <trkpt lat="42.4194" lon="0.39136">
        <ele>689.81</ele>
        <time>2018-08-07T08:08:18Z</time>
      </trkpt>
      <trkpt lat="42.41917" lon="0.39154">
        <ele>690.04</ele>
        <time>2018-08-07T08:08:19Z</time>
      </trkpt>
      <trkpt lat="42.41895" lon="0.39171">
        <ele>689.4</ele>
        <time>2018-08-07T08:08:20Z</time>
      </trkpt>
      <trkpt lat="42.41872" lon="0.3919">
        <ele>688.51</ele>
        <time>2018-08-07T08:08:21Z</time>
      </trkpt>
      <trkpt lat="42.4185" lon="0.39207">
        <ele>688.24</ele>
        <time>2018-08-07T08:08:22Z</time>
      </trkpt>
      <trkpt lat="42.41827" lon="0.39225">
        <ele>688.16</ele>
        <time>2018-08-07T08:08:23Z</time>
      </trkpt>
      <trkpt lat="42.41804" lon="0.39243">
        <ele>688.14</ele>
        <time>2018-08-07T08:08:24Z</time>
      </trkpt>
      <trkpt lat="42.41781" lon="0.3926">
        <ele>687.43</ele>
        <time>2018-08-07T08:08:25Z</time>
      </trkpt>
      <trkpt lat="42.4176" lon="0.39277">
        <ele>687.22</ele>
        <time>2018-08-07T08:08:26Z</time>
      </trkpt>
      <trkpt lat="42.4174" lon="0.39293">
        <ele>687.16</ele>
        <time>2018-08-07T08:08:27Z</time>
      </trkpt>
      <trkpt lat="42.4172" lon="0.39307">
        <ele>686.44</ele>
        <time>2018-08-07T08:08:28Z</time>
      </trkpt>
      <trkpt lat="42.41701" lon="0.39319">
        <ele>686.22</ele>
        <time>2018-08-07T08:08:29Z</time>
      </trkpt>
      <trkpt lat="42.41681" lon="0.39328">
        <ele>685.46</ele>
        <time>2018-08-07T08:08:30Z</time>
      </trkpt>
      <trkpt lat="42.4166" lon="0.39335">
        <ele>684.53</ele>
        <time>2018-08-07T08:08:31Z</time>
      </trkpt>
      <trkpt lat="42.41639" lon="0.3934">
        <ele>683.55</ele>
        <time>2018-08-07T08:08:32Z</time>
      </trkpt>
      <trkpt lat="42.41618" lon="0.39346">
        <ele>683.26</ele>
        <time>2018-08-07T08:08:33Z</time>
      </trkpt>
      <trkpt lat="42.41598" lon="0.39354">
        <ele>682.47</ele>
        <time>2018-08-07T08:08:34Z</time>
      </trkpt>
      <trkpt lat="42.41579" lon="0.39369">
        <ele>680.83</ele>
        <time>2018-08-07T08:08:35Z</time>
      </trkpt>
      <trkpt lat="42.4156" lon="0.39386">
        <ele>681.04</ele>
        <time>2018-08-07T08:08:36Z</time>
      </trkpt>
      <trkpt lat="42.41541" lon="0.39402">
        <ele>681.1</ele>
        <time>2018-08-07T08:08:37Z</time>
      </trkpt>
      <trkpt lat="42.41521" lon="0.39416">
        <ele>680.42</ele>
        <time>2018-08-07T08:08:38Z</time>
      </trkpt>
      <trkpt lat="42.415" lon="0.39427">
        <ele>680.92</ele>
        <time>2018-08-07T08:08:39Z</time>
      </trkpt>
      <trkpt lat="42.41479" lon="0.39435">
        <ele>680.37</ele>
        <time>2018-08-07T08:08:40Z</time>
      </trkpt>
      <trkpt lat="42.41458" lon="0.39442">
        <ele>679.5</ele>
        <time>2018-08-07T08:08:41Z</time>
      </trkpt>
      <trkpt lat="42.41436" lon="0.39446">
        <ele>678.54</ele>
        <time>2018-08-07T08:08:42Z</time>
      </trkpt>
      <trkpt lat="42.41412" lon="0.3945">
        <ele>678.25</ele>
        <time>2018-08-07T08:08:43Z</time>
      </trkpt>
      <trkpt lat="42.41388" lon="0.39454">
        <ele>677.47</ele>
        <time>2018-08-07T08:08:44Z</time>
      </trkpt>
      <trkpt lat="42.41365" lon="0.39458">
        <ele>677.93</ele>
        <time>2018-08-07T08:08:45Z</time>
      </trkpt>
      <trkpt lat="42.41341" lon="0.39465">
        <ele>677.37</ele>
        <time>2018-08-07T08:08:46Z</time>
      </trkpt>
      <trkpt lat="42.41319" lon="0.39474">
        <ele>677.2</ele>
        <time>2018-08-07T08:08:47Z</time>
      </trkpt>
      <trkpt lat="42.41296" lon="0.39482">
        <ele>676.45</ele>
        <time>2018-08-07T08:08:48Z</time>
      </trkpt>
      <trkpt lat="42.41274" lon="0.3949">
        <ele>676.23</ele>
        <time>2018-08-07T08:08:49Z</time>
      </trkpt>
      <trkpt lat="42.41251" lon="0.39497">
        <ele>676.86</ele>
        <time>2018-08-07T08:08:50Z</time>
      </trkpt>
      <trkpt lat="42.41229" lon="0.39505">
        <ele>677.05</ele>
        <time>2018-08-07T08:08:51Z</time>
      </trkpt>
      <trkpt lat="42.41208" lon="0.39508">
        <ele>675.71</ele>
        <time>2018-08-07T08:08:52Z</time>
      </trkpt>
      <trkpt lat="42.41189" lon="0.39502">
        <ele>675.3</ele>
        <time>2018-08-07T08:08:53Z</time>
      </trkpt>
      <trkpt lat="42.41169" lon="0.39501">
        <ele>675.88</ele>
        <time>2018-08-07T08:08:54Z</time>
      </trkpt>
      <trkpt lat="42.41136" lon="0.39492">
        <ele>677.72</ele>
        <time>2018-08-07T08:08:56Z</time>
      </trkpt>
      <trkpt lat="42.41106" lon="0.39486">
        <ele>678.09</ele>
        <time>2018-08-07T08:08:58Z</time>
      </trkpt>
      <trkpt lat="42.41077" lon="0.39475">
        <ele>678.83</ele>
        <time>2018-08-07T08:09:00Z</time>
      </trkpt>
      <trkpt lat="42.4105" lon="0.39467">
        <ele>677.49</ele>
        <time>2018-08-07T08:09:02Z</time>
      </trkpt>
      <trkpt lat="42.41025" lon="0.39458">
        <ele>677.16</ele>
        <time>2018-08-07T08:09:04Z</time>
      </trkpt>
      <trkpt lat="42.41002" lon="0.39442">
        <ele>677.13</ele>
        <time>2018-08-07T08:09:06Z</time>
      </trkpt>
      <trkpt lat="42.40978" lon="0.39424">
        <ele>676.22</ele>
        <time>2018-08-07T08:09:08Z</time>
      </trkpt>
      <trkpt lat="42.40952" lon="0.39406">
        <ele>677.75</ele>
        <time>2018-08-07T08:09:10Z</time>
      </trkpt>
      <trkpt lat="42.40926" lon="0.39393">
        <ele>676.28</ele>
        <time>2018-08-07T08:09:12Z</time>
      </trkpt>
      <trkpt lat="42.40898" lon="0.3939">
        <ele>677.05</ele>
        <time>2018-08-07T08:09:14Z</time>
      </trkpt>
      <trkpt lat="42.40872" lon="0.39396">
        <ele>676.42</ele>
        <time>2018-08-07T08:09:16Z</time>
      </trkpt>
      <trkpt lat="42.40846" lon="0.3941">
        <ele>677.07</ele>
        <time>2018-08-07T08:09:18Z</time>
      </trkpt>
      <trkpt lat="42.4082" lon="0.39422">
        <ele>677.12</ele>
        <time>2018-08-07T08:09:20Z</time>
      </trkpt>
      <trkpt lat="42.40794" lon="0.39433">
        <ele>677.13</ele>
        <time>2018-08-07T08:09:22Z</time>
      </trkpt>
      <trkpt lat="42.40768" lon="0.39445">
        <ele>677.13</ele>
        <time>2018-08-07T08:09:24Z</time>
      </trkpt>
      <trkpt lat="42.40742" lon="0.39457">
        <ele>677.13</ele>
        <time>2018-08-07T08:09:26Z</time>
      </trkpt>
      <trkpt lat="42.40715" lon="0.39469">
        <ele>678.04</ele>
        <time>2018-08-07T08:09:28Z</time>
      </trkpt>
      <trkpt lat="42.40687" lon="0.39482">
        <ele>678.12</ele>
        <time>2018-08-07T08:09:30Z</time>
      </trkpt>
      <trkpt lat="42.40657" lon="0.39495">
        <ele>678.83</ele>
        <time>2018-08-07T08:09:32Z</time>
      </trkpt>
      <trkpt lat="42.40628" lon="0.39508">
        <ele>680.01</ele>
        <time>2018-08-07T08:09:34Z</time>
      </trkpt>
      <trkpt lat="42.40598" lon="0.39523">
        <ele>681.03</ele>
        <time>2018-08-07T08:09:36Z</time>
      </trkpt>
      <trkpt lat="42.40568" lon="0.39537">
        <ele>680.42</ele>
        <time>2018-08-07T08:09:38Z</time>
      </trkpt>
      <trkpt lat="42.40536" lon="0.39552">
        <ele>680.16</ele>
        <time>2018-08-07T08:09:40Z</time>
      </trkpt>
      <trkpt lat="42.40507" lon="0.39564">
        <ele>682.44</ele>
        <time>2018-08-07T08:09:42Z</time>
      </trkpt>
      <trkpt lat="42.40476" lon="0.39579">
        <ele>683.77</ele>
        <time>2018-08-07T08:09:44Z</time>
      </trkpt>
      <trkpt lat="42.40445" lon="0.39593">
        <ele>684.1</ele>
        <time>2018-08-07T08:09:46Z</time>
      </trkpt>
      <trkpt lat="42.40414" lon="0.39608">
        <ele>683.43</ele>
        <time>2018-08-07T08:09:48Z</time>
      </trkpt>
      <trkpt lat="42.40382" lon="0.39623">
        <ele>682.95</ele>
        <time>2018-08-07T08:09:50Z</time>
      </trkpt>
      <trkpt lat="42.40349" lon="0.39638">
        <ele>682.2</ele>
        <time>2018-08-07T08:09:52Z</time>
      </trkpt>
      <trkpt lat="42.40316" lon="0.39653">
        <ele>681.23</ele>
        <time>2018-08-07T08:09:54Z</time>
      </trkpt>
      <trkpt lat="42.40283" lon="0.39668">
        <ele>680.23</ele>
        <time>2018-08-07T08:09:56Z</time>
      </trkpt>
      <trkpt lat="42.40255" lon="0.39682">
        <ele>678.74</ele>
        <time>2018-08-07T08:09:58Z</time>
      </trkpt>
      <trkpt lat="42.40227" lon="0.39692">
        <ele>679.09</ele>
        <time>2018-08-07T08:10:00Z</time>
      </trkpt>
      <trkpt lat="42.40203" lon="0.3969">
        <ele>680.74</ele>
        <time>2018-08-07T08:10:02Z</time>
      </trkpt>
      <trkpt lat="42.40179" lon="0.39687">
        <ele>680.88</ele>
        <time>2018-08-07T08:10:04Z</time>
      </trkpt>
      <trkpt lat="42.40156" lon="0.39697">
        <ele>680.2</ele>
        <time>2018-08-07T08:10:06Z</time>
      </trkpt>
      <trkpt lat="42.40136" lon="0.39724">
        <ele>680.35</ele>
        <time>2018-08-07T08:10:08Z</time>
      </trkpt>
      <trkpt lat="42.40107" lon="0.39746">
        <ele>680.36</ele>
        <time>2018-08-07T08:10:10Z</time>
      </trkpt>
      <trkpt lat="42.40072" lon="0.39763">
        <ele>680.15</ele>
        <time>2018-08-07T08:10:12Z</time>
      </trkpt>
      <trkpt lat="42.40054" lon="0.39771">
        <ele>680.14</ele>
        <time>2018-08-07T08:10:13Z</time>
      </trkpt>
      <trkpt lat="42.40037" lon="0.3978">
        <ele>680.13</ele>
        <time>2018-08-07T08:10:14Z</time>
      </trkpt>
      <trkpt lat="42.40019" lon="0.39789">
        <ele>679.43</ele>
        <time>2018-08-07T08:10:15Z</time>
      </trkpt>
      <trkpt lat="42.40001" lon="0.39798">
        <ele>679.22</ele>
        <time>2018-08-07T08:10:16Z</time>
      </trkpt>
      <trkpt lat="42.39983" lon="0.39805">
        <ele>679.16</ele>
        <time>2018-08-07T08:10:17Z</time>
      </trkpt>
      <trkpt lat="42.39966" lon="0.39813">
        <ele>679.14</ele>
        <time>2018-08-07T08:10:18Z</time>
      </trkpt>
      <trkpt lat="42.39948" lon="0.3982">
        <ele>679.13</ele>
        <time>2018-08-07T08:10:19Z</time>
      </trkpt>
      <trkpt lat="42.39914" lon="0.39831">
        <ele>678.22</ele>
        <time>2018-08-07T08:10:21Z</time>
      </trkpt>
      <trkpt lat="42.39882" lon="0.3984">
        <ele>677.93</ele>
        <time>2018-08-07T08:10:23Z</time>
      </trkpt>
      <trkpt lat="42.39848" lon="0.39846">
        <ele>677.2</ele>
        <time>2018-08-07T08:10:25Z</time>
      </trkpt>
      <trkpt lat="42.3983" lon="0.39847">
        <ele>675.75</ele>
        <time>2018-08-07T08:10:26Z</time>
      </trkpt>
      <trkpt lat="42.39812" lon="0.39847">
        <ele>675.32</ele>
        <time>2018-08-07T08:10:27Z</time>
      </trkpt>
      <trkpt lat="42.39794" lon="0.39847">
        <ele>675.89</ele>
        <time>2018-08-07T08:10:28Z</time>
      </trkpt>
      <trkpt lat="42.3976" lon="0.39848">
        <ele>676.11</ele>
        <time>2018-08-07T08:10:30Z</time>
      </trkpt>
      <trkpt lat="42.39729" lon="0.3985">
        <ele>675.43</ele>
        <time>2018-08-07T08:10:32Z</time>
      </trkpt>
      <trkpt lat="42.39699" lon="0.3985">
        <ele>675.86</ele>
        <time>2018-08-07T08:10:34Z</time>
      </trkpt>
      <trkpt lat="42.39672" lon="0.3985">
        <ele>676.11</ele>
        <time>2018-08-07T08:10:36Z</time>
      </trkpt>
      <trkpt lat="42.39644" lon="0.3985">
        <ele>676.13</ele>
        <time>2018-08-07T08:10:38Z</time>
      </trkpt>
      <trkpt lat="42.39616" lon="0.39852">
        <ele>674.52</ele>
        <time>2018-08-07T08:10:40Z</time>
      </trkpt>
      <trkpt lat="42.3959" lon="0.39851">
        <ele>672.07</ele>
        <time>2018-08-07T08:10:42Z</time>
      </trkpt>
      <trkpt lat="42.39561" lon="0.39851">
        <ele>672.12</ele>
        <time>2018-08-07T08:10:44Z</time>
      </trkpt>
      <trkpt lat="42.3889" lon="0.39796">
        <ele>664.43</ele>
        <time>2018-08-07T08:11:19Z</time>
      </trkpt>
      <trkpt lat="42.3887" lon="0.39794">
        <ele>662.82</ele>
        <time>2018-08-07T08:11:20Z</time>
      </trkpt>
      <trkpt lat="42.3885" lon="0.3979">
        <ele>661.64</ele>
        <time>2018-08-07T08:11:21Z</time>
      </trkpt>
      <trkpt lat="42.3883" lon="0.39786">
        <ele>660.58</ele>
        <time>2018-08-07T08:11:22Z</time>
      </trkpt>
      <trkpt lat="42.38811" lon="0.39783">
        <ele>658.87</ele>
        <time>2018-08-07T08:11:23Z</time>
      </trkpt>
      <trkpt lat="42.38793" lon="0.3978">
        <ele>657.65</ele>
        <time>2018-08-07T08:11:24Z</time>
      </trkpt>
      <trkpt lat="42.38773" lon="0.39776">
        <ele>657.29</ele>
        <time>2018-08-07T08:11:25Z</time>
      </trkpt>
      <trkpt lat="42.38754" lon="0.39772">
        <ele>657.18</ele>
        <time>2018-08-07T08:11:26Z</time>
      </trkpt>
      <trkpt lat="42.38735" lon="0.39768">
        <ele>657.84</ele>
        <time>2018-08-07T08:11:27Z</time>
      </trkpt>
      <trkpt lat="42.38716" lon="0.39763">
        <ele>658.04</ele>
        <time>2018-08-07T08:11:28Z</time>
      </trkpt>
      <trkpt lat="42.38698" lon="0.39759">
        <ele>658.8</ele>
        <time>2018-08-07T08:11:29Z</time>
      </trkpt>
      <trkpt lat="42.3868" lon="0.39755">
        <ele>659.03</ele>
        <time>2018-08-07T08:11:30Z</time>
      </trkpt>
      <trkpt lat="42.38662" lon="0.39749">
        <ele>658.4</ele>
        <time>2018-08-07T08:11:31Z</time>
      </trkpt>
      <trkpt lat="42.38628" lon="0.39734">
        <ele>655.84</ele>
        <time>2018-08-07T08:11:33Z</time>
      </trkpt>
      <trkpt lat="42.38598" lon="0.39715">
        <ele>653.16</ele>
        <time>2018-08-07T08:11:35Z</time>
      </trkpt>
      <trkpt lat="42.38569" lon="0.39694">
        <ele>653.13</ele>
        <time>2018-08-07T08:11:37Z</time>
      </trkpt>
      <trkpt lat="42.38543" lon="0.39668">
        <ele>654.95</ele>
        <time>2018-08-07T08:11:39Z</time>
      </trkpt>
      <trkpt lat="42.38522" lon="0.39641">
        <ele>654.2</ele>
        <time>2018-08-07T08:11:41Z</time>
      </trkpt>
      <trkpt lat="42.38502" lon="0.39608">
        <ele>653.23</ele>
        <time>2018-08-07T08:11:43Z</time>
      </trkpt>
      <trkpt lat="42.38482" lon="0.39568">
        <ele>651.53</ele>
        <time>2018-08-07T08:11:45Z</time>
      </trkpt>
      <trkpt lat="42.38471" lon="0.39546">
        <ele>651.25</ele>
        <time>2018-08-07T08:11:46Z</time>
      </trkpt>
      <trkpt lat="42.38461" lon="0.3952">
        <ele>651.87</ele>
        <time>2018-08-07T08:11:47Z</time>
      </trkpt>
      <trkpt lat="42.38452" lon="0.39494">
        <ele>652.05</ele>
        <time>2018-08-07T08:11:48Z</time>
      </trkpt>
      <trkpt lat="42.38445" lon="0.39465">
        <ele>652.11</ele>
        <time>2018-08-07T08:11:49Z</time>
      </trkpt>
      <trkpt lat="42.38438" lon="0.39435">
        <ele>652.82</ele>
        <time>2018-08-07T08:11:50Z</time>
      </trkpt>
      <trkpt lat="42.38434" lon="0.39404">
        <ele>653.04</ele>
        <time>2018-08-07T08:11:51Z</time>
      </trkpt>
      <trkpt lat="42.38432" lon="0.39373">
        <ele>653.8</ele>
        <time>2018-08-07T08:11:52Z</time>
      </trkpt>
      <trkpt lat="42.3843" lon="0.39342">
        <ele>654.03</ele>
        <time>2018-08-07T08:11:53Z</time>
      </trkpt>
      <trkpt lat="42.38432" lon="0.39309">
        <ele>654.8</ele>
        <time>2018-08-07T08:11:54Z</time>
      </trkpt>
      <trkpt lat="42.38436" lon="0.39274">
        <ele>655.73</ele>
        <time>2018-08-07T08:11:55Z</time>
      </trkpt>
      <trkpt lat="42.38441" lon="0.39238">
        <ele>657.41</ele>
        <time>2018-08-07T08:11:56Z</time>
      </trkpt>
      <trkpt lat="42.38449" lon="0.39204">
        <ele>658.61</ele>
        <time>2018-08-07T08:11:57Z</time>
      </trkpt>
      <trkpt lat="42.38458" lon="0.39171">
        <ele>660.38</ele>
        <time>2018-08-07T08:11:58Z</time>
      </trkpt>
      <trkpt lat="42.3847" lon="0.3914">
        <ele>661.6</ele>
        <time>2018-08-07T08:11:59Z</time>
      </trkpt>
      <trkpt lat="42.38484" lon="0.3911">
        <ele>662.67</ele>
        <time>2018-08-07T08:12:00Z</time>
      </trkpt>
      <trkpt lat="42.38501" lon="0.39081">
        <ele>664.39</ele>
        <time>2018-08-07T08:12:01Z</time>
      </trkpt>
      <trkpt lat="42.38519" lon="0.39052">
        <ele>665.61</ele>
        <time>2018-08-07T08:12:02Z</time>
      </trkpt>
      <trkpt lat="42.3854" lon="0.39025">
        <ele>667.37</ele>
        <time>2018-08-07T08:12:03Z</time>
      </trkpt>
      <trkpt lat="42.38563" lon="0.39">
        <ele>668.6</ele>
        <time>2018-08-07T08:12:04Z</time>
      </trkpt>
      <trkpt lat="42.38591" lon="0.38978">
        <ele>671.07</ele>
        <time>2018-08-07T08:12:05Z</time>
      </trkpt>
      <trkpt lat="42.38618" lon="0.38957">
        <ele>673.91</ele>
        <time>2018-08-07T08:12:06Z</time>
      </trkpt>
      <trkpt lat="42.38646" lon="0.38936">
        <ele>676.86</ele>
        <time>2018-08-07T08:12:07Z</time>
      </trkpt>
      <trkpt lat="42.38672" lon="0.38913">
        <ele>679.85</ele>
        <time>2018-08-07T08:12:08Z</time>
      </trkpt>
      <trkpt lat="42.38697" lon="0.38889">
        <ele>682.85</ele>
        <time>2018-08-07T08:12:09Z</time>
      </trkpt>
      <trkpt lat="42.38721" lon="0.38865">
        <ele>685.84</ele>
        <time>2018-08-07T08:12:10Z</time>
      </trkpt>
      <trkpt lat="42.38743" lon="0.38839">
        <ele>688.84</ele>
        <time>2018-08-07T08:12:11Z</time>
      </trkpt>
      <trkpt lat="42.38764" lon="0.38813">
        <ele>692.54</ele>
        <time>2018-08-07T08:12:12Z</time>
      </trkpt>
      <trkpt lat="42.38784" lon="0.38786">
        <ele>695.05</ele>
        <time>2018-08-07T08:12:13Z</time>
      </trkpt>
      <trkpt lat="42.38803" lon="0.38758">
        <ele>697.91</ele>
        <time>2018-08-07T08:12:14Z</time>
      </trkpt>
      <trkpt lat="42.38821" lon="0.38729">
        <ele>701.56</ele>
        <time>2018-08-07T08:12:15Z</time>
      </trkpt>
      <trkpt lat="42.38839" lon="0.387">
        <ele>704.06</ele>
        <time>2018-08-07T08:12:16Z</time>
      </trkpt>
      <trkpt lat="42.38855" lon="0.3867">
        <ele>706.91</ele>
        <time>2018-08-07T08:12:17Z</time>
      </trkpt>
      <trkpt lat="42.38872" lon="0.3864">
        <ele>709.86</ele>
        <time>2018-08-07T08:12:18Z</time>
      </trkpt>
      <trkpt lat="42.38888" lon="0.3861">
        <ele>712.85</ele>
        <time>2018-08-07T08:12:19Z</time>
      </trkpt>
      <trkpt lat="42.38904" lon="0.38581">
        <ele>715.85</ele>
        <time>2018-08-07T08:12:20Z</time>
      </trkpt>
      <trkpt lat="42.38921" lon="0.38551">
        <ele>718.84</ele>
        <time>2018-08-07T08:12:21Z</time>
      </trkpt>
      <trkpt lat="42.38937" lon="0.38522">
        <ele>721.84</ele>
        <time>2018-08-07T08:12:22Z</time>
      </trkpt>
      <trkpt lat="42.38952" lon="0.38493">
        <ele>724.14</ele>
        <time>2018-08-07T08:12:23Z</time>
      </trkpt>
      <trkpt lat="42.38968" lon="0.38464">
        <ele>726.93</ele>
        <time>2018-08-07T08:12:24Z</time>
      </trkpt>
      <trkpt lat="42.38983" lon="0.38436">
        <ele>729.17</ele>
        <time>2018-08-07T08:12:25Z</time>
      </trkpt>
      <trkpt lat="42.38999" lon="0.38407">
        <ele>731.94</ele>
        <time>2018-08-07T08:12:26Z</time>
      </trkpt>
      <trkpt lat="42.39014" lon="0.38379">
        <ele>734.87</ele>
        <time>2018-08-07T08:12:27Z</time>
      </trkpt>
      <trkpt lat="42.39028" lon="0.3835">
        <ele>737.15</ele>
        <time>2018-08-07T08:12:28Z</time>
      </trkpt>
      <trkpt lat="42.39044" lon="0.38322">
        <ele>739.24</ele>
        <time>2018-08-07T08:12:29Z</time>
      </trkpt>
      <trkpt lat="42.39059" lon="0.38295">
        <ele>741.96</ele>
        <time>2018-08-07T08:12:30Z</time>
      </trkpt>
      <trkpt lat="42.39075" lon="0.38267">
        <ele>744.18</ele>
        <time>2018-08-07T08:12:31Z</time>
      </trkpt>
      <trkpt lat="42.3909" lon="0.3824">
        <ele>746.94</ele>
        <time>2018-08-07T08:12:32Z</time>
      </trkpt>
      <trkpt lat="42.39105" lon="0.38214">
        <ele>749.87</ele>
        <time>2018-08-07T08:12:33Z</time>
      </trkpt>
      <trkpt lat="42.39121" lon="0.38187">
        <ele>751.45</ele>
        <time>2018-08-07T08:12:34Z</time>
      </trkpt>
      <trkpt lat="42.39138" lon="0.38161">
        <ele>754.73</ele>
        <time>2018-08-07T08:12:35Z</time>
      </trkpt>
      <trkpt lat="42.39154" lon="0.38134">
        <ele>757.11</ele>
        <time>2018-08-07T08:12:36Z</time>
      </trkpt>
      <trkpt lat="42.39172" lon="0.38108">
        <ele>759.92</ele>
        <time>2018-08-07T08:12:37Z</time>
      </trkpt>
      <trkpt lat="42.39189" lon="0.38081">
        <ele>762.87</ele>
        <time>2018-08-07T08:12:38Z</time>
      </trkpt>
      <trkpt lat="42.39207" lon="0.38053">
        <ele>765.85</ele>
        <time>2018-08-07T08:12:39Z</time>
      </trkpt>
      <trkpt lat="42.39225" lon="0.38026">
        <ele>768.85</ele>
        <time>2018-08-07T08:12:40Z</time>
      </trkpt>
      <trkpt lat="42.39242" lon="0.37997">
        <ele>771.84</ele>
        <time>2018-08-07T08:12:41Z</time>
      </trkpt>
      <trkpt lat="42.3926" lon="0.37969">
        <ele>774.14</ele>
        <time>2018-08-07T08:12:42Z</time>
      </trkpt>
      <trkpt lat="42.39277" lon="0.37941">
        <ele>776.93</ele>
        <time>2018-08-07T08:12:43Z</time>
      </trkpt>
      <trkpt lat="42.39295" lon="0.37912">
        <ele>779.87</ele>
        <time>2018-08-07T08:12:44Z</time>
      </trkpt>
      <trkpt lat="42.39313" lon="0.37884">
        <ele>783.55</ele>
        <time>2018-08-07T08:12:45Z</time>
      </trkpt>
      <trkpt lat="42.39331" lon="0.37856">
        <ele>786.06</ele>
        <time>2018-08-07T08:12:46Z</time>
      </trkpt>
      <trkpt lat="42.3935" lon="0.37828">
        <ele>788.91</ele>
        <time>2018-08-07T08:12:47Z</time>
      </trkpt>
      <trkpt lat="42.39368" lon="0.37799">
        <ele>791.16</ele>
        <time>2018-08-07T08:12:48Z</time>
      </trkpt>
      <trkpt lat="42.39385" lon="0.37771">
        <ele>794.64</ele>
        <time>2018-08-07T08:12:49Z</time>
      </trkpt>
      <trkpt lat="42.39403" lon="0.37743">
        <ele>797.78</ele>
        <time>2018-08-07T08:12:50Z</time>
      </trkpt>
      <trkpt lat="42.3942" lon="0.37715">
        <ele>800.13</ele>
        <time>2018-08-07T08:12:51Z</time>
      </trkpt>
      <trkpt lat="42.39437" lon="0.37687">
        <ele>802.93</ele>
        <time>2018-08-07T08:12:52Z</time>
      </trkpt>
      <trkpt lat="42.39454" lon="0.37659">
        <ele>805.87</ele>
        <time>2018-08-07T08:12:53Z</time>
      </trkpt>
      <trkpt lat="42.3947" lon="0.3763">
        <ele>808.85</ele>
        <time>2018-08-07T08:12:54Z</time>
      </trkpt>
      <trkpt lat="42.39487" lon="0.37601">
        <ele>811.85</ele>
        <time>2018-08-07T08:12:55Z</time>
      </trkpt>
      <trkpt lat="42.39503" lon="0.37573">
        <ele>814.14</ele>
        <time>2018-08-07T08:12:56Z</time>
      </trkpt>
      <trkpt lat="42.3952" lon="0.37543">
        <ele>816.93</ele>
        <time>2018-08-07T08:12:57Z</time>
      </trkpt>
      <trkpt lat="42.39536" lon="0.37514">
        <ele>819.87</ele>
        <time>2018-08-07T08:12:58Z</time>
      </trkpt>
      <trkpt lat="42.39553" lon="0.37484">
        <ele>822.85</ele>
        <time>2018-08-07T08:12:59Z</time>
      </trkpt>
      <trkpt lat="42.39569" lon="0.37453">
        <ele>825.85</ele>
        <time>2018-08-07T08:13:00Z</time>
      </trkpt>
      <trkpt lat="42.39585" lon="0.37423">
        <ele>828.85</ele>
        <time>2018-08-07T08:13:01Z</time>
      </trkpt>
      <trkpt lat="42.39601" lon="0.37392">
        <ele>831.84</ele>
        <time>2018-08-07T08:13:02Z</time>
      </trkpt>
      <trkpt lat="42.39617" lon="0.3736">
        <ele>834.84</ele>
        <time>2018-08-07T08:13:03Z</time>
      </trkpt>
      <trkpt lat="42.39633" lon="0.37329">
        <ele>837.84</ele>
        <time>2018-08-07T08:13:04Z</time>
      </trkpt>
      <trkpt lat="42.3965" lon="0.37297">
        <ele>840.84</ele>
        <time>2018-08-07T08:13:05Z</time>
      </trkpt>
      <trkpt lat="42.39667" lon="0.37266">
        <ele>843.84</ele>
        <time>2018-08-07T08:13:06Z</time>
      </trkpt>
      <trkpt lat="42.39683" lon="0.37235">
        <ele>846.84</ele>
        <time>2018-08-07T08:13:07Z</time>
      </trkpt>
      <trkpt lat="42.39699" lon="0.37205">
        <ele>849.14</ele>
        <time>2018-08-07T08:13:08Z</time>
      </trkpt>
      <trkpt lat="42.39715" lon="0.37176">
        <ele>851.93</ele>
        <time>2018-08-07T08:13:09Z</time>
      </trkpt>
      <trkpt lat="42.39733" lon="0.37148">
        <ele>854.17</ele>
        <time>2018-08-07T08:13:10Z</time>
      </trkpt>
      <trkpt lat="42.39752" lon="0.37121">
        <ele>856.94</ele>
        <time>2018-08-07T08:13:11Z</time>
      </trkpt>
      <trkpt lat="42.39773" lon="0.37096">
        <ele>859.17</ele>
        <time>2018-08-07T08:13:12Z</time>
      </trkpt>
      <trkpt lat="42.39793" lon="0.37071">
        <ele>861.24</ele>
        <time>2018-08-07T08:13:13Z</time>
      </trkpt>
      <trkpt lat="42.39815" lon="0.37048">
        <ele>863.26</ele>
        <time>2018-08-07T08:13:14Z</time>
      </trkpt>
      <trkpt lat="42.39838" lon="0.37026">
        <ele>865.27</ele>
        <time>2018-08-07T08:13:15Z</time>
      </trkpt>
      <trkpt lat="42.39861" lon="0.37006">
        <ele>866.57</ele>
        <time>2018-08-07T08:13:16Z</time>
      </trkpt>
      <trkpt lat="42.39886" lon="0.36988">
        <ele>869.06</ele>
        <time>2018-08-07T08:13:17Z</time>
      </trkpt>
      <trkpt lat="42.3991" lon="0.36971">
        <ele>871.21</ele>
        <time>2018-08-07T08:13:18Z</time>
      </trkpt>
      <trkpt lat="42.39935" lon="0.36955">
        <ele>873.95</ele>
        <time>2018-08-07T08:13:19Z</time>
      </trkpt>
      <trkpt lat="42.39959" lon="0.36938">
        <ele>875.48</ele>
        <time>2018-08-07T08:13:20Z</time>
      </trkpt>
      <trkpt lat="42.39983" lon="0.36922">
        <ele>878.03</ele>
        <time>2018-08-07T08:13:21Z</time>
      </trkpt>
      <trkpt lat="42.40008" lon="0.36905">
        <ele>880.2</ele>
        <time>2018-08-07T08:13:22Z</time>
      </trkpt>
      <trkpt lat="42.40032" lon="0.36887">
        <ele>882.95</ele>
        <time>2018-08-07T08:13:23Z</time>
      </trkpt>
      <trkpt lat="42.40057" lon="0.36869">
        <ele>885.18</ele>
        <time>2018-08-07T08:13:24Z</time>
      </trkpt>
      <trkpt lat="42.40082" lon="0.36852">
        <ele>887.94</ele>
        <time>2018-08-07T08:13:25Z</time>
      </trkpt>
      <trkpt lat="42.40107" lon="0.36834">
        <ele>890.17</ele>
        <time>2018-08-07T08:13:26Z</time>
      </trkpt>
      <trkpt lat="42.40132" lon="0.36817">
        <ele>892.24</ele>
        <time>2018-08-07T08:13:27Z</time>
      </trkpt>
      <trkpt lat="42.40156" lon="0.36797">
        <ele>894.96</ele>
        <time>2018-08-07T08:13:28Z</time>
      </trkpt>
      <trkpt lat="42.4018" lon="0.36775">
        <ele>897.18</ele>
        <time>2018-08-07T08:13:29Z</time>
      </trkpt>
      <trkpt lat="42.40203" lon="0.36751">
        <ele>899.95</ele>
        <time>2018-08-07T08:13:30Z</time>
      </trkpt>
      <trkpt lat="42.40223" lon="0.36725">
        <ele>902.17</ele>
        <time>2018-08-07T08:13:31Z</time>
      </trkpt>
      <trkpt lat="42.4024" lon="0.36697">
        <ele>904.94</ele>
        <time>2018-08-07T08:13:32Z</time>
      </trkpt>
      <trkpt lat="42.40256" lon="0.36666">
        <ele>907.17</ele>
        <time>2018-08-07T08:13:33Z</time>
      </trkpt>
      <trkpt lat="42.4027" lon="0.36633">
        <ele>909.94</ele>
        <time>2018-08-07T08:13:34Z</time>
      </trkpt>
      <trkpt lat="42.40282" lon="0.36599">
        <ele>912.17</ele>
        <time>2018-08-07T08:13:35Z</time>
      </trkpt>
      <trkpt lat="42.40292" lon="0.36563">
        <ele>914.94</ele>
        <time>2018-08-07T08:13:36Z</time>
      </trkpt>
      <trkpt lat="42.403" lon="0.36527">
        <ele>917.17</ele>
        <time>2018-08-07T08:13:37Z</time>
      </trkpt>
      <trkpt lat="42.40307" lon="0.3649">
        <ele>919.94</ele>
        <time>2018-08-07T08:13:38Z</time>
      </trkpt>
      <trkpt lat="42.40314" lon="0.36453">
        <ele>922.87</ele>
        <time>2018-08-07T08:13:39Z</time>
      </trkpt>
      <trkpt lat="42.40322" lon="0.36418">
        <ele>925.15</ele>
        <time>2018-08-07T08:13:40Z</time>
      </trkpt>
      <trkpt lat="42.40332" lon="0.36383">
        <ele>927.24</ele>
        <time>2018-08-07T08:13:41Z</time>
      </trkpt>
      <trkpt lat="42.40345" lon="0.3635">
        <ele>929.26</ele>
        <time>2018-08-07T08:13:42Z</time>
      </trkpt>
      <trkpt lat="42.4036" lon="0.3632">
        <ele>931.27</ele>
        <time>2018-08-07T08:13:43Z</time>
      </trkpt>
      <trkpt lat="42.40377" lon="0.36292">
        <ele>933.27</ele>
        <time>2018-08-07T08:13:44Z</time>
      </trkpt>
      <trkpt lat="42.40396" lon="0.36266">
        <ele>935.27</ele>
        <time>2018-08-07T08:13:45Z</time>
      </trkpt>
      <trkpt lat="42.40417" lon="0.36243">
        <ele>937.27</ele>
        <time>2018-08-07T08:13:46Z</time>
      </trkpt>
      <trkpt lat="42.4044" lon="0.36224">
        <ele>939.27</ele>
        <time>2018-08-07T08:13:47Z</time>
      </trkpt>
      <trkpt lat="42.40464" lon="0.36208">
        <ele>941.27</ele>
        <time>2018-08-07T08:13:48Z</time>
      </trkpt>
      <trkpt lat="42.4049" lon="0.36194">
        <ele>943.27</ele>
        <time>2018-08-07T08:13:49Z</time>
      </trkpt>
      <trkpt lat="42.40516" lon="0.36182">
        <ele>944.57</ele>
        <time>2018-08-07T08:13:50Z</time>
      </trkpt>
      <trkpt lat="42.40543" lon="0.36171">
        <ele>946.36</ele>
        <time>2018-08-07T08:13:51Z</time>
      </trkpt>
      <trkpt lat="42.4057" lon="0.36159">
        <ele>947.6</ele>
        <time>2018-08-07T08:13:52Z</time>
      </trkpt>
      <trkpt lat="42.40596" lon="0.36145">
        <ele>949.37</ele>
        <time>2018-08-07T08:13:53Z</time>
      </trkpt>
      <trkpt lat="42.40622" lon="0.36128">
        <ele>950.6</ele>
        <time>2018-08-07T08:13:54Z</time>
      </trkpt>
      <trkpt lat="42.40646" lon="0.3611">
        <ele>951.67</ele>
        <time>2018-08-07T08:13:55Z</time>
      </trkpt>
      <trkpt lat="42.4067" lon="0.36088">
        <ele>952.69</ele>
        <time>2018-08-07T08:13:56Z</time>
      </trkpt>
      <trkpt lat="42.40692" lon="0.36066">
        <ele>954.4</ele>
        <time>2018-08-07T08:13:57Z</time>
      </trkpt>
      <trkpt lat="42.40712" lon="0.3604">
        <ele>954.91</ele>
        <time>2018-08-07T08:13:58Z</time>
      </trkpt>
      <trkpt lat="42.4073" lon="0.3601">
        <ele>956.46</ele>
        <time>2018-08-07T08:13:59Z</time>
      </trkpt>
      <trkpt lat="42.40746" lon="0.3598">
        <ele>956.93</ele>
        <time>2018-08-07T08:14:00Z</time>
      </trkpt>
      <trkpt lat="42.4076" lon="0.35947">
        <ele>958.47</ele>
        <time>2018-08-07T08:14:01Z</time>
      </trkpt>
      <trkpt lat="42.40773" lon="0.35913">
        <ele>959.63</ele>
        <time>2018-08-07T08:14:02Z</time>
      </trkpt>
      <trkpt lat="42.40786" lon="0.3588">
        <ele>961.38</ele>
        <time>2018-08-07T08:14:03Z</time>
      </trkpt>
      <trkpt lat="42.40799" lon="0.35847">
        <ele>961.91</ele>
        <time>2018-08-07T08:14:04Z</time>
      </trkpt>
      <trkpt lat="42.40812" lon="0.35815">
        <ele>963.46</ele>
        <time>2018-08-07T08:14:05Z</time>
      </trkpt>
      <trkpt lat="42.40827" lon="0.35785">
        <ele>964.63</ele>
        <time>2018-08-07T08:14:06Z</time>
      </trkpt>
      <trkpt lat="42.40843" lon="0.35758">
        <ele>964.98</ele>
        <time>2018-08-07T08:14:07Z</time>
      </trkpt>
      <trkpt lat="42.40861" lon="0.35732">
        <ele>965.78</ele>
        <time>2018-08-07T08:14:08Z</time>
      </trkpt>
      <trkpt lat="42.40881" lon="0.35708">
        <ele>966.73</ele>
        <time>2018-08-07T08:14:09Z</time>
      </trkpt>
      <trkpt lat="42.40902" lon="0.35686">
        <ele>967.71</ele>
        <time>2018-08-07T08:14:10Z</time>
      </trkpt>
      <trkpt lat="42.40924" lon="0.35664">
        <ele>968</ele>
        <time>2018-08-07T08:14:11Z</time>
      </trkpt>
      <trkpt lat="42.40948" lon="0.35644">
        <ele>968.09</ele>
        <time>2018-08-07T08:14:12Z</time>
      </trkpt>
      <trkpt lat="42.40971" lon="0.35629">
        <ele>968.82</ele>
        <time>2018-08-07T08:14:13Z</time>
      </trkpt>
      <trkpt lat="42.40994" lon="0.35612">
        <ele>970.44</ele>
        <time>2018-08-07T08:14:14Z</time>
      </trkpt>
      <trkpt lat="42.41016" lon="0.35593">
        <ele>970.92</ele>
        <time>2018-08-07T08:14:15Z</time>
      </trkpt>
      <trkpt lat="42.41036" lon="0.35573">
        <ele>971.77</ele>
        <time>2018-08-07T08:14:16Z</time>
      </trkpt>
      <trkpt lat="42.41055" lon="0.3555">
        <ele>972.02</ele>
        <time>2018-08-07T08:14:17Z</time>
      </trkpt>
      <trkpt lat="42.41071" lon="0.35525">
        <ele>972.1</ele>
        <time>2018-08-07T08:14:18Z</time>
      </trkpt>
      <trkpt lat="42.41086" lon="0.35497">
        <ele>972.82</ele>
        <time>2018-08-07T08:14:19Z</time>
      </trkpt>
      <trkpt lat="42.41099" lon="0.35466">
        <ele>973.74</ele>
        <time>2018-08-07T08:14:20Z</time>
      </trkpt>
      <trkpt lat="42.4111" lon="0.35434">
        <ele>973.31</ele>
        <time>2018-08-07T08:14:21Z</time>
      </trkpt>
      <trkpt lat="42.41117" lon="0.35402">
        <ele>973.88</ele>
        <time>2018-08-07T08:14:22Z</time>
      </trkpt>
      <trkpt lat="42.41122" lon="0.35369">
        <ele>975.46</ele>
        <time>2018-08-07T08:14:23Z</time>
      </trkpt>
      <trkpt lat="42.41124" lon="0.35335">
        <ele>976.63</ele>
        <time>2018-08-07T08:14:24Z</time>
      </trkpt>
      <trkpt lat="42.41123" lon="0.35303">
        <ele>977.68</ele>
        <time>2018-08-07T08:14:25Z</time>
      </trkpt>
      <trkpt lat="42.4112" lon="0.3527">
        <ele>978.69</ele>
        <time>2018-08-07T08:14:26Z</time>
      </trkpt>
      <trkpt lat="42.41114" lon="0.35238">
        <ele>979.7</ele>
        <time>2018-08-07T08:14:27Z</time>
      </trkpt>
      <trkpt lat="42.41107" lon="0.35206">
        <ele>980</ele>
        <time>2018-08-07T08:14:28Z</time>
      </trkpt>
      <trkpt lat="42.41098" lon="0.35176">
        <ele>980.79</ele>
        <time>2018-08-07T08:14:29Z</time>
      </trkpt>
      <trkpt lat="42.41087" lon="0.35146">
        <ele>981.73</ele>
        <time>2018-08-07T08:14:30Z</time>
      </trkpt>
      <trkpt lat="42.41077" lon="0.35116">
        <ele>982.01</ele>
        <time>2018-08-07T08:14:31Z</time>
      </trkpt>
      <trkpt lat="42.41068" lon="0.35086">
        <ele>982.79</ele>
        <time>2018-08-07T08:14:32Z</time>
      </trkpt>
      <trkpt lat="42.4106" lon="0.35053">
        <ele>982.33</ele>
        <time>2018-08-07T08:14:33Z</time>
      </trkpt>
      <trkpt lat="42.41055" lon="0.35021">
        <ele>982.89</ele>
        <time>2018-08-07T08:14:34Z</time>
      </trkpt>
      <trkpt lat="42.41052" lon="0.34988">
        <ele>983.06</ele>
        <time>2018-08-07T08:14:35Z</time>
      </trkpt>
      <trkpt lat="42.4105" lon="0.34953">
        <ele>983.11</ele>
        <time>2018-08-07T08:14:36Z</time>
      </trkpt>
      <trkpt lat="42.41051" lon="0.34919">
        <ele>983.82</ele>
        <time>2018-08-07T08:14:37Z</time>
      </trkpt>
      <trkpt lat="42.41052" lon="0.34884">
        <ele>984.04</ele>
        <time>2018-08-07T08:14:38Z</time>
      </trkpt>
      <trkpt lat="42.41053" lon="0.34848">
        <ele>984.1</ele>
        <time>2018-08-07T08:14:39Z</time>
      </trkpt>
      <trkpt lat="42.41054" lon="0.34812">
        <ele>983.42</ele>
        <time>2018-08-07T08:14:40Z</time>
      </trkpt>
      <trkpt lat="42.41057" lon="0.34776">
        <ele>983.92</ele>
        <time>2018-08-07T08:14:41Z</time>
      </trkpt>
      <trkpt lat="42.41059" lon="0.3474">
        <ele>984.07</ele>
        <time>2018-08-07T08:14:42Z</time>
      </trkpt>
      <trkpt lat="42.41062" lon="0.34704">
        <ele>984.11</ele>
        <time>2018-08-07T08:14:43Z</time>
      </trkpt>
      <trkpt lat="42.41065" lon="0.34668">
        <ele>984.12</ele>
        <time>2018-08-07T08:14:44Z</time>
      </trkpt>
      <trkpt lat="42.41068" lon="0.34631">
        <ele>984.83</ele>
        <time>2018-08-07T08:14:45Z</time>
      </trkpt>
      <trkpt lat="42.41072" lon="0.34595">
        <ele>984.34</ele>
        <time>2018-08-07T08:14:46Z</time>
      </trkpt>
      <trkpt lat="42.41075" lon="0.34559">
        <ele>984.89</ele>
        <time>2018-08-07T08:14:47Z</time>
      </trkpt>
      <trkpt lat="42.41078" lon="0.34523">
        <ele>984.36</ele>
        <time>2018-08-07T08:14:48Z</time>
      </trkpt>
      <trkpt lat="42.41081" lon="0.34487">
        <ele>984.2</ele>
        <time>2018-08-07T08:14:49Z</time>
      </trkpt>
      <trkpt lat="42.41085" lon="0.34451">
        <ele>984.15</ele>
        <time>2018-08-07T08:14:50Z</time>
      </trkpt>
      <trkpt lat="42.41089" lon="0.34415">
        <ele>984.84</ele>
        <time>2018-08-07T08:14:51Z</time>
      </trkpt>
      <trkpt lat="42.41094" lon="0.3438">
        <ele>985.04</ele>
        <time>2018-08-07T08:14:52Z</time>
      </trkpt>
      <trkpt lat="42.41101" lon="0.34346">
        <ele>985.8</ele>
        <time>2018-08-07T08:14:53Z</time>
      </trkpt>
      <trkpt lat="42.4111" lon="0.34312">
        <ele>986.73</ele>
        <time>2018-08-07T08:14:54Z</time>
      </trkpt>
      <trkpt lat="42.41121" lon="0.3428">
        <ele>987.71</ele>
        <time>2018-08-07T08:14:55Z</time>
      </trkpt>
      <trkpt lat="42.41135" lon="0.34249">
        <ele>988.7</ele>
        <time>2018-08-07T08:14:56Z</time>
      </trkpt>
      <trkpt lat="42.41151" lon="0.3422">
        <ele>990.4</ele>
        <time>2018-08-07T08:14:57Z</time>
      </trkpt>
      <trkpt lat="42.41168" lon="0.34192">
        <ele>991.61</ele>
        <time>2018-08-07T08:14:58Z</time>
      </trkpt>
      <trkpt lat="42.41186" lon="0.34165">
        <ele>993.37</ele>
        <time>2018-08-07T08:14:59Z</time>
      </trkpt>
      <trkpt lat="42.41204" lon="0.34137">
        <ele>993.9</ele>
        <time>2018-08-07T08:15:00Z</time>
      </trkpt>
      <trkpt lat="42.41222" lon="0.34108">
        <ele>994.76</ele>
        <time>2018-08-07T08:15:01Z</time>
      </trkpt>
      <trkpt lat="42.41237" lon="0.34079">
        <ele>995.72</ele>
        <time>2018-08-07T08:15:02Z</time>
      </trkpt>
      <trkpt lat="42.41251" lon="0.34049">
        <ele>996.01</ele>
        <time>2018-08-07T08:15:03Z</time>
      </trkpt>
      <trkpt lat="42.41265" lon="0.34019">
        <ele>996.79</ele>
        <time>2018-08-07T08:15:04Z</time>
      </trkpt>
      <trkpt lat="42.41279" lon="0.33988">
        <ele>997.73</ele>
        <time>2018-08-07T08:15:05Z</time>
      </trkpt>
      <trkpt lat="42.41293" lon="0.33958">
        <ele>998.01</ele>
        <time>2018-08-07T08:15:06Z</time>
      </trkpt>
      <trkpt lat="42.41308" lon="0.33928">
        <ele>998.09</ele>
        <time>2018-08-07T08:15:07Z</time>
      </trkpt>
      <trkpt lat="42.41323" lon="0.33898">
        <ele>998.12</ele>
        <time>2018-08-07T08:15:08Z</time>
      </trkpt>
      <trkpt lat="42.41338" lon="0.33868">
        <ele>998.13</ele>
        <time>2018-08-07T08:15:09Z</time>
      </trkpt>
      <trkpt lat="42.41354" lon="0.33839">
        <ele>998.13</ele>
        <time>2018-08-07T08:15:10Z</time>
      </trkpt>
      <trkpt lat="42.4137" lon="0.33811">
        <ele>998.13</ele>
        <time>2018-08-07T08:15:11Z</time>
      </trkpt>
      <trkpt lat="42.41387" lon="0.33783">
        <ele>998.13</ele>
        <time>2018-08-07T08:15:12Z</time>
      </trkpt>
      <trkpt lat="42.41404" lon="0.33755">
        <ele>997.43</ele>
        <time>2018-08-07T08:15:13Z</time>
      </trkpt>
      <trkpt lat="42.4142" lon="0.33726">
        <ele>997.22</ele>
        <time>2018-08-07T08:15:14Z</time>
      </trkpt>
      <trkpt lat="42.41437" lon="0.33697">
        <ele>996.46</ele>
        <time>2018-08-07T08:15:15Z</time>
      </trkpt>
      <trkpt lat="42.41454" lon="0.33668">
        <ele>995.53</ele>
        <time>2018-08-07T08:15:16Z</time>
      </trkpt>
      <trkpt lat="42.41471" lon="0.33639">
        <ele>994.55</ele>
        <time>2018-08-07T08:15:17Z</time>
      </trkpt>
      <trkpt lat="42.41488" lon="0.3361">
        <ele>992.86</ele>
        <time>2018-08-07T08:15:18Z</time>
      </trkpt>
      <trkpt lat="42.41504" lon="0.33582">
        <ele>992.35</ele>
        <time>2018-08-07T08:15:19Z</time>
      </trkpt>
      <trkpt lat="42.41521" lon="0.33554">
        <ele>991.5</ele>
        <time>2018-08-07T08:15:20Z</time>
      </trkpt>
      <trkpt lat="42.41536" lon="0.33526">
        <ele>990.54</ele>
        <time>2018-08-07T08:15:21Z</time>
      </trkpt>
      <trkpt lat="42.41551" lon="0.335">
        <ele>990.25</ele>
        <time>2018-08-07T08:15:22Z</time>
      </trkpt>
      <trkpt lat="42.41567" lon="0.33474">
        <ele>989.47</ele>
        <time>2018-08-07T08:15:23Z</time>
      </trkpt>
      <trkpt lat="42.41582" lon="0.33448">
        <ele>989.23</ele>
        <time>2018-08-07T08:15:24Z</time>
      </trkpt>
      <trkpt lat="42.41597" lon="0.33422">
        <ele>988.46</ele>
        <time>2018-08-07T08:15:25Z</time>
      </trkpt>
      <trkpt lat="42.41613" lon="0.33396">
        <ele>988.23</ele>
        <time>2018-08-07T08:15:26Z</time>
      </trkpt>
      <trkpt lat="42.41629" lon="0.33369">
        <ele>988.16</ele>
        <time>2018-08-07T08:15:27Z</time>
      </trkpt>
      <trkpt lat="42.41644" lon="0.33342">
        <ele>988.14</ele>
        <time>2018-08-07T08:15:28Z</time>
      </trkpt>
      <trkpt lat="42.4166" lon="0.33314">
        <ele>987.43</ele>
        <time>2018-08-07T08:15:29Z</time>
      </trkpt>
      <trkpt lat="42.41676" lon="0.33287">
        <ele>986.52</ele>
        <time>2018-08-07T08:15:30Z</time>
      </trkpt>
      <trkpt lat="42.41693" lon="0.33258">
        <ele>985.55</ele>
        <time>2018-08-07T08:15:31Z</time>
      </trkpt>
      <trkpt lat="42.4171" lon="0.3323">
        <ele>984.56</ele>
        <time>2018-08-07T08:15:32Z</time>
      </trkpt>
      <trkpt lat="42.41727" lon="0.33201">
        <ele>983.56</ele>
        <time>2018-08-07T08:15:33Z</time>
      </trkpt>
      <trkpt lat="42.41744" lon="0.33173">
        <ele>983.26</ele>
        <time>2018-08-07T08:15:34Z</time>
      </trkpt>
      <trkpt lat="42.41761" lon="0.33144">
        <ele>982.47</ele>
        <time>2018-08-07T08:15:35Z</time>
      </trkpt>
      <trkpt lat="42.41778" lon="0.33114">
        <ele>981.53</ele>
        <time>2018-08-07T08:15:36Z</time>
      </trkpt>
      <trkpt lat="42.41796" lon="0.33084">
        <ele>981.25</ele>
        <time>2018-08-07T08:15:37Z</time>
      </trkpt>
      <trkpt lat="42.41814" lon="0.33053">
        <ele>980.47</ele>
        <time>2018-08-07T08:15:38Z</time>
      </trkpt>
      <trkpt lat="42.41833" lon="0.33022">
        <ele>980.23</ele>
        <time>2018-08-07T08:15:39Z</time>
      </trkpt>
      <trkpt lat="42.41851" lon="0.32989">
        <ele>979.46</ele>
        <time>2018-08-07T08:15:40Z</time>
      </trkpt>
      <trkpt lat="42.41871" lon="0.32955">
        <ele>978.53</ele>
        <time>2018-08-07T08:15:41Z</time>
      </trkpt>
      <trkpt lat="42.4189" lon="0.32921">
        <ele>977.55</ele>
        <time>2018-08-07T08:15:42Z</time>
      </trkpt>
      <trkpt lat="42.4191" lon="0.32888">
        <ele>976.56</ele>
        <time>2018-08-07T08:15:43Z</time>
      </trkpt>
      <trkpt lat="42.4193" lon="0.32854">
        <ele>975.56</ele>
        <time>2018-08-07T08:15:44Z</time>
      </trkpt>
      <trkpt lat="42.4195" lon="0.3282">
        <ele>974.56</ele>
        <time>2018-08-07T08:15:45Z</time>
      </trkpt>
      <trkpt lat="42.4197" lon="0.32785">
        <ele>973.56</ele>
        <time>2018-08-07T08:15:46Z</time>
      </trkpt>
      <trkpt lat="42.41991" lon="0.3275">
        <ele>972.56</ele>
        <time>2018-08-07T08:15:47Z</time>
      </trkpt>
      <trkpt lat="42.42011" lon="0.32714">
        <ele>970.86</ele>
        <time>2018-08-07T08:15:48Z</time>
      </trkpt>
      <trkpt lat="42.42031" lon="0.32679">
        <ele>969.65</ele>
        <time>2018-08-07T08:15:49Z</time>
      </trkpt>
      <trkpt lat="42.42052" lon="0.32644">
        <ele>968.59</ele>
        <time>2018-08-07T08:15:50Z</time>
      </trkpt>
      <trkpt lat="42.42072" lon="0.3261">
        <ele>967.57</ele>
        <time>2018-08-07T08:15:51Z</time>
      </trkpt>
      <trkpt lat="42.42092" lon="0.32575">
        <ele>965.86</ele>
        <time>2018-08-07T08:15:52Z</time>
      </trkpt>
      <trkpt lat="42.42112" lon="0.32541">
        <ele>964.65</ele>
        <time>2018-08-07T08:15:53Z</time>
      </trkpt>
      <trkpt lat="42.42131" lon="0.32507">
        <ele>962.89</ele>
        <time>2018-08-07T08:15:54Z</time>
      </trkpt>
      <trkpt lat="42.42152" lon="0.32473">
        <ele>961.66</ele>
        <time>2018-08-07T08:15:55Z</time>
      </trkpt>
      <trkpt lat="42.42171" lon="0.32439">
        <ele>959.89</ele>
        <time>2018-08-07T08:15:56Z</time>
      </trkpt>
      <trkpt lat="42.42192" lon="0.32405">
        <ele>958.66</ele>
        <time>2018-08-07T08:15:57Z</time>
      </trkpt>
      <trkpt lat="42.42212" lon="0.32371">
        <ele>957.59</ele>
        <time>2018-08-07T08:15:58Z</time>
      </trkpt>
      <trkpt lat="42.42231" lon="0.32337">
        <ele>955.87</ele>
        <time>2018-08-07T08:15:59Z</time>
      </trkpt>
      <trkpt lat="42.4225" lon="0.32304">
        <ele>954.65</ele>
        <time>2018-08-07T08:16:00Z</time>
      </trkpt>
      <trkpt lat="42.42269" lon="0.32269">
        <ele>953.59</ele>
        <time>2018-08-07T08:16:01Z</time>
      </trkpt>
      <trkpt lat="42.42285" lon="0.32234">
        <ele>952.57</ele>
        <time>2018-08-07T08:16:02Z</time>
      </trkpt>
      <trkpt lat="42.42301" lon="0.32197">
        <ele>951.56</ele>
        <time>2018-08-07T08:16:03Z</time>
      </trkpt>
      <trkpt lat="42.42315" lon="0.32161">
        <ele>950.56</ele>
        <time>2018-08-07T08:16:04Z</time>
      </trkpt>
      <trkpt lat="42.42328" lon="0.32123">
        <ele>948.16</ele>
        <time>2018-08-07T08:16:05Z</time>
      </trkpt>
      <trkpt lat="42.42342" lon="0.32087">
        <ele>946.74</ele>
        <time>2018-08-07T08:16:06Z</time>
      </trkpt>
      <trkpt lat="42.42357" lon="0.3205">
        <ele>944.91</ele>
        <time>2018-08-07T08:16:07Z</time>
      </trkpt>
      <trkpt lat="42.42372" lon="0.32016">
        <ele>942.96</ele>
        <time>2018-08-07T08:16:08Z</time>
      </trkpt>
      <trkpt lat="42.42388" lon="0.31981">
        <ele>940.98</ele>
        <time>2018-08-07T08:16:09Z</time>
      </trkpt>
      <trkpt lat="42.42406" lon="0.31948">
        <ele>938.99</ele>
        <time>2018-08-07T08:16:10Z</time>
      </trkpt>
      <trkpt lat="42.42425" lon="0.31918">
        <ele>937.69</ele>
        <time>2018-08-07T08:16:11Z</time>
      </trkpt>
      <trkpt lat="42.42446" lon="0.3189">
        <ele>935.9</ele>
        <time>2018-08-07T08:16:12Z</time>
      </trkpt>
      <trkpt lat="42.42468" lon="0.31864">
        <ele>933.26</ele>
        <time>2018-08-07T08:16:13Z</time>
      </trkpt>
      <trkpt lat="42.42491" lon="0.3184">
        <ele>931.07</ele>
        <time>2018-08-07T08:16:14Z</time>
      </trkpt>
      <trkpt lat="42.42515" lon="0.31816">
        <ele>929.71</ele>
        <time>2018-08-07T08:16:15Z</time>
      </trkpt>
      <trkpt lat="42.42538" lon="0.31793">
        <ele>928.6</ele>
        <time>2018-08-07T08:16:16Z</time>
      </trkpt>
      <trkpt lat="42.42561" lon="0.31769">
        <ele>927.57</ele>
        <time>2018-08-07T08:16:17Z</time>
      </trkpt>
      <trkpt lat="42.42583" lon="0.31746">
        <ele>926.56</ele>
        <time>2018-08-07T08:16:18Z</time>
      </trkpt>
      <trkpt lat="42.42606" lon="0.31722">
        <ele>925.56</ele>
        <time>2018-08-07T08:16:19Z</time>
      </trkpt>
      <trkpt lat="42.42628" lon="0.31698">
        <ele>924.56</ele>
        <time>2018-08-07T08:16:20Z</time>
      </trkpt>
      <trkpt lat="42.42649" lon="0.31673">
        <ele>923.56</ele>
        <time>2018-08-07T08:16:21Z</time>
      </trkpt>
      <trkpt lat="42.4267" lon="0.31648">
        <ele>921.86</ele>
        <time>2018-08-07T08:16:22Z</time>
      </trkpt>
      <trkpt lat="42.42691" lon="0.31622">
        <ele>919.95</ele>
        <time>2018-08-07T08:16:23Z</time>
      </trkpt>
      <trkpt lat="42.42711" lon="0.31595">
        <ele>918.68</ele>
        <time>2018-08-07T08:16:24Z</time>
      </trkpt>
      <trkpt lat="42.42731" lon="0.31569">
        <ele>916.89</ele>
        <time>2018-08-07T08:16:25Z</time>
      </trkpt>
      <trkpt lat="42.4275" lon="0.31542">
        <ele>914.96</ele>
        <time>2018-08-07T08:16:26Z</time>
      </trkpt>
      <trkpt lat="42.42769" lon="0.31515">
        <ele>912.28</ele>
        <time>2018-08-07T08:16:27Z</time>
      </trkpt>
      <trkpt lat="42.42787" lon="0.31487">
        <ele>909.37</ele>
        <time>2018-08-07T08:16:28Z</time>
      </trkpt>
      <trkpt lat="42.42806" lon="0.31459">
        <ele>907.1</ele>
        <time>2018-08-07T08:16:29Z</time>
      </trkpt>
      <trkpt lat="42.42825" lon="0.31429">
        <ele>904.32</ele>
        <time>2018-08-07T08:16:30Z</time>
      </trkpt>
      <trkpt lat="42.42843" lon="0.314">
        <ele>902.09</ele>
        <time>2018-08-07T08:16:31Z</time>
      </trkpt>
      <trkpt lat="42.4286" lon="0.3137">
        <ele>899.32</ele>
        <time>2018-08-07T08:16:32Z</time>
      </trkpt>
      <trkpt lat="42.42878" lon="0.3134">
        <ele>896.39</ele>
        <time>2018-08-07T08:16:33Z</time>
      </trkpt>
      <trkpt lat="42.42895" lon="0.31308">
        <ele>894.11</ele>
        <time>2018-08-07T08:16:34Z</time>
      </trkpt>
      <trkpt lat="42.42911" lon="0.31276">
        <ele>891.32</ele>
        <time>2018-08-07T08:16:35Z</time>
      </trkpt>
      <trkpt lat="42.42927" lon="0.31244">
        <ele>888.39</ele>
        <time>2018-08-07T08:16:36Z</time>
      </trkpt>
      <trkpt lat="42.42943" lon="0.31211">
        <ele>886.11</ele>
        <time>2018-08-07T08:16:37Z</time>
      </trkpt>
      <trkpt lat="42.42957" lon="0.31179">
        <ele>884.02</ele>
        <time>2018-08-07T08:16:38Z</time>
      </trkpt>
      <trkpt lat="42.42972" lon="0.31147">
        <ele>881.3</ele>
        <time>2018-08-07T08:16:39Z</time>
      </trkpt>
      <trkpt lat="42.42985" lon="0.31115">
        <ele>879.08</ele>
        <time>2018-08-07T08:16:40Z</time>
      </trkpt>
      <trkpt lat="42.42997" lon="0.31084">
        <ele>877.02</ele>
        <time>2018-08-07T08:16:41Z</time>
      </trkpt>
      <trkpt lat="42.4301" lon="0.31052">
        <ele>875</ele>
        <time>2018-08-07T08:16:42Z</time>
      </trkpt>
      <trkpt lat="42.43021" lon="0.31021">
        <ele>871.59</ele>
        <time>2018-08-07T08:16:43Z</time>
      </trkpt>
      <trkpt lat="42.43032" lon="0.3099">
        <ele>868.47</ele>
        <time>2018-08-07T08:16:44Z</time>
      </trkpt>
      <trkpt lat="42.43042" lon="0.30959">
        <ele>866.13</ele>
        <time>2018-08-07T08:16:45Z</time>
      </trkpt>
      <trkpt lat="42.43052" lon="0.30927">
        <ele>863.33</ele>
        <time>2018-08-07T08:16:46Z</time>
      </trkpt>
      <trkpt lat="42.43061" lon="0.30896">
        <ele>860.39</ele>
        <time>2018-08-07T08:16:47Z</time>
      </trkpt>
      <trkpt lat="42.43071" lon="0.30865">
        <ele>857.41</ele>
        <time>2018-08-07T08:16:48Z</time>
      </trkpt>
      <trkpt lat="42.43079" lon="0.30833">
        <ele>854.41</ele>
        <time>2018-08-07T08:16:49Z</time>
      </trkpt>
      <trkpt lat="42.43087" lon="0.30801">
        <ele>852.12</ele>
        <time>2018-08-07T08:16:50Z</time>
      </trkpt>
      <trkpt lat="42.43095" lon="0.3077">
        <ele>849.33</ele>
        <time>2018-08-07T08:16:51Z</time>
      </trkpt>
      <trkpt lat="42.43102" lon="0.30738">
        <ele>847.09</ele>
        <time>2018-08-07T08:16:52Z</time>
      </trkpt>
      <trkpt lat="42.4311" lon="0.30705">
        <ele>845.02</ele>
        <time>2018-08-07T08:16:53Z</time>
      </trkpt>
      <trkpt lat="42.43117" lon="0.30671">
        <ele>842.3</ele>
        <time>2018-08-07T08:16:54Z</time>
      </trkpt>
      <trkpt lat="42.43124" lon="0.30638">
        <ele>840.08</ele>
        <time>2018-08-07T08:16:55Z</time>
      </trkpt>
      <trkpt lat="42.43131" lon="0.30604">
        <ele>837.31</ele>
        <time>2018-08-07T08:16:56Z</time>
      </trkpt>
      <trkpt lat="42.43138" lon="0.3057">
        <ele>835.09</ele>
        <time>2018-08-07T08:16:57Z</time>
      </trkpt>
      <trkpt lat="42.43145" lon="0.30536">
        <ele>832.32</ele>
        <time>2018-08-07T08:16:58Z</time>
      </trkpt>
      <trkpt lat="42.43152" lon="0.30503">
        <ele>829.39</ele>
        <time>2018-08-07T08:16:59Z</time>
      </trkpt>
      <trkpt lat="42.43157" lon="0.30468">
        <ele>827.11</ele>
        <time>2018-08-07T08:17:00Z</time>
      </trkpt>
      <trkpt lat="42.4316" lon="0.30434">
        <ele>825.02</ele>
        <time>2018-08-07T08:17:01Z</time>
      </trkpt>
      <trkpt lat="42.43162" lon="0.30399">
        <ele>823</ele>
        <time>2018-08-07T08:17:02Z</time>
      </trkpt>
      <trkpt lat="42.43161" lon="0.30363">
        <ele>820.99</ele>
        <time>2018-08-07T08:17:03Z</time>
      </trkpt>
      <trkpt lat="42.43159" lon="0.30329">
        <ele>818.99</ele>
        <time>2018-08-07T08:17:04Z</time>
      </trkpt>
      <trkpt lat="42.43155" lon="0.30294">
        <ele>816.99</ele>
        <time>2018-08-07T08:17:05Z</time>
      </trkpt>
      <trkpt lat="42.43149" lon="0.30259">
        <ele>814.99</ele>
        <time>2018-08-07T08:17:06Z</time>
      </trkpt>
      <trkpt lat="42.43141" lon="0.30225">
        <ele>812.29</ele>
        <time>2018-08-07T08:17:07Z</time>
      </trkpt>
      <trkpt lat="42.43131" lon="0.30191">
        <ele>810.08</ele>
        <time>2018-08-07T08:17:08Z</time>
      </trkpt>
      <trkpt lat="42.43121" lon="0.30157">
        <ele>807.31</ele>
        <time>2018-08-07T08:17:09Z</time>
      </trkpt>
      <trkpt lat="42.4311" lon="0.30123">
        <ele>805.09</ele>
        <time>2018-08-07T08:17:10Z</time>
      </trkpt>
      <trkpt lat="42.43099" lon="0.3009">
        <ele>802.32</ele>
        <time>2018-08-07T08:17:11Z</time>
      </trkpt>
      <trkpt lat="42.43089" lon="0.30055">
        <ele>800.09</ele>
        <time>2018-08-07T08:17:12Z</time>
      </trkpt>
      <trkpt lat="42.43078" lon="0.30021">
        <ele>798.02</ele>
        <time>2018-08-07T08:17:13Z</time>
      </trkpt>
      <trkpt lat="42.43067" lon="0.29986">
        <ele>796</ele>
        <time>2018-08-07T08:17:14Z</time>
      </trkpt>
      <trkpt lat="42.43057" lon="0.29951">
        <ele>793.29</ele>
        <time>2018-08-07T08:17:15Z</time>
      </trkpt>
      <trkpt lat="42.43046" lon="0.29916">
        <ele>791.08</ele>
        <time>2018-08-07T08:17:16Z</time>
      </trkpt>
      <trkpt lat="42.43035" lon="0.29881">
        <ele>789.01</ele>
        <time>2018-08-07T08:17:17Z</time>
      </trkpt>
      <trkpt lat="42.43024" lon="0.29846">
        <ele>786.3</ele>
        <time>2018-08-07T08:17:18Z</time>
      </trkpt>
      <trkpt lat="42.43013" lon="0.29811">
        <ele>783.38</ele>
        <time>2018-08-07T08:17:19Z</time>
      </trkpt>
      <trkpt lat="42.43001" lon="0.29775">
        <ele>781.1</ele>
        <time>2018-08-07T08:17:20Z</time>
      </trkpt>
      <trkpt lat="42.4299" lon="0.2974">
        <ele>779.02</ele>
        <time>2018-08-07T08:17:21Z</time>
      </trkpt>
      <trkpt lat="42.4298" lon="0.29705">
        <ele>777</ele>
        <time>2018-08-07T08:17:22Z</time>
      </trkpt>
      <trkpt lat="42.42969" lon="0.2967">
        <ele>774.29</ele>
        <time>2018-08-07T08:17:23Z</time>
      </trkpt>
      <trkpt lat="42.4296" lon="0.29634">
        <ele>772.08</ele>
        <time>2018-08-07T08:17:24Z</time>
      </trkpt>
      <trkpt lat="42.42952" lon="0.29598">
        <ele>769.31</ele>
        <time>2018-08-07T08:17:25Z</time>
      </trkpt>
      <trkpt lat="42.42944" lon="0.29562">
        <ele>767.09</ele>
        <time>2018-08-07T08:17:26Z</time>
      </trkpt>
      <trkpt lat="42.42936" lon="0.29526">
        <ele>765.02</ele>
        <time>2018-08-07T08:17:27Z</time>
      </trkpt>
      <trkpt lat="42.42929" lon="0.2949">
        <ele>763</ele>
        <time>2018-08-07T08:17:28Z</time>
      </trkpt>
      <trkpt lat="42.42923" lon="0.29454">
        <ele>760.99</ele>
        <time>2018-08-07T08:17:29Z</time>
      </trkpt>
      <trkpt lat="42.42917" lon="0.29417">
        <ele>759.69</ele>
        <time>2018-08-07T08:17:30Z</time>
      </trkpt>
      <trkpt lat="42.42912" lon="0.29381">
        <ele>757.9</ele>
        <time>2018-08-07T08:17:31Z</time>
      </trkpt>
      <trkpt lat="42.42908" lon="0.29344">
        <ele>756.66</ele>
        <time>2018-08-07T08:17:32Z</time>
      </trkpt>
      <trkpt lat="42.42904" lon="0.29307">
        <ele>755.59</ele>
        <time>2018-08-07T08:17:33Z</time>
      </trkpt>
      <trkpt lat="42.429" lon="0.2927">
        <ele>753.87</ele>
        <time>2018-08-07T08:17:34Z</time>
      </trkpt>
      <trkpt lat="42.42898" lon="0.29233">
        <ele>751.95</ele>
        <time>2018-08-07T08:17:35Z</time>
      </trkpt>
      <trkpt lat="42.42894" lon="0.29196">
        <ele>749.28</ele>
        <time>2018-08-07T08:17:36Z</time>
      </trkpt>
      <trkpt lat="42.42891" lon="0.29159">
        <ele>747.07</ele>
        <time>2018-08-07T08:17:37Z</time>
      </trkpt>
      <trkpt lat="42.42888" lon="0.29123">
        <ele>745.01</ele>
        <time>2018-08-07T08:17:38Z</time>
      </trkpt>
      <trkpt lat="42.42884" lon="0.29086">
        <ele>742.99</ele>
        <time>2018-08-07T08:17:39Z</time>
      </trkpt>
      <trkpt lat="42.4288" lon="0.2905">
        <ele>741.69</ele>
        <time>2018-08-07T08:17:40Z</time>
      </trkpt>
      <trkpt lat="42.42875" lon="0.29013">
        <ele>739.9</ele>
        <time>2018-08-07T08:17:41Z</time>
      </trkpt>
      <trkpt lat="42.42869" lon="0.28978">
        <ele>737.96</ele>
        <time>2018-08-07T08:17:42Z</time>
      </trkpt>
      <trkpt lat="42.42862" lon="0.28942">
        <ele>735.98</ele>
        <time>2018-08-07T08:17:43Z</time>
      </trkpt>
      <trkpt lat="42.42855" lon="0.28906">
        <ele>733.28</ele>
        <time>2018-08-07T08:17:44Z</time>
      </trkpt>
      <trkpt lat="42.42846" lon="0.2887">
        <ele>731.78</ele>
        <time>2018-08-07T08:17:45Z</time>
      </trkpt>
      <trkpt lat="42.42836" lon="0.28835">
        <ele>729.22</ele>
        <time>2018-08-07T08:17:46Z</time>
      </trkpt>
      <trkpt lat="42.42827" lon="0.28799">
        <ele>726.36</ele>
        <time>2018-08-07T08:17:47Z</time>
      </trkpt>
      <trkpt lat="42.42817" lon="0.28763">
        <ele>724.1</ele>
        <time>2018-08-07T08:17:48Z</time>
      </trkpt>
      <trkpt lat="42.42807" lon="0.28727">
        <ele>721.32</ele>
        <time>2018-08-07T08:17:49Z</time>
      </trkpt>
      <trkpt lat="42.42797" lon="0.28691">
        <ele>719.09</ele>
        <time>2018-08-07T08:17:50Z</time>
      </trkpt>
      <trkpt lat="42.42787" lon="0.28655">
        <ele>716.32</ele>
        <time>2018-08-07T08:17:51Z</time>
      </trkpt>
      <trkpt lat="42.42777" lon="0.28618">
        <ele>713.39</ele>
        <time>2018-08-07T08:17:52Z</time>
      </trkpt>
      <trkpt lat="42.42767" lon="0.28581">
        <ele>711.11</ele>
        <time>2018-08-07T08:17:53Z</time>
      </trkpt>
      <trkpt lat="42.42757" lon="0.28544">
        <ele>709.02</ele>
        <time>2018-08-07T08:17:54Z</time>
      </trkpt>
      <trkpt lat="42.42747" lon="0.28507">
        <ele>707.7</ele>
        <time>2018-08-07T08:17:55Z</time>
      </trkpt>
      <trkpt lat="42.42736" lon="0.2847">
        <ele>705.9</ele>
        <time>2018-08-07T08:17:56Z</time>
      </trkpt>
      <trkpt lat="42.42726" lon="0.28433">
        <ele>705.36</ele>
        <time>2018-08-07T08:17:57Z</time>
      </trkpt>
      <trkpt lat="42.42716" lon="0.28396">
        <ele>704.5</ele>
        <time>2018-08-07T08:17:58Z</time>
      </trkpt>
      <trkpt lat="42.42706" lon="0.2836">
        <ele>703.54</ele>
        <time>2018-08-07T08:17:59Z</time>
      </trkpt>
      <trkpt lat="42.42696" lon="0.28324">
        <ele>703.25</ele>
        <time>2018-08-07T08:18:00Z</time>
      </trkpt>
      <trkpt lat="42.42686" lon="0.28288">
        <ele>702.47</ele>
        <time>2018-08-07T08:18:01Z</time>
      </trkpt>
      <trkpt lat="42.42674" lon="0.28253">
        <ele>702.23</ele>
        <time>2018-08-07T08:18:02Z</time>
      </trkpt>
      <trkpt lat="42.42662" lon="0.2822">
        <ele>702.16</ele>
        <time>2018-08-07T08:18:03Z</time>
      </trkpt>
      <trkpt lat="42.42647" lon="0.28189">
        <ele>702.14</ele>
        <time>2018-08-07T08:18:04Z</time>
      </trkpt>
      <trkpt lat="42.4263" lon="0.2816">
        <ele>702.13</ele>
        <time>2018-08-07T08:18:05Z</time>
      </trkpt>
      <trkpt lat="42.42612" lon="0.28132">
        <ele>702.13</ele>
        <time>2018-08-07T08:18:06Z</time>
      </trkpt>
      <trkpt lat="42.42593" lon="0.28105">
        <ele>702.83</ele>
        <time>2018-08-07T08:18:07Z</time>
      </trkpt>
      <trkpt lat="42.42572" lon="0.28081">
        <ele>702.34</ele>
        <time>2018-08-07T08:18:08Z</time>
      </trkpt>
      <trkpt lat="42.42549" lon="0.28059">
        <ele>703.59</ele>
        <time>2018-08-07T08:18:09Z</time>
      </trkpt>
      <trkpt lat="42.42527" lon="0.28037">
        <ele>704.67</ele>
        <time>2018-08-07T08:18:10Z</time>
      </trkpt>
      <trkpt lat="42.42504" lon="0.28016">
        <ele>705.69</ele>
        <time>2018-08-07T08:18:11Z</time>
      </trkpt>
      <trkpt lat="42.4248" lon="0.27996">
        <ele>706.7</ele>
        <time>2018-08-07T08:18:12Z</time>
      </trkpt>
      <trkpt lat="42.42457" lon="0.27975">
        <ele>707.7</ele>
        <time>2018-08-07T08:18:13Z</time>
      </trkpt>
      <trkpt lat="42.42435" lon="0.27953">
        <ele>708.7</ele>
        <time>2018-08-07T08:18:14Z</time>
      </trkpt>
      <trkpt lat="42.42414" lon="0.2793">
        <ele>710.4</ele>
        <time>2018-08-07T08:18:15Z</time>
      </trkpt>
      <trkpt lat="42.42393" lon="0.27905">
        <ele>711.61</ele>
        <time>2018-08-07T08:18:16Z</time>
      </trkpt>
      <trkpt lat="42.42372" lon="0.2788">
        <ele>712.67</ele>
        <time>2018-08-07T08:18:17Z</time>
      </trkpt>
      <trkpt lat="42.42352" lon="0.27854">
        <ele>712.99</ele>
        <time>2018-08-07T08:18:18Z</time>
      </trkpt>
      <trkpt lat="42.42332" lon="0.27827">
        <ele>713.09</ele>
        <time>2018-08-07T08:18:19Z</time>
      </trkpt>
      <trkpt lat="42.42314" lon="0.27799">
        <ele>713.12</ele>
        <time>2018-08-07T08:18:20Z</time>
      </trkpt>
      <trkpt lat="42.42295" lon="0.2777">
        <ele>713.13</ele>
        <time>2018-08-07T08:18:21Z</time>
      </trkpt>
      <trkpt lat="42.42277" lon="0.27742">
        <ele>713.83</ele>
        <time>2018-08-07T08:18:22Z</time>
      </trkpt>
      <trkpt lat="42.42258" lon="0.27713">
        <ele>714.04</ele>
        <time>2018-08-07T08:18:23Z</time>
      </trkpt>
      <trkpt lat="42.4224" lon="0.27685">
        <ele>714.8</ele>
        <time>2018-08-07T08:18:24Z</time>
      </trkpt>
      <trkpt lat="42.42221" lon="0.27656">
        <ele>715.03</ele>
        <time>2018-08-07T08:18:25Z</time>
      </trkpt>
      <trkpt lat="42.42202" lon="0.27627">
        <ele>715.1</ele>
        <time>2018-08-07T08:18:26Z</time>
      </trkpt>
      <trkpt lat="42.42183" lon="0.27597">
        <ele>715.12</ele>
        <time>2018-08-07T08:18:27Z</time>
      </trkpt>
      <trkpt lat="42.42164" lon="0.27568">
        <ele>715.13</ele>
        <time>2018-08-07T08:18:28Z</time>
      </trkpt>
      <trkpt lat="42.42145" lon="0.27538">
        <ele>714.43</ele>
        <time>2018-08-07T08:18:29Z</time>
      </trkpt>
      <trkpt lat="42.42126" lon="0.27508">
        <ele>714.22</ele>
        <time>2018-08-07T08:18:30Z</time>
      </trkpt>
      <trkpt lat="42.42106" lon="0.27478">
        <ele>713.46</ele>
        <time>2018-08-07T08:18:31Z</time>
      </trkpt>
      <trkpt lat="42.42087" lon="0.27448">
        <ele>712.53</ele>
        <time>2018-08-07T08:18:32Z</time>
      </trkpt>
      <trkpt lat="42.42067" lon="0.27418">
        <ele>712.25</ele>
        <time>2018-08-07T08:18:33Z</time>
      </trkpt>
      <trkpt lat="42.42047" lon="0.27388">
        <ele>711.47</ele>
        <time>2018-08-07T08:18:34Z</time>
      </trkpt>
      <trkpt lat="42.42027" lon="0.27358">
        <ele>710.53</ele>
        <time>2018-08-07T08:18:35Z</time>
      </trkpt>
      <trkpt lat="42.42007" lon="0.27328">
        <ele>709.55</ele>
        <time>2018-08-07T08:18:36Z</time>
      </trkpt>
      <trkpt lat="42.41987" lon="0.27297">
        <ele>708.56</ele>
        <time>2018-08-07T08:18:37Z</time>
      </trkpt>
      <trkpt lat="42.41968" lon="0.27267">
        <ele>708.26</ele>
        <time>2018-08-07T08:18:38Z</time>
      </trkpt>
      <trkpt lat="42.41949" lon="0.27238">
        <ele>707.47</ele>
        <time>2018-08-07T08:18:39Z</time>
      </trkpt>
      <trkpt lat="42.41929" lon="0.27208">
        <ele>705.83</ele>
        <time>2018-08-07T08:18:40Z</time>
      </trkpt>
      <trkpt lat="42.4191" lon="0.27179">
        <ele>704.64</ele>
        <time>2018-08-07T08:18:41Z</time>
      </trkpt>
      <trkpt lat="42.4189" lon="0.2715">
        <ele>703.58</ele>
        <time>2018-08-07T08:18:42Z</time>
      </trkpt>
      <trkpt lat="42.41871" lon="0.27121">
        <ele>702.57</ele>
        <time>2018-08-07T08:18:43Z</time>
      </trkpt>
      <trkpt lat="42.41852" lon="0.27092">
        <ele>701.56</ele>
        <time>2018-08-07T08:18:44Z</time>
      </trkpt>
      <trkpt lat="42.41834" lon="0.27063">
        <ele>699.86</ele>
        <time>2018-08-07T08:18:45Z</time>
      </trkpt>
      <trkpt lat="42.41814" lon="0.27034">
        <ele>698.65</ele>
        <time>2018-08-07T08:18:46Z</time>
      </trkpt>
      <trkpt lat="42.41795" lon="0.27004">
        <ele>697.59</ele>
        <time>2018-08-07T08:18:47Z</time>
      </trkpt>
      <trkpt lat="42.41777" lon="0.26976">
        <ele>696.57</ele>
        <time>2018-08-07T08:18:48Z</time>
      </trkpt>
      <trkpt lat="42.41758" lon="0.26946">
        <ele>695.56</ele>
        <time>2018-08-07T08:18:49Z</time>
      </trkpt>
      <trkpt lat="42.41739" lon="0.26917">
        <ele>694.56</ele>
        <time>2018-08-07T08:18:50Z</time>
      </trkpt>
      <trkpt lat="42.4172" lon="0.26887">
        <ele>693.56</ele>
        <time>2018-08-07T08:18:51Z</time>
      </trkpt>
      <trkpt lat="42.41701" lon="0.26858">
        <ele>692.56</ele>
        <time>2018-08-07T08:18:52Z</time>
      </trkpt>
      <trkpt lat="42.41681" lon="0.26828">
        <ele>692.26</ele>
        <time>2018-08-07T08:18:53Z</time>
      </trkpt>
      <trkpt lat="42.41662" lon="0.26798">
        <ele>691.47</ele>
        <time>2018-08-07T08:18:54Z</time>
      </trkpt>
      <trkpt lat="42.41642" lon="0.26768">
        <ele>691.23</ele>
        <time>2018-08-07T08:18:55Z</time>
      </trkpt>
      <trkpt lat="42.41623" lon="0.26738">
        <ele>690.46</ele>
        <time>2018-08-07T08:18:56Z</time>
      </trkpt>
      <trkpt lat="42.41604" lon="0.26709">
        <ele>690.23</ele>
        <time>2018-08-07T08:18:57Z</time>
      </trkpt>
      <trkpt lat="42.41585" lon="0.26679">
        <ele>690.16</ele>
        <time>2018-08-07T08:18:58Z</time>
      </trkpt>
      <trkpt lat="42.41565" lon="0.26649">
        <ele>689.44</ele>
        <time>2018-08-07T08:18:59Z</time>
      </trkpt>
      <trkpt lat="42.41546" lon="0.2662">
        <ele>688.52</ele>
        <time>2018-08-07T08:19:00Z</time>
      </trkpt>
      <trkpt lat="42.41527" lon="0.26591">
        <ele>687.55</ele>
        <time>2018-08-07T08:19:01Z</time>
      </trkpt>
      <trkpt lat="42.41509" lon="0.26562">
        <ele>686.56</ele>
        <time>2018-08-07T08:19:02Z</time>
      </trkpt>
      <trkpt lat="42.4149" lon="0.26533">
        <ele>684.86</ele>
        <time>2018-08-07T08:19:03Z</time>
      </trkpt>
      <trkpt lat="42.41472" lon="0.26504">
        <ele>684.35</ele>
        <time>2018-08-07T08:19:04Z</time>
      </trkpt>
      <trkpt lat="42.41453" lon="0.26476">
        <ele>683.5</ele>
        <time>2018-08-07T08:19:05Z</time>
      </trkpt>
      <trkpt lat="42.41435" lon="0.26447">
        <ele>683.24</ele>
        <time>2018-08-07T08:19:06Z</time>
      </trkpt>
      <trkpt lat="42.41416" lon="0.26419">
        <ele>682.46</ele>
        <time>2018-08-07T08:19:07Z</time>
      </trkpt>
      <trkpt lat="42.41399" lon="0.26392">
        <ele>681.53</ele>
        <time>2018-08-07T08:19:08Z</time>
      </trkpt>
      <trkpt lat="42.4138" lon="0.26365">
        <ele>680.55</ele>
        <time>2018-08-07T08:19:09Z</time>
      </trkpt>
      <trkpt lat="42.41362" lon="0.26337">
        <ele>680.26</ele>
        <time>2018-08-07T08:19:10Z</time>
      </trkpt>
      <trkpt lat="42.41344" lon="0.2631">
        <ele>679.47</ele>
        <time>2018-08-07T08:19:11Z</time>
      </trkpt>
      <trkpt lat="42.41326" lon="0.26282">
        <ele>679.23</ele>
        <time>2018-08-07T08:19:12Z</time>
      </trkpt>
      <trkpt lat="42.41308" lon="0.26254">
        <ele>678.46</ele>
        <time>2018-08-07T08:19:13Z</time>
      </trkpt>
      <trkpt lat="42.4129" lon="0.26227">
        <ele>676.83</ele>
        <time>2018-08-07T08:19:14Z</time>
      </trkpt>
      <trkpt lat="42.41271" lon="0.26198">
        <ele>675.64</ele>
        <time>2018-08-07T08:19:15Z</time>
      </trkpt>
      <trkpt lat="42.41253" lon="0.26169">
        <ele>673.88</ele>
        <time>2018-08-07T08:19:16Z</time>
      </trkpt>
      <trkpt lat="42.41235" lon="0.2614">
        <ele>671.26</ele>
        <time>2018-08-07T08:19:17Z</time>
      </trkpt>
      <trkpt lat="42.41216" lon="0.26111">
        <ele>669.07</ele>
        <time>2018-08-07T08:19:18Z</time>
      </trkpt>
      <trkpt lat="42.41197" lon="0.26081">
        <ele>668.41</ele>
        <time>2018-08-07T08:19:19Z</time>
      </trkpt>
      <trkpt lat="42.41178" lon="0.26051">
        <ele>666.81</ele>
        <time>2018-08-07T08:19:20Z</time>
      </trkpt>
      <trkpt lat="42.41158" lon="0.26021">
        <ele>665.64</ele>
        <time>2018-08-07T08:19:21Z</time>
      </trkpt>
      <trkpt lat="42.41138" lon="0.2599">
        <ele>663.88</ele>
        <time>2018-08-07T08:19:22Z</time>
      </trkpt>
      <trkpt lat="42.41118" lon="0.25961">
        <ele>660.56</ele>
        <time>2018-08-07T08:19:23Z</time>
      </trkpt>
      <trkpt lat="42.41098" lon="0.25931">
        <ele>656.76</ele>
        <time>2018-08-07T08:19:24Z</time>
      </trkpt>
      <trkpt lat="42.41078" lon="0.25901">
        <ele>653.52</ele>
        <time>2018-08-07T08:19:25Z</time>
      </trkpt>
      <trkpt lat="42.41058" lon="0.25872">
        <ele>650.45</ele>
        <time>2018-08-07T08:19:26Z</time>
      </trkpt>
      <trkpt lat="42.41039" lon="0.25845">
        <ele>647.42</ele>
        <time>2018-08-07T08:19:27Z</time>
      </trkpt>
      <trkpt lat="42.41019" lon="0.25818">
        <ele>643.72</ele>
        <time>2018-08-07T08:19:28Z</time>
      </trkpt>
      <trkpt lat="42.40999" lon="0.25791">
        <ele>640.51</ele>
        <time>2018-08-07T08:19:29Z</time>
      </trkpt>
      <trkpt lat="42.4098" lon="0.25766">
        <ele>636.74</ele>
        <time>2018-08-07T08:19:30Z</time>
      </trkpt>
      <trkpt lat="42.4096" lon="0.25739">
        <ele>633.51</ele>
        <time>2018-08-07T08:19:31Z</time>
      </trkpt>
      <trkpt lat="42.4094" lon="0.25713">
        <ele>630.45</ele>
        <time>2018-08-07T08:19:32Z</time>
      </trkpt>
      <trkpt lat="42.4092" lon="0.25686">
        <ele>628.12</ele>
        <time>2018-08-07T08:19:33Z</time>
      </trkpt>
      <trkpt lat="42.40899" lon="0.2566">
        <ele>625.33</ele>
        <time>2018-08-07T08:19:34Z</time>
      </trkpt>
      <trkpt lat="42.40878" lon="0.25634">
        <ele>622.39</ele>
        <time>2018-08-07T08:19:35Z</time>
      </trkpt>
      <trkpt lat="42.40857" lon="0.25607">
        <ele>620.11</ele>
        <time>2018-08-07T08:19:36Z</time>
      </trkpt>
      <trkpt lat="42.40837" lon="0.2558">
        <ele>618.72</ele>
        <time>2018-08-07T08:19:37Z</time>
      </trkpt>
      <trkpt lat="42.40817" lon="0.25553">
        <ele>616.91</ele>
        <time>2018-08-07T08:19:38Z</time>
      </trkpt>
      <trkpt lat="42.40798" lon="0.25525">
        <ele>614.96</ele>
        <time>2018-08-07T08:19:39Z</time>
      </trkpt>
      <trkpt lat="42.40782" lon="0.25495">
        <ele>613.68</ele>
        <time>2018-08-07T08:19:40Z</time>
      </trkpt>
      <trkpt lat="42.40769" lon="0.25463">
        <ele>612.6</ele>
        <time>2018-08-07T08:19:41Z</time>
      </trkpt>
      <trkpt lat="42.40758" lon="0.25429">
        <ele>610.87</ele>
        <time>2018-08-07T08:19:42Z</time>
      </trkpt>
      <trkpt lat="42.4075" lon="0.25394">
        <ele>610.35</ele>
        <time>2018-08-07T08:19:43Z</time>
      </trkpt>
      <trkpt lat="42.40744" lon="0.25358">
        <ele>609.5</ele>
        <time>2018-08-07T08:19:44Z</time>
      </trkpt>
      <trkpt lat="42.40738" lon="0.25322">
        <ele>609.24</ele>
        <time>2018-08-07T08:19:45Z</time>
      </trkpt>
      <trkpt lat="42.40733" lon="0.25286">
        <ele>608.46</ele>
        <time>2018-08-07T08:19:46Z</time>
      </trkpt>
      <trkpt lat="42.40728" lon="0.2525">
        <ele>608.23</ele>
        <time>2018-08-07T08:19:47Z</time>
      </trkpt>
      <trkpt lat="42.40724" lon="0.25215">
        <ele>608.16</ele>
        <time>2018-08-07T08:19:48Z</time>
      </trkpt>
      <trkpt lat="42.40721" lon="0.25179">
        <ele>608.14</ele>
        <time>2018-08-07T08:19:49Z</time>
      </trkpt>
      <trkpt lat="42.40721" lon="0.25144">
        <ele>607.43</ele>
        <time>2018-08-07T08:19:50Z</time>
      </trkpt>
      <trkpt lat="42.40724" lon="0.25108">
        <ele>607.22</ele>
        <time>2018-08-07T08:19:51Z</time>
      </trkpt>
      <trkpt lat="42.40728" lon="0.25072">
        <ele>607.16</ele>
        <time>2018-08-07T08:19:52Z</time>
      </trkpt>
      <trkpt lat="42.40734" lon="0.25037">
        <ele>606.44</ele>
        <time>2018-08-07T08:19:53Z</time>
      </trkpt>
      <trkpt lat="42.40745" lon="0.25004">
        <ele>606.22</ele>
        <time>2018-08-07T08:19:54Z</time>
      </trkpt>
      <trkpt lat="42.40755" lon="0.24969">
        <ele>605.83</ele>
        <time>2018-08-07T08:19:55Z</time>
      </trkpt>
      <trkpt lat="42.40764" lon="0.24934">
        <ele>605.71</ele>
        <time>2018-08-07T08:19:56Z</time>
      </trkpt>
      <trkpt lat="42.40773" lon="0.24899">
        <ele>604.97</ele>
        <time>2018-08-07T08:19:57Z</time>
      </trkpt>
      <trkpt lat="42.40783" lon="0.24865">
        <ele>604.75</ele>
        <time>2018-08-07T08:19:58Z</time>
      </trkpt>
      <trkpt lat="42.40793" lon="0.2483">
        <ele>603.99</ele>
        <time>2018-08-07T08:19:59Z</time>
      </trkpt>
      <trkpt lat="42.40803" lon="0.24797">
        <ele>603.76</ele>
        <time>2018-08-07T08:20:00Z</time>
      </trkpt>
      <trkpt lat="42.40812" lon="0.24762">
        <ele>603.69</ele>
        <time>2018-08-07T08:20:01Z</time>
      </trkpt>
      <trkpt lat="42.40821" lon="0.24727">
        <ele>603.67</ele>
        <time>2018-08-07T08:20:02Z</time>
      </trkpt>
      <trkpt lat="42.40831" lon="0.24691">
        <ele>602.96</ele>
        <time>2018-08-07T08:20:03Z</time>
      </trkpt>
      <trkpt lat="42.4084" lon="0.24655">
        <ele>602.75</ele>
        <time>2018-08-07T08:20:04Z</time>
      </trkpt>
      <trkpt lat="42.40849" lon="0.2462">
        <ele>601.99</ele>
        <time>2018-08-07T08:20:05Z</time>
      </trkpt>
      <trkpt lat="42.40858" lon="0.24585">
        <ele>601.76</ele>
        <time>2018-08-07T08:20:06Z</time>
      </trkpt>
      <trkpt lat="42.40866" lon="0.2455">
        <ele>600.99</ele>
        <time>2018-08-07T08:20:07Z</time>
      </trkpt>
      <trkpt lat="42.40873" lon="0.24515">
        <ele>600.76</ele>
        <time>2018-08-07T08:20:08Z</time>
      </trkpt>
      <trkpt lat="42.40878" lon="0.24478">
        <ele>599.99</ele>
        <time>2018-08-07T08:20:09Z</time>
      </trkpt>
      <trkpt lat="42.40881" lon="0.24441">
        <ele>599.06</ele>
        <time>2018-08-07T08:20:10Z</time>
      </trkpt>
      <trkpt lat="42.40881" lon="0.24402">
        <ele>598.08</ele>
        <time>2018-08-07T08:20:11Z</time>
      </trkpt>
      <trkpt lat="42.40879" lon="0.24364">
        <ele>597.08</ele>
        <time>2018-08-07T08:20:12Z</time>
      </trkpt>
      <trkpt lat="42.40876" lon="0.24327">
        <ele>596.09</ele>
        <time>2018-08-07T08:20:13Z</time>
      </trkpt>
      <trkpt lat="42.40872" lon="0.24291">
        <ele>595.09</ele>
        <time>2018-08-07T08:20:14Z</time>
      </trkpt>
      <trkpt lat="42.40868" lon="0.24256">
        <ele>594.79</ele>
        <time>2018-08-07T08:20:15Z</time>
      </trkpt>
      <trkpt lat="42.40864" lon="0.24223">
        <ele>594.7</ele>
        <time>2018-08-07T08:20:16Z</time>
      </trkpt>
      <trkpt lat="42.4086" lon="0.24192">
        <ele>594.67</ele>
        <time>2018-08-07T08:20:17Z</time>
      </trkpt>
      <trkpt lat="42.40857" lon="0.24162">
        <ele>593.96</ele>
        <time>2018-08-07T08:20:18Z</time>
      </trkpt>
      <trkpt lat="42.40854" lon="0.24133">
        <ele>593.75</ele>
        <time>2018-08-07T08:20:19Z</time>
      </trkpt>
      <trkpt lat="42.40851" lon="0.24104">
        <ele>593.69</ele>
        <time>2018-08-07T08:20:20Z</time>
      </trkpt>
      <trkpt lat="42.40849" lon="0.24076">
        <ele>594.37</ele>
        <time>2018-08-07T08:20:21Z</time>
      </trkpt>
      <trkpt lat="42.40846" lon="0.24049">
        <ele>594.57</ele>
        <time>2018-08-07T08:20:22Z</time>
      </trkpt>
      <trkpt lat="42.40844" lon="0.24022">
        <ele>595.33</ele>
        <time>2018-08-07T08:20:23Z</time>
      </trkpt>
      <trkpt lat="42.40842" lon="0.23995">
        <ele>595.56</ele>
        <time>2018-08-07T08:20:24Z</time>
      </trkpt>
      <trkpt lat="42.40841" lon="0.23968">
        <ele>596.33</ele>
        <time>2018-08-07T08:20:25Z</time>
      </trkpt>
      <trkpt lat="42.40839" lon="0.23941">
        <ele>597.26</ele>
        <time>2018-08-07T08:20:26Z</time>
      </trkpt>
      <trkpt lat="42.40837" lon="0.23913">
        <ele>597.54</ele>
        <time>2018-08-07T08:20:27Z</time>
      </trkpt>
      <trkpt lat="42.40835" lon="0.23885">
        <ele>597.62</ele>
        <time>2018-08-07T08:20:28Z</time>
      </trkpt>
      <trkpt lat="42.40833" lon="0.23857">
        <ele>597.65</ele>
        <time>2018-08-07T08:20:29Z</time>
      </trkpt>
      <trkpt lat="42.40853" lon="0.23368">
        <ele>601.15</ele>
        <time>2018-08-07T08:20:46Z</time>
      </trkpt>
      <trkpt lat="42.40851" lon="0.23333">
        <ele>602.21</ele>
        <time>2018-08-07T08:20:47Z</time>
      </trkpt>
      <trkpt lat="42.40855" lon="0.23302">
        <ele>603.92</ele>
        <time>2018-08-07T08:20:48Z</time>
      </trkpt>
      <trkpt lat="42.40859" lon="0.23269">
        <ele>605.14</ele>
        <time>2018-08-07T08:20:49Z</time>
      </trkpt>
      <trkpt lat="42.40863" lon="0.23235">
        <ele>604.8</ele>
        <time>2018-08-07T08:20:50Z</time>
      </trkpt>
      <trkpt lat="42.40866" lon="0.23202">
        <ele>604.7</ele>
        <time>2018-08-07T08:20:51Z</time>
      </trkpt>
      <trkpt lat="42.40871" lon="0.23169">
        <ele>604.67</ele>
        <time>2018-08-07T08:20:52Z</time>
      </trkpt>
      <trkpt lat="42.40876" lon="0.23134">
        <ele>604.66</ele>
        <time>2018-08-07T08:20:53Z</time>
      </trkpt>
      <trkpt lat="42.40881" lon="0.23101">
        <ele>604.66</ele>
        <time>2018-08-07T08:20:54Z</time>
      </trkpt>
      <trkpt lat="42.40886" lon="0.23066">
        <ele>603.96</ele>
        <time>2018-08-07T08:20:55Z</time>
      </trkpt>
      <trkpt lat="42.40892" lon="0.23031">
        <ele>603.75</ele>
        <time>2018-08-07T08:20:56Z</time>
      </trkpt>
      <trkpt lat="42.40899" lon="0.22996">
        <ele>603.69</ele>
        <time>2018-08-07T08:20:57Z</time>
      </trkpt>
      <trkpt lat="42.40905" lon="0.22962">
        <ele>602.97</ele>
        <time>2018-08-07T08:20:58Z</time>
      </trkpt>
      <trkpt lat="42.40912" lon="0.22928">
        <ele>602.75</ele>
        <time>2018-08-07T08:20:59Z</time>
      </trkpt>
      <trkpt lat="42.40919" lon="0.22895">
        <ele>602.69</ele>
        <time>2018-08-07T08:21:00Z</time>
      </trkpt>
      <trkpt lat="42.40925" lon="0.22862">
        <ele>601.97</ele>
        <time>2018-08-07T08:21:01Z</time>
      </trkpt>
      <trkpt lat="42.40933" lon="0.22829">
        <ele>601.75</ele>
        <time>2018-08-07T08:21:02Z</time>
      </trkpt>
      <trkpt lat="42.4094" lon="0.22797">
        <ele>600.99</ele>
        <time>2018-08-07T08:21:03Z</time>
      </trkpt>
      <trkpt lat="42.40948" lon="0.22765">
        <ele>600.06</ele>
        <time>2018-08-07T08:21:04Z</time>
      </trkpt>
      <trkpt lat="42.40954" lon="0.22736">
        <ele>599.78</ele>
        <time>2018-08-07T08:21:05Z</time>
      </trkpt>
      <trkpt lat="42.40959" lon="0.22709">
        <ele>599.69</ele>
        <time>2018-08-07T08:21:06Z</time>
      </trkpt>
      <trkpt lat="42.40964" lon="0.22683">
        <ele>598.97</ele>
        <time>2018-08-07T08:21:07Z</time>
      </trkpt>
      <trkpt lat="42.40968" lon="0.22658">
        <ele>599.45</ele>
        <time>2018-08-07T08:21:08Z</time>
      </trkpt>
      <trkpt lat="42.40975" lon="0.22615">
        <ele>598.94</ele>
        <time>2018-08-07T08:21:10Z</time>
      </trkpt>
      <trkpt lat="42.40982" lon="0.22578">
        <ele>597.98</ele>
        <time>2018-08-07T08:21:12Z</time>
      </trkpt>
      <trkpt lat="42.4099" lon="0.22544">
        <ele>596.99</ele>
        <time>2018-08-07T08:21:14Z</time>
      </trkpt>
      <trkpt lat="42.40997" lon="0.2251">
        <ele>596.69</ele>
        <time>2018-08-07T08:21:16Z</time>
      </trkpt>
      <trkpt lat="42.41" lon="0.22482">
        <ele>595.75</ele>
        <time>2018-08-07T08:21:18Z</time>
      </trkpt>
      <trkpt lat="42.41008" lon="0.22455">
        <ele>596.57</ele>
        <time>2018-08-07T08:21:22Z</time>
      </trkpt>
      <trkpt lat="42.41027" lon="0.22455">
        <ele>595.04</ele>
        <time>2018-08-07T08:21:24Z</time>
      </trkpt>
      <trkpt lat="42.41053" lon="0.22451">
        <ele>593.08</ele>
        <time>2018-08-07T08:21:26Z</time>
      </trkpt>
      <trkpt lat="42.41079" lon="0.22427">
        <ele>592.7</ele>
        <time>2018-08-07T08:21:28Z</time>
      </trkpt>
      <trkpt lat="42.41105" lon="0.22398">
        <ele>593.15</ele>
        <time>2018-08-07T08:21:30Z</time>
      </trkpt>
      <trkpt lat="42.4114" lon="0.22385">
        <ele>596.13</ele>
        <time>2018-08-07T08:21:32Z</time>
      </trkpt>
      <trkpt lat="42.4116" lon="0.2238">
        <ele>597.9</ele>
        <time>2018-08-07T08:21:33Z</time>
      </trkpt>
      <trkpt lat="42.4118" lon="0.22374">
        <ele>598.43</ele>
        <time>2018-08-07T08:21:34Z</time>
      </trkpt>
      <trkpt lat="42.412" lon="0.22369">
        <ele>599.29</ele>
        <time>2018-08-07T08:21:35Z</time>
      </trkpt>
      <trkpt lat="42.41219" lon="0.22365">
        <ele>600.95</ele>
        <time>2018-08-07T08:21:36Z</time>
      </trkpt>
      <trkpt lat="42.41239" lon="0.22365">
        <ele>602.14</ele>
        <time>2018-08-07T08:21:37Z</time>
      </trkpt>
      <trkpt lat="42.41257" lon="0.22364">
        <ele>602.5</ele>
        <time>2018-08-07T08:21:38Z</time>
      </trkpt>
      <trkpt lat="42.41276" lon="0.22364">
        <ele>602.61</ele>
        <time>2018-08-07T08:21:39Z</time>
      </trkpt>
      <trkpt lat="42.41295" lon="0.22364">
        <ele>604.04</ele>
        <time>2018-08-07T08:21:40Z</time>
      </trkpt>
      <trkpt lat="42.41315" lon="0.22363">
        <ele>605.17</ele>
        <time>2018-08-07T08:21:41Z</time>
      </trkpt>
      <trkpt lat="42.41335" lon="0.22362">
        <ele>606.21</ele>
        <time>2018-08-07T08:21:42Z</time>
      </trkpt>
      <trkpt lat="42.41355" lon="0.22361">
        <ele>607.92</ele>
        <time>2018-08-07T08:21:43Z</time>
      </trkpt>
      <trkpt lat="42.41375" lon="0.22359">
        <ele>609.84</ele>
        <time>2018-08-07T08:21:44Z</time>
      </trkpt>
      <trkpt lat="42.41393" lon="0.22357">
        <ele>612.51</ele>
        <time>2018-08-07T08:21:45Z</time>
      </trkpt>
      <trkpt lat="42.41428" lon="0.22353">
        <ele>616.98</ele>
        <time>2018-08-07T08:21:47Z</time>
      </trkpt>
      <trkpt lat="42.41462" lon="0.22355">
        <ele>619.21</ele>
        <time>2018-08-07T08:21:49Z</time>
      </trkpt>
      <trkpt lat="42.41496" lon="0.22355">
        <ele>622.84</ele>
        <time>2018-08-07T08:21:51Z</time>
      </trkpt>
      <trkpt lat="42.41524" lon="0.22364">
        <ele>625.19</ele>
        <time>2018-08-07T08:21:53Z</time>
      </trkpt>
      <trkpt lat="42.41542" lon="0.2239">
        <ele>627.23</ele>
        <time>2018-08-07T08:21:55Z</time>
      </trkpt>
      <trkpt lat="42.41557" lon="0.2242">
        <ele>627.62</ele>
        <time>2018-08-07T08:21:57Z</time>
      </trkpt>
      <trkpt lat="42.4158" lon="0.22445">
        <ele>627.65</ele>
        <time>2018-08-07T08:21:59Z</time>
      </trkpt>
      <trkpt lat="42.41607" lon="0.22461">
        <ele>628.57</ele>
        <time>2018-08-07T08:22:01Z</time>
      </trkpt>
      <trkpt lat="42.41642" lon="0.22461">
        <ele>628.65</ele>
        <time>2018-08-07T08:22:03Z</time>
      </trkpt>
      <trkpt lat="42.41677" lon="0.22451">
        <ele>627.75</ele>
        <time>2018-08-07T08:22:05Z</time>
      </trkpt>
      <trkpt lat="42.41711" lon="0.22442">
        <ele>627.67</ele>
        <time>2018-08-07T08:22:07Z</time>
      </trkpt>
      <trkpt lat="42.41743" lon="0.22449">
        <ele>629.06</ele>
        <time>2018-08-07T08:22:09Z</time>
      </trkpt>
      <trkpt lat="42.4176" lon="0.22455">
        <ele>630.18</ele>
        <time>2018-08-07T08:22:10Z</time>
      </trkpt>
      <trkpt lat="42.41779" lon="0.22457">
        <ele>631.91</ele>
        <time>2018-08-07T08:22:11Z</time>
      </trkpt>
      <trkpt lat="42.41799" lon="0.22457">
        <ele>633.83</ele>
        <time>2018-08-07T08:22:12Z</time>
      </trkpt>
      <trkpt lat="42.41818" lon="0.22457">
        <ele>635.81</ele>
        <time>2018-08-07T08:22:13Z</time>
      </trkpt>
      <trkpt lat="42.41838" lon="0.22458">
        <ele>637.1</ele>
        <time>2018-08-07T08:22:14Z</time>
      </trkpt>
      <trkpt lat="42.41857" lon="0.22458">
        <ele>638.19</ele>
        <time>2018-08-07T08:22:15Z</time>
      </trkpt>
      <trkpt lat="42.41876" lon="0.22456">
        <ele>640.62</ele>
        <time>2018-08-07T08:22:16Z</time>
      </trkpt>
      <trkpt lat="42.41894" lon="0.22451">
        <ele>642.75</ele>
        <time>2018-08-07T08:22:17Z</time>
      </trkpt>
      <trkpt lat="42.41926" lon="0.22428">
        <ele>647.71</ele>
        <time>2018-08-07T08:22:19Z</time>
      </trkpt>
      <trkpt lat="42.41939" lon="0.22409">
        <ele>649.07</ele>
        <time>2018-08-07T08:22:20Z</time>
      </trkpt>
      <trkpt lat="42.41951" lon="0.22387">
        <ele>652.28</ele>
        <time>2018-08-07T08:22:21Z</time>
      </trkpt>
      <trkpt lat="42.41963" lon="0.22365">
        <ele>654.65</ele>
        <time>2018-08-07T08:22:22Z</time>
      </trkpt>
      <trkpt lat="42.41975" lon="0.22345">
        <ele>657.45</ele>
        <time>2018-08-07T08:22:23Z</time>
      </trkpt>
      <trkpt lat="42.41986" lon="0.22326">
        <ele>659.7</ele>
        <time>2018-08-07T08:22:24Z</time>
      </trkpt>
      <trkpt lat="42.42008" lon="0.2229">
        <ele>660.57</ele>
        <time>2018-08-07T08:22:26Z</time>
      </trkpt>
      <trkpt lat="42.42033" lon="0.2226">
        <ele>659.95</ele>
        <time>2018-08-07T08:22:28Z</time>
      </trkpt>
      <trkpt lat="42.42056" lon="0.22229">
        <ele>660.38</ele>
        <time>2018-08-07T08:22:30Z</time>
      </trkpt>
      <trkpt lat="42.42069" lon="0.22198">
        <ele>659.93</ele>
        <time>2018-08-07T08:22:32Z</time>
      </trkpt>
      <trkpt lat="42.42084" lon="0.22174">
        <ele>658.77</ele>
        <time>2018-08-07T08:22:34Z</time>
      </trkpt>
      <trkpt lat="42.42097" lon="0.22148">
        <ele>658.67</ele>
        <time>2018-08-07T08:22:36Z</time>
      </trkpt>
      <trkpt lat="42.42109" lon="0.22126">
        <ele>657.75</ele>
        <time>2018-08-07T08:22:38Z</time>
      </trkpt>
      <trkpt lat="42.42125" lon="0.22106">
        <ele>658.58</ele>
        <time>2018-08-07T08:22:40Z</time>
      </trkpt>
      <trkpt lat="42.42148" lon="0.2209">
        <ele>657.74</ele>
        <time>2018-08-07T08:22:42Z</time>
      </trkpt>
      <trkpt lat="42.42176" lon="0.22086">
        <ele>657.67</ele>
        <time>2018-08-07T08:22:44Z</time>
      </trkpt>
      <trkpt lat="42.42206" lon="0.22086">
        <ele>654.44</ele>
        <time>2018-08-07T08:22:46Z</time>
      </trkpt>
      <trkpt lat="42.42234" lon="0.22083">
        <ele>652.12</ele>
        <time>2018-08-07T08:22:48Z</time>
      </trkpt>
      <trkpt lat="42.42256" lon="0.22094">
        <ele>650.79</ele>
        <time>2018-08-07T08:22:50Z</time>
      </trkpt>
      <trkpt lat="42.42275" lon="0.22116">
        <ele>649.76</ele>
        <time>2018-08-07T08:22:52Z</time>
      </trkpt>
      <trkpt lat="42.42294" lon="0.22145">
        <ele>648.27</ele>
        <time>2018-08-07T08:22:54Z</time>
      </trkpt>
      <trkpt lat="42.42324" lon="0.22151">
        <ele>646.8</ele>
        <time>2018-08-07T08:22:56Z</time>
      </trkpt>
      <trkpt lat="42.42358" lon="0.22151">
        <ele>644.36</ele>
        <time>2018-08-07T08:22:58Z</time>
      </trkpt>
      <trkpt lat="42.42393" lon="0.22146">
        <ele>642.11</ele>
        <time>2018-08-07T08:23:00Z</time>
      </trkpt>
      <trkpt lat="42.42411" lon="0.22139">
        <ele>641.09</ele>
        <time>2018-08-07T08:23:01Z</time>
      </trkpt>
      <trkpt lat="42.42442" lon="0.22121">
        <ele>640.7</ele>
        <time>2018-08-07T08:23:03Z</time>
      </trkpt>
      <trkpt lat="42.42475" lon="0.22105">
        <ele>639.75</ele>
        <time>2018-08-07T08:23:05Z</time>
      </trkpt>
      <trkpt lat="42.42507" lon="0.22092">
        <ele>639.67</ele>
        <time>2018-08-07T08:23:07Z</time>
      </trkpt>
      <trkpt lat="42.42538" lon="0.22082">
        <ele>637.84</ele>
        <time>2018-08-07T08:23:09Z</time>
      </trkpt>
      <trkpt lat="42.42572" lon="0.22086">
        <ele>637.67</ele>
        <time>2018-08-07T08:23:11Z</time>
      </trkpt>
      <trkpt lat="42.42587" lon="0.22099">
        <ele>638.36</ele>
        <time>2018-08-07T08:23:12Z</time>
      </trkpt>
      <trkpt lat="42.42617" lon="0.2211">
        <ele>639.54</ele>
        <time>2018-08-07T08:23:14Z</time>
      </trkpt>
      <trkpt lat="42.42645" lon="0.22119">
        <ele>640.35</ele>
        <time>2018-08-07T08:23:16Z</time>
      </trkpt>
      <trkpt lat="42.4266" lon="0.221">
        <ele>639.72</ele>
        <time>2018-08-07T08:23:18Z</time>
      </trkpt>
      <trkpt lat="42.42685" lon="0.22083">
        <ele>638.69</ele>
        <time>2018-08-07T08:23:21Z</time>
      </trkpt>
      <trkpt lat="42.42709" lon="0.22077">
        <ele>638.66</ele>
        <time>2018-08-07T08:23:23Z</time>
      </trkpt>
      <trkpt lat="42.42741" lon="0.22072">
        <ele>637.26</ele>
        <time>2018-08-07T08:23:25Z</time>
      </trkpt>
      <trkpt lat="42.42775" lon="0.22057">
        <ele>637.62</ele>
        <time>2018-08-07T08:23:27Z</time>
      </trkpt>
      <trkpt lat="42.42792" lon="0.22047">
        <ele>637.65</ele>
        <time>2018-08-07T08:23:28Z</time>
      </trkpt>
      <trkpt lat="42.4281" lon="0.22035">
        <ele>638.35</ele>
        <time>2018-08-07T08:23:29Z</time>
      </trkpt>
      <trkpt lat="42.42828" lon="0.22023">
        <ele>638.57</ele>
        <time>2018-08-07T08:23:30Z</time>
      </trkpt>
      <trkpt lat="42.42845" lon="0.22011">
        <ele>638.63</ele>
        <time>2018-08-07T08:23:31Z</time>
      </trkpt>
      <trkpt lat="42.42863" lon="0.21998">
        <ele>638.65</ele>
        <time>2018-08-07T08:23:32Z</time>
      </trkpt>
      <trkpt lat="42.4288" lon="0.21984">
        <ele>638.66</ele>
        <time>2018-08-07T08:23:33Z</time>
      </trkpt>
      <trkpt lat="42.42896" lon="0.21971">
        <ele>638.66</ele>
        <time>2018-08-07T08:23:34Z</time>
      </trkpt>
      <trkpt lat="42.42911" lon="0.21958">
        <ele>639.36</ele>
        <time>2018-08-07T08:23:35Z</time>
      </trkpt>
      <trkpt lat="42.4294" lon="0.21938">
        <ele>641.24</ele>
        <time>2018-08-07T08:23:37Z</time>
      </trkpt>
      <trkpt lat="42.42972" lon="0.21937">
        <ele>642.32</ele>
        <time>2018-08-07T08:23:39Z</time>
      </trkpt>
      <trkpt lat="42.43" lon="0.21924">
        <ele>644.24</ele>
        <time>2018-08-07T08:23:41Z</time>
      </trkpt>
      <trkpt lat="42.43018" lon="0.21894">
        <ele>648.75</ele>
        <time>2018-08-07T08:23:43Z</time>
      </trkpt>
      <trkpt lat="42.43042" lon="0.21875">
        <ele>649.09</ele>
        <time>2018-08-07T08:23:45Z</time>
      </trkpt>
      <trkpt lat="42.43066" lon="0.21855">
        <ele>649.61</ele>
        <time>2018-08-07T08:23:47Z</time>
      </trkpt>
      <trkpt lat="42.43087" lon="0.21824">
        <ele>651.26</ele>
        <time>2018-08-07T08:23:49Z</time>
      </trkpt>
      <trkpt lat="42.43094" lon="0.2178">
        <ele>654.14</ele>
        <time>2018-08-07T08:23:51Z</time>
      </trkpt>
      <trkpt lat="42.4311" lon="0.21745">
        <ele>656.92</ele>
        <time>2018-08-07T08:23:53Z</time>
      </trkpt>
      <trkpt lat="42.43135" lon="0.21712">
        <ele>659.2</ele>
        <time>2018-08-07T08:23:55Z</time>
      </trkpt>
      <trkpt lat="42.43161" lon="0.21679">
        <ele>660.53</ele>
        <time>2018-08-07T08:23:57Z</time>
      </trkpt>
      <trkpt lat="42.43181" lon="0.2166">
        <ele>660.65</ele>
        <time>2018-08-07T08:23:59Z</time>
      </trkpt>
      <trkpt lat="42.43204" lon="0.21665">
        <ele>660.45</ele>
        <time>2018-08-07T08:24:01Z</time>
      </trkpt>
      <trkpt lat="42.43225" lon="0.2167">
        <ele>659.94</ele>
        <time>2018-08-07T08:24:03Z</time>
      </trkpt>
      <trkpt lat="42.43243" lon="0.2166">
        <ele>658.97</ele>
        <time>2018-08-07T08:24:06Z</time>
      </trkpt>
      <trkpt lat="42.43247" lon="0.21623">
        <ele>659.39</ele>
        <time>2018-08-07T08:24:08Z</time>
      </trkpt>
      <trkpt lat="42.43263" lon="0.21595">
        <ele>659.63</ele>
        <time>2018-08-07T08:24:10Z</time>
      </trkpt>
      <trkpt lat="42.43285" lon="0.21573">
        <ele>662.18</ele>
        <time>2018-08-07T08:24:12Z</time>
      </trkpt>
      <trkpt lat="42.43304" lon="0.21549">
        <ele>662.82</ele>
        <time>2018-08-07T08:24:14Z</time>
      </trkpt>
      <trkpt lat="42.43324" lon="0.21522">
        <ele>665.19</ele>
        <time>2018-08-07T08:24:16Z</time>
      </trkpt>
      <trkpt lat="42.4334" lon="0.21493">
        <ele>667.93</ele>
        <time>2018-08-07T08:24:18Z</time>
      </trkpt>
      <trkpt lat="42.43354" lon="0.21469">
        <ele>670.9</ele>
        <time>2018-08-07T08:24:20Z</time>
      </trkpt>
      <trkpt lat="42.43371" lon="0.2145">
        <ele>673.9</ele>
        <time>2018-08-07T08:24:22Z</time>
      </trkpt>
      <trkpt lat="42.43394" lon="0.21432">
        <ele>676.2</ele>
        <time>2018-08-07T08:24:24Z</time>
      </trkpt>
      <trkpt lat="42.43415" lon="0.21404">
        <ele>678.23</ele>
        <time>2018-08-07T08:24:26Z</time>
      </trkpt>
      <trkpt lat="42.43439" lon="0.21378">
        <ele>679.53</ele>
        <time>2018-08-07T08:24:28Z</time>
      </trkpt>
      <trkpt lat="42.43464" lon="0.2136">
        <ele>679.65</ele>
        <time>2018-08-07T08:24:30Z</time>
      </trkpt>
      <trkpt lat="42.43484" lon="0.21342">
        <ele>679.66</ele>
        <time>2018-08-07T08:24:32Z</time>
      </trkpt>
      <trkpt lat="42.43504" lon="0.21328">
        <ele>678.75</ele>
        <time>2018-08-07T08:24:34Z</time>
      </trkpt>
      <trkpt lat="42.4353" lon="0.21327">
        <ele>677.76</ele>
        <time>2018-08-07T08:24:36Z</time>
      </trkpt>
      <trkpt lat="42.43558" lon="0.21321">
        <ele>676.06</ele>
        <time>2018-08-07T08:24:38Z</time>
      </trkpt>
      <trkpt lat="42.43583" lon="0.213">
        <ele>675.69</ele>
        <time>2018-08-07T08:24:40Z</time>
      </trkpt>
      <trkpt lat="42.436" lon="0.21268">
        <ele>675.66</ele>
        <time>2018-08-07T08:24:42Z</time>
      </trkpt>
      <trkpt lat="42.43612" lon="0.21234">
        <ele>674.96</ele>
        <time>2018-08-07T08:24:44Z</time>
      </trkpt>
      <trkpt lat="42.43629" lon="0.21215">
        <ele>673.78</ele>
        <time>2018-08-07T08:24:46Z</time>
      </trkpt>
      <trkpt lat="42.43654" lon="0.21211">
        <ele>672.97</ele>
        <time>2018-08-07T08:24:48Z</time>
      </trkpt>
      <trkpt lat="42.43679" lon="0.21222">
        <ele>675</ele>
        <time>2018-08-07T08:24:50Z</time>
      </trkpt>
      <trkpt lat="42.43702" lon="0.2124">
        <ele>678.12</ele>
        <time>2018-08-07T08:24:52Z</time>
      </trkpt>
      <trkpt lat="42.43728" lon="0.21242">
        <ele>680.22</ele>
        <time>2018-08-07T08:24:54Z</time>
      </trkpt>
      <trkpt lat="42.43754" lon="0.21244">
        <ele>683.14</ele>
        <time>2018-08-07T08:24:56Z</time>
      </trkpt>
      <trkpt lat="42.43775" lon="0.21241">
        <ele>686.83</ele>
        <time>2018-08-07T08:24:58Z</time>
      </trkpt>
      <trkpt lat="42.43793" lon="0.21218">
        <ele>688.28</ele>
        <time>2018-08-07T08:25:00Z</time>
      </trkpt>
      <trkpt lat="42.43815" lon="0.21191">
        <ele>690.23</ele>
        <time>2018-08-07T08:25:02Z</time>
      </trkpt>
      <trkpt lat="42.43842" lon="0.21172">
        <ele>692.23</ele>
        <time>2018-08-07T08:25:04Z</time>
      </trkpt>
      <trkpt lat="42.43868" lon="0.2116">
        <ele>694.44</ele>
        <time>2018-08-07T08:25:06Z</time>
      </trkpt>
      <trkpt lat="42.43894" lon="0.21155">
        <ele>696.04</ele>
        <time>2018-08-07T08:25:08Z</time>
      </trkpt>
      <trkpt lat="42.43921" lon="0.21155">
        <ele>697.3</ele>
        <time>2018-08-07T08:25:10Z</time>
      </trkpt>
      <trkpt lat="42.43949" lon="0.21162">
        <ele>698.33</ele>
        <time>2018-08-07T08:25:12Z</time>
      </trkpt>
      <trkpt lat="42.43977" lon="0.21173">
        <ele>698.63</ele>
        <time>2018-08-07T08:25:14Z</time>
      </trkpt>
      <trkpt lat="42.44004" lon="0.21184">
        <ele>699.57</ele>
        <time>2018-08-07T08:25:16Z</time>
      </trkpt>
      <trkpt lat="42.44021" lon="0.21203">
        <ele>701.05</ele>
        <time>2018-08-07T08:25:18Z</time>
      </trkpt>
      <trkpt lat="42.44034" lon="0.21225">
        <ele>701.6</ele>
        <time>2018-08-07T08:25:20Z</time>
      </trkpt>
      <trkpt lat="42.4405" lon="0.21236">
        <ele>702.56</ele>
        <time>2018-08-07T08:25:22Z</time>
      </trkpt>
      <trkpt lat="42.44079" lon="0.21226">
        <ele>703.56</ele>
        <time>2018-08-07T08:25:24Z</time>
      </trkpt>
      <trkpt lat="42.44103" lon="0.2123">
        <ele>704.56</ele>
        <time>2018-08-07T08:25:26Z</time>
      </trkpt>
      <trkpt lat="42.44126" lon="0.21219">
        <ele>706.26</ele>
        <time>2018-08-07T08:25:28Z</time>
      </trkpt>
      <trkpt lat="42.44142" lon="0.21191">
        <ele>708.23</ele>
        <time>2018-08-07T08:25:30Z</time>
      </trkpt>
      <trkpt lat="42.44157" lon="0.21155">
        <ele>710.93</ele>
        <time>2018-08-07T08:25:32Z</time>
      </trkpt>
      <trkpt lat="42.44164" lon="0.21122">
        <ele>714.11</ele>
        <time>2018-08-07T08:25:34Z</time>
      </trkpt>
      <trkpt lat="42.44157" lon="0.21084">
        <ele>716.22</ele>
        <time>2018-08-07T08:25:36Z</time>
      </trkpt>
      <trkpt lat="42.44149" lon="0.21045">
        <ele>717.53</ele>
        <time>2018-08-07T08:25:38Z</time>
      </trkpt>
      <trkpt lat="42.44154" lon="0.21005">
        <ele>720.66</ele>
        <time>2018-08-07T08:25:40Z</time>
      </trkpt>
      <trkpt lat="42.4417" lon="0.2097">
        <ele>724.09</ele>
        <time>2018-08-07T08:25:42Z</time>
      </trkpt>
      <trkpt lat="42.44189" lon="0.2094">
        <ele>727.13</ele>
        <time>2018-08-07T08:25:44Z</time>
      </trkpt>
      <trkpt lat="42.44201" lon="0.20903">
        <ele>729.43</ele>
        <time>2018-08-07T08:25:46Z</time>
      </trkpt>
      <trkpt lat="42.44226" lon="0.20882">
        <ele>731.95</ele>
        <time>2018-08-07T08:25:48Z</time>
      </trkpt>
      <trkpt lat="42.44255" lon="0.20863">
        <ele>734.2</ele>
        <time>2018-08-07T08:25:50Z</time>
      </trkpt>
      <trkpt lat="42.4428" lon="0.20843">
        <ele>736.23</ele>
        <time>2018-08-07T08:25:52Z</time>
      </trkpt>
      <trkpt lat="42.443" lon="0.2081">
        <ele>737.32</ele>
        <time>2018-08-07T08:25:54Z</time>
      </trkpt>
      <trkpt lat="42.44325" lon="0.20777">
        <ele>739.24</ele>
        <time>2018-08-07T08:25:56Z</time>
      </trkpt>
      <trkpt lat="42.44351" lon="0.20755">
        <ele>740.53</ele>
        <time>2018-08-07T08:25:58Z</time>
      </trkpt>
      <trkpt lat="42.44377" lon="0.20746">
        <ele>741.56</ele>
        <time>2018-08-07T08:26:00Z</time>
      </trkpt>
      <trkpt lat="42.44393" lon="0.20767">
        <ele>742.33</ele>
        <time>2018-08-07T08:26:01Z</time>
      </trkpt>
      <trkpt lat="42.4442" lon="0.20771">
        <ele>744.03</ele>
        <time>2018-08-07T08:26:03Z</time>
      </trkpt>
      <trkpt lat="42.44449" lon="0.20755">
        <ele>745.51</ele>
        <time>2018-08-07T08:26:05Z</time>
      </trkpt>
      <trkpt lat="42.44478" lon="0.20733">
        <ele>747.25</ele>
        <time>2018-08-07T08:26:07Z</time>
      </trkpt>
      <trkpt lat="42.44511" lon="0.20721">
        <ele>749.23</ele>
        <time>2018-08-07T08:26:09Z</time>
      </trkpt>
      <trkpt lat="42.44529" lon="0.20722">
        <ele>750.93</ele>
        <time>2018-08-07T08:26:10Z</time>
      </trkpt>
      <trkpt lat="42.44547" lon="0.20723">
        <ele>752.84</ele>
        <time>2018-08-07T08:26:11Z</time>
      </trkpt>
      <trkpt lat="42.44581" lon="0.20728">
        <ele>756.8</ele>
        <time>2018-08-07T08:26:13Z</time>
      </trkpt>
      <trkpt lat="42.44613" lon="0.20733">
        <ele>760.1</ele>
        <time>2018-08-07T08:26:15Z</time>
      </trkpt>
      <trkpt lat="42.44648" lon="0.20726">
        <ele>764.04</ele>
        <time>2018-08-07T08:26:17Z</time>
      </trkpt>
      <trkpt lat="42.44666" lon="0.20722">
        <ele>765.17</ele>
        <time>2018-08-07T08:26:18Z</time>
      </trkpt>
      <trkpt lat="42.44684" lon="0.2072">
        <ele>766.21</ele>
        <time>2018-08-07T08:26:19Z</time>
      </trkpt>
      <trkpt lat="42.44718" lon="0.20715">
        <ele>769.84</ele>
        <time>2018-08-07T08:26:21Z</time>
      </trkpt>
      <trkpt lat="42.4475" lon="0.20696">
        <ele>773.8</ele>
        <time>2018-08-07T08:26:23Z</time>
      </trkpt>
      <trkpt lat="42.44765" lon="0.20684">
        <ele>775.8</ele>
        <time>2018-08-07T08:26:24Z</time>
      </trkpt>
      <trkpt lat="42.44797" lon="0.20666">
        <ele>779.1</ele>
        <time>2018-08-07T08:26:26Z</time>
      </trkpt>
      <trkpt lat="42.44823" lon="0.20656">
        <ele>780.52</ele>
        <time>2018-08-07T08:26:28Z</time>
      </trkpt>
      <trkpt lat="42.44846" lon="0.20649">
        <ele>783.24</ele>
        <time>2018-08-07T08:26:31Z</time>
      </trkpt>
      <trkpt lat="42.44864" lon="0.20638">
        <ele>786.23</ele>
        <time>2018-08-07T08:26:34Z</time>
      </trkpt>
      <trkpt lat="42.44886" lon="0.20619">
        <ele>789.23</ele>
        <time>2018-08-07T08:26:37Z</time>
      </trkpt>
      <trkpt lat="42.44904" lon="0.20608">
        <ele>790.53</ele>
        <time>2018-08-07T08:26:39Z</time>
      </trkpt>
      <trkpt lat="42.44919" lon="0.20592">
        <ele>792.26</ele>
        <time>2018-08-07T08:26:41Z</time>
      </trkpt>
      <trkpt lat="42.44931" lon="0.20572">
        <ele>794.23</ele>
        <time>2018-08-07T08:26:43Z</time>
      </trkpt>
      <trkpt lat="42.44947" lon="0.2055">
        <ele>797.23</ele>
        <time>2018-08-07T08:26:46Z</time>
      </trkpt>
      <trkpt lat="42.44966" lon="0.20534">
        <ele>799.26</ele>
        <time>2018-08-07T08:26:49Z</time>
      </trkpt>
      <trkpt lat="42.44984" lon="0.20509">
        <ele>802.23</ele>
        <time>2018-08-07T08:26:52Z</time>
      </trkpt>
      <trkpt lat="42.44997" lon="0.20492">
        <ele>804.23</ele>
        <time>2018-08-07T08:26:54Z</time>
      </trkpt>
      <trkpt lat="42.45016" lon="0.20469">
        <ele>806.47</ele>
        <time>2018-08-07T08:26:57Z</time>
      </trkpt>
      <trkpt lat="42.45033" lon="0.20447">
        <ele>808.26</ele>
        <time>2018-08-07T08:27:00Z</time>
      </trkpt>
      <trkpt lat="42.45042" lon="0.2042">
        <ele>809.35</ele>
        <time>2018-08-07T08:27:03Z</time>
      </trkpt>
      <trkpt lat="42.45045" lon="0.20387">
        <ele>809.65</ele>
        <time>2018-08-07T08:27:06Z</time>
      </trkpt>
      <trkpt lat="42.45049" lon="0.20357">
        <ele>812.24</ele>
        <time>2018-08-07T08:27:09Z</time>
      </trkpt>
      <trkpt lat="42.45064" lon="0.20333">
        <ele>815.96</ele>
        <time>2018-08-07T08:27:13Z</time>
      </trkpt>
      <trkpt lat="42.45074" lon="0.20307">
        <ele>819.32</ele>
        <time>2018-08-07T08:27:17Z</time>
      </trkpt>
      <trkpt lat="42.45096" lon="0.2031">
        <ele>820.36</ele>
        <time>2018-08-07T08:27:22Z</time>
      </trkpt>
      <trkpt lat="42.45116" lon="0.20321">
        <ele>822.32</ele>
        <time>2018-08-07T08:27:25Z</time>
      </trkpt>
      <trkpt lat="42.4514" lon="0.20335">
        <ele>823.35</ele>
        <time>2018-08-07T08:27:28Z</time>
      </trkpt>
      <trkpt lat="42.45157" lon="0.20349">
        <ele>824.54</ele>
        <time>2018-08-07T08:27:30Z</time>
      </trkpt>
      <trkpt lat="42.4518" lon="0.20363">
        <ele>826.05</ele>
        <time>2018-08-07T08:27:33Z</time>
      </trkpt>
      <trkpt lat="42.45203" lon="0.20366">
        <ele>830.83</ele>
        <time>2018-08-07T08:27:36Z</time>
      </trkpt>
      <trkpt lat="42.45224" lon="0.20355">
        <ele>833.89</ele>
        <time>2018-08-07T08:27:38Z</time>
      </trkpt>
      <trkpt lat="42.45242" lon="0.20339">
        <ele>835.29</ele>
        <time>2018-08-07T08:27:40Z</time>
      </trkpt>
      <trkpt lat="42.45262" lon="0.2033">
        <ele>836.32</ele>
        <time>2018-08-07T08:27:42Z</time>
      </trkpt>
      <trkpt lat="42.45285" lon="0.20348">
        <ele>839.23</ele>
        <time>2018-08-07T08:27:45Z</time>
      </trkpt>
      <trkpt lat="42.4529" lon="0.20382">
        <ele>843.2</ele>
        <time>2018-08-07T08:27:48Z</time>
      </trkpt>
      <trkpt lat="42.45278" lon="0.20401">
        <ele>845.23</ele>
        <time>2018-08-07T08:27:50Z</time>
      </trkpt>
      <trkpt lat="42.45269" lon="0.20429">
        <ele>847.23</ele>
        <time>2018-08-07T08:27:52Z</time>
      </trkpt>
      <trkpt lat="42.45269" lon="0.2046">
        <ele>847.62</ele>
        <time>2018-08-07T08:27:54Z</time>
      </trkpt>
      <trkpt lat="42.45279" lon="0.20489">
        <ele>847.86</ele>
        <time>2018-08-07T08:27:56Z</time>
      </trkpt>
      <trkpt lat="42.45296" lon="0.20514">
        <ele>850.9</ele>
        <time>2018-08-07T08:27:58Z</time>
      </trkpt>
      <trkpt lat="42.45309" lon="0.20545">
        <ele>853.69</ele>
        <time>2018-08-07T08:28:00Z</time>
      </trkpt>
      <trkpt lat="42.45318" lon="0.20581">
        <ele>858</ele>
        <time>2018-08-07T08:28:02Z</time>
      </trkpt>
      <trkpt lat="42.45315" lon="0.20615">
        <ele>860.21</ele>
        <time>2018-08-07T08:28:04Z</time>
      </trkpt>
      <trkpt lat="42.45304" lon="0.20642">
        <ele>863.14</ele>
        <time>2018-08-07T08:28:06Z</time>
      </trkpt>
      <trkpt lat="42.45295" lon="0.20667">
        <ele>864.52</ele>
        <time>2018-08-07T08:28:08Z</time>
      </trkpt>
      <trkpt lat="42.45311" lon="0.20694">
        <ele>869.12</ele>
        <time>2018-08-07T08:28:11Z</time>
      </trkpt>
      <trkpt lat="42.45325" lon="0.20709">
        <ele>870.31</ele>
        <time>2018-08-07T08:28:13Z</time>
      </trkpt>
      <trkpt lat="42.45344" lon="0.20711">
        <ele>872.45</ele>
        <time>2018-08-07T08:28:15Z</time>
      </trkpt>
      <trkpt lat="42.45359" lon="0.20695">
        <ele>874.25</ele>
        <time>2018-08-07T08:28:17Z</time>
      </trkpt>
      <trkpt lat="42.4537" lon="0.20672">
        <ele>876.44</ele>
        <time>2018-08-07T08:28:19Z</time>
      </trkpt>
      <trkpt lat="42.45393" lon="0.2067">
        <ele>879.24</ele>
        <time>2018-08-07T08:28:22Z</time>
      </trkpt>
      <trkpt lat="42.4541" lon="0.20694">
        <ele>879.65</ele>
        <time>2018-08-07T08:28:25Z</time>
      </trkpt>
      <trkpt lat="42.45421" lon="0.20724">
        <ele>879.87</ele>
        <time>2018-08-07T08:28:27Z</time>
      </trkpt>
      <trkpt lat="42.45433" lon="0.20743">
        <ele>881.08</ele>
        <time>2018-08-07T08:28:29Z</time>
      </trkpt>
      <trkpt lat="42.45454" lon="0.20742">
        <ele>882.62</ele>
        <time>2018-08-07T08:28:32Z</time>
      </trkpt>
      <trkpt lat="42.45448" lon="0.20703">
        <ele>884.33</ele>
        <time>2018-08-07T08:28:35Z</time>
      </trkpt>
      <trkpt lat="42.45444" lon="0.20674">
        <ele>885.54</ele>
        <time>2018-08-07T08:28:37Z</time>
      </trkpt>
      <trkpt lat="42.45462" lon="0.20652">
        <ele>888.73</ele>
        <time>2018-08-07T08:28:40Z</time>
      </trkpt>
      <trkpt lat="42.45483" lon="0.20652">
        <ele>892.79</ele>
        <time>2018-08-07T08:28:42Z</time>
      </trkpt>
      <trkpt lat="42.45503" lon="0.20667">
        <ele>895.89</ele>
        <time>2018-08-07T08:28:44Z</time>
      </trkpt>
      <trkpt lat="42.45524" lon="0.20688">
        <ele>898.2</ele>
        <time>2018-08-07T08:28:46Z</time>
      </trkpt>
      <trkpt lat="42.45548" lon="0.20713">
        <ele>900.02</ele>
        <time>2018-08-07T08:28:48Z</time>
      </trkpt>
      <trkpt lat="42.45574" lon="0.20739">
        <ele>902.21</ele>
        <time>2018-08-07T08:28:50Z</time>
      </trkpt>
      <trkpt lat="42.456" lon="0.20763">
        <ele>903.53</ele>
        <time>2018-08-07T08:28:52Z</time>
      </trkpt>
      <trkpt lat="42.45623" lon="0.20787">
        <ele>905.26</ele>
        <time>2018-08-07T08:28:54Z</time>
      </trkpt>
      <trkpt lat="42.4564" lon="0.20813">
        <ele>906.53</ele>
        <time>2018-08-07T08:28:56Z</time>
      </trkpt>
      <trkpt lat="42.45639" lon="0.2084">
        <ele>905.95</ele>
        <time>2018-08-07T08:28:58Z</time>
      </trkpt>
      <trkpt lat="42.45622" lon="0.20859">
        <ele>906.17</ele>
        <time>2018-08-07T08:29:00Z</time>
      </trkpt>
      <trkpt lat="42.456" lon="0.20875">
        <ele>908.22</ele>
        <time>2018-08-07T08:29:02Z</time>
      </trkpt>
      <trkpt lat="42.45572" lon="0.20887">
        <ele>912.75</ele>
        <time>2018-08-07T08:29:04Z</time>
      </trkpt>
      <trkpt lat="42.45544" lon="0.20896">
        <ele>916.1</ele>
        <time>2018-08-07T08:29:06Z</time>
      </trkpt>
      <trkpt lat="42.45519" lon="0.20909">
        <ele>919.34</ele>
        <time>2018-08-07T08:29:08Z</time>
      </trkpt>
      <trkpt lat="42.45496" lon="0.20927">
        <ele>921.24</ele>
        <time>2018-08-07T08:29:10Z</time>
      </trkpt>
      <trkpt lat="42.45472" lon="0.20949">
        <ele>924.14</ele>
        <time>2018-08-07T08:29:12Z</time>
      </trkpt>
      <trkpt lat="42.45447" lon="0.20971">
        <ele>927.83</ele>
        <time>2018-08-07T08:29:14Z</time>
      </trkpt>
      <trkpt lat="42.45422" lon="0.20996">
        <ele>930.89</ele>
        <time>2018-08-07T08:29:16Z</time>
      </trkpt>
      <trkpt lat="42.45396" lon="0.2102">
        <ele>934.11</ele>
        <time>2018-08-07T08:29:18Z</time>
      </trkpt>
      <trkpt lat="42.45371" lon="0.21039">
        <ele>936.22</ele>
        <time>2018-08-07T08:29:20Z</time>
      </trkpt>
      <trkpt lat="42.45356" lon="0.21056">
        <ele>937.53</ele>
        <time>2018-08-07T08:29:22Z</time>
      </trkpt>
      <trkpt lat="42.45354" lon="0.21081">
        <ele>938.56</ele>
        <time>2018-08-07T08:29:25Z</time>
      </trkpt>
      <trkpt lat="42.45354" lon="0.21117">
        <ele>941.24</ele>
        <time>2018-08-07T08:29:28Z</time>
      </trkpt>
      <trkpt lat="42.45352" lon="0.21146">
        <ele>944.14</ele>
        <time>2018-08-07T08:29:30Z</time>
      </trkpt>
      <trkpt lat="42.45352" lon="0.21177">
        <ele>946.22</ele>
        <time>2018-08-07T08:29:32Z</time>
      </trkpt>
      <trkpt lat="42.45355" lon="0.21206">
        <ele>949.14</ele>
        <time>2018-08-07T08:29:34Z</time>
      </trkpt>
      <trkpt lat="42.45366" lon="0.21235">
        <ele>951.22</ele>
        <time>2018-08-07T08:29:36Z</time>
      </trkpt>
      <trkpt lat="42.45382" lon="0.21256">
        <ele>953.23</ele>
        <time>2018-08-07T08:29:38Z</time>
      </trkpt>
      <trkpt lat="42.45403" lon="0.21268">
        <ele>955.23</ele>
        <time>2018-08-07T08:29:40Z</time>
      </trkpt>
      <trkpt lat="42.45422" lon="0.21272">
        <ele>955.62</ele>
        <time>2018-08-07T08:29:42Z</time>
      </trkpt>
      <trkpt lat="42.45441" lon="0.21269">
        <ele>956.35</ele>
        <time>2018-08-07T08:29:44Z</time>
      </trkpt>
      <trkpt lat="42.4546" lon="0.21264">
        <ele>958.24</ele>
        <time>2018-08-07T08:29:46Z</time>
      </trkpt>
      <trkpt lat="42.45481" lon="0.21261">
        <ele>960.23</ele>
        <time>2018-08-07T08:29:48Z</time>
      </trkpt>
      <trkpt lat="42.45503" lon="0.2126">
        <ele>962.23</ele>
        <time>2018-08-07T08:29:50Z</time>
      </trkpt>
      <trkpt lat="42.45526" lon="0.2126">
        <ele>963.53</ele>
        <time>2018-08-07T08:29:52Z</time>
      </trkpt>
      <trkpt lat="42.4555" lon="0.21263">
        <ele>963.65</ele>
        <time>2018-08-07T08:29:54Z</time>
      </trkpt>
      <trkpt lat="42.45575" lon="0.21268">
        <ele>964.36</ele>
        <time>2018-08-07T08:29:56Z</time>
      </trkpt>
      <trkpt lat="42.456" lon="0.21272">
        <ele>965.33</ele>
        <time>2018-08-07T08:29:58Z</time>
      </trkpt>
      <trkpt lat="42.45622" lon="0.21278">
        <ele>965.63</ele>
        <time>2018-08-07T08:30:00Z</time>
      </trkpt>
      <trkpt lat="42.45642" lon="0.21271">
        <ele>964.75</ele>
        <time>2018-08-07T08:30:02Z</time>
      </trkpt>
      <trkpt lat="42.45662" lon="0.21254">
        <ele>965.37</ele>
        <time>2018-08-07T08:30:04Z</time>
      </trkpt>
      <trkpt lat="42.45683" lon="0.21232">
        <ele>967.24</ele>
        <time>2018-08-07T08:30:06Z</time>
      </trkpt>
      <trkpt lat="42.45705" lon="0.21217">
        <ele>967.13</ele>
        <time>2018-08-07T08:30:08Z</time>
      </trkpt>
      <trkpt lat="42.45731" lon="0.21213">
        <ele>965.79</ele>
        <time>2018-08-07T08:30:10Z</time>
      </trkpt>
      <trkpt lat="42.45755" lon="0.21223">
        <ele>967.07</ele>
        <time>2018-08-07T08:30:12Z</time>
      </trkpt>
      <trkpt lat="42.45776" lon="0.21241">
        <ele>968.31</ele>
        <time>2018-08-07T08:30:14Z</time>
      </trkpt>
      <trkpt lat="42.45799" lon="0.21254">
        <ele>968.63</ele>
        <time>2018-08-07T08:30:16Z</time>
      </trkpt>
      <trkpt lat="42.45823" lon="0.21263">
        <ele>968.45</ele>
        <time>2018-08-07T08:30:18Z</time>
      </trkpt>
      <trkpt lat="42.45844" lon="0.21275">
        <ele>971.16</ele>
        <time>2018-08-07T08:30:20Z</time>
      </trkpt>
      <trkpt lat="42.45857" lon="0.21302">
        <ele>973.22</ele>
        <time>2018-08-07T08:30:22Z</time>
      </trkpt>
      <trkpt lat="42.45871" lon="0.21332">
        <ele>974.81</ele>
        <time>2018-08-07T08:30:24Z</time>
      </trkpt>
      <trkpt lat="42.45884" lon="0.21364">
        <ele>978.1</ele>
        <time>2018-08-07T08:30:26Z</time>
      </trkpt>
      <trkpt lat="42.45896" lon="0.21396">
        <ele>980.22</ele>
        <time>2018-08-07T08:30:28Z</time>
      </trkpt>
      <trkpt lat="42.45904" lon="0.2142">
        <ele>983.14</ele>
        <time>2018-08-07T08:30:30Z</time>
      </trkpt>
      <trkpt lat="42.45927" lon="0.21424">
        <ele>984.62</ele>
        <time>2018-08-07T08:30:33Z</time>
      </trkpt>
      <trkpt lat="42.45944" lon="0.21409">
        <ele>985.56</ele>
        <time>2018-08-07T08:30:35Z</time>
      </trkpt>
      <trkpt lat="42.45967" lon="0.21391">
        <ele>986.35</ele>
        <time>2018-08-07T08:30:37Z</time>
      </trkpt>
      <trkpt lat="42.45992" lon="0.21372">
        <ele>987.33</ele>
        <time>2018-08-07T08:30:39Z</time>
      </trkpt>
      <trkpt lat="42.46017" lon="0.21351">
        <ele>987.63</ele>
        <time>2018-08-07T08:30:41Z</time>
      </trkpt>
      <trkpt lat="42.46044" lon="0.21331">
        <ele>990.18</ele>
        <time>2018-08-07T08:30:43Z</time>
      </trkpt>
      <trkpt lat="42.46072" lon="0.21313">
        <ele>991.52</ele>
        <time>2018-08-07T08:30:45Z</time>
      </trkpt>
      <trkpt lat="42.46102" lon="0.21299">
        <ele>993.05</ele>
        <time>2018-08-07T08:30:47Z</time>
      </trkpt>
      <trkpt lat="42.46134" lon="0.21293">
        <ele>996.12</ele>
        <time>2018-08-07T08:30:49Z</time>
      </trkpt>
      <trkpt lat="42.46167" lon="0.21293">
        <ele>997.31</ele>
        <time>2018-08-07T08:30:51Z</time>
      </trkpt>
      <trkpt lat="42.46198" lon="0.21293">
        <ele>1000.85</ele>
        <time>2018-08-07T08:30:53Z</time>
      </trkpt>
      <trkpt lat="42.46225" lon="0.21297">
        <ele>1003.2</ele>
        <time>2018-08-07T08:30:55Z</time>
      </trkpt>
      <trkpt lat="42.46245" lon="0.21308">
        <ele>1006.35</ele>
        <time>2018-08-07T08:30:57Z</time>
      </trkpt>
      <trkpt lat="42.46265" lon="0.21306">
        <ele>1008.03</ele>
        <time>2018-08-07T08:30:59Z</time>
      </trkpt>
      <trkpt lat="42.46285" lon="0.21293">
        <ele>1009.72</ele>
        <time>2018-08-07T08:31:01Z</time>
      </trkpt>
      <trkpt lat="42.46306" lon="0.21292">
        <ele>1011.48</ele>
        <time>2018-08-07T08:31:03Z</time>
      </trkpt>
      <trkpt lat="42.46324" lon="0.21287">
        <ele>1011.64</ele>
        <time>2018-08-07T08:31:05Z</time>
      </trkpt>
      <trkpt lat="42.46335" lon="0.21266">
        <ele>1012.36</ele>
        <time>2018-08-07T08:31:07Z</time>
      </trkpt>
      <trkpt lat="42.46349" lon="0.2124">
        <ele>1012.63</ele>
        <time>2018-08-07T08:31:09Z</time>
      </trkpt>
      <trkpt lat="42.46367" lon="0.21215">
        <ele>1014.27</ele>
        <time>2018-08-07T08:31:11Z</time>
      </trkpt>
      <trkpt lat="42.46385" lon="0.21187">
        <ele>1014.62</ele>
        <time>2018-08-07T08:31:13Z</time>
      </trkpt>
      <trkpt lat="42.46407" lon="0.21166">
        <ele>1015.35</ele>
        <time>2018-08-07T08:31:15Z</time>
      </trkpt>
      <trkpt lat="42.46432" lon="0.21155">
        <ele>1015.63</ele>
        <time>2018-08-07T08:31:17Z</time>
      </trkpt>
      <trkpt lat="42.46447" lon="0.21131">
        <ele>1015.66</ele>
        <time>2018-08-07T08:31:20Z</time>
      </trkpt>
      <trkpt lat="42.46438" lon="0.21098">
        <ele>1017.54</ele>
        <time>2018-08-07T08:31:23Z</time>
      </trkpt>
      <trkpt lat="42.46435" lon="0.21068">
        <ele>1018.56</ele>
        <time>2018-08-07T08:31:25Z</time>
      </trkpt>
      <trkpt lat="42.46431" lon="0.21035">
        <ele>1021.17</ele>
        <time>2018-08-07T08:31:27Z</time>
      </trkpt>
      <trkpt lat="42.46425" lon="0.20998">
        <ele>1023.22</ele>
        <time>2018-08-07T08:31:29Z</time>
      </trkpt>
      <trkpt lat="42.46412" lon="0.20962">
        <ele>1025.23</ele>
        <time>2018-08-07T08:31:31Z</time>
      </trkpt>
      <trkpt lat="42.46394" lon="0.20928">
        <ele>1025.62</ele>
        <time>2018-08-07T08:31:33Z</time>
      </trkpt>
      <trkpt lat="42.46381" lon="0.20894">
        <ele>1025.65</ele>
        <time>2018-08-07T08:31:35Z</time>
      </trkpt>
      <trkpt lat="42.46378" lon="0.20856">
        <ele>1028.18</ele>
        <time>2018-08-07T08:31:37Z</time>
      </trkpt>
      <trkpt lat="42.46373" lon="0.20818">
        <ele>1031.62</ele>
        <time>2018-08-07T08:31:39Z</time>
      </trkpt>
      <trkpt lat="42.46365" lon="0.20786">
        <ele>1033.47</ele>
        <time>2018-08-07T08:31:41Z</time>
      </trkpt>
      <trkpt lat="42.46355" lon="0.20759">
        <ele>1038.47</ele>
        <time>2018-08-07T08:31:43Z</time>
      </trkpt>
      <trkpt lat="42.46361" lon="0.20729">
        <ele>1042.27</ele>
        <time>2018-08-07T08:31:46Z</time>
      </trkpt>
      <trkpt lat="42.46383" lon="0.20725">
        <ele>1042.8</ele>
        <time>2018-08-07T08:31:49Z</time>
      </trkpt>
      <trkpt lat="42.46403" lon="0.20729">
        <ele>1048.53</ele>
        <time>2018-08-07T08:31:52Z</time>
      </trkpt>
      <trkpt lat="42.4642" lon="0.20718">
        <ele>1052.42</ele>
        <time>2018-08-07T08:31:55Z</time>
      </trkpt>
      <trkpt lat="42.46437" lon="0.20696">
        <ele>1055.23</ele>
        <time>2018-08-07T08:31:58Z</time>
      </trkpt>
      <trkpt lat="42.4646" lon="0.20681">
        <ele>1058.23</ele>
        <time>2018-08-07T08:32:01Z</time>
      </trkpt>
      <trkpt lat="42.46485" lon="0.20675">
        <ele>1062.27</ele>
        <time>2018-08-07T08:32:04Z</time>
      </trkpt>
      <trkpt lat="42.46509" lon="0.20674">
        <ele>1066.41</ele>
        <time>2018-08-07T08:32:07Z</time>
      </trkpt>
      <trkpt lat="42.4653" lon="0.2068">
        <ele>1065.96</ele>
        <time>2018-08-07T08:32:11Z</time>
      </trkpt>
      <trkpt lat="42.46543" lon="0.20697">
        <ele>1067.71</ele>
        <time>2018-08-07T08:32:16Z</time>
      </trkpt>
      <trkpt lat="42.46555" lon="0.2072">
        <ele>1067.66</ele>
        <time>2018-08-07T08:32:19Z</time>
      </trkpt>
      <trkpt lat="42.46571" lon="0.20749">
        <ele>1066.69</ele>
        <time>2018-08-07T08:32:22Z</time>
      </trkpt>
      <trkpt lat="42.46582" lon="0.20772">
        <ele>1065.96</ele>
        <time>2018-08-07T08:32:24Z</time>
      </trkpt>
      <trkpt lat="42.46588" lon="0.208">
        <ele>1064.78</ele>
        <time>2018-08-07T08:32:26Z</time>
      </trkpt>
      <trkpt lat="42.46589" lon="0.20832">
        <ele>1065.37</ele>
        <time>2018-08-07T08:32:28Z</time>
      </trkpt>
      <trkpt lat="42.46592" lon="0.20866">
        <ele>1064.51</ele>
        <time>2018-08-07T08:32:30Z</time>
      </trkpt>
      <trkpt lat="42.466" lon="0.209">
        <ele>1064.64</ele>
        <time>2018-08-07T08:32:32Z</time>
      </trkpt>
      <trkpt lat="42.46609" lon="0.20936">
        <ele>1065.36</ele>
        <time>2018-08-07T08:32:34Z</time>
      </trkpt>
      <trkpt lat="42.46612" lon="0.20976">
        <ele>1064.93</ele>
        <time>2018-08-07T08:32:36Z</time>
      </trkpt>
      <trkpt lat="42.46617" lon="0.21018">
        <ele>1063.77</ele>
        <time>2018-08-07T08:32:38Z</time>
      </trkpt>
      <trkpt lat="42.46629" lon="0.2106">
        <ele>1062.76</ele>
        <time>2018-08-07T08:32:40Z</time>
      </trkpt>
      <trkpt lat="42.46637" lon="0.21094">
        <ele>1061.76</ele>
        <time>2018-08-07T08:32:42Z</time>
      </trkpt>
      <trkpt lat="42.46636" lon="0.21122">
        <ele>1060.97</ele>
        <time>2018-08-07T08:32:44Z</time>
      </trkpt>
      <trkpt lat="42.46619" lon="0.21148">
        <ele>1060.9</ele>
        <time>2018-08-07T08:32:46Z</time>
      </trkpt>
      <trkpt lat="42.46592" lon="0.21174">
        <ele>1062.29</ele>
        <time>2018-08-07T08:32:48Z</time>
      </trkpt>
      <trkpt lat="42.46565" lon="0.21199">
        <ele>1063.53</ele>
        <time>2018-08-07T08:32:50Z</time>
      </trkpt>
      <trkpt lat="42.46543" lon="0.2123">
        <ele>1066.17</ele>
        <time>2018-08-07T08:32:52Z</time>
      </trkpt>
      <trkpt lat="42.46524" lon="0.21272">
        <ele>1068.92</ele>
        <time>2018-08-07T08:32:54Z</time>
      </trkpt>
      <trkpt lat="42.46515" lon="0.21293">
        <ele>1069.44</ele>
        <time>2018-08-07T08:32:55Z</time>
      </trkpt>
      <trkpt lat="42.46505" lon="0.21315">
        <ele>1070.29</ele>
        <time>2018-08-07T08:32:56Z</time>
      </trkpt>
      <trkpt lat="42.46495" lon="0.21338">
        <ele>1071.95</ele>
        <time>2018-08-07T08:32:57Z</time>
      </trkpt>
      <trkpt lat="42.46486" lon="0.21362">
        <ele>1073.15</ele>
        <time>2018-08-07T08:32:58Z</time>
      </trkpt>
      <trkpt lat="42.46477" lon="0.21386">
        <ele>1074.2</ele>
        <time>2018-08-07T08:32:59Z</time>
      </trkpt>
      <trkpt lat="42.4647" lon="0.21412">
        <ele>1075.22</ele>
        <time>2018-08-07T08:33:00Z</time>
      </trkpt>
      <trkpt lat="42.46464" lon="0.21438">
        <ele>1076.23</ele>
        <time>2018-08-07T08:33:01Z</time>
      </trkpt>
      <trkpt lat="42.46459" lon="0.21463">
        <ele>1076.53</ele>
        <time>2018-08-07T08:33:02Z</time>
      </trkpt>
      <trkpt lat="42.46451" lon="0.2149">
        <ele>1075.92</ele>
        <time>2018-08-07T08:33:03Z</time>
      </trkpt>
      <trkpt lat="42.4644" lon="0.21516">
        <ele>1075.04</ele>
        <time>2018-08-07T08:33:04Z</time>
      </trkpt>
      <trkpt lat="42.4643" lon="0.21541">
        <ele>1075.47</ele>
        <time>2018-08-07T08:33:05Z</time>
      </trkpt>
      <trkpt lat="42.46423" lon="0.21565">
        <ele>1075.6</ele>
        <time>2018-08-07T08:33:06Z</time>
      </trkpt>
      <trkpt lat="42.46412" lon="0.21603">
        <ele>1077.26</ele>
        <time>2018-08-07T08:33:08Z</time>
      </trkpt>
      <trkpt lat="42.46401" lon="0.21628">
        <ele>1078.32</ele>
        <time>2018-08-07T08:33:10Z</time>
      </trkpt>
      <trkpt lat="42.46388" lon="0.21653">
        <ele>1079.54</ele>
        <time>2018-08-07T08:33:12Z</time>
      </trkpt>
      <trkpt lat="42.46379" lon="0.21688">
        <ele>1081.96</ele>
        <time>2018-08-07T08:33:14Z</time>
      </trkpt>
      <trkpt lat="42.46372" lon="0.2173">
        <ele>1084.2</ele>
        <time>2018-08-07T08:33:16Z</time>
      </trkpt>
      <trkpt lat="42.46354" lon="0.21765">
        <ele>1084.62</ele>
        <time>2018-08-07T08:33:18Z</time>
      </trkpt>
      <trkpt lat="42.46331" lon="0.21796">
        <ele>1085.35</ele>
        <time>2018-08-07T08:33:20Z</time>
      </trkpt>
      <trkpt lat="42.4631" lon="0.21827">
        <ele>1084.93</ele>
        <time>2018-08-07T08:33:22Z</time>
      </trkpt>
      <trkpt lat="42.46292" lon="0.21857">
        <ele>1084.68</ele>
        <time>2018-08-07T08:33:24Z</time>
      </trkpt>
      <trkpt lat="42.46276" lon="0.2188">
        <ele>1083.75</ele>
        <time>2018-08-07T08:33:26Z</time>
      </trkpt>
      <trkpt lat="42.46261" lon="0.21904">
        <ele>1082.97</ele>
        <time>2018-08-07T08:33:28Z</time>
      </trkpt>
      <trkpt lat="42.46247" lon="0.21933">
        <ele>1081.78</ele>
        <time>2018-08-07T08:33:30Z</time>
      </trkpt>
      <trkpt lat="42.46229" lon="0.21955">
        <ele>1081.67</ele>
        <time>2018-08-07T08:33:32Z</time>
      </trkpt>
      <trkpt lat="42.46202" lon="0.21951">
        <ele>1080.75</ele>
        <time>2018-08-07T08:33:34Z</time>
      </trkpt>
      <trkpt lat="42.46178" lon="0.21954">
        <ele>1080.67</ele>
        <time>2018-08-07T08:33:36Z</time>
      </trkpt>
      <trkpt lat="42.46158" lon="0.21959">
        <ele>1079.96</ele>
        <time>2018-08-07T08:33:38Z</time>
      </trkpt>
      <trkpt lat="42.46136" lon="0.21968">
        <ele>1079.69</ele>
        <time>2018-08-07T08:33:40Z</time>
      </trkpt>
      <trkpt lat="42.46111" lon="0.21978">
        <ele>1078.26</ele>
        <time>2018-08-07T08:33:42Z</time>
      </trkpt>
      <trkpt lat="42.46083" lon="0.21985">
        <ele>1078.62</ele>
        <time>2018-08-07T08:33:44Z</time>
      </trkpt>
      <trkpt lat="42.46053" lon="0.21992">
        <ele>1079.35</ele>
        <time>2018-08-07T08:33:46Z</time>
      </trkpt>
      <trkpt lat="42.46021" lon="0.21996">
        <ele>1079.63</ele>
        <time>2018-08-07T08:33:48Z</time>
      </trkpt>
      <trkpt lat="42.45991" lon="0.22005">
        <ele>1080.36</ele>
        <time>2018-08-07T08:33:50Z</time>
      </trkpt>
      <trkpt lat="42.45962" lon="0.22018">
        <ele>1082.24</ele>
        <time>2018-08-07T08:33:52Z</time>
      </trkpt>
      <trkpt lat="42.45933" lon="0.22031">
        <ele>1084.23</ele>
        <time>2018-08-07T08:33:54Z</time>
      </trkpt>
      <trkpt lat="42.45904" lon="0.22038">
        <ele>1083.92</ele>
        <time>2018-08-07T08:33:56Z</time>
      </trkpt>
      <trkpt lat="42.45875" lon="0.2204">
        <ele>1084.59</ele>
        <time>2018-08-07T08:33:58Z</time>
      </trkpt>
      <trkpt lat="42.45847" lon="0.22042">
        <ele>1084.65</ele>
        <time>2018-08-07T08:34:00Z</time>
      </trkpt>
      <trkpt lat="42.45822" lon="0.22045">
        <ele>1084.87</ele>
        <time>2018-08-07T08:34:02Z</time>
      </trkpt>
      <trkpt lat="42.45801" lon="0.22048">
        <ele>1084.89</ele>
        <time>2018-08-07T08:34:04Z</time>
      </trkpt>
      <trkpt lat="42.45782" lon="0.22052">
        <ele>1085.64</ele>
        <time>2018-08-07T08:34:07Z</time>
      </trkpt>
      <trkpt lat="42.45763" lon="0.2206">
        <ele>1088.51</ele>
        <time>2018-08-07T08:34:14Z</time>
      </trkpt>
      <trkpt lat="42.45781" lon="0.22052">
        <ele>1097.63</ele>
        <time>2018-08-07T08:58:44Z</time>
      </trkpt>
      <trkpt lat="42.45806" lon="0.2205">
        <ele>1097.72</ele>
        <time>2018-08-07T08:58:47Z</time>
      </trkpt>
      <trkpt lat="42.45827" lon="0.22048">
        <ele>1099.27</ele>
        <time>2018-08-07T08:58:49Z</time>
      </trkpt>
      <trkpt lat="42.45851" lon="0.22046">
        <ele>1098.71</ele>
        <time>2018-08-07T08:58:51Z</time>
      </trkpt>
      <trkpt lat="42.45877" lon="0.22044">
        <ele>1097.96</ele>
        <time>2018-08-07T08:58:53Z</time>
      </trkpt>
      <trkpt lat="42.45907" lon="0.22041">
        <ele>1096.78</ele>
        <time>2018-08-07T08:58:55Z</time>
      </trkpt>
      <trkpt lat="42.45936" lon="0.22033">
        <ele>1095.76</ele>
        <time>2018-08-07T08:58:57Z</time>
      </trkpt>
      <trkpt lat="42.45964" lon="0.2202">
        <ele>1094.76</ele>
        <time>2018-08-07T08:58:59Z</time>
      </trkpt>
      <trkpt lat="42.45992" lon="0.22007">
        <ele>1093.06</ele>
        <time>2018-08-07T08:59:01Z</time>
      </trkpt>
      <trkpt lat="42.46022" lon="0.21999">
        <ele>1091.08</ele>
        <time>2018-08-07T08:59:03Z</time>
      </trkpt>
      <trkpt lat="42.46051" lon="0.21995">
        <ele>1090.7</ele>
        <time>2018-08-07T08:59:05Z</time>
      </trkpt>
      <trkpt lat="42.46079" lon="0.21989">
        <ele>1090.66</ele>
        <time>2018-08-07T08:59:07Z</time>
      </trkpt>
      <trkpt lat="42.46104" lon="0.21983">
        <ele>1090.66</ele>
        <time>2018-08-07T08:59:09Z</time>
      </trkpt>
      <trkpt lat="42.46128" lon="0.21975">
        <ele>1090.66</ele>
        <time>2018-08-07T08:59:11Z</time>
      </trkpt>
      <trkpt lat="42.46148" lon="0.21966">
        <ele>1089.75</ele>
        <time>2018-08-07T08:59:13Z</time>
      </trkpt>
      <trkpt lat="42.46165" lon="0.21959">
        <ele>1089.72</ele>
        <time>2018-08-07T08:59:16Z</time>
      </trkpt>
      <trkpt lat="42.46187" lon="0.21954">
        <ele>1089.23</ele>
        <time>2018-08-07T09:00:50Z</time>
      </trkpt>
      <trkpt lat="42.46209" lon="0.2195">
        <ele>1089.37</ele>
        <time>2018-08-07T09:00:53Z</time>
      </trkpt>
      <trkpt lat="42.46228" lon="0.21949">
        <ele>1091.24</ele>
        <time>2018-08-07T09:00:55Z</time>
      </trkpt>
      <trkpt lat="42.46247" lon="0.21937">
        <ele>1091.83</ele>
        <time>2018-08-07T09:00:57Z</time>
      </trkpt>
      <trkpt lat="42.46262" lon="0.21911">
        <ele>1091.67</ele>
        <time>2018-08-07T09:00:59Z</time>
      </trkpt>
      <trkpt lat="42.46277" lon="0.21884">
        <ele>1091.87</ele>
        <time>2018-08-07T09:01:01Z</time>
      </trkpt>
      <trkpt lat="42.46294" lon="0.21858">
        <ele>1091.89</ele>
        <time>2018-08-07T09:01:03Z</time>
      </trkpt>
      <trkpt lat="42.46312" lon="0.21831">
        <ele>1091.19</ele>
        <time>2018-08-07T09:01:05Z</time>
      </trkpt>
      <trkpt lat="42.46332" lon="0.21802">
        <ele>1090.71</ele>
        <time>2018-08-07T09:01:07Z</time>
      </trkpt>
      <trkpt lat="42.46354" lon="0.21767">
        <ele>1090.45</ele>
        <time>2018-08-07T09:01:09Z</time>
      </trkpt>
      <trkpt lat="42.46373" lon="0.21732">
        <ele>1090.64</ele>
        <time>2018-08-07T09:01:11Z</time>
      </trkpt>
      <trkpt lat="42.46381" lon="0.21688">
        <ele>1089.96</ele>
        <time>2018-08-07T09:01:13Z</time>
      </trkpt>
      <trkpt lat="42.46393" lon="0.21646">
        <ele>1088.28</ele>
        <time>2018-08-07T09:01:15Z</time>
      </trkpt>
      <trkpt lat="42.46409" lon="0.21617">
        <ele>1086.1</ele>
        <time>2018-08-07T09:01:17Z</time>
      </trkpt>
      <trkpt lat="42.46419" lon="0.21585">
        <ele>1085</ele>
        <time>2018-08-07T09:01:19Z</time>
      </trkpt>
      <trkpt lat="42.4643" lon="0.21546">
        <ele>1083.08</ele>
        <time>2018-08-07T09:01:21Z</time>
      </trkpt>
      <trkpt lat="42.46446" lon="0.21505">
        <ele>1081.79</ele>
        <time>2018-08-07T09:01:23Z</time>
      </trkpt>
      <trkpt lat="42.46455" lon="0.21483">
        <ele>1082.4</ele>
        <time>2018-08-07T09:01:24Z</time>
      </trkpt>
      <trkpt lat="42.46465" lon="0.21438">
        <ele>1083.54</ele>
        <time>2018-08-07T09:01:26Z</time>
      </trkpt>
      <trkpt lat="42.46476" lon="0.21393">
        <ele>1082.95</ele>
        <time>2018-08-07T09:01:28Z</time>
      </trkpt>
      <trkpt lat="42.46485" lon="0.2137">
        <ele>1082.04</ele>
        <time>2018-08-07T09:01:29Z</time>
      </trkpt>
      <trkpt lat="42.46494" lon="0.21346">
        <ele>1081.07</ele>
        <time>2018-08-07T09:01:30Z</time>
      </trkpt>
      <trkpt lat="42.46503" lon="0.21323">
        <ele>1080.08</ele>
        <time>2018-08-07T09:01:31Z</time>
      </trkpt>
      <trkpt lat="42.46513" lon="0.21301">
        <ele>1079.09</ele>
        <time>2018-08-07T09:01:32Z</time>
      </trkpt>
      <trkpt lat="42.46523" lon="0.2128">
        <ele>1078.79</ele>
        <time>2018-08-07T09:01:33Z</time>
      </trkpt>
      <trkpt lat="42.46541" lon="0.2124">
        <ele>1076.15</ele>
        <time>2018-08-07T09:01:35Z</time>
      </trkpt>
      <trkpt lat="42.46561" lon="0.21207">
        <ele>1073.18</ele>
        <time>2018-08-07T09:01:37Z</time>
      </trkpt>
      <trkpt lat="42.46587" lon="0.21179">
        <ele>1071.8</ele>
        <time>2018-08-07T09:01:39Z</time>
      </trkpt>
      <trkpt lat="42.46612" lon="0.21153">
        <ele>1071.67</ele>
        <time>2018-08-07T09:01:41Z</time>
      </trkpt>
      <trkpt lat="42.46632" lon="0.21127">
        <ele>1070.96</ele>
        <time>2018-08-07T09:01:43Z</time>
      </trkpt>
      <trkpt lat="42.4664" lon="0.211">
        <ele>1069.99</ele>
        <time>2018-08-07T09:01:45Z</time>
      </trkpt>
      <trkpt lat="42.46634" lon="0.21073">
        <ele>1070.39</ele>
        <time>2018-08-07T09:01:47Z</time>
      </trkpt>
      <trkpt lat="42.46624" lon="0.21041">
        <ele>1071.33</ele>
        <time>2018-08-07T09:01:49Z</time>
      </trkpt>
      <trkpt lat="42.46616" lon="0.21005">
        <ele>1072.33</ele>
        <time>2018-08-07T09:01:51Z</time>
      </trkpt>
      <trkpt lat="42.46613" lon="0.20968">
        <ele>1073.33</ele>
        <time>2018-08-07T09:01:53Z</time>
      </trkpt>
      <trkpt lat="42.4661" lon="0.20931">
        <ele>1073.63</ele>
        <time>2018-08-07T09:01:55Z</time>
      </trkpt>
      <trkpt lat="42.46599" lon="0.20895">
        <ele>1073.87</ele>
        <time>2018-08-07T09:01:57Z</time>
      </trkpt>
      <trkpt lat="42.46592" lon="0.20858">
        <ele>1073.68</ele>
        <time>2018-08-07T09:01:59Z</time>
      </trkpt>
      <trkpt lat="42.46589" lon="0.20821">
        <ele>1073.66</ele>
        <time>2018-08-07T09:02:01Z</time>
      </trkpt>
      <trkpt lat="42.46585" lon="0.20786">
        <ele>1074.36</ele>
        <time>2018-08-07T09:02:03Z</time>
      </trkpt>
      <trkpt lat="42.46573" lon="0.20755">
        <ele>1075.33</ele>
        <time>2018-08-07T09:02:05Z</time>
      </trkpt>
      <trkpt lat="42.46558" lon="0.20728">
        <ele>1075.63</ele>
        <time>2018-08-07T09:02:07Z</time>
      </trkpt>
      <trkpt lat="42.46546" lon="0.20708">
        <ele>1076.57</ele>
        <time>2018-08-07T09:02:09Z</time>
      </trkpt>
      <trkpt lat="42.46535" lon="0.20688">
        <ele>1078.35</ele>
        <time>2018-08-07T09:02:13Z</time>
      </trkpt>
      <trkpt lat="42.46519" lon="0.20678">
        <ele>1078.66</ele>
        <time>2018-08-07T09:02:20Z</time>
      </trkpt>
      <trkpt lat="42.46496" lon="0.20676">
        <ele>1078.66</ele>
        <time>2018-08-07T09:02:24Z</time>
      </trkpt>
      <trkpt lat="42.46472" lon="0.2068">
        <ele>1073.49</ele>
        <time>2018-08-07T09:02:27Z</time>
      </trkpt>
      <trkpt lat="42.46448" lon="0.20687">
        <ele>1068.76</ele>
        <time>2018-08-07T09:02:30Z</time>
      </trkpt>
      <trkpt lat="42.46429" lon="0.20707">
        <ele>1065.31</ele>
        <time>2018-08-07T09:02:33Z</time>
      </trkpt>
      <trkpt lat="42.46414" lon="0.20728">
        <ele>1062.16</ele>
        <time>2018-08-07T09:02:36Z</time>
      </trkpt>
      <trkpt lat="42.46393" lon="0.20733">
        <ele>1057.91</ele>
        <time>2018-08-07T09:02:39Z</time>
      </trkpt>
      <trkpt lat="42.46368" lon="0.20733">
        <ele>1054.11</ele>
        <time>2018-08-07T09:02:42Z</time>
      </trkpt>
      <trkpt lat="42.46355" lon="0.20762">
        <ele>1049.2</ele>
        <time>2018-08-07T09:02:45Z</time>
      </trkpt>
      <trkpt lat="42.46362" lon="0.20787">
        <ele>1047.1</ele>
        <time>2018-08-07T09:02:47Z</time>
      </trkpt>
      <trkpt lat="42.46373" lon="0.20815">
        <ele>1044.18</ele>
        <time>2018-08-07T09:02:49Z</time>
      </trkpt>
      <trkpt lat="42.46376" lon="0.20853">
        <ele>1041.39</ele>
        <time>2018-08-07T09:02:51Z</time>
      </trkpt>
      <trkpt lat="42.4638" lon="0.20886">
        <ele>1038.41</ele>
        <time>2018-08-07T09:02:53Z</time>
      </trkpt>
      <trkpt lat="42.46388" lon="0.20918">
        <ele>1036.33</ele>
        <time>2018-08-07T09:02:55Z</time>
      </trkpt>
      <trkpt lat="42.46402" lon="0.20946">
        <ele>1034.32</ele>
        <time>2018-08-07T09:02:57Z</time>
      </trkpt>
      <trkpt lat="42.46416" lon="0.20973">
        <ele>1032.81</ele>
        <time>2018-08-07T09:02:59Z</time>
      </trkpt>
      <trkpt lat="42.46426" lon="0.21002">
        <ele>1031.06</ele>
        <time>2018-08-07T09:03:01Z</time>
      </trkpt>
      <trkpt lat="42.4643" lon="0.21035">
        <ele>1029.08</ele>
        <time>2018-08-07T09:03:03Z</time>
      </trkpt>
      <trkpt lat="42.46432" lon="0.21068">
        <ele>1028</ele>
        <time>2018-08-07T09:03:05Z</time>
      </trkpt>
      <trkpt lat="42.46436" lon="0.21099">
        <ele>1026.08</ele>
        <time>2018-08-07T09:03:07Z</time>
      </trkpt>
      <trkpt lat="42.46443" lon="0.21127">
        <ele>1024.09</ele>
        <time>2018-08-07T09:03:09Z</time>
      </trkpt>
      <trkpt lat="42.46433" lon="0.21154">
        <ele>1021.79</ele>
        <time>2018-08-07T09:03:12Z</time>
      </trkpt>
      <trkpt lat="42.46416" lon="0.2116">
        <ele>1020.06</ele>
        <time>2018-08-07T09:03:14Z</time>
      </trkpt>
      <trkpt lat="42.46396" lon="0.2117">
        <ele>1019.69</ele>
        <time>2018-08-07T09:03:16Z</time>
      </trkpt>
      <trkpt lat="42.46377" lon="0.21189">
        <ele>1018.05</ele>
        <time>2018-08-07T09:03:18Z</time>
      </trkpt>
      <trkpt lat="42.46361" lon="0.21215">
        <ele>1018.39</ele>
        <time>2018-08-07T09:03:20Z</time>
      </trkpt>
      <trkpt lat="42.46344" lon="0.21239">
        <ele>1018.63</ele>
        <time>2018-08-07T09:03:22Z</time>
      </trkpt>
      <trkpt lat="42.4633" lon="0.21265">
        <ele>1019.57</ele>
        <time>2018-08-07T09:03:24Z</time>
      </trkpt>
      <trkpt lat="42.46318" lon="0.21287">
        <ele>1018.04</ele>
        <time>2018-08-07T09:03:26Z</time>
      </trkpt>
      <trkpt lat="42.46296" lon="0.21289">
        <ele>1016.06</ele>
        <time>2018-08-07T09:03:29Z</time>
      </trkpt>
      <trkpt lat="42.4627" lon="0.21301">
        <ele>1015.94</ele>
        <time>2018-08-07T09:03:32Z</time>
      </trkpt>
      <trkpt lat="42.46249" lon="0.21308">
        <ele>1014.28</ele>
        <time>2018-08-07T09:03:34Z</time>
      </trkpt>
      <trkpt lat="42.46231" lon="0.213">
        <ele>1013.92</ele>
        <time>2018-08-07T09:03:36Z</time>
      </trkpt>
      <trkpt lat="42.46211" lon="0.21292">
        <ele>1013.68</ele>
        <time>2018-08-07T09:03:38Z</time>
      </trkpt>
      <trkpt lat="42.46186" lon="0.21291">
        <ele>1011.35</ele>
        <time>2018-08-07T09:03:40Z</time>
      </trkpt>
      <trkpt lat="42.46161" lon="0.21293">
        <ele>1010.02</ele>
        <time>2018-08-07T09:03:42Z</time>
      </trkpt>
      <trkpt lat="42.46137" lon="0.21292">
        <ele>1008.99</ele>
        <time>2018-08-07T09:03:44Z</time>
      </trkpt>
      <trkpt lat="42.46112" lon="0.21293">
        <ele>1007.29</ele>
        <time>2018-08-07T09:03:46Z</time>
      </trkpt>
      <trkpt lat="42.46086" lon="0.21303">
        <ele>1006.71</ele>
        <time>2018-08-07T09:03:48Z</time>
      </trkpt>
      <trkpt lat="42.46061" lon="0.21318">
        <ele>1005.05</ele>
        <time>2018-08-07T09:03:50Z</time>
      </trkpt>
      <trkpt lat="42.46035" lon="0.21335">
        <ele>1003.99</ele>
        <time>2018-08-07T09:03:52Z</time>
      </trkpt>
      <trkpt lat="42.46008" lon="0.21356">
        <ele>1003.69</ele>
        <time>2018-08-07T09:03:54Z</time>
      </trkpt>
      <trkpt lat="42.4598" lon="0.21377">
        <ele>1001.14</ele>
        <time>2018-08-07T09:03:56Z</time>
      </trkpt>
      <trkpt lat="42.45956" lon="0.214">
        <ele>1000.7</ele>
        <time>2018-08-07T09:03:58Z</time>
      </trkpt>
      <trkpt lat="42.45934" lon="0.21417">
        <ele>999.05</ele>
        <time>2018-08-07T09:04:00Z</time>
      </trkpt>
      <trkpt lat="42.45917" lon="0.21428">
        <ele>998.69</ele>
        <time>2018-08-07T09:04:02Z</time>
      </trkpt>
      <trkpt lat="42.45901" lon="0.21407">
        <ele>996.71</ele>
        <time>2018-08-07T09:04:05Z</time>
      </trkpt>
      <trkpt lat="42.45892" lon="0.2138">
        <ele>993.44</ele>
        <time>2018-08-07T09:04:07Z</time>
      </trkpt>
      <trkpt lat="42.45879" lon="0.21348">
        <ele>990.42</ele>
        <time>2018-08-07T09:04:09Z</time>
      </trkpt>
      <trkpt lat="42.45865" lon="0.21315">
        <ele>987.21</ele>
        <time>2018-08-07T09:04:11Z</time>
      </trkpt>
      <trkpt lat="42.4585" lon="0.21283">
        <ele>984.89</ele>
        <time>2018-08-07T09:04:13Z</time>
      </trkpt>
      <trkpt lat="42.45833" lon="0.21265">
        <ele>984.47</ele>
        <time>2018-08-07T09:04:15Z</time>
      </trkpt>
      <trkpt lat="42.4581" lon="0.21259">
        <ele>983.73</ele>
        <time>2018-08-07T09:04:17Z</time>
      </trkpt>
      <trkpt lat="42.45788" lon="0.21249">
        <ele>982.75</ele>
        <time>2018-08-07T09:04:19Z</time>
      </trkpt>
      <trkpt lat="42.45768" lon="0.21232">
        <ele>981.97</ele>
        <time>2018-08-07T09:04:21Z</time>
      </trkpt>
      <trkpt lat="42.45749" lon="0.21218">
        <ele>981.69</ele>
        <time>2018-08-07T09:04:23Z</time>
      </trkpt>
      <trkpt lat="42.45726" lon="0.21212">
        <ele>981.66</ele>
        <time>2018-08-07T09:04:25Z</time>
      </trkpt>
      <trkpt lat="42.45705" lon="0.21217">
        <ele>980.96</ele>
        <time>2018-08-07T09:04:27Z</time>
      </trkpt>
      <trkpt lat="42.45684" lon="0.21232">
        <ele>980.68</ele>
        <time>2018-08-07T09:04:29Z</time>
      </trkpt>
      <trkpt lat="42.45664" lon="0.21252">
        <ele>979.75</ele>
        <time>2018-08-07T09:04:31Z</time>
      </trkpt>
      <trkpt lat="42.45644" lon="0.21269">
        <ele>979.67</ele>
        <time>2018-08-07T09:04:33Z</time>
      </trkpt>
      <trkpt lat="42.45622" lon="0.21277">
        <ele>979.66</ele>
        <time>2018-08-07T09:04:35Z</time>
      </trkpt>
      <trkpt lat="42.45599" lon="0.21271">
        <ele>977.84</ele>
        <time>2018-08-07T09:04:37Z</time>
      </trkpt>
      <trkpt lat="42.45575" lon="0.21267">
        <ele>976.76</ele>
        <time>2018-08-07T09:04:39Z</time>
      </trkpt>
      <trkpt lat="42.45551" lon="0.21263">
        <ele>974.85</ele>
        <time>2018-08-07T09:04:41Z</time>
      </trkpt>
      <trkpt lat="42.45528" lon="0.21261">
        <ele>973.28</ele>
        <time>2018-08-07T09:04:43Z</time>
      </trkpt>
      <trkpt lat="42.45504" lon="0.21261">
        <ele>971.31</ele>
        <time>2018-08-07T09:04:45Z</time>
      </trkpt>
      <trkpt lat="42.4548" lon="0.21261">
        <ele>969.11</ele>
        <time>2018-08-07T09:04:47Z</time>
      </trkpt>
      <trkpt lat="42.45457" lon="0.21265">
        <ele>966.18</ele>
        <time>2018-08-07T09:04:49Z</time>
      </trkpt>
      <trkpt lat="42.45434" lon="0.21271">
        <ele>964.09</ele>
        <time>2018-08-07T09:04:51Z</time>
      </trkpt>
      <trkpt lat="42.45413" lon="0.21269">
        <ele>962.09</ele>
        <time>2018-08-07T09:04:53Z</time>
      </trkpt>
      <trkpt lat="42.45388" lon="0.21259">
        <ele>958.11</ele>
        <time>2018-08-07T09:04:56Z</time>
      </trkpt>
      <trkpt lat="42.45369" lon="0.21237">
        <ele>956.7</ele>
        <time>2018-08-07T09:04:59Z</time>
      </trkpt>
      <trkpt lat="42.45358" lon="0.21211">
        <ele>955.48</ele>
        <time>2018-08-07T09:05:02Z</time>
      </trkpt>
      <trkpt lat="42.45352" lon="0.21178">
        <ele>954.74</ele>
        <time>2018-08-07T09:05:05Z</time>
      </trkpt>
      <trkpt lat="42.45353" lon="0.21148">
        <ele>952.36</ele>
        <time>2018-08-07T09:05:07Z</time>
      </trkpt>
      <trkpt lat="42.45355" lon="0.21113">
        <ele>950.11</ele>
        <time>2018-08-07T09:05:09Z</time>
      </trkpt>
      <trkpt lat="42.45355" lon="0.21079">
        <ele>947.18</ele>
        <time>2018-08-07T09:05:11Z</time>
      </trkpt>
      <trkpt lat="42.45356" lon="0.2105">
        <ele>945.79</ele>
        <time>2018-08-07T09:05:13Z</time>
      </trkpt>
      <trkpt lat="42.45375" lon="0.21037">
        <ele>944.06</ele>
        <time>2018-08-07T09:05:15Z</time>
      </trkpt>
      <trkpt lat="42.45398" lon="0.21018">
        <ele>942.99</ele>
        <time>2018-08-07T09:05:17Z</time>
      </trkpt>
      <trkpt lat="42.45422" lon="0.20996">
        <ele>941.99</ele>
        <time>2018-08-07T09:05:19Z</time>
      </trkpt>
      <trkpt lat="42.45448" lon="0.20972">
        <ele>939.87</ele>
        <time>2018-08-07T09:05:21Z</time>
      </trkpt>
      <trkpt lat="42.45477" lon="0.20949">
        <ele>937.16</ele>
        <time>2018-08-07T09:05:23Z</time>
      </trkpt>
      <trkpt lat="42.45503" lon="0.20924">
        <ele>934.39</ele>
        <time>2018-08-07T09:05:25Z</time>
      </trkpt>
      <trkpt lat="42.45531" lon="0.20905">
        <ele>932.11</ele>
        <time>2018-08-07T09:05:27Z</time>
      </trkpt>
      <trkpt lat="42.45562" lon="0.20893">
        <ele>930.09</ele>
        <time>2018-08-07T09:05:29Z</time>
      </trkpt>
      <trkpt lat="42.45592" lon="0.20882">
        <ele>927.88</ele>
        <time>2018-08-07T09:05:31Z</time>
      </trkpt>
      <trkpt lat="42.45619" lon="0.20867">
        <ele>924.46</ele>
        <time>2018-08-07T09:05:33Z</time>
      </trkpt>
      <trkpt lat="42.45637" lon="0.20849">
        <ele>922.82</ele>
        <time>2018-08-07T09:05:35Z</time>
      </trkpt>
      <trkpt lat="42.45637" lon="0.20812">
        <ele>921.26</ele>
        <time>2018-08-07T09:05:38Z</time>
      </trkpt>
      <trkpt lat="42.45623" lon="0.20787">
        <ele>921.62</ele>
        <time>2018-08-07T09:05:40Z</time>
      </trkpt>
      <trkpt lat="42.45602" lon="0.20764">
        <ele>918.43</ele>
        <time>2018-08-07T09:05:42Z</time>
      </trkpt>
      <trkpt lat="42.45576" lon="0.2074">
        <ele>915.42</ele>
        <time>2018-08-07T09:05:44Z</time>
      </trkpt>
      <trkpt lat="42.45551" lon="0.20716">
        <ele>912.42</ele>
        <time>2018-08-07T09:05:46Z</time>
      </trkpt>
      <trkpt lat="42.45526" lon="0.20691">
        <ele>909.21</ele>
        <time>2018-08-07T09:05:48Z</time>
      </trkpt>
      <trkpt lat="42.45504" lon="0.20667">
        <ele>905.49</ele>
        <time>2018-08-07T09:05:50Z</time>
      </trkpt>
      <trkpt lat="42.45484" lon="0.20651">
        <ele>904.03</ele>
        <time>2018-08-07T09:05:52Z</time>
      </trkpt>
      <trkpt lat="42.4546" lon="0.20651">
        <ele>901.59</ele>
        <time>2018-08-07T09:05:54Z</time>
      </trkpt>
      <trkpt lat="42.45444" lon="0.20672">
        <ele>899.07</ele>
        <time>2018-08-07T09:05:57Z</time>
      </trkpt>
      <trkpt lat="42.45443" lon="0.20697">
        <ele>898.49</ele>
        <time>2018-08-07T09:05:59Z</time>
      </trkpt>
      <trkpt lat="42.45447" lon="0.2073">
        <ele>897.73</ele>
        <time>2018-08-07T09:06:01Z</time>
      </trkpt>
      <trkpt lat="42.45434" lon="0.20753">
        <ele>895.78</ele>
        <time>2018-08-07T09:06:04Z</time>
      </trkpt>
      <trkpt lat="42.45415" lon="0.20745">
        <ele>894.69</ele>
        <time>2018-08-07T09:06:07Z</time>
      </trkpt>
      <trkpt lat="42.45404" lon="0.20717">
        <ele>895.36</ele>
        <time>2018-08-07T09:06:09Z</time>
      </trkpt>
      <trkpt lat="42.45395" lon="0.20685">
        <ele>893.81</ele>
        <time>2018-08-07T09:06:11Z</time>
      </trkpt>
      <trkpt lat="42.45382" lon="0.20667">
        <ele>890.94</ele>
        <time>2018-08-07T09:06:13Z</time>
      </trkpt>
      <trkpt lat="42.45363" lon="0.20688">
        <ele>889.69</ele>
        <time>2018-08-07T09:06:16Z</time>
      </trkpt>
      <trkpt lat="42.45351" lon="0.2071">
        <ele>888.05</ele>
        <time>2018-08-07T09:06:18Z</time>
      </trkpt>
      <trkpt lat="42.45325" lon="0.20713">
        <ele>885.02</ele>
        <time>2018-08-07T09:06:21Z</time>
      </trkpt>
      <trkpt lat="42.45309" lon="0.20692">
        <ele>881.47</ele>
        <time>2018-08-07T09:06:23Z</time>
      </trkpt>
      <trkpt lat="42.45299" lon="0.2067">
        <ele>878.21</ele>
        <time>2018-08-07T09:06:25Z</time>
      </trkpt>
      <trkpt lat="42.45309" lon="0.2064">
        <ele>875.09</ele>
        <time>2018-08-07T09:06:28Z</time>
      </trkpt>
      <trkpt lat="42.45318" lon="0.20614">
        <ele>873.09</ele>
        <time>2018-08-07T09:06:30Z</time>
      </trkpt>
      <trkpt lat="42.45319" lon="0.20584">
        <ele>872</ele>
        <time>2018-08-07T09:06:32Z</time>
      </trkpt>
      <trkpt lat="42.45311" lon="0.2055">
        <ele>869.87</ele>
        <time>2018-08-07T09:06:34Z</time>
      </trkpt>
      <trkpt lat="42.45298" lon="0.20517">
        <ele>868.07</ele>
        <time>2018-08-07T09:06:36Z</time>
      </trkpt>
      <trkpt lat="42.45281" lon="0.2049">
        <ele>867.69</ele>
        <time>2018-08-07T09:06:38Z</time>
      </trkpt>
      <trkpt lat="42.45271" lon="0.20457">
        <ele>863.74</ele>
        <time>2018-08-07T09:06:40Z</time>
      </trkpt>
      <trkpt lat="42.45268" lon="0.20425">
        <ele>861.85</ele>
        <time>2018-08-07T09:06:42Z</time>
      </trkpt>
      <trkpt lat="42.45282" lon="0.20397">
        <ele>860.06</ele>
        <time>2018-08-07T09:06:44Z</time>
      </trkpt>
      <trkpt lat="42.45292" lon="0.20368">
        <ele>857.85</ele>
        <time>2018-08-07T09:06:47Z</time>
      </trkpt>
      <trkpt lat="42.45281" lon="0.20347">
        <ele>856.07</ele>
        <time>2018-08-07T09:06:49Z</time>
      </trkpt>
      <trkpt lat="42.45265" lon="0.20332">
        <ele>852.26</ele>
        <time>2018-08-07T09:06:51Z</time>
      </trkpt>
      <trkpt lat="42.45242" lon="0.20338">
        <ele>849.79</ele>
        <time>2018-08-07T09:06:54Z</time>
      </trkpt>
      <trkpt lat="42.45219" lon="0.20357">
        <ele>847.78</ele>
        <time>2018-08-07T09:06:57Z</time>
      </trkpt>
      <trkpt lat="42.452" lon="0.20366">
        <ele>845.36</ele>
        <time>2018-08-07T09:06:59Z</time>
      </trkpt>
      <trkpt lat="42.45175" lon="0.20364">
        <ele>842.79</ele>
        <time>2018-08-07T09:07:02Z</time>
      </trkpt>
      <trkpt lat="42.45156" lon="0.20349">
        <ele>841.69</ele>
        <time>2018-08-07T09:07:05Z</time>
      </trkpt>
      <trkpt lat="42.45136" lon="0.20332">
        <ele>839.99</ele>
        <time>2018-08-07T09:07:08Z</time>
      </trkpt>
      <trkpt lat="42.45113" lon="0.20318">
        <ele>836.11</ele>
        <time>2018-08-07T09:07:11Z</time>
      </trkpt>
      <trkpt lat="42.45091" lon="0.20306">
        <ele>833.79</ele>
        <time>2018-08-07T09:07:14Z</time>
      </trkpt>
      <trkpt lat="42.45077" lon="0.20283">
        <ele>830.78</ele>
        <time>2018-08-07T09:07:18Z</time>
      </trkpt>
      <trkpt lat="42.45075" lon="0.20254">
        <ele>829.69</ele>
        <time>2018-08-07T09:07:22Z</time>
      </trkpt>
      <trkpt lat="42.45085" lon="0.20231">
        <ele>829.66</ele>
        <time>2018-08-07T09:07:25Z</time>
      </trkpt>
      <trkpt lat="42.451" lon="0.20208">
        <ele>829.45</ele>
        <time>2018-08-07T09:07:28Z</time>
      </trkpt>
      <trkpt lat="42.45119" lon="0.20181">
        <ele>827.77</ele>
        <time>2018-08-07T09:07:31Z</time>
      </trkpt>
      <trkpt lat="42.45131" lon="0.20162">
        <ele>826.97</ele>
        <time>2018-08-07T09:07:33Z</time>
      </trkpt>
      <trkpt lat="42.45156" lon="0.20159">
        <ele>824.29</ele>
        <time>2018-08-07T09:07:36Z</time>
      </trkpt>
      <trkpt lat="42.45175" lon="0.20174">
        <ele>822.32</ele>
        <time>2018-08-07T09:07:38Z</time>
      </trkpt>
      <trkpt lat="42.45199" lon="0.20183">
        <ele>820.77</ele>
        <time>2018-08-07T09:07:41Z</time>
      </trkpt>
      <trkpt lat="42.452" lon="0.20142">
        <ele>818.48</ele>
        <time>2018-08-07T09:07:45Z</time>
      </trkpt>
      <trkpt lat="42.45192" lon="0.20104">
        <ele>818.64</ele>
        <time>2018-08-07T09:07:47Z</time>
      </trkpt>
      <trkpt lat="42.45182" lon="0.2007">
        <ele>819.36</ele>
        <time>2018-08-07T09:07:49Z</time>
      </trkpt>
      <trkpt lat="42.45178" lon="0.20036">
        <ele>820.54</ele>
        <time>2018-08-07T09:07:51Z</time>
      </trkpt>
      <trkpt lat="42.45178" lon="0.20004">
        <ele>820.65</ele>
        <time>2018-08-07T09:07:53Z</time>
      </trkpt>
      <trkpt lat="42.45166" lon="0.1998">
        <ele>821.57</ele>
        <time>2018-08-07T09:07:55Z</time>
      </trkpt>
      <trkpt lat="42.45146" lon="0.19962">
        <ele>823.47</ele>
        <time>2018-08-07T09:07:57Z</time>
      </trkpt>
      <trkpt lat="42.45128" lon="0.1994">
        <ele>824.55</ele>
        <time>2018-08-07T09:07:59Z</time>
      </trkpt>
      <trkpt lat="42.4512" lon="0.19913">
        <ele>825.35</ele>
        <time>2018-08-07T09:08:01Z</time>
      </trkpt>
      <trkpt lat="42.45127" lon="0.19886">
        <ele>826.33</ele>
        <time>2018-08-07T09:08:03Z</time>
      </trkpt>
      <trkpt lat="42.45143" lon="0.19861">
        <ele>825.93</ele>
        <time>2018-08-07T09:08:05Z</time>
      </trkpt>
      <trkpt lat="42.45161" lon="0.19833">
        <ele>826.59</ele>
        <time>2018-08-07T09:08:07Z</time>
      </trkpt>
      <trkpt lat="42.45174" lon="0.198">
        <ele>827.35</ele>
        <time>2018-08-07T09:08:09Z</time>
      </trkpt>
      <trkpt lat="42.45184" lon="0.19769">
        <ele>829.03</ele>
        <time>2018-08-07T09:08:11Z</time>
      </trkpt>
      <trkpt lat="42.452" lon="0.19745">
        <ele>830.3</ele>
        <time>2018-08-07T09:08:13Z</time>
      </trkpt>
      <trkpt lat="42.45221" lon="0.19724">
        <ele>829.02</ele>
        <time>2018-08-07T09:08:15Z</time>
      </trkpt>
      <trkpt lat="42.45247" lon="0.197">
        <ele>827.08</ele>
        <time>2018-08-07T09:08:17Z</time>
      </trkpt>
      <trkpt lat="42.45278" lon="0.19677">
        <ele>825.09</ele>
        <time>2018-08-07T09:08:19Z</time>
      </trkpt>
      <trkpt lat="42.45311" lon="0.1966">
        <ele>824.7</ele>
        <time>2018-08-07T09:08:21Z</time>
      </trkpt>
      <trkpt lat="42.45329" lon="0.19654">
        <ele>823.97</ele>
        <time>2018-08-07T09:08:22Z</time>
      </trkpt>
      <trkpt lat="42.45349" lon="0.19651">
        <ele>823.05</ele>
        <time>2018-08-07T09:08:23Z</time>
      </trkpt>
      <trkpt lat="42.45369" lon="0.19649">
        <ele>822.08</ele>
        <time>2018-08-07T09:08:24Z</time>
      </trkpt>
      <trkpt lat="42.45389" lon="0.19648">
        <ele>821.08</ele>
        <time>2018-08-07T09:08:25Z</time>
      </trkpt>
      <trkpt lat="42.45408" lon="0.19647">
        <ele>820.79</ele>
        <time>2018-08-07T09:08:26Z</time>
      </trkpt>
      <trkpt lat="42.45426" lon="0.19644">
        <ele>820</ele>
        <time>2018-08-07T09:08:27Z</time>
      </trkpt>
      <trkpt lat="42.45445" lon="0.19638">
        <ele>819.06</ele>
        <time>2018-08-07T09:08:28Z</time>
      </trkpt>
      <trkpt lat="42.45463" lon="0.1963">
        <ele>818.08</ele>
        <time>2018-08-07T09:08:29Z</time>
      </trkpt>
      <trkpt lat="42.45477" lon="0.19616">
        <ele>817.08</ele>
        <time>2018-08-07T09:08:30Z</time>
      </trkpt>
      <trkpt lat="42.45507" lon="0.19584">
        <ele>816.49</ele>
        <time>2018-08-07T09:08:32Z</time>
      </trkpt>
      <trkpt lat="42.45521" lon="0.19564">
        <ele>818.01</ele>
        <time>2018-08-07T09:08:33Z</time>
      </trkpt>
      <trkpt lat="42.45534" lon="0.19547">
        <ele>819.16</ele>
        <time>2018-08-07T09:08:34Z</time>
      </trkpt>
      <trkpt lat="42.45548" lon="0.19531">
        <ele>820.21</ele>
        <time>2018-08-07T09:08:35Z</time>
      </trkpt>
      <trkpt lat="42.45564" lon="0.19516">
        <ele>821.92</ele>
        <time>2018-08-07T09:08:36Z</time>
      </trkpt>
      <trkpt lat="42.45579" lon="0.19501">
        <ele>823.84</ele>
        <time>2018-08-07T09:08:37Z</time>
      </trkpt>
      <trkpt lat="42.45596" lon="0.19487">
        <ele>825.11</ele>
        <time>2018-08-07T09:08:38Z</time>
      </trkpt>
      <trkpt lat="42.45612" lon="0.19474">
        <ele>826.89</ele>
        <time>2018-08-07T09:08:39Z</time>
      </trkpt>
      <trkpt lat="42.45628" lon="0.19461">
        <ele>828.13</ele>
        <time>2018-08-07T09:08:40Z</time>
      </trkpt>
      <trkpt lat="42.45654" lon="0.19435">
        <ele>830.71</ele>
        <time>2018-08-07T09:08:42Z</time>
      </trkpt>
      <trkpt lat="42.45677" lon="0.19401">
        <ele>834.79</ele>
        <time>2018-08-07T09:08:44Z</time>
      </trkpt>
      <trkpt lat="42.45697" lon="0.19363">
        <ele>838.1</ele>
        <time>2018-08-07T09:08:46Z</time>
      </trkpt>
      <trkpt lat="42.45712" lon="0.19325">
        <ele>842.53</ele>
        <time>2018-08-07T09:08:48Z</time>
      </trkpt>
      <trkpt lat="42.4573" lon="0.19291">
        <ele>846.78</ele>
        <time>2018-08-07T09:08:50Z</time>
      </trkpt>
      <trkpt lat="42.45754" lon="0.19265">
        <ele>849.89</ele>
        <time>2018-08-07T09:08:52Z</time>
      </trkpt>
      <trkpt lat="42.45777" lon="0.19251">
        <ele>851.5</ele>
        <time>2018-08-07T09:08:54Z</time>
      </trkpt>
      <trkpt lat="42.45796" lon="0.19266">
        <ele>853.25</ele>
        <time>2018-08-07T09:08:56Z</time>
      </trkpt>
      <trkpt lat="42.4582" lon="0.19274">
        <ele>854.53</ele>
        <time>2018-08-07T09:08:58Z</time>
      </trkpt>
      <trkpt lat="42.45846" lon="0.19271">
        <ele>855.35</ele>
        <time>2018-08-07T09:09:00Z</time>
      </trkpt>
      <trkpt lat="42.45868" lon="0.19268">
        <ele>856.54</ele>
        <time>2018-08-07T09:09:02Z</time>
      </trkpt>
      <trkpt lat="42.45887" lon="0.19247">
        <ele>858.26</ele>
        <time>2018-08-07T09:09:05Z</time>
      </trkpt>
      <trkpt lat="42.45879" lon="0.19219">
        <ele>859.62</ele>
        <time>2018-08-07T09:09:08Z</time>
      </trkpt>
      <trkpt lat="42.45856" lon="0.1921">
        <ele>860.63</ele>
        <time>2018-08-07T09:09:11Z</time>
      </trkpt>
      <trkpt lat="42.45845" lon="0.1919">
        <ele>862.27</ele>
        <time>2018-08-07T09:09:13Z</time>
      </trkpt>
      <trkpt lat="42.45841" lon="0.19165">
        <ele>862.41</ele>
        <time>2018-08-07T09:09:15Z</time>
      </trkpt>
      <trkpt lat="42.45856" lon="0.19138">
        <ele>863.41</ele>
        <time>2018-08-07T09:09:18Z</time>
      </trkpt>
      <trkpt lat="42.45874" lon="0.19123">
        <ele>865.25</ele>
        <time>2018-08-07T09:09:20Z</time>
      </trkpt>
      <trkpt lat="42.45896" lon="0.19108">
        <ele>867.44</ele>
        <time>2018-08-07T09:09:22Z</time>
      </trkpt>
      <trkpt lat="42.45918" lon="0.19091">
        <ele>869.46</ele>
        <time>2018-08-07T09:09:24Z</time>
      </trkpt>
      <trkpt lat="42.4594" lon="0.19073">
        <ele>871.95</ele>
        <time>2018-08-07T09:09:26Z</time>
      </trkpt>
      <trkpt lat="42.45958" lon="0.19051">
        <ele>873.99</ele>
        <time>2018-08-07T09:09:28Z</time>
      </trkpt>
      <trkpt lat="42.45974" lon="0.19024">
        <ele>876.42</ele>
        <time>2018-08-07T09:09:30Z</time>
      </trkpt>
      <trkpt lat="42.45981" lon="0.18996">
        <ele>879.86</ele>
        <time>2018-08-07T09:09:32Z</time>
      </trkpt>
      <trkpt lat="42.45984" lon="0.18966">
        <ele>883.11</ele>
        <time>2018-08-07T09:09:34Z</time>
      </trkpt>
      <trkpt lat="42.45986" lon="0.18937">
        <ele>885.43</ele>
        <time>2018-08-07T09:09:36Z</time>
      </trkpt>
      <trkpt lat="42.45994" lon="0.18911">
        <ele>887.25</ele>
        <time>2018-08-07T09:09:38Z</time>
      </trkpt>
      <trkpt lat="42.46005" lon="0.18885">
        <ele>888.53</ele>
        <time>2018-08-07T09:09:40Z</time>
      </trkpt>
      <trkpt lat="42.46014" lon="0.18858">
        <ele>890.26</ele>
        <time>2018-08-07T09:09:42Z</time>
      </trkpt>
      <trkpt lat="42.46025" lon="0.18831">
        <ele>891.53</ele>
        <time>2018-08-07T09:09:44Z</time>
      </trkpt>
      <trkpt lat="42.46037" lon="0.18809">
        <ele>893.26</ele>
        <time>2018-08-07T09:09:46Z</time>
      </trkpt>
      <trkpt lat="42.46051" lon="0.18786">
        <ele>894.53</ele>
        <time>2018-08-07T09:09:48Z</time>
      </trkpt>
      <trkpt lat="42.46068" lon="0.1876">
        <ele>894.65</ele>
        <time>2018-08-07T09:09:50Z</time>
      </trkpt>
      <trkpt lat="42.46087" lon="0.18733">
        <ele>895.57</ele>
        <time>2018-08-07T09:09:52Z</time>
      </trkpt>
      <trkpt lat="42.46108" lon="0.18708">
        <ele>896.56</ele>
        <time>2018-08-07T09:09:54Z</time>
      </trkpt>
      <trkpt lat="42.46129" lon="0.18681">
        <ele>896.65</ele>
        <time>2018-08-07T09:09:56Z</time>
      </trkpt>
      <trkpt lat="42.46147" lon="0.18651">
        <ele>895.96</ele>
        <time>2018-08-07T09:09:58Z</time>
      </trkpt>
      <trkpt lat="42.46159" lon="0.18619">
        <ele>894.77</ele>
        <time>2018-08-07T09:10:00Z</time>
      </trkpt>
      <trkpt lat="42.46173" lon="0.1859">
        <ele>893.97</ele>
        <time>2018-08-07T09:10:02Z</time>
      </trkpt>
      <trkpt lat="42.46193" lon="0.18564">
        <ele>893.69</ele>
        <time>2018-08-07T09:10:04Z</time>
      </trkpt>
      <trkpt lat="42.46211" lon="0.18542">
        <ele>894.57</ele>
        <time>2018-08-07T09:10:06Z</time>
      </trkpt>
      <trkpt lat="42.46229" lon="0.18526">
        <ele>893.74</ele>
        <time>2018-08-07T09:10:08Z</time>
      </trkpt>
      <trkpt lat="42.46248" lon="0.18508">
        <ele>893.67</ele>
        <time>2018-08-07T09:10:10Z</time>
      </trkpt>
      <trkpt lat="42.46266" lon="0.18487">
        <ele>892.05</ele>
        <time>2018-08-07T09:10:12Z</time>
      </trkpt>
      <trkpt lat="42.46286" lon="0.18466">
        <ele>891.69</ele>
        <time>2018-08-07T09:10:14Z</time>
      </trkpt>
      <trkpt lat="42.46309" lon="0.18452">
        <ele>892.57</ele>
        <time>2018-08-07T09:10:16Z</time>
      </trkpt>
      <trkpt lat="42.46331" lon="0.18436">
        <ele>893.56</ele>
        <time>2018-08-07T09:10:18Z</time>
      </trkpt>
      <trkpt lat="42.46355" lon="0.18425">
        <ele>893.65</ele>
        <time>2018-08-07T09:10:20Z</time>
      </trkpt>
      <trkpt lat="42.4638" lon="0.18416">
        <ele>894.36</ele>
        <time>2018-08-07T09:10:22Z</time>
      </trkpt>
      <trkpt lat="42.46403" lon="0.18402">
        <ele>894.63</ele>
        <time>2018-08-07T09:10:24Z</time>
      </trkpt>
      <trkpt lat="42.46425" lon="0.18383">
        <ele>895.57</ele>
        <time>2018-08-07T09:10:26Z</time>
      </trkpt>
      <trkpt lat="42.46448" lon="0.18364">
        <ele>895.86</ele>
        <time>2018-08-07T09:10:28Z</time>
      </trkpt>
      <trkpt lat="42.46473" lon="0.18345">
        <ele>894.98</ele>
        <time>2018-08-07T09:10:30Z</time>
      </trkpt>
      <trkpt lat="42.46495" lon="0.1832">
        <ele>892.38</ele>
        <time>2018-08-07T09:10:32Z</time>
      </trkpt>
      <trkpt lat="42.46514" lon="0.1829">
        <ele>892.63</ele>
        <time>2018-08-07T09:10:34Z</time>
      </trkpt>
      <trkpt lat="42.46535" lon="0.18261">
        <ele>891.96</ele>
        <time>2018-08-07T09:10:36Z</time>
      </trkpt>
      <trkpt lat="42.46557" lon="0.18231">
        <ele>890.98</ele>
        <time>2018-08-07T09:10:38Z</time>
      </trkpt>
      <trkpt lat="42.46576" lon="0.18197">
        <ele>890.69</ele>
        <time>2018-08-07T09:10:40Z</time>
      </trkpt>
      <trkpt lat="42.46596" lon="0.18162">
        <ele>889.05</ele>
        <time>2018-08-07T09:10:42Z</time>
      </trkpt>
      <trkpt lat="42.46616" lon="0.18128">
        <ele>889.6</ele>
        <time>2018-08-07T09:10:44Z</time>
      </trkpt>
      <trkpt lat="42.46636" lon="0.18092">
        <ele>889.65</ele>
        <time>2018-08-07T09:10:46Z</time>
      </trkpt>
      <trkpt lat="42.46652" lon="0.18057">
        <ele>888.75</ele>
        <time>2018-08-07T09:10:48Z</time>
      </trkpt>
      <trkpt lat="42.46668" lon="0.18019">
        <ele>887.97</ele>
        <time>2018-08-07T09:10:50Z</time>
      </trkpt>
      <trkpt lat="42.46687" lon="0.17987">
        <ele>886.08</ele>
        <time>2018-08-07T09:10:52Z</time>
      </trkpt>
      <trkpt lat="42.46702" lon="0.17955">
        <ele>885</ele>
        <time>2018-08-07T09:10:54Z</time>
      </trkpt>
      <trkpt lat="42.46713" lon="0.17918">
        <ele>882.17</ele>
        <time>2018-08-07T09:10:56Z</time>
      </trkpt>
      <trkpt lat="42.46726" lon="0.17889">
        <ele>880.3</ele>
        <time>2018-08-07T09:10:58Z</time>
      </trkpt>
      <trkpt lat="42.46741" lon="0.17869">
        <ele>879.02</ele>
        <time>2018-08-07T09:11:00Z</time>
      </trkpt>
      <trkpt lat="42.4676" lon="0.17868">
        <ele>877.29</ele>
        <time>2018-08-07T09:11:02Z</time>
      </trkpt>
      <trkpt lat="42.46764" lon="0.17838">
        <ele>876.87</ele>
        <time>2018-08-07T09:11:06Z</time>
      </trkpt>
      <trkpt lat="42.46754" lon="0.17813">
        <ele>877.59</ele>
        <time>2018-08-07T09:11:08Z</time>
      </trkpt>
      <trkpt lat="42.46751" lon="0.17786">
        <ele>876.95</ele>
        <time>2018-08-07T09:11:10Z</time>
      </trkpt>
      <trkpt lat="42.46761" lon="0.17761">
        <ele>875.98</ele>
        <time>2018-08-07T09:11:12Z</time>
      </trkpt>
      <trkpt lat="42.46776" lon="0.17731">
        <ele>874.99</ele>
        <time>2018-08-07T09:11:14Z</time>
      </trkpt>
      <trkpt lat="42.46786" lon="0.17696">
        <ele>874.9</ele>
        <time>2018-08-07T09:11:16Z</time>
      </trkpt>
      <trkpt lat="42.46796" lon="0.1766">
        <ele>873.98</ele>
        <time>2018-08-07T09:11:18Z</time>
      </trkpt>
      <trkpt lat="42.46809" lon="0.17628">
        <ele>872.99</ele>
        <time>2018-08-07T09:11:20Z</time>
      </trkpt>
      <trkpt lat="42.46829" lon="0.17613">
        <ele>871.99</ele>
        <time>2018-08-07T09:11:22Z</time>
      </trkpt>
      <trkpt lat="42.46852" lon="0.17612">
        <ele>870.78</ele>
        <time>2018-08-07T09:11:24Z</time>
      </trkpt>
      <trkpt lat="42.46878" lon="0.17621">
        <ele>869.06</ele>
        <time>2018-08-07T09:11:26Z</time>
      </trkpt>
      <trkpt lat="42.46906" lon="0.17625">
        <ele>867.99</ele>
        <time>2018-08-07T09:11:28Z</time>
      </trkpt>
      <trkpt lat="42.46932" lon="0.17619">
        <ele>867.69</ele>
        <time>2018-08-07T09:11:30Z</time>
      </trkpt>
      <trkpt lat="42.46951" lon="0.176">
        <ele>866.96</ele>
        <time>2018-08-07T09:11:32Z</time>
      </trkpt>
      <trkpt lat="42.46973" lon="0.17592">
        <ele>865.78</ele>
        <time>2018-08-07T09:11:34Z</time>
      </trkpt>
      <trkpt lat="42.46996" lon="0.17594">
        <ele>864.97</ele>
        <time>2018-08-07T09:11:36Z</time>
      </trkpt>
      <trkpt lat="42.47013" lon="0.17613">
        <ele>863.29</ele>
        <time>2018-08-07T09:11:38Z</time>
      </trkpt>
      <trkpt lat="42.47033" lon="0.17621">
        <ele>861.8</ele>
        <time>2018-08-07T09:11:40Z</time>
      </trkpt>
      <trkpt lat="42.47056" lon="0.17613">
        <ele>860.97</ele>
        <time>2018-08-07T09:11:42Z</time>
      </trkpt>
      <trkpt lat="42.4707" lon="0.17595">
        <ele>860.05</ele>
        <time>2018-08-07T09:11:43Z</time>
      </trkpt>
      <trkpt lat="42.47095" lon="0.17572">
        <ele>858.99</ele>
        <time>2018-08-07T09:11:45Z</time>
      </trkpt>
      <trkpt lat="42.47121" lon="0.17551">
        <ele>857.08</ele>
        <time>2018-08-07T09:11:47Z</time>
      </trkpt>
      <trkpt lat="42.47143" lon="0.17529">
        <ele>856.7</ele>
        <time>2018-08-07T09:11:49Z</time>
      </trkpt>
      <trkpt lat="42.4717" lon="0.1752">
        <ele>855.75</ele>
        <time>2018-08-07T09:11:51Z</time>
      </trkpt>
      <trkpt lat="42.47198" lon="0.17516">
        <ele>854.97</ele>
        <time>2018-08-07T09:11:53Z</time>
      </trkpt>
      <trkpt lat="42.47227" lon="0.17515">
        <ele>853.08</ele>
        <time>2018-08-07T09:11:55Z</time>
      </trkpt>
      <trkpt lat="42.47257" lon="0.17521">
        <ele>852.7</ele>
        <time>2018-08-07T09:11:57Z</time>
      </trkpt>
      <trkpt lat="42.47282" lon="0.17536">
        <ele>850.56</ele>
        <time>2018-08-07T09:11:59Z</time>
      </trkpt>
      <trkpt lat="42.47299" lon="0.17551">
        <ele>848.83</ele>
        <time>2018-08-07T09:12:01Z</time>
      </trkpt>
      <trkpt lat="42.47318" lon="0.17535">
        <ele>847.69</ele>
        <time>2018-08-07T09:12:04Z</time>
      </trkpt>
      <trkpt lat="42.47328" lon="0.17503">
        <ele>845.78</ele>
        <time>2018-08-07T09:12:07Z</time>
      </trkpt>
      <trkpt lat="42.47345" lon="0.17484">
        <ele>843.36</ele>
        <time>2018-08-07T09:12:09Z</time>
      </trkpt>
      <trkpt lat="42.47363" lon="0.17471">
        <ele>842.02</ele>
        <time>2018-08-07T09:12:11Z</time>
      </trkpt>
      <trkpt lat="42.47388" lon="0.17482">
        <ele>839.78</ele>
        <time>2018-08-07T09:12:14Z</time>
      </trkpt>
      <trkpt lat="42.47411" lon="0.17476">
        <ele>838.69</ele>
        <time>2018-08-07T09:12:17Z</time>
      </trkpt>
      <trkpt lat="42.47421" lon="0.17444">
        <ele>841.82</ele>
        <time>2018-08-07T09:12:20Z</time>
      </trkpt>
      <trkpt lat="42.47443" lon="0.17426">
        <ele>844.31</ele>
        <time>2018-08-07T09:12:23Z</time>
      </trkpt>
      <trkpt lat="42.47461" lon="0.17415">
        <ele>845.41</ele>
        <time>2018-08-07T09:12:26Z</time>
      </trkpt>
      <trkpt lat="42.47478" lon="0.17403">
        <ele>845.9</ele>
        <time>2018-08-07T09:12:59Z</time>
      </trkpt>
      <trkpt lat="42.47499" lon="0.17388">
        <ele>846.68</ele>
        <time>2018-08-07T09:13:49Z</time>
      </trkpt>
      <trkpt lat="42.47518" lon="0.17372">
        <ele>847.63</ele>
        <time>2018-08-07T09:13:52Z</time>
      </trkpt>
      <trkpt lat="42.47534" lon="0.17348">
        <ele>847.59</ele>
        <time>2018-08-07T09:13:55Z</time>
      </trkpt>
      <trkpt lat="42.4754" lon="0.17323">
        <ele>849.48</ele>
        <time>2018-08-07T09:13:58Z</time>
      </trkpt>
      <trkpt lat="42.47554" lon="0.17298">
        <ele>850.59</ele>
        <time>2018-08-07T09:14:02Z</time>
      </trkpt>
      <trkpt lat="42.47571" lon="0.1729">
        <ele>849.68</ele>
        <time>2018-08-07T09:14:05Z</time>
      </trkpt>
      <trkpt lat="42.47592" lon="0.17284">
        <ele>848.75</ele>
        <time>2018-08-07T09:14:08Z</time>
      </trkpt>
      <trkpt lat="42.47617" lon="0.17279">
        <ele>849.63</ele>
        <time>2018-08-07T09:14:11Z</time>
      </trkpt>
      <trkpt lat="42.47635" lon="0.1727">
        <ele>848.96</ele>
        <time>2018-08-07T09:14:13Z</time>
      </trkpt>
      <trkpt lat="42.47651" lon="0.17251">
        <ele>848.68</ele>
        <time>2018-08-07T09:14:15Z</time>
      </trkpt>
      <trkpt lat="42.47671" lon="0.17235">
        <ele>848.66</ele>
        <time>2018-08-07T09:14:17Z</time>
      </trkpt>
      <trkpt lat="42.47693" lon="0.17225">
        <ele>848.66</ele>
        <time>2018-08-07T09:14:19Z</time>
      </trkpt>
      <trkpt lat="42.47709" lon="0.17205">
        <ele>849.36</ele>
        <time>2018-08-07T09:14:21Z</time>
      </trkpt>
      <trkpt lat="42.47723" lon="0.17188">
        <ele>850.54</ele>
        <time>2018-08-07T09:14:23Z</time>
      </trkpt>
      <trkpt lat="42.47743" lon="0.17181">
        <ele>851.35</ele>
        <time>2018-08-07T09:14:25Z</time>
      </trkpt>
      <trkpt lat="42.47768" lon="0.17174">
        <ele>852.54</ele>
        <time>2018-08-07T09:14:27Z</time>
      </trkpt>
      <trkpt lat="42.47792" lon="0.17158">
        <ele>854.96</ele>
        <time>2018-08-07T09:14:29Z</time>
      </trkpt>
      <trkpt lat="42.47816" lon="0.17136">
        <ele>856.5</ele>
        <time>2018-08-07T09:14:31Z</time>
      </trkpt>
      <trkpt lat="42.47839" lon="0.17116">
        <ele>858.25</ele>
        <time>2018-08-07T09:14:33Z</time>
      </trkpt>
      <trkpt lat="42.47867" lon="0.17108">
        <ele>859.53</ele>
        <time>2018-08-07T09:14:35Z</time>
      </trkpt>
      <trkpt lat="42.47899" lon="0.17102">
        <ele>859.86</ele>
        <time>2018-08-07T09:14:37Z</time>
      </trkpt>
      <trkpt lat="42.4793" lon="0.17095">
        <ele>861.29</ele>
        <time>2018-08-07T09:14:39Z</time>
      </trkpt>
      <trkpt lat="42.47957" lon="0.17088">
        <ele>862.32</ele>
        <time>2018-08-07T09:14:41Z</time>
      </trkpt>
      <trkpt lat="42.47983" lon="0.17081">
        <ele>861.72</ele>
        <time>2018-08-07T09:14:43Z</time>
      </trkpt>
      <trkpt lat="42.4801" lon="0.17075">
        <ele>862.57</ele>
        <time>2018-08-07T09:14:45Z</time>
      </trkpt>
      <trkpt lat="42.4804" lon="0.17068">
        <ele>862.65</ele>
        <time>2018-08-07T09:14:47Z</time>
      </trkpt>
      <trkpt lat="42.48066" lon="0.17051">
        <ele>864.27</ele>
        <time>2018-08-07T09:14:49Z</time>
      </trkpt>
      <trkpt lat="42.48094" lon="0.17042">
        <ele>866.23</ele>
        <time>2018-08-07T09:14:51Z</time>
      </trkpt>
      <trkpt lat="42.4812" lon="0.17045">
        <ele>868.02</ele>
        <time>2018-08-07T09:14:53Z</time>
      </trkpt>
      <trkpt lat="42.48143" lon="0.17062">
        <ele>870.21</ele>
        <time>2018-08-07T09:14:55Z</time>
      </trkpt>
      <trkpt lat="42.48166" lon="0.17073">
        <ele>872.23</ele>
        <time>2018-08-07T09:14:57Z</time>
      </trkpt>
      <trkpt lat="42.48191" lon="0.17083">
        <ele>874.23</ele>
        <time>2018-08-07T09:14:59Z</time>
      </trkpt>
      <trkpt lat="42.48214" lon="0.17098">
        <ele>876.23</ele>
        <time>2018-08-07T09:15:01Z</time>
      </trkpt>
      <trkpt lat="42.48239" lon="0.17114">
        <ele>878.23</ele>
        <time>2018-08-07T09:15:03Z</time>
      </trkpt>
      <trkpt lat="42.48259" lon="0.17141">
        <ele>880.44</ele>
        <time>2018-08-07T09:15:05Z</time>
      </trkpt>
      <trkpt lat="42.48272" lon="0.17174">
        <ele>882.25</ele>
        <time>2018-08-07T09:15:07Z</time>
      </trkpt>
      <trkpt lat="42.48284" lon="0.17207">
        <ele>884.23</ele>
        <time>2018-08-07T09:15:09Z</time>
      </trkpt>
      <trkpt lat="42.48299" lon="0.17236">
        <ele>887.14</ele>
        <time>2018-08-07T09:15:11Z</time>
      </trkpt>
      <trkpt lat="42.48323" lon="0.17245">
        <ele>888.52</ele>
        <time>2018-08-07T09:15:13Z</time>
      </trkpt>
      <trkpt lat="42.48347" lon="0.17244">
        <ele>888.65</ele>
        <time>2018-08-07T09:15:15Z</time>
      </trkpt>
      <trkpt lat="42.48372" lon="0.17231">
        <ele>890.27</ele>
        <time>2018-08-07T09:15:17Z</time>
      </trkpt>
      <trkpt lat="42.48398" lon="0.17227">
        <ele>892.23</ele>
        <time>2018-08-07T09:15:19Z</time>
      </trkpt>
      <trkpt lat="42.48421" lon="0.17224">
        <ele>893.32</ele>
        <time>2018-08-07T09:15:21Z</time>
      </trkpt>
      <trkpt lat="42.48438" lon="0.17202">
        <ele>893.14</ele>
        <time>2018-08-07T09:15:23Z</time>
      </trkpt>
      <trkpt lat="42.48451" lon="0.17164">
        <ele>895.01</ele>
        <time>2018-08-07T09:15:25Z</time>
      </trkpt>
      <trkpt lat="42.48462" lon="0.17131">
        <ele>896.51</ele>
        <time>2018-08-07T09:15:27Z</time>
      </trkpt>
      <trkpt lat="42.48474" lon="0.17104">
        <ele>898.25</ele>
        <time>2018-08-07T09:15:29Z</time>
      </trkpt>
      <trkpt lat="42.48488" lon="0.17082">
        <ele>898.83</ele>
        <time>2018-08-07T09:15:31Z</time>
      </trkpt>
      <trkpt lat="42.48505" lon="0.17066">
        <ele>898.25</ele>
        <time>2018-08-07T09:15:33Z</time>
      </trkpt>
      <trkpt lat="42.48525" lon="0.17052">
        <ele>897.71</ele>
        <time>2018-08-07T09:15:35Z</time>
      </trkpt>
      <trkpt lat="42.48542" lon="0.17039">
        <ele>898.57</ele>
        <time>2018-08-07T09:15:37Z</time>
      </trkpt>
      <trkpt lat="42.48559" lon="0.17028">
        <ele>898.66</ele>
        <time>2018-08-07T09:15:41Z</time>
      </trkpt>
      <trkpt lat="42.48575" lon="0.17018">
        <ele>898.45</ele>
        <time>2018-08-07T09:15:52Z</time>
      </trkpt>
      <trkpt lat="42.48593" lon="0.17005">
        <ele>900.42</ele>
        <time>2018-08-07T09:15:57Z</time>
      </trkpt>
      <trkpt lat="42.48576" lon="0.17017">
        <ele>902.24</ele>
        <time>2018-08-07T09:16:08Z</time>
      </trkpt>
      <trkpt lat="42.48558" lon="0.17025">
        <ele>902.65</ele>
        <time>2018-08-07T09:16:12Z</time>
      </trkpt>
      <trkpt lat="42.48537" lon="0.17033">
        <ele>901.75</ele>
        <time>2018-08-07T09:16:17Z</time>
      </trkpt>
      <trkpt lat="42.48521" lon="0.17043">
        <ele>900.98</ele>
        <time>2018-08-07T09:16:21Z</time>
      </trkpt>
      <trkpt lat="42.48504" lon="0.17057">
        <ele>897.31</ele>
        <time>2018-08-07T09:16:25Z</time>
      </trkpt>
      <trkpt lat="42.48484" lon="0.17065">
        <ele>893.25</ele>
        <time>2018-08-07T09:16:29Z</time>
      </trkpt>
      <trkpt lat="42.48468" lon="0.17077">
        <ele>892.66</ele>
        <time>2018-08-07T09:16:33Z</time>
      </trkpt>
      <trkpt lat="42.48454" lon="0.17097">
        <ele>891.05</ele>
        <time>2018-08-07T09:16:38Z</time>
      </trkpt>
      <trkpt lat="42.48444" lon="0.17122">
        <ele>886.11</ele>
        <time>2018-08-07T09:16:43Z</time>
      </trkpt>
      <trkpt lat="42.48436" lon="0.17148">
        <ele>882.08</ele>
        <time>2018-08-07T09:16:48Z</time>
      </trkpt>
      <trkpt lat="42.48429" lon="0.17121">
        <ele>880.57</ele>
        <time>2018-08-07T09:17:03Z</time>
      </trkpt>
      <trkpt lat="42.48434" lon="0.17097">
        <ele>879.68</ele>
        <time>2018-08-07T09:17:06Z</time>
      </trkpt>
      <trkpt lat="42.48439" lon="0.17068">
        <ele>876.08</ele>
        <time>2018-08-07T09:17:10Z</time>
      </trkpt>
      <trkpt lat="42.48423" lon="0.1709">
        <ele>872.75</ele>
        <time>2018-08-07T09:17:20Z</time>
      </trkpt>
      <trkpt lat="42.48413" lon="0.17116">
        <ele>872.39</ele>
        <time>2018-08-07T09:17:25Z</time>
      </trkpt>
      <trkpt lat="42.48403" lon="0.17136">
        <ele>870.69</ele>
        <time>2018-08-07T09:17:30Z</time>
      </trkpt>
      <trkpt lat="42.48386" lon="0.17148">
        <ele>869.71</ele>
        <time>2018-08-07T09:25:02Z</time>
      </trkpt>
      <trkpt lat="42.48404" lon="0.1714">
        <ele>869.96</ele>
        <time>2018-08-07T09:26:00Z</time>
      </trkpt>
      <trkpt lat="42.48417" lon="0.17116">
        <ele>870.57</ele>
        <time>2018-08-07T09:26:06Z</time>
      </trkpt>
      <trkpt lat="42.48425" lon="0.17088">
        <ele>872.54</ele>
        <time>2018-08-07T09:26:10Z</time>
      </trkpt>
      <trkpt lat="42.4843" lon="0.17064">
        <ele>871.68</ele>
        <time>2018-08-07T09:26:15Z</time>
      </trkpt>
      <trkpt lat="42.48434" lon="0.1709">
        <ele>875.63</ele>
        <time>2018-08-07T09:26:25Z</time>
      </trkpt>
      <trkpt lat="42.48431" lon="0.17115">
        <ele>877.38</ele>
        <time>2018-08-07T09:26:31Z</time>
      </trkpt>
      <trkpt lat="42.48426" lon="0.17139">
        <ele>878.45</ele>
        <time>2018-08-07T09:27:03Z</time>
      </trkpt>
      <trkpt lat="42.48423" lon="0.17165">
        <ele>881.56</ele>
        <time>2018-08-07T09:27:10Z</time>
      </trkpt>
      <trkpt lat="42.4844" lon="0.17147">
        <ele>885.31</ele>
        <time>2018-08-07T09:27:16Z</time>
      </trkpt>
      <trkpt lat="42.48448" lon="0.17123">
        <ele>886.35</ele>
        <time>2018-08-07T09:27:19Z</time>
      </trkpt>
      <trkpt lat="42.48456" lon="0.17097">
        <ele>887.65</ele>
        <time>2018-08-07T09:27:23Z</time>
      </trkpt>
      <trkpt lat="42.4847" lon="0.17074">
        <ele>888.65</ele>
        <time>2018-08-07T09:27:27Z</time>
      </trkpt>
      <trkpt lat="42.48488" lon="0.17062">
        <ele>888.66</ele>
        <time>2018-08-07T09:27:31Z</time>
      </trkpt>
      <trkpt lat="42.48506" lon="0.17056">
        <ele>889.65</ele>
        <time>2018-08-07T09:27:36Z</time>
      </trkpt>
      <trkpt lat="42.48525" lon="0.17047">
        <ele>889.75</ele>
        <time>2018-08-07T09:27:42Z</time>
      </trkpt>
      <trkpt lat="42.48543" lon="0.17037">
        <ele>891.35</ele>
        <time>2018-08-07T09:27:46Z</time>
      </trkpt>
      <trkpt lat="42.48561" lon="0.17031">
        <ele>891.51</ele>
        <time>2018-08-07T09:27:51Z</time>
      </trkpt>
      <trkpt lat="42.48581" lon="0.17026">
        <ele>890.51</ele>
        <time>2018-08-07T09:27:55Z</time>
      </trkpt>
      <trkpt lat="42.48598" lon="0.17013">
        <ele>893.65</ele>
        <time>2018-08-07T09:27:57Z</time>
      </trkpt>
      <trkpt lat="42.48623" lon="0.16999">
        <ele>896.39</ele>
        <time>2018-08-07T09:27:59Z</time>
      </trkpt>
      <trkpt lat="42.48655" lon="0.16994">
        <ele>897.33</ele>
        <time>2018-08-07T09:28:01Z</time>
      </trkpt>
      <trkpt lat="42.48686" lon="0.16995">
        <ele>898.33</ele>
        <time>2018-08-07T09:28:03Z</time>
      </trkpt>
      <trkpt lat="42.48712" lon="0.17">
        <ele>898.63</ele>
        <time>2018-08-07T09:28:05Z</time>
      </trkpt>
      <trkpt lat="42.48734" lon="0.16995">
        <ele>897.96</ele>
        <time>2018-08-07T09:28:07Z</time>
      </trkpt>
      <trkpt lat="42.48746" lon="0.16968">
        <ele>898.38</ele>
        <time>2018-08-07T09:28:09Z</time>
      </trkpt>
      <trkpt lat="42.48765" lon="0.16936">
        <ele>901.36</ele>
        <time>2018-08-07T09:28:11Z</time>
      </trkpt>
      <trkpt lat="42.48788" lon="0.16916">
        <ele>904.22</ele>
        <time>2018-08-07T09:28:13Z</time>
      </trkpt>
      <trkpt lat="42.48812" lon="0.16892">
        <ele>908.96</ele>
        <time>2018-08-07T09:28:15Z</time>
      </trkpt>
      <trkpt lat="42.4884" lon="0.16873">
        <ele>910.51</ele>
        <time>2018-08-07T09:28:17Z</time>
      </trkpt>
      <trkpt lat="42.48863" lon="0.16852">
        <ele>911.13</ele>
        <time>2018-08-07T09:28:19Z</time>
      </trkpt>
      <trkpt lat="42.48876" lon="0.16824">
        <ele>912.8</ele>
        <time>2018-08-07T09:28:21Z</time>
      </trkpt>
      <trkpt lat="42.48881" lon="0.16791">
        <ele>916.1</ele>
        <time>2018-08-07T09:28:23Z</time>
      </trkpt>
      <trkpt lat="42.48882" lon="0.16755">
        <ele>921.44</ele>
        <time>2018-08-07T09:28:25Z</time>
      </trkpt>
      <trkpt lat="42.48887" lon="0.16726">
        <ele>924.16</ele>
        <time>2018-08-07T09:28:27Z</time>
      </trkpt>
      <trkpt lat="42.48895" lon="0.16698">
        <ele>924.82</ele>
        <time>2018-08-07T09:28:29Z</time>
      </trkpt>
      <trkpt lat="42.48895" lon="0.1667">
        <ele>925.58</ele>
        <time>2018-08-07T09:28:31Z</time>
      </trkpt>
      <trkpt lat="42.48891" lon="0.16639">
        <ele>924.74</ele>
        <time>2018-08-07T09:28:33Z</time>
      </trkpt>
      <trkpt lat="42.48894" lon="0.16611">
        <ele>922.85</ele>
        <time>2018-08-07T09:28:35Z</time>
      </trkpt>
      <trkpt lat="42.48907" lon="0.16588">
        <ele>922.46</ele>
        <time>2018-08-07T09:28:37Z</time>
      </trkpt>
      <trkpt lat="42.48928" lon="0.16571">
        <ele>922.64</ele>
        <time>2018-08-07T09:28:39Z</time>
      </trkpt>
      <trkpt lat="42.48956" lon="0.16564">
        <ele>921.96</ele>
        <time>2018-08-07T09:28:41Z</time>
      </trkpt>
      <trkpt lat="42.48983" lon="0.1656">
        <ele>920.77</ele>
        <time>2018-08-07T09:28:43Z</time>
      </trkpt>
      <trkpt lat="42.49013" lon="0.16555">
        <ele>918.36</ele>
        <time>2018-08-07T09:28:45Z</time>
      </trkpt>
      <trkpt lat="42.49039" lon="0.16551">
        <ele>914.5</ele>
        <time>2018-08-07T09:28:47Z</time>
      </trkpt>
      <trkpt lat="42.49064" lon="0.16549">
        <ele>913.73</ele>
        <time>2018-08-07T09:28:49Z</time>
      </trkpt>
      <trkpt lat="42.4909" lon="0.16541">
        <ele>912.05</ele>
        <time>2018-08-07T09:28:51Z</time>
      </trkpt>
      <trkpt lat="42.49115" lon="0.16532">
        <ele>911.48</ele>
        <time>2018-08-07T09:28:53Z</time>
      </trkpt>
      <trkpt lat="42.49139" lon="0.16521">
        <ele>912.55</ele>
        <time>2018-08-07T09:28:55Z</time>
      </trkpt>
      <trkpt lat="42.49165" lon="0.1651">
        <ele>911.74</ele>
        <time>2018-08-07T09:28:57Z</time>
      </trkpt>
      <trkpt lat="42.49191" lon="0.165">
        <ele>910.97</ele>
        <time>2018-08-07T09:28:59Z</time>
      </trkpt>
      <trkpt lat="42.49217" lon="0.16492">
        <ele>910.69</ele>
        <time>2018-08-07T09:29:01Z</time>
      </trkpt>
      <trkpt lat="42.49239" lon="0.16487">
        <ele>909.96</ele>
        <time>2018-08-07T09:29:03Z</time>
      </trkpt>
      <trkpt lat="42.4926" lon="0.16488">
        <ele>909.48</ele>
        <time>2018-08-07T09:29:05Z</time>
      </trkpt>
      <trkpt lat="42.49281" lon="0.16491">
        <ele>908.94</ele>
        <time>2018-08-07T09:29:07Z</time>
      </trkpt>
      <trkpt lat="42.49303" lon="0.16491">
        <ele>908.68</ele>
        <time>2018-08-07T09:29:09Z</time>
      </trkpt>
      <trkpt lat="42.49328" lon="0.16486">
        <ele>905.65</ele>
        <time>2018-08-07T09:29:11Z</time>
      </trkpt>
      <trkpt lat="42.49353" lon="0.16477">
        <ele>903.14</ele>
        <time>2018-08-07T09:29:13Z</time>
      </trkpt>
      <trkpt lat="42.49378" lon="0.16467">
        <ele>903.61</ele>
        <time>2018-08-07T09:29:15Z</time>
      </trkpt>
      <trkpt lat="42.49403" lon="0.16454">
        <ele>903.44</ele>
        <time>2018-08-07T09:29:17Z</time>
      </trkpt>
      <trkpt lat="42.49428" lon="0.16437">
        <ele>902.94</ele>
        <time>2018-08-07T09:29:19Z</time>
      </trkpt>
      <trkpt lat="42.49453" lon="0.1642">
        <ele>902.68</ele>
        <time>2018-08-07T09:29:21Z</time>
      </trkpt>
      <trkpt lat="42.49481" lon="0.16408">
        <ele>901.96</ele>
        <time>2018-08-07T09:29:23Z</time>
      </trkpt>
      <trkpt lat="42.4951" lon="0.16401">
        <ele>900.78</ele>
        <time>2018-08-07T09:29:25Z</time>
      </trkpt>
      <trkpt lat="42.49542" lon="0.1641">
        <ele>900.67</ele>
        <time>2018-08-07T09:29:27Z</time>
      </trkpt>
      <trkpt lat="42.49572" lon="0.16426">
        <ele>898.84</ele>
        <time>2018-08-07T09:29:29Z</time>
      </trkpt>
      <trkpt lat="42.496" lon="0.16446">
        <ele>896.85</ele>
        <time>2018-08-07T09:29:31Z</time>
      </trkpt>
      <trkpt lat="42.49614" lon="0.16463">
        <ele>893.92</ele>
        <time>2018-08-07T09:29:32Z</time>
      </trkpt>
      <trkpt lat="42.49636" lon="0.16489">
        <ele>887.24</ele>
        <time>2018-08-07T09:29:34Z</time>
      </trkpt>
      <trkpt lat="42.49664" lon="0.16498">
        <ele>884.4</ele>
        <time>2018-08-07T09:29:36Z</time>
      </trkpt>
      <trkpt lat="42.49691" lon="0.16507">
        <ele>883.23</ele>
        <time>2018-08-07T09:29:38Z</time>
      </trkpt>
      <trkpt lat="42.49713" lon="0.16519">
        <ele>881.59</ele>
        <time>2018-08-07T09:29:40Z</time>
      </trkpt>
      <trkpt lat="42.49733" lon="0.16533">
        <ele>880.74</ele>
        <time>2018-08-07T09:29:42Z</time>
      </trkpt>
      <trkpt lat="42.4975" lon="0.16556">
        <ele>879.97</ele>
        <time>2018-08-07T09:29:44Z</time>
      </trkpt>
      <trkpt lat="42.49766" lon="0.16577">
        <ele>880.6</ele>
        <time>2018-08-07T09:29:46Z</time>
      </trkpt>
      <trkpt lat="42.49781" lon="0.16604">
        <ele>881.56</ele>
        <time>2018-08-07T09:29:48Z</time>
      </trkpt>
      <trkpt lat="42.49782" lon="0.16629">
        <ele>883.47</ele>
        <time>2018-08-07T09:29:50Z</time>
      </trkpt>
      <trkpt lat="42.4979" lon="0.16654">
        <ele>884.42</ele>
        <time>2018-08-07T09:29:53Z</time>
      </trkpt>
      <trkpt lat="42.49812" lon="0.16655">
        <ele>885.83</ele>
        <time>2018-08-07T09:29:56Z</time>
      </trkpt>
      <trkpt lat="42.49833" lon="0.1665">
        <ele>883.36</ele>
        <time>2018-08-07T09:29:58Z</time>
      </trkpt>
      <trkpt lat="42.49854" lon="0.16654">
        <ele>881.11</ele>
        <time>2018-08-07T09:30:00Z</time>
      </trkpt>
      <trkpt lat="42.4987" lon="0.1667">
        <ele>878.18</ele>
        <time>2018-08-07T09:30:02Z</time>
      </trkpt>
      <trkpt lat="42.49895" lon="0.16659">
        <ele>879.56</ele>
        <time>2018-08-07T09:30:05Z</time>
      </trkpt>
      <trkpt lat="42.49914" lon="0.16652">
        <ele>878.95</ele>
        <time>2018-08-07T09:30:07Z</time>
      </trkpt>
      <trkpt lat="42.49931" lon="0.1666">
        <ele>878.68</ele>
        <time>2018-08-07T09:30:09Z</time>
      </trkpt>
      <trkpt lat="42.49954" lon="0.16673">
        <ele>881.45</ele>
        <time>2018-08-07T09:30:12Z</time>
      </trkpt>
      <trkpt lat="42.49974" lon="0.16681">
        <ele>882.34</ele>
        <time>2018-08-07T09:30:14Z</time>
      </trkpt>
      <trkpt lat="42.49995" lon="0.16699">
        <ele>881.93</ele>
        <time>2018-08-07T09:30:16Z</time>
      </trkpt>
      <trkpt lat="42.50018" lon="0.16719">
        <ele>881.68</ele>
        <time>2018-08-07T09:30:18Z</time>
      </trkpt>
      <trkpt lat="42.50038" lon="0.16746">
        <ele>880.96</ele>
        <time>2018-08-07T09:30:20Z</time>
      </trkpt>
      <trkpt lat="42.50058" lon="0.16779">
        <ele>880.48</ele>
        <time>2018-08-07T09:30:22Z</time>
      </trkpt>
      <trkpt lat="42.50076" lon="0.16809">
        <ele>879.94</ele>
        <time>2018-08-07T09:30:24Z</time>
      </trkpt>
      <trkpt lat="42.50097" lon="0.16827">
        <ele>880.59</ele>
        <time>2018-08-07T09:30:26Z</time>
      </trkpt>
      <trkpt lat="42.50113" lon="0.16848">
        <ele>879.95</ele>
        <time>2018-08-07T09:30:28Z</time>
      </trkpt>
      <trkpt lat="42.50126" lon="0.16871">
        <ele>880.59</ele>
        <time>2018-08-07T09:30:30Z</time>
      </trkpt>
      <trkpt lat="42.50145" lon="0.16878">
        <ele>880.65</ele>
        <time>2018-08-07T09:30:32Z</time>
      </trkpt>
      <trkpt lat="42.50165" lon="0.16879">
        <ele>879.05</ele>
        <time>2018-08-07T09:30:34Z</time>
      </trkpt>
      <trkpt lat="42.50183" lon="0.16904">
        <ele>878.67</ele>
        <time>2018-08-07T09:30:37Z</time>
      </trkpt>
      <trkpt lat="42.50206" lon="0.16911">
        <ele>877.75</ele>
        <time>2018-08-07T09:30:40Z</time>
      </trkpt>
      <trkpt lat="42.50233" lon="0.16925">
        <ele>876.69</ele>
        <time>2018-08-07T09:30:43Z</time>
      </trkpt>
      <trkpt lat="42.50254" lon="0.16944">
        <ele>877.36</ele>
        <time>2018-08-07T09:30:45Z</time>
      </trkpt>
      <trkpt lat="42.50274" lon="0.1697">
        <ele>876.72</ele>
        <time>2018-08-07T09:30:47Z</time>
      </trkpt>
      <trkpt lat="42.50291" lon="0.16995">
        <ele>874.84</ele>
        <time>2018-08-07T09:30:49Z</time>
      </trkpt>
      <trkpt lat="42.50303" lon="0.17024">
        <ele>872.02</ele>
        <time>2018-08-07T09:30:52Z</time>
      </trkpt>
      <trkpt lat="42.50332" lon="0.17024">
        <ele>869.15</ele>
        <time>2018-08-07T09:30:55Z</time>
      </trkpt>
      <trkpt lat="42.50355" lon="0.17026">
        <ele>868.7</ele>
        <time>2018-08-07T09:30:57Z</time>
      </trkpt>
      <trkpt lat="42.50376" lon="0.17045">
        <ele>867.05</ele>
        <time>2018-08-07T09:30:59Z</time>
      </trkpt>
      <trkpt lat="42.50392" lon="0.17069">
        <ele>865.08</ele>
        <time>2018-08-07T09:31:01Z</time>
      </trkpt>
      <trkpt lat="42.50412" lon="0.17095">
        <ele>864.7</ele>
        <time>2018-08-07T09:31:03Z</time>
      </trkpt>
      <trkpt lat="42.50433" lon="0.17124">
        <ele>866.06</ele>
        <time>2018-08-07T09:31:05Z</time>
      </trkpt>
      <trkpt lat="42.50454" lon="0.17154">
        <ele>866.6</ele>
        <time>2018-08-07T09:31:07Z</time>
      </trkpt>
      <trkpt lat="42.50474" lon="0.17181">
        <ele>868.26</ele>
        <time>2018-08-07T09:31:09Z</time>
      </trkpt>
      <trkpt lat="42.50493" lon="0.17209">
        <ele>869.53</ele>
        <time>2018-08-07T09:31:11Z</time>
      </trkpt>
      <trkpt lat="42.50509" lon="0.17235">
        <ele>871.26</ele>
        <time>2018-08-07T09:31:13Z</time>
      </trkpt>
      <trkpt lat="42.50519" lon="0.17258">
        <ele>872.53</ele>
        <time>2018-08-07T09:31:15Z</time>
      </trkpt>
      <trkpt lat="42.50536" lon="0.1728">
        <ele>870.13</ele>
        <time>2018-08-07T09:31:18Z</time>
      </trkpt>
      <trkpt lat="42.50554" lon="0.17287">
        <ele>869.18</ele>
        <time>2018-08-07T09:31:22Z</time>
      </trkpt>
      <trkpt lat="42.50556" lon="0.17258">
        <ele>867.84</ele>
        <time>2018-08-07T09:31:28Z</time>
      </trkpt>
      <trkpt lat="42.50553" lon="0.17222">
        <ele>865.78</ele>
        <time>2018-08-07T09:31:31Z</time>
      </trkpt>
      <trkpt lat="42.50559" lon="0.17196">
        <ele>863.85</ele>
        <time>2018-08-07T09:31:33Z</time>
      </trkpt>
      <trkpt lat="42.5057" lon="0.17173">
        <ele>859.55</ele>
        <time>2018-08-07T09:31:35Z</time>
      </trkpt>
      <trkpt lat="42.50589" lon="0.17157">
        <ele>857.13</ele>
        <time>2018-08-07T09:31:37Z</time>
      </trkpt>
      <trkpt lat="42.5061" lon="0.17146">
        <ele>855.3</ele>
        <time>2018-08-07T09:31:39Z</time>
      </trkpt>
      <trkpt lat="42.5063" lon="0.1714">
        <ele>852.41</ele>
        <time>2018-08-07T09:31:41Z</time>
      </trkpt>
      <trkpt lat="42.50654" lon="0.17132">
        <ele>849.42</ele>
        <time>2018-08-07T09:31:43Z</time>
      </trkpt>
      <trkpt lat="42.50675" lon="0.17122">
        <ele>846.21</ele>
        <time>2018-08-07T09:31:45Z</time>
      </trkpt>
      <trkpt lat="42.50698" lon="0.17109">
        <ele>843.4</ele>
        <time>2018-08-07T09:31:47Z</time>
      </trkpt>
      <trkpt lat="42.50719" lon="0.17093">
        <ele>841.11</ele>
        <time>2018-08-07T09:31:49Z</time>
      </trkpt>
      <trkpt lat="42.50738" lon="0.17071">
        <ele>839.09</ele>
        <time>2018-08-07T09:31:51Z</time>
      </trkpt>
      <trkpt lat="42.50753" lon="0.17044">
        <ele>836.18</ele>
        <time>2018-08-07T09:31:53Z</time>
      </trkpt>
      <trkpt lat="42.50765" lon="0.17014">
        <ele>833.39</ele>
        <time>2018-08-07T09:31:55Z</time>
      </trkpt>
      <trkpt lat="42.5077" lon="0.1698">
        <ele>831.32</ele>
        <time>2018-08-07T09:31:57Z</time>
      </trkpt>
      <trkpt lat="42.5077" lon="0.16941">
        <ele>828.41</ele>
        <time>2018-08-07T09:31:59Z</time>
      </trkpt>
      <trkpt lat="42.50767" lon="0.16903">
        <ele>826.12</ele>
        <time>2018-08-07T09:32:01Z</time>
      </trkpt>
      <trkpt lat="42.50761" lon="0.1688">
        <ele>825.1</ele>
        <time>2018-08-07T09:32:02Z</time>
      </trkpt>
      <trkpt lat="42.50753" lon="0.16835">
        <ele>823.79</ele>
        <time>2018-08-07T09:32:04Z</time>
      </trkpt>
      <trkpt lat="42.50745" lon="0.16792">
        <ele>822.06</ele>
        <time>2018-08-07T09:32:06Z</time>
      </trkpt>
      <trkpt lat="42.50741" lon="0.16768">
        <ele>819.68</ele>
        <time>2018-08-07T09:32:07Z</time>
      </trkpt>
      <trkpt lat="42.50736" lon="0.16744">
        <ele>816.86</ele>
        <time>2018-08-07T09:32:08Z</time>
      </trkpt>
      <trkpt lat="42.50729" lon="0.16706">
        <ele>812.55</ele>
        <time>2018-08-07T09:32:10Z</time>
      </trkpt>
      <trkpt lat="42.50721" lon="0.16669">
        <ele>809.22</ele>
        <time>2018-08-07T09:32:12Z</time>
      </trkpt>
      <trkpt lat="42.50708" lon="0.16638">
        <ele>807.1</ele>
        <time>2018-08-07T09:32:14Z</time>
      </trkpt>
      <trkpt lat="42.5069" lon="0.16612">
        <ele>805.3</ele>
        <time>2018-08-07T09:32:16Z</time>
      </trkpt>
      <trkpt lat="42.50675" lon="0.16586">
        <ele>803.81</ele>
        <time>2018-08-07T09:32:18Z</time>
      </trkpt>
      <trkpt lat="42.50664" lon="0.16557">
        <ele>801.36</ele>
        <time>2018-08-07T09:32:20Z</time>
      </trkpt>
      <trkpt lat="42.50659" lon="0.16521">
        <ele>798.41</ele>
        <time>2018-08-07T09:32:22Z</time>
      </trkpt>
      <trkpt lat="42.50655" lon="0.16484">
        <ele>795.42</ele>
        <time>2018-08-07T09:32:24Z</time>
      </trkpt>
      <trkpt lat="42.50652" lon="0.16449">
        <ele>794.03</ele>
        <time>2018-08-07T09:32:26Z</time>
      </trkpt>
      <trkpt lat="42.50648" lon="0.16414">
        <ele>791.17</ele>
        <time>2018-08-07T09:32:28Z</time>
      </trkpt>
      <trkpt lat="42.50644" lon="0.1638">
        <ele>788.18</ele>
        <time>2018-08-07T09:32:30Z</time>
      </trkpt>
      <trkpt lat="42.50642" lon="0.16343">
        <ele>784.28</ele>
        <time>2018-08-07T09:32:32Z</time>
      </trkpt>
      <trkpt lat="42.50641" lon="0.16306">
        <ele>781.19</ele>
        <time>2018-08-07T09:32:34Z</time>
      </trkpt>
      <trkpt lat="42.5064" lon="0.16264">
        <ele>777.49</ele>
        <time>2018-08-07T09:32:36Z</time>
      </trkpt>
      <trkpt lat="42.50639" lon="0.16224">
        <ele>774.21</ele>
        <time>2018-08-07T09:32:38Z</time>
      </trkpt>
      <trkpt lat="42.50636" lon="0.16189">
        <ele>773.71</ele>
        <time>2018-08-07T09:32:40Z</time>
      </trkpt>
      <trkpt lat="42.50621" lon="0.1616">
        <ele>771.56</ele>
        <time>2018-08-07T09:32:42Z</time>
      </trkpt>
      <trkpt lat="42.50611" lon="0.16126">
        <ele>769.13</ele>
        <time>2018-08-07T09:32:44Z</time>
      </trkpt>
      <trkpt lat="42.50606" lon="0.16085">
        <ele>765.48</ele>
        <time>2018-08-07T09:32:46Z</time>
      </trkpt>
      <trkpt lat="42.506" lon="0.16041">
        <ele>760.81</ele>
        <time>2018-08-07T09:32:48Z</time>
      </trkpt>
      <trkpt lat="42.50595" lon="0.16">
        <ele>757.24</ele>
        <time>2018-08-07T09:32:50Z</time>
      </trkpt>
      <trkpt lat="42.5059" lon="0.1596">
        <ele>754.19</ele>
        <time>2018-08-07T09:32:52Z</time>
      </trkpt>
      <trkpt lat="42.50583" lon="0.1592">
        <ele>750.28</ele>
        <time>2018-08-07T09:32:54Z</time>
      </trkpt>
      <trkpt lat="42.50578" lon="0.15887">
        <ele>748.1</ele>
        <time>2018-08-07T09:32:56Z</time>
      </trkpt>
      <trkpt lat="42.50574" lon="0.15857">
        <ele>746.09</ele>
        <time>2018-08-07T09:32:58Z</time>
      </trkpt>
      <trkpt lat="42.50569" lon="0.15825">
        <ele>744.09</ele>
        <time>2018-08-07T09:33:00Z</time>
      </trkpt>
      <trkpt lat="42.5056" lon="0.15793">
        <ele>742.09</ele>
        <time>2018-08-07T09:33:02Z</time>
      </trkpt>
      <trkpt lat="42.50546" lon="0.15763">
        <ele>741</ele>
        <time>2018-08-07T09:33:04Z</time>
      </trkpt>
      <trkpt lat="42.5053" lon="0.15738">
        <ele>739.08</ele>
        <time>2018-08-07T09:33:06Z</time>
      </trkpt>
      <trkpt lat="42.50516" lon="0.15714">
        <ele>737.09</ele>
        <time>2018-08-07T09:33:08Z</time>
      </trkpt>
      <trkpt lat="42.50507" lon="0.15687">
        <ele>735.09</ele>
        <time>2018-08-07T09:33:10Z</time>
      </trkpt>
      <trkpt lat="42.50498" lon="0.15659">
        <ele>733.09</ele>
        <time>2018-08-07T09:33:12Z</time>
      </trkpt>
      <trkpt lat="42.50489" lon="0.15636">
        <ele>732</ele>
        <time>2018-08-07T09:33:14Z</time>
      </trkpt>
      <trkpt lat="42.50479" lon="0.15608">
        <ele>729.76</ele>
        <time>2018-08-07T09:33:18Z</time>
      </trkpt>
      <trkpt lat="42.5047" lon="0.15581">
        <ele>729.02</ele>
        <time>2018-08-07T09:33:21Z</time>
      </trkpt>
      <trkpt lat="42.5045" lon="0.15556">
        <ele>725.38</ele>
        <time>2018-08-07T09:33:24Z</time>
      </trkpt>
      <trkpt lat="42.50436" lon="0.15538">
        <ele>724.02</ele>
        <time>2018-08-07T09:33:26Z</time>
      </trkpt>
      <trkpt lat="42.50419" lon="0.15527">
        <ele>721.87</ele>
        <time>2018-08-07T09:33:28Z</time>
      </trkpt>
      <trkpt lat="42.504" lon="0.15519">
        <ele>720.07</ele>
        <time>2018-08-07T09:33:30Z</time>
      </trkpt>
      <trkpt lat="42.50382" lon="0.15507">
        <ele>719.69</ele>
        <time>2018-08-07T09:33:32Z</time>
      </trkpt>
      <trkpt lat="42.50363" lon="0.15495">
        <ele>718.96</ele>
        <time>2018-08-07T09:33:34Z</time>
      </trkpt>
      <trkpt lat="42.50342" lon="0.15484">
        <ele>719.37</ele>
        <time>2018-08-07T09:33:37Z</time>
      </trkpt>
      <trkpt lat="42.50324" lon="0.15473">
        <ele>716.76</ele>
        <time>2018-08-07T09:33:42Z</time>
      </trkpt>
      <trkpt lat="42.50314" lon="0.15446">
        <ele>716.93</ele>
        <time>2018-08-07T09:33:47Z</time>
      </trkpt>
      <trkpt lat="42.50307" lon="0.15419">
        <ele>716.91</ele>
        <time>2018-08-07T09:33:51Z</time>
      </trkpt>
      <trkpt lat="42.50293" lon="0.15403">
        <ele>715.71</ele>
        <time>2018-08-07T09:34:02Z</time>
      </trkpt>
      <trkpt lat="42.50275" lon="0.15391">
        <ele>713.76</ele>
        <time>2018-08-07T09:34:09Z</time>
      </trkpt>
      <trkpt lat="42.50293" lon="0.15405">
        <ele>716.52</ele>
        <time>2018-08-07T09:34:39Z</time>
      </trkpt>
      <trkpt lat="42.50312" lon="0.15392">
        <ele>715.96</ele>
        <time>2018-08-07T09:34:47Z</time>
      </trkpt>
      <trkpt lat="42.50321" lon="0.15369">
        <ele>719.15</ele>
        <time>2018-08-07T09:34:52Z</time>
      </trkpt>
      <trkpt lat="42.5031" lon="0.15349">
        <ele>716.85</ele>
        <time>2018-08-07T09:34:56Z</time>
      </trkpt>
      <trkpt lat="42.5029" lon="0.15355">
        <ele>713.46</ele>
        <time>2018-08-07T09:34:58Z</time>
      </trkpt>
      <trkpt lat="42.50269" lon="0.15353">
        <ele>711.82</ele>
        <time>2018-08-07T09:35:00Z</time>
      </trkpt>
      <trkpt lat="42.50247" lon="0.15346">
        <ele>711.67</ele>
        <time>2018-08-07T09:35:02Z</time>
      </trkpt>
      <trkpt lat="42.50222" lon="0.15334">
        <ele>710.05</ele>
        <time>2018-08-07T09:35:04Z</time>
      </trkpt>
      <trkpt lat="42.502" lon="0.15328">
        <ele>704.16</ele>
        <time>2018-08-07T09:35:06Z</time>
      </trkpt>
      <trkpt lat="42.50182" lon="0.15314">
        <ele>698.45</ele>
        <time>2018-08-07T09:35:08Z</time>
      </trkpt>
      <trkpt lat="42.50168" lon="0.15294">
        <ele>695.03</ele>
        <time>2018-08-07T09:35:11Z</time>
      </trkpt>
      <trkpt lat="42.50188" lon="0.15283">
        <ele>692.47</ele>
        <time>2018-08-07T09:35:15Z</time>
      </trkpt>
      <trkpt lat="42.50209" lon="0.15295">
        <ele>693.34</ele>
        <time>2018-08-07T09:35:17Z</time>
      </trkpt>
      <trkpt lat="42.50233" lon="0.15298">
        <ele>692.02</ele>
        <time>2018-08-07T09:35:19Z</time>
      </trkpt>
      <trkpt lat="42.50258" lon="0.15298">
        <ele>690.99</ele>
        <time>2018-08-07T09:35:21Z</time>
      </trkpt>
      <trkpt lat="42.50285" lon="0.15293">
        <ele>689.78</ele>
        <time>2018-08-07T09:35:23Z</time>
      </trkpt>
      <trkpt lat="42.50313" lon="0.15284">
        <ele>688.76</ele>
        <time>2018-08-07T09:35:25Z</time>
      </trkpt>
      <trkpt lat="42.50343" lon="0.15281">
        <ele>688.67</ele>
        <time>2018-08-07T09:35:27Z</time>
      </trkpt>
      <trkpt lat="42.50375" lon="0.15283">
        <ele>687.05</ele>
        <time>2018-08-07T09:35:29Z</time>
      </trkpt>
      <trkpt lat="42.50404" lon="0.1527">
        <ele>685.99</ele>
        <time>2018-08-07T09:35:31Z</time>
      </trkpt>
      <trkpt lat="42.50431" lon="0.15254">
        <ele>684.78</ele>
        <time>2018-08-07T09:35:33Z</time>
      </trkpt>
      <trkpt lat="42.50455" lon="0.15223">
        <ele>682.85</ele>
        <time>2018-08-07T09:35:35Z</time>
      </trkpt>
      <trkpt lat="42.50484" lon="0.15202">
        <ele>680.86</ele>
        <time>2018-08-07T09:35:37Z</time>
      </trkpt>
      <trkpt lat="42.50532" lon="0.1519">
        <ele>674.45</ele>
        <time>2018-08-07T09:35:41Z</time>
      </trkpt>
      <trkpt lat="42.50553" lon="0.152">
        <ele>671</ele>
        <time>2018-08-07T09:35:43Z</time>
      </trkpt>
      <trkpt lat="42.50567" lon="0.15216">
        <ele>667.47</ele>
        <time>2018-08-07T09:35:45Z</time>
      </trkpt>
      <trkpt lat="42.50588" lon="0.15221">
        <ele>665.33</ele>
        <time>2018-08-07T09:35:47Z</time>
      </trkpt>
      <trkpt lat="42.50613" lon="0.15235">
        <ele>662.2</ele>
        <time>2018-08-07T09:35:49Z</time>
      </trkpt>
      <trkpt lat="42.50632" lon="0.15259">
        <ele>660.8</ele>
        <time>2018-08-07T09:35:51Z</time>
      </trkpt>
      <trkpt lat="42.50654" lon="0.15266">
        <ele>659.75</ele>
        <time>2018-08-07T09:35:54Z</time>
      </trkpt>
      <trkpt lat="42.50653" lon="0.15231">
        <ele>658.96</ele>
        <time>2018-08-07T09:35:57Z</time>
      </trkpt>
      <trkpt lat="42.50638" lon="0.15204">
        <ele>657.08</ele>
        <time>2018-08-07T09:35:59Z</time>
      </trkpt>
      <trkpt lat="42.50619" lon="0.15171">
        <ele>655.09</ele>
        <time>2018-08-07T09:36:01Z</time>
      </trkpt>
      <trkpt lat="42.50596" lon="0.15133">
        <ele>653.3</ele>
        <time>2018-08-07T09:36:03Z</time>
      </trkpt>
      <trkpt lat="42.50574" lon="0.15097">
        <ele>647.4</ele>
        <time>2018-08-07T09:36:05Z</time>
      </trkpt>
      <trkpt lat="42.50558" lon="0.15058">
        <ele>642.38</ele>
        <time>2018-08-07T09:36:07Z</time>
      </trkpt>
      <trkpt lat="42.5055" lon="0.15017">
        <ele>639.41</ele>
        <time>2018-08-07T09:36:09Z</time>
      </trkpt>
      <trkpt lat="42.50547" lon="0.14978">
        <ele>635.72</ele>
        <time>2018-08-07T09:36:11Z</time>
      </trkpt>
      <trkpt lat="42.50554" lon="0.14938">
        <ele>631.74</ele>
        <time>2018-08-07T09:36:13Z</time>
      </trkpt>
      <trkpt lat="42.50566" lon="0.14898">
        <ele>628.45</ele>
        <time>2018-08-07T09:36:15Z</time>
      </trkpt>
      <trkpt lat="42.50579" lon="0.14854">
        <ele>625.42</ele>
        <time>2018-08-07T09:36:17Z</time>
      </trkpt>
      <trkpt lat="42.50583" lon="0.1483">
        <ele>624.19</ele>
        <time>2018-08-07T09:36:18Z</time>
      </trkpt>
      <trkpt lat="42.50585" lon="0.14804">
        <ele>623.82</ele>
        <time>2018-08-07T09:36:19Z</time>
      </trkpt>
      <trkpt lat="42.50587" lon="0.14778">
        <ele>623.01</ele>
        <time>2018-08-07T09:36:20Z</time>
      </trkpt>
      <trkpt lat="42.50589" lon="0.14753">
        <ele>622.76</ele>
        <time>2018-08-07T09:36:21Z</time>
      </trkpt>
      <trkpt lat="42.50591" lon="0.14727">
        <ele>622.69</ele>
        <time>2018-08-07T09:36:22Z</time>
      </trkpt>
      <trkpt lat="42.50593" lon="0.14702">
        <ele>622.67</ele>
        <time>2018-08-07T09:36:23Z</time>
      </trkpt>
      <trkpt lat="42.50594" lon="0.14677">
        <ele>621.96</ele>
        <time>2018-08-07T09:36:24Z</time>
      </trkpt>
      <trkpt lat="42.50596" lon="0.14651">
        <ele>621.05</ele>
        <time>2018-08-07T09:36:25Z</time>
      </trkpt>
      <trkpt lat="42.50597" lon="0.14625">
        <ele>620.78</ele>
        <time>2018-08-07T09:36:26Z</time>
      </trkpt>
      <trkpt lat="42.50599" lon="0.14598">
        <ele>619.99</ele>
        <time>2018-08-07T09:36:27Z</time>
      </trkpt>
      <trkpt lat="42.50601" lon="0.14571">
        <ele>619.76</ele>
        <time>2018-08-07T09:36:28Z</time>
      </trkpt>
      <trkpt lat="42.50602" lon="0.14545">
        <ele>619.69</ele>
        <time>2018-08-07T09:36:29Z</time>
      </trkpt>
      <trkpt lat="42.50603" lon="0.14517">
        <ele>619.67</ele>
        <time>2018-08-07T09:36:30Z</time>
      </trkpt>
      <trkpt lat="42.50605" lon="0.14493">
        <ele>619.66</ele>
        <time>2018-08-07T09:36:31Z</time>
      </trkpt>
      <trkpt lat="42.50609" lon="0.14449">
        <ele>619.66</ele>
        <time>2018-08-07T09:36:33Z</time>
      </trkpt>
      <trkpt lat="42.50612" lon="0.14416">
        <ele>619.66</ele>
        <time>2018-08-07T09:36:35Z</time>
      </trkpt>
      <trkpt lat="42.50622" lon="0.14387">
        <ele>617.08</ele>
        <time>2018-08-07T09:36:38Z</time>
      </trkpt>
      <trkpt lat="42.50644" lon="0.14385">
        <ele>620.44</ele>
        <time>2018-08-07T09:36:43Z</time>
      </trkpt>
      <trkpt lat="42.50667" lon="0.1439">
        <ele>622.11</ele>
        <time>2018-08-07T09:36:46Z</time>
      </trkpt>
      <trkpt lat="42.50703" lon="0.14406">
        <ele>622.61</ele>
        <time>2018-08-07T09:36:48Z</time>
      </trkpt>
      <trkpt lat="42.50722" lon="0.14419">
        <ele>622.64</ele>
        <time>2018-08-07T09:36:49Z</time>
      </trkpt>
      <trkpt lat="42.50741" lon="0.14432">
        <ele>621.95</ele>
        <time>2018-08-07T09:36:50Z</time>
      </trkpt>
      <trkpt lat="42.5076" lon="0.14444">
        <ele>621.75</ele>
        <time>2018-08-07T09:36:51Z</time>
      </trkpt>
      <trkpt lat="42.50779" lon="0.14456">
        <ele>621.68</ele>
        <time>2018-08-07T09:36:52Z</time>
      </trkpt>
      <trkpt lat="42.50798" lon="0.14467">
        <ele>620.97</ele>
        <time>2018-08-07T09:36:53Z</time>
      </trkpt>
      <trkpt lat="42.50817" lon="0.14476">
        <ele>620.75</ele>
        <time>2018-08-07T09:36:54Z</time>
      </trkpt>
      <trkpt lat="42.50836" lon="0.14484">
        <ele>620.69</ele>
        <time>2018-08-07T09:36:55Z</time>
      </trkpt>
      <trkpt lat="42.50854" lon="0.1449">
        <ele>621.37</ele>
        <time>2018-08-07T09:36:56Z</time>
      </trkpt>
      <trkpt lat="42.50872" lon="0.14491">
        <ele>621.57</ele>
        <time>2018-08-07T09:36:57Z</time>
      </trkpt>
      <trkpt lat="42.50892" lon="0.14487">
        <ele>621.63</ele>
        <time>2018-08-07T09:36:58Z</time>
      </trkpt>
      <trkpt lat="42.50911" lon="0.14482">
        <ele>623.05</ele>
        <time>2018-08-07T09:36:59Z</time>
      </trkpt>
      <trkpt lat="42.50931" lon="0.14474">
        <ele>623.48</ele>
        <time>2018-08-07T09:37:00Z</time>
      </trkpt>
      <trkpt lat="42.50949" lon="0.1446">
        <ele>622.9</ele>
        <time>2018-08-07T09:37:01Z</time>
      </trkpt>
      <trkpt lat="42.50969" lon="0.14436">
        <ele>622.73</ele>
        <time>2018-08-07T09:37:02Z</time>
      </trkpt>
      <trkpt lat="42.50984" lon="0.14396">
        <ele>623.38</ele>
        <time>2018-08-07T09:37:03Z</time>
      </trkpt>
      <trkpt lat="42.51005" lon="0.14375">
        <ele>623.57</ele>
        <time>2018-08-07T09:37:04Z</time>
      </trkpt>
      <trkpt lat="42.51026" lon="0.14354">
        <ele>622.93</ele>
        <time>2018-08-07T09:37:05Z</time>
      </trkpt>
      <trkpt lat="42.51047" lon="0.14339">
        <ele>622.74</ele>
        <time>2018-08-07T09:37:06Z</time>
      </trkpt>
      <trkpt lat="42.51071" lon="0.14328">
        <ele>622.68</ele>
        <time>2018-08-07T09:37:07Z</time>
      </trkpt>
      <trkpt lat="42.51096" lon="0.14325">
        <ele>621.97</ele>
        <time>2018-08-07T09:37:08Z</time>
      </trkpt>
      <trkpt lat="42.51132" lon="0.14344">
        <ele>622.45</ele>
        <time>2018-08-07T09:37:09Z</time>
      </trkpt>
      <trkpt lat="42.51161" lon="0.14351">
        <ele>622.6</ele>
        <time>2018-08-07T09:37:10Z</time>
      </trkpt>
      <trkpt lat="42.5119" lon="0.14357">
        <ele>622.64</ele>
        <time>2018-08-07T09:37:11Z</time>
      </trkpt>
      <trkpt lat="42.51218" lon="0.14364">
        <ele>622.65</ele>
        <time>2018-08-07T09:37:12Z</time>
      </trkpt>
      <trkpt lat="42.51247" lon="0.14371">
        <ele>623.36</ele>
        <time>2018-08-07T09:37:13Z</time>
      </trkpt>
      <trkpt lat="42.51277" lon="0.14377">
        <ele>623.57</ele>
        <time>2018-08-07T09:37:14Z</time>
      </trkpt>
      <trkpt lat="42.51304" lon="0.14381">
        <ele>623.63</ele>
        <time>2018-08-07T09:37:15Z</time>
      </trkpt>
      <trkpt lat="42.51332" lon="0.14381">
        <ele>624.35</ele>
        <time>2018-08-07T09:37:16Z</time>
      </trkpt>
      <trkpt lat="42.51364" lon="0.14373">
        <ele>623.87</ele>
        <time>2018-08-07T09:37:17Z</time>
      </trkpt>
      <trkpt lat="42.51393" lon="0.1437">
        <ele>623.72</ele>
        <time>2018-08-07T09:37:18Z</time>
      </trkpt>
      <trkpt lat="42.51423" lon="0.14364">
        <ele>623.68</ele>
        <time>2018-08-07T09:37:19Z</time>
      </trkpt>
      <trkpt lat="42.51451" lon="0.14358">
        <ele>623.66</ele>
        <time>2018-08-07T09:37:20Z</time>
      </trkpt>
      <trkpt lat="42.51479" lon="0.14351">
        <ele>623.66</ele>
        <time>2018-08-07T09:37:21Z</time>
      </trkpt>
      <trkpt lat="42.51509" lon="0.14343">
        <ele>623.66</ele>
        <time>2018-08-07T09:37:22Z</time>
      </trkpt>
      <trkpt lat="42.51536" lon="0.14334">
        <ele>623.66</ele>
        <time>2018-08-07T09:37:23Z</time>
      </trkpt>
      <trkpt lat="42.51563" lon="0.14325">
        <ele>623.66</ele>
        <time>2018-08-07T09:37:24Z</time>
      </trkpt>
      <trkpt lat="42.5159" lon="0.14316">
        <ele>623.66</ele>
        <time>2018-08-07T09:37:25Z</time>
      </trkpt>
      <trkpt lat="42.51617" lon="0.14304">
        <ele>623.66</ele>
        <time>2018-08-07T09:37:26Z</time>
      </trkpt>
      <trkpt lat="42.51642" lon="0.14292">
        <ele>623.66</ele>
        <time>2018-08-07T09:37:27Z</time>
      </trkpt>
      <trkpt lat="42.51668" lon="0.1428">
        <ele>622.96</ele>
        <time>2018-08-07T09:37:28Z</time>
      </trkpt>
      <trkpt lat="42.51691" lon="0.14262">
        <ele>623.45</ele>
        <time>2018-08-07T09:37:29Z</time>
      </trkpt>
      <trkpt lat="42.51712" lon="0.14242">
        <ele>622.9</ele>
        <time>2018-08-07T09:37:30Z</time>
      </trkpt>
      <trkpt lat="42.51732" lon="0.14219">
        <ele>623.43</ele>
        <time>2018-08-07T09:37:31Z</time>
      </trkpt>
      <trkpt lat="42.51746" lon="0.14184">
        <ele>622.89</ele>
        <time>2018-08-07T09:37:32Z</time>
      </trkpt>
      <trkpt lat="42.51764" lon="0.14152">
        <ele>622.73</ele>
        <time>2018-08-07T09:37:33Z</time>
      </trkpt>
      <trkpt lat="42.5178" lon="0.14121">
        <ele>622.68</ele>
        <time>2018-08-07T09:37:34Z</time>
      </trkpt>
      <trkpt lat="42.51797" lon="0.1409">
        <ele>624.06</ele>
        <time>2018-08-07T09:37:35Z</time>
      </trkpt>
      <trkpt lat="42.51815" lon="0.1406">
        <ele>624.48</ele>
        <time>2018-08-07T09:37:36Z</time>
      </trkpt>
      <trkpt lat="42.51836" lon="0.14036">
        <ele>625.3</ele>
        <time>2018-08-07T09:37:37Z</time>
      </trkpt>
      <trkpt lat="42.51859" lon="0.14014">
        <ele>625.55</ele>
        <time>2018-08-07T09:37:38Z</time>
      </trkpt>
      <trkpt lat="42.51883" lon="0.13994">
        <ele>625.63</ele>
        <time>2018-08-07T09:37:39Z</time>
      </trkpt>
      <trkpt lat="42.51908" lon="0.13978">
        <ele>625.65</ele>
        <time>2018-08-07T09:37:40Z</time>
      </trkpt>
      <trkpt lat="42.5194" lon="0.13972">
        <ele>625.66</ele>
        <time>2018-08-07T09:37:41Z</time>
      </trkpt>
      <trkpt lat="42.51976" lon="0.13967">
        <ele>625.66</ele>
        <time>2018-08-07T09:37:42Z</time>
      </trkpt>
      <trkpt lat="42.52008" lon="0.13984">
        <ele>625.66</ele>
        <time>2018-08-07T09:37:43Z</time>
      </trkpt>
      <trkpt lat="42.52033" lon="0.13995">
        <ele>627.06</ele>
        <time>2018-08-07T09:37:44Z</time>
      </trkpt>
      <trkpt lat="42.52059" lon="0.14002">
        <ele>626.78</ele>
        <time>2018-08-07T09:37:45Z</time>
      </trkpt>
      <trkpt lat="42.52085" lon="0.14015">
        <ele>628.09</ele>
        <time>2018-08-07T09:37:46Z</time>
      </trkpt>
      <trkpt lat="42.52108" lon="0.14035">
        <ele>628.49</ele>
        <time>2018-08-07T09:37:47Z</time>
      </trkpt>
      <trkpt lat="42.52133" lon="0.14053">
        <ele>628.61</ele>
        <time>2018-08-07T09:37:48Z</time>
      </trkpt>
      <trkpt lat="42.52159" lon="0.14073">
        <ele>627.94</ele>
        <time>2018-08-07T09:37:49Z</time>
      </trkpt>
      <trkpt lat="42.52179" lon="0.14101">
        <ele>627.04</ele>
        <time>2018-08-07T09:37:50Z</time>
      </trkpt>
      <trkpt lat="42.52187" lon="0.14139">
        <ele>626.07</ele>
        <time>2018-08-07T09:37:51Z</time>
      </trkpt>
      <trkpt lat="42.52196" lon="0.14179">
        <ele>625.08</ele>
        <time>2018-08-07T09:37:52Z</time>
      </trkpt>
      <trkpt lat="42.52208" lon="0.14216">
        <ele>625.49</ele>
        <time>2018-08-07T09:37:53Z</time>
      </trkpt>
      <trkpt lat="42.52206" lon="0.14264">
        <ele>626.31</ele>
        <time>2018-08-07T09:37:54Z</time>
      </trkpt>
      <trkpt lat="42.52213" lon="0.14303">
        <ele>626.55</ele>
        <time>2018-08-07T09:37:55Z</time>
      </trkpt>
      <trkpt lat="42.52223" lon="0.14339">
        <ele>628.03</ele>
        <time>2018-08-07T09:37:56Z</time>
      </trkpt>
      <trkpt lat="42.52234" lon="0.1437">
        <ele>628.47</ele>
        <time>2018-08-07T09:37:57Z</time>
      </trkpt>
      <trkpt lat="42.52254" lon="0.14388">
        <ele>627.9</ele>
        <time>2018-08-07T09:37:58Z</time>
      </trkpt>
      <trkpt lat="42.52272" lon="0.14409">
        <ele>627.73</ele>
        <time>2018-08-07T09:37:59Z</time>
      </trkpt>
      <trkpt lat="42.52294" lon="0.14427">
        <ele>627.68</ele>
        <time>2018-08-07T09:38:00Z</time>
      </trkpt>
      <trkpt lat="42.52314" lon="0.14442">
        <ele>628.36</ele>
        <time>2018-08-07T09:38:01Z</time>
      </trkpt>
      <trkpt lat="42.52344" lon="0.14456">
        <ele>629.27</ele>
        <time>2018-08-07T09:38:02Z</time>
      </trkpt>
      <trkpt lat="42.52379" lon="0.1446">
        <ele>629.54</ele>
        <time>2018-08-07T09:38:03Z</time>
      </trkpt>
      <trkpt lat="42.52415" lon="0.1446">
        <ele>629.62</ele>
        <time>2018-08-07T09:38:04Z</time>
      </trkpt>
      <trkpt lat="42.52446" lon="0.14468">
        <ele>629.65</ele>
        <time>2018-08-07T09:38:05Z</time>
      </trkpt>
      <trkpt lat="42.52476" lon="0.14476">
        <ele>629.65</ele>
        <time>2018-08-07T09:38:06Z</time>
      </trkpt>
      <trkpt lat="42.52506" lon="0.14484">
        <ele>630.36</ele>
        <time>2018-08-07T09:38:07Z</time>
      </trkpt>
      <trkpt lat="42.52534" lon="0.14494">
        <ele>631.97</ele>
        <time>2018-08-07T09:38:08Z</time>
      </trkpt>
      <trkpt lat="42.5256" lon="0.14502">
        <ele>632.45</ele>
        <time>2018-08-07T09:38:09Z</time>
      </trkpt>
      <trkpt lat="42.52584" lon="0.14508">
        <ele>634</ele>
        <time>2018-08-07T09:38:10Z</time>
      </trkpt>
      <trkpt lat="42.52607" lon="0.14515">
        <ele>635.16</ele>
        <time>2018-08-07T09:38:11Z</time>
      </trkpt>
      <trkpt lat="42.5263" lon="0.14525">
        <ele>636.91</ele>
        <time>2018-08-07T09:38:12Z</time>
      </trkpt>
      <trkpt lat="42.52651" lon="0.14533">
        <ele>637.43</ele>
        <time>2018-08-07T09:38:13Z</time>
      </trkpt>
      <trkpt lat="42.52671" lon="0.14541">
        <ele>637.59</ele>
        <time>2018-08-07T09:38:14Z</time>
      </trkpt>
      <trkpt lat="42.52705" lon="0.14558">
        <ele>637.65</ele>
        <time>2018-08-07T09:38:16Z</time>
      </trkpt>
      <trkpt lat="42.52722" lon="0.14568">
        <ele>638.36</ele>
        <time>2018-08-07T09:38:17Z</time>
      </trkpt>
      <trkpt lat="42.52753" lon="0.14587">
        <ele>639.33</ele>
        <time>2018-08-07T09:38:19Z</time>
      </trkpt>
      <trkpt lat="42.52781" lon="0.14606">
        <ele>641.03</ele>
        <time>2018-08-07T09:38:21Z</time>
      </trkpt>
      <trkpt lat="42.52801" lon="0.14623">
        <ele>642.3</ele>
        <time>2018-08-07T09:38:23Z</time>
      </trkpt>
      <trkpt lat="42.5282" lon="0.14642">
        <ele>641.72</ele>
        <time>2018-08-07T09:38:25Z</time>
      </trkpt>
      <trkpt lat="42.52839" lon="0.14665">
        <ele>642.36</ele>
        <time>2018-08-07T09:38:27Z</time>
      </trkpt>
      <trkpt lat="42.52855" lon="0.14702">
        <ele>642.63</ele>
        <time>2018-08-07T09:38:29Z</time>
      </trkpt>
      <trkpt lat="42.52862" lon="0.14728">
        <ele>642.65</ele>
        <time>2018-08-07T09:38:30Z</time>
      </trkpt>
      <trkpt lat="42.52858" lon="0.1476">
        <ele>641.26</ele>
        <time>2018-08-07T09:38:31Z</time>
      </trkpt>
      <trkpt lat="42.52863" lon="0.14784">
        <ele>641.54</ele>
        <time>2018-08-07T09:38:32Z</time>
      </trkpt>
      <trkpt lat="42.52869" lon="0.14808">
        <ele>641.62</ele>
        <time>2018-08-07T09:38:33Z</time>
      </trkpt>
      <trkpt lat="42.52875" lon="0.14831">
        <ele>641.65</ele>
        <time>2018-08-07T09:38:34Z</time>
      </trkpt>
      <trkpt lat="42.52885" lon="0.14852">
        <ele>641.65</ele>
        <time>2018-08-07T09:38:35Z</time>
      </trkpt>
      <trkpt lat="42.52898" lon="0.1487">
        <ele>641.66</ele>
        <time>2018-08-07T09:38:36Z</time>
      </trkpt>
      <trkpt lat="42.52913" lon="0.14885">
        <ele>641.66</ele>
        <time>2018-08-07T09:38:37Z</time>
      </trkpt>
      <trkpt lat="42.52932" lon="0.14896">
        <ele>643.06</ele>
        <time>2018-08-07T09:38:38Z</time>
      </trkpt>
      <trkpt lat="42.52952" lon="0.14909">
        <ele>643.48</ele>
        <time>2018-08-07T09:38:39Z</time>
      </trkpt>
      <trkpt lat="42.52973" lon="0.14923">
        <ele>645</ele>
        <time>2018-08-07T09:38:40Z</time>
      </trkpt>
      <trkpt lat="42.52993" lon="0.14939">
        <ele>646.16</ele>
        <time>2018-08-07T09:38:41Z</time>
      </trkpt>
      <trkpt lat="42.53011" lon="0.14955">
        <ele>646.51</ele>
        <time>2018-08-07T09:38:42Z</time>
      </trkpt>
      <trkpt lat="42.53024" lon="0.14975">
        <ele>646.61</ele>
        <time>2018-08-07T09:38:43Z</time>
      </trkpt>
      <trkpt lat="42.53034" lon="0.14997">
        <ele>645.94</ele>
        <time>2018-08-07T09:38:44Z</time>
      </trkpt>
      <trkpt lat="42.53044" lon="0.1502">
        <ele>645.74</ele>
        <time>2018-08-07T09:38:45Z</time>
      </trkpt>
      <trkpt lat="42.53046" lon="0.15046">
        <ele>646.38</ele>
        <time>2018-08-07T09:38:46Z</time>
      </trkpt>
      <trkpt lat="42.53049" lon="0.15071">
        <ele>645.88</ele>
        <time>2018-08-07T09:38:47Z</time>
      </trkpt>
      <trkpt lat="42.53053" lon="0.15095">
        <ele>645.02</ele>
        <time>2018-08-07T09:38:48Z</time>
      </trkpt>
      <trkpt lat="42.53059" lon="0.15118">
        <ele>644.07</ele>
        <time>2018-08-07T09:38:49Z</time>
      </trkpt>
      <trkpt lat="42.53068" lon="0.1514">
        <ele>643.78</ele>
        <time>2018-08-07T09:38:50Z</time>
      </trkpt>
      <trkpt lat="42.53078" lon="0.15162">
        <ele>642.99</ele>
        <time>2018-08-07T09:38:51Z</time>
      </trkpt>
      <trkpt lat="42.53089" lon="0.15181">
        <ele>642.76</ele>
        <time>2018-08-07T09:38:52Z</time>
      </trkpt>
      <trkpt lat="42.53108" lon="0.15194">
        <ele>641.99</ele>
        <time>2018-08-07T09:38:53Z</time>
      </trkpt>
      <trkpt lat="42.53123" lon="0.15208">
        <ele>641.76</ele>
        <time>2018-08-07T09:38:54Z</time>
      </trkpt>
      <trkpt lat="42.53139" lon="0.15222">
        <ele>641.69</ele>
        <time>2018-08-07T09:38:55Z</time>
      </trkpt>
      <trkpt lat="42.53154" lon="0.15236">
        <ele>642.37</ele>
        <time>2018-08-07T09:38:56Z</time>
      </trkpt>
      <trkpt lat="42.53169" lon="0.1525">
        <ele>641.87</ele>
        <time>2018-08-07T09:38:57Z</time>
      </trkpt>
      <trkpt lat="42.53183" lon="0.15265">
        <ele>641.72</ele>
        <time>2018-08-07T09:38:58Z</time>
      </trkpt>
      <trkpt lat="42.53197" lon="0.15281">
        <ele>641.68</ele>
        <time>2018-08-07T09:38:59Z</time>
      </trkpt>
      <trkpt lat="42.53219" lon="0.1532">
        <ele>643.76</ele>
        <time>2018-08-07T09:39:01Z</time>
      </trkpt>
      <trkpt lat="42.5323" lon="0.15339">
        <ele>644.39</ele>
        <time>2018-08-07T09:39:02Z</time>
      </trkpt>
      <trkpt lat="42.53254" lon="0.15372">
        <ele>644.42</ele>
        <time>2018-08-07T09:39:04Z</time>
      </trkpt>
      <trkpt lat="42.53281" lon="0.15393">
        <ele>644.64</ele>
        <time>2018-08-07T09:39:06Z</time>
      </trkpt>
      <trkpt lat="42.53312" lon="0.15407">
        <ele>645.57</ele>
        <time>2018-08-07T09:39:08Z</time>
      </trkpt>
      <trkpt lat="42.53342" lon="0.15425">
        <ele>645.65</ele>
        <time>2018-08-07T09:39:10Z</time>
      </trkpt>
      <trkpt lat="42.53366" lon="0.15452">
        <ele>645.66</ele>
        <time>2018-08-07T09:39:12Z</time>
      </trkpt>
      <trkpt lat="42.53383" lon="0.15488">
        <ele>646.57</ele>
        <time>2018-08-07T09:39:14Z</time>
      </trkpt>
      <trkpt lat="42.53392" lon="0.15531">
        <ele>647.35</ele>
        <time>2018-08-07T09:39:16Z</time>
      </trkpt>
      <trkpt lat="42.53397" lon="0.15573">
        <ele>649.24</ele>
        <time>2018-08-07T09:39:18Z</time>
      </trkpt>
      <trkpt lat="42.53401" lon="0.15613">
        <ele>650.53</ele>
        <time>2018-08-07T09:39:20Z</time>
      </trkpt>
      <trkpt lat="42.53412" lon="0.15649">
        <ele>651.56</ele>
        <time>2018-08-07T09:39:22Z</time>
      </trkpt>
      <trkpt lat="42.53433" lon="0.15679">
        <ele>651.65</ele>
        <time>2018-08-07T09:39:24Z</time>
      </trkpt>
      <trkpt lat="42.53456" lon="0.15706">
        <ele>651.66</ele>
        <time>2018-08-07T09:39:26Z</time>
      </trkpt>
      <trkpt lat="42.53479" lon="0.15715">
        <ele>651.66</ele>
        <time>2018-08-07T09:39:27Z</time>
      </trkpt>
      <trkpt lat="42.53497" lon="0.15726">
        <ele>651.66</ele>
        <time>2018-08-07T09:39:28Z</time>
      </trkpt>
      <trkpt lat="42.53515" lon="0.15737">
        <ele>651.66</ele>
        <time>2018-08-07T09:39:29Z</time>
      </trkpt>
      <trkpt lat="42.53535" lon="0.15747">
        <ele>650.96</ele>
        <time>2018-08-07T09:39:30Z</time>
      </trkpt>
      <trkpt lat="42.53554" lon="0.15757">
        <ele>650.75</ele>
        <time>2018-08-07T09:39:31Z</time>
      </trkpt>
      <trkpt lat="42.53573" lon="0.15765">
        <ele>650.68</ele>
        <time>2018-08-07T09:39:32Z</time>
      </trkpt>
      <trkpt lat="42.53592" lon="0.15771">
        <ele>650.67</ele>
        <time>2018-08-07T09:39:33Z</time>
      </trkpt>
      <trkpt lat="42.53611" lon="0.15776">
        <ele>650.66</ele>
        <time>2018-08-07T09:39:34Z</time>
      </trkpt>
      <trkpt lat="42.53633" lon="0.15777">
        <ele>651.36</ele>
        <time>2018-08-07T09:39:35Z</time>
      </trkpt>
      <trkpt lat="42.53661" lon="0.15773">
        <ele>650.87</ele>
        <time>2018-08-07T09:39:36Z</time>
      </trkpt>
      <trkpt lat="42.53697" lon="0.15761">
        <ele>650.02</ele>
        <time>2018-08-07T09:39:37Z</time>
      </trkpt>
      <trkpt lat="42.53725" lon="0.15757">
        <ele>649.77</ele>
        <time>2018-08-07T09:39:38Z</time>
      </trkpt>
      <trkpt lat="42.53752" lon="0.15756">
        <ele>651.09</ele>
        <time>2018-08-07T09:39:39Z</time>
      </trkpt>
      <trkpt lat="42.53778" lon="0.15753">
        <ele>650.79</ele>
        <time>2018-08-07T09:39:40Z</time>
      </trkpt>
      <trkpt lat="42.538" lon="0.15747">
        <ele>650</ele>
        <time>2018-08-07T09:39:41Z</time>
      </trkpt>
      <trkpt lat="42.53818" lon="0.15744">
        <ele>649.76</ele>
        <time>2018-08-07T09:39:42Z</time>
      </trkpt>
      <trkpt lat="42.53852" lon="0.15737">
        <ele>648.97</ele>
        <time>2018-08-07T09:39:44Z</time>
      </trkpt>
      <trkpt lat="42.53889" lon="0.15743">
        <ele>649.6</ele>
        <time>2018-08-07T09:39:46Z</time>
      </trkpt>
      <trkpt lat="42.53908" lon="0.1575">
        <ele>650.34</ele>
        <time>2018-08-07T09:39:47Z</time>
      </trkpt>
      <trkpt lat="42.53927" lon="0.15757">
        <ele>650.56</ele>
        <time>2018-08-07T09:39:48Z</time>
      </trkpt>
      <trkpt lat="42.5395" lon="0.15769">
        <ele>650.63</ele>
        <time>2018-08-07T09:39:49Z</time>
      </trkpt>
      <trkpt lat="42.53981" lon="0.15787">
        <ele>650.65</ele>
        <time>2018-08-07T09:39:50Z</time>
      </trkpt>
      <trkpt lat="42.54011" lon="0.15803">
        <ele>650.66</ele>
        <time>2018-08-07T09:39:51Z</time>
      </trkpt>
      <trkpt lat="42.54038" lon="0.15814">
        <ele>651.36</ele>
        <time>2018-08-07T09:39:52Z</time>
      </trkpt>
      <trkpt lat="42.54066" lon="0.15827">
        <ele>650.87</ele>
        <time>2018-08-07T09:39:53Z</time>
      </trkpt>
      <trkpt lat="42.54093" lon="0.15839">
        <ele>651.42</ele>
        <time>2018-08-07T09:39:54Z</time>
      </trkpt>
      <trkpt lat="42.54119" lon="0.15851">
        <ele>651.59</ele>
        <time>2018-08-07T09:39:55Z</time>
      </trkpt>
      <trkpt lat="42.54146" lon="0.15862">
        <ele>651.64</ele>
        <time>2018-08-07T09:39:56Z</time>
      </trkpt>
      <trkpt lat="42.5417" lon="0.15874">
        <ele>650.95</ele>
        <time>2018-08-07T09:39:57Z</time>
      </trkpt>
      <trkpt lat="42.54192" lon="0.15882">
        <ele>651.45</ele>
        <time>2018-08-07T09:39:58Z</time>
      </trkpt>
      <trkpt lat="42.54215" lon="0.15893">
        <ele>651.59</ele>
        <time>2018-08-07T09:39:59Z</time>
      </trkpt>
      <trkpt lat="42.54242" lon="0.15901">
        <ele>650.94</ele>
        <time>2018-08-07T09:40:00Z</time>
      </trkpt>
      <trkpt lat="42.54269" lon="0.1591">
        <ele>650.74</ele>
        <time>2018-08-07T09:40:01Z</time>
      </trkpt>
      <trkpt lat="42.54294" lon="0.15921">
        <ele>650.68</ele>
        <time>2018-08-07T09:40:02Z</time>
      </trkpt>
      <trkpt lat="42.54318" lon="0.15928">
        <ele>649.97</ele>
        <time>2018-08-07T09:40:03Z</time>
      </trkpt>
      <trkpt lat="42.54341" lon="0.15936">
        <ele>649.05</ele>
        <time>2018-08-07T09:40:04Z</time>
      </trkpt>
      <trkpt lat="42.5436" lon="0.15942">
        <ele>648.08</ele>
        <time>2018-08-07T09:40:05Z</time>
      </trkpt>
      <trkpt lat="42.54391" lon="0.15949">
        <ele>647.7</ele>
        <time>2018-08-07T09:40:07Z</time>
      </trkpt>
      <trkpt lat="42.54425" lon="0.15952">
        <ele>650.39</ele>
        <time>2018-08-07T09:40:09Z</time>
      </trkpt>
      <trkpt lat="42.54447" lon="0.15946">
        <ele>650.58</ele>
        <time>2018-08-07T09:40:10Z</time>
      </trkpt>
      <trkpt lat="42.54469" lon="0.15939">
        <ele>649.93</ele>
        <time>2018-08-07T09:40:11Z</time>
      </trkpt>
      <trkpt lat="42.54489" lon="0.15932">
        <ele>649.74</ele>
        <time>2018-08-07T09:40:12Z</time>
      </trkpt>
      <trkpt lat="42.5451" lon="0.15927">
        <ele>650.38</ele>
        <time>2018-08-07T09:40:13Z</time>
      </trkpt>
      <trkpt lat="42.54532" lon="0.15922">
        <ele>650.58</ele>
        <time>2018-08-07T09:40:14Z</time>
      </trkpt>
      <trkpt lat="42.54551" lon="0.15929">
        <ele>650.63</ele>
        <time>2018-08-07T09:40:15Z</time>
      </trkpt>
      <trkpt lat="42.54572" lon="0.15946">
        <ele>652.75</ele>
        <time>2018-08-07T09:40:16Z</time>
      </trkpt>
      <trkpt lat="42.54593" lon="0.15952">
        <ele>653.39</ele>
        <time>2018-08-07T09:40:17Z</time>
      </trkpt>
      <trkpt lat="42.54612" lon="0.15959">
        <ele>653.58</ele>
        <time>2018-08-07T09:40:18Z</time>
      </trkpt>
      <trkpt lat="42.54638" lon="0.15968">
        <ele>652.95</ele>
        <time>2018-08-07T09:40:20Z</time>
      </trkpt>
      <trkpt lat="42.54666" lon="0.15994">
        <ele>652.68</ele>
        <time>2018-08-07T09:40:22Z</time>
      </trkpt>
      <trkpt lat="42.54693" lon="0.16034">
        <ele>652.66</ele>
        <time>2018-08-07T09:40:24Z</time>
      </trkpt>
      <trkpt lat="42.54708" lon="0.16056">
        <ele>653.36</ele>
        <time>2018-08-07T09:40:25Z</time>
      </trkpt>
      <trkpt lat="42.54723" lon="0.16076">
        <ele>654.27</ele>
        <time>2018-08-07T09:40:26Z</time>
      </trkpt>
      <trkpt lat="42.54738" lon="0.16096">
        <ele>653.84</ele>
        <time>2018-08-07T09:40:27Z</time>
      </trkpt>
      <trkpt lat="42.54751" lon="0.16118">
        <ele>654.41</ele>
        <time>2018-08-07T09:40:28Z</time>
      </trkpt>
      <trkpt lat="42.54762" lon="0.16143">
        <ele>654.58</ele>
        <time>2018-08-07T09:40:29Z</time>
      </trkpt>
      <trkpt lat="42.5477" lon="0.1617">
        <ele>656.04</ele>
        <time>2018-08-07T09:40:30Z</time>
      </trkpt>
      <trkpt lat="42.54775" lon="0.16195">
        <ele>657.17</ele>
        <time>2018-08-07T09:40:31Z</time>
      </trkpt>
      <trkpt lat="42.54781" lon="0.16221">
        <ele>658.21</ele>
        <time>2018-08-07T09:40:32Z</time>
      </trkpt>
      <trkpt lat="42.54785" lon="0.16246">
        <ele>659.22</ele>
        <time>2018-08-07T09:40:33Z</time>
      </trkpt>
      <trkpt lat="42.54788" lon="0.16271">
        <ele>659.53</ele>
        <time>2018-08-07T09:40:34Z</time>
      </trkpt>
      <trkpt lat="42.54787" lon="0.16296">
        <ele>659.62</ele>
        <time>2018-08-07T09:40:35Z</time>
      </trkpt>
      <trkpt lat="42.54782" lon="0.16322">
        <ele>659.65</ele>
        <time>2018-08-07T09:40:36Z</time>
      </trkpt>
      <trkpt lat="42.54778" lon="0.16347">
        <ele>659.65</ele>
        <time>2018-08-07T09:40:37Z</time>
      </trkpt>
      <trkpt lat="42.54772" lon="0.16393">
        <ele>658.75</ele>
        <time>2018-08-07T09:40:39Z</time>
      </trkpt>
      <trkpt lat="42.54773" lon="0.16437">
        <ele>659.58</ele>
        <time>2018-08-07T09:40:41Z</time>
      </trkpt>
      <trkpt lat="42.54774" lon="0.16462">
        <ele>660.33</ele>
        <time>2018-08-07T09:40:42Z</time>
      </trkpt>
      <trkpt lat="42.54776" lon="0.16489">
        <ele>661.96</ele>
        <time>2018-08-07T09:40:43Z</time>
      </trkpt>
      <trkpt lat="42.54777" lon="0.16517">
        <ele>662.45</ele>
        <time>2018-08-07T09:40:44Z</time>
      </trkpt>
      <trkpt lat="42.5478" lon="0.16545">
        <ele>662.6</ele>
        <time>2018-08-07T09:40:45Z</time>
      </trkpt>
      <trkpt lat="42.54781" lon="0.16572">
        <ele>662.64</ele>
        <time>2018-08-07T09:40:46Z</time>
      </trkpt>
      <trkpt lat="42.54783" lon="0.16602">
        <ele>662.65</ele>
        <time>2018-08-07T09:40:47Z</time>
      </trkpt>
      <trkpt lat="42.54786" lon="0.16628">
        <ele>662.66</ele>
        <time>2018-08-07T09:40:48Z</time>
      </trkpt>
      <trkpt lat="42.5479" lon="0.16655">
        <ele>662.66</ele>
        <time>2018-08-07T09:40:49Z</time>
      </trkpt>
      <trkpt lat="42.54795" lon="0.16681">
        <ele>663.36</ele>
        <time>2018-08-07T09:40:50Z</time>
      </trkpt>
      <trkpt lat="42.548" lon="0.16706">
        <ele>664.27</ele>
        <time>2018-08-07T09:40:51Z</time>
      </trkpt>
      <trkpt lat="42.54806" lon="0.16731">
        <ele>665.24</ele>
        <time>2018-08-07T09:40:52Z</time>
      </trkpt>
      <trkpt lat="42.54812" lon="0.16756">
        <ele>665.53</ele>
        <time>2018-08-07T09:40:53Z</time>
      </trkpt>
      <trkpt lat="42.54818" lon="0.1678">
        <ele>666.32</ele>
        <time>2018-08-07T09:40:54Z</time>
      </trkpt>
      <trkpt lat="42.54824" lon="0.16804">
        <ele>667.26</ele>
        <time>2018-08-07T09:40:55Z</time>
      </trkpt>
      <trkpt lat="42.5483" lon="0.16827">
        <ele>668.24</ele>
        <time>2018-08-07T09:40:56Z</time>
      </trkpt>
      <trkpt lat="42.54836" lon="0.1685">
        <ele>669.23</ele>
        <time>2018-08-07T09:40:57Z</time>
      </trkpt>
      <trkpt lat="42.54843" lon="0.16874">
        <ele>669.53</ele>
        <time>2018-08-07T09:40:58Z</time>
      </trkpt>
      <trkpt lat="42.54849" lon="0.16897">
        <ele>670.32</ele>
        <time>2018-08-07T09:40:59Z</time>
      </trkpt>
      <trkpt lat="42.54856" lon="0.1692">
        <ele>671.26</ele>
        <time>2018-08-07T09:41:00Z</time>
      </trkpt>
      <trkpt lat="42.54863" lon="0.16944">
        <ele>671.54</ele>
        <time>2018-08-07T09:41:01Z</time>
      </trkpt>
      <trkpt lat="42.54869" lon="0.16968">
        <ele>671.62</ele>
        <time>2018-08-07T09:41:02Z</time>
      </trkpt>
      <trkpt lat="42.54876" lon="0.16992">
        <ele>671.65</ele>
        <time>2018-08-07T09:41:03Z</time>
      </trkpt>
      <trkpt lat="42.54883" lon="0.17016">
        <ele>671.65</ele>
        <time>2018-08-07T09:41:04Z</time>
      </trkpt>
      <trkpt lat="42.54889" lon="0.17042">
        <ele>671.66</ele>
        <time>2018-08-07T09:41:05Z</time>
      </trkpt>
      <trkpt lat="42.54893" lon="0.17068">
        <ele>670.96</ele>
        <time>2018-08-07T09:41:06Z</time>
      </trkpt>
      <trkpt lat="42.54897" lon="0.17096">
        <ele>670.75</ele>
        <time>2018-08-07T09:41:07Z</time>
      </trkpt>
      <trkpt lat="42.54899" lon="0.17124">
        <ele>669.98</ele>
        <time>2018-08-07T09:41:08Z</time>
      </trkpt>
      <trkpt lat="42.54893" lon="0.17159">
        <ele>669.76</ele>
        <time>2018-08-07T09:41:09Z</time>
      </trkpt>
      <trkpt lat="42.54883" lon="0.17191">
        <ele>668.99</ele>
        <time>2018-08-07T09:41:10Z</time>
      </trkpt>
      <trkpt lat="42.54866" lon="0.17223">
        <ele>668.76</ele>
        <time>2018-08-07T09:41:11Z</time>
      </trkpt>
      <trkpt lat="42.54845" lon="0.17256">
        <ele>667.29</ele>
        <time>2018-08-07T09:41:12Z</time>
      </trkpt>
      <trkpt lat="42.54817" lon="0.17272">
        <ele>667.55</ele>
        <time>2018-08-07T09:41:13Z</time>
      </trkpt>
      <trkpt lat="42.54797" lon="0.17294">
        <ele>668.32</ele>
        <time>2018-08-07T09:41:14Z</time>
      </trkpt>
      <trkpt lat="42.54778" lon="0.17317">
        <ele>668.56</ele>
        <time>2018-08-07T09:41:15Z</time>
      </trkpt>
      <trkpt lat="42.54756" lon="0.17336">
        <ele>668.63</ele>
        <time>2018-08-07T09:41:16Z</time>
      </trkpt>
      <trkpt lat="42.54733" lon="0.17346">
        <ele>667.95</ele>
        <time>2018-08-07T09:41:17Z</time>
      </trkpt>
      <trkpt lat="42.54709" lon="0.17346">
        <ele>667.75</ele>
        <time>2018-08-07T09:41:18Z</time>
      </trkpt>
      <trkpt lat="42.54686" lon="0.17354">
        <ele>667.68</ele>
        <time>2018-08-07T09:41:19Z</time>
      </trkpt>
      <trkpt lat="42.54665" lon="0.17361">
        <ele>667.67</ele>
        <time>2018-08-07T09:41:20Z</time>
      </trkpt>
      <trkpt lat="42.5465" lon="0.17377">
        <ele>668.36</ele>
        <time>2018-08-07T09:41:21Z</time>
      </trkpt>
      <trkpt lat="42.54634" lon="0.1739">
        <ele>668.57</ele>
        <time>2018-08-07T09:41:22Z</time>
      </trkpt>
      <trkpt lat="42.54621" lon="0.17409">
        <ele>668.63</ele>
        <time>2018-08-07T09:41:23Z</time>
      </trkpt>
      <trkpt lat="42.54608" lon="0.17425">
        <ele>669.35</ele>
        <time>2018-08-07T09:41:24Z</time>
      </trkpt>
      <trkpt lat="42.54599" lon="0.17446">
        <ele>668.87</ele>
        <time>2018-08-07T09:41:25Z</time>
      </trkpt>
      <trkpt lat="42.54592" lon="0.17472">
        <ele>668.02</ele>
        <time>2018-08-07T09:41:26Z</time>
      </trkpt>
      <trkpt lat="42.54593" lon="0.17511">
        <ele>666.37</ele>
        <time>2018-08-07T09:41:27Z</time>
      </trkpt>
      <trkpt lat="42.54608" lon="0.17561">
        <ele>668.67</ele>
        <time>2018-08-07T09:41:28Z</time>
      </trkpt>
      <trkpt lat="42.54609" lon="0.17602">
        <ele>670.76</ele>
        <time>2018-08-07T09:41:29Z</time>
      </trkpt>
      <trkpt lat="42.54609" lon="0.17643">
        <ele>672.79</ele>
        <time>2018-08-07T09:41:30Z</time>
      </trkpt>
      <trkpt lat="42.54606" lon="0.17683">
        <ele>674.1</ele>
        <time>2018-08-07T09:41:31Z</time>
      </trkpt>
      <trkpt lat="42.54605" lon="0.17722">
        <ele>675.19</ele>
        <time>2018-08-07T09:41:32Z</time>
      </trkpt>
      <trkpt lat="42.54601" lon="0.17762">
        <ele>676.22</ele>
        <time>2018-08-07T09:41:33Z</time>
      </trkpt>
      <trkpt lat="42.54599" lon="0.178">
        <ele>677.23</ele>
        <time>2018-08-07T09:41:34Z</time>
      </trkpt>
      <trkpt lat="42.54595" lon="0.17839">
        <ele>677.53</ele>
        <time>2018-08-07T09:41:35Z</time>
      </trkpt>
      <trkpt lat="42.54588" lon="0.17877">
        <ele>677.62</ele>
        <time>2018-08-07T09:41:36Z</time>
      </trkpt>
      <trkpt lat="42.54578" lon="0.17913">
        <ele>677.65</ele>
        <time>2018-08-07T09:41:37Z</time>
      </trkpt>
      <trkpt lat="42.54564" lon="0.17944">
        <ele>678.35</ele>
        <time>2018-08-07T09:41:38Z</time>
      </trkpt>
      <trkpt lat="42.54551" lon="0.17977">
        <ele>678.57</ele>
        <time>2018-08-07T09:41:39Z</time>
      </trkpt>
      <trkpt lat="42.54538" lon="0.18009">
        <ele>678.63</ele>
        <time>2018-08-07T09:41:40Z</time>
      </trkpt>
      <trkpt lat="42.54527" lon="0.1804">
        <ele>678.65</ele>
        <time>2018-08-07T09:41:41Z</time>
      </trkpt>
      <trkpt lat="42.54518" lon="0.1807">
        <ele>678.66</ele>
        <time>2018-08-07T09:41:42Z</time>
      </trkpt>
      <trkpt lat="42.5451" lon="0.181">
        <ele>678.66</ele>
        <time>2018-08-07T09:41:43Z</time>
      </trkpt>
      <trkpt lat="42.54506" lon="0.18133">
        <ele>678.66</ele>
        <time>2018-08-07T09:41:44Z</time>
      </trkpt>
      <trkpt lat="42.54505" lon="0.18169">
        <ele>678.66</ele>
        <time>2018-08-07T09:41:45Z</time>
      </trkpt>
      <trkpt lat="42.54499" lon="0.18201">
        <ele>680.06</ele>
        <time>2018-08-07T09:41:46Z</time>
      </trkpt>
      <trkpt lat="42.54493" lon="0.18233">
        <ele>680.48</ele>
        <time>2018-08-07T09:41:47Z</time>
      </trkpt>
      <trkpt lat="42.54485" lon="0.18264">
        <ele>680.6</ele>
        <time>2018-08-07T09:41:48Z</time>
      </trkpt>
      <trkpt lat="42.54472" lon="0.18291">
        <ele>679.94</ele>
        <time>2018-08-07T09:41:49Z</time>
      </trkpt>
      <trkpt lat="42.54455" lon="0.18311">
        <ele>679.74</ele>
        <time>2018-08-07T09:41:50Z</time>
      </trkpt>
      <trkpt lat="42.54433" lon="0.18333">
        <ele>680.38</ele>
        <time>2018-08-07T09:41:51Z</time>
      </trkpt>
      <trkpt lat="42.54406" lon="0.1834">
        <ele>681.98</ele>
        <time>2018-08-07T09:41:52Z</time>
      </trkpt>
      <trkpt lat="42.54386" lon="0.18356">
        <ele>682.45</ele>
        <time>2018-08-07T09:41:53Z</time>
      </trkpt>
      <trkpt lat="42.54367" lon="0.18378">
        <ele>681.9</ele>
        <time>2018-08-07T09:41:54Z</time>
      </trkpt>
      <trkpt lat="42.54355" lon="0.18416">
        <ele>681.73</ele>
        <time>2018-08-07T09:41:55Z</time>
      </trkpt>
      <trkpt lat="42.54339" lon="0.18446">
        <ele>682.38</ele>
        <time>2018-08-07T09:41:56Z</time>
      </trkpt>
      <trkpt lat="42.54325" lon="0.18476">
        <ele>681.87</ele>
        <time>2018-08-07T09:41:57Z</time>
      </trkpt>
      <trkpt lat="42.54312" lon="0.18505">
        <ele>681.72</ele>
        <time>2018-08-07T09:41:58Z</time>
      </trkpt>
      <trkpt lat="42.54301" lon="0.18535">
        <ele>680.98</ele>
        <time>2018-08-07T09:41:59Z</time>
      </trkpt>
      <trkpt lat="42.54297" lon="0.18569">
        <ele>680.05</ele>
        <time>2018-08-07T09:42:00Z</time>
      </trkpt>
      <trkpt lat="42.54291" lon="0.186">
        <ele>679.78</ele>
        <time>2018-08-07T09:42:01Z</time>
      </trkpt>
      <trkpt lat="42.54289" lon="0.18635">
        <ele>681.09</ele>
        <time>2018-08-07T09:42:02Z</time>
      </trkpt>
      <trkpt lat="42.54292" lon="0.18675">
        <ele>681.49</ele>
        <time>2018-08-07T09:42:03Z</time>
      </trkpt>
      <trkpt lat="42.54288" lon="0.18713">
        <ele>682.31</ele>
        <time>2018-08-07T09:42:04Z</time>
      </trkpt>
      <trkpt lat="42.54283" lon="0.18748">
        <ele>682.55</ele>
        <time>2018-08-07T09:42:05Z</time>
      </trkpt>
      <trkpt lat="42.5428" lon="0.18785">
        <ele>682.63</ele>
        <time>2018-08-07T09:42:06Z</time>
      </trkpt>
      <trkpt lat="42.54277" lon="0.18821">
        <ele>682.65</ele>
        <time>2018-08-07T09:42:07Z</time>
      </trkpt>
      <trkpt lat="42.54275" lon="0.18855">
        <ele>683.36</ele>
        <time>2018-08-07T09:42:08Z</time>
      </trkpt>
      <trkpt lat="42.54276" lon="0.18888">
        <ele>683.57</ele>
        <time>2018-08-07T09:42:09Z</time>
      </trkpt>
      <trkpt lat="42.54279" lon="0.18921">
        <ele>682.93</ele>
        <time>2018-08-07T09:42:10Z</time>
      </trkpt>
      <trkpt lat="42.54282" lon="0.1895">
        <ele>683.44</ele>
        <time>2018-08-07T09:42:11Z</time>
      </trkpt>
      <trkpt lat="42.54285" lon="0.18979">
        <ele>683.59</ele>
        <time>2018-08-07T09:42:12Z</time>
      </trkpt>
      <trkpt lat="42.54288" lon="0.19004">
        <ele>684.34</ele>
        <time>2018-08-07T09:42:13Z</time>
      </trkpt>
      <trkpt lat="42.54295" lon="0.19047">
        <ele>687.15</ele>
        <time>2018-08-07T09:42:15Z</time>
      </trkpt>
      <trkpt lat="42.54303" lon="0.19085">
        <ele>689.22</ele>
        <time>2018-08-07T09:42:17Z</time>
      </trkpt>
      <trkpt lat="42.54312" lon="0.19121">
        <ele>689.62</ele>
        <time>2018-08-07T09:42:19Z</time>
      </trkpt>
      <trkpt lat="42.54318" lon="0.19155">
        <ele>689.86</ele>
        <time>2018-08-07T09:42:21Z</time>
      </trkpt>
      <trkpt lat="42.54324" lon="0.19193">
        <ele>688.98</ele>
        <time>2018-08-07T09:42:23Z</time>
      </trkpt>
      <trkpt lat="42.54325" lon="0.19235">
        <ele>689.6</ele>
        <time>2018-08-07T09:42:25Z</time>
      </trkpt>
      <trkpt lat="42.54322" lon="0.19265">
        <ele>691.26</ele>
        <time>2018-08-07T09:42:27Z</time>
      </trkpt>
      <trkpt lat="42.54318" lon="0.19294">
        <ele>691.62</ele>
        <time>2018-08-07T09:42:29Z</time>
      </trkpt>
      <trkpt lat="42.54313" lon="0.19324">
        <ele>691.86</ele>
        <time>2018-08-07T09:42:31Z</time>
      </trkpt>
      <trkpt lat="42.54308" lon="0.19354">
        <ele>690.98</ele>
        <time>2018-08-07T09:42:33Z</time>
      </trkpt>
      <trkpt lat="42.54308" lon="0.19383">
        <ele>690.69</ele>
        <time>2018-08-07T09:42:35Z</time>
      </trkpt>
      <trkpt lat="42.54312" lon="0.19411">
        <ele>689.05</ele>
        <time>2018-08-07T09:42:37Z</time>
      </trkpt>
      <trkpt lat="42.54321" lon="0.1944">
        <ele>688.69</ele>
        <time>2018-08-07T09:42:39Z</time>
      </trkpt>
      <trkpt lat="42.54334" lon="0.19467">
        <ele>688.66</ele>
        <time>2018-08-07T09:42:41Z</time>
      </trkpt>
      <trkpt lat="42.54345" lon="0.19488">
        <ele>688.66</ele>
        <time>2018-08-07T09:42:43Z</time>
      </trkpt>
      <trkpt lat="42.5436" lon="0.19517">
        <ele>689.36</ele>
        <time>2018-08-07T09:42:46Z</time>
      </trkpt>
      <trkpt lat="42.54349" lon="0.19487">
        <ele>688.66</ele>
        <time>2018-08-07T09:43:08Z</time>
      </trkpt>
      <trkpt lat="42.54334" lon="0.19468">
        <ele>688.72</ele>
        <time>2018-08-07T09:43:11Z</time>
      </trkpt>
      <trkpt lat="42.54319" lon="0.19486">
        <ele>689.57</ele>
        <time>2018-08-07T09:43:13Z</time>
      </trkpt>
      <trkpt lat="42.54302" lon="0.19498">
        <ele>689.93</ele>
        <time>2018-08-07T09:43:16Z</time>
      </trkpt>
      <trkpt lat="42.54281" lon="0.19497">
        <ele>691.55</ele>
        <time>2018-08-07T09:43:19Z</time>
      </trkpt>
      <trkpt lat="42.54257" lon="0.19496">
        <ele>694.24</ele>
        <time>2018-08-07T09:43:22Z</time>
      </trkpt>
      <trkpt lat="42.54232" lon="0.19496">
        <ele>695.35</ele>
        <time>2018-08-07T09:43:25Z</time>
      </trkpt>
      <trkpt lat="42.5421" lon="0.19486">
        <ele>694.95</ele>
        <time>2018-08-07T09:43:28Z</time>
      </trkpt>
      <trkpt lat="42.54198" lon="0.19458">
        <ele>696.34</ele>
        <time>2018-08-07T09:43:31Z</time>
      </trkpt>
      <trkpt lat="42.54192" lon="0.19423">
        <ele>696.65</ele>
        <time>2018-08-07T09:43:34Z</time>
      </trkpt>
      <trkpt lat="42.54189" lon="0.19393">
        <ele>695.96</ele>
        <time>2018-08-07T09:43:36Z</time>
      </trkpt>
      <trkpt lat="42.54185" lon="0.19362">
        <ele>696.38</ele>
        <time>2018-08-07T09:43:38Z</time>
      </trkpt>
      <trkpt lat="42.54171" lon="0.19334">
        <ele>694.07</ele>
        <time>2018-08-07T09:43:41Z</time>
      </trkpt>
      <trkpt lat="42.54151" lon="0.19331">
        <ele>694.6</ele>
        <time>2018-08-07T09:43:43Z</time>
      </trkpt>
      <trkpt lat="42.5413" lon="0.1934">
        <ele>694.86</ele>
        <time>2018-08-07T09:43:45Z</time>
      </trkpt>
      <trkpt lat="42.54109" lon="0.19358">
        <ele>694.68</ele>
        <time>2018-08-07T09:43:47Z</time>
      </trkpt>
      <trkpt lat="42.54096" lon="0.19388">
        <ele>694.66</ele>
        <time>2018-08-07T09:43:49Z</time>
      </trkpt>
      <trkpt lat="42.54086" lon="0.19418">
        <ele>696.27</ele>
        <time>2018-08-07T09:43:51Z</time>
      </trkpt>
      <trkpt lat="42.54072" lon="0.19448">
        <ele>697.53</ele>
        <time>2018-08-07T09:43:53Z</time>
      </trkpt>
      <trkpt lat="42.54046" lon="0.19475">
        <ele>696.53</ele>
        <time>2018-08-07T09:43:55Z</time>
      </trkpt>
      <trkpt lat="42.54023" lon="0.195">
        <ele>697.56</ele>
        <time>2018-08-07T09:43:57Z</time>
      </trkpt>
      <trkpt lat="42.54005" lon="0.19525">
        <ele>698.35</ele>
        <time>2018-08-07T09:43:59Z</time>
      </trkpt>
      <trkpt lat="42.53994" lon="0.19562">
        <ele>699.54</ele>
        <time>2018-08-07T09:44:01Z</time>
      </trkpt>
      <trkpt lat="42.53979" lon="0.19593">
        <ele>701.47</ele>
        <time>2018-08-07T09:44:03Z</time>
      </trkpt>
      <trkpt lat="42.53969" lon="0.19623">
        <ele>703.46</ele>
        <time>2018-08-07T09:44:05Z</time>
      </trkpt>
      <trkpt lat="42.53977" lon="0.19645">
        <ele>705.41</ele>
        <time>2018-08-07T09:44:09Z</time>
      </trkpt>
      <trkpt lat="42.53993" lon="0.1962">
        <ele>706.99</ele>
        <time>2018-08-07T09:44:12Z</time>
      </trkpt>
      <trkpt lat="42.5401" lon="0.19603">
        <ele>708.3</ele>
        <time>2018-08-07T09:44:14Z</time>
      </trkpt>
      <trkpt lat="42.54032" lon="0.1959">
        <ele>709.54</ele>
        <time>2018-08-07T09:44:16Z</time>
      </trkpt>
      <trkpt lat="42.54051" lon="0.1958">
        <ele>711.05</ele>
        <time>2018-08-07T09:44:18Z</time>
      </trkpt>
      <trkpt lat="42.54067" lon="0.19568">
        <ele>714.22</ele>
        <time>2018-08-07T09:44:21Z</time>
      </trkpt>
      <trkpt lat="42.54085" lon="0.1956">
        <ele>718.32</ele>
        <time>2018-08-07T09:44:50Z</time>
      </trkpt>
      <trkpt lat="42.54105" lon="0.19546">
        <ele>720.27</ele>
        <time>2018-08-07T09:44:54Z</time>
      </trkpt>
      <trkpt lat="42.5412" lon="0.19527">
        <ele>722.32</ele>
        <time>2018-08-07T09:44:57Z</time>
      </trkpt>
      <trkpt lat="42.54135" lon="0.19505">
        <ele>724.33</ele>
        <time>2018-08-07T09:45:01Z</time>
      </trkpt>
      <trkpt lat="42.5412" lon="0.19521">
        <ele>726.64</ele>
        <time>2018-08-07T10:05:17Z</time>
      </trkpt>
      <trkpt lat="42.54104" lon="0.19541">
        <ele>726.66</ele>
        <time>2018-08-07T10:05:22Z</time>
      </trkpt>
      <trkpt lat="42.54086" lon="0.19554">
        <ele>727.66</ele>
        <time>2018-08-07T10:05:27Z</time>
      </trkpt>
      <trkpt lat="42.54065" lon="0.1957">
        <ele>721.83</ele>
        <time>2018-08-07T10:05:31Z</time>
      </trkpt>
      <trkpt lat="42.54042" lon="0.19586">
        <ele>717.47</ele>
        <time>2018-08-07T10:05:34Z</time>
      </trkpt>
      <trkpt lat="42.54023" lon="0.19595">
        <ele>716.73</ele>
        <time>2018-08-07T10:05:36Z</time>
      </trkpt>
      <trkpt lat="42.54" lon="0.19611">
        <ele>711.86</ele>
        <time>2018-08-07T10:05:39Z</time>
      </trkpt>
      <trkpt lat="42.5398" lon="0.19634">
        <ele>711.66</ele>
        <time>2018-08-07T10:05:42Z</time>
      </trkpt>
      <trkpt lat="42.5396" lon="0.19644">
        <ele>710.6</ele>
        <time>2018-08-07T10:05:46Z</time>
      </trkpt>
      <trkpt lat="42.53968" lon="0.1962">
        <ele>710.23</ele>
        <time>2018-08-07T10:05:48Z</time>
      </trkpt>
      <trkpt lat="42.53978" lon="0.1959">
        <ele>708.31</ele>
        <time>2018-08-07T10:05:50Z</time>
      </trkpt>
      <trkpt lat="42.53992" lon="0.1956">
        <ele>706.32</ele>
        <time>2018-08-07T10:05:52Z</time>
      </trkpt>
      <trkpt lat="42.54007" lon="0.19528">
        <ele>703.41</ele>
        <time>2018-08-07T10:05:54Z</time>
      </trkpt>
      <trkpt lat="42.54022" lon="0.195">
        <ele>700.91</ele>
        <time>2018-08-07T10:05:56Z</time>
      </trkpt>
      <trkpt lat="42.54044" lon="0.19479">
        <ele>699.77</ele>
        <time>2018-08-07T10:05:58Z</time>
      </trkpt>
      <trkpt lat="42.54066" lon="0.19458">
        <ele>699.67</ele>
        <time>2018-08-07T10:06:00Z</time>
      </trkpt>
      <trkpt lat="42.54082" lon="0.19429">
        <ele>699.66</ele>
        <time>2018-08-07T10:06:02Z</time>
      </trkpt>
      <trkpt lat="42.54091" lon="0.19397">
        <ele>699.66</ele>
        <time>2018-08-07T10:06:04Z</time>
      </trkpt>
      <trkpt lat="42.54106" lon="0.19367">
        <ele>697.84</ele>
        <time>2018-08-07T10:06:06Z</time>
      </trkpt>
      <trkpt lat="42.54123" lon="0.19342">
        <ele>696.27</ele>
        <time>2018-08-07T10:06:08Z</time>
      </trkpt>
      <trkpt lat="42.54148" lon="0.1933">
        <ele>695.92</ele>
        <time>2018-08-07T10:06:10Z</time>
      </trkpt>
      <trkpt lat="42.54173" lon="0.19334">
        <ele>696.17</ele>
        <time>2018-08-07T10:06:12Z</time>
      </trkpt>
      <trkpt lat="42.54189" lon="0.19346">
        <ele>696.19</ele>
        <time>2018-08-07T10:06:14Z</time>
      </trkpt>
      <trkpt lat="42.54184" lon="0.19384">
        <ele>697.32</ele>
        <time>2018-08-07T10:06:16Z</time>
      </trkpt>
      <trkpt lat="42.54191" lon="0.19421">
        <ele>697.42</ele>
        <time>2018-08-07T10:06:18Z</time>
      </trkpt>
      <trkpt lat="42.54198" lon="0.19457">
        <ele>698.34</ele>
        <time>2018-08-07T10:06:20Z</time>
      </trkpt>
      <trkpt lat="42.54208" lon="0.19486">
        <ele>697.23</ele>
        <time>2018-08-07T10:06:22Z</time>
      </trkpt>
      <trkpt lat="42.54233" lon="0.19498">
        <ele>696.67</ele>
        <time>2018-08-07T10:06:25Z</time>
      </trkpt>
      <trkpt lat="42.54253" lon="0.19499">
        <ele>694.14</ele>
        <time>2018-08-07T10:06:27Z</time>
      </trkpt>
      <trkpt lat="42.54281" lon="0.19501">
        <ele>690.18</ele>
        <time>2018-08-07T10:06:30Z</time>
      </trkpt>
      <trkpt lat="42.54304" lon="0.19503">
        <ele>688.7</ele>
        <time>2018-08-07T10:06:33Z</time>
      </trkpt>
      <trkpt lat="42.54323" lon="0.19501">
        <ele>685.78</ele>
        <time>2018-08-07T10:06:37Z</time>
      </trkpt>
      <trkpt lat="42.54335" lon="0.19482">
        <ele>687.62</ele>
        <time>2018-08-07T10:06:41Z</time>
      </trkpt>
      <trkpt lat="42.54355" lon="0.19507">
        <ele>687.86</ele>
        <time>2018-08-07T10:06:52Z</time>
      </trkpt>
      <trkpt lat="42.54369" lon="0.19537">
        <ele>689.29</ele>
        <time>2018-08-07T10:06:54Z</time>
      </trkpt>
      <trkpt lat="42.54378" lon="0.19564">
        <ele>691.02</ele>
        <time>2018-08-07T10:06:56Z</time>
      </trkpt>
      <trkpt lat="42.5438" lon="0.19594">
        <ele>692.51</ele>
        <time>2018-08-07T10:06:58Z</time>
      </trkpt>
      <trkpt lat="42.54378" lon="0.19622">
        <ele>694.46</ele>
        <time>2018-08-07T10:07:00Z</time>
      </trkpt>
      <trkpt lat="42.54377" lon="0.19647">
        <ele>695.55</ele>
        <time>2018-08-07T10:07:02Z</time>
      </trkpt>
      <trkpt lat="42.54378" lon="0.19671">
        <ele>694.95</ele>
        <time>2018-08-07T10:07:04Z</time>
      </trkpt>
      <trkpt lat="42.54382" lon="0.19696">
        <ele>693.77</ele>
        <time>2018-08-07T10:07:06Z</time>
      </trkpt>
      <trkpt lat="42.54394" lon="0.19722">
        <ele>694.36</ele>
        <time>2018-08-07T10:07:09Z</time>
      </trkpt>
      <trkpt lat="42.54411" lon="0.19742">
        <ele>696.24</ele>
        <time>2018-08-07T10:07:11Z</time>
      </trkpt>
      <trkpt lat="42.54429" lon="0.19769">
        <ele>696.62</ele>
        <time>2018-08-07T10:07:13Z</time>
      </trkpt>
      <trkpt lat="42.54447" lon="0.19794">
        <ele>697.35</ele>
        <time>2018-08-07T10:07:15Z</time>
      </trkpt>
      <trkpt lat="42.54466" lon="0.19817">
        <ele>698.33</ele>
        <time>2018-08-07T10:07:17Z</time>
      </trkpt>
      <trkpt lat="42.54485" lon="0.19838">
        <ele>698.63</ele>
        <time>2018-08-07T10:07:19Z</time>
      </trkpt>
      <trkpt lat="42.54506" lon="0.19854">
        <ele>699.57</ele>
        <time>2018-08-07T10:07:21Z</time>
      </trkpt>
      <trkpt lat="42.54526" lon="0.19869">
        <ele>699.65</ele>
        <time>2018-08-07T10:07:23Z</time>
      </trkpt>
      <trkpt lat="42.54546" lon="0.19892">
        <ele>699.45</ele>
        <time>2018-08-07T10:07:25Z</time>
      </trkpt>
      <trkpt lat="42.54567" lon="0.19913">
        <ele>701.04</ele>
        <time>2018-08-07T10:07:27Z</time>
      </trkpt>
      <trkpt lat="42.54596" lon="0.19932">
        <ele>701.6</ele>
        <time>2018-08-07T10:07:29Z</time>
      </trkpt>
      <trkpt lat="42.54625" lon="0.19949">
        <ele>703.05</ele>
        <time>2018-08-07T10:07:31Z</time>
      </trkpt>
      <trkpt lat="42.54657" lon="0.19969">
        <ele>702.69</ele>
        <time>2018-08-07T10:07:33Z</time>
      </trkpt>
      <trkpt lat="42.54672" lon="0.19981">
        <ele>701.97</ele>
        <time>2018-08-07T10:07:34Z</time>
      </trkpt>
      <trkpt lat="42.54701" lon="0.19999">
        <ele>701.69</ele>
        <time>2018-08-07T10:07:36Z</time>
      </trkpt>
      <trkpt lat="42.54727" lon="0.20014">
        <ele>701.87</ele>
        <time>2018-08-07T10:07:38Z</time>
      </trkpt>
      <trkpt lat="42.54753" lon="0.20029">
        <ele>701.68</ele>
        <time>2018-08-07T10:07:40Z</time>
      </trkpt>
      <trkpt lat="42.54782" lon="0.20044">
        <ele>701.66</ele>
        <time>2018-08-07T10:07:42Z</time>
      </trkpt>
      <trkpt lat="42.548" lon="0.20055">
        <ele>700.96</ele>
        <time>2018-08-07T10:07:43Z</time>
      </trkpt>
      <trkpt lat="42.54821" lon="0.20066">
        <ele>701.45</ele>
        <time>2018-08-07T10:07:44Z</time>
      </trkpt>
      <trkpt lat="42.54843" lon="0.2008">
        <ele>702.3</ele>
        <time>2018-08-07T10:07:45Z</time>
      </trkpt>
      <trkpt lat="42.54868" lon="0.20097">
        <ele>702.55</ele>
        <time>2018-08-07T10:07:46Z</time>
      </trkpt>
      <trkpt lat="42.54895" lon="0.20118">
        <ele>702.63</ele>
        <time>2018-08-07T10:07:47Z</time>
      </trkpt>
      <trkpt lat="42.54922" lon="0.20137">
        <ele>703.35</ele>
        <time>2018-08-07T10:07:48Z</time>
      </trkpt>
      <trkpt lat="42.54948" lon="0.20155">
        <ele>703.57</ele>
        <time>2018-08-07T10:07:49Z</time>
      </trkpt>
      <trkpt lat="42.54972" lon="0.20174">
        <ele>702.93</ele>
        <time>2018-08-07T10:07:50Z</time>
      </trkpt>
      <trkpt lat="42.54996" lon="0.20193">
        <ele>702.74</ele>
        <time>2018-08-07T10:07:51Z</time>
      </trkpt>
      <trkpt lat="42.55012" lon="0.20211">
        <ele>703.38</ele>
        <time>2018-08-07T10:07:52Z</time>
      </trkpt>
      <trkpt lat="42.55032" lon="0.20225">
        <ele>704.28</ele>
        <time>2018-08-07T10:07:53Z</time>
      </trkpt>
      <trkpt lat="42.55051" lon="0.20241">
        <ele>705.24</ele>
        <time>2018-08-07T10:07:54Z</time>
      </trkpt>
      <trkpt lat="42.55072" lon="0.20255">
        <ele>705.53</ele>
        <time>2018-08-07T10:07:55Z</time>
      </trkpt>
      <trkpt lat="42.55094" lon="0.20268">
        <ele>707.02</ele>
        <time>2018-08-07T10:07:56Z</time>
      </trkpt>
      <trkpt lat="42.55121" lon="0.20271">
        <ele>707.47</ele>
        <time>2018-08-07T10:07:57Z</time>
      </trkpt>
      <trkpt lat="42.55147" lon="0.20261">
        <ele>707.6</ele>
        <time>2018-08-07T10:07:58Z</time>
      </trkpt>
      <trkpt lat="42.55171" lon="0.20262">
        <ele>707.64</ele>
        <time>2018-08-07T10:07:59Z</time>
      </trkpt>
      <trkpt lat="42.55194" lon="0.20263">
        <ele>707.65</ele>
        <time>2018-08-07T10:08:00Z</time>
      </trkpt>
      <trkpt lat="42.55218" lon="0.20257">
        <ele>707.66</ele>
        <time>2018-08-07T10:08:01Z</time>
      </trkpt>
      <trkpt lat="42.55242" lon="0.20251">
        <ele>708.36</ele>
        <time>2018-08-07T10:08:02Z</time>
      </trkpt>
      <trkpt lat="42.55266" lon="0.2024">
        <ele>707.17</ele>
        <time>2018-08-07T10:08:03Z</time>
      </trkpt>
      <trkpt lat="42.5529" lon="0.20231">
        <ele>706.11</ele>
        <time>2018-08-07T10:08:04Z</time>
      </trkpt>
      <trkpt lat="42.55317" lon="0.20232">
        <ele>705.09</ele>
        <time>2018-08-07T10:08:05Z</time>
      </trkpt>
      <trkpt lat="42.55344" lon="0.20233">
        <ele>705.49</ele>
        <time>2018-08-07T10:08:06Z</time>
      </trkpt>
      <trkpt lat="42.55372" lon="0.20236">
        <ele>704.91</ele>
        <time>2018-08-07T10:08:07Z</time>
      </trkpt>
      <trkpt lat="42.55399" lon="0.20238">
        <ele>704.73</ele>
        <time>2018-08-07T10:08:08Z</time>
      </trkpt>
      <trkpt lat="42.55427" lon="0.20243">
        <ele>703.98</ele>
        <time>2018-08-07T10:08:09Z</time>
      </trkpt>
      <trkpt lat="42.55453" lon="0.20248">
        <ele>703.75</ele>
        <time>2018-08-07T10:08:10Z</time>
      </trkpt>
      <trkpt lat="42.5547" lon="0.2028">
        <ele>703.69</ele>
        <time>2018-08-07T10:08:11Z</time>
      </trkpt>
      <trkpt lat="42.55493" lon="0.20297">
        <ele>703.67</ele>
        <time>2018-08-07T10:08:12Z</time>
      </trkpt>
      <trkpt lat="42.55514" lon="0.20317">
        <ele>702.96</ele>
        <time>2018-08-07T10:08:13Z</time>
      </trkpt>
      <trkpt lat="42.55533" lon="0.20344">
        <ele>703.45</ele>
        <time>2018-08-07T10:08:14Z</time>
      </trkpt>
      <trkpt lat="42.55551" lon="0.2037">
        <ele>704.3</ele>
        <time>2018-08-07T10:08:15Z</time>
      </trkpt>
      <trkpt lat="42.55565" lon="0.20396">
        <ele>705.25</ele>
        <time>2018-08-07T10:08:16Z</time>
      </trkpt>
      <trkpt lat="42.5558" lon="0.20419">
        <ele>705.54</ele>
        <time>2018-08-07T10:08:17Z</time>
      </trkpt>
      <trkpt lat="42.55594" lon="0.20438">
        <ele>707.02</ele>
        <time>2018-08-07T10:08:18Z</time>
      </trkpt>
      <trkpt lat="42.55623" lon="0.20464">
        <ele>707.39</ele>
        <time>2018-08-07T10:08:20Z</time>
      </trkpt>
      <trkpt lat="42.55653" lon="0.20492">
        <ele>706.72</ele>
        <time>2018-08-07T10:08:22Z</time>
      </trkpt>
      <trkpt lat="42.55937" lon="0.20482">
        <ele>708.78</ele>
        <time>2018-08-07T10:08:35Z</time>
      </trkpt>
      <trkpt lat="42.55959" lon="0.20475">
        <ele>710.09</ele>
        <time>2018-08-07T10:08:36Z</time>
      </trkpt>
      <trkpt lat="42.55986" lon="0.20474">
        <ele>710.49</ele>
        <time>2018-08-07T10:08:37Z</time>
      </trkpt>
      <trkpt lat="42.5601" lon="0.2047">
        <ele>710.61</ele>
        <time>2018-08-07T10:08:38Z</time>
      </trkpt>
      <trkpt lat="42.56034" lon="0.20464">
        <ele>710.64</ele>
        <time>2018-08-07T10:08:39Z</time>
      </trkpt>
      <trkpt lat="42.5606" lon="0.2046">
        <ele>710.65</ele>
        <time>2018-08-07T10:08:40Z</time>
      </trkpt>
      <trkpt lat="42.56083" lon="0.20456">
        <ele>711.36</ele>
        <time>2018-08-07T10:08:41Z</time>
      </trkpt>
      <trkpt lat="42.56105" lon="0.20455">
        <ele>711.57</ele>
        <time>2018-08-07T10:08:42Z</time>
      </trkpt>
      <trkpt lat="42.56127" lon="0.20459">
        <ele>712.33</ele>
        <time>2018-08-07T10:08:43Z</time>
      </trkpt>
      <trkpt lat="42.5615" lon="0.20462">
        <ele>712.56</ele>
        <time>2018-08-07T10:08:44Z</time>
      </trkpt>
      <trkpt lat="42.56167" lon="0.20478">
        <ele>711.93</ele>
        <time>2018-08-07T10:08:45Z</time>
      </trkpt>
      <trkpt lat="42.56186" lon="0.20482">
        <ele>711.74</ele>
        <time>2018-08-07T10:08:46Z</time>
      </trkpt>
      <trkpt lat="42.56207" lon="0.20482">
        <ele>710.98</ele>
        <time>2018-08-07T10:08:47Z</time>
      </trkpt>
      <trkpt lat="42.56228" lon="0.20482">
        <ele>710.06</ele>
        <time>2018-08-07T10:08:48Z</time>
      </trkpt>
      <trkpt lat="42.56247" lon="0.20483">
        <ele>710.48</ele>
        <time>2018-08-07T10:08:49Z</time>
      </trkpt>
      <trkpt lat="42.56265" lon="0.20478">
        <ele>711.3</ele>
        <time>2018-08-07T10:08:50Z</time>
      </trkpt>
      <trkpt lat="42.56286" lon="0.20476">
        <ele>711.55</ele>
        <time>2018-08-07T10:08:51Z</time>
      </trkpt>
      <trkpt lat="42.56306" lon="0.20473">
        <ele>711.63</ele>
        <time>2018-08-07T10:08:52Z</time>
      </trkpt>
      <trkpt lat="42.56324" lon="0.20471">
        <ele>712.35</ele>
        <time>2018-08-07T10:08:53Z</time>
      </trkpt>
      <trkpt lat="42.56347" lon="0.20456">
        <ele>712.57</ele>
        <time>2018-08-07T10:08:54Z</time>
      </trkpt>
      <trkpt lat="42.56373" lon="0.20448">
        <ele>712.63</ele>
        <time>2018-08-07T10:08:55Z</time>
      </trkpt>
      <trkpt lat="42.56398" lon="0.20444">
        <ele>713.35</ele>
        <time>2018-08-07T10:08:56Z</time>
      </trkpt>
      <trkpt lat="42.56427" lon="0.20437">
        <ele>712.87</ele>
        <time>2018-08-07T10:08:57Z</time>
      </trkpt>
      <trkpt lat="42.56456" lon="0.20431">
        <ele>713.42</ele>
        <time>2018-08-07T10:08:58Z</time>
      </trkpt>
      <trkpt lat="42.56481" lon="0.20449">
        <ele>714.99</ele>
        <time>2018-08-07T10:08:59Z</time>
      </trkpt>
      <trkpt lat="42.56509" lon="0.20455">
        <ele>716.16</ele>
        <time>2018-08-07T10:09:00Z</time>
      </trkpt>
      <trkpt lat="42.56539" lon="0.20459">
        <ele>716.51</ele>
        <time>2018-08-07T10:09:01Z</time>
      </trkpt>
      <trkpt lat="42.56563" lon="0.20472">
        <ele>715.91</ele>
        <time>2018-08-07T10:09:02Z</time>
      </trkpt>
      <trkpt lat="42.56587" lon="0.20484">
        <ele>716.43</ele>
        <time>2018-08-07T10:09:03Z</time>
      </trkpt>
      <trkpt lat="42.5661" lon="0.20498">
        <ele>716.59</ele>
        <time>2018-08-07T10:09:04Z</time>
      </trkpt>
      <trkpt lat="42.56632" lon="0.20511">
        <ele>715.94</ele>
        <time>2018-08-07T10:09:05Z</time>
      </trkpt>
      <trkpt lat="42.56652" lon="0.2052">
        <ele>715.74</ele>
        <time>2018-08-07T10:09:06Z</time>
      </trkpt>
      <trkpt lat="42.56672" lon="0.20527">
        <ele>714.98</ele>
        <time>2018-08-07T10:09:07Z</time>
      </trkpt>
      <trkpt lat="42.56694" lon="0.2053">
        <ele>714.76</ele>
        <time>2018-08-07T10:09:08Z</time>
      </trkpt>
      <trkpt lat="42.56716" lon="0.20532">
        <ele>716.09</ele>
        <time>2018-08-07T10:09:09Z</time>
      </trkpt>
      <trkpt lat="42.5674" lon="0.20524">
        <ele>717.19</ele>
        <time>2018-08-07T10:09:10Z</time>
      </trkpt>
      <trkpt lat="42.56764" lon="0.20525">
        <ele>717.52</ele>
        <time>2018-08-07T10:09:11Z</time>
      </trkpt>
      <trkpt lat="42.56788" lon="0.20528">
        <ele>718.32</ele>
        <time>2018-08-07T10:09:12Z</time>
      </trkpt>
      <trkpt lat="42.56811" lon="0.20532">
        <ele>718.56</ele>
        <time>2018-08-07T10:09:13Z</time>
      </trkpt>
      <trkpt lat="42.56828" lon="0.20549">
        <ele>719.33</ele>
        <time>2018-08-07T10:09:14Z</time>
      </trkpt>
      <trkpt lat="42.56855" lon="0.20574">
        <ele>723.55</ele>
        <time>2018-08-07T10:09:16Z</time>
      </trkpt>
      <trkpt lat="42.56873" lon="0.20576">
        <ele>723.63</ele>
        <time>2018-08-07T10:09:17Z</time>
      </trkpt>
      <trkpt lat="42.56893" lon="0.20574">
        <ele>724.35</ele>
        <time>2018-08-07T10:09:18Z</time>
      </trkpt>
      <trkpt lat="42.56912" lon="0.20567">
        <ele>724.57</ele>
        <time>2018-08-07T10:09:19Z</time>
      </trkpt>
      <trkpt lat="42.56932" lon="0.20558">
        <ele>725.33</ele>
        <time>2018-08-07T10:09:20Z</time>
      </trkpt>
      <trkpt lat="42.56952" lon="0.20548">
        <ele>724.86</ele>
        <time>2018-08-07T10:09:21Z</time>
      </trkpt>
      <trkpt lat="42.5697" lon="0.20534">
        <ele>725.42</ele>
        <time>2018-08-07T10:09:22Z</time>
      </trkpt>
      <trkpt lat="42.56994" lon="0.20512">
        <ele>726.99</ele>
        <time>2018-08-07T10:09:23Z</time>
      </trkpt>
      <trkpt lat="42.57018" lon="0.20485">
        <ele>728.16</ele>
        <time>2018-08-07T10:09:24Z</time>
      </trkpt>
      <trkpt lat="42.57042" lon="0.20467">
        <ele>729.21</ele>
        <time>2018-08-07T10:09:25Z</time>
      </trkpt>
      <trkpt lat="42.57071" lon="0.20454">
        <ele>730.92</ele>
        <time>2018-08-07T10:09:26Z</time>
      </trkpt>
      <trkpt lat="42.57097" lon="0.20439">
        <ele>732.14</ele>
        <time>2018-08-07T10:09:27Z</time>
      </trkpt>
      <trkpt lat="42.57124" lon="0.20427">
        <ele>733.2</ele>
        <time>2018-08-07T10:09:28Z</time>
      </trkpt>
      <trkpt lat="42.57151" lon="0.20414">
        <ele>734.22</ele>
        <time>2018-08-07T10:09:29Z</time>
      </trkpt>
      <trkpt lat="42.57179" lon="0.20404">
        <ele>733.83</ele>
        <time>2018-08-07T10:09:30Z</time>
      </trkpt>
      <trkpt lat="42.57209" lon="0.20417">
        <ele>735.11</ele>
        <time>2018-08-07T10:09:31Z</time>
      </trkpt>
      <trkpt lat="42.57238" lon="0.20419">
        <ele>736.19</ele>
        <time>2018-08-07T10:09:32Z</time>
      </trkpt>
      <trkpt lat="42.57266" lon="0.20419">
        <ele>737.22</ele>
        <time>2018-08-07T10:09:33Z</time>
      </trkpt>
      <trkpt lat="42.57292" lon="0.20423">
        <ele>738.93</ele>
        <time>2018-08-07T10:09:34Z</time>
      </trkpt>
      <trkpt lat="42.57318" lon="0.20421">
        <ele>739.44</ele>
        <time>2018-08-07T10:09:35Z</time>
      </trkpt>
      <trkpt lat="42.57343" lon="0.20416">
        <ele>740.99</ele>
        <time>2018-08-07T10:09:36Z</time>
      </trkpt>
      <trkpt lat="42.57368" lon="0.20412">
        <ele>741.46</ele>
        <time>2018-08-07T10:09:37Z</time>
      </trkpt>
      <trkpt lat="42.57391" lon="0.20406">
        <ele>743.7</ele>
        <time>2018-08-07T10:09:38Z</time>
      </trkpt>
      <trkpt lat="42.57415" lon="0.20397">
        <ele>745.07</ele>
        <time>2018-08-07T10:09:39Z</time>
      </trkpt>
      <trkpt lat="42.57439" lon="0.20388">
        <ele>746.18</ele>
        <time>2018-08-07T10:09:40Z</time>
      </trkpt>
      <trkpt lat="42.57463" lon="0.20377">
        <ele>746.52</ele>
        <time>2018-08-07T10:09:41Z</time>
      </trkpt>
      <trkpt lat="42.57488" lon="0.20365">
        <ele>747.32</ele>
        <time>2018-08-07T10:09:42Z</time>
      </trkpt>
      <trkpt lat="42.5751" lon="0.2035">
        <ele>748.26</ele>
        <time>2018-08-07T10:09:43Z</time>
      </trkpt>
      <trkpt lat="42.57533" lon="0.20334">
        <ele>749.24</ele>
        <time>2018-08-07T10:09:44Z</time>
      </trkpt>
      <trkpt lat="42.57555" lon="0.20315">
        <ele>750.23</ele>
        <time>2018-08-07T10:09:45Z</time>
      </trkpt>
      <trkpt lat="42.57577" lon="0.20298">
        <ele>750.53</ele>
        <time>2018-08-07T10:09:46Z</time>
      </trkpt>
      <trkpt lat="42.576" lon="0.20282">
        <ele>750.62</ele>
        <time>2018-08-07T10:09:47Z</time>
      </trkpt>
      <trkpt lat="42.57623" lon="0.20268">
        <ele>749.95</ele>
        <time>2018-08-07T10:09:48Z</time>
      </trkpt>
      <trkpt lat="42.57647" lon="0.20256">
        <ele>749.74</ele>
        <time>2018-08-07T10:09:49Z</time>
      </trkpt>
      <trkpt lat="42.57671" lon="0.20246">
        <ele>749.68</ele>
        <time>2018-08-07T10:09:50Z</time>
      </trkpt>
      <trkpt lat="42.57694" lon="0.20239">
        <ele>749.67</ele>
        <time>2018-08-07T10:09:51Z</time>
      </trkpt>
      <trkpt lat="42.57722" lon="0.20252">
        <ele>749.66</ele>
        <time>2018-08-07T10:09:52Z</time>
      </trkpt>
      <trkpt lat="42.57746" lon="0.20255">
        <ele>748.96</ele>
        <time>2018-08-07T10:09:53Z</time>
      </trkpt>
      <trkpt lat="42.5777" lon="0.20255">
        <ele>748.75</ele>
        <time>2018-08-07T10:09:54Z</time>
      </trkpt>
      <trkpt lat="42.57793" lon="0.2025">
        <ele>748.69</ele>
        <time>2018-08-07T10:09:55Z</time>
      </trkpt>
      <trkpt lat="42.57816" lon="0.20241">
        <ele>748.67</ele>
        <time>2018-08-07T10:09:56Z</time>
      </trkpt>
      <trkpt lat="42.57841" lon="0.20231">
        <ele>748.66</ele>
        <time>2018-08-07T10:09:57Z</time>
      </trkpt>
      <trkpt lat="42.57865" lon="0.20222">
        <ele>748.66</ele>
        <time>2018-08-07T10:09:58Z</time>
      </trkpt>
      <trkpt lat="42.5789" lon="0.20215">
        <ele>748.66</ele>
        <time>2018-08-07T10:09:59Z</time>
      </trkpt>
      <trkpt lat="42.57915" lon="0.2021">
        <ele>748.66</ele>
        <time>2018-08-07T10:10:00Z</time>
      </trkpt>
      <trkpt lat="42.5794" lon="0.20207">
        <ele>748.66</ele>
        <time>2018-08-07T10:10:01Z</time>
      </trkpt>
      <trkpt lat="42.57965" lon="0.20202">
        <ele>748.66</ele>
        <time>2018-08-07T10:10:02Z</time>
      </trkpt>
      <trkpt lat="42.57987" lon="0.20212">
        <ele>750.06</ele>
        <time>2018-08-07T10:10:03Z</time>
      </trkpt>
      <trkpt lat="42.58011" lon="0.20224">
        <ele>750.48</ele>
        <time>2018-08-07T10:10:04Z</time>
      </trkpt>
      <trkpt lat="42.58034" lon="0.20237">
        <ele>751.3</ele>
        <time>2018-08-07T10:10:05Z</time>
      </trkpt>
      <trkpt lat="42.58057" lon="0.2025">
        <ele>751.55</ele>
        <time>2018-08-07T10:10:06Z</time>
      </trkpt>
      <trkpt lat="42.58081" lon="0.20263">
        <ele>751.63</ele>
        <time>2018-08-07T10:10:07Z</time>
      </trkpt>
      <trkpt lat="42.58104" lon="0.20275">
        <ele>751.65</ele>
        <time>2018-08-07T10:10:08Z</time>
      </trkpt>
      <trkpt lat="42.58128" lon="0.20287">
        <ele>750.96</ele>
        <time>2018-08-07T10:10:09Z</time>
      </trkpt>
      <trkpt lat="42.5815" lon="0.20294">
        <ele>751.45</ele>
        <time>2018-08-07T10:10:10Z</time>
      </trkpt>
      <trkpt lat="42.58174" lon="0.203">
        <ele>751.59</ele>
        <time>2018-08-07T10:10:11Z</time>
      </trkpt>
      <trkpt lat="42.58195" lon="0.20306">
        <ele>752.34</ele>
        <time>2018-08-07T10:10:12Z</time>
      </trkpt>
      <trkpt lat="42.58216" lon="0.20316">
        <ele>752.56</ele>
        <time>2018-08-07T10:10:13Z</time>
      </trkpt>
      <trkpt lat="42.58236" lon="0.20332">
        <ele>752.63</ele>
        <time>2018-08-07T10:10:14Z</time>
      </trkpt>
      <trkpt lat="42.58254" lon="0.2035">
        <ele>753.35</ele>
        <time>2018-08-07T10:10:15Z</time>
      </trkpt>
      <trkpt lat="42.58271" lon="0.20371">
        <ele>753.57</ele>
        <time>2018-08-07T10:10:16Z</time>
      </trkpt>
      <trkpt lat="42.58286" lon="0.20393">
        <ele>754.33</ele>
        <time>2018-08-07T10:10:17Z</time>
      </trkpt>
      <trkpt lat="42.58297" lon="0.20415">
        <ele>754.56</ele>
        <time>2018-08-07T10:10:18Z</time>
      </trkpt>
      <trkpt lat="42.58306" lon="0.20443">
        <ele>753.93</ele>
        <time>2018-08-07T10:10:19Z</time>
      </trkpt>
      <trkpt lat="42.58308" lon="0.20476">
        <ele>753.74</ele>
        <time>2018-08-07T10:10:20Z</time>
      </trkpt>
      <trkpt lat="42.583" lon="0.20509">
        <ele>752.28</ele>
        <time>2018-08-07T10:10:21Z</time>
      </trkpt>
      <trkpt lat="42.58295" lon="0.20545">
        <ele>751.85</ele>
        <time>2018-08-07T10:10:22Z</time>
      </trkpt>
      <trkpt lat="42.58284" lon="0.20575">
        <ele>751.71</ele>
        <time>2018-08-07T10:10:23Z</time>
      </trkpt>
      <trkpt lat="42.58274" lon="0.20604">
        <ele>751.67</ele>
        <time>2018-08-07T10:10:24Z</time>
      </trkpt>
      <trkpt lat="42.5826" lon="0.20626">
        <ele>753.06</ele>
        <time>2018-08-07T10:10:25Z</time>
      </trkpt>
      <trkpt lat="42.58254" lon="0.20651">
        <ele>754.18</ele>
        <time>2018-08-07T10:10:26Z</time>
      </trkpt>
      <trkpt lat="42.58249" lon="0.20676">
        <ele>755.21</ele>
        <time>2018-08-07T10:10:27Z</time>
      </trkpt>
      <trkpt lat="42.58248" lon="0.2072">
        <ele>754.71</ele>
        <time>2018-08-07T10:10:29Z</time>
      </trkpt>
      <trkpt lat="42.5827" lon="0.20753">
        <ele>759</ele>
        <time>2018-08-07T10:10:31Z</time>
      </trkpt>
      <trkpt lat="42.583" lon="0.20783">
        <ele>760.3</ele>
        <time>2018-08-07T10:10:33Z</time>
      </trkpt>
      <trkpt lat="42.58319" lon="0.20802">
        <ele>760.55</ele>
        <time>2018-08-07T10:10:34Z</time>
      </trkpt>
      <trkpt lat="42.58363" lon="0.20816">
        <ele>762.73</ele>
        <time>2018-08-07T10:10:35Z</time>
      </trkpt>
      <trkpt lat="42.58384" lon="0.2084">
        <ele>763.38</ele>
        <time>2018-08-07T10:10:36Z</time>
      </trkpt>
      <trkpt lat="42.58407" lon="0.20861">
        <ele>764.97</ele>
        <time>2018-08-07T10:10:37Z</time>
      </trkpt>
      <trkpt lat="42.58434" lon="0.20883">
        <ele>766.15</ele>
        <time>2018-08-07T10:10:38Z</time>
      </trkpt>
      <trkpt lat="42.58451" lon="0.20906">
        <ele>765.81</ele>
        <time>2018-08-07T10:10:39Z</time>
      </trkpt>
      <trkpt lat="42.58461" lon="0.20934">
        <ele>766.4</ele>
        <time>2018-08-07T10:10:40Z</time>
      </trkpt>
      <trkpt lat="42.58466" lon="0.20963">
        <ele>766.58</ele>
        <time>2018-08-07T10:10:41Z</time>
      </trkpt>
      <trkpt lat="42.5847" lon="0.20993">
        <ele>765.93</ele>
        <time>2018-08-07T10:10:42Z</time>
      </trkpt>
      <trkpt lat="42.58465" lon="0.21028">
        <ele>765.04</ele>
        <time>2018-08-07T10:10:43Z</time>
      </trkpt>
      <trkpt lat="42.58451" lon="0.21076">
        <ele>765.47</ele>
        <time>2018-08-07T10:10:44Z</time>
      </trkpt>
      <trkpt lat="42.58448" lon="0.21111">
        <ele>767</ele>
        <time>2018-08-07T10:10:45Z</time>
      </trkpt>
      <trkpt lat="42.58445" lon="0.21147">
        <ele>768.86</ele>
        <time>2018-08-07T10:10:46Z</time>
      </trkpt>
      <trkpt lat="42.58443" lon="0.21179">
        <ele>770.82</ele>
        <time>2018-08-07T10:10:47Z</time>
      </trkpt>
      <trkpt lat="42.58441" lon="0.21208">
        <ele>772.11</ele>
        <time>2018-08-07T10:10:48Z</time>
      </trkpt>
      <trkpt lat="42.58441" lon="0.21233">
        <ele>772.49</ele>
        <time>2018-08-07T10:10:49Z</time>
      </trkpt>
      <trkpt lat="42.58439" lon="0.21258">
        <ele>774.01</ele>
        <time>2018-08-07T10:10:50Z</time>
      </trkpt>
      <trkpt lat="42.58433" lon="0.21286">
        <ele>775.61</ele>
        <time>2018-08-07T10:10:53Z</time>
      </trkpt>
      <trkpt lat="42.58427" lon="0.21311">
        <ele>774.17</ele>
        <time>2018-08-07T10:10:59Z</time>
      </trkpt>
      <trkpt lat="42.58412" lon="0.21328">
        <ele>774.33</ele>
        <time>2018-08-07T10:11:33Z</time>
      </trkpt>
      <trkpt lat="42.58411" lon="0.21302">
        <ele>777.3</ele>
        <time>2018-08-07T10:11:52Z</time>
      </trkpt>
      <trkpt lat="42.58405" lon="0.21325">
        <ele>780.29</ele>
        <time>2018-08-07T10:12:23Z</time>
      </trkpt>
      <trkpt lat="42.58421" lon="0.2135">
        <ele>777.61</ele>
        <time>2018-08-07T10:20:14Z</time>
      </trkpt>
      <trkpt lat="42.58419" lon="0.21375">
        <ele>776.74</ele>
        <time>2018-08-07T10:20:16Z</time>
      </trkpt>
      <trkpt lat="42.58421" lon="0.21411">
        <ele>777.37</ele>
        <time>2018-08-07T10:20:18Z</time>
      </trkpt>
      <trkpt lat="42.58424" lon="0.21446">
        <ele>777.63</ele>
        <time>2018-08-07T10:20:20Z</time>
      </trkpt>
      <trkpt lat="42.58436" lon="0.21484">
        <ele>776.96</ele>
        <time>2018-08-07T10:20:22Z</time>
      </trkpt>
      <trkpt lat="42.58453" lon="0.21515">
        <ele>779.2</ele>
        <time>2018-08-07T10:20:24Z</time>
      </trkpt>
      <trkpt lat="42.58469" lon="0.21547">
        <ele>776.68</ele>
        <time>2018-08-07T10:20:26Z</time>
      </trkpt>
      <trkpt lat="42.58483" lon="0.21584">
        <ele>777.36</ele>
        <time>2018-08-07T10:20:28Z</time>
      </trkpt>
      <trkpt lat="42.58495" lon="0.21627">
        <ele>779.03</ele>
        <time>2018-08-07T10:20:30Z</time>
      </trkpt>
      <trkpt lat="42.58503" lon="0.21672">
        <ele>778.9</ele>
        <time>2018-08-07T10:20:32Z</time>
      </trkpt>
      <trkpt lat="42.5851" lon="0.21718">
        <ele>779.59</ele>
        <time>2018-08-07T10:20:34Z</time>
      </trkpt>
      <trkpt lat="42.58511" lon="0.21742">
        <ele>780.34</ele>
        <time>2018-08-07T10:20:35Z</time>
      </trkpt>
      <trkpt lat="42.58508" lon="0.21791">
        <ele>782.94</ele>
        <time>2018-08-07T10:20:37Z</time>
      </trkpt>
      <trkpt lat="42.58504" lon="0.21815">
        <ele>784.14</ele>
        <time>2018-08-07T10:20:38Z</time>
      </trkpt>
      <trkpt lat="42.585" lon="0.21839">
        <ele>786.6</ele>
        <time>2018-08-07T10:20:39Z</time>
      </trkpt>
      <trkpt lat="42.58496" lon="0.21864">
        <ele>788.04</ele>
        <time>2018-08-07T10:20:40Z</time>
      </trkpt>
      <trkpt lat="42.58492" lon="0.21888">
        <ele>789.17</ele>
        <time>2018-08-07T10:20:41Z</time>
      </trkpt>
      <trkpt lat="42.58487" lon="0.21913">
        <ele>790.91</ele>
        <time>2018-08-07T10:20:42Z</time>
      </trkpt>
      <trkpt lat="42.58479" lon="0.21961">
        <ele>795.02</ele>
        <time>2018-08-07T10:20:44Z</time>
      </trkpt>
      <trkpt lat="42.58475" lon="0.21985">
        <ele>796.87</ele>
        <time>2018-08-07T10:20:45Z</time>
      </trkpt>
      <trkpt lat="42.58473" lon="0.22009">
        <ele>798.12</ele>
        <time>2018-08-07T10:20:46Z</time>
      </trkpt>
      <trkpt lat="42.58469" lon="0.22058">
        <ele>802.74</ele>
        <time>2018-08-07T10:20:48Z</time>
      </trkpt>
      <trkpt lat="42.58471" lon="0.22106">
        <ele>806.8</ele>
        <time>2018-08-07T10:20:50Z</time>
      </trkpt>
      <trkpt lat="42.58475" lon="0.22153">
        <ele>809.68</ele>
        <time>2018-08-07T10:20:52Z</time>
      </trkpt>
      <trkpt lat="42.58476" lon="0.22178">
        <ele>811.76</ele>
        <time>2018-08-07T10:20:53Z</time>
      </trkpt>
      <trkpt lat="42.58479" lon="0.22203">
        <ele>813.79</ele>
        <time>2018-08-07T10:20:54Z</time>
      </trkpt>
      <trkpt lat="42.58488" lon="0.22249">
        <ele>818.71</ele>
        <time>2018-08-07T10:20:56Z</time>
      </trkpt>
      <trkpt lat="42.58497" lon="0.22271">
        <ele>820.77</ele>
        <time>2018-08-07T10:20:57Z</time>
      </trkpt>
      <trkpt lat="42.5851" lon="0.2229">
        <ele>822.79</ele>
        <time>2018-08-07T10:20:58Z</time>
      </trkpt>
      <trkpt lat="42.58526" lon="0.22306">
        <ele>825.5</ele>
        <time>2018-08-07T10:20:59Z</time>
      </trkpt>
      <trkpt lat="42.58546" lon="0.22318">
        <ele>827.71</ele>
        <time>2018-08-07T10:21:00Z</time>
      </trkpt>
      <trkpt lat="42.58566" lon="0.22327">
        <ele>830.47</ele>
        <time>2018-08-07T10:21:01Z</time>
      </trkpt>
      <trkpt lat="42.58587" lon="0.22335">
        <ele>832.7</ele>
        <time>2018-08-07T10:21:02Z</time>
      </trkpt>
      <trkpt lat="42.58607" lon="0.22344">
        <ele>834.77</ele>
        <time>2018-08-07T10:21:03Z</time>
      </trkpt>
      <trkpt lat="42.58627" lon="0.22352">
        <ele>836.79</ele>
        <time>2018-08-07T10:21:04Z</time>
      </trkpt>
      <trkpt lat="42.58647" lon="0.22361">
        <ele>838.8</ele>
        <time>2018-08-07T10:21:05Z</time>
      </trkpt>
      <trkpt lat="42.58667" lon="0.22372">
        <ele>840.1</ele>
        <time>2018-08-07T10:21:06Z</time>
      </trkpt>
      <trkpt lat="42.58686" lon="0.22385">
        <ele>841.19</ele>
        <time>2018-08-07T10:21:07Z</time>
      </trkpt>
      <trkpt lat="42.58705" lon="0.22399">
        <ele>842.22</ele>
        <time>2018-08-07T10:21:08Z</time>
      </trkpt>
      <trkpt lat="42.58724" lon="0.22415">
        <ele>843.23</ele>
        <time>2018-08-07T10:21:09Z</time>
      </trkpt>
      <trkpt lat="42.58742" lon="0.22431">
        <ele>845.63</ele>
        <time>2018-08-07T10:21:10Z</time>
      </trkpt>
      <trkpt lat="42.5876" lon="0.22448">
        <ele>847.05</ele>
        <time>2018-08-07T10:21:11Z</time>
      </trkpt>
      <trkpt lat="42.58778" lon="0.22467">
        <ele>848.88</ele>
        <time>2018-08-07T10:21:12Z</time>
      </trkpt>
      <trkpt lat="42.58795" lon="0.22488">
        <ele>850.12</ele>
        <time>2018-08-07T10:21:13Z</time>
      </trkpt>
      <trkpt lat="42.58809" lon="0.2251">
        <ele>851.2</ele>
        <time>2018-08-07T10:21:14Z</time>
      </trkpt>
      <trkpt lat="42.58822" lon="0.22537">
        <ele>852.22</ele>
        <time>2018-08-07T10:21:15Z</time>
      </trkpt>
      <trkpt lat="42.5882" lon="0.22572">
        <ele>853.23</ele>
        <time>2018-08-07T10:21:16Z</time>
      </trkpt>
      <trkpt lat="42.58821" lon="0.22603">
        <ele>854.93</ele>
        <time>2018-08-07T10:21:17Z</time>
      </trkpt>
      <trkpt lat="42.58819" lon="0.22635">
        <ele>857.54</ele>
        <time>2018-08-07T10:21:18Z</time>
      </trkpt>
      <trkpt lat="42.58817" lon="0.22669">
        <ele>859.02</ele>
        <time>2018-08-07T10:21:19Z</time>
      </trkpt>
      <trkpt lat="42.58816" lon="0.22701">
        <ele>860.87</ele>
        <time>2018-08-07T10:21:20Z</time>
      </trkpt>
      <trkpt lat="42.58816" lon="0.22734">
        <ele>862.82</ele>
        <time>2018-08-07T10:21:21Z</time>
      </trkpt>
      <trkpt lat="42.58816" lon="0.22768">
        <ele>864.11</ele>
        <time>2018-08-07T10:21:22Z</time>
      </trkpt>
      <trkpt lat="42.58817" lon="0.22802">
        <ele>865.19</ele>
        <time>2018-08-07T10:21:23Z</time>
      </trkpt>
      <trkpt lat="42.58818" lon="0.22834">
        <ele>865.52</ele>
        <time>2018-08-07T10:21:24Z</time>
      </trkpt>
      <trkpt lat="42.58821" lon="0.22864">
        <ele>865.62</ele>
        <time>2018-08-07T10:21:25Z</time>
      </trkpt>
      <trkpt lat="42.58826" lon="0.22894">
        <ele>864.95</ele>
        <time>2018-08-07T10:21:26Z</time>
      </trkpt>
      <trkpt lat="42.58837" lon="0.2293">
        <ele>864.74</ele>
        <time>2018-08-07T10:21:27Z</time>
      </trkpt>
      <trkpt lat="42.58858" lon="0.22963">
        <ele>866.78</ele>
        <time>2018-08-07T10:21:28Z</time>
      </trkpt>
      <trkpt lat="42.58869" lon="0.22996">
        <ele>868.8</ele>
        <time>2018-08-07T10:21:29Z</time>
      </trkpt>
      <trkpt lat="42.5888" lon="0.23029">
        <ele>870.1</ele>
        <time>2018-08-07T10:21:30Z</time>
      </trkpt>
      <trkpt lat="42.5889" lon="0.23062">
        <ele>869.79</ele>
        <time>2018-08-07T10:21:31Z</time>
      </trkpt>
      <trkpt lat="42.58901" lon="0.23096">
        <ele>870.4</ele>
        <time>2018-08-07T10:21:32Z</time>
      </trkpt>
      <trkpt lat="42.58916" lon="0.23126">
        <ele>871.28</ele>
        <time>2018-08-07T10:21:33Z</time>
      </trkpt>
      <trkpt lat="42.58932" lon="0.23154">
        <ele>872.94</ele>
        <time>2018-08-07T10:21:34Z</time>
      </trkpt>
      <trkpt lat="42.5895" lon="0.23182">
        <ele>873.44</ele>
        <time>2018-08-07T10:21:35Z</time>
      </trkpt>
      <trkpt lat="42.5897" lon="0.23209">
        <ele>873.59</ele>
        <time>2018-08-07T10:21:36Z</time>
      </trkpt>
      <trkpt lat="42.58991" lon="0.23233">
        <ele>873.64</ele>
        <time>2018-08-07T10:21:37Z</time>
      </trkpt>
      <trkpt lat="42.59013" lon="0.23253">
        <ele>874.35</ele>
        <time>2018-08-07T10:21:38Z</time>
      </trkpt>
      <trkpt lat="42.59037" lon="0.23271">
        <ele>875.27</ele>
        <time>2018-08-07T10:21:39Z</time>
      </trkpt>
      <trkpt lat="42.59062" lon="0.23289">
        <ele>876.94</ele>
        <time>2018-08-07T10:21:40Z</time>
      </trkpt>
      <trkpt lat="42.59087" lon="0.23306">
        <ele>877.44</ele>
        <time>2018-08-07T10:21:41Z</time>
      </trkpt>
      <trkpt lat="42.59111" lon="0.23323">
        <ele>878.29</ele>
        <time>2018-08-07T10:21:42Z</time>
      </trkpt>
      <trkpt lat="42.59135" lon="0.23341">
        <ele>878.55</ele>
        <time>2018-08-07T10:21:43Z</time>
      </trkpt>
      <trkpt lat="42.59161" lon="0.2336">
        <ele>880.03</ele>
        <time>2018-08-07T10:21:44Z</time>
      </trkpt>
      <trkpt lat="42.59185" lon="0.23379">
        <ele>881.17</ele>
        <time>2018-08-07T10:21:45Z</time>
      </trkpt>
      <trkpt lat="42.5921" lon="0.23399">
        <ele>882.21</ele>
        <time>2018-08-07T10:21:46Z</time>
      </trkpt>
      <trkpt lat="42.59234" lon="0.23419">
        <ele>882.52</ele>
        <time>2018-08-07T10:21:47Z</time>
      </trkpt>
      <trkpt lat="42.59258" lon="0.23438">
        <ele>883.32</ele>
        <time>2018-08-07T10:21:48Z</time>
      </trkpt>
      <trkpt lat="42.59283" lon="0.2346">
        <ele>884.26</ele>
        <time>2018-08-07T10:21:49Z</time>
      </trkpt>
      <trkpt lat="42.59309" lon="0.23483">
        <ele>884.54</ele>
        <time>2018-08-07T10:21:50Z</time>
      </trkpt>
      <trkpt lat="42.59335" lon="0.23507">
        <ele>885.32</ele>
        <time>2018-08-07T10:21:51Z</time>
      </trkpt>
      <trkpt lat="42.59363" lon="0.23533">
        <ele>886.26</ele>
        <time>2018-08-07T10:21:52Z</time>
      </trkpt>
      <trkpt lat="42.5939" lon="0.23561">
        <ele>885.84</ele>
        <time>2018-08-07T10:21:53Z</time>
      </trkpt>
      <trkpt lat="42.59417" lon="0.23586">
        <ele>886.41</ele>
        <time>2018-08-07T10:21:54Z</time>
      </trkpt>
      <trkpt lat="42.59439" lon="0.23612">
        <ele>886.58</ele>
        <time>2018-08-07T10:21:55Z</time>
      </trkpt>
      <trkpt lat="42.59462" lon="0.23637">
        <ele>886.64</ele>
        <time>2018-08-07T10:21:56Z</time>
      </trkpt>
      <trkpt lat="42.59484" lon="0.23659">
        <ele>887.35</ele>
        <time>2018-08-07T10:21:57Z</time>
      </trkpt>
      <trkpt lat="42.59506" lon="0.23679">
        <ele>887.57</ele>
        <time>2018-08-07T10:21:58Z</time>
      </trkpt>
      <trkpt lat="42.59528" lon="0.23697">
        <ele>887.63</ele>
        <time>2018-08-07T10:21:59Z</time>
      </trkpt>
      <trkpt lat="42.5955" lon="0.23712">
        <ele>888.35</ele>
        <time>2018-08-07T10:22:00Z</time>
      </trkpt>
      <trkpt lat="42.59573" lon="0.23726">
        <ele>888.57</ele>
        <time>2018-08-07T10:22:01Z</time>
      </trkpt>
      <trkpt lat="42.59596" lon="0.23738">
        <ele>888.63</ele>
        <time>2018-08-07T10:22:02Z</time>
      </trkpt>
      <trkpt lat="42.59619" lon="0.23747">
        <ele>889.35</ele>
        <time>2018-08-07T10:22:03Z</time>
      </trkpt>
      <trkpt lat="42.59642" lon="0.23755">
        <ele>890.27</ele>
        <time>2018-08-07T10:22:04Z</time>
      </trkpt>
      <trkpt lat="42.59667" lon="0.23761">
        <ele>891.94</ele>
        <time>2018-08-07T10:22:05Z</time>
      </trkpt>
      <trkpt lat="42.59692" lon="0.23769">
        <ele>893.84</ele>
        <time>2018-08-07T10:22:06Z</time>
      </trkpt>
      <trkpt lat="42.59716" lon="0.23776">
        <ele>895.11</ele>
        <time>2018-08-07T10:22:07Z</time>
      </trkpt>
      <trkpt lat="42.5974" lon="0.23787">
        <ele>896.19</ele>
        <time>2018-08-07T10:22:08Z</time>
      </trkpt>
      <trkpt lat="42.59764" lon="0.238">
        <ele>897.22</ele>
        <time>2018-08-07T10:22:09Z</time>
      </trkpt>
      <trkpt lat="42.59788" lon="0.23816">
        <ele>897.53</ele>
        <time>2018-08-07T10:22:10Z</time>
      </trkpt>
      <trkpt lat="42.59814" lon="0.23835">
        <ele>898.32</ele>
        <time>2018-08-07T10:22:11Z</time>
      </trkpt>
      <trkpt lat="42.5984" lon="0.23857">
        <ele>899.26</ele>
        <time>2018-08-07T10:22:12Z</time>
      </trkpt>
      <trkpt lat="42.59867" lon="0.2388">
        <ele>900.24</ele>
        <time>2018-08-07T10:22:13Z</time>
      </trkpt>
      <trkpt lat="42.59892" lon="0.23902">
        <ele>899.83</ele>
        <time>2018-08-07T10:22:14Z</time>
      </trkpt>
      <trkpt lat="42.59917" lon="0.23923">
        <ele>900.41</ele>
        <time>2018-08-07T10:22:15Z</time>
      </trkpt>
      <trkpt lat="42.5994" lon="0.23942">
        <ele>899.18</ele>
        <time>2018-08-07T10:22:16Z</time>
      </trkpt>
      <trkpt lat="42.59962" lon="0.23962">
        <ele>899.52</ele>
        <time>2018-08-07T10:22:17Z</time>
      </trkpt>
      <trkpt lat="42.59984" lon="0.23978">
        <ele>899.62</ele>
        <time>2018-08-07T10:22:18Z</time>
      </trkpt>
      <trkpt lat="42.60008" lon="0.23993">
        <ele>900.35</ele>
        <time>2018-08-07T10:22:19Z</time>
      </trkpt>
      <trkpt lat="42.60031" lon="0.24004">
        <ele>900.56</ele>
        <time>2018-08-07T10:22:20Z</time>
      </trkpt>
      <trkpt lat="42.60055" lon="0.24014">
        <ele>899.93</ele>
        <time>2018-08-07T10:22:21Z</time>
      </trkpt>
      <trkpt lat="42.60079" lon="0.24022">
        <ele>899.74</ele>
        <time>2018-08-07T10:22:22Z</time>
      </trkpt>
      <trkpt lat="42.60103" lon="0.24028">
        <ele>901.08</ele>
        <time>2018-08-07T10:22:23Z</time>
      </trkpt>
      <trkpt lat="42.60129" lon="0.2403">
        <ele>902.19</ele>
        <time>2018-08-07T10:22:24Z</time>
      </trkpt>
      <trkpt lat="42.60157" lon="0.24029">
        <ele>903.22</ele>
        <time>2018-08-07T10:22:25Z</time>
      </trkpt>
      <trkpt lat="42.60185" lon="0.24028">
        <ele>903.53</ele>
        <time>2018-08-07T10:22:26Z</time>
      </trkpt>
      <trkpt lat="42.60215" lon="0.24026">
        <ele>905.02</ele>
        <time>2018-08-07T10:22:27Z</time>
      </trkpt>
      <trkpt lat="42.60244" lon="0.24025">
        <ele>906.87</ele>
        <time>2018-08-07T10:22:28Z</time>
      </trkpt>
      <trkpt lat="42.60273" lon="0.24022">
        <ele>908.82</ele>
        <time>2018-08-07T10:22:29Z</time>
      </trkpt>
      <trkpt lat="42.60301" lon="0.24017">
        <ele>910.11</ele>
        <time>2018-08-07T10:22:30Z</time>
      </trkpt>
      <trkpt lat="42.60328" lon="0.24009">
        <ele>911.89</ele>
        <time>2018-08-07T10:22:31Z</time>
      </trkpt>
      <trkpt lat="42.60357" lon="0.24001">
        <ele>912.43</ele>
        <time>2018-08-07T10:22:32Z</time>
      </trkpt>
      <trkpt lat="42.60387" lon="0.23987">
        <ele>913.29</ele>
        <time>2018-08-07T10:22:33Z</time>
      </trkpt>
      <trkpt lat="42.60417" lon="0.23974">
        <ele>914.95</ele>
        <time>2018-08-07T10:22:34Z</time>
      </trkpt>
      <trkpt lat="42.60448" lon="0.2396">
        <ele>916.84</ele>
        <time>2018-08-07T10:22:35Z</time>
      </trkpt>
      <trkpt lat="42.6048" lon="0.23947">
        <ele>918.11</ele>
        <time>2018-08-07T10:22:36Z</time>
      </trkpt>
      <trkpt lat="42.60511" lon="0.23935">
        <ele>918.49</ele>
        <time>2018-08-07T10:22:37Z</time>
      </trkpt>
      <trkpt lat="42.60541" lon="0.23923">
        <ele>919.31</ele>
        <time>2018-08-07T10:22:38Z</time>
      </trkpt>
      <trkpt lat="42.60572" lon="0.23912">
        <ele>920.25</ele>
        <time>2018-08-07T10:22:39Z</time>
      </trkpt>
      <trkpt lat="42.60604" lon="0.23903">
        <ele>921.24</ele>
        <time>2018-08-07T10:22:40Z</time>
      </trkpt>
      <trkpt lat="42.60634" lon="0.23898">
        <ele>922.23</ele>
        <time>2018-08-07T10:22:41Z</time>
      </trkpt>
      <trkpt lat="42.60666" lon="0.23894">
        <ele>921.83</ele>
        <time>2018-08-07T10:22:42Z</time>
      </trkpt>
      <trkpt lat="42.60696" lon="0.23891">
        <ele>923.81</ele>
        <time>2018-08-07T10:22:43Z</time>
      </trkpt>
      <trkpt lat="42.60728" lon="0.23886">
        <ele>925.8</ele>
        <time>2018-08-07T10:22:44Z</time>
      </trkpt>
      <trkpt lat="42.60759" lon="0.2388">
        <ele>927.1</ele>
        <time>2018-08-07T10:22:45Z</time>
      </trkpt>
      <trkpt lat="42.60789" lon="0.23873">
        <ele>928.89</ele>
        <time>2018-08-07T10:22:46Z</time>
      </trkpt>
      <trkpt lat="42.60819" lon="0.23864">
        <ele>929.43</ele>
        <time>2018-08-07T10:22:47Z</time>
      </trkpt>
      <trkpt lat="42.60847" lon="0.23854">
        <ele>930.99</ele>
        <time>2018-08-07T10:22:48Z</time>
      </trkpt>
      <trkpt lat="42.60875" lon="0.23842">
        <ele>932.16</ele>
        <time>2018-08-07T10:22:49Z</time>
      </trkpt>
      <trkpt lat="42.60903" lon="0.23829">
        <ele>932.51</ele>
        <time>2018-08-07T10:22:50Z</time>
      </trkpt>
      <trkpt lat="42.6093" lon="0.23818">
        <ele>931.91</ele>
        <time>2018-08-07T10:22:51Z</time>
      </trkpt>
      <trkpt lat="42.60956" lon="0.23804">
        <ele>931.73</ele>
        <time>2018-08-07T10:22:52Z</time>
      </trkpt>
      <trkpt lat="42.60978" lon="0.23792">
        <ele>931.68</ele>
        <time>2018-08-07T10:22:53Z</time>
      </trkpt>
      <trkpt lat="42.60997" lon="0.23779">
        <ele>932.36</ele>
        <time>2018-08-07T10:22:54Z</time>
      </trkpt>
      <trkpt lat="42.61017" lon="0.23765">
        <ele>932.57</ele>
        <time>2018-08-07T10:22:55Z</time>
      </trkpt>
      <trkpt lat="42.61033" lon="0.23746">
        <ele>933.33</ele>
        <time>2018-08-07T10:22:56Z</time>
      </trkpt>
      <trkpt lat="42.61047" lon="0.23727">
        <ele>933.56</ele>
        <time>2018-08-07T10:22:57Z</time>
      </trkpt>
      <trkpt lat="42.61057" lon="0.23702">
        <ele>934.33</ele>
        <time>2018-08-07T10:22:58Z</time>
      </trkpt>
      <trkpt lat="42.61061" lon="0.23675">
        <ele>934.56</ele>
        <time>2018-08-07T10:22:59Z</time>
      </trkpt>
      <trkpt lat="42.61059" lon="0.23645">
        <ele>934.63</ele>
        <time>2018-08-07T10:23:00Z</time>
      </trkpt>
      <trkpt lat="42.61056" lon="0.23611">
        <ele>936.05</ele>
        <time>2018-08-07T10:23:01Z</time>
      </trkpt>
      <trkpt lat="42.61046" lon="0.2358">
        <ele>937.18</ele>
        <time>2018-08-07T10:23:02Z</time>
      </trkpt>
      <trkpt lat="42.61044" lon="0.23552">
        <ele>938.21</ele>
        <time>2018-08-07T10:23:03Z</time>
      </trkpt>
      <trkpt lat="42.61048" lon="0.23527">
        <ele>939.22</ele>
        <time>2018-08-07T10:23:04Z</time>
      </trkpt>
      <trkpt lat="42.61052" lon="0.23502">
        <ele>939.53</ele>
        <time>2018-08-07T10:23:05Z</time>
      </trkpt>
      <trkpt lat="42.61071" lon="0.23462">
        <ele>941.26</ele>
        <time>2018-08-07T10:23:07Z</time>
      </trkpt>
      <trkpt lat="42.61099" lon="0.23425">
        <ele>942.04</ele>
        <time>2018-08-07T10:23:09Z</time>
      </trkpt>
      <trkpt lat="42.61116" lon="0.23411">
        <ele>942.47</ele>
        <time>2018-08-07T10:23:10Z</time>
      </trkpt>
      <trkpt lat="42.61137" lon="0.23398">
        <ele>943.3</ele>
        <time>2018-08-07T10:23:11Z</time>
      </trkpt>
      <trkpt lat="42.61157" lon="0.23381">
        <ele>944.25</ele>
        <time>2018-08-07T10:23:12Z</time>
      </trkpt>
      <trkpt lat="42.61178" lon="0.23364">
        <ele>944.54</ele>
        <time>2018-08-07T10:23:13Z</time>
      </trkpt>
      <trkpt lat="42.61207" lon="0.23351">
        <ele>944.62</ele>
        <time>2018-08-07T10:23:14Z</time>
      </trkpt>
      <trkpt lat="42.61242" lon="0.23338">
        <ele>946.05</ele>
        <time>2018-08-07T10:23:15Z</time>
      </trkpt>
      <trkpt lat="42.61268" lon="0.23321">
        <ele>948.57</ele>
        <time>2018-08-07T10:23:16Z</time>
      </trkpt>
      <trkpt lat="42.61298" lon="0.23306">
        <ele>950.03</ele>
        <time>2018-08-07T10:23:17Z</time>
      </trkpt>
      <trkpt lat="42.61327" lon="0.23291">
        <ele>950.47</ele>
        <time>2018-08-07T10:23:18Z</time>
      </trkpt>
      <trkpt lat="42.61359" lon="0.23278">
        <ele>952</ele>
        <time>2018-08-07T10:23:19Z</time>
      </trkpt>
      <trkpt lat="42.61389" lon="0.23262">
        <ele>953.16</ele>
        <time>2018-08-07T10:23:20Z</time>
      </trkpt>
      <trkpt lat="42.61418" lon="0.23245">
        <ele>954.21</ele>
        <time>2018-08-07T10:23:21Z</time>
      </trkpt>
      <trkpt lat="42.61446" lon="0.23228">
        <ele>955.92</ele>
        <time>2018-08-07T10:23:22Z</time>
      </trkpt>
      <trkpt lat="42.61474" lon="0.23214">
        <ele>956.44</ele>
        <time>2018-08-07T10:23:23Z</time>
      </trkpt>
      <trkpt lat="42.61502" lon="0.232">
        <ele>957.99</ele>
        <time>2018-08-07T10:23:24Z</time>
      </trkpt>
      <trkpt lat="42.61529" lon="0.23184">
        <ele>958.46</ele>
        <time>2018-08-07T10:23:25Z</time>
      </trkpt>
      <trkpt lat="42.61555" lon="0.23166">
        <ele>957.9</ele>
        <time>2018-08-07T10:23:26Z</time>
      </trkpt>
      <trkpt lat="42.61582" lon="0.23147">
        <ele>956.33</ele>
        <time>2018-08-07T10:23:27Z</time>
      </trkpt>
      <trkpt lat="42.61607" lon="0.23128">
        <ele>955.86</ele>
        <time>2018-08-07T10:23:28Z</time>
      </trkpt>
      <trkpt lat="42.61631" lon="0.23113">
        <ele>955.72</ele>
        <time>2018-08-07T10:23:29Z</time>
      </trkpt>
      <trkpt lat="42.61656" lon="0.23098">
        <ele>955.68</ele>
        <time>2018-08-07T10:23:30Z</time>
      </trkpt>
      <trkpt lat="42.61681" lon="0.23089">
        <ele>955.66</ele>
        <time>2018-08-07T10:23:31Z</time>
      </trkpt>
      <trkpt lat="42.61708" lon="0.23083">
        <ele>956.36</ele>
        <time>2018-08-07T10:23:32Z</time>
      </trkpt>
      <trkpt lat="42.61735" lon="0.23081">
        <ele>956.57</ele>
        <time>2018-08-07T10:23:33Z</time>
      </trkpt>
      <trkpt lat="42.61763" lon="0.23081">
        <ele>956.63</ele>
        <time>2018-08-07T10:23:34Z</time>
      </trkpt>
      <trkpt lat="42.6179" lon="0.23082">
        <ele>957.35</ele>
        <time>2018-08-07T10:23:35Z</time>
      </trkpt>
      <trkpt lat="42.61817" lon="0.23082">
        <ele>958.27</ele>
        <time>2018-08-07T10:23:36Z</time>
      </trkpt>
      <trkpt lat="42.61845" lon="0.23083">
        <ele>958.54</ele>
        <time>2018-08-07T10:23:37Z</time>
      </trkpt>
      <trkpt lat="42.61872" lon="0.23086">
        <ele>959.32</ele>
        <time>2018-08-07T10:23:38Z</time>
      </trkpt>
      <trkpt lat="42.619" lon="0.2309">
        <ele>960.96</ele>
        <time>2018-08-07T10:23:39Z</time>
      </trkpt>
      <trkpt lat="42.61926" lon="0.23096">
        <ele>962.85</ele>
        <time>2018-08-07T10:23:40Z</time>
      </trkpt>
      <trkpt lat="42.61954" lon="0.23104">
        <ele>964.81</ele>
        <time>2018-08-07T10:23:41Z</time>
      </trkpt>
      <trkpt lat="42.6198" lon="0.2311">
        <ele>966.81</ele>
        <time>2018-08-07T10:23:42Z</time>
      </trkpt>
      <trkpt lat="42.62006" lon="0.23117">
        <ele>968.1</ele>
        <time>2018-08-07T10:23:43Z</time>
      </trkpt>
      <trkpt lat="42.62033" lon="0.23121">
        <ele>969.19</ele>
        <time>2018-08-07T10:23:44Z</time>
      </trkpt>
      <trkpt lat="42.62059" lon="0.23118">
        <ele>970.92</ele>
        <time>2018-08-07T10:23:45Z</time>
      </trkpt>
      <trkpt lat="42.62086" lon="0.23111">
        <ele>972.14</ele>
        <time>2018-08-07T10:23:46Z</time>
      </trkpt>
      <trkpt lat="42.62112" lon="0.231">
        <ele>973.2</ele>
        <time>2018-08-07T10:23:47Z</time>
      </trkpt>
      <trkpt lat="42.62139" lon="0.23088">
        <ele>974.22</ele>
        <time>2018-08-07T10:23:48Z</time>
      </trkpt>
      <trkpt lat="42.62164" lon="0.23067">
        <ele>975.93</ele>
        <time>2018-08-07T10:23:49Z</time>
      </trkpt>
      <trkpt lat="42.6219" lon="0.2305">
        <ele>977.14</ele>
        <time>2018-08-07T10:23:50Z</time>
      </trkpt>
      <trkpt lat="42.62217" lon="0.23032">
        <ele>978.2</ele>
        <time>2018-08-07T10:23:51Z</time>
      </trkpt>
      <trkpt lat="42.62243" lon="0.23015">
        <ele>979.22</ele>
        <time>2018-08-07T10:23:52Z</time>
      </trkpt>
      <trkpt lat="42.62268" lon="0.22997">
        <ele>980.23</ele>
        <time>2018-08-07T10:23:53Z</time>
      </trkpt>
      <trkpt lat="42.62293" lon="0.2298">
        <ele>981.23</ele>
        <time>2018-08-07T10:23:54Z</time>
      </trkpt>
      <trkpt lat="42.62317" lon="0.22958">
        <ele>982.23</ele>
        <time>2018-08-07T10:23:55Z</time>
      </trkpt>
      <trkpt lat="42.62338" lon="0.22937">
        <ele>983.23</ele>
        <time>2018-08-07T10:23:56Z</time>
      </trkpt>
      <trkpt lat="42.62361" lon="0.22915">
        <ele>983.53</ele>
        <time>2018-08-07T10:23:57Z</time>
      </trkpt>
      <trkpt lat="42.62384" lon="0.22893">
        <ele>985.02</ele>
        <time>2018-08-07T10:23:58Z</time>
      </trkpt>
      <trkpt lat="42.62406" lon="0.22872">
        <ele>985.47</ele>
        <time>2018-08-07T10:23:59Z</time>
      </trkpt>
      <trkpt lat="42.62429" lon="0.22854">
        <ele>986.3</ele>
        <time>2018-08-07T10:24:00Z</time>
      </trkpt>
      <trkpt lat="42.62454" lon="0.22837">
        <ele>986.55</ele>
        <time>2018-08-07T10:24:01Z</time>
      </trkpt>
      <trkpt lat="42.62479" lon="0.22825">
        <ele>987.33</ele>
        <time>2018-08-07T10:24:02Z</time>
      </trkpt>
      <trkpt lat="42.62504" lon="0.22815">
        <ele>988.26</ele>
        <time>2018-08-07T10:24:03Z</time>
      </trkpt>
      <trkpt lat="42.62529" lon="0.22806">
        <ele>989.24</ele>
        <time>2018-08-07T10:24:04Z</time>
      </trkpt>
      <trkpt lat="42.62554" lon="0.22799">
        <ele>990.23</ele>
        <time>2018-08-07T10:24:05Z</time>
      </trkpt>
      <trkpt lat="42.6258" lon="0.22794">
        <ele>991.23</ele>
        <time>2018-08-07T10:24:06Z</time>
      </trkpt>
      <trkpt lat="42.62606" lon="0.22791">
        <ele>992.23</ele>
        <time>2018-08-07T10:24:07Z</time>
      </trkpt>
      <trkpt lat="42.62631" lon="0.22792">
        <ele>993.93</ele>
        <time>2018-08-07T10:24:08Z</time>
      </trkpt>
      <trkpt lat="42.62655" lon="0.22792">
        <ele>995.84</ele>
        <time>2018-08-07T10:24:09Z</time>
      </trkpt>
      <trkpt lat="42.62678" lon="0.2279">
        <ele>997.81</ele>
        <time>2018-08-07T10:24:10Z</time>
      </trkpt>
      <trkpt lat="42.62698" lon="0.22784">
        <ele>999.8</ele>
        <time>2018-08-07T10:24:11Z</time>
      </trkpt>
      <trkpt lat="42.62717" lon="0.22771">
        <ele>1001.1</ele>
        <time>2018-08-07T10:24:12Z</time>
      </trkpt>
      <trkpt lat="42.62737" lon="0.22757">
        <ele>1002.19</ele>
        <time>2018-08-07T10:24:13Z</time>
      </trkpt>
      <trkpt lat="42.62754" lon="0.2274">
        <ele>1002.52</ele>
        <time>2018-08-07T10:24:14Z</time>
      </trkpt>
      <trkpt lat="42.62765" lon="0.22716">
        <ele>1001.92</ele>
        <time>2018-08-07T10:24:15Z</time>
      </trkpt>
      <trkpt lat="42.62776" lon="0.22692">
        <ele>1002.44</ele>
        <time>2018-08-07T10:24:16Z</time>
      </trkpt>
      <trkpt lat="42.62784" lon="0.22659">
        <ele>1001.19</ele>
        <time>2018-08-07T10:24:17Z</time>
      </trkpt>
      <trkpt lat="42.62782" lon="0.2262">
        <ele>1001.52</ele>
        <time>2018-08-07T10:24:18Z</time>
      </trkpt>
      <trkpt lat="42.62791" lon="0.22588">
        <ele>1001.62</ele>
        <time>2018-08-07T10:24:19Z</time>
      </trkpt>
      <trkpt lat="42.62804" lon="0.22559">
        <ele>1002.35</ele>
        <time>2018-08-07T10:24:20Z</time>
      </trkpt>
      <trkpt lat="42.62822" lon="0.22534">
        <ele>1002.56</ele>
        <time>2018-08-07T10:24:21Z</time>
      </trkpt>
      <trkpt lat="42.6284" lon="0.22508">
        <ele>1002.63</ele>
        <time>2018-08-07T10:24:22Z</time>
      </trkpt>
      <trkpt lat="42.62857" lon="0.22483">
        <ele>1003.35</ele>
        <time>2018-08-07T10:24:23Z</time>
      </trkpt>
      <trkpt lat="42.62874" lon="0.22459">
        <ele>1002.87</ele>
        <time>2018-08-07T10:24:24Z</time>
      </trkpt>
      <trkpt lat="42.6289" lon="0.22435">
        <ele>1002.72</ele>
        <time>2018-08-07T10:24:25Z</time>
      </trkpt>
      <trkpt lat="42.62907" lon="0.2241">
        <ele>1002.68</ele>
        <time>2018-08-07T10:24:26Z</time>
      </trkpt>
      <trkpt lat="42.62924" lon="0.22389">
        <ele>1002.66</ele>
        <time>2018-08-07T10:24:27Z</time>
      </trkpt>
      <trkpt lat="42.62941" lon="0.22367">
        <ele>1002.66</ele>
        <time>2018-08-07T10:24:28Z</time>
      </trkpt>
      <trkpt lat="42.62959" lon="0.22345">
        <ele>1003.36</ele>
        <time>2018-08-07T10:24:29Z</time>
      </trkpt>
      <trkpt lat="42.62977" lon="0.22325">
        <ele>1003.57</ele>
        <time>2018-08-07T10:24:30Z</time>
      </trkpt>
      <trkpt lat="42.62995" lon="0.22305">
        <ele>1004.33</ele>
        <time>2018-08-07T10:24:31Z</time>
      </trkpt>
      <trkpt lat="42.63012" lon="0.22286">
        <ele>1005.96</ele>
        <time>2018-08-07T10:24:32Z</time>
      </trkpt>
      <trkpt lat="42.6303" lon="0.22267">
        <ele>1007.15</ele>
        <time>2018-08-07T10:24:33Z</time>
      </trkpt>
      <trkpt lat="42.63046" lon="0.22249">
        <ele>1007.51</ele>
        <time>2018-08-07T10:24:34Z</time>
      </trkpt>
      <trkpt lat="42.63063" lon="0.22233">
        <ele>1007.61</ele>
        <time>2018-08-07T10:24:35Z</time>
      </trkpt>
      <trkpt lat="42.6308" lon="0.22217">
        <ele>1008.34</ele>
        <time>2018-08-07T10:24:36Z</time>
      </trkpt>
      <trkpt lat="42.63098" lon="0.22201">
        <ele>1009.26</ele>
        <time>2018-08-07T10:24:37Z</time>
      </trkpt>
      <trkpt lat="42.63118" lon="0.22189">
        <ele>1009.54</ele>
        <time>2018-08-07T10:24:38Z</time>
      </trkpt>
      <trkpt lat="42.63137" lon="0.22177">
        <ele>1010.32</ele>
        <time>2018-08-07T10:24:39Z</time>
      </trkpt>
      <trkpt lat="42.63158" lon="0.22168">
        <ele>1011.26</ele>
        <time>2018-08-07T10:24:40Z</time>
      </trkpt>
      <trkpt lat="42.63179" lon="0.22161">
        <ele>1010.84</ele>
        <time>2018-08-07T10:24:41Z</time>
      </trkpt>
      <trkpt lat="42.632" lon="0.22157">
        <ele>1011.41</ele>
        <time>2018-08-07T10:24:42Z</time>
      </trkpt>
      <trkpt lat="42.63222" lon="0.22153">
        <ele>1012.28</ele>
        <time>2018-08-07T10:24:43Z</time>
      </trkpt>
      <trkpt lat="42.63245" lon="0.22149">
        <ele>1012.55</ele>
        <time>2018-08-07T10:24:44Z</time>
      </trkpt>
      <trkpt lat="42.63268" lon="0.22145">
        <ele>1013.32</ele>
        <time>2018-08-07T10:24:45Z</time>
      </trkpt>
      <trkpt lat="42.63291" lon="0.22141">
        <ele>1013.56</ele>
        <time>2018-08-07T10:24:46Z</time>
      </trkpt>
      <trkpt lat="42.63315" lon="0.22135">
        <ele>1013.63</ele>
        <time>2018-08-07T10:24:47Z</time>
      </trkpt>
      <trkpt lat="42.63339" lon="0.22128">
        <ele>1014.35</ele>
        <time>2018-08-07T10:24:48Z</time>
      </trkpt>
      <trkpt lat="42.63362" lon="0.2212">
        <ele>1014.57</ele>
        <time>2018-08-07T10:24:49Z</time>
      </trkpt>
      <trkpt lat="42.63383" lon="0.22105">
        <ele>1015.33</ele>
        <time>2018-08-07T10:24:50Z</time>
      </trkpt>
      <trkpt lat="42.63406" lon="0.2209">
        <ele>1016.96</ele>
        <time>2018-08-07T10:24:51Z</time>
      </trkpt>
      <trkpt lat="42.63428" lon="0.22076">
        <ele>1018.15</ele>
        <time>2018-08-07T10:24:52Z</time>
      </trkpt>
      <trkpt lat="42.6345" lon="0.22061">
        <ele>1019.91</ele>
        <time>2018-08-07T10:24:53Z</time>
      </trkpt>
      <trkpt lat="42.63471" lon="0.22047">
        <ele>1021.13</ele>
        <time>2018-08-07T10:24:54Z</time>
      </trkpt>
      <trkpt lat="42.63493" lon="0.22031">
        <ele>1022.2</ele>
        <time>2018-08-07T10:24:55Z</time>
      </trkpt>
      <trkpt lat="42.63514" lon="0.22014">
        <ele>1023.22</ele>
        <time>2018-08-07T10:24:56Z</time>
      </trkpt>
      <trkpt lat="42.6353" lon="0.21991">
        <ele>1024.23</ele>
        <time>2018-08-07T10:24:57Z</time>
      </trkpt>
      <trkpt lat="42.63547" lon="0.21968">
        <ele>1025.23</ele>
        <time>2018-08-07T10:24:58Z</time>
      </trkpt>
      <trkpt lat="42.63562" lon="0.21943">
        <ele>1026.23</ele>
        <time>2018-08-07T10:24:59Z</time>
      </trkpt>
      <trkpt lat="42.63577" lon="0.21917">
        <ele>1027.23</ele>
        <time>2018-08-07T10:25:00Z</time>
      </trkpt>
      <trkpt lat="42.63591" lon="0.2189">
        <ele>1028.93</ele>
        <time>2018-08-07T10:25:01Z</time>
      </trkpt>
      <trkpt lat="42.63606" lon="0.21862">
        <ele>1030.14</ele>
        <time>2018-08-07T10:25:02Z</time>
      </trkpt>
      <trkpt lat="42.6362" lon="0.21834">
        <ele>1031.2</ele>
        <time>2018-08-07T10:25:03Z</time>
      </trkpt>
      <trkpt lat="42.63634" lon="0.21805">
        <ele>1031.52</ele>
        <time>2018-08-07T10:25:04Z</time>
      </trkpt>
      <trkpt lat="42.63646" lon="0.21776">
        <ele>1031.62</ele>
        <time>2018-08-07T10:25:05Z</time>
      </trkpt>
      <trkpt lat="42.63657" lon="0.21746">
        <ele>1032.35</ele>
        <time>2018-08-07T10:25:06Z</time>
      </trkpt>
      <trkpt lat="42.63668" lon="0.21719">
        <ele>1032.56</ele>
        <time>2018-08-07T10:25:07Z</time>
      </trkpt>
      <trkpt lat="42.63678" lon="0.21692">
        <ele>1032.63</ele>
        <time>2018-08-07T10:25:08Z</time>
      </trkpt>
      <trkpt lat="42.63688" lon="0.21668">
        <ele>1032.65</ele>
        <time>2018-08-07T10:25:09Z</time>
      </trkpt>
      <trkpt lat="42.63701" lon="0.21645">
        <ele>1032.66</ele>
        <time>2018-08-07T10:25:10Z</time>
      </trkpt>
      <trkpt lat="42.63714" lon="0.21627">
        <ele>1033.36</ele>
        <time>2018-08-07T10:25:11Z</time>
      </trkpt>
      <trkpt lat="42.63729" lon="0.2161">
        <ele>1034.27</ele>
        <time>2018-08-07T10:25:12Z</time>
      </trkpt>
      <trkpt lat="42.63745" lon="0.21595">
        <ele>1034.54</ele>
        <time>2018-08-07T10:25:13Z</time>
      </trkpt>
      <trkpt lat="42.63766" lon="0.21589">
        <ele>1034.62</ele>
        <time>2018-08-07T10:25:14Z</time>
      </trkpt>
      <trkpt lat="42.63784" lon="0.21581">
        <ele>1036.05</ele>
        <time>2018-08-07T10:25:15Z</time>
      </trkpt>
      <trkpt lat="42.63802" lon="0.21573">
        <ele>1037.17</ele>
        <time>2018-08-07T10:25:16Z</time>
      </trkpt>
      <trkpt lat="42.63832" lon="0.21558">
        <ele>1038.31</ele>
        <time>2018-08-07T10:25:18Z</time>
      </trkpt>
      <trkpt lat="42.63855" lon="0.21547">
        <ele>1039.33</ele>
        <time>2018-08-07T10:25:20Z</time>
      </trkpt>
      <trkpt lat="42.63873" lon="0.21539">
        <ele>1038.02</ele>
        <time>2018-08-07T10:25:22Z</time>
      </trkpt>
      <trkpt lat="42.6389" lon="0.2153">
        <ele>1036.76</ele>
        <time>2018-08-07T10:25:25Z</time>
      </trkpt>
      <trkpt lat="42.63887" lon="0.21498">
        <ele>1036.64</ele>
        <time>2018-08-07T10:25:29Z</time>
      </trkpt>
      <trkpt lat="42.63866" lon="0.21485">
        <ele>1035.05</ele>
        <time>2018-08-07T10:25:31Z</time>
      </trkpt>
      <trkpt lat="42.63847" lon="0.21474">
        <ele>1033.78</ele>
        <time>2018-08-07T10:25:33Z</time>
      </trkpt>
      <trkpt lat="42.63823" lon="0.21481">
        <ele>1031.99</ele>
        <time>2018-08-07T10:25:36Z</time>
      </trkpt>
      <trkpt lat="42.63803" lon="0.21492">
        <ele>1030.99</ele>
        <time>2018-08-07T10:25:38Z</time>
      </trkpt>
      <trkpt lat="42.63775" lon="0.21504">
        <ele>1030.69</ele>
        <time>2018-08-07T10:25:40Z</time>
      </trkpt>
      <trkpt lat="42.63743" lon="0.21519">
        <ele>1029.05</ele>
        <time>2018-08-07T10:25:42Z</time>
      </trkpt>
      <trkpt lat="42.63712" lon="0.21535">
        <ele>1027.78</ele>
        <time>2018-08-07T10:25:44Z</time>
      </trkpt>
      <trkpt lat="42.63688" lon="0.21548">
        <ele>1026.06</ele>
        <time>2018-08-07T10:25:46Z</time>
      </trkpt>
      <trkpt lat="42.6367" lon="0.21564">
        <ele>1024.78</ele>
        <time>2018-08-07T10:25:48Z</time>
      </trkpt>
      <trkpt lat="42.6365" lon="0.21588">
        <ele>1024.67</ele>
        <time>2018-08-07T10:25:50Z</time>
      </trkpt>
      <trkpt lat="42.63631" lon="0.21616">
        <ele>1024.66</ele>
        <time>2018-08-07T10:25:52Z</time>
      </trkpt>
      <trkpt lat="42.63616" lon="0.21647">
        <ele>1025.36</ele>
        <time>2018-08-07T10:25:54Z</time>
      </trkpt>
      <trkpt lat="42.636" lon="0.21675">
        <ele>1025.63</ele>
        <time>2018-08-07T10:25:56Z</time>
      </trkpt>
      <trkpt lat="42.6358" lon="0.21698">
        <ele>1026.57</ele>
        <time>2018-08-07T10:25:58Z</time>
      </trkpt>
      <trkpt lat="42.63559" lon="0.21721">
        <ele>1027.56</ele>
        <time>2018-08-07T10:26:00Z</time>
      </trkpt>
      <trkpt lat="42.63538" lon="0.21747">
        <ele>1029.26</ele>
        <time>2018-08-07T10:26:02Z</time>
      </trkpt>
      <trkpt lat="42.63518" lon="0.21774">
        <ele>1030.53</ele>
        <time>2018-08-07T10:26:04Z</time>
      </trkpt>
      <trkpt lat="42.63503" lon="0.21798">
        <ele>1031.35</ele>
        <time>2018-08-07T10:26:06Z</time>
      </trkpt>
      <trkpt lat="42.63494" lon="0.2182">
        <ele>1030.93</ele>
        <time>2018-08-07T10:26:08Z</time>
      </trkpt>
      <trkpt lat="42.63505" lon="0.21788">
        <ele>1030.51</ele>
        <time>2018-08-07T10:26:17Z</time>
      </trkpt>
      <trkpt lat="42.6352" lon="0.21763">
        <ele>1031.34</ele>
        <time>2018-08-07T10:26:19Z</time>
      </trkpt>
      <trkpt lat="42.63538" lon="0.21736">
        <ele>1033.24</ele>
        <time>2018-08-07T10:26:21Z</time>
      </trkpt>
      <trkpt lat="42.63555" lon="0.21708">
        <ele>1033.62</ele>
        <time>2018-08-07T10:26:23Z</time>
      </trkpt>
      <trkpt lat="42.63573" lon="0.21677">
        <ele>1035.26</ele>
        <time>2018-08-07T10:26:25Z</time>
      </trkpt>
      <trkpt lat="42.63587" lon="0.2164">
        <ele>1037.02</ele>
        <time>2018-08-07T10:26:27Z</time>
      </trkpt>
      <trkpt lat="42.63598" lon="0.21598">
        <ele>1039.42</ele>
        <time>2018-08-07T10:26:29Z</time>
      </trkpt>
      <trkpt lat="42.63611" lon="0.21556">
        <ele>1042.16</ele>
        <time>2018-08-07T10:26:31Z</time>
      </trkpt>
      <trkpt lat="42.63628" lon="0.21522">
        <ele>1045.83</ele>
        <time>2018-08-07T10:26:33Z</time>
      </trkpt>
      <trkpt lat="42.6365" lon="0.21498">
        <ele>1047.49</ele>
        <time>2018-08-07T10:26:35Z</time>
      </trkpt>
      <trkpt lat="42.63672" lon="0.2149">
        <ele>1049.25</ele>
        <time>2018-08-07T10:26:37Z</time>
      </trkpt>
      <trkpt lat="42.637" lon="0.21483">
        <ele>1049.41</ele>
        <time>2018-08-07T10:26:39Z</time>
      </trkpt>
      <trkpt lat="42.63732" lon="0.21481">
        <ele>1050.34</ele>
        <time>2018-08-07T10:26:41Z</time>
      </trkpt>
      <trkpt lat="42.63764" lon="0.21475">
        <ele>1052.45</ele>
        <time>2018-08-07T10:26:43Z</time>
      </trkpt>
      <trkpt lat="42.63798" lon="0.21454">
        <ele>1055.44</ele>
        <time>2018-08-07T10:26:45Z</time>
      </trkpt>
      <trkpt lat="42.63833" lon="0.21439">
        <ele>1060.47</ele>
        <time>2018-08-07T10:26:47Z</time>
      </trkpt>
      <trkpt lat="42.6385" lon="0.21433">
        <ele>1061.3</ele>
        <time>2018-08-07T10:26:48Z</time>
      </trkpt>
      <trkpt lat="42.63868" lon="0.21429">
        <ele>1062.25</ele>
        <time>2018-08-07T10:26:49Z</time>
      </trkpt>
      <trkpt lat="42.63888" lon="0.2143">
        <ele>1063.94</ele>
        <time>2018-08-07T10:26:50Z</time>
      </trkpt>
      <trkpt lat="42.63923" lon="0.21433">
        <ele>1065.5</ele>
        <time>2018-08-07T10:26:52Z</time>
      </trkpt>
      <trkpt lat="42.63942" lon="0.21432">
        <ele>1067.01</ele>
        <time>2018-08-07T10:26:53Z</time>
      </trkpt>
      <trkpt lat="42.63961" lon="0.21431">
        <ele>1068.16</ele>
        <time>2018-08-07T10:26:54Z</time>
      </trkpt>
      <trkpt lat="42.6398" lon="0.2143">
        <ele>1069.21</ele>
        <time>2018-08-07T10:26:55Z</time>
      </trkpt>
      <trkpt lat="42.63998" lon="0.21428">
        <ele>1071.62</ele>
        <time>2018-08-07T10:26:56Z</time>
      </trkpt>
      <trkpt lat="42.64016" lon="0.21426">
        <ele>1073.75</ele>
        <time>2018-08-07T10:26:57Z</time>
      </trkpt>
      <trkpt lat="42.64046" lon="0.21419">
        <ele>1077.59</ele>
        <time>2018-08-07T10:26:59Z</time>
      </trkpt>
      <trkpt lat="42.64066" lon="0.21406">
        <ele>1081.99</ele>
        <time>2018-08-07T10:27:01Z</time>
      </trkpt>
      <trkpt lat="42.64066" lon="0.21372">
        <ele>1085.56</ele>
        <time>2018-08-07T10:27:04Z</time>
      </trkpt>
      <trkpt lat="42.64048" lon="0.21359">
        <ele>1085.65</ele>
        <time>2018-08-07T10:27:06Z</time>
      </trkpt>
      <trkpt lat="42.64016" lon="0.21368">
        <ele>1085.66</ele>
        <time>2018-08-07T10:27:08Z</time>
      </trkpt>
      <trkpt lat="42.63985" lon="0.21366">
        <ele>1086.36</ele>
        <time>2018-08-07T10:27:10Z</time>
      </trkpt>
      <trkpt lat="42.6395" lon="0.21358">
        <ele>1088.24</ele>
        <time>2018-08-07T10:27:12Z</time>
      </trkpt>
      <trkpt lat="42.63932" lon="0.21355">
        <ele>1089.23</ele>
        <time>2018-08-07T10:27:13Z</time>
      </trkpt>
      <trkpt lat="42.63914" lon="0.21351">
        <ele>1090.23</ele>
        <time>2018-08-07T10:27:14Z</time>
      </trkpt>
      <trkpt lat="42.63894" lon="0.21348">
        <ele>1090.53</ele>
        <time>2018-08-07T10:27:15Z</time>
      </trkpt>
      <trkpt lat="42.63875" lon="0.21348">
        <ele>1091.32</ele>
        <time>2018-08-07T10:27:16Z</time>
      </trkpt>
      <trkpt lat="42.63856" lon="0.21348">
        <ele>1092.26</ele>
        <time>2018-08-07T10:27:17Z</time>
      </trkpt>
      <trkpt lat="42.63837" lon="0.2135">
        <ele>1093.24</ele>
        <time>2018-08-07T10:27:18Z</time>
      </trkpt>
      <trkpt lat="42.63819" lon="0.2135">
        <ele>1093.53</ele>
        <time>2018-08-07T10:27:19Z</time>
      </trkpt>
      <trkpt lat="42.63784" lon="0.21348">
        <ele>1095.26</ele>
        <time>2018-08-07T10:27:21Z</time>
      </trkpt>
      <trkpt lat="42.6375" lon="0.21341">
        <ele>1096.53</ele>
        <time>2018-08-07T10:27:23Z</time>
      </trkpt>
      <trkpt lat="42.63717" lon="0.21329">
        <ele>1098.26</ele>
        <time>2018-08-07T10:27:25Z</time>
      </trkpt>
      <trkpt lat="42.63688" lon="0.21316">
        <ele>1099.32</ele>
        <time>2018-08-07T10:27:27Z</time>
      </trkpt>
      <trkpt lat="42.63662" lon="0.21314">
        <ele>1100.33</ele>
        <time>2018-08-07T10:27:29Z</time>
      </trkpt>
      <trkpt lat="42.63645" lon="0.21335">
        <ele>1100.63</ele>
        <time>2018-08-07T10:27:31Z</time>
      </trkpt>
      <trkpt lat="42.63626" lon="0.21342">
        <ele>1102.06</ele>
        <time>2018-08-07T10:27:33Z</time>
      </trkpt>
      <trkpt lat="42.63608" lon="0.21322">
        <ele>1106.2</ele>
        <time>2018-08-07T10:27:36Z</time>
      </trkpt>
      <trkpt lat="42.63619" lon="0.21293">
        <ele>1109.84</ele>
        <time>2018-08-07T10:27:38Z</time>
      </trkpt>
      <trkpt lat="42.63626" lon="0.2126">
        <ele>1112.19</ele>
        <time>2018-08-07T10:27:40Z</time>
      </trkpt>
      <trkpt lat="42.63634" lon="0.21224">
        <ele>1114.93</ele>
        <time>2018-08-07T10:27:42Z</time>
      </trkpt>
      <trkpt lat="42.6364" lon="0.21183">
        <ele>1117.9</ele>
        <time>2018-08-07T10:27:44Z</time>
      </trkpt>
      <trkpt lat="42.63648" lon="0.21142">
        <ele>1122.02</ele>
        <time>2018-08-07T10:27:46Z</time>
      </trkpt>
      <trkpt lat="42.63658" lon="0.21107">
        <ele>1125.82</ele>
        <time>2018-08-07T10:27:48Z</time>
      </trkpt>
      <trkpt lat="42.63664" lon="0.21069">
        <ele>1129.8</ele>
        <time>2018-08-07T10:27:50Z</time>
      </trkpt>
      <trkpt lat="42.63665" lon="0.21029">
        <ele>1132.19</ele>
        <time>2018-08-07T10:27:52Z</time>
      </trkpt>
      <trkpt lat="42.63662" lon="0.20984">
        <ele>1135.84</ele>
        <time>2018-08-07T10:27:54Z</time>
      </trkpt>
      <trkpt lat="42.63662" lon="0.20936">
        <ele>1139.8</ele>
        <time>2018-08-07T10:27:56Z</time>
      </trkpt>
      <trkpt lat="42.63664" lon="0.20912">
        <ele>1141.1</ele>
        <time>2018-08-07T10:27:57Z</time>
      </trkpt>
      <trkpt lat="42.63664" lon="0.20886">
        <ele>1142.19</ele>
        <time>2018-08-07T10:27:58Z</time>
      </trkpt>
      <trkpt lat="42.63662" lon="0.20861">
        <ele>1144.62</ele>
        <time>2018-08-07T10:27:59Z</time>
      </trkpt>
      <trkpt lat="42.6366" lon="0.20837">
        <ele>1146.75</ele>
        <time>2018-08-07T10:28:00Z</time>
      </trkpt>
      <trkpt lat="42.63656" lon="0.20813">
        <ele>1148.78</ele>
        <time>2018-08-07T10:28:01Z</time>
      </trkpt>
      <trkpt lat="42.6365" lon="0.20789">
        <ele>1150.8</ele>
        <time>2018-08-07T10:28:02Z</time>
      </trkpt>
      <trkpt lat="42.63642" lon="0.20766">
        <ele>1152.1</ele>
        <time>2018-08-07T10:28:03Z</time>
      </trkpt>
      <trkpt lat="42.63633" lon="0.20745">
        <ele>1153.89</ele>
        <time>2018-08-07T10:28:04Z</time>
      </trkpt>
      <trkpt lat="42.63614" lon="0.20707">
        <ele>1158.72</ele>
        <time>2018-08-07T10:28:06Z</time>
      </trkpt>
      <trkpt lat="42.63603" lon="0.20672">
        <ele>1162.09</ele>
        <time>2018-08-07T10:28:08Z</time>
      </trkpt>
      <trkpt lat="42.63608" lon="0.20636">
        <ele>1163.31</ele>
        <time>2018-08-07T10:28:10Z</time>
      </trkpt>
      <trkpt lat="42.63612" lon="0.20593">
        <ele>1164.54</ele>
        <time>2018-08-07T10:28:12Z</time>
      </trkpt>
      <trkpt lat="42.63613" lon="0.20543">
        <ele>1165.35</ele>
        <time>2018-08-07T10:28:14Z</time>
      </trkpt>
      <trkpt lat="42.63612" lon="0.20518">
        <ele>1165.56</ele>
        <time>2018-08-07T10:28:15Z</time>
      </trkpt>
      <trkpt lat="42.63611" lon="0.20491">
        <ele>1166.33</ele>
        <time>2018-08-07T10:28:16Z</time>
      </trkpt>
      <trkpt lat="42.63609" lon="0.20445">
        <ele>1167.54</ele>
        <time>2018-08-07T10:28:18Z</time>
      </trkpt>
      <trkpt lat="42.63613" lon="0.20397">
        <ele>1165.13</ele>
        <time>2018-08-07T10:28:20Z</time>
      </trkpt>
      <trkpt lat="42.63617" lon="0.20348">
        <ele>1163.09</ele>
        <time>2018-08-07T10:28:22Z</time>
      </trkpt>
      <trkpt lat="42.63619" lon="0.20323">
        <ele>1162.09</ele>
        <time>2018-08-07T10:28:23Z</time>
      </trkpt>
      <trkpt lat="42.63621" lon="0.20299">
        <ele>1159.69</ele>
        <time>2018-08-07T10:28:24Z</time>
      </trkpt>
      <trkpt lat="42.63621" lon="0.20253">
        <ele>1157.14</ele>
        <time>2018-08-07T10:28:26Z</time>
      </trkpt>
      <trkpt lat="42.63608" lon="0.20212">
        <ele>1155.09</ele>
        <time>2018-08-07T10:28:28Z</time>
      </trkpt>
      <trkpt lat="42.63587" lon="0.20182">
        <ele>1154</ele>
        <time>2018-08-07T10:28:30Z</time>
      </trkpt>
      <trkpt lat="42.63561" lon="0.20164">
        <ele>1153.69</ele>
        <time>2018-08-07T10:28:32Z</time>
      </trkpt>
      <trkpt lat="42.63541" lon="0.20147">
        <ele>1152.75</ele>
        <time>2018-08-07T10:28:34Z</time>
      </trkpt>
      <trkpt lat="42.63529" lon="0.20121">
        <ele>1151.76</ele>
        <time>2018-08-07T10:28:36Z</time>
      </trkpt>
      <trkpt lat="42.63523" lon="0.20094">
        <ele>1150.97</ele>
        <time>2018-08-07T10:28:38Z</time>
      </trkpt>
      <trkpt lat="42.6352" lon="0.2007">
        <ele>1151.6</ele>
        <time>2018-08-07T10:28:40Z</time>
      </trkpt>
      <trkpt lat="42.63518" lon="0.20042">
        <ele>1150.95</ele>
        <time>2018-08-07T10:28:42Z</time>
      </trkpt>
      <trkpt lat="42.63528" lon="0.2">
        <ele>1149.98</ele>
        <time>2018-08-07T10:28:44Z</time>
      </trkpt>
      <trkpt lat="42.63537" lon="0.19954">
        <ele>1150.39</ele>
        <time>2018-08-07T10:28:46Z</time>
      </trkpt>
      <trkpt lat="42.63546" lon="0.19909">
        <ele>1150.63</ele>
        <time>2018-08-07T10:28:48Z</time>
      </trkpt>
      <trkpt lat="42.63552" lon="0.19861">
        <ele>1150.66</ele>
        <time>2018-08-07T10:28:50Z</time>
      </trkpt>
      <trkpt lat="42.63553" lon="0.19836">
        <ele>1150.66</ele>
        <time>2018-08-07T10:28:51Z</time>
      </trkpt>
      <trkpt lat="42.6355" lon="0.19809">
        <ele>1150.66</ele>
        <time>2018-08-07T10:28:52Z</time>
      </trkpt>
      <trkpt lat="42.63544" lon="0.19784">
        <ele>1151.36</ele>
        <time>2018-08-07T10:28:53Z</time>
      </trkpt>
      <trkpt lat="42.63534" lon="0.1976">
        <ele>1150.87</ele>
        <time>2018-08-07T10:28:54Z</time>
      </trkpt>
      <trkpt lat="42.63524" lon="0.19737">
        <ele>1151.42</ele>
        <time>2018-08-07T10:28:55Z</time>
      </trkpt>
      <trkpt lat="42.63513" lon="0.19714">
        <ele>1150.89</ele>
        <time>2018-08-07T10:28:56Z</time>
      </trkpt>
      <trkpt lat="42.63503" lon="0.19691">
        <ele>1150.73</ele>
        <time>2018-08-07T10:28:57Z</time>
      </trkpt>
      <trkpt lat="42.63498" lon="0.19665">
        <ele>1150.68</ele>
        <time>2018-08-07T10:28:58Z</time>
      </trkpt>
      <trkpt lat="42.63496" lon="0.19637">
        <ele>1150.66</ele>
        <time>2018-08-07T10:28:59Z</time>
      </trkpt>
      <trkpt lat="42.63495" lon="0.19606">
        <ele>1151.36</ele>
        <time>2018-08-07T10:29:00Z</time>
      </trkpt>
      <trkpt lat="42.63492" lon="0.19574">
        <ele>1151.57</ele>
        <time>2018-08-07T10:29:01Z</time>
      </trkpt>
      <trkpt lat="42.63489" lon="0.19541">
        <ele>1152.33</ele>
        <time>2018-08-07T10:29:02Z</time>
      </trkpt>
      <trkpt lat="42.63489" lon="0.1951">
        <ele>1152.56</ele>
        <time>2018-08-07T10:29:03Z</time>
      </trkpt>
      <trkpt lat="42.63492" lon="0.1948">
        <ele>1153.33</ele>
        <time>2018-08-07T10:29:04Z</time>
      </trkpt>
      <trkpt lat="42.63499" lon="0.19454">
        <ele>1153.56</ele>
        <time>2018-08-07T10:29:05Z</time>
      </trkpt>
      <trkpt lat="42.63506" lon="0.19429">
        <ele>1153.63</ele>
        <time>2018-08-07T10:29:06Z</time>
      </trkpt>
      <trkpt lat="42.63514" lon="0.19383">
        <ele>1153.66</ele>
        <time>2018-08-07T10:29:08Z</time>
      </trkpt>
      <trkpt lat="42.63515" lon="0.19357">
        <ele>1153.66</ele>
        <time>2018-08-07T10:29:09Z</time>
      </trkpt>
      <trkpt lat="42.63511" lon="0.19325">
        <ele>1153.66</ele>
        <time>2018-08-07T10:29:10Z</time>
      </trkpt>
      <trkpt lat="42.63509" lon="0.19293">
        <ele>1154.36</ele>
        <time>2018-08-07T10:29:11Z</time>
      </trkpt>
      <trkpt lat="42.63508" lon="0.19261">
        <ele>1155.27</ele>
        <time>2018-08-07T10:29:12Z</time>
      </trkpt>
      <trkpt lat="42.63508" lon="0.19229">
        <ele>1155.54</ele>
        <time>2018-08-07T10:29:13Z</time>
      </trkpt>
      <trkpt lat="42.63508" lon="0.19197">
        <ele>1155.62</ele>
        <time>2018-08-07T10:29:14Z</time>
      </trkpt>
      <trkpt lat="42.63508" lon="0.19165">
        <ele>1155.65</ele>
        <time>2018-08-07T10:29:15Z</time>
      </trkpt>
      <trkpt lat="42.63509" lon="0.19134">
        <ele>1157.05</ele>
        <time>2018-08-07T10:29:16Z</time>
      </trkpt>
      <trkpt lat="42.63509" lon="0.19103">
        <ele>1157.48</ele>
        <time>2018-08-07T10:29:17Z</time>
      </trkpt>
      <trkpt lat="42.6351" lon="0.19072">
        <ele>1158.3</ele>
        <time>2018-08-07T10:29:18Z</time>
      </trkpt>
      <trkpt lat="42.6351" lon="0.19041">
        <ele>1157.85</ele>
        <time>2018-08-07T10:29:19Z</time>
      </trkpt>
      <trkpt lat="42.6351" lon="0.1901">
        <ele>1157.72</ele>
        <time>2018-08-07T10:29:20Z</time>
      </trkpt>
      <trkpt lat="42.6351" lon="0.1898">
        <ele>1157.68</ele>
        <time>2018-08-07T10:29:21Z</time>
      </trkpt>
      <trkpt lat="42.63511" lon="0.18951">
        <ele>1158.36</ele>
        <time>2018-08-07T10:29:22Z</time>
      </trkpt>
      <trkpt lat="42.63513" lon="0.18923">
        <ele>1158.57</ele>
        <time>2018-08-07T10:29:23Z</time>
      </trkpt>
      <trkpt lat="42.63516" lon="0.18896">
        <ele>1157.93</ele>
        <time>2018-08-07T10:29:24Z</time>
      </trkpt>
      <trkpt lat="42.63524" lon="0.1887">
        <ele>1158.44</ele>
        <time>2018-08-07T10:29:25Z</time>
      </trkpt>
      <trkpt lat="42.63535" lon="0.18845">
        <ele>1158.59</ele>
        <time>2018-08-07T10:29:26Z</time>
      </trkpt>
      <trkpt lat="42.63548" lon="0.18823">
        <ele>1158.64</ele>
        <time>2018-08-07T10:29:27Z</time>
      </trkpt>
      <trkpt lat="42.63567" lon="0.18801">
        <ele>1159.35</ele>
        <time>2018-08-07T10:29:28Z</time>
      </trkpt>
      <trkpt lat="42.63583" lon="0.18778">
        <ele>1158.87</ele>
        <time>2018-08-07T10:29:29Z</time>
      </trkpt>
      <trkpt lat="42.63599" lon="0.18753">
        <ele>1158.02</ele>
        <time>2018-08-07T10:29:30Z</time>
      </trkpt>
      <trkpt lat="42.63615" lon="0.18727">
        <ele>1158.47</ele>
        <time>2018-08-07T10:29:31Z</time>
      </trkpt>
      <trkpt lat="42.63632" lon="0.18703">
        <ele>1158.6</ele>
        <time>2018-08-07T10:29:32Z</time>
      </trkpt>
      <trkpt lat="42.63648" lon="0.18677">
        <ele>1158.64</ele>
        <time>2018-08-07T10:29:33Z</time>
      </trkpt>
      <trkpt lat="42.63665" lon="0.1865">
        <ele>1158.65</ele>
        <time>2018-08-07T10:29:34Z</time>
      </trkpt>
      <trkpt lat="42.63681" lon="0.18623">
        <ele>1158.66</ele>
        <time>2018-08-07T10:29:35Z</time>
      </trkpt>
      <trkpt lat="42.63694" lon="0.18591">
        <ele>1158.66</ele>
        <time>2018-08-07T10:29:36Z</time>
      </trkpt>
      <trkpt lat="42.63704" lon="0.18555">
        <ele>1158.66</ele>
        <time>2018-08-07T10:29:37Z</time>
      </trkpt>
      <trkpt lat="42.63715" lon="0.18521">
        <ele>1158.66</ele>
        <time>2018-08-07T10:29:38Z</time>
      </trkpt>
      <trkpt lat="42.63724" lon="0.18487">
        <ele>1158.66</ele>
        <time>2018-08-07T10:29:39Z</time>
      </trkpt>
      <trkpt lat="42.63734" lon="0.18452">
        <ele>1158.66</ele>
        <time>2018-08-07T10:29:40Z</time>
      </trkpt>
      <trkpt lat="42.63744" lon="0.1842">
        <ele>1158.66</ele>
        <time>2018-08-07T10:29:41Z</time>
      </trkpt>
      <trkpt lat="42.63754" lon="0.18389">
        <ele>1158.66</ele>
        <time>2018-08-07T10:29:42Z</time>
      </trkpt>
      <trkpt lat="42.63763" lon="0.18359">
        <ele>1159.36</ele>
        <time>2018-08-07T10:29:43Z</time>
      </trkpt>
      <trkpt lat="42.63772" lon="0.18333">
        <ele>1159.57</ele>
        <time>2018-08-07T10:29:44Z</time>
      </trkpt>
      <trkpt lat="42.63781" lon="0.18308">
        <ele>1159.63</ele>
        <time>2018-08-07T10:29:45Z</time>
      </trkpt>
      <trkpt lat="42.6379" lon="0.18284">
        <ele>1159.65</ele>
        <time>2018-08-07T10:29:46Z</time>
      </trkpt>
      <trkpt lat="42.63799" lon="0.18263">
        <ele>1160.36</ele>
        <time>2018-08-07T10:29:47Z</time>
      </trkpt>
      <trkpt lat="42.63812" lon="0.18243">
        <ele>1160.57</ele>
        <time>2018-08-07T10:29:48Z</time>
      </trkpt>
      <trkpt lat="42.63826" lon="0.18224">
        <ele>1160.63</ele>
        <time>2018-08-07T10:29:49Z</time>
      </trkpt>
      <trkpt lat="42.63842" lon="0.18206">
        <ele>1161.35</ele>
        <time>2018-08-07T10:29:50Z</time>
      </trkpt>
      <trkpt lat="42.63861" lon="0.18191">
        <ele>1161.57</ele>
        <time>2018-08-07T10:29:51Z</time>
      </trkpt>
      <trkpt lat="42.63878" lon="0.18174">
        <ele>1161.63</ele>
        <time>2018-08-07T10:29:52Z</time>
      </trkpt>
      <trkpt lat="42.63893" lon="0.18153">
        <ele>1162.35</ele>
        <time>2018-08-07T10:29:53Z</time>
      </trkpt>
      <trkpt lat="42.63904" lon="0.1813">
        <ele>1162.57</ele>
        <time>2018-08-07T10:29:54Z</time>
      </trkpt>
      <trkpt lat="42.63917" lon="0.1811">
        <ele>1163.33</ele>
        <time>2018-08-07T10:29:55Z</time>
      </trkpt>
      <trkpt lat="42.6394" lon="0.18075">
        <ele>1164.33</ele>
        <time>2018-08-07T10:29:57Z</time>
      </trkpt>
      <trkpt lat="42.6396" lon="0.18042">
        <ele>1165.54</ele>
        <time>2018-08-07T10:29:59Z</time>
      </trkpt>
      <trkpt lat="42.63977" lon="0.1801">
        <ele>1166.56</ele>
        <time>2018-08-07T10:30:01Z</time>
      </trkpt>
      <trkpt lat="42.63993" lon="0.17967">
        <ele>1166.65</ele>
        <time>2018-08-07T10:30:03Z</time>
      </trkpt>
      <trkpt lat="42.64002" lon="0.17943">
        <ele>1166.66</ele>
        <time>2018-08-07T10:30:04Z</time>
      </trkpt>
      <trkpt lat="42.64011" lon="0.17916">
        <ele>1167.36</ele>
        <time>2018-08-07T10:30:05Z</time>
      </trkpt>
      <trkpt lat="42.64021" lon="0.17888">
        <ele>1167.57</ele>
        <time>2018-08-07T10:30:06Z</time>
      </trkpt>
      <trkpt lat="42.64034" lon="0.1786">
        <ele>1166.93</ele>
        <time>2018-08-07T10:30:07Z</time>
      </trkpt>
      <trkpt lat="42.64047" lon="0.17832">
        <ele>1166.74</ele>
        <time>2018-08-07T10:30:08Z</time>
      </trkpt>
      <trkpt lat="42.64058" lon="0.17802">
        <ele>1166.68</ele>
        <time>2018-08-07T10:30:09Z</time>
      </trkpt>
      <trkpt lat="42.64068" lon="0.17775">
        <ele>1166.67</ele>
        <time>2018-08-07T10:30:10Z</time>
      </trkpt>
      <trkpt lat="42.6408" lon="0.17748">
        <ele>1167.36</ele>
        <time>2018-08-07T10:30:11Z</time>
      </trkpt>
      <trkpt lat="42.64093" lon="0.17724">
        <ele>1167.57</ele>
        <time>2018-08-07T10:30:12Z</time>
      </trkpt>
      <trkpt lat="42.64104" lon="0.17698">
        <ele>1167.63</ele>
        <time>2018-08-07T10:30:13Z</time>
      </trkpt>
      <trkpt lat="42.64116" lon="0.17674">
        <ele>1167.65</ele>
        <time>2018-08-07T10:30:14Z</time>
      </trkpt>
      <trkpt lat="42.64124" lon="0.17651">
        <ele>1166.96</ele>
        <time>2018-08-07T10:30:15Z</time>
      </trkpt>
      <trkpt lat="42.6414" lon="0.17613">
        <ele>1166.68</ele>
        <time>2018-08-07T10:30:17Z</time>
      </trkpt>
      <trkpt lat="42.64157" lon="0.17581">
        <ele>1165.96</ele>
        <time>2018-08-07T10:30:19Z</time>
      </trkpt>
      <trkpt lat="42.6417" lon="0.17548">
        <ele>1165.69</ele>
        <time>2018-08-07T10:30:21Z</time>
      </trkpt>
      <trkpt lat="42.64176" lon="0.1751">
        <ele>1165.66</ele>
        <time>2018-08-07T10:30:23Z</time>
      </trkpt>
      <trkpt lat="42.64186" lon="0.17464">
        <ele>1164.75</ele>
        <time>2018-08-07T10:30:25Z</time>
      </trkpt>
      <trkpt lat="42.64191" lon="0.1742">
        <ele>1164.67</ele>
        <time>2018-08-07T10:30:27Z</time>
      </trkpt>
      <trkpt lat="42.64189" lon="0.17367">
        <ele>1165.36</ele>
        <time>2018-08-07T10:30:29Z</time>
      </trkpt>
      <trkpt lat="42.64187" lon="0.17336">
        <ele>1165.57</ele>
        <time>2018-08-07T10:30:30Z</time>
      </trkpt>
      <trkpt lat="42.64187" lon="0.17306">
        <ele>1165.63</ele>
        <time>2018-08-07T10:30:31Z</time>
      </trkpt>
      <trkpt lat="42.64189" lon="0.17276">
        <ele>1164.95</ele>
        <time>2018-08-07T10:30:32Z</time>
      </trkpt>
      <trkpt lat="42.64191" lon="0.17247">
        <ele>1164.75</ele>
        <time>2018-08-07T10:30:33Z</time>
      </trkpt>
      <trkpt lat="42.64194" lon="0.17217">
        <ele>1164.68</ele>
        <time>2018-08-07T10:30:34Z</time>
      </trkpt>
      <trkpt lat="42.64199" lon="0.17186">
        <ele>1164.67</ele>
        <time>2018-08-07T10:30:35Z</time>
      </trkpt>
      <trkpt lat="42.64206" lon="0.17154">
        <ele>1164.66</ele>
        <time>2018-08-07T10:30:36Z</time>
      </trkpt>
      <trkpt lat="42.64212" lon="0.17122">
        <ele>1164.66</ele>
        <time>2018-08-07T10:30:37Z</time>
      </trkpt>
      <trkpt lat="42.64217" lon="0.1709">
        <ele>1164.66</ele>
        <time>2018-08-07T10:30:38Z</time>
      </trkpt>
      <trkpt lat="42.64223" lon="0.17061">
        <ele>1166.06</ele>
        <time>2018-08-07T10:30:39Z</time>
      </trkpt>
      <trkpt lat="42.64227" lon="0.17033">
        <ele>1167.88</ele>
        <time>2018-08-07T10:30:40Z</time>
      </trkpt>
      <trkpt lat="42.64231" lon="0.17008">
        <ele>1169.12</ele>
        <time>2018-08-07T10:30:41Z</time>
      </trkpt>
      <trkpt lat="42.64241" lon="0.16965">
        <ele>1171.43</ele>
        <time>2018-08-07T10:30:43Z</time>
      </trkpt>
      <trkpt lat="42.6425" lon="0.1693">
        <ele>1171.85</ele>
        <time>2018-08-07T10:30:45Z</time>
      </trkpt>
      <trkpt lat="42.64276" lon="0.16921">
        <ele>1173.29</ele>
        <time>2018-08-07T10:30:47Z</time>
      </trkpt>
      <trkpt lat="42.64301" lon="0.1692">
        <ele>1174.11</ele>
        <time>2018-08-07T10:30:49Z</time>
      </trkpt>
      <trkpt lat="42.64322" lon="0.16898">
        <ele>1175.62</ele>
        <time>2018-08-07T10:30:52Z</time>
      </trkpt>
      <trkpt lat="42.6433" lon="0.16871">
        <ele>1177.54</ele>
        <time>2018-08-07T10:30:55Z</time>
      </trkpt>
      <trkpt lat="42.64319" lon="0.16848">
        <ele>1179.47</ele>
        <time>2018-08-07T10:30:58Z</time>
      </trkpt>
      <trkpt lat="42.64296" lon="0.1683">
        <ele>1180.35</ele>
        <time>2018-08-07T10:31:01Z</time>
      </trkpt>
      <trkpt lat="42.64284" lon="0.16798">
        <ele>1182.32</ele>
        <time>2018-08-07T10:31:04Z</time>
      </trkpt>
      <trkpt lat="42.64283" lon="0.16773">
        <ele>1184.24</ele>
        <time>2018-08-07T10:31:06Z</time>
      </trkpt>
      <trkpt lat="42.64287" lon="0.16744">
        <ele>1184.83</ele>
        <time>2018-08-07T10:31:08Z</time>
      </trkpt>
      <trkpt lat="42.64292" lon="0.16717">
        <ele>1185.58</ele>
        <time>2018-08-07T10:31:10Z</time>
      </trkpt>
      <trkpt lat="42.64298" lon="0.16689">
        <ele>1187.05</ele>
        <time>2018-08-07T10:31:12Z</time>
      </trkpt>
      <trkpt lat="42.64306" lon="0.16662">
        <ele>1188.3</ele>
        <time>2018-08-07T10:31:14Z</time>
      </trkpt>
      <trkpt lat="42.64316" lon="0.16637">
        <ele>1189.54</ele>
        <time>2018-08-07T10:31:16Z</time>
      </trkpt>
      <trkpt lat="42.64328" lon="0.16616">
        <ele>1190.56</ele>
        <time>2018-08-07T10:31:18Z</time>
      </trkpt>
      <trkpt lat="42.64353" lon="0.16595">
        <ele>1191.35</ele>
        <time>2018-08-07T10:31:20Z</time>
      </trkpt>
      <trkpt lat="42.64383" lon="0.16576">
        <ele>1190.93</ele>
        <time>2018-08-07T10:31:22Z</time>
      </trkpt>
      <trkpt lat="42.64406" lon="0.16557">
        <ele>1190.89</ele>
        <time>2018-08-07T10:31:24Z</time>
      </trkpt>
      <trkpt lat="42.64423" lon="0.16533">
        <ele>1189.77</ele>
        <time>2018-08-07T10:31:26Z</time>
      </trkpt>
      <trkpt lat="42.6444" lon="0.16494">
        <ele>1190.58</ele>
        <time>2018-08-07T10:31:28Z</time>
      </trkpt>
      <trkpt lat="42.64449" lon="0.16469">
        <ele>1190.63</ele>
        <time>2018-08-07T10:31:29Z</time>
      </trkpt>
      <trkpt lat="42.64459" lon="0.16443">
        <ele>1190.65</ele>
        <time>2018-08-07T10:31:30Z</time>
      </trkpt>
      <trkpt lat="42.64469" lon="0.16419">
        <ele>1191.36</ele>
        <time>2018-08-07T10:31:31Z</time>
      </trkpt>
      <trkpt lat="42.6448" lon="0.16395">
        <ele>1191.57</ele>
        <time>2018-08-07T10:31:32Z</time>
      </trkpt>
      <trkpt lat="42.64491" lon="0.16373">
        <ele>1191.63</ele>
        <time>2018-08-07T10:31:33Z</time>
      </trkpt>
      <trkpt lat="42.64505" lon="0.16353">
        <ele>1192.35</ele>
        <time>2018-08-07T10:31:34Z</time>
      </trkpt>
      <trkpt lat="42.64518" lon="0.16334">
        <ele>1192.57</ele>
        <time>2018-08-07T10:31:35Z</time>
      </trkpt>
      <trkpt lat="42.64528" lon="0.16314">
        <ele>1192.63</ele>
        <time>2018-08-07T10:31:36Z</time>
      </trkpt>
      <trkpt lat="42.64536" lon="0.16291">
        <ele>1192.65</ele>
        <time>2018-08-07T10:31:37Z</time>
      </trkpt>
      <trkpt lat="42.64551" lon="0.16249">
        <ele>1193.36</ele>
        <time>2018-08-07T10:31:39Z</time>
      </trkpt>
      <trkpt lat="42.64565" lon="0.16207">
        <ele>1194.33</ele>
        <time>2018-08-07T10:31:41Z</time>
      </trkpt>
      <trkpt lat="42.64574" lon="0.16165">
        <ele>1194.63</ele>
        <time>2018-08-07T10:31:43Z</time>
      </trkpt>
      <trkpt lat="42.64585" lon="0.16129">
        <ele>1193.75</ele>
        <time>2018-08-07T10:31:45Z</time>
      </trkpt>
      <trkpt lat="42.64605" lon="0.161">
        <ele>1194.58</ele>
        <time>2018-08-07T10:31:47Z</time>
      </trkpt>
      <trkpt lat="42.64627" lon="0.16064">
        <ele>1193.74</ele>
        <time>2018-08-07T10:31:49Z</time>
      </trkpt>
      <trkpt lat="42.64639" lon="0.16045">
        <ele>1193.68</ele>
        <time>2018-08-07T10:31:50Z</time>
      </trkpt>
      <trkpt lat="42.64649" lon="0.16002">
        <ele>1193.66</ele>
        <time>2018-08-07T10:31:52Z</time>
      </trkpt>
      <trkpt lat="42.64648" lon="0.15956">
        <ele>1195.27</ele>
        <time>2018-08-07T10:31:54Z</time>
      </trkpt>
      <trkpt lat="42.64644" lon="0.15931">
        <ele>1196.24</ele>
        <time>2018-08-07T10:31:55Z</time>
      </trkpt>
      <trkpt lat="42.64639" lon="0.15886">
        <ele>1197.32</ele>
        <time>2018-08-07T10:31:57Z</time>
      </trkpt>
      <trkpt lat="42.64643" lon="0.15847">
        <ele>1198.33</ele>
        <time>2018-08-07T10:31:59Z</time>
      </trkpt>
      <trkpt lat="42.64651" lon="0.15811">
        <ele>1200.24</ele>
        <time>2018-08-07T10:32:01Z</time>
      </trkpt>
      <trkpt lat="42.64669" lon="0.15768">
        <ele>1199.71</ele>
        <time>2018-08-07T10:32:03Z</time>
      </trkpt>
      <trkpt lat="42.64679" lon="0.15744">
        <ele>1198.97</ele>
        <time>2018-08-07T10:32:04Z</time>
      </trkpt>
      <trkpt lat="42.64687" lon="0.1572">
        <ele>1198.75</ele>
        <time>2018-08-07T10:32:05Z</time>
      </trkpt>
      <trkpt lat="42.64694" lon="0.15694">
        <ele>1198.69</ele>
        <time>2018-08-07T10:32:06Z</time>
      </trkpt>
      <trkpt lat="42.64702" lon="0.15668">
        <ele>1198.67</ele>
        <time>2018-08-07T10:32:07Z</time>
      </trkpt>
      <trkpt lat="42.64708" lon="0.15639">
        <ele>1198.66</ele>
        <time>2018-08-07T10:32:08Z</time>
      </trkpt>
      <trkpt lat="42.64713" lon="0.15608">
        <ele>1197.96</ele>
        <time>2018-08-07T10:32:09Z</time>
      </trkpt>
      <trkpt lat="42.64718" lon="0.15577">
        <ele>1197.75</ele>
        <time>2018-08-07T10:32:10Z</time>
      </trkpt>
      <trkpt lat="42.64726" lon="0.15544">
        <ele>1197.69</ele>
        <time>2018-08-07T10:32:11Z</time>
      </trkpt>
      <trkpt lat="42.64734" lon="0.15508">
        <ele>1199.07</ele>
        <time>2018-08-07T10:32:12Z</time>
      </trkpt>
      <trkpt lat="42.64738" lon="0.1547">
        <ele>1200.18</ele>
        <time>2018-08-07T10:32:13Z</time>
      </trkpt>
      <trkpt lat="42.64743" lon="0.15435">
        <ele>1201.21</ele>
        <time>2018-08-07T10:32:14Z</time>
      </trkpt>
      <trkpt lat="42.64748" lon="0.154">
        <ele>1201.53</ele>
        <time>2018-08-07T10:32:15Z</time>
      </trkpt>
      <trkpt lat="42.64754" lon="0.15368">
        <ele>1203.02</ele>
        <time>2018-08-07T10:32:16Z</time>
      </trkpt>
      <trkpt lat="42.64761" lon="0.15338">
        <ele>1203.47</ele>
        <time>2018-08-07T10:32:17Z</time>
      </trkpt>
      <trkpt lat="42.64771" lon="0.15308">
        <ele>1203.6</ele>
        <time>2018-08-07T10:32:18Z</time>
      </trkpt>
      <trkpt lat="42.64781" lon="0.15276">
        <ele>1203.64</ele>
        <time>2018-08-07T10:32:19Z</time>
      </trkpt>
      <trkpt lat="42.6479" lon="0.15244">
        <ele>1204.35</ele>
        <time>2018-08-07T10:32:20Z</time>
      </trkpt>
      <trkpt lat="42.64801" lon="0.15213">
        <ele>1205.97</ele>
        <time>2018-08-07T10:32:21Z</time>
      </trkpt>
      <trkpt lat="42.64812" lon="0.15184">
        <ele>1206.45</ele>
        <time>2018-08-07T10:32:22Z</time>
      </trkpt>
      <trkpt lat="42.64822" lon="0.15155">
        <ele>1207.3</ele>
        <time>2018-08-07T10:32:23Z</time>
      </trkpt>
      <trkpt lat="42.6483" lon="0.15131">
        <ele>1207.55</ele>
        <time>2018-08-07T10:32:24Z</time>
      </trkpt>
      <trkpt lat="42.64837" lon="0.15105">
        <ele>1209.03</ele>
        <time>2018-08-07T10:32:25Z</time>
      </trkpt>
      <trkpt lat="42.64842" lon="0.15076">
        <ele>1210.17</ele>
        <time>2018-08-07T10:32:26Z</time>
      </trkpt>
      <trkpt lat="42.64846" lon="0.15047">
        <ele>1211.21</ele>
        <time>2018-08-07T10:32:27Z</time>
      </trkpt>
      <trkpt lat="42.64851" lon="0.15015">
        <ele>1211.52</ele>
        <time>2018-08-07T10:32:28Z</time>
      </trkpt>
      <trkpt lat="42.64862" lon="0.14985">
        <ele>1211.62</ele>
        <time>2018-08-07T10:32:29Z</time>
      </trkpt>
      <trkpt lat="42.64871" lon="0.14954">
        <ele>1213.05</ele>
        <time>2018-08-07T10:32:30Z</time>
      </trkpt>
      <trkpt lat="42.6488" lon="0.14923">
        <ele>1214.17</ele>
        <time>2018-08-07T10:32:31Z</time>
      </trkpt>
      <trkpt lat="42.64889" lon="0.14893">
        <ele>1215.91</ele>
        <time>2018-08-07T10:32:32Z</time>
      </trkpt>
      <trkpt lat="42.64897" lon="0.14863">
        <ele>1217.13</ele>
        <time>2018-08-07T10:32:33Z</time>
      </trkpt>
      <trkpt lat="42.64905" lon="0.14834">
        <ele>1218.2</ele>
        <time>2018-08-07T10:32:34Z</time>
      </trkpt>
      <trkpt lat="42.64913" lon="0.14803">
        <ele>1219.92</ele>
        <time>2018-08-07T10:32:35Z</time>
      </trkpt>
      <trkpt lat="42.64921" lon="0.14773">
        <ele>1221.14</ele>
        <time>2018-08-07T10:32:36Z</time>
      </trkpt>
      <trkpt lat="42.6493" lon="0.14742">
        <ele>1222.2</ele>
        <time>2018-08-07T10:32:37Z</time>
      </trkpt>
      <trkpt lat="42.64939" lon="0.14712">
        <ele>1222.52</ele>
        <time>2018-08-07T10:32:38Z</time>
      </trkpt>
      <trkpt lat="42.64947" lon="0.14681">
        <ele>1222.62</ele>
        <time>2018-08-07T10:32:39Z</time>
      </trkpt>
      <trkpt lat="42.64958" lon="0.1465">
        <ele>1222.65</ele>
        <time>2018-08-07T10:32:40Z</time>
      </trkpt>
      <trkpt lat="42.6497" lon="0.1462">
        <ele>1222.65</ele>
        <time>2018-08-07T10:32:41Z</time>
      </trkpt>
      <trkpt lat="42.64984" lon="0.1459">
        <ele>1223.36</ele>
        <time>2018-08-07T10:32:42Z</time>
      </trkpt>
      <trkpt lat="42.64998" lon="0.14561">
        <ele>1224.27</ele>
        <time>2018-08-07T10:32:43Z</time>
      </trkpt>
      <trkpt lat="42.65011" lon="0.14532">
        <ele>1225.94</ele>
        <time>2018-08-07T10:32:44Z</time>
      </trkpt>
      <trkpt lat="42.65024" lon="0.14506">
        <ele>1227.14</ele>
        <time>2018-08-07T10:32:45Z</time>
      </trkpt>
      <trkpt lat="42.65037" lon="0.14481">
        <ele>1228.2</ele>
        <time>2018-08-07T10:32:46Z</time>
      </trkpt>
      <trkpt lat="42.65052" lon="0.14457">
        <ele>1227.82</ele>
        <time>2018-08-07T10:32:47Z</time>
      </trkpt>
      <trkpt lat="42.65068" lon="0.14434">
        <ele>1228.41</ele>
        <time>2018-08-07T10:32:48Z</time>
      </trkpt>
      <trkpt lat="42.65084" lon="0.14413">
        <ele>1229.28</ele>
        <time>2018-08-07T10:32:49Z</time>
      </trkpt>
      <trkpt lat="42.65101" lon="0.14393">
        <ele>1229.55</ele>
        <time>2018-08-07T10:32:50Z</time>
      </trkpt>
      <trkpt lat="42.65118" lon="0.14375">
        <ele>1229.62</ele>
        <time>2018-08-07T10:32:51Z</time>
      </trkpt>
      <trkpt lat="42.65134" lon="0.14358">
        <ele>1230.35</ele>
        <time>2018-08-07T10:32:52Z</time>
      </trkpt>
      <trkpt lat="42.65146" lon="0.14341">
        <ele>1231.27</ele>
        <time>2018-08-07T10:32:53Z</time>
      </trkpt>
      <trkpt lat="42.65153" lon="0.14317">
        <ele>1231.54</ele>
        <time>2018-08-07T10:32:54Z</time>
      </trkpt>
      <trkpt lat="42.65159" lon="0.14291">
        <ele>1233.02</ele>
        <time>2018-08-07T10:32:55Z</time>
      </trkpt>
      <trkpt lat="42.65166" lon="0.14264">
        <ele>1234.17</ele>
        <time>2018-08-07T10:32:56Z</time>
      </trkpt>
      <trkpt lat="42.65173" lon="0.14237">
        <ele>1235.91</ele>
        <time>2018-08-07T10:32:57Z</time>
      </trkpt>
      <trkpt lat="42.65178" lon="0.14209">
        <ele>1237.13</ele>
        <time>2018-08-07T10:32:58Z</time>
      </trkpt>
      <trkpt lat="42.65182" lon="0.14181">
        <ele>1238.2</ele>
        <time>2018-08-07T10:32:59Z</time>
      </trkpt>
      <trkpt lat="42.65183" lon="0.14154">
        <ele>1239.22</ele>
        <time>2018-08-07T10:33:00Z</time>
      </trkpt>
      <trkpt lat="42.65183" lon="0.14129">
        <ele>1239.53</ele>
        <time>2018-08-07T10:33:01Z</time>
      </trkpt>
      <trkpt lat="42.65181" lon="0.14081">
        <ele>1240.35</ele>
        <time>2018-08-07T10:33:03Z</time>
      </trkpt>
      <trkpt lat="42.65175" lon="0.14036">
        <ele>1241.33</ele>
        <time>2018-08-07T10:33:05Z</time>
      </trkpt>
      <trkpt lat="42.65172" lon="0.14011">
        <ele>1241.56</ele>
        <time>2018-08-07T10:33:06Z</time>
      </trkpt>
      <trkpt lat="42.6517" lon="0.13985">
        <ele>1242.33</ele>
        <time>2018-08-07T10:33:07Z</time>
      </trkpt>
      <trkpt lat="42.65168" lon="0.13958">
        <ele>1243.26</ele>
        <time>2018-08-07T10:33:08Z</time>
      </trkpt>
      <trkpt lat="42.65168" lon="0.13932">
        <ele>1243.54</ele>
        <time>2018-08-07T10:33:09Z</time>
      </trkpt>
      <trkpt lat="42.65173" lon="0.13905">
        <ele>1242.92</ele>
        <time>2018-08-07T10:33:10Z</time>
      </trkpt>
      <trkpt lat="42.65179" lon="0.13876">
        <ele>1242.74</ele>
        <time>2018-08-07T10:33:11Z</time>
      </trkpt>
      <trkpt lat="42.65186" lon="0.13847">
        <ele>1242.68</ele>
        <time>2018-08-07T10:33:12Z</time>
      </trkpt>
      <trkpt lat="42.65192" lon="0.13817">
        <ele>1242.67</ele>
        <time>2018-08-07T10:33:13Z</time>
      </trkpt>
      <trkpt lat="42.65198" lon="0.1379">
        <ele>1243.36</ele>
        <time>2018-08-07T10:33:14Z</time>
      </trkpt>
      <trkpt lat="42.65205" lon="0.13764">
        <ele>1243.57</ele>
        <time>2018-08-07T10:33:15Z</time>
      </trkpt>
      <trkpt lat="42.65212" lon="0.1374">
        <ele>1243.63</ele>
        <time>2018-08-07T10:33:16Z</time>
      </trkpt>
      <trkpt lat="42.6522" lon="0.13717">
        <ele>1242.95</ele>
        <time>2018-08-07T10:33:17Z</time>
      </trkpt>
      <trkpt lat="42.65233" lon="0.13694">
        <ele>1242.05</ele>
        <time>2018-08-07T10:33:18Z</time>
      </trkpt>
      <trkpt lat="42.65254" lon="0.13675">
        <ele>1243.17</ele>
        <time>2018-08-07T10:33:19Z</time>
      </trkpt>
      <trkpt lat="42.6527" lon="0.13652">
        <ele>1244.21</ele>
        <time>2018-08-07T10:33:20Z</time>
      </trkpt>
      <trkpt lat="42.65287" lon="0.13629">
        <ele>1245.22</ele>
        <time>2018-08-07T10:33:21Z</time>
      </trkpt>
      <trkpt lat="42.65304" lon="0.13607">
        <ele>1245.53</ele>
        <time>2018-08-07T10:33:22Z</time>
      </trkpt>
      <trkpt lat="42.65324" lon="0.13588">
        <ele>1246.32</ele>
        <time>2018-08-07T10:33:23Z</time>
      </trkpt>
      <trkpt lat="42.65342" lon="0.13572">
        <ele>1246.56</ele>
        <time>2018-08-07T10:33:24Z</time>
      </trkpt>
      <trkpt lat="42.65359" lon="0.13557">
        <ele>1246.63</ele>
        <time>2018-08-07T10:33:25Z</time>
      </trkpt>
      <trkpt lat="42.65375" lon="0.13543">
        <ele>1246.65</ele>
        <time>2018-08-07T10:33:26Z</time>
      </trkpt>
      <trkpt lat="42.65389" lon="0.13526">
        <ele>1246.66</ele>
        <time>2018-08-07T10:33:27Z</time>
      </trkpt>
      <trkpt lat="42.65402" lon="0.13506">
        <ele>1247.36</ele>
        <time>2018-08-07T10:33:28Z</time>
      </trkpt>
      <trkpt lat="42.65423" lon="0.13471">
        <ele>1247.63</ele>
        <time>2018-08-07T10:33:30Z</time>
      </trkpt>
      <trkpt lat="42.65438" lon="0.13426">
        <ele>1249.27</ele>
        <time>2018-08-07T10:33:32Z</time>
      </trkpt>
      <trkpt lat="42.65442" lon="0.134">
        <ele>1250.24</ele>
        <time>2018-08-07T10:33:33Z</time>
      </trkpt>
      <trkpt lat="42.65443" lon="0.13372">
        <ele>1250.53</ele>
        <time>2018-08-07T10:33:34Z</time>
      </trkpt>
      <trkpt lat="42.6545" lon="0.13347">
        <ele>1249.92</ele>
        <time>2018-08-07T10:33:35Z</time>
      </trkpt>
      <trkpt lat="42.65454" lon="0.13324">
        <ele>1249.74</ele>
        <time>2018-08-07T10:33:36Z</time>
      </trkpt>
      <trkpt lat="42.65461" lon="0.13281">
        <ele>1248.76</ele>
        <time>2018-08-07T10:33:38Z</time>
      </trkpt>
      <trkpt lat="42.65456" lon="0.13237">
        <ele>1249.37</ele>
        <time>2018-08-07T10:33:40Z</time>
      </trkpt>
      <trkpt lat="42.65455" lon="0.13195">
        <ele>1248.02</ele>
        <time>2018-08-07T10:33:42Z</time>
      </trkpt>
      <trkpt lat="42.65469" lon="0.13164">
        <ele>1249.3</ele>
        <time>2018-08-07T10:33:44Z</time>
      </trkpt>
      <trkpt lat="42.65466" lon="0.13124">
        <ele>1252.15</ele>
        <time>2018-08-07T10:33:46Z</time>
      </trkpt>
      <trkpt lat="42.65463" lon="0.13087">
        <ele>1254.22</ele>
        <time>2018-08-07T10:33:48Z</time>
      </trkpt>
      <trkpt lat="42.65461" lon="0.13048">
        <ele>1255.53</ele>
        <time>2018-08-07T10:33:50Z</time>
      </trkpt>
      <trkpt lat="42.65462" lon="0.13009">
        <ele>1253.13</ele>
        <time>2018-08-07T10:33:52Z</time>
      </trkpt>
      <trkpt lat="42.65467" lon="0.12976">
        <ele>1254.52</ele>
        <time>2018-08-07T10:33:54Z</time>
      </trkpt>
      <trkpt lat="42.65482" lon="0.12946">
        <ele>1254.65</ele>
        <time>2018-08-07T10:33:56Z</time>
      </trkpt>
      <trkpt lat="42.655" lon="0.12915">
        <ele>1254.87</ele>
        <time>2018-08-07T10:33:58Z</time>
      </trkpt>
      <trkpt lat="42.65525" lon="0.12887">
        <ele>1254.89</ele>
        <time>2018-08-07T10:34:00Z</time>
      </trkpt>
      <trkpt lat="42.65551" lon="0.12859">
        <ele>1253.07</ele>
        <time>2018-08-07T10:34:02Z</time>
      </trkpt>
      <trkpt lat="42.65574" lon="0.1283">
        <ele>1253.39</ele>
        <time>2018-08-07T10:34:04Z</time>
      </trkpt>
      <trkpt lat="42.65595" lon="0.12794">
        <ele>1256.15</ele>
        <time>2018-08-07T10:34:06Z</time>
      </trkpt>
      <trkpt lat="42.65603" lon="0.12769">
        <ele>1255.81</ele>
        <time>2018-08-07T10:34:07Z</time>
      </trkpt>
      <trkpt lat="42.65613" lon="0.12743">
        <ele>1256.4</ele>
        <time>2018-08-07T10:34:08Z</time>
      </trkpt>
      <trkpt lat="42.65624" lon="0.12715">
        <ele>1256.58</ele>
        <time>2018-08-07T10:34:09Z</time>
      </trkpt>
      <trkpt lat="42.65633" lon="0.12687">
        <ele>1257.33</ele>
        <time>2018-08-07T10:34:10Z</time>
      </trkpt>
      <trkpt lat="42.65643" lon="0.12661">
        <ele>1257.56</ele>
        <time>2018-08-07T10:34:11Z</time>
      </trkpt>
      <trkpt lat="42.65649" lon="0.12632">
        <ele>1257.63</ele>
        <time>2018-08-07T10:34:12Z</time>
      </trkpt>
      <trkpt lat="42.6566" lon="0.12608">
        <ele>1257.65</ele>
        <time>2018-08-07T10:34:13Z</time>
      </trkpt>
      <trkpt lat="42.65666" lon="0.12579">
        <ele>1254.86</ele>
        <time>2018-08-07T10:34:14Z</time>
      </trkpt>
      <trkpt lat="42.65678" lon="0.12554">
        <ele>1254.72</ele>
        <time>2018-08-07T10:34:15Z</time>
      </trkpt>
      <trkpt lat="42.6569" lon="0.12528">
        <ele>1255.38</ele>
        <time>2018-08-07T10:34:16Z</time>
      </trkpt>
      <trkpt lat="42.657" lon="0.125">
        <ele>1256.27</ele>
        <time>2018-08-07T10:34:17Z</time>
      </trkpt>
      <trkpt lat="42.65714" lon="0.12473">
        <ele>1257.24</ele>
        <time>2018-08-07T10:34:18Z</time>
      </trkpt>
      <trkpt lat="42.65725" lon="0.12444">
        <ele>1258.93</ele>
        <time>2018-08-07T10:34:19Z</time>
      </trkpt>
      <trkpt lat="42.65736" lon="0.12415">
        <ele>1260.14</ele>
        <time>2018-08-07T10:34:20Z</time>
      </trkpt>
      <trkpt lat="42.65748" lon="0.12387">
        <ele>1261.2</ele>
        <time>2018-08-07T10:34:21Z</time>
      </trkpt>
      <trkpt lat="42.6576" lon="0.12358">
        <ele>1261.52</ele>
        <time>2018-08-07T10:34:22Z</time>
      </trkpt>
      <trkpt lat="42.65775" lon="0.12331">
        <ele>1260.22</ele>
        <time>2018-08-07T10:34:23Z</time>
      </trkpt>
      <trkpt lat="42.65787" lon="0.12304">
        <ele>1259.83</ele>
        <time>2018-08-07T10:34:24Z</time>
      </trkpt>
      <trkpt lat="42.65799" lon="0.12277">
        <ele>1260.41</ele>
        <time>2018-08-07T10:34:25Z</time>
      </trkpt>
      <trkpt lat="42.65808" lon="0.12247">
        <ele>1260.58</ele>
        <time>2018-08-07T10:34:26Z</time>
      </trkpt>
      <trkpt lat="42.65814" lon="0.12217">
        <ele>1260.64</ele>
        <time>2018-08-07T10:34:27Z</time>
      </trkpt>
      <trkpt lat="42.65822" lon="0.12191">
        <ele>1261.35</ele>
        <time>2018-08-07T10:34:28Z</time>
      </trkpt>
      <trkpt lat="42.6583" lon="0.12167">
        <ele>1262.97</ele>
        <time>2018-08-07T10:34:29Z</time>
      </trkpt>
      <trkpt lat="42.65848" lon="0.12126">
        <ele>1265.21</ele>
        <time>2018-08-07T10:34:31Z</time>
      </trkpt>
      <trkpt lat="42.65861" lon="0.12085">
        <ele>1266.32</ele>
        <time>2018-08-07T10:34:33Z</time>
      </trkpt>
      <trkpt lat="42.65873" lon="0.12044">
        <ele>1265.72</ele>
        <time>2018-08-07T10:34:35Z</time>
      </trkpt>
      <trkpt lat="42.65891" lon="0.12001">
        <ele>1266.57</ele>
        <time>2018-08-07T10:34:37Z</time>
      </trkpt>
      <trkpt lat="42.65897" lon="0.11976">
        <ele>1266.63</ele>
        <time>2018-08-07T10:34:38Z</time>
      </trkpt>
      <trkpt lat="42.65904" lon="0.11952">
        <ele>1265.95</ele>
        <time>2018-08-07T10:34:39Z</time>
      </trkpt>
      <trkpt lat="42.65911" lon="0.1193">
        <ele>1266.45</ele>
        <time>2018-08-07T10:34:40Z</time>
      </trkpt>
      <trkpt lat="42.65915" lon="0.11905">
        <ele>1266.59</ele>
        <time>2018-08-07T10:34:41Z</time>
      </trkpt>
      <trkpt lat="42.65919" lon="0.11856">
        <ele>1266.65</ele>
        <time>2018-08-07T10:34:43Z</time>
      </trkpt>
      <trkpt lat="42.65921" lon="0.11813">
        <ele>1268.48</ele>
        <time>2018-08-07T10:34:45Z</time>
      </trkpt>
      <trkpt lat="42.65923" lon="0.1177">
        <ele>1268.64</ele>
        <time>2018-08-07T10:34:47Z</time>
      </trkpt>
      <trkpt lat="42.65928" lon="0.11731">
        <ele>1267.96</ele>
        <time>2018-08-07T10:34:49Z</time>
      </trkpt>
      <trkpt lat="42.65943" lon="0.11695">
        <ele>1266.07</ele>
        <time>2018-08-07T10:34:51Z</time>
      </trkpt>
      <trkpt lat="42.6596" lon="0.11661">
        <ele>1265.7</ele>
        <time>2018-08-07T10:34:53Z</time>
      </trkpt>
      <trkpt lat="42.65982" lon="0.11628">
        <ele>1263.35</ele>
        <time>2018-08-07T10:34:55Z</time>
      </trkpt>
      <trkpt lat="42.66005" lon="0.11596">
        <ele>1262.72</ele>
        <time>2018-08-07T10:34:57Z</time>
      </trkpt>
      <trkpt lat="42.66021" lon="0.11561">
        <ele>1262.45</ele>
        <time>2018-08-07T10:34:59Z</time>
      </trkpt>
      <trkpt lat="42.66042" lon="0.11527">
        <ele>1263.55</ele>
        <time>2018-08-07T10:35:01Z</time>
      </trkpt>
      <trkpt lat="42.66046" lon="0.11483">
        <ele>1261.34</ele>
        <time>2018-08-07T10:35:03Z</time>
      </trkpt>
      <trkpt lat="42.66058" lon="0.11442">
        <ele>1260.93</ele>
        <time>2018-08-07T10:35:05Z</time>
      </trkpt>
      <trkpt lat="42.66071" lon="0.11405">
        <ele>1259.98</ele>
        <time>2018-08-07T10:35:07Z</time>
      </trkpt>
      <trkpt lat="42.66096" lon="0.11381">
        <ele>1258.36</ele>
        <time>2018-08-07T10:35:09Z</time>
      </trkpt>
      <trkpt lat="42.66121" lon="0.11358">
        <ele>1257.72</ele>
        <time>2018-08-07T10:35:11Z</time>
      </trkpt>
      <trkpt lat="42.66145" lon="0.11325">
        <ele>1257.66</ele>
        <time>2018-08-07T10:35:13Z</time>
      </trkpt>
      <trkpt lat="42.66154" lon="0.11297">
        <ele>1258.36</ele>
        <time>2018-08-07T10:35:14Z</time>
      </trkpt>
      <trkpt lat="42.66164" lon="0.11267">
        <ele>1258.57</ele>
        <time>2018-08-07T10:35:15Z</time>
      </trkpt>
      <trkpt lat="42.66177" lon="0.11241">
        <ele>1259.33</ele>
        <time>2018-08-07T10:35:16Z</time>
      </trkpt>
      <trkpt lat="42.66189" lon="0.11215">
        <ele>1259.56</ele>
        <time>2018-08-07T10:35:17Z</time>
      </trkpt>
      <trkpt lat="42.66197" lon="0.11188">
        <ele>1259.63</ele>
        <time>2018-08-07T10:35:18Z</time>
      </trkpt>
      <trkpt lat="42.66204" lon="0.11159">
        <ele>1259.65</ele>
        <time>2018-08-07T10:35:19Z</time>
      </trkpt>
      <trkpt lat="42.66208" lon="0.11127">
        <ele>1258.96</ele>
        <time>2018-08-07T10:35:20Z</time>
      </trkpt>
      <trkpt lat="42.66211" lon="0.11097">
        <ele>1258.75</ele>
        <time>2018-08-07T10:35:21Z</time>
      </trkpt>
      <trkpt lat="42.66217" lon="0.1107">
        <ele>1258.68</ele>
        <time>2018-08-07T10:35:22Z</time>
      </trkpt>
      <trkpt lat="42.66225" lon="0.11045">
        <ele>1257.97</ele>
        <time>2018-08-07T10:35:23Z</time>
      </trkpt>
      <trkpt lat="42.66237" lon="0.11021">
        <ele>1257.05</ele>
        <time>2018-08-07T10:35:24Z</time>
      </trkpt>
      <trkpt lat="42.66251" lon="0.10998">
        <ele>1256.08</ele>
        <time>2018-08-07T10:35:25Z</time>
      </trkpt>
      <trkpt lat="42.66265" lon="0.10977">
        <ele>1255.78</ele>
        <time>2018-08-07T10:35:26Z</time>
      </trkpt>
      <trkpt lat="42.66282" lon="0.10959">
        <ele>1255.7</ele>
        <time>2018-08-07T10:35:27Z</time>
      </trkpt>
      <trkpt lat="42.66301" lon="0.10942">
        <ele>1254.97</ele>
        <time>2018-08-07T10:35:28Z</time>
      </trkpt>
      <trkpt lat="42.66318" lon="0.10925">
        <ele>1254.75</ele>
        <time>2018-08-07T10:35:29Z</time>
      </trkpt>
      <trkpt lat="42.66333" lon="0.10909">
        <ele>1253.99</ele>
        <time>2018-08-07T10:35:30Z</time>
      </trkpt>
      <trkpt lat="42.66345" lon="0.10891">
        <ele>1254.46</ele>
        <time>2018-08-07T10:35:31Z</time>
      </trkpt>
      <trkpt lat="42.66355" lon="0.10867">
        <ele>1253.9</ele>
        <time>2018-08-07T10:35:32Z</time>
      </trkpt>
      <trkpt lat="42.66365" lon="0.10839">
        <ele>1253.73</ele>
        <time>2018-08-07T10:35:33Z</time>
      </trkpt>
      <trkpt lat="42.66377" lon="0.10811">
        <ele>1254.38</ele>
        <time>2018-08-07T10:35:34Z</time>
      </trkpt>
      <trkpt lat="42.66388" lon="0.10781">
        <ele>1254.57</ele>
        <time>2018-08-07T10:35:35Z</time>
      </trkpt>
      <trkpt lat="42.66398" lon="0.10752">
        <ele>1253.93</ele>
        <time>2018-08-07T10:35:36Z</time>
      </trkpt>
      <trkpt lat="42.66407" lon="0.10724">
        <ele>1253.04</ele>
        <time>2018-08-07T10:35:37Z</time>
      </trkpt>
      <trkpt lat="42.66417" lon="0.10698">
        <ele>1252.77</ele>
        <time>2018-08-07T10:35:38Z</time>
      </trkpt>
      <trkpt lat="42.66428" lon="0.10674">
        <ele>1252.69</ele>
        <time>2018-08-07T10:35:39Z</time>
      </trkpt>
      <trkpt lat="42.66443" lon="0.10652">
        <ele>1252.67</ele>
        <time>2018-08-07T10:35:40Z</time>
      </trkpt>
      <trkpt lat="42.66459" lon="0.10632">
        <ele>1252.66</ele>
        <time>2018-08-07T10:35:41Z</time>
      </trkpt>
      <trkpt lat="42.66477" lon="0.10613">
        <ele>1253.36</ele>
        <time>2018-08-07T10:35:42Z</time>
      </trkpt>
      <trkpt lat="42.66496" lon="0.10592">
        <ele>1253.57</ele>
        <time>2018-08-07T10:35:43Z</time>
      </trkpt>
      <trkpt lat="42.66514" lon="0.1057">
        <ele>1252.93</ele>
        <time>2018-08-07T10:35:44Z</time>
      </trkpt>
      <trkpt lat="42.66531" lon="0.10547">
        <ele>1252.74</ele>
        <time>2018-08-07T10:35:45Z</time>
      </trkpt>
      <trkpt lat="42.66543" lon="0.10522">
        <ele>1252.68</ele>
        <time>2018-08-07T10:35:46Z</time>
      </trkpt>
      <trkpt lat="42.66556" lon="0.10499">
        <ele>1251.97</ele>
        <time>2018-08-07T10:35:47Z</time>
      </trkpt>
      <trkpt lat="42.66566" lon="0.10476">
        <ele>1251.05</ele>
        <time>2018-08-07T10:35:48Z</time>
      </trkpt>
      <trkpt lat="42.66578" lon="0.10455">
        <ele>1251.48</ele>
        <time>2018-08-07T10:35:49Z</time>
      </trkpt>
      <trkpt lat="42.66593" lon="0.10438">
        <ele>1250.9</ele>
        <time>2018-08-07T10:35:50Z</time>
      </trkpt>
      <trkpt lat="42.6661" lon="0.10422">
        <ele>1250.03</ele>
        <time>2018-08-07T10:35:51Z</time>
      </trkpt>
      <trkpt lat="42.66628" lon="0.10406">
        <ele>1249.77</ele>
        <time>2018-08-07T10:35:52Z</time>
      </trkpt>
      <trkpt lat="42.66645" lon="0.10391">
        <ele>1249.69</ele>
        <time>2018-08-07T10:35:53Z</time>
      </trkpt>
      <trkpt lat="42.66662" lon="0.10376">
        <ele>1249.67</ele>
        <time>2018-08-07T10:35:54Z</time>
      </trkpt>
      <trkpt lat="42.66676" lon="0.10356">
        <ele>1248.96</ele>
        <time>2018-08-07T10:35:55Z</time>
      </trkpt>
      <trkpt lat="42.66687" lon="0.10332">
        <ele>1249.45</ele>
        <time>2018-08-07T10:35:56Z</time>
      </trkpt>
      <trkpt lat="42.66694" lon="0.10303">
        <ele>1248.9</ele>
        <time>2018-08-07T10:35:57Z</time>
      </trkpt>
      <trkpt lat="42.66702" lon="0.10274">
        <ele>1248.73</ele>
        <time>2018-08-07T10:35:58Z</time>
      </trkpt>
      <trkpt lat="42.66712" lon="0.10244">
        <ele>1247.98</ele>
        <time>2018-08-07T10:35:59Z</time>
      </trkpt>
      <trkpt lat="42.66721" lon="0.10213">
        <ele>1247.75</ele>
        <time>2018-08-07T10:36:00Z</time>
      </trkpt>
      <trkpt lat="42.6673" lon="0.10181">
        <ele>1247.69</ele>
        <time>2018-08-07T10:36:01Z</time>
      </trkpt>
      <trkpt lat="42.66739" lon="0.1015">
        <ele>1246.97</ele>
        <time>2018-08-07T10:36:02Z</time>
      </trkpt>
      <trkpt lat="42.66748" lon="0.1012">
        <ele>1247.45</ele>
        <time>2018-08-07T10:36:03Z</time>
      </trkpt>
      <trkpt lat="42.66758" lon="0.10093">
        <ele>1246.9</ele>
        <time>2018-08-07T10:36:04Z</time>
      </trkpt>
      <trkpt lat="42.66768" lon="0.10069">
        <ele>1247.43</ele>
        <time>2018-08-07T10:36:05Z</time>
      </trkpt>
      <trkpt lat="42.66778" lon="0.10047">
        <ele>1246.89</ele>
        <time>2018-08-07T10:36:06Z</time>
      </trkpt>
      <trkpt lat="42.66793" lon="0.10027">
        <ele>1246.73</ele>
        <time>2018-08-07T10:36:07Z</time>
      </trkpt>
      <trkpt lat="42.66809" lon="0.10006">
        <ele>1247.38</ele>
        <time>2018-08-07T10:36:08Z</time>
      </trkpt>
      <trkpt lat="42.66825" lon="0.09984">
        <ele>1247.57</ele>
        <time>2018-08-07T10:36:09Z</time>
      </trkpt>
      <trkpt lat="42.66842" lon="0.09962">
        <ele>1248.33</ele>
        <time>2018-08-07T10:36:10Z</time>
      </trkpt>
      <trkpt lat="42.66859" lon="0.09938">
        <ele>1248.56</ele>
        <time>2018-08-07T10:36:11Z</time>
      </trkpt>
      <trkpt lat="42.66876" lon="0.09914">
        <ele>1249.33</ele>
        <time>2018-08-07T10:36:12Z</time>
      </trkpt>
      <trkpt lat="42.66892" lon="0.09891">
        <ele>1248.86</ele>
        <time>2018-08-07T10:36:13Z</time>
      </trkpt>
      <trkpt lat="42.66906" lon="0.09871">
        <ele>1249.42</ele>
        <time>2018-08-07T10:36:14Z</time>
      </trkpt>
      <trkpt lat="42.66919" lon="0.09851">
        <ele>1250.99</ele>
        <time>2018-08-07T10:36:15Z</time>
      </trkpt>
      <trkpt lat="42.66933" lon="0.09812">
        <ele>1253.21</ele>
        <time>2018-08-07T10:36:17Z</time>
      </trkpt>
      <trkpt lat="42.66938" lon="0.09771">
        <ele>1253.83</ele>
        <time>2018-08-07T10:36:19Z</time>
      </trkpt>
      <trkpt lat="42.6693" lon="0.09724">
        <ele>1255.28</ele>
        <time>2018-08-07T10:36:21Z</time>
      </trkpt>
      <trkpt lat="42.66926" lon="0.09694">
        <ele>1256.95</ele>
        <time>2018-08-07T10:36:22Z</time>
      </trkpt>
      <trkpt lat="42.66928" lon="0.09664">
        <ele>1258.14</ele>
        <time>2018-08-07T10:36:23Z</time>
      </trkpt>
      <trkpt lat="42.66929" lon="0.09633">
        <ele>1258.5</ele>
        <time>2018-08-07T10:36:24Z</time>
      </trkpt>
      <trkpt lat="42.66928" lon="0.09602">
        <ele>1258.61</ele>
        <time>2018-08-07T10:36:25Z</time>
      </trkpt>
      <trkpt lat="42.66929" lon="0.09573">
        <ele>1259.34</ele>
        <time>2018-08-07T10:36:26Z</time>
      </trkpt>
      <trkpt lat="42.6693" lon="0.09545">
        <ele>1260.26</ele>
        <time>2018-08-07T10:36:27Z</time>
      </trkpt>
      <trkpt lat="42.66934" lon="0.09519">
        <ele>1261.24</ele>
        <time>2018-08-07T10:36:28Z</time>
      </trkpt>
      <trkpt lat="42.66938" lon="0.09493">
        <ele>1262.23</ele>
        <time>2018-08-07T10:36:29Z</time>
      </trkpt>
      <trkpt lat="42.66949" lon="0.09471">
        <ele>1263.23</ele>
        <time>2018-08-07T10:36:30Z</time>
      </trkpt>
      <trkpt lat="42.66961" lon="0.09448">
        <ele>1264.23</ele>
        <time>2018-08-07T10:36:31Z</time>
      </trkpt>
      <trkpt lat="42.66974" lon="0.09424">
        <ele>1263.83</ele>
        <time>2018-08-07T10:36:32Z</time>
      </trkpt>
      <trkpt lat="42.6699" lon="0.09402">
        <ele>1263.71</ele>
        <time>2018-08-07T10:36:33Z</time>
      </trkpt>
      <trkpt lat="42.67005" lon="0.09378">
        <ele>1264.37</ele>
        <time>2018-08-07T10:36:34Z</time>
      </trkpt>
      <trkpt lat="42.67019" lon="0.09352">
        <ele>1265.27</ele>
        <time>2018-08-07T10:36:35Z</time>
      </trkpt>
      <trkpt lat="42.67033" lon="0.09329">
        <ele>1266.94</ele>
        <time>2018-08-07T10:36:36Z</time>
      </trkpt>
      <trkpt lat="42.67049" lon="0.09306">
        <ele>1267.44</ele>
        <time>2018-08-07T10:36:37Z</time>
      </trkpt>
      <trkpt lat="42.67065" lon="0.09283">
        <ele>1267.59</ele>
        <time>2018-08-07T10:36:38Z</time>
      </trkpt>
      <trkpt lat="42.67084" lon="0.09263">
        <ele>1269.04</ele>
        <time>2018-08-07T10:36:39Z</time>
      </trkpt>
      <trkpt lat="42.67102" lon="0.09243">
        <ele>1269.47</ele>
        <time>2018-08-07T10:36:40Z</time>
      </trkpt>
      <trkpt lat="42.6712" lon="0.09227">
        <ele>1270.3</ele>
        <time>2018-08-07T10:36:41Z</time>
      </trkpt>
      <trkpt lat="42.67139" lon="0.09213">
        <ele>1270.55</ele>
        <time>2018-08-07T10:36:42Z</time>
      </trkpt>
      <trkpt lat="42.67157" lon="0.09198">
        <ele>1271.33</ele>
        <time>2018-08-07T10:36:43Z</time>
      </trkpt>
      <trkpt lat="42.67175" lon="0.09182">
        <ele>1271.56</ele>
        <time>2018-08-07T10:36:44Z</time>
      </trkpt>
      <trkpt lat="42.67192" lon="0.09162">
        <ele>1272.33</ele>
        <time>2018-08-07T10:36:45Z</time>
      </trkpt>
      <trkpt lat="42.67204" lon="0.09136">
        <ele>1272.56</ele>
        <time>2018-08-07T10:36:46Z</time>
      </trkpt>
      <trkpt lat="42.6722" lon="0.09113">
        <ele>1271.93</ele>
        <time>2018-08-07T10:36:47Z</time>
      </trkpt>
      <trkpt lat="42.67235" lon="0.09091">
        <ele>1271.74</ele>
        <time>2018-08-07T10:36:48Z</time>
      </trkpt>
      <trkpt lat="42.6725" lon="0.09068">
        <ele>1270.98</ele>
        <time>2018-08-07T10:36:49Z</time>
      </trkpt>
      <trkpt lat="42.67264" lon="0.09044">
        <ele>1270.76</ele>
        <time>2018-08-07T10:36:50Z</time>
      </trkpt>
      <trkpt lat="42.67278" lon="0.0902">
        <ele>1270.69</ele>
        <time>2018-08-07T10:36:51Z</time>
      </trkpt>
      <trkpt lat="42.67288" lon="0.08994">
        <ele>1270.67</ele>
        <time>2018-08-07T10:36:52Z</time>
      </trkpt>
      <trkpt lat="42.67299" lon="0.08971">
        <ele>1269.96</ele>
        <time>2018-08-07T10:36:53Z</time>
      </trkpt>
      <trkpt lat="42.67312" lon="0.08952">
        <ele>1269.05</ele>
        <time>2018-08-07T10:36:54Z</time>
      </trkpt>
      <trkpt lat="42.67328" lon="0.08938">
        <ele>1268.78</ele>
        <time>2018-08-07T10:36:55Z</time>
      </trkpt>
      <trkpt lat="42.67358" lon="0.08917">
        <ele>1269.37</ele>
        <time>2018-08-07T10:36:57Z</time>
      </trkpt>
      <trkpt lat="42.6738" lon="0.08918">
        <ele>1268.87</ele>
        <time>2018-08-07T10:36:58Z</time>
      </trkpt>
      <trkpt lat="42.67401" lon="0.08915">
        <ele>1269.42</ele>
        <time>2018-08-07T10:36:59Z</time>
      </trkpt>
      <trkpt lat="42.67421" lon="0.0891">
        <ele>1270.29</ele>
        <time>2018-08-07T10:37:00Z</time>
      </trkpt>
      <trkpt lat="42.6744" lon="0.08902">
        <ele>1269.85</ele>
        <time>2018-08-07T10:37:01Z</time>
      </trkpt>
      <trkpt lat="42.67458" lon="0.08893">
        <ele>1270.41</ele>
        <time>2018-08-07T10:37:02Z</time>
      </trkpt>
      <trkpt lat="42.67475" lon="0.08881">
        <ele>1269.89</ele>
        <time>2018-08-07T10:37:03Z</time>
      </trkpt>
      <trkpt lat="42.67489" lon="0.0886">
        <ele>1269.73</ele>
        <time>2018-08-07T10:37:04Z</time>
      </trkpt>
      <trkpt lat="42.67504" lon="0.08844">
        <ele>1270.38</ele>
        <time>2018-08-07T10:37:05Z</time>
      </trkpt>
      <trkpt lat="42.67519" lon="0.08828">
        <ele>1270.57</ele>
        <time>2018-08-07T10:37:06Z</time>
      </trkpt>
      <trkpt lat="42.67534" lon="0.08812">
        <ele>1270.63</ele>
        <time>2018-08-07T10:37:07Z</time>
      </trkpt>
      <trkpt lat="42.67549" lon="0.08795">
        <ele>1271.35</ele>
        <time>2018-08-07T10:37:08Z</time>
      </trkpt>
      <trkpt lat="42.67564" lon="0.08779">
        <ele>1271.57</ele>
        <time>2018-08-07T10:37:09Z</time>
      </trkpt>
      <trkpt lat="42.67578" lon="0.08762">
        <ele>1271.63</ele>
        <time>2018-08-07T10:37:10Z</time>
      </trkpt>
      <trkpt lat="42.67593" lon="0.08747">
        <ele>1271.65</ele>
        <time>2018-08-07T10:37:11Z</time>
      </trkpt>
      <trkpt lat="42.67618" lon="0.08723">
        <ele>1273.27</ele>
        <time>2018-08-07T10:37:13Z</time>
      </trkpt>
      <trkpt lat="42.67638" lon="0.08703">
        <ele>1273.62</ele>
        <time>2018-08-07T10:37:15Z</time>
      </trkpt>
      <trkpt lat="42.67659" lon="0.08684">
        <ele>1274.56</ele>
        <time>2018-08-07T10:37:17Z</time>
      </trkpt>
      <trkpt lat="42.67679" lon="0.08663">
        <ele>1276.96</ele>
        <time>2018-08-07T10:37:19Z</time>
      </trkpt>
      <trkpt lat="42.67702" lon="0.08644">
        <ele>1275.99</ele>
        <time>2018-08-07T10:37:21Z</time>
      </trkpt>
      <trkpt lat="42.67723" lon="0.08623">
        <ele>1276.39</ele>
        <time>2018-08-07T10:37:23Z</time>
      </trkpt>
      <trkpt lat="42.67745" lon="0.08602">
        <ele>1277.33</ele>
        <time>2018-08-07T10:37:25Z</time>
      </trkpt>
      <trkpt lat="42.67767" lon="0.08582">
        <ele>1278.33</ele>
        <time>2018-08-07T10:37:27Z</time>
      </trkpt>
      <trkpt lat="42.67785" lon="0.08567">
        <ele>1278.63</ele>
        <time>2018-08-07T10:37:29Z</time>
      </trkpt>
      <trkpt lat="42.67804" lon="0.08561">
        <ele>1278.87</ele>
        <time>2018-08-07T10:37:31Z</time>
      </trkpt>
      <trkpt lat="42.67827" lon="0.08567">
        <ele>1279.64</ele>
        <time>2018-08-07T10:37:34Z</time>
      </trkpt>
      <trkpt lat="42.67842" lon="0.08553">
        <ele>1280.57</ele>
        <time>2018-08-07T10:37:38Z</time>
      </trkpt>
      <trkpt lat="42.6786" lon="0.08542">
        <ele>1282.63</ele>
        <time>2018-08-07T10:37:44Z</time>
      </trkpt>
      <trkpt lat="42.6784" lon="0.08549">
        <ele>1283.74</ele>
        <time>2018-08-07T10:38:36Z</time>
      </trkpt>
      <trkpt lat="42.67826" lon="0.08565">
        <ele>1281.32</ele>
        <time>2018-08-07T10:39:14Z</time>
      </trkpt>
      <trkpt lat="42.67808" lon="0.08562">
        <ele>1283.56</ele>
        <time>2018-08-07T10:39:19Z</time>
      </trkpt>
      <trkpt lat="42.67783" lon="0.08561">
        <ele>1282.96</ele>
        <time>2018-08-07T10:39:23Z</time>
      </trkpt>
      <trkpt lat="42.67763" lon="0.08577">
        <ele>1282.67</ele>
        <time>2018-08-07T10:39:26Z</time>
      </trkpt>
      <trkpt lat="42.67747" lon="0.08593">
        <ele>1283.57</ele>
        <time>2018-08-07T10:39:28Z</time>
      </trkpt>
      <trkpt lat="42.6773" lon="0.08609">
        <ele>1283.65</ele>
        <time>2018-08-07T10:39:30Z</time>
      </trkpt>
      <trkpt lat="42.67715" lon="0.08625">
        <ele>1282.96</ele>
        <time>2018-08-07T10:39:32Z</time>
      </trkpt>
      <trkpt lat="42.67697" lon="0.0864">
        <ele>1282.68</ele>
        <time>2018-08-07T10:39:34Z</time>
      </trkpt>
      <trkpt lat="42.6768" lon="0.08655">
        <ele>1281.05</ele>
        <time>2018-08-07T10:39:36Z</time>
      </trkpt>
      <trkpt lat="42.67662" lon="0.0867">
        <ele>1279.99</ele>
        <time>2018-08-07T10:39:38Z</time>
      </trkpt>
      <trkpt lat="42.67648" lon="0.08685">
        <ele>1279.48</ele>
        <time>2018-08-07T10:39:40Z</time>
      </trkpt>
      <trkpt lat="42.6763" lon="0.08691">
        <ele>1278.87</ele>
        <time>2018-08-07T10:39:44Z</time>
      </trkpt>
      <trkpt lat="42.67615" lon="0.08671">
        <ele>1279.57</ele>
        <time>2018-08-07T10:39:50Z</time>
      </trkpt>
      <trkpt lat="42.67613" lon="0.08643">
        <ele>1280.57</ele>
        <time>2018-08-07T10:39:55Z</time>
      </trkpt>
      <trkpt lat="42.67622" lon="0.08618">
        <ele>1282.36</ele>
        <time>2018-08-07T10:40:01Z</time>
      </trkpt>
      <trkpt lat="42.67632" lon="0.08597">
        <ele>1281.75</ele>
        <time>2018-08-07T10:40:08Z</time>
      </trkpt>
      <trkpt lat="42.67637" lon="0.08573">
        <ele>1282.57</ele>
        <time>2018-08-07T10:40:23Z</time>
      </trkpt>
      <trkpt lat="42.67655" lon="0.08586">
        <ele>1281.72</ele>
        <time>2018-08-07T10:40:30Z</time>
      </trkpt>
      <trkpt lat="42.67639" lon="0.08573">
        <ele>1280.66</ele>
        <time>2018-08-07T10:41:39Z</time>
      </trkpt>
      <trkpt lat="42.67625" lon="0.08596">
        <ele>1278.74</ele>
        <time>2018-08-07T10:41:46Z</time>
      </trkpt>
      <trkpt lat="42.67618" lon="0.08623">
        <ele>1278.87</ele>
        <time>2018-08-07T10:41:50Z</time>
      </trkpt>
      <trkpt lat="42.67615" lon="0.0865">
        <ele>1276.99</ele>
        <time>2018-08-07T10:41:54Z</time>
      </trkpt>
      <trkpt lat="42.6762" lon="0.08675">
        <ele>1276.73</ele>
        <time>2018-08-07T10:41:59Z</time>
      </trkpt>
      <trkpt lat="42.67624" lon="0.08701">
        <ele>1274.97</ele>
        <time>2018-08-07T10:42:04Z</time>
      </trkpt>
      <trkpt lat="42.6761" lon="0.08718">
        <ele>1274.67</ele>
        <time>2018-08-07T10:42:07Z</time>
      </trkpt>
      <trkpt lat="42.67593" lon="0.08734">
        <ele>1274.45</ele>
        <time>2018-08-07T10:42:09Z</time>
      </trkpt>
      <trkpt lat="42.67571" lon="0.08755">
        <ele>1273.73</ele>
        <time>2018-08-07T10:42:11Z</time>
      </trkpt>
      <trkpt lat="42.67549" lon="0.08782">
        <ele>1273.66</ele>
        <time>2018-08-07T10:42:13Z</time>
      </trkpt>
      <trkpt lat="42.67526" lon="0.08807">
        <ele>1272.96</ele>
        <time>2018-08-07T10:42:15Z</time>
      </trkpt>
      <trkpt lat="42.67503" lon="0.08831">
        <ele>1272.69</ele>
        <time>2018-08-07T10:42:17Z</time>
      </trkpt>
      <trkpt lat="42.67481" lon="0.08857">
        <ele>1272.66</ele>
        <time>2018-08-07T10:42:19Z</time>
      </trkpt>
      <trkpt lat="42.67462" lon="0.08877">
        <ele>1272.45</ele>
        <time>2018-08-07T10:42:21Z</time>
      </trkpt>
      <trkpt lat="42.67443" lon="0.08893">
        <ele>1272.64</ele>
        <time>2018-08-07T10:42:23Z</time>
      </trkpt>
      <trkpt lat="42.67423" lon="0.08902">
        <ele>1271.75</ele>
        <time>2018-08-07T10:42:25Z</time>
      </trkpt>
      <trkpt lat="42.67402" lon="0.08908">
        <ele>1270.76</ele>
        <time>2018-08-07T10:42:27Z</time>
      </trkpt>
      <trkpt lat="42.67381" lon="0.08914">
        <ele>1270.67</ele>
        <time>2018-08-07T10:42:29Z</time>
      </trkpt>
      <trkpt lat="42.67359" lon="0.08919">
        <ele>1270.87</ele>
        <time>2018-08-07T10:42:31Z</time>
      </trkpt>
      <trkpt lat="42.67338" lon="0.08923">
        <ele>1271.59</ele>
        <time>2018-08-07T10:42:33Z</time>
      </trkpt>
      <trkpt lat="42.67316" lon="0.08935">
        <ele>1271.65</ele>
        <time>2018-08-07T10:42:35Z</time>
      </trkpt>
      <trkpt lat="42.67296" lon="0.08964">
        <ele>1273.27</ele>
        <time>2018-08-07T10:42:37Z</time>
      </trkpt>
      <trkpt lat="42.67278" lon="0.09003">
        <ele>1273.62</ele>
        <time>2018-08-07T10:42:39Z</time>
      </trkpt>
      <trkpt lat="42.67268" lon="0.09025">
        <ele>1274.35</ele>
        <time>2018-08-07T10:42:40Z</time>
      </trkpt>
      <trkpt lat="42.67256" lon="0.09047">
        <ele>1275.26</ele>
        <time>2018-08-07T10:42:41Z</time>
      </trkpt>
      <trkpt lat="42.67242" lon="0.09068">
        <ele>1276.24</ele>
        <time>2018-08-07T10:42:42Z</time>
      </trkpt>
      <trkpt lat="42.67228" lon="0.09088">
        <ele>1276.53</ele>
        <time>2018-08-07T10:42:43Z</time>
      </trkpt>
      <trkpt lat="42.67214" lon="0.09109">
        <ele>1277.32</ele>
        <time>2018-08-07T10:42:44Z</time>
      </trkpt>
      <trkpt lat="42.672" lon="0.0913">
        <ele>1276.86</ele>
        <time>2018-08-07T10:42:45Z</time>
      </trkpt>
      <trkpt lat="42.67186" lon="0.09152">
        <ele>1276.72</ele>
        <time>2018-08-07T10:42:46Z</time>
      </trkpt>
      <trkpt lat="42.67171" lon="0.09172">
        <ele>1276.68</ele>
        <time>2018-08-07T10:42:47Z</time>
      </trkpt>
      <trkpt lat="42.67157" lon="0.09192">
        <ele>1275.96</ele>
        <time>2018-08-07T10:42:48Z</time>
      </trkpt>
      <trkpt lat="42.6714" lon="0.09208">
        <ele>1275.75</ele>
        <time>2018-08-07T10:42:49Z</time>
      </trkpt>
      <trkpt lat="42.67123" lon="0.09223">
        <ele>1274.99</ele>
        <time>2018-08-07T10:42:50Z</time>
      </trkpt>
      <trkpt lat="42.67105" lon="0.09238">
        <ele>1274.76</ele>
        <time>2018-08-07T10:42:51Z</time>
      </trkpt>
      <trkpt lat="42.67087" lon="0.09255">
        <ele>1273.29</ele>
        <time>2018-08-07T10:42:52Z</time>
      </trkpt>
      <trkpt lat="42.67071" lon="0.09273">
        <ele>1272.85</ele>
        <time>2018-08-07T10:42:53Z</time>
      </trkpt>
      <trkpt lat="42.67056" lon="0.09293">
        <ele>1272.01</ele>
        <time>2018-08-07T10:42:54Z</time>
      </trkpt>
      <trkpt lat="42.6704" lon="0.09316">
        <ele>1271.06</ele>
        <time>2018-08-07T10:42:55Z</time>
      </trkpt>
      <trkpt lat="42.67026" lon="0.09338">
        <ele>1270.08</ele>
        <time>2018-08-07T10:42:56Z</time>
      </trkpt>
      <trkpt lat="42.67011" lon="0.09362">
        <ele>1269.08</ele>
        <time>2018-08-07T10:42:57Z</time>
      </trkpt>
      <trkpt lat="42.66996" lon="0.09386">
        <ele>1268.79</ele>
        <time>2018-08-07T10:42:58Z</time>
      </trkpt>
      <trkpt lat="42.66981" lon="0.09409">
        <ele>1267.3</ele>
        <time>2018-08-07T10:42:59Z</time>
      </trkpt>
      <trkpt lat="42.66967" lon="0.0943">
        <ele>1266.15</ele>
        <time>2018-08-07T10:43:00Z</time>
      </trkpt>
      <trkpt lat="42.66956" lon="0.0945">
        <ele>1265.81</ele>
        <time>2018-08-07T10:43:01Z</time>
      </trkpt>
      <trkpt lat="42.66937" lon="0.09488">
        <ele>1264.97</ele>
        <time>2018-08-07T10:43:03Z</time>
      </trkpt>
      <trkpt lat="42.66925" lon="0.09532">
        <ele>1262.38</ele>
        <time>2018-08-07T10:43:05Z</time>
      </trkpt>
      <trkpt lat="42.66923" lon="0.09558">
        <ele>1261.87</ele>
        <time>2018-08-07T10:43:06Z</time>
      </trkpt>
      <trkpt lat="42.6692" lon="0.09584">
        <ele>1261.02</ele>
        <time>2018-08-07T10:43:07Z</time>
      </trkpt>
      <trkpt lat="42.66918" lon="0.09613">
        <ele>1260.07</ele>
        <time>2018-08-07T10:43:08Z</time>
      </trkpt>
      <trkpt lat="42.66916" lon="0.09642">
        <ele>1259.08</ele>
        <time>2018-08-07T10:43:09Z</time>
      </trkpt>
      <trkpt lat="42.66915" lon="0.09671">
        <ele>1258.78</ele>
        <time>2018-08-07T10:43:10Z</time>
      </trkpt>
      <trkpt lat="42.66916" lon="0.09701">
        <ele>1258</ele>
        <time>2018-08-07T10:43:11Z</time>
      </trkpt>
      <trkpt lat="42.66918" lon="0.09731">
        <ele>1258.46</ele>
        <time>2018-08-07T10:43:12Z</time>
      </trkpt>
      <trkpt lat="42.6692" lon="0.0976">
        <ele>1259.3</ele>
        <time>2018-08-07T10:43:13Z</time>
      </trkpt>
      <trkpt lat="42.66924" lon="0.09787">
        <ele>1258.15</ele>
        <time>2018-08-07T10:43:14Z</time>
      </trkpt>
      <trkpt lat="42.66925" lon="0.09812">
        <ele>1257.11</ele>
        <time>2018-08-07T10:43:15Z</time>
      </trkpt>
      <trkpt lat="42.66919" lon="0.09853">
        <ele>1255.79</ele>
        <time>2018-08-07T10:43:17Z</time>
      </trkpt>
      <trkpt lat="42.66907" lon="0.09895">
        <ele>1255.67</ele>
        <time>2018-08-07T10:43:19Z</time>
      </trkpt>
      <trkpt lat="42.66893" lon="0.09911">
        <ele>1255.66</ele>
        <time>2018-08-07T10:43:20Z</time>
      </trkpt>
      <trkpt lat="42.66869" lon="0.09928">
        <ele>1254.26</ele>
        <time>2018-08-07T10:43:21Z</time>
      </trkpt>
      <trkpt lat="42.66854" lon="0.0995">
        <ele>1253.84</ele>
        <time>2018-08-07T10:43:22Z</time>
      </trkpt>
      <trkpt lat="42.66837" lon="0.09972">
        <ele>1253.01</ele>
        <time>2018-08-07T10:43:23Z</time>
      </trkpt>
      <trkpt lat="42.66822" lon="0.09995">
        <ele>1252.76</ele>
        <time>2018-08-07T10:43:24Z</time>
      </trkpt>
      <trkpt lat="42.66804" lon="0.10014">
        <ele>1251.99</ele>
        <time>2018-08-07T10:43:25Z</time>
      </trkpt>
      <trkpt lat="42.66789" lon="0.10035">
        <ele>1250.36</ele>
        <time>2018-08-07T10:43:26Z</time>
      </trkpt>
      <trkpt lat="42.66773" lon="0.10055">
        <ele>1249.17</ele>
        <time>2018-08-07T10:43:27Z</time>
      </trkpt>
      <trkpt lat="42.66761" lon="0.10076">
        <ele>1248.81</ele>
        <time>2018-08-07T10:43:28Z</time>
      </trkpt>
      <trkpt lat="42.66751" lon="0.10099">
        <ele>1248.7</ele>
        <time>2018-08-07T10:43:29Z</time>
      </trkpt>
      <trkpt lat="42.66742" lon="0.10125">
        <ele>1247.97</ele>
        <time>2018-08-07T10:43:30Z</time>
      </trkpt>
      <trkpt lat="42.66734" lon="0.10153">
        <ele>1248.45</ele>
        <time>2018-08-07T10:43:31Z</time>
      </trkpt>
      <trkpt lat="42.66725" lon="0.10181">
        <ele>1247.9</ele>
        <time>2018-08-07T10:43:32Z</time>
      </trkpt>
      <trkpt lat="42.66717" lon="0.10208">
        <ele>1246.33</ele>
        <time>2018-08-07T10:43:33Z</time>
      </trkpt>
      <trkpt lat="42.66708" lon="0.10237">
        <ele>1246.56</ele>
        <time>2018-08-07T10:43:34Z</time>
      </trkpt>
      <trkpt lat="42.667" lon="0.10264">
        <ele>1245.93</ele>
        <time>2018-08-07T10:43:35Z</time>
      </trkpt>
      <trkpt lat="42.66691" lon="0.10291">
        <ele>1245.74</ele>
        <time>2018-08-07T10:43:36Z</time>
      </trkpt>
      <trkpt lat="42.66683" lon="0.10319">
        <ele>1245.68</ele>
        <time>2018-08-07T10:43:37Z</time>
      </trkpt>
      <trkpt lat="42.66674" lon="0.10344">
        <ele>1246.37</ele>
        <time>2018-08-07T10:43:38Z</time>
      </trkpt>
      <trkpt lat="42.66652" lon="0.1038">
        <ele>1246.63</ele>
        <time>2018-08-07T10:43:40Z</time>
      </trkpt>
      <trkpt lat="42.66626" lon="0.10408">
        <ele>1246.87</ele>
        <time>2018-08-07T10:43:42Z</time>
      </trkpt>
      <trkpt lat="42.6661" lon="0.1042">
        <ele>1246.72</ele>
        <time>2018-08-07T10:43:43Z</time>
      </trkpt>
      <trkpt lat="42.66582" lon="0.10446">
        <ele>1248.27</ele>
        <time>2018-08-07T10:43:45Z</time>
      </trkpt>
      <trkpt lat="42.66562" lon="0.10482">
        <ele>1248.62</ele>
        <time>2018-08-07T10:43:47Z</time>
      </trkpt>
      <trkpt lat="42.66552" lon="0.10503">
        <ele>1249.35</ele>
        <time>2018-08-07T10:43:48Z</time>
      </trkpt>
      <trkpt lat="42.66542" lon="0.10524">
        <ele>1249.56</ele>
        <time>2018-08-07T10:43:49Z</time>
      </trkpt>
      <trkpt lat="42.6653" lon="0.10545">
        <ele>1249.63</ele>
        <time>2018-08-07T10:43:50Z</time>
      </trkpt>
      <trkpt lat="42.66516" lon="0.10566">
        <ele>1250.35</ele>
        <time>2018-08-07T10:43:51Z</time>
      </trkpt>
      <trkpt lat="42.66502" lon="0.10585">
        <ele>1249.87</ele>
        <time>2018-08-07T10:43:52Z</time>
      </trkpt>
      <trkpt lat="42.66487" lon="0.10604">
        <ele>1251.12</ele>
        <time>2018-08-07T10:43:53Z</time>
      </trkpt>
      <trkpt lat="42.6647" lon="0.1062">
        <ele>1251.5</ele>
        <time>2018-08-07T10:43:54Z</time>
      </trkpt>
      <trkpt lat="42.66454" lon="0.10637">
        <ele>1251.61</ele>
        <time>2018-08-07T10:43:55Z</time>
      </trkpt>
      <trkpt lat="42.66439" lon="0.10656">
        <ele>1251.64</ele>
        <time>2018-08-07T10:43:56Z</time>
      </trkpt>
      <trkpt lat="42.66426" lon="0.10677">
        <ele>1251.65</ele>
        <time>2018-08-07T10:43:57Z</time>
      </trkpt>
      <trkpt lat="42.66415" lon="0.107">
        <ele>1251.66</ele>
        <time>2018-08-07T10:43:58Z</time>
      </trkpt>
      <trkpt lat="42.66406" lon="0.10726">
        <ele>1251.66</ele>
        <time>2018-08-07T10:43:59Z</time>
      </trkpt>
      <trkpt lat="42.66395" lon="0.10752">
        <ele>1251.66</ele>
        <time>2018-08-07T10:44:00Z</time>
      </trkpt>
      <trkpt lat="42.66385" lon="0.10779">
        <ele>1250.96</ele>
        <time>2018-08-07T10:44:01Z</time>
      </trkpt>
      <trkpt lat="42.66374" lon="0.10805">
        <ele>1250.75</ele>
        <time>2018-08-07T10:44:02Z</time>
      </trkpt>
      <trkpt lat="42.66364" lon="0.10833">
        <ele>1250.68</ele>
        <time>2018-08-07T10:44:03Z</time>
      </trkpt>
      <trkpt lat="42.66354" lon="0.10858">
        <ele>1250.67</ele>
        <time>2018-08-07T10:44:04Z</time>
      </trkpt>
      <trkpt lat="42.66343" lon="0.10883">
        <ele>1251.36</ele>
        <time>2018-08-07T10:44:05Z</time>
      </trkpt>
      <trkpt lat="42.66332" lon="0.10904">
        <ele>1251.57</ele>
        <time>2018-08-07T10:44:06Z</time>
      </trkpt>
      <trkpt lat="42.6632" lon="0.10925">
        <ele>1251.63</ele>
        <time>2018-08-07T10:44:07Z</time>
      </trkpt>
      <trkpt lat="42.66305" lon="0.1094">
        <ele>1252.35</ele>
        <time>2018-08-07T10:44:08Z</time>
      </trkpt>
      <trkpt lat="42.66285" lon="0.10952">
        <ele>1251.87</ele>
        <time>2018-08-07T10:44:09Z</time>
      </trkpt>
      <trkpt lat="42.66269" lon="0.10968">
        <ele>1251.02</ele>
        <time>2018-08-07T10:44:10Z</time>
      </trkpt>
      <trkpt lat="42.66254" lon="0.10986">
        <ele>1250.77</ele>
        <time>2018-08-07T10:44:11Z</time>
      </trkpt>
      <trkpt lat="42.66241" lon="0.11007">
        <ele>1250.69</ele>
        <time>2018-08-07T10:44:12Z</time>
      </trkpt>
      <trkpt lat="42.6623" lon="0.11029">
        <ele>1250.67</ele>
        <time>2018-08-07T10:44:13Z</time>
      </trkpt>
      <trkpt lat="42.66221" lon="0.11052">
        <ele>1250.66</ele>
        <time>2018-08-07T10:44:14Z</time>
      </trkpt>
      <trkpt lat="42.66214" lon="0.11077">
        <ele>1250.66</ele>
        <time>2018-08-07T10:44:15Z</time>
      </trkpt>
      <trkpt lat="42.66209" lon="0.11104">
        <ele>1251.36</ele>
        <time>2018-08-07T10:44:16Z</time>
      </trkpt>
      <trkpt lat="42.66204" lon="0.11132">
        <ele>1250.87</ele>
        <time>2018-08-07T10:44:17Z</time>
      </trkpt>
      <trkpt lat="42.66199" lon="0.1116">
        <ele>1250.72</ele>
        <time>2018-08-07T10:44:18Z</time>
      </trkpt>
      <trkpt lat="42.66192" lon="0.11187">
        <ele>1251.38</ele>
        <time>2018-08-07T10:44:19Z</time>
      </trkpt>
      <trkpt lat="42.66183" lon="0.11213">
        <ele>1252.27</ele>
        <time>2018-08-07T10:44:20Z</time>
      </trkpt>
      <trkpt lat="42.66172" lon="0.11238">
        <ele>1251.84</ele>
        <time>2018-08-07T10:44:21Z</time>
      </trkpt>
      <trkpt lat="42.66161" lon="0.11263">
        <ele>1251.01</ele>
        <time>2018-08-07T10:44:22Z</time>
      </trkpt>
      <trkpt lat="42.6615" lon="0.11288">
        <ele>1251.46</ele>
        <time>2018-08-07T10:44:23Z</time>
      </trkpt>
      <trkpt lat="42.6614" lon="0.11314">
        <ele>1251.6</ele>
        <time>2018-08-07T10:44:24Z</time>
      </trkpt>
      <trkpt lat="42.6613" lon="0.11338">
        <ele>1251.64</ele>
        <time>2018-08-07T10:44:25Z</time>
      </trkpt>
      <trkpt lat="42.66115" lon="0.11356">
        <ele>1250.25</ele>
        <time>2018-08-07T10:44:26Z</time>
      </trkpt>
      <trkpt lat="42.66099" lon="0.11372">
        <ele>1250.54</ele>
        <time>2018-08-07T10:44:27Z</time>
      </trkpt>
      <trkpt lat="42.66083" lon="0.11386">
        <ele>1251.32</ele>
        <time>2018-08-07T10:44:28Z</time>
      </trkpt>
      <trkpt lat="42.66068" lon="0.114">
        <ele>1250.86</ele>
        <time>2018-08-07T10:44:29Z</time>
      </trkpt>
      <trkpt lat="42.66059" lon="0.11424">
        <ele>1251.42</ele>
        <time>2018-08-07T10:44:30Z</time>
      </trkpt>
      <trkpt lat="42.66052" lon="0.11447">
        <ele>1251.59</ele>
        <time>2018-08-07T10:44:31Z</time>
      </trkpt>
      <trkpt lat="42.66046" lon="0.11473">
        <ele>1250.94</ele>
        <time>2018-08-07T10:44:32Z</time>
      </trkpt>
      <trkpt lat="42.66042" lon="0.115">
        <ele>1251.44</ele>
        <time>2018-08-07T10:44:33Z</time>
      </trkpt>
      <trkpt lat="42.66038" lon="0.11526">
        <ele>1251.59</ele>
        <time>2018-08-07T10:44:34Z</time>
      </trkpt>
      <trkpt lat="42.66031" lon="0.11551">
        <ele>1251.64</ele>
        <time>2018-08-07T10:44:35Z</time>
      </trkpt>
      <trkpt lat="42.66021" lon="0.11574">
        <ele>1252.35</ele>
        <time>2018-08-07T10:44:36Z</time>
      </trkpt>
      <trkpt lat="42.66011" lon="0.11595">
        <ele>1253.27</ele>
        <time>2018-08-07T10:44:37Z</time>
      </trkpt>
      <trkpt lat="42.66" lon="0.11616">
        <ele>1252.84</ele>
        <time>2018-08-07T10:44:38Z</time>
      </trkpt>
      <trkpt lat="42.65987" lon="0.11637">
        <ele>1252.71</ele>
        <time>2018-08-07T10:44:39Z</time>
      </trkpt>
      <trkpt lat="42.65974" lon="0.11658">
        <ele>1252.67</ele>
        <time>2018-08-07T10:44:40Z</time>
      </trkpt>
      <trkpt lat="42.65961" lon="0.11678">
        <ele>1251.96</ele>
        <time>2018-08-07T10:44:41Z</time>
      </trkpt>
      <trkpt lat="42.6595" lon="0.117">
        <ele>1251.75</ele>
        <time>2018-08-07T10:44:42Z</time>
      </trkpt>
      <trkpt lat="42.65927" lon="0.11736">
        <ele>1250.76</ele>
        <time>2018-08-07T10:44:44Z</time>
      </trkpt>
      <trkpt lat="42.65931" lon="0.11765">
        <ele>1251.39</ele>
        <time>2018-08-07T10:44:45Z</time>
      </trkpt>
      <trkpt lat="42.65929" lon="0.1179">
        <ele>1252.28</ele>
        <time>2018-08-07T10:44:46Z</time>
      </trkpt>
      <trkpt lat="42.65928" lon="0.11816">
        <ele>1251.84</ele>
        <time>2018-08-07T10:44:47Z</time>
      </trkpt>
      <trkpt lat="42.65926" lon="0.11843">
        <ele>1251.71</ele>
        <time>2018-08-07T10:44:48Z</time>
      </trkpt>
      <trkpt lat="42.65926" lon="0.11872">
        <ele>1251.67</ele>
        <time>2018-08-07T10:44:49Z</time>
      </trkpt>
      <trkpt lat="42.65924" lon="0.11901">
        <ele>1252.36</ele>
        <time>2018-08-07T10:44:50Z</time>
      </trkpt>
      <trkpt lat="42.65918" lon="0.11929">
        <ele>1252.57</ele>
        <time>2018-08-07T10:44:51Z</time>
      </trkpt>
      <trkpt lat="42.6591" lon="0.11957">
        <ele>1252.63</ele>
        <time>2018-08-07T10:44:52Z</time>
      </trkpt>
      <trkpt lat="42.65902" lon="0.11985">
        <ele>1252.65</ele>
        <time>2018-08-07T10:44:53Z</time>
      </trkpt>
      <trkpt lat="42.65891" lon="0.12011">
        <ele>1252.66</ele>
        <time>2018-08-07T10:44:54Z</time>
      </trkpt>
      <trkpt lat="42.65881" lon="0.12038">
        <ele>1253.36</ele>
        <time>2018-08-07T10:44:55Z</time>
      </trkpt>
      <trkpt lat="42.6587" lon="0.12066">
        <ele>1253.57</ele>
        <time>2018-08-07T10:44:56Z</time>
      </trkpt>
      <trkpt lat="42.6586" lon="0.12093">
        <ele>1254.33</ele>
        <time>2018-08-07T10:44:57Z</time>
      </trkpt>
      <trkpt lat="42.6585" lon="0.1212">
        <ele>1253.86</ele>
        <time>2018-08-07T10:44:58Z</time>
      </trkpt>
      <trkpt lat="42.65839" lon="0.12146">
        <ele>1253.72</ele>
        <time>2018-08-07T10:44:59Z</time>
      </trkpt>
      <trkpt lat="42.65831" lon="0.12172">
        <ele>1252.98</ele>
        <time>2018-08-07T10:45:00Z</time>
      </trkpt>
      <trkpt lat="42.65826" lon="0.12198">
        <ele>1252.75</ele>
        <time>2018-08-07T10:45:01Z</time>
      </trkpt>
      <trkpt lat="42.65812" lon="0.12239">
        <ele>1251.76</ele>
        <time>2018-08-07T10:45:03Z</time>
      </trkpt>
      <trkpt lat="42.65803" lon="0.12276">
        <ele>1251.67</ele>
        <time>2018-08-07T10:45:05Z</time>
      </trkpt>
      <trkpt lat="42.6579" lon="0.12311">
        <ele>1252.57</ele>
        <time>2018-08-07T10:45:07Z</time>
      </trkpt>
      <trkpt lat="42.65769" lon="0.1235">
        <ele>1252.65</ele>
        <time>2018-08-07T10:45:09Z</time>
      </trkpt>
      <trkpt lat="42.65756" lon="0.12371">
        <ele>1252.66</ele>
        <time>2018-08-07T10:45:10Z</time>
      </trkpt>
      <trkpt lat="42.65745" lon="0.12396">
        <ele>1252.66</ele>
        <time>2018-08-07T10:45:11Z</time>
      </trkpt>
      <trkpt lat="42.65734" lon="0.12421">
        <ele>1252.66</ele>
        <time>2018-08-07T10:45:12Z</time>
      </trkpt>
      <trkpt lat="42.65723" lon="0.12447">
        <ele>1251.96</ele>
        <time>2018-08-07T10:45:13Z</time>
      </trkpt>
      <trkpt lat="42.65711" lon="0.12472">
        <ele>1251.75</ele>
        <time>2018-08-07T10:45:14Z</time>
      </trkpt>
      <trkpt lat="42.65699" lon="0.12497">
        <ele>1253.08</ele>
        <time>2018-08-07T10:45:15Z</time>
      </trkpt>
      <trkpt lat="42.65687" lon="0.12522">
        <ele>1253.49</ele>
        <time>2018-08-07T10:45:16Z</time>
      </trkpt>
      <trkpt lat="42.65675" lon="0.12546">
        <ele>1253.61</ele>
        <time>2018-08-07T10:45:17Z</time>
      </trkpt>
      <trkpt lat="42.65663" lon="0.12568">
        <ele>1252.94</ele>
        <time>2018-08-07T10:45:18Z</time>
      </trkpt>
      <trkpt lat="42.65654" lon="0.1259">
        <ele>1253.44</ele>
        <time>2018-08-07T10:45:19Z</time>
      </trkpt>
      <trkpt lat="42.65646" lon="0.12612">
        <ele>1253.59</ele>
        <time>2018-08-07T10:45:20Z</time>
      </trkpt>
      <trkpt lat="42.65637" lon="0.12634">
        <ele>1252.94</ele>
        <time>2018-08-07T10:45:21Z</time>
      </trkpt>
      <trkpt lat="42.65633" lon="0.12664">
        <ele>1253.44</ele>
        <time>2018-08-07T10:45:22Z</time>
      </trkpt>
      <trkpt lat="42.65626" lon="0.12693">
        <ele>1253.59</ele>
        <time>2018-08-07T10:45:23Z</time>
      </trkpt>
      <trkpt lat="42.65615" lon="0.12719">
        <ele>1252.94</ele>
        <time>2018-08-07T10:45:24Z</time>
      </trkpt>
      <trkpt lat="42.65606" lon="0.12746">
        <ele>1252.04</ele>
        <time>2018-08-07T10:45:25Z</time>
      </trkpt>
      <trkpt lat="42.65596" lon="0.12773">
        <ele>1252.47</ele>
        <time>2018-08-07T10:45:26Z</time>
      </trkpt>
      <trkpt lat="42.65587" lon="0.12799">
        <ele>1254</ele>
        <time>2018-08-07T10:45:27Z</time>
      </trkpt>
      <trkpt lat="42.65573" lon="0.12821">
        <ele>1254.46</ele>
        <time>2018-08-07T10:45:28Z</time>
      </trkpt>
      <trkpt lat="42.65561" lon="0.12842">
        <ele>1253.2</ele>
        <time>2018-08-07T10:45:29Z</time>
      </trkpt>
      <trkpt lat="42.65548" lon="0.12863">
        <ele>1252.82</ele>
        <time>2018-08-07T10:45:30Z</time>
      </trkpt>
      <trkpt lat="42.65533" lon="0.12879">
        <ele>1253.41</ele>
        <time>2018-08-07T10:45:31Z</time>
      </trkpt>
      <trkpt lat="42.65519" lon="0.12895">
        <ele>1252.88</ele>
        <time>2018-08-07T10:45:32Z</time>
      </trkpt>
      <trkpt lat="42.65505" lon="0.12911">
        <ele>1253.43</ele>
        <time>2018-08-07T10:45:33Z</time>
      </trkpt>
      <trkpt lat="42.65492" lon="0.1293">
        <ele>1252.89</ele>
        <time>2018-08-07T10:45:34Z</time>
      </trkpt>
      <trkpt lat="42.65479" lon="0.12949">
        <ele>1253.43</ele>
        <time>2018-08-07T10:45:35Z</time>
      </trkpt>
      <trkpt lat="42.65468" lon="0.1297">
        <ele>1252.89</ele>
        <time>2018-08-07T10:45:36Z</time>
      </trkpt>
      <trkpt lat="42.65466" lon="0.12996">
        <ele>1252.03</ele>
        <time>2018-08-07T10:45:37Z</time>
      </trkpt>
      <trkpt lat="42.65463" lon="0.13022">
        <ele>1251.77</ele>
        <time>2018-08-07T10:45:38Z</time>
      </trkpt>
      <trkpt lat="42.65459" lon="0.13047">
        <ele>1252.39</ele>
        <time>2018-08-07T10:45:39Z</time>
      </trkpt>
      <trkpt lat="42.65461" lon="0.13075">
        <ele>1252.58</ele>
        <time>2018-08-07T10:45:40Z</time>
      </trkpt>
      <trkpt lat="42.65463" lon="0.13102">
        <ele>1252.63</ele>
        <time>2018-08-07T10:45:41Z</time>
      </trkpt>
      <trkpt lat="42.65464" lon="0.13127">
        <ele>1252.65</ele>
        <time>2018-08-07T10:45:42Z</time>
      </trkpt>
      <trkpt lat="42.65459" lon="0.13175">
        <ele>1251.05</ele>
        <time>2018-08-07T10:45:44Z</time>
      </trkpt>
      <trkpt lat="42.65455" lon="0.13199">
        <ele>1250.77</ele>
        <time>2018-08-07T10:45:45Z</time>
      </trkpt>
      <trkpt lat="42.65449" lon="0.13246">
        <ele>1249.76</ele>
        <time>2018-08-07T10:45:47Z</time>
      </trkpt>
      <trkpt lat="42.6545" lon="0.13272">
        <ele>1248.99</ele>
        <time>2018-08-07T10:45:48Z</time>
      </trkpt>
      <trkpt lat="42.6545" lon="0.13299">
        <ele>1248.76</ele>
        <time>2018-08-07T10:45:49Z</time>
      </trkpt>
      <trkpt lat="42.65446" lon="0.13324">
        <ele>1249.39</ele>
        <time>2018-08-07T10:45:50Z</time>
      </trkpt>
      <trkpt lat="42.65444" lon="0.13351">
        <ele>1248.18</ele>
        <time>2018-08-07T10:45:51Z</time>
      </trkpt>
      <trkpt lat="42.6544" lon="0.13376">
        <ele>1247.11</ele>
        <time>2018-08-07T10:45:52Z</time>
      </trkpt>
      <trkpt lat="42.65435" lon="0.13403">
        <ele>1246.09</ele>
        <time>2018-08-07T10:45:53Z</time>
      </trkpt>
      <trkpt lat="42.65431" lon="0.13427">
        <ele>1245.79</ele>
        <time>2018-08-07T10:45:54Z</time>
      </trkpt>
      <trkpt lat="42.65427" lon="0.13452">
        <ele>1246.4</ele>
        <time>2018-08-07T10:45:55Z</time>
      </trkpt>
      <trkpt lat="42.65408" lon="0.13492">
        <ele>1246.63</ele>
        <time>2018-08-07T10:45:57Z</time>
      </trkpt>
      <trkpt lat="42.65386" lon="0.13526">
        <ele>1245.75</ele>
        <time>2018-08-07T10:45:59Z</time>
      </trkpt>
      <trkpt lat="42.65361" lon="0.13557">
        <ele>1244.97</ele>
        <time>2018-08-07T10:46:01Z</time>
      </trkpt>
      <trkpt lat="42.65332" lon="0.13582">
        <ele>1243.78</ele>
        <time>2018-08-07T10:46:03Z</time>
      </trkpt>
      <trkpt lat="42.65314" lon="0.13596">
        <ele>1243.69</ele>
        <time>2018-08-07T10:46:04Z</time>
      </trkpt>
      <trkpt lat="42.65298" lon="0.13614">
        <ele>1243.67</ele>
        <time>2018-08-07T10:46:05Z</time>
      </trkpt>
      <trkpt lat="42.65283" lon="0.13632">
        <ele>1244.36</ele>
        <time>2018-08-07T10:46:06Z</time>
      </trkpt>
      <trkpt lat="42.65269" lon="0.13653">
        <ele>1243.87</ele>
        <time>2018-08-07T10:46:07Z</time>
      </trkpt>
      <trkpt lat="42.65254" lon="0.13674">
        <ele>1245.12</ele>
        <time>2018-08-07T10:46:08Z</time>
      </trkpt>
      <trkpt lat="42.65239" lon="0.13694">
        <ele>1244.8</ele>
        <time>2018-08-07T10:46:09Z</time>
      </trkpt>
      <trkpt lat="42.65225" lon="0.13714">
        <ele>1244.7</ele>
        <time>2018-08-07T10:46:10Z</time>
      </trkpt>
      <trkpt lat="42.65213" lon="0.13734">
        <ele>1243.97</ele>
        <time>2018-08-07T10:46:11Z</time>
      </trkpt>
      <trkpt lat="42.65204" lon="0.13757">
        <ele>1243.75</ele>
        <time>2018-08-07T10:46:12Z</time>
      </trkpt>
      <trkpt lat="42.65197" lon="0.13782">
        <ele>1243.69</ele>
        <time>2018-08-07T10:46:13Z</time>
      </trkpt>
      <trkpt lat="42.65191" lon="0.1381">
        <ele>1243.67</ele>
        <time>2018-08-07T10:46:14Z</time>
      </trkpt>
      <trkpt lat="42.65186" lon="0.13838">
        <ele>1243.66</ele>
        <time>2018-08-07T10:46:15Z</time>
      </trkpt>
      <trkpt lat="42.6518" lon="0.13866">
        <ele>1245.06</ele>
        <time>2018-08-07T10:46:16Z</time>
      </trkpt>
      <trkpt lat="42.65174" lon="0.13892">
        <ele>1245.48</ele>
        <time>2018-08-07T10:46:17Z</time>
      </trkpt>
      <trkpt lat="42.65168" lon="0.13916">
        <ele>1246.3</ele>
        <time>2018-08-07T10:46:18Z</time>
      </trkpt>
      <trkpt lat="42.65165" lon="0.13941">
        <ele>1245.15</ele>
        <time>2018-08-07T10:46:19Z</time>
      </trkpt>
      <trkpt lat="42.65164" lon="0.13989">
        <ele>1244.7</ele>
        <time>2018-08-07T10:46:21Z</time>
      </trkpt>
      <trkpt lat="42.65168" lon="0.14017">
        <ele>1245.37</ele>
        <time>2018-08-07T10:46:22Z</time>
      </trkpt>
      <trkpt lat="42.65171" lon="0.14044">
        <ele>1244.87</ele>
        <time>2018-08-07T10:46:23Z</time>
      </trkpt>
      <trkpt lat="42.65174" lon="0.14072">
        <ele>1244.72</ele>
        <time>2018-08-07T10:46:24Z</time>
      </trkpt>
      <trkpt lat="42.65175" lon="0.141">
        <ele>1243.98</ele>
        <time>2018-08-07T10:46:25Z</time>
      </trkpt>
      <trkpt lat="42.65176" lon="0.14126">
        <ele>1243.05</ele>
        <time>2018-08-07T10:46:26Z</time>
      </trkpt>
      <trkpt lat="42.65177" lon="0.14152">
        <ele>1242.08</ele>
        <time>2018-08-07T10:46:27Z</time>
      </trkpt>
      <trkpt lat="42.65178" lon="0.14178">
        <ele>1241.08</ele>
        <time>2018-08-07T10:46:28Z</time>
      </trkpt>
      <trkpt lat="42.65176" lon="0.14204">
        <ele>1240.09</ele>
        <time>2018-08-07T10:46:29Z</time>
      </trkpt>
      <trkpt lat="42.65171" lon="0.1423">
        <ele>1239.09</ele>
        <time>2018-08-07T10:46:30Z</time>
      </trkpt>
      <trkpt lat="42.65164" lon="0.14256">
        <ele>1238.09</ele>
        <time>2018-08-07T10:46:31Z</time>
      </trkpt>
      <trkpt lat="42.65157" lon="0.14283">
        <ele>1237.79</ele>
        <time>2018-08-07T10:46:32Z</time>
      </trkpt>
      <trkpt lat="42.6515" lon="0.1431">
        <ele>1237</ele>
        <time>2018-08-07T10:46:33Z</time>
      </trkpt>
      <trkpt lat="42.65142" lon="0.14332">
        <ele>1236.06</ele>
        <time>2018-08-07T10:46:34Z</time>
      </trkpt>
      <trkpt lat="42.65119" lon="0.14369">
        <ele>1235.48</ele>
        <time>2018-08-07T10:46:36Z</time>
      </trkpt>
      <trkpt lat="42.65104" lon="0.14386">
        <ele>1235.61</ele>
        <time>2018-08-07T10:46:37Z</time>
      </trkpt>
      <trkpt lat="42.65089" lon="0.14404">
        <ele>1235.64</ele>
        <time>2018-08-07T10:46:38Z</time>
      </trkpt>
      <trkpt lat="42.65074" lon="0.14423">
        <ele>1235.65</ele>
        <time>2018-08-07T10:46:39Z</time>
      </trkpt>
      <trkpt lat="42.65059" lon="0.14441">
        <ele>1234.96</ele>
        <time>2018-08-07T10:46:40Z</time>
      </trkpt>
      <trkpt lat="42.65045" lon="0.14461">
        <ele>1234.75</ele>
        <time>2018-08-07T10:46:41Z</time>
      </trkpt>
      <trkpt lat="42.65032" lon="0.14483">
        <ele>1233.98</ele>
        <time>2018-08-07T10:46:42Z</time>
      </trkpt>
      <trkpt lat="42.6502" lon="0.14506">
        <ele>1233.06</ele>
        <time>2018-08-07T10:46:43Z</time>
      </trkpt>
      <trkpt lat="42.65008" lon="0.14531">
        <ele>1232.78</ele>
        <time>2018-08-07T10:46:44Z</time>
      </trkpt>
      <trkpt lat="42.64995" lon="0.14556">
        <ele>1231.99</ele>
        <time>2018-08-07T10:46:45Z</time>
      </trkpt>
      <trkpt lat="42.64982" lon="0.14581">
        <ele>1230.36</ele>
        <time>2018-08-07T10:46:46Z</time>
      </trkpt>
      <trkpt lat="42.6497" lon="0.14607">
        <ele>1229.17</ele>
        <time>2018-08-07T10:46:47Z</time>
      </trkpt>
      <trkpt lat="42.64959" lon="0.14633">
        <ele>1228.81</ele>
        <time>2018-08-07T10:46:48Z</time>
      </trkpt>
      <trkpt lat="42.6495" lon="0.1466">
        <ele>1228</ele>
        <time>2018-08-07T10:46:49Z</time>
      </trkpt>
      <trkpt lat="42.64942" lon="0.14686">
        <ele>1227.06</ele>
        <time>2018-08-07T10:46:50Z</time>
      </trkpt>
      <trkpt lat="42.64934" lon="0.14714">
        <ele>1226.08</ele>
        <time>2018-08-07T10:46:51Z</time>
      </trkpt>
      <trkpt lat="42.64927" lon="0.14741">
        <ele>1225.78</ele>
        <time>2018-08-07T10:46:52Z</time>
      </trkpt>
      <trkpt lat="42.64919" lon="0.14768">
        <ele>1225</ele>
        <time>2018-08-07T10:46:53Z</time>
      </trkpt>
      <trkpt lat="42.64912" lon="0.14795">
        <ele>1224.76</ele>
        <time>2018-08-07T10:46:54Z</time>
      </trkpt>
      <trkpt lat="42.64904" lon="0.14822">
        <ele>1223.29</ele>
        <time>2018-08-07T10:46:55Z</time>
      </trkpt>
      <trkpt lat="42.64897" lon="0.14848">
        <ele>1222.15</ele>
        <time>2018-08-07T10:46:56Z</time>
      </trkpt>
      <trkpt lat="42.6489" lon="0.14875">
        <ele>1220.4</ele>
        <time>2018-08-07T10:46:57Z</time>
      </trkpt>
      <trkpt lat="42.64883" lon="0.14903">
        <ele>1219.18</ele>
        <time>2018-08-07T10:46:58Z</time>
      </trkpt>
      <trkpt lat="42.64875" lon="0.1493">
        <ele>1217.42</ele>
        <time>2018-08-07T10:46:59Z</time>
      </trkpt>
      <trkpt lat="42.64867" lon="0.14958">
        <ele>1216.19</ele>
        <time>2018-08-07T10:47:00Z</time>
      </trkpt>
      <trkpt lat="42.64858" lon="0.14985">
        <ele>1215.12</ele>
        <time>2018-08-07T10:47:01Z</time>
      </trkpt>
      <trkpt lat="42.64851" lon="0.15014">
        <ele>1214.1</ele>
        <time>2018-08-07T10:47:02Z</time>
      </trkpt>
      <trkpt lat="42.64843" lon="0.15042">
        <ele>1213.79</ele>
        <time>2018-08-07T10:47:03Z</time>
      </trkpt>
      <trkpt lat="42.64837" lon="0.15071">
        <ele>1213</ele>
        <time>2018-08-07T10:47:04Z</time>
      </trkpt>
      <trkpt lat="42.64832" lon="0.151">
        <ele>1212.06</ele>
        <time>2018-08-07T10:47:05Z</time>
      </trkpt>
      <trkpt lat="42.64825" lon="0.15127">
        <ele>1211.08</ele>
        <time>2018-08-07T10:47:06Z</time>
      </trkpt>
      <trkpt lat="42.64815" lon="0.15155">
        <ele>1211.48</ele>
        <time>2018-08-07T10:47:07Z</time>
      </trkpt>
      <trkpt lat="42.64806" lon="0.15183">
        <ele>1210.21</ele>
        <time>2018-08-07T10:47:08Z</time>
      </trkpt>
      <trkpt lat="42.64796" lon="0.15213">
        <ele>1209.12</ele>
        <time>2018-08-07T10:47:09Z</time>
      </trkpt>
      <trkpt lat="42.64787" lon="0.15242">
        <ele>1208.1</ele>
        <time>2018-08-07T10:47:10Z</time>
      </trkpt>
      <trkpt lat="42.64778" lon="0.15271">
        <ele>1207.09</ele>
        <time>2018-08-07T10:47:11Z</time>
      </trkpt>
      <trkpt lat="42.64769" lon="0.15299">
        <ele>1206.79</ele>
        <time>2018-08-07T10:47:12Z</time>
      </trkpt>
      <trkpt lat="42.6476" lon="0.15326">
        <ele>1206</ele>
        <time>2018-08-07T10:47:13Z</time>
      </trkpt>
      <trkpt lat="42.64752" lon="0.15354">
        <ele>1205.76</ele>
        <time>2018-08-07T10:47:14Z</time>
      </trkpt>
      <trkpt lat="42.64745" lon="0.15383">
        <ele>1205.69</ele>
        <time>2018-08-07T10:47:15Z</time>
      </trkpt>
      <trkpt lat="42.6474" lon="0.15413">
        <ele>1205.67</ele>
        <time>2018-08-07T10:47:16Z</time>
      </trkpt>
      <trkpt lat="42.64735" lon="0.15444">
        <ele>1205.66</ele>
        <time>2018-08-07T10:47:17Z</time>
      </trkpt>
      <trkpt lat="42.6473" lon="0.15475">
        <ele>1204.96</ele>
        <time>2018-08-07T10:47:18Z</time>
      </trkpt>
      <trkpt lat="42.64724" lon="0.15506">
        <ele>1204.05</ele>
        <time>2018-08-07T10:47:19Z</time>
      </trkpt>
      <trkpt lat="42.64719" lon="0.15539">
        <ele>1203.78</ele>
        <time>2018-08-07T10:47:20Z</time>
      </trkpt>
      <trkpt lat="42.64713" lon="0.15571">
        <ele>1203.69</ele>
        <time>2018-08-07T10:47:21Z</time>
      </trkpt>
      <trkpt lat="42.64707" lon="0.15602">
        <ele>1203.67</ele>
        <time>2018-08-07T10:47:22Z</time>
      </trkpt>
      <trkpt lat="42.64703" lon="0.15633">
        <ele>1204.36</ele>
        <time>2018-08-07T10:47:23Z</time>
      </trkpt>
      <trkpt lat="42.64698" lon="0.15661">
        <ele>1205.27</ele>
        <time>2018-08-07T10:47:24Z</time>
      </trkpt>
      <trkpt lat="42.64689" lon="0.15688">
        <ele>1205.54</ele>
        <time>2018-08-07T10:47:25Z</time>
      </trkpt>
      <trkpt lat="42.64682" lon="0.15715">
        <ele>1205.62</ele>
        <time>2018-08-07T10:47:26Z</time>
      </trkpt>
      <trkpt lat="42.64672" lon="0.15741">
        <ele>1206.35</ele>
        <time>2018-08-07T10:47:27Z</time>
      </trkpt>
      <trkpt lat="42.64663" lon="0.15768">
        <ele>1206.56</ele>
        <time>2018-08-07T10:47:28Z</time>
      </trkpt>
      <trkpt lat="42.64654" lon="0.15793">
        <ele>1206.63</ele>
        <time>2018-08-07T10:47:29Z</time>
      </trkpt>
      <trkpt lat="42.64646" lon="0.15816">
        <ele>1206.65</ele>
        <time>2018-08-07T10:47:30Z</time>
      </trkpt>
      <trkpt lat="42.64635" lon="0.15858">
        <ele>1206.87</ele>
        <time>2018-08-07T10:47:32Z</time>
      </trkpt>
      <trkpt lat="42.64631" lon="0.15901">
        <ele>1205.77</ele>
        <time>2018-08-07T10:47:34Z</time>
      </trkpt>
      <trkpt lat="42.64633" lon="0.15926">
        <ele>1205.69</ele>
        <time>2018-08-07T10:47:35Z</time>
      </trkpt>
      <trkpt lat="42.64639" lon="0.15954">
        <ele>1206.37</ele>
        <time>2018-08-07T10:47:36Z</time>
      </trkpt>
      <trkpt lat="42.64642" lon="0.15979">
        <ele>1205.87</ele>
        <time>2018-08-07T10:47:37Z</time>
      </trkpt>
      <trkpt lat="42.64639" lon="0.16021">
        <ele>1204.98</ele>
        <time>2018-08-07T10:47:39Z</time>
      </trkpt>
      <trkpt lat="42.64626" lon="0.16065">
        <ele>1203.08</ele>
        <time>2018-08-07T10:47:41Z</time>
      </trkpt>
      <trkpt lat="42.64605" lon="0.16104">
        <ele>1201.79</ele>
        <time>2018-08-07T10:47:43Z</time>
      </trkpt>
      <trkpt lat="42.64581" lon="0.16132">
        <ele>1202.58</ele>
        <time>2018-08-07T10:47:45Z</time>
      </trkpt>
      <trkpt lat="42.64567" lon="0.16166">
        <ele>1201.04</ele>
        <time>2018-08-07T10:47:47Z</time>
      </trkpt>
      <trkpt lat="42.64556" lon="0.16214">
        <ele>1201.39</ele>
        <time>2018-08-07T10:47:49Z</time>
      </trkpt>
      <trkpt lat="42.64549" lon="0.16239">
        <ele>1201.58</ele>
        <time>2018-08-07T10:47:50Z</time>
      </trkpt>
      <trkpt lat="42.6454" lon="0.16264">
        <ele>1201.63</ele>
        <time>2018-08-07T10:47:51Z</time>
      </trkpt>
      <trkpt lat="42.64531" lon="0.1629">
        <ele>1201.65</ele>
        <time>2018-08-07T10:47:52Z</time>
      </trkpt>
      <trkpt lat="42.64521" lon="0.16316">
        <ele>1201.66</ele>
        <time>2018-08-07T10:47:53Z</time>
      </trkpt>
      <trkpt lat="42.64509" lon="0.1634">
        <ele>1200.96</ele>
        <time>2018-08-07T10:47:54Z</time>
      </trkpt>
      <trkpt lat="42.64496" lon="0.16361">
        <ele>1200.75</ele>
        <time>2018-08-07T10:47:55Z</time>
      </trkpt>
      <trkpt lat="42.64482" lon="0.16382">
        <ele>1201.38</ele>
        <time>2018-08-07T10:47:56Z</time>
      </trkpt>
      <trkpt lat="42.64471" lon="0.16404">
        <ele>1201.58</ele>
        <time>2018-08-07T10:47:57Z</time>
      </trkpt>
      <trkpt lat="42.64462" lon="0.16429">
        <ele>1201.63</ele>
        <time>2018-08-07T10:47:58Z</time>
      </trkpt>
      <trkpt lat="42.64453" lon="0.16455">
        <ele>1202.35</ele>
        <time>2018-08-07T10:47:59Z</time>
      </trkpt>
      <trkpt lat="42.64443" lon="0.16481">
        <ele>1201.87</ele>
        <time>2018-08-07T10:48:00Z</time>
      </trkpt>
      <trkpt lat="42.64433" lon="0.16505">
        <ele>1201.72</ele>
        <time>2018-08-07T10:48:01Z</time>
      </trkpt>
      <trkpt lat="42.64422" lon="0.16528">
        <ele>1200.98</ele>
        <time>2018-08-07T10:48:02Z</time>
      </trkpt>
      <trkpt lat="42.64411" lon="0.16546">
        <ele>1200.05</ele>
        <time>2018-08-07T10:48:03Z</time>
      </trkpt>
      <trkpt lat="42.64384" lon="0.16575">
        <ele>1199.69</ele>
        <time>2018-08-07T10:48:05Z</time>
      </trkpt>
      <trkpt lat="42.64355" lon="0.16598">
        <ele>1198.96</ele>
        <time>2018-08-07T10:48:07Z</time>
      </trkpt>
      <trkpt lat="42.64333" lon="0.16617">
        <ele>1197.99</ele>
        <time>2018-08-07T10:48:09Z</time>
      </trkpt>
      <trkpt lat="42.64317" lon="0.16634">
        <ele>1196.99</ele>
        <time>2018-08-07T10:48:11Z</time>
      </trkpt>
      <trkpt lat="42.64307" lon="0.16661">
        <ele>1195.08</ele>
        <time>2018-08-07T10:48:13Z</time>
      </trkpt>
      <trkpt lat="42.64296" lon="0.16691">
        <ele>1194.49</ele>
        <time>2018-08-07T10:48:15Z</time>
      </trkpt>
      <trkpt lat="42.64289" lon="0.16727">
        <ele>1193.03</ele>
        <time>2018-08-07T10:48:17Z</time>
      </trkpt>
      <trkpt lat="42.64283" lon="0.16761">
        <ele>1190.38</ele>
        <time>2018-08-07T10:48:19Z</time>
      </trkpt>
      <trkpt lat="42.64283" lon="0.16793">
        <ele>1187.41</ele>
        <time>2018-08-07T10:48:21Z</time>
      </trkpt>
      <trkpt lat="42.64286" lon="0.1682">
        <ele>1184.42</ele>
        <time>2018-08-07T10:48:23Z</time>
      </trkpt>
      <trkpt lat="42.64299" lon="0.16838">
        <ele>1183.03</ele>
        <time>2018-08-07T10:48:25Z</time>
      </trkpt>
      <trkpt lat="42.64317" lon="0.16854">
        <ele>1182.69</ele>
        <time>2018-08-07T10:48:27Z</time>
      </trkpt>
      <trkpt lat="42.64325" lon="0.16877">
        <ele>1181.75</ele>
        <time>2018-08-07T10:48:29Z</time>
      </trkpt>
      <trkpt lat="42.64319" lon="0.16903">
        <ele>1180.06</ele>
        <time>2018-08-07T10:48:31Z</time>
      </trkpt>
      <trkpt lat="42.64306" lon="0.16926">
        <ele>1178.99</ele>
        <time>2018-08-07T10:48:33Z</time>
      </trkpt>
      <trkpt lat="42.64286" lon="0.16938">
        <ele>1177.99</ele>
        <time>2018-08-07T10:48:35Z</time>
      </trkpt>
      <trkpt lat="42.64264" lon="0.16944">
        <ele>1175.87</ele>
        <time>2018-08-07T10:48:37Z</time>
      </trkpt>
      <trkpt lat="42.64247" lon="0.16961">
        <ele>1174.07</ele>
        <time>2018-08-07T10:48:39Z</time>
      </trkpt>
      <trkpt lat="42.64234" lon="0.16988">
        <ele>1172.99</ele>
        <time>2018-08-07T10:48:41Z</time>
      </trkpt>
      <trkpt lat="42.64222" lon="0.17021">
        <ele>1172.69</ele>
        <time>2018-08-07T10:48:43Z</time>
      </trkpt>
      <trkpt lat="42.64216" lon="0.17081">
        <ele>1171.26</ele>
        <time>2018-08-07T10:48:45Z</time>
      </trkpt>
      <trkpt lat="42.64211" lon="0.17111">
        <ele>1169.44</ele>
        <time>2018-08-07T10:48:46Z</time>
      </trkpt>
      <trkpt lat="42.64205" lon="0.17143">
        <ele>1168.89</ele>
        <time>2018-08-07T10:48:47Z</time>
      </trkpt>
      <trkpt lat="42.642" lon="0.17174">
        <ele>1169.43</ele>
        <time>2018-08-07T10:48:48Z</time>
      </trkpt>
      <trkpt lat="42.64195" lon="0.17206">
        <ele>1169.59</ele>
        <time>2018-08-07T10:48:49Z</time>
      </trkpt>
      <trkpt lat="42.6419" lon="0.17237">
        <ele>1169.64</ele>
        <time>2018-08-07T10:48:50Z</time>
      </trkpt>
      <trkpt lat="42.64187" lon="0.17268">
        <ele>1170.35</ele>
        <time>2018-08-07T10:48:51Z</time>
      </trkpt>
      <trkpt lat="42.64186" lon="0.17299">
        <ele>1170.57</ele>
        <time>2018-08-07T10:48:52Z</time>
      </trkpt>
      <trkpt lat="42.64187" lon="0.1733">
        <ele>1169.93</ele>
        <time>2018-08-07T10:48:53Z</time>
      </trkpt>
      <trkpt lat="42.64188" lon="0.17361">
        <ele>1169.04</ele>
        <time>2018-08-07T10:48:54Z</time>
      </trkpt>
      <trkpt lat="42.6419" lon="0.1739">
        <ele>1168.77</ele>
        <time>2018-08-07T10:48:55Z</time>
      </trkpt>
      <trkpt lat="42.6419" lon="0.17421">
        <ele>1167.29</ele>
        <time>2018-08-07T10:48:56Z</time>
      </trkpt>
      <trkpt lat="42.64186" lon="0.17451">
        <ele>1166.85</ele>
        <time>2018-08-07T10:48:57Z</time>
      </trkpt>
      <trkpt lat="42.64181" lon="0.1748">
        <ele>1167.42</ele>
        <time>2018-08-07T10:48:58Z</time>
      </trkpt>
      <trkpt lat="42.64175" lon="0.1751">
        <ele>1167.59</ele>
        <time>2018-08-07T10:48:59Z</time>
      </trkpt>
      <trkpt lat="42.64169" lon="0.17539">
        <ele>1167.64</ele>
        <time>2018-08-07T10:49:00Z</time>
      </trkpt>
      <trkpt lat="42.64161" lon="0.17565">
        <ele>1166.95</ele>
        <time>2018-08-07T10:49:01Z</time>
      </trkpt>
      <trkpt lat="42.6415" lon="0.17591">
        <ele>1167.45</ele>
        <time>2018-08-07T10:49:02Z</time>
      </trkpt>
      <trkpt lat="42.64138" lon="0.17617">
        <ele>1167.59</ele>
        <time>2018-08-07T10:49:03Z</time>
      </trkpt>
      <trkpt lat="42.64127" lon="0.17643">
        <ele>1167.64</ele>
        <time>2018-08-07T10:49:04Z</time>
      </trkpt>
      <trkpt lat="42.64116" lon="0.17672">
        <ele>1167.65</ele>
        <time>2018-08-07T10:49:05Z</time>
      </trkpt>
      <trkpt lat="42.64103" lon="0.177">
        <ele>1168.36</ele>
        <time>2018-08-07T10:49:06Z</time>
      </trkpt>
      <trkpt lat="42.6409" lon="0.17727">
        <ele>1168.57</ele>
        <time>2018-08-07T10:49:07Z</time>
      </trkpt>
      <trkpt lat="42.64077" lon="0.17754">
        <ele>1167.93</ele>
        <time>2018-08-07T10:49:08Z</time>
      </trkpt>
      <trkpt lat="42.64065" lon="0.17783">
        <ele>1167.74</ele>
        <time>2018-08-07T10:49:09Z</time>
      </trkpt>
      <trkpt lat="42.64054" lon="0.17813">
        <ele>1168.38</ele>
        <time>2018-08-07T10:49:10Z</time>
      </trkpt>
      <trkpt lat="42.64042" lon="0.17841">
        <ele>1168.58</ele>
        <time>2018-08-07T10:49:11Z</time>
      </trkpt>
      <trkpt lat="42.64029" lon="0.17868">
        <ele>1168.63</ele>
        <time>2018-08-07T10:49:12Z</time>
      </trkpt>
      <trkpt lat="42.64018" lon="0.17896">
        <ele>1168.65</ele>
        <time>2018-08-07T10:49:13Z</time>
      </trkpt>
      <trkpt lat="42.64009" lon="0.17925">
        <ele>1167.26</ele>
        <time>2018-08-07T10:49:14Z</time>
      </trkpt>
      <trkpt lat="42.63999" lon="0.17955">
        <ele>1166.84</ele>
        <time>2018-08-07T10:49:15Z</time>
      </trkpt>
      <trkpt lat="42.63989" lon="0.17983">
        <ele>1166.01</ele>
        <time>2018-08-07T10:49:16Z</time>
      </trkpt>
      <trkpt lat="42.63976" lon="0.18011">
        <ele>1165.76</ele>
        <time>2018-08-07T10:49:17Z</time>
      </trkpt>
      <trkpt lat="42.63963" lon="0.18036">
        <ele>1165.69</ele>
        <time>2018-08-07T10:49:18Z</time>
      </trkpt>
      <trkpt lat="42.63948" lon="0.18061">
        <ele>1164.97</ele>
        <time>2018-08-07T10:49:19Z</time>
      </trkpt>
      <trkpt lat="42.63934" lon="0.18086">
        <ele>1164.75</ele>
        <time>2018-08-07T10:49:20Z</time>
      </trkpt>
      <trkpt lat="42.63917" lon="0.18108">
        <ele>1163.99</ele>
        <time>2018-08-07T10:49:21Z</time>
      </trkpt>
      <trkpt lat="42.63902" lon="0.1813">
        <ele>1163.76</ele>
        <time>2018-08-07T10:49:22Z</time>
      </trkpt>
      <trkpt lat="42.6389" lon="0.18151">
        <ele>1162.99</ele>
        <time>2018-08-07T10:49:23Z</time>
      </trkpt>
      <trkpt lat="42.63876" lon="0.18172">
        <ele>1162.76</ele>
        <time>2018-08-07T10:49:24Z</time>
      </trkpt>
      <trkpt lat="42.63859" lon="0.1819">
        <ele>1162.69</ele>
        <time>2018-08-07T10:49:25Z</time>
      </trkpt>
      <trkpt lat="42.63842" lon="0.18207">
        <ele>1162.67</ele>
        <time>2018-08-07T10:49:26Z</time>
      </trkpt>
      <trkpt lat="42.63825" lon="0.18224">
        <ele>1161.96</ele>
        <time>2018-08-07T10:49:27Z</time>
      </trkpt>
      <trkpt lat="42.6381" lon="0.18243">
        <ele>1161.75</ele>
        <time>2018-08-07T10:49:28Z</time>
      </trkpt>
      <trkpt lat="42.63797" lon="0.18264">
        <ele>1160.99</ele>
        <time>2018-08-07T10:49:29Z</time>
      </trkpt>
      <trkpt lat="42.63786" lon="0.18288">
        <ele>1160.76</ele>
        <time>2018-08-07T10:49:30Z</time>
      </trkpt>
      <trkpt lat="42.63776" lon="0.18316">
        <ele>1159.99</ele>
        <time>2018-08-07T10:49:31Z</time>
      </trkpt>
      <trkpt lat="42.63767" lon="0.18345">
        <ele>1159.76</ele>
        <time>2018-08-07T10:49:32Z</time>
      </trkpt>
      <trkpt lat="42.63757" lon="0.18374">
        <ele>1159.69</ele>
        <time>2018-08-07T10:49:33Z</time>
      </trkpt>
      <trkpt lat="42.63746" lon="0.18403">
        <ele>1158.97</ele>
        <time>2018-08-07T10:49:34Z</time>
      </trkpt>
      <trkpt lat="42.63736" lon="0.18432">
        <ele>1158.75</ele>
        <time>2018-08-07T10:49:35Z</time>
      </trkpt>
      <trkpt lat="42.63727" lon="0.18462">
        <ele>1158.69</ele>
        <time>2018-08-07T10:49:36Z</time>
      </trkpt>
      <trkpt lat="42.63718" lon="0.18493">
        <ele>1159.37</ele>
        <time>2018-08-07T10:49:37Z</time>
      </trkpt>
      <trkpt lat="42.63708" lon="0.18522">
        <ele>1160.27</ele>
        <time>2018-08-07T10:49:38Z</time>
      </trkpt>
      <trkpt lat="42.63698" lon="0.1855">
        <ele>1161.24</ele>
        <time>2018-08-07T10:49:39Z</time>
      </trkpt>
      <trkpt lat="42.63688" lon="0.18579">
        <ele>1161.53</ele>
        <time>2018-08-07T10:49:40Z</time>
      </trkpt>
      <trkpt lat="42.63678" lon="0.18608">
        <ele>1161.62</ele>
        <time>2018-08-07T10:49:41Z</time>
      </trkpt>
      <trkpt lat="42.63667" lon="0.18636">
        <ele>1161.65</ele>
        <time>2018-08-07T10:49:42Z</time>
      </trkpt>
      <trkpt lat="42.63653" lon="0.18664">
        <ele>1162.35</ele>
        <time>2018-08-07T10:49:43Z</time>
      </trkpt>
      <trkpt lat="42.63639" lon="0.18692">
        <ele>1161.87</ele>
        <time>2018-08-07T10:49:44Z</time>
      </trkpt>
      <trkpt lat="42.63621" lon="0.18714">
        <ele>1161.02</ele>
        <time>2018-08-07T10:49:45Z</time>
      </trkpt>
      <trkpt lat="42.63605" lon="0.18739">
        <ele>1160.77</ele>
        <time>2018-08-07T10:49:46Z</time>
      </trkpt>
      <trkpt lat="42.63589" lon="0.18763">
        <ele>1160.69</ele>
        <time>2018-08-07T10:49:47Z</time>
      </trkpt>
      <trkpt lat="42.63573" lon="0.18784">
        <ele>1160.67</ele>
        <time>2018-08-07T10:49:48Z</time>
      </trkpt>
      <trkpt lat="42.63558" lon="0.18805">
        <ele>1159.96</ele>
        <time>2018-08-07T10:49:49Z</time>
      </trkpt>
      <trkpt lat="42.63545" lon="0.18825">
        <ele>1160.45</ele>
        <time>2018-08-07T10:49:50Z</time>
      </trkpt>
      <trkpt lat="42.63533" lon="0.18846">
        <ele>1159.9</ele>
        <time>2018-08-07T10:49:51Z</time>
      </trkpt>
      <trkpt lat="42.63523" lon="0.18868">
        <ele>1160.43</ele>
        <time>2018-08-07T10:49:52Z</time>
      </trkpt>
      <trkpt lat="42.63512" lon="0.18889">
        <ele>1160.59</ele>
        <time>2018-08-07T10:49:53Z</time>
      </trkpt>
      <trkpt lat="42.63509" lon="0.18917">
        <ele>1159.94</ele>
        <time>2018-08-07T10:49:54Z</time>
      </trkpt>
      <trkpt lat="42.63506" lon="0.18943">
        <ele>1159.74</ele>
        <time>2018-08-07T10:49:55Z</time>
      </trkpt>
      <trkpt lat="42.63505" lon="0.18971">
        <ele>1158.98</ele>
        <time>2018-08-07T10:49:56Z</time>
      </trkpt>
      <trkpt lat="42.63505" lon="0.19">
        <ele>1158.76</ele>
        <time>2018-08-07T10:49:57Z</time>
      </trkpt>
      <trkpt lat="42.63504" lon="0.19027">
        <ele>1158.69</ele>
        <time>2018-08-07T10:49:58Z</time>
      </trkpt>
      <trkpt lat="42.63503" lon="0.19057">
        <ele>1159.37</ele>
        <time>2018-08-07T10:49:59Z</time>
      </trkpt>
      <trkpt lat="42.63502" lon="0.19089">
        <ele>1159.57</ele>
        <time>2018-08-07T10:50:00Z</time>
      </trkpt>
      <trkpt lat="42.63501" lon="0.19122">
        <ele>1159.63</ele>
        <time>2018-08-07T10:50:01Z</time>
      </trkpt>
      <trkpt lat="42.635" lon="0.19155">
        <ele>1158.95</ele>
        <time>2018-08-07T10:50:02Z</time>
      </trkpt>
      <trkpt lat="42.63501" lon="0.19189">
        <ele>1158.75</ele>
        <time>2018-08-07T10:50:03Z</time>
      </trkpt>
      <trkpt lat="42.63502" lon="0.19224">
        <ele>1157.98</ele>
        <time>2018-08-07T10:50:04Z</time>
      </trkpt>
      <trkpt lat="42.63503" lon="0.19257">
        <ele>1157.06</ele>
        <time>2018-08-07T10:50:05Z</time>
      </trkpt>
      <trkpt lat="42.63504" lon="0.19288">
        <ele>1157.48</ele>
        <time>2018-08-07T10:50:06Z</time>
      </trkpt>
      <trkpt lat="42.63507" lon="0.19318">
        <ele>1156.9</ele>
        <time>2018-08-07T10:50:07Z</time>
      </trkpt>
      <trkpt lat="42.63509" lon="0.19347">
        <ele>1156.73</ele>
        <time>2018-08-07T10:50:08Z</time>
      </trkpt>
      <trkpt lat="42.6351" lon="0.19376">
        <ele>1155.98</ele>
        <time>2018-08-07T10:50:09Z</time>
      </trkpt>
      <trkpt lat="42.6351" lon="0.19403">
        <ele>1155.75</ele>
        <time>2018-08-07T10:50:10Z</time>
      </trkpt>
      <trkpt lat="42.63507" lon="0.19429">
        <ele>1154.99</ele>
        <time>2018-08-07T10:50:11Z</time>
      </trkpt>
      <trkpt lat="42.63499" lon="0.19456">
        <ele>1154.76</ele>
        <time>2018-08-07T10:50:12Z</time>
      </trkpt>
      <trkpt lat="42.63493" lon="0.19484">
        <ele>1154.69</ele>
        <time>2018-08-07T10:50:13Z</time>
      </trkpt>
      <trkpt lat="42.6349" lon="0.19515">
        <ele>1153.97</ele>
        <time>2018-08-07T10:50:14Z</time>
      </trkpt>
      <trkpt lat="42.63489" lon="0.19546">
        <ele>1154.45</ele>
        <time>2018-08-07T10:50:15Z</time>
      </trkpt>
      <trkpt lat="42.63492" lon="0.19577">
        <ele>1154.6</ele>
        <time>2018-08-07T10:50:16Z</time>
      </trkpt>
      <trkpt lat="42.63494" lon="0.19607">
        <ele>1154.64</ele>
        <time>2018-08-07T10:50:17Z</time>
      </trkpt>
      <trkpt lat="42.63496" lon="0.19635">
        <ele>1154.65</ele>
        <time>2018-08-07T10:50:18Z</time>
      </trkpt>
      <trkpt lat="42.63498" lon="0.19662">
        <ele>1154.66</ele>
        <time>2018-08-07T10:50:19Z</time>
      </trkpt>
      <trkpt lat="42.63502" lon="0.19688">
        <ele>1153.96</ele>
        <time>2018-08-07T10:50:20Z</time>
      </trkpt>
      <trkpt lat="42.6351" lon="0.19713">
        <ele>1153.75</ele>
        <time>2018-08-07T10:50:21Z</time>
      </trkpt>
      <trkpt lat="42.6352" lon="0.19736">
        <ele>1153.68</ele>
        <time>2018-08-07T10:50:22Z</time>
      </trkpt>
      <trkpt lat="42.6353" lon="0.19759">
        <ele>1154.37</ele>
        <time>2018-08-07T10:50:23Z</time>
      </trkpt>
      <trkpt lat="42.63541" lon="0.19781">
        <ele>1153.87</ele>
        <time>2018-08-07T10:50:24Z</time>
      </trkpt>
      <trkpt lat="42.63548" lon="0.19805">
        <ele>1153.72</ele>
        <time>2018-08-07T10:50:25Z</time>
      </trkpt>
      <trkpt lat="42.63551" lon="0.1983">
        <ele>1153.68</ele>
        <time>2018-08-07T10:50:26Z</time>
      </trkpt>
      <trkpt lat="42.63549" lon="0.19879">
        <ele>1153.66</ele>
        <time>2018-08-07T10:50:28Z</time>
      </trkpt>
      <trkpt lat="42.63541" lon="0.19926">
        <ele>1153.66</ele>
        <time>2018-08-07T10:50:30Z</time>
      </trkpt>
      <trkpt lat="42.63532" lon="0.19975">
        <ele>1153.66</ele>
        <time>2018-08-07T10:50:32Z</time>
      </trkpt>
      <trkpt lat="42.63527" lon="0.19999">
        <ele>1155.06</ele>
        <time>2018-08-07T10:50:33Z</time>
      </trkpt>
      <trkpt lat="42.63522" lon="0.20024">
        <ele>1155.48</ele>
        <time>2018-08-07T10:50:34Z</time>
      </trkpt>
      <trkpt lat="42.63516" lon="0.20069">
        <ele>1155.64</ele>
        <time>2018-08-07T10:50:36Z</time>
      </trkpt>
      <trkpt lat="42.63522" lon="0.20112">
        <ele>1155.66</ele>
        <time>2018-08-07T10:50:38Z</time>
      </trkpt>
      <trkpt lat="42.63534" lon="0.20146">
        <ele>1155.66</ele>
        <time>2018-08-07T10:50:40Z</time>
      </trkpt>
      <trkpt lat="42.63558" lon="0.2017">
        <ele>1156.36</ele>
        <time>2018-08-07T10:50:42Z</time>
      </trkpt>
      <trkpt lat="42.63588" lon="0.2019">
        <ele>1157.12</ele>
        <time>2018-08-07T10:50:44Z</time>
      </trkpt>
      <trkpt lat="42.6361" lon="0.20223">
        <ele>1159.22</ele>
        <time>2018-08-07T10:50:46Z</time>
      </trkpt>
      <trkpt lat="42.63619" lon="0.20265">
        <ele>1160.32</ele>
        <time>2018-08-07T10:50:48Z</time>
      </trkpt>
      <trkpt lat="42.63618" lon="0.20313">
        <ele>1161.33</ele>
        <time>2018-08-07T10:50:50Z</time>
      </trkpt>
      <trkpt lat="42.63616" lon="0.2034">
        <ele>1162.96</ele>
        <time>2018-08-07T10:50:51Z</time>
      </trkpt>
      <trkpt lat="42.63613" lon="0.20367">
        <ele>1164.15</ele>
        <time>2018-08-07T10:50:52Z</time>
      </trkpt>
      <trkpt lat="42.63611" lon="0.20394">
        <ele>1165.91</ele>
        <time>2018-08-07T10:50:53Z</time>
      </trkpt>
      <trkpt lat="42.63608" lon="0.20418">
        <ele>1167.83</ele>
        <time>2018-08-07T10:50:54Z</time>
      </trkpt>
      <trkpt lat="42.63607" lon="0.20464">
        <ele>1171.1</ele>
        <time>2018-08-07T10:50:56Z</time>
      </trkpt>
      <trkpt lat="42.63609" lon="0.20511">
        <ele>1171.61</ele>
        <time>2018-08-07T10:50:58Z</time>
      </trkpt>
      <trkpt lat="42.6361" lon="0.20536">
        <ele>1170.94</ele>
        <time>2018-08-07T10:50:59Z</time>
      </trkpt>
      <trkpt lat="42.63612" lon="0.20562">
        <ele>1170.04</ele>
        <time>2018-08-07T10:51:00Z</time>
      </trkpt>
      <trkpt lat="42.63611" lon="0.20588">
        <ele>1169.77</ele>
        <time>2018-08-07T10:51:01Z</time>
      </trkpt>
      <trkpt lat="42.6361" lon="0.20614">
        <ele>1168.99</ele>
        <time>2018-08-07T10:51:02Z</time>
      </trkpt>
      <trkpt lat="42.63607" lon="0.20639">
        <ele>1168.76</ele>
        <time>2018-08-07T10:51:03Z</time>
      </trkpt>
      <trkpt lat="42.63604" lon="0.2068">
        <ele>1167.06</ele>
        <time>2018-08-07T10:51:05Z</time>
      </trkpt>
      <trkpt lat="42.6361" lon="0.20713">
        <ele>1166.48</ele>
        <time>2018-08-07T10:51:07Z</time>
      </trkpt>
      <trkpt lat="42.6363" lon="0.20749">
        <ele>1163.63</ele>
        <time>2018-08-07T10:51:09Z</time>
      </trkpt>
      <trkpt lat="42.63639" lon="0.20771">
        <ele>1161.55</ele>
        <time>2018-08-07T10:51:10Z</time>
      </trkpt>
      <trkpt lat="42.63647" lon="0.20793">
        <ele>1160.93</ele>
        <time>2018-08-07T10:51:11Z</time>
      </trkpt>
      <trkpt lat="42.63654" lon="0.20818">
        <ele>1158.64</ele>
        <time>2018-08-07T10:51:12Z</time>
      </trkpt>
      <trkpt lat="42.63658" lon="0.20842">
        <ele>1155.15</ele>
        <time>2018-08-07T10:51:13Z</time>
      </trkpt>
      <trkpt lat="42.63659" lon="0.20869">
        <ele>1152.71</ele>
        <time>2018-08-07T10:51:14Z</time>
      </trkpt>
      <trkpt lat="42.63661" lon="0.20896">
        <ele>1150.57</ele>
        <time>2018-08-07T10:51:15Z</time>
      </trkpt>
      <trkpt lat="42.63661" lon="0.20923">
        <ele>1149.23</ele>
        <time>2018-08-07T10:51:16Z</time>
      </trkpt>
      <trkpt lat="42.63661" lon="0.20951">
        <ele>1146.73</ele>
        <time>2018-08-07T10:51:17Z</time>
      </trkpt>
      <trkpt lat="42.63661" lon="0.20979">
        <ele>1144.58</ele>
        <time>2018-08-07T10:51:18Z</time>
      </trkpt>
      <trkpt lat="42.63662" lon="0.21006">
        <ele>1143.23</ele>
        <time>2018-08-07T10:51:19Z</time>
      </trkpt>
      <trkpt lat="42.63663" lon="0.21034">
        <ele>1141.43</ele>
        <time>2018-08-07T10:51:20Z</time>
      </trkpt>
      <trkpt lat="42.63664" lon="0.21059">
        <ele>1140.19</ele>
        <time>2018-08-07T10:51:21Z</time>
      </trkpt>
      <trkpt lat="42.63663" lon="0.21085">
        <ele>1138.42</ele>
        <time>2018-08-07T10:51:22Z</time>
      </trkpt>
      <trkpt lat="42.63658" lon="0.21109">
        <ele>1137.19</ele>
        <time>2018-08-07T10:51:23Z</time>
      </trkpt>
      <trkpt lat="42.63653" lon="0.21133">
        <ele>1136.12</ele>
        <time>2018-08-07T10:51:24Z</time>
      </trkpt>
      <trkpt lat="42.63647" lon="0.21157">
        <ele>1134.4</ele>
        <time>2018-08-07T10:51:25Z</time>
      </trkpt>
      <trkpt lat="42.63637" lon="0.21204">
        <ele>1130.29</ele>
        <time>2018-08-07T10:51:27Z</time>
      </trkpt>
      <trkpt lat="42.6363" lon="0.2125">
        <ele>1126.5</ele>
        <time>2018-08-07T10:51:29Z</time>
      </trkpt>
      <trkpt lat="42.63621" lon="0.21293">
        <ele>1124.12</ele>
        <time>2018-08-07T10:51:31Z</time>
      </trkpt>
      <trkpt lat="42.63613" lon="0.21328">
        <ele>1122.09</ele>
        <time>2018-08-07T10:51:33Z</time>
      </trkpt>
      <trkpt lat="42.63617" lon="0.21353">
        <ele>1120.09</ele>
        <time>2018-08-07T10:51:35Z</time>
      </trkpt>
      <trkpt lat="42.63644" lon="0.21364">
        <ele>1117.02</ele>
        <time>2018-08-07T10:51:38Z</time>
      </trkpt>
      <trkpt lat="42.63655" lon="0.21343">
        <ele>1116.77</ele>
        <time>2018-08-07T10:51:39Z</time>
      </trkpt>
      <trkpt lat="42.63681" lon="0.21329">
        <ele>1115.06</ele>
        <time>2018-08-07T10:51:41Z</time>
      </trkpt>
      <trkpt lat="42.63708" lon="0.21329">
        <ele>1113.78</ele>
        <time>2018-08-07T10:51:43Z</time>
      </trkpt>
      <trkpt lat="42.63727" lon="0.21342">
        <ele>1113</ele>
        <time>2018-08-07T10:51:44Z</time>
      </trkpt>
      <trkpt lat="42.63746" lon="0.21347">
        <ele>1112.06</ele>
        <time>2018-08-07T10:51:45Z</time>
      </trkpt>
      <trkpt lat="42.63765" lon="0.21352">
        <ele>1111.08</ele>
        <time>2018-08-07T10:51:46Z</time>
      </trkpt>
      <trkpt lat="42.63785" lon="0.21356">
        <ele>1110.08</ele>
        <time>2018-08-07T10:51:47Z</time>
      </trkpt>
      <trkpt lat="42.63805" lon="0.21356">
        <ele>1109.09</ele>
        <time>2018-08-07T10:51:48Z</time>
      </trkpt>
      <trkpt lat="42.63826" lon="0.21356">
        <ele>1108.79</ele>
        <time>2018-08-07T10:51:49Z</time>
      </trkpt>
      <trkpt lat="42.63847" lon="0.21353">
        <ele>1108</ele>
        <time>2018-08-07T10:51:50Z</time>
      </trkpt>
      <trkpt lat="42.63868" lon="0.21352">
        <ele>1107.06</ele>
        <time>2018-08-07T10:51:51Z</time>
      </trkpt>
      <trkpt lat="42.63889" lon="0.21354">
        <ele>1106.08</ele>
        <time>2018-08-07T10:51:52Z</time>
      </trkpt>
      <trkpt lat="42.6391" lon="0.21356">
        <ele>1105.78</ele>
        <time>2018-08-07T10:51:53Z</time>
      </trkpt>
      <trkpt lat="42.6393" lon="0.21361">
        <ele>1105</ele>
        <time>2018-08-07T10:51:54Z</time>
      </trkpt>
      <trkpt lat="42.6395" lon="0.21367">
        <ele>1104.76</ele>
        <time>2018-08-07T10:51:55Z</time>
      </trkpt>
      <trkpt lat="42.63969" lon="0.21372">
        <ele>1103.99</ele>
        <time>2018-08-07T10:51:56Z</time>
      </trkpt>
      <trkpt lat="42.63987" lon="0.21377">
        <ele>1103.76</ele>
        <time>2018-08-07T10:51:57Z</time>
      </trkpt>
      <trkpt lat="42.6402" lon="0.21382">
        <ele>1103.67</ele>
        <time>2018-08-07T10:51:59Z</time>
      </trkpt>
      <trkpt lat="42.6405" lon="0.21383">
        <ele>1103.66</ele>
        <time>2018-08-07T10:52:01Z</time>
      </trkpt>
      <trkpt lat="42.64069" lon="0.21392">
        <ele>1103.72</ele>
        <time>2018-08-07T10:52:04Z</time>
      </trkpt>
      <trkpt lat="42.64065" lon="0.2142">
        <ele>1102.26</ele>
        <time>2018-08-07T10:52:06Z</time>
      </trkpt>
      <trkpt lat="42.64038" lon="0.21417">
        <ele>1099.74</ele>
        <time>2018-08-07T10:52:07Z</time>
      </trkpt>
      <trkpt lat="42.6401" lon="0.21424">
        <ele>1095.54</ele>
        <time>2018-08-07T10:52:09Z</time>
      </trkpt>
      <trkpt lat="42.63991" lon="0.21429">
        <ele>1094.92</ele>
        <time>2018-08-07T10:52:10Z</time>
      </trkpt>
      <trkpt lat="42.6397" lon="0.21431">
        <ele>1093.34</ele>
        <time>2018-08-07T10:52:11Z</time>
      </trkpt>
      <trkpt lat="42.63951" lon="0.21431">
        <ele>1091.46</ele>
        <time>2018-08-07T10:52:12Z</time>
      </trkpt>
      <trkpt lat="42.63932" lon="0.21431">
        <ele>1088.8</ele>
        <time>2018-08-07T10:52:13Z</time>
      </trkpt>
      <trkpt lat="42.63912" lon="0.21432">
        <ele>1086.6</ele>
        <time>2018-08-07T10:52:14Z</time>
      </trkpt>
      <trkpt lat="42.63893" lon="0.21431">
        <ele>1084.54</ele>
        <time>2018-08-07T10:52:15Z</time>
      </trkpt>
      <trkpt lat="42.63875" lon="0.2143">
        <ele>1083.22</ele>
        <time>2018-08-07T10:52:16Z</time>
      </trkpt>
      <trkpt lat="42.6384" lon="0.21435">
        <ele>1077.67</ele>
        <time>2018-08-07T10:52:18Z</time>
      </trkpt>
      <trkpt lat="42.63805" lon="0.21446">
        <ele>1071.71</ele>
        <time>2018-08-07T10:52:20Z</time>
      </trkpt>
      <trkpt lat="42.63788" lon="0.21455">
        <ele>1068.87</ele>
        <time>2018-08-07T10:52:21Z</time>
      </trkpt>
      <trkpt lat="42.63771" lon="0.21465">
        <ele>1066.62</ele>
        <time>2018-08-07T10:52:22Z</time>
      </trkpt>
      <trkpt lat="42.63754" lon="0.21474">
        <ele>1064.55</ele>
        <time>2018-08-07T10:52:23Z</time>
      </trkpt>
      <trkpt lat="42.63724" lon="0.21488">
        <ele>1062.34</ele>
        <time>2018-08-07T10:52:25Z</time>
      </trkpt>
      <trkpt lat="42.63689" lon="0.21485">
        <ele>1060.81</ele>
        <time>2018-08-07T10:52:27Z</time>
      </trkpt>
      <trkpt lat="42.63657" lon="0.21492">
        <ele>1059.97</ele>
        <time>2018-08-07T10:52:29Z</time>
      </trkpt>
      <trkpt lat="42.63631" lon="0.2151">
        <ele>1057.38</ele>
        <time>2018-08-07T10:52:31Z</time>
      </trkpt>
      <trkpt lat="42.63612" lon="0.21538">
        <ele>1053.5</ele>
        <time>2018-08-07T10:52:33Z</time>
      </trkpt>
      <trkpt lat="42.63601" lon="0.2157">
        <ele>1052.03</ele>
        <time>2018-08-07T10:52:35Z</time>
      </trkpt>
      <trkpt lat="42.63593" lon="0.21604">
        <ele>1048.47</ele>
        <time>2018-08-07T10:52:37Z</time>
      </trkpt>
      <trkpt lat="42.63584" lon="0.21635">
        <ele>1046.33</ele>
        <time>2018-08-07T10:52:39Z</time>
      </trkpt>
      <trkpt lat="42.63575" lon="0.21666">
        <ele>1044.11</ele>
        <time>2018-08-07T10:52:41Z</time>
      </trkpt>
      <trkpt lat="42.63563" lon="0.21693">
        <ele>1043.7</ele>
        <time>2018-08-07T10:52:43Z</time>
      </trkpt>
      <trkpt lat="42.6355" lon="0.21717">
        <ele>1043.66</ele>
        <time>2018-08-07T10:52:45Z</time>
      </trkpt>
      <trkpt lat="42.63534" lon="0.21736">
        <ele>1042.75</ele>
        <time>2018-08-07T10:52:47Z</time>
      </trkpt>
      <trkpt lat="42.6352" lon="0.21756">
        <ele>1041.97</ele>
        <time>2018-08-07T10:52:49Z</time>
      </trkpt>
      <trkpt lat="42.63507" lon="0.21774">
        <ele>1039.87</ele>
        <time>2018-08-07T10:52:51Z</time>
      </trkpt>
      <trkpt lat="42.63494" lon="0.21794">
        <ele>1036.59</ele>
        <time>2018-08-07T10:52:54Z</time>
      </trkpt>
      <trkpt lat="42.63482" lon="0.21815">
        <ele>1032.79</ele>
        <time>2018-08-07T10:52:59Z</time>
      </trkpt>
      <trkpt lat="42.63481" lon="0.21842">
        <ele>1037.38</ele>
        <time>2018-08-07T10:54:30Z</time>
      </trkpt>
      <trkpt lat="42.63465" lon="0.21854">
        <ele>1035.66</ele>
        <time>2018-08-07T10:54:36Z</time>
      </trkpt>
      <trkpt lat="42.63483" lon="0.21854">
        <ele>1026.74</ele>
        <time>2018-08-07T10:58:10Z</time>
      </trkpt>
      <trkpt lat="42.63495" lon="0.21835">
        <ele>1027.74</ele>
        <time>2018-08-07T10:58:30Z</time>
      </trkpt>
      <trkpt lat="42.635" lon="0.21811">
        <ele>1030.66</ele>
        <time>2018-08-07T11:57:35Z</time>
      </trkpt>
      <trkpt lat="42.63488" lon="0.2183">
        <ele>1036.63</ele>
        <time>2018-08-07T12:05:47Z</time>
      </trkpt>
      <trkpt lat="42.63472" lon="0.21842">
        <ele>1034</ele>
        <time>2018-08-07T12:06:08Z</time>
      </trkpt>
      <trkpt lat="42.6349" lon="0.21837">
        <ele>1041.37</ele>
        <time>2018-08-07T12:10:50Z</time>
      </trkpt>
      <trkpt lat="42.63497" lon="0.21814">
        <ele>1039.07</ele>
        <time>2018-08-07T12:10:53Z</time>
      </trkpt>
      <trkpt lat="42.63509" lon="0.21789">
        <ele>1036.85</ele>
        <time>2018-08-07T12:10:56Z</time>
      </trkpt>
      <trkpt lat="42.63526" lon="0.21764">
        <ele>1034.99</ele>
        <time>2018-08-07T12:10:59Z</time>
      </trkpt>
      <trkpt lat="42.6354" lon="0.21746">
        <ele>1033.78</ele>
        <time>2018-08-07T12:11:01Z</time>
      </trkpt>
      <trkpt lat="42.63556" lon="0.21726">
        <ele>1034.58</ele>
        <time>2018-08-07T12:11:03Z</time>
      </trkpt>
      <trkpt lat="42.63574" lon="0.21704">
        <ele>1034.86</ele>
        <time>2018-08-07T12:11:05Z</time>
      </trkpt>
      <trkpt lat="42.63593" lon="0.2168">
        <ele>1033.98</ele>
        <time>2018-08-07T12:11:07Z</time>
      </trkpt>
      <trkpt lat="42.6361" lon="0.21651">
        <ele>1034.39</ele>
        <time>2018-08-07T12:11:09Z</time>
      </trkpt>
      <trkpt lat="42.63623" lon="0.21623">
        <ele>1033.02</ele>
        <time>2018-08-07T12:11:11Z</time>
      </trkpt>
      <trkpt lat="42.6364" lon="0.21598">
        <ele>1032.69</ele>
        <time>2018-08-07T12:11:13Z</time>
      </trkpt>
      <trkpt lat="42.63657" lon="0.21575">
        <ele>1032.66</ele>
        <time>2018-08-07T12:11:15Z</time>
      </trkpt>
      <trkpt lat="42.63676" lon="0.21555">
        <ele>1031.96</ele>
        <time>2018-08-07T12:11:17Z</time>
      </trkpt>
      <trkpt lat="42.63699" lon="0.21539">
        <ele>1031.69</ele>
        <time>2018-08-07T12:11:19Z</time>
      </trkpt>
      <trkpt lat="42.63723" lon="0.21526">
        <ele>1031.66</ele>
        <time>2018-08-07T12:11:21Z</time>
      </trkpt>
      <trkpt lat="42.6375" lon="0.21514">
        <ele>1032.57</ele>
        <time>2018-08-07T12:11:23Z</time>
      </trkpt>
      <trkpt lat="42.63779" lon="0.21501">
        <ele>1033.56</ele>
        <time>2018-08-07T12:11:25Z</time>
      </trkpt>
      <trkpt lat="42.63809" lon="0.21487">
        <ele>1033.65</ele>
        <time>2018-08-07T12:11:27Z</time>
      </trkpt>
      <trkpt lat="42.63835" lon="0.21478">
        <ele>1034.36</ele>
        <time>2018-08-07T12:11:29Z</time>
      </trkpt>
      <trkpt lat="42.63859" lon="0.21484">
        <ele>1035.33</ele>
        <time>2018-08-07T12:11:31Z</time>
      </trkpt>
      <trkpt lat="42.63879" lon="0.21499">
        <ele>1036.54</ele>
        <time>2018-08-07T12:11:33Z</time>
      </trkpt>
      <trkpt lat="42.63893" lon="0.21516">
        <ele>1038.62</ele>
        <time>2018-08-07T12:11:37Z</time>
      </trkpt>
      <trkpt lat="42.63917" lon="0.21515">
        <ele>1037.96</ele>
        <time>2018-08-07T12:11:45Z</time>
      </trkpt>
      <trkpt lat="42.63936" lon="0.21505">
        <ele>1039.3</ele>
        <time>2018-08-07T12:11:47Z</time>
      </trkpt>
      <trkpt lat="42.6396" lon="0.21493">
        <ele>1040.33</ele>
        <time>2018-08-07T12:11:49Z</time>
      </trkpt>
      <trkpt lat="42.63988" lon="0.2148">
        <ele>1041.54</ele>
        <time>2018-08-07T12:11:51Z</time>
      </trkpt>
      <trkpt lat="42.6418" lon="0.21455">
        <ele>1043.05</ele>
        <time>2018-08-07T12:12:01Z</time>
      </trkpt>
      <trkpt lat="42.64199" lon="0.21441">
        <ele>1043.47</ele>
        <time>2018-08-07T12:12:02Z</time>
      </trkpt>
      <trkpt lat="42.64233" lon="0.21436">
        <ele>1042.24</ele>
        <time>2018-08-07T12:12:04Z</time>
      </trkpt>
      <trkpt lat="42.64265" lon="0.21418">
        <ele>1042.62</ele>
        <time>2018-08-07T12:12:06Z</time>
      </trkpt>
      <trkpt lat="42.64278" lon="0.21401">
        <ele>1043.35</ele>
        <time>2018-08-07T12:12:07Z</time>
      </trkpt>
      <trkpt lat="42.64282" lon="0.21372">
        <ele>1044.26</ele>
        <time>2018-08-07T12:12:08Z</time>
      </trkpt>
      <trkpt lat="42.6429" lon="0.21346">
        <ele>1044.54</ele>
        <time>2018-08-07T12:12:09Z</time>
      </trkpt>
      <trkpt lat="42.64293" lon="0.21319">
        <ele>1045.32</ele>
        <time>2018-08-07T12:12:10Z</time>
      </trkpt>
      <trkpt lat="42.64301" lon="0.21295">
        <ele>1046.26</ele>
        <time>2018-08-07T12:12:11Z</time>
      </trkpt>
      <trkpt lat="42.64308" lon="0.21271">
        <ele>1047.24</ele>
        <time>2018-08-07T12:12:12Z</time>
      </trkpt>
      <trkpt lat="42.64316" lon="0.21247">
        <ele>1047.53</ele>
        <time>2018-08-07T12:12:13Z</time>
      </trkpt>
      <trkpt lat="42.64339" lon="0.2121">
        <ele>1048.56</ele>
        <time>2018-08-07T12:12:15Z</time>
      </trkpt>
      <trkpt lat="42.64377" lon="0.21197">
        <ele>1047.04</ele>
        <time>2018-08-07T12:12:17Z</time>
      </trkpt>
      <trkpt lat="42.64407" lon="0.21209">
        <ele>1046.77</ele>
        <time>2018-08-07T12:12:18Z</time>
      </trkpt>
      <trkpt lat="42.64429" lon="0.21211">
        <ele>1047.39</ele>
        <time>2018-08-07T12:12:19Z</time>
      </trkpt>
      <trkpt lat="42.64453" lon="0.21212">
        <ele>1046.18</ele>
        <time>2018-08-07T12:12:20Z</time>
      </trkpt>
      <trkpt lat="42.64475" lon="0.21214">
        <ele>1045.11</ele>
        <time>2018-08-07T12:12:21Z</time>
      </trkpt>
      <trkpt lat="42.64505" lon="0.21213">
        <ele>1044.79</ele>
        <time>2018-08-07T12:12:22Z</time>
      </trkpt>
      <trkpt lat="42.64532" lon="0.21209">
        <ele>1044.7</ele>
        <time>2018-08-07T12:12:23Z</time>
      </trkpt>
      <trkpt lat="42.64555" lon="0.21194">
        <ele>1048.17</ele>
        <time>2018-08-07T12:12:24Z</time>
      </trkpt>
      <trkpt lat="42.64581" lon="0.21184">
        <ele>1050.61</ele>
        <time>2018-08-07T12:12:25Z</time>
      </trkpt>
      <trkpt lat="42.64605" lon="0.21167">
        <ele>1052.04</ele>
        <time>2018-08-07T12:12:26Z</time>
      </trkpt>
      <trkpt lat="42.64627" lon="0.2115">
        <ele>1053.87</ele>
        <time>2018-08-07T12:12:27Z</time>
      </trkpt>
      <trkpt lat="42.64648" lon="0.21132">
        <ele>1057.22</ele>
        <time>2018-08-07T12:12:28Z</time>
      </trkpt>
      <trkpt lat="42.64668" lon="0.21111">
        <ele>1058.93</ele>
        <time>2018-08-07T12:12:29Z</time>
      </trkpt>
      <trkpt lat="42.64686" lon="0.21089">
        <ele>1060.84</ele>
        <time>2018-08-07T12:12:30Z</time>
      </trkpt>
      <trkpt lat="42.64705" lon="0.21067">
        <ele>1062.11</ele>
        <time>2018-08-07T12:12:31Z</time>
      </trkpt>
      <trkpt lat="42.64722" lon="0.21043">
        <ele>1063.19</ele>
        <time>2018-08-07T12:12:32Z</time>
      </trkpt>
      <trkpt lat="42.64738" lon="0.21021">
        <ele>1064.92</ele>
        <time>2018-08-07T12:12:33Z</time>
      </trkpt>
      <trkpt lat="42.64754" lon="0.21">
        <ele>1065.44</ele>
        <time>2018-08-07T12:12:34Z</time>
      </trkpt>
      <trkpt lat="42.6477" lon="0.2098">
        <ele>1066.29</ele>
        <time>2018-08-07T12:12:35Z</time>
      </trkpt>
      <trkpt lat="42.64788" lon="0.20962">
        <ele>1066.55</ele>
        <time>2018-08-07T12:12:36Z</time>
      </trkpt>
      <trkpt lat="42.64806" lon="0.20947">
        <ele>1066.62</ele>
        <time>2018-08-07T12:12:37Z</time>
      </trkpt>
      <trkpt lat="42.64825" lon="0.20936">
        <ele>1066.65</ele>
        <time>2018-08-07T12:12:38Z</time>
      </trkpt>
      <trkpt lat="42.64846" lon="0.20929">
        <ele>1066.66</ele>
        <time>2018-08-07T12:12:39Z</time>
      </trkpt>
      <trkpt lat="42.64869" lon="0.20927">
        <ele>1067.36</ele>
        <time>2018-08-07T12:12:40Z</time>
      </trkpt>
      <trkpt lat="42.64895" lon="0.20937">
        <ele>1067.57</ele>
        <time>2018-08-07T12:12:41Z</time>
      </trkpt>
      <trkpt lat="42.64918" lon="0.2094">
        <ele>1068.33</ele>
        <time>2018-08-07T12:12:42Z</time>
      </trkpt>
      <trkpt lat="42.64942" lon="0.20945">
        <ele>1069.26</ele>
        <time>2018-08-07T12:12:43Z</time>
      </trkpt>
      <trkpt lat="42.64965" lon="0.20949">
        <ele>1070.24</ele>
        <time>2018-08-07T12:12:44Z</time>
      </trkpt>
      <trkpt lat="42.64989" lon="0.20947">
        <ele>1071.23</ele>
        <time>2018-08-07T12:12:45Z</time>
      </trkpt>
      <trkpt lat="42.65013" lon="0.20944">
        <ele>1071.53</ele>
        <time>2018-08-07T12:12:46Z</time>
      </trkpt>
      <trkpt lat="42.65036" lon="0.20936">
        <ele>1071.62</ele>
        <time>2018-08-07T12:12:47Z</time>
      </trkpt>
      <trkpt lat="42.6506" lon="0.20925">
        <ele>1073.75</ele>
        <time>2018-08-07T12:12:48Z</time>
      </trkpt>
      <trkpt lat="42.65083" lon="0.20913">
        <ele>1075.08</ele>
        <time>2018-08-07T12:12:49Z</time>
      </trkpt>
      <trkpt lat="42.65106" lon="0.20899">
        <ele>1076.89</ele>
        <time>2018-08-07T12:12:50Z</time>
      </trkpt>
      <trkpt lat="42.65128" lon="0.20885">
        <ele>1078.13</ele>
        <time>2018-08-07T12:12:51Z</time>
      </trkpt>
      <trkpt lat="42.6515" lon="0.20872">
        <ele>1079.2</ele>
        <time>2018-08-07T12:12:52Z</time>
      </trkpt>
      <trkpt lat="42.65171" lon="0.20859">
        <ele>1080.22</ele>
        <time>2018-08-07T12:12:53Z</time>
      </trkpt>
      <trkpt lat="42.65191" lon="0.20847">
        <ele>1081.23</ele>
        <time>2018-08-07T12:12:54Z</time>
      </trkpt>
      <trkpt lat="42.65211" lon="0.20835">
        <ele>1082.23</ele>
        <time>2018-08-07T12:12:55Z</time>
      </trkpt>
      <trkpt lat="42.65231" lon="0.20824">
        <ele>1083.93</ele>
        <time>2018-08-07T12:12:56Z</time>
      </trkpt>
      <trkpt lat="42.65251" lon="0.20816">
        <ele>1085.14</ele>
        <time>2018-08-07T12:12:57Z</time>
      </trkpt>
      <trkpt lat="42.65271" lon="0.20809">
        <ele>1086.9</ele>
        <time>2018-08-07T12:12:58Z</time>
      </trkpt>
      <trkpt lat="42.65293" lon="0.20804">
        <ele>1088.13</ele>
        <time>2018-08-07T12:12:59Z</time>
      </trkpt>
      <trkpt lat="42.65317" lon="0.208">
        <ele>1089.2</ele>
        <time>2018-08-07T12:13:00Z</time>
      </trkpt>
      <trkpt lat="42.65343" lon="0.20798">
        <ele>1089.52</ele>
        <time>2018-08-07T12:13:01Z</time>
      </trkpt>
      <trkpt lat="42.6537" lon="0.20795">
        <ele>1090.32</ele>
        <time>2018-08-07T12:13:02Z</time>
      </trkpt>
      <trkpt lat="42.65398" lon="0.20791">
        <ele>1090.56</ele>
        <time>2018-08-07T12:13:03Z</time>
      </trkpt>
      <trkpt lat="42.65425" lon="0.20791">
        <ele>1091.33</ele>
        <time>2018-08-07T12:13:04Z</time>
      </trkpt>
      <trkpt lat="42.6545" lon="0.20792">
        <ele>1092.26</ele>
        <time>2018-08-07T12:13:05Z</time>
      </trkpt>
      <trkpt lat="42.65474" lon="0.20796">
        <ele>1093.24</ele>
        <time>2018-08-07T12:13:06Z</time>
      </trkpt>
      <trkpt lat="42.65497" lon="0.20803">
        <ele>1092.83</ele>
        <time>2018-08-07T12:13:07Z</time>
      </trkpt>
      <trkpt lat="42.6552" lon="0.20813">
        <ele>1093.41</ele>
        <time>2018-08-07T12:13:08Z</time>
      </trkpt>
      <trkpt lat="42.65543" lon="0.20826">
        <ele>1094.28</ele>
        <time>2018-08-07T12:13:09Z</time>
      </trkpt>
      <trkpt lat="42.65565" lon="0.20841">
        <ele>1095.95</ele>
        <time>2018-08-07T12:13:10Z</time>
      </trkpt>
      <trkpt lat="42.65587" lon="0.20857">
        <ele>1097.14</ele>
        <time>2018-08-07T12:13:11Z</time>
      </trkpt>
      <trkpt lat="42.65608" lon="0.20872">
        <ele>1099.6</ele>
        <time>2018-08-07T12:13:12Z</time>
      </trkpt>
      <trkpt lat="42.65629" lon="0.20886">
        <ele>1101.04</ele>
        <time>2018-08-07T12:13:13Z</time>
      </trkpt>
      <trkpt lat="42.65651" lon="0.20899">
        <ele>1102.17</ele>
        <time>2018-08-07T12:13:14Z</time>
      </trkpt>
      <trkpt lat="42.65673" lon="0.2091">
        <ele>1103.21</ele>
        <time>2018-08-07T12:13:15Z</time>
      </trkpt>
      <trkpt lat="42.65696" lon="0.20918">
        <ele>1104.92</ele>
        <time>2018-08-07T12:13:16Z</time>
      </trkpt>
      <trkpt lat="42.65719" lon="0.20924">
        <ele>1106.14</ele>
        <time>2018-08-07T12:13:17Z</time>
      </trkpt>
      <trkpt lat="42.65743" lon="0.20928">
        <ele>1107.2</ele>
        <time>2018-08-07T12:13:18Z</time>
      </trkpt>
      <trkpt lat="42.65767" lon="0.2093">
        <ele>1107.52</ele>
        <time>2018-08-07T12:13:19Z</time>
      </trkpt>
      <trkpt lat="42.65791" lon="0.20929">
        <ele>1109.02</ele>
        <time>2018-08-07T12:13:20Z</time>
      </trkpt>
      <trkpt lat="42.65815" lon="0.20929">
        <ele>1110.17</ele>
        <time>2018-08-07T12:13:21Z</time>
      </trkpt>
      <trkpt lat="42.6584" lon="0.20928">
        <ele>1109.81</ele>
        <time>2018-08-07T12:13:22Z</time>
      </trkpt>
      <trkpt lat="42.65863" lon="0.20928">
        <ele>1110.4</ele>
        <time>2018-08-07T12:13:23Z</time>
      </trkpt>
      <trkpt lat="42.65887" lon="0.20928">
        <ele>1110.58</ele>
        <time>2018-08-07T12:13:24Z</time>
      </trkpt>
      <trkpt lat="42.6591" lon="0.20928">
        <ele>1111.34</ele>
        <time>2018-08-07T12:13:25Z</time>
      </trkpt>
      <trkpt lat="42.65933" lon="0.20927">
        <ele>1110.86</ele>
        <time>2018-08-07T12:13:26Z</time>
      </trkpt>
      <trkpt lat="42.65955" lon="0.20927">
        <ele>1110.72</ele>
        <time>2018-08-07T12:13:27Z</time>
      </trkpt>
      <trkpt lat="42.65978" lon="0.20927">
        <ele>1110.68</ele>
        <time>2018-08-07T12:13:28Z</time>
      </trkpt>
      <trkpt lat="42.66" lon="0.20927">
        <ele>1110.66</ele>
        <time>2018-08-07T12:13:29Z</time>
      </trkpt>
      <trkpt lat="42.6602" lon="0.20927">
        <ele>1110.66</ele>
        <time>2018-08-07T12:13:30Z</time>
      </trkpt>
      <trkpt lat="42.6604" lon="0.20927">
        <ele>1111.36</ele>
        <time>2018-08-07T12:13:31Z</time>
      </trkpt>
      <trkpt lat="42.6606" lon="0.20927">
        <ele>1111.57</ele>
        <time>2018-08-07T12:13:32Z</time>
      </trkpt>
      <trkpt lat="42.66079" lon="0.20927">
        <ele>1112.33</ele>
        <time>2018-08-07T12:13:33Z</time>
      </trkpt>
      <trkpt lat="42.66099" lon="0.20927">
        <ele>1112.56</ele>
        <time>2018-08-07T12:13:34Z</time>
      </trkpt>
      <trkpt lat="42.66118" lon="0.20926">
        <ele>1113.33</ele>
        <time>2018-08-07T12:13:35Z</time>
      </trkpt>
      <trkpt lat="42.66137" lon="0.20927">
        <ele>1114.26</ele>
        <time>2018-08-07T12:13:36Z</time>
      </trkpt>
      <trkpt lat="42.66156" lon="0.20927">
        <ele>1115.24</ele>
        <time>2018-08-07T12:13:37Z</time>
      </trkpt>
      <trkpt lat="42.66176" lon="0.20929">
        <ele>1116.23</ele>
        <time>2018-08-07T12:13:38Z</time>
      </trkpt>
      <trkpt lat="42.66195" lon="0.20932">
        <ele>1117.23</ele>
        <time>2018-08-07T12:13:39Z</time>
      </trkpt>
      <trkpt lat="42.66214" lon="0.20935">
        <ele>1118.23</ele>
        <time>2018-08-07T12:13:40Z</time>
      </trkpt>
      <trkpt lat="42.66233" lon="0.20941">
        <ele>1119.23</ele>
        <time>2018-08-07T12:13:41Z</time>
      </trkpt>
      <trkpt lat="42.66252" lon="0.20948">
        <ele>1120.23</ele>
        <time>2018-08-07T12:13:42Z</time>
      </trkpt>
      <trkpt lat="42.66271" lon="0.20955">
        <ele>1121.23</ele>
        <time>2018-08-07T12:13:43Z</time>
      </trkpt>
      <trkpt lat="42.66289" lon="0.20964">
        <ele>1122.23</ele>
        <time>2018-08-07T12:13:44Z</time>
      </trkpt>
      <trkpt lat="42.66307" lon="0.20975">
        <ele>1123.23</ele>
        <time>2018-08-07T12:13:45Z</time>
      </trkpt>
      <trkpt lat="42.66325" lon="0.20988">
        <ele>1124.23</ele>
        <time>2018-08-07T12:13:46Z</time>
      </trkpt>
      <trkpt lat="42.66342" lon="0.21002">
        <ele>1125.23</ele>
        <time>2018-08-07T12:13:47Z</time>
      </trkpt>
      <trkpt lat="42.66359" lon="0.21017">
        <ele>1125.53</ele>
        <time>2018-08-07T12:13:48Z</time>
      </trkpt>
      <trkpt lat="42.66376" lon="0.21033">
        <ele>1126.32</ele>
        <time>2018-08-07T12:13:49Z</time>
      </trkpt>
      <trkpt lat="42.66392" lon="0.2105">
        <ele>1127.26</ele>
        <time>2018-08-07T12:13:50Z</time>
      </trkpt>
      <trkpt lat="42.66407" lon="0.21069">
        <ele>1128.24</ele>
        <time>2018-08-07T12:13:51Z</time>
      </trkpt>
      <trkpt lat="42.66422" lon="0.2109">
        <ele>1129.23</ele>
        <time>2018-08-07T12:13:52Z</time>
      </trkpt>
      <trkpt lat="42.66438" lon="0.2111">
        <ele>1130.23</ele>
        <time>2018-08-07T12:13:53Z</time>
      </trkpt>
      <trkpt lat="42.66454" lon="0.2113">
        <ele>1131.23</ele>
        <time>2018-08-07T12:13:54Z</time>
      </trkpt>
      <trkpt lat="42.66469" lon="0.21151">
        <ele>1132.93</ele>
        <time>2018-08-07T12:13:55Z</time>
      </trkpt>
      <trkpt lat="42.66486" lon="0.21171">
        <ele>1134.14</ele>
        <time>2018-08-07T12:13:56Z</time>
      </trkpt>
      <trkpt lat="42.66503" lon="0.21189">
        <ele>1135.2</ele>
        <time>2018-08-07T12:13:57Z</time>
      </trkpt>
      <trkpt lat="42.66522" lon="0.21206">
        <ele>1136.22</ele>
        <time>2018-08-07T12:13:58Z</time>
      </trkpt>
      <trkpt lat="42.66541" lon="0.2122">
        <ele>1137.23</ele>
        <time>2018-08-07T12:13:59Z</time>
      </trkpt>
      <trkpt lat="42.66562" lon="0.21232">
        <ele>1138.93</ele>
        <time>2018-08-07T12:14:00Z</time>
      </trkpt>
      <trkpt lat="42.66585" lon="0.21243">
        <ele>1139.44</ele>
        <time>2018-08-07T12:14:01Z</time>
      </trkpt>
      <trkpt lat="42.6661" lon="0.21254">
        <ele>1140.29</ele>
        <time>2018-08-07T12:14:02Z</time>
      </trkpt>
      <trkpt lat="42.66635" lon="0.21265">
        <ele>1141.95</ele>
        <time>2018-08-07T12:14:03Z</time>
      </trkpt>
      <trkpt lat="42.66662" lon="0.21276">
        <ele>1143.85</ele>
        <time>2018-08-07T12:14:04Z</time>
      </trkpt>
      <trkpt lat="42.66688" lon="0.21287">
        <ele>1145.11</ele>
        <time>2018-08-07T12:14:05Z</time>
      </trkpt>
      <trkpt lat="42.66715" lon="0.21298">
        <ele>1146.19</ele>
        <time>2018-08-07T12:14:06Z</time>
      </trkpt>
      <trkpt lat="42.66741" lon="0.21311">
        <ele>1147.92</ele>
        <time>2018-08-07T12:14:07Z</time>
      </trkpt>
      <trkpt lat="42.66768" lon="0.21322">
        <ele>1149.84</ele>
        <time>2018-08-07T12:14:08Z</time>
      </trkpt>
      <trkpt lat="42.66794" lon="0.21332">
        <ele>1151.81</ele>
        <time>2018-08-07T12:14:09Z</time>
      </trkpt>
      <trkpt lat="42.66819" lon="0.21342">
        <ele>1153.8</ele>
        <time>2018-08-07T12:14:10Z</time>
      </trkpt>
      <trkpt lat="42.66844" lon="0.21352">
        <ele>1155.1</ele>
        <time>2018-08-07T12:14:11Z</time>
      </trkpt>
      <trkpt lat="42.66869" lon="0.21362">
        <ele>1156.19</ele>
        <time>2018-08-07T12:14:12Z</time>
      </trkpt>
      <trkpt lat="42.66894" lon="0.21372">
        <ele>1157.22</ele>
        <time>2018-08-07T12:14:13Z</time>
      </trkpt>
      <trkpt lat="42.66919" lon="0.21382">
        <ele>1158.93</ele>
        <time>2018-08-07T12:14:14Z</time>
      </trkpt>
      <trkpt lat="42.66942" lon="0.21391">
        <ele>1160.84</ele>
        <time>2018-08-07T12:14:15Z</time>
      </trkpt>
      <trkpt lat="42.66967" lon="0.21401">
        <ele>1162.11</ele>
        <time>2018-08-07T12:14:16Z</time>
      </trkpt>
      <trkpt lat="42.66991" lon="0.21409">
        <ele>1163.19</ele>
        <time>2018-08-07T12:14:17Z</time>
      </trkpt>
      <trkpt lat="42.67016" lon="0.21416">
        <ele>1164.22</ele>
        <time>2018-08-07T12:14:18Z</time>
      </trkpt>
      <trkpt lat="42.67041" lon="0.21422">
        <ele>1164.53</ele>
        <time>2018-08-07T12:14:19Z</time>
      </trkpt>
      <trkpt lat="42.67067" lon="0.21426">
        <ele>1165.32</ele>
        <time>2018-08-07T12:14:20Z</time>
      </trkpt>
      <trkpt lat="42.67093" lon="0.2143">
        <ele>1165.56</ele>
        <time>2018-08-07T12:14:21Z</time>
      </trkpt>
      <trkpt lat="42.67118" lon="0.21435">
        <ele>1165.63</ele>
        <time>2018-08-07T12:14:22Z</time>
      </trkpt>
      <trkpt lat="42.67145" lon="0.21439">
        <ele>1166.35</ele>
        <time>2018-08-07T12:14:23Z</time>
      </trkpt>
      <trkpt lat="42.67171" lon="0.21444">
        <ele>1166.57</ele>
        <time>2018-08-07T12:14:24Z</time>
      </trkpt>
      <trkpt lat="42.67197" lon="0.21448">
        <ele>1166.63</ele>
        <time>2018-08-07T12:14:25Z</time>
      </trkpt>
      <trkpt lat="42.67223" lon="0.21451">
        <ele>1167.35</ele>
        <time>2018-08-07T12:14:26Z</time>
      </trkpt>
      <trkpt lat="42.67248" lon="0.21456">
        <ele>1169.67</ele>
        <time>2018-08-07T12:14:27Z</time>
      </trkpt>
      <trkpt lat="42.67273" lon="0.2146">
        <ele>1172.46</ele>
        <time>2018-08-07T12:14:28Z</time>
      </trkpt>
      <trkpt lat="42.67299" lon="0.21461">
        <ele>1175.4</ele>
        <time>2018-08-07T12:14:29Z</time>
      </trkpt>
      <trkpt lat="42.67324" lon="0.21459">
        <ele>1177.68</ele>
        <time>2018-08-07T12:14:30Z</time>
      </trkpt>
      <trkpt lat="42.67349" lon="0.21457">
        <ele>1179.06</ele>
        <time>2018-08-07T12:14:31Z</time>
      </trkpt>
      <trkpt lat="42.67372" lon="0.21444">
        <ele>1181.58</ele>
        <time>2018-08-07T12:14:32Z</time>
      </trkpt>
      <trkpt lat="42.67396" lon="0.21433">
        <ele>1184.43</ele>
        <time>2018-08-07T12:14:33Z</time>
      </trkpt>
      <trkpt lat="42.67419" lon="0.21424">
        <ele>1186.69</ele>
        <time>2018-08-07T12:14:34Z</time>
      </trkpt>
      <trkpt lat="42.6744" lon="0.21415">
        <ele>1188.77</ele>
        <time>2018-08-07T12:14:35Z</time>
      </trkpt>
      <trkpt lat="42.67461" lon="0.21414">
        <ele>1190.09</ele>
        <time>2018-08-07T12:14:36Z</time>
      </trkpt>
      <trkpt lat="42.67483" lon="0.21415">
        <ele>1191.19</ele>
        <time>2018-08-07T12:14:37Z</time>
      </trkpt>
      <trkpt lat="42.67503" lon="0.21421">
        <ele>1192.92</ele>
        <time>2018-08-07T12:14:38Z</time>
      </trkpt>
      <trkpt lat="42.67524" lon="0.21428">
        <ele>1194.14</ele>
        <time>2018-08-07T12:14:39Z</time>
      </trkpt>
      <trkpt lat="42.67544" lon="0.21434">
        <ele>1194.5</ele>
        <time>2018-08-07T12:14:40Z</time>
      </trkpt>
      <trkpt lat="42.67564" lon="0.2144">
        <ele>1194.61</ele>
        <time>2018-08-07T12:14:41Z</time>
      </trkpt>
      <trkpt lat="42.67583" lon="0.21444">
        <ele>1195.34</ele>
        <time>2018-08-07T12:14:42Z</time>
      </trkpt>
      <trkpt lat="42.67602" lon="0.21443">
        <ele>1196.26</ele>
        <time>2018-08-07T12:14:43Z</time>
      </trkpt>
      <trkpt lat="42.67622" lon="0.21442">
        <ele>1197.24</ele>
        <time>2018-08-07T12:14:44Z</time>
      </trkpt>
      <trkpt lat="42.67641" lon="0.21441">
        <ele>1198.93</ele>
        <time>2018-08-07T12:14:45Z</time>
      </trkpt>
      <trkpt lat="42.67676" lon="0.21436">
        <ele>1201.41</ele>
        <time>2018-08-07T12:14:47Z</time>
      </trkpt>
      <trkpt lat="42.6771" lon="0.21424">
        <ele>1205.77</ele>
        <time>2018-08-07T12:14:49Z</time>
      </trkpt>
      <trkpt lat="42.67728" lon="0.21413">
        <ele>1206.39</ele>
        <time>2018-08-07T12:14:50Z</time>
      </trkpt>
      <trkpt lat="42.67749" lon="0.21399">
        <ele>1207.98</ele>
        <time>2018-08-07T12:14:51Z</time>
      </trkpt>
      <trkpt lat="42.67771" lon="0.21385">
        <ele>1209.15</ele>
        <time>2018-08-07T12:14:52Z</time>
      </trkpt>
      <trkpt lat="42.67795" lon="0.21372">
        <ele>1210.91</ele>
        <time>2018-08-07T12:14:53Z</time>
      </trkpt>
      <trkpt lat="42.6782" lon="0.21358">
        <ele>1212.83</ele>
        <time>2018-08-07T12:14:54Z</time>
      </trkpt>
      <trkpt lat="42.67848" lon="0.21345">
        <ele>1214.11</ele>
        <time>2018-08-07T12:14:55Z</time>
      </trkpt>
      <trkpt lat="42.67876" lon="0.21337">
        <ele>1215.89</ele>
        <time>2018-08-07T12:14:56Z</time>
      </trkpt>
      <trkpt lat="42.67906" lon="0.21331">
        <ele>1217.83</ele>
        <time>2018-08-07T12:14:57Z</time>
      </trkpt>
      <trkpt lat="42.67938" lon="0.21327">
        <ele>1218.41</ele>
        <time>2018-08-07T12:14:58Z</time>
      </trkpt>
      <trkpt lat="42.6797" lon="0.21326">
        <ele>1219.28</ele>
        <time>2018-08-07T12:14:59Z</time>
      </trkpt>
      <trkpt lat="42.68001" lon="0.21325">
        <ele>1222.35</ele>
        <time>2018-08-07T12:15:00Z</time>
      </trkpt>
      <trkpt lat="42.68031" lon="0.21324">
        <ele>1223.96</ele>
        <time>2018-08-07T12:15:01Z</time>
      </trkpt>
      <trkpt lat="42.68058" lon="0.21323">
        <ele>1226.55</ele>
        <time>2018-08-07T12:15:02Z</time>
      </trkpt>
      <trkpt lat="42.68084" lon="0.2132">
        <ele>1228.03</ele>
        <time>2018-08-07T12:15:03Z</time>
      </trkpt>
      <trkpt lat="42.6811" lon="0.21318">
        <ele>1228.47</ele>
        <time>2018-08-07T12:15:04Z</time>
      </trkpt>
      <trkpt lat="42.68133" lon="0.21314">
        <ele>1228.6</ele>
        <time>2018-08-07T12:15:05Z</time>
      </trkpt>
      <trkpt lat="42.68157" lon="0.21309">
        <ele>1229.34</ele>
        <time>2018-08-07T12:15:06Z</time>
      </trkpt>
      <trkpt lat="42.6818" lon="0.21299">
        <ele>1230.96</ele>
        <time>2018-08-07T12:15:07Z</time>
      </trkpt>
      <trkpt lat="42.68204" lon="0.21291">
        <ele>1232.85</ele>
        <time>2018-08-07T12:15:08Z</time>
      </trkpt>
      <trkpt lat="42.68227" lon="0.21283">
        <ele>1234.12</ele>
        <time>2018-08-07T12:15:09Z</time>
      </trkpt>
      <trkpt lat="42.68251" lon="0.21276">
        <ele>1235.2</ele>
        <time>2018-08-07T12:15:10Z</time>
      </trkpt>
      <trkpt lat="42.68274" lon="0.21269">
        <ele>1236.92</ele>
        <time>2018-08-07T12:15:11Z</time>
      </trkpt>
      <trkpt lat="42.68296" lon="0.21262">
        <ele>1238.84</ele>
        <time>2018-08-07T12:15:12Z</time>
      </trkpt>
      <trkpt lat="42.68319" lon="0.21254">
        <ele>1240.11</ele>
        <time>2018-08-07T12:15:13Z</time>
      </trkpt>
      <trkpt lat="42.68342" lon="0.21247">
        <ele>1241.89</ele>
        <time>2018-08-07T12:15:14Z</time>
      </trkpt>
      <trkpt lat="42.68365" lon="0.21241">
        <ele>1243.13</ele>
        <time>2018-08-07T12:15:15Z</time>
      </trkpt>
      <trkpt lat="42.68388" lon="0.21235">
        <ele>1244.9</ele>
        <time>2018-08-07T12:15:16Z</time>
      </trkpt>
      <trkpt lat="42.68411" lon="0.2123">
        <ele>1246.83</ele>
        <time>2018-08-07T12:15:17Z</time>
      </trkpt>
      <trkpt lat="42.68434" lon="0.21225">
        <ele>1248.11</ele>
        <time>2018-08-07T12:15:18Z</time>
      </trkpt>
      <trkpt lat="42.68457" lon="0.21222">
        <ele>1250.59</ele>
        <time>2018-08-07T12:15:19Z</time>
      </trkpt>
      <trkpt lat="42.68479" lon="0.21218">
        <ele>1252.04</ele>
        <time>2018-08-07T12:15:20Z</time>
      </trkpt>
      <trkpt lat="42.68502" lon="0.21215">
        <ele>1253.87</ele>
        <time>2018-08-07T12:15:21Z</time>
      </trkpt>
      <trkpt lat="42.68524" lon="0.21211">
        <ele>1256.52</ele>
        <time>2018-08-07T12:15:22Z</time>
      </trkpt>
      <trkpt lat="42.68546" lon="0.21206">
        <ele>1258.02</ele>
        <time>2018-08-07T12:15:23Z</time>
      </trkpt>
      <trkpt lat="42.68567" lon="0.21196">
        <ele>1259.87</ele>
        <time>2018-08-07T12:15:24Z</time>
      </trkpt>
      <trkpt lat="42.68587" lon="0.21182">
        <ele>1261.12</ele>
        <time>2018-08-07T12:15:25Z</time>
      </trkpt>
      <trkpt lat="42.68604" lon="0.21163">
        <ele>1262.2</ele>
        <time>2018-08-07T12:15:26Z</time>
      </trkpt>
      <trkpt lat="42.6862" lon="0.21143">
        <ele>1263.92</ele>
        <time>2018-08-07T12:15:27Z</time>
      </trkpt>
      <trkpt lat="42.68636" lon="0.21121">
        <ele>1265.14</ele>
        <time>2018-08-07T12:15:28Z</time>
      </trkpt>
      <trkpt lat="42.68653" lon="0.211">
        <ele>1266.2</ele>
        <time>2018-08-07T12:15:29Z</time>
      </trkpt>
      <trkpt lat="42.68669" lon="0.21077">
        <ele>1267.92</ele>
        <time>2018-08-07T12:15:30Z</time>
      </trkpt>
      <trkpt lat="42.68686" lon="0.21055">
        <ele>1269.14</ele>
        <time>2018-08-07T12:15:31Z</time>
      </trkpt>
      <trkpt lat="42.68704" lon="0.21032">
        <ele>1269.5</ele>
        <time>2018-08-07T12:15:32Z</time>
      </trkpt>
      <trkpt lat="42.68721" lon="0.21009">
        <ele>1270.31</ele>
        <time>2018-08-07T12:15:33Z</time>
      </trkpt>
      <trkpt lat="42.68739" lon="0.20986">
        <ele>1271.25</ele>
        <time>2018-08-07T12:15:34Z</time>
      </trkpt>
      <trkpt lat="42.68757" lon="0.20963">
        <ele>1272.94</ele>
        <time>2018-08-07T12:15:35Z</time>
      </trkpt>
      <trkpt lat="42.68773" lon="0.20939">
        <ele>1274.14</ele>
        <time>2018-08-07T12:15:36Z</time>
      </trkpt>
      <trkpt lat="42.68791" lon="0.20915">
        <ele>1274.5</ele>
        <time>2018-08-07T12:15:37Z</time>
      </trkpt>
      <trkpt lat="42.68808" lon="0.20893">
        <ele>1275.31</ele>
        <time>2018-08-07T12:15:38Z</time>
      </trkpt>
      <trkpt lat="42.68825" lon="0.20872">
        <ele>1276.25</ele>
        <time>2018-08-07T12:15:39Z</time>
      </trkpt>
      <trkpt lat="42.68841" lon="0.20851">
        <ele>1276.54</ele>
        <time>2018-08-07T12:15:40Z</time>
      </trkpt>
      <trkpt lat="42.68858" lon="0.20831">
        <ele>1278.02</ele>
        <time>2018-08-07T12:15:41Z</time>
      </trkpt>
      <trkpt lat="42.68876" lon="0.20813">
        <ele>1279.87</ele>
        <time>2018-08-07T12:15:42Z</time>
      </trkpt>
      <trkpt lat="42.68895" lon="0.20797">
        <ele>1281.82</ele>
        <time>2018-08-07T12:15:43Z</time>
      </trkpt>
      <trkpt lat="42.68914" lon="0.2078">
        <ele>1283.11</ele>
        <time>2018-08-07T12:15:44Z</time>
      </trkpt>
      <trkpt lat="42.68933" lon="0.20762">
        <ele>1284.19</ele>
        <time>2018-08-07T12:15:45Z</time>
      </trkpt>
      <trkpt lat="42.68953" lon="0.20746">
        <ele>1285.92</ele>
        <time>2018-08-07T12:15:46Z</time>
      </trkpt>
      <trkpt lat="42.68972" lon="0.2073">
        <ele>1287.14</ele>
        <time>2018-08-07T12:15:47Z</time>
      </trkpt>
      <trkpt lat="42.68991" lon="0.20714">
        <ele>1288.2</ele>
        <time>2018-08-07T12:15:48Z</time>
      </trkpt>
      <trkpt lat="42.69012" lon="0.20699">
        <ele>1289.22</ele>
        <time>2018-08-07T12:15:49Z</time>
      </trkpt>
      <trkpt lat="42.69031" lon="0.20683">
        <ele>1290.93</ele>
        <time>2018-08-07T12:15:50Z</time>
      </trkpt>
      <trkpt lat="42.69051" lon="0.20667">
        <ele>1292.84</ele>
        <time>2018-08-07T12:15:51Z</time>
      </trkpt>
      <trkpt lat="42.6907" lon="0.20651">
        <ele>1294.81</ele>
        <time>2018-08-07T12:15:52Z</time>
      </trkpt>
      <trkpt lat="42.6909" lon="0.20636">
        <ele>1296.8</ele>
        <time>2018-08-07T12:15:53Z</time>
      </trkpt>
      <trkpt lat="42.69109" lon="0.20618">
        <ele>1298.1</ele>
        <time>2018-08-07T12:15:54Z</time>
      </trkpt>
      <trkpt lat="42.69127" lon="0.20597">
        <ele>1299.89</ele>
        <time>2018-08-07T12:15:55Z</time>
      </trkpt>
      <trkpt lat="42.69144" lon="0.20575">
        <ele>1301.13</ele>
        <time>2018-08-07T12:15:56Z</time>
      </trkpt>
      <trkpt lat="42.69159" lon="0.20552">
        <ele>1302.2</ele>
        <time>2018-08-07T12:15:57Z</time>
      </trkpt>
      <trkpt lat="42.69173" lon="0.20526">
        <ele>1303.92</ele>
        <time>2018-08-07T12:15:58Z</time>
      </trkpt>
      <trkpt lat="42.69187" lon="0.205">
        <ele>1304.44</ele>
        <time>2018-08-07T12:15:59Z</time>
      </trkpt>
      <trkpt lat="42.69201" lon="0.20476">
        <ele>1305.99</ele>
        <time>2018-08-07T12:16:00Z</time>
      </trkpt>
      <trkpt lat="42.69217" lon="0.20453">
        <ele>1307.16</ele>
        <time>2018-08-07T12:16:01Z</time>
      </trkpt>
      <trkpt lat="42.69237" lon="0.20435">
        <ele>1308.91</ele>
        <time>2018-08-07T12:16:02Z</time>
      </trkpt>
      <trkpt lat="42.69256" lon="0.20419">
        <ele>1310.13</ele>
        <time>2018-08-07T12:16:03Z</time>
      </trkpt>
      <trkpt lat="42.69279" lon="0.2041">
        <ele>1311.2</ele>
        <time>2018-08-07T12:16:04Z</time>
      </trkpt>
      <trkpt lat="42.69301" lon="0.20399">
        <ele>1312.92</ele>
        <time>2018-08-07T12:16:05Z</time>
      </trkpt>
      <trkpt lat="42.69324" lon="0.20388">
        <ele>1314.14</ele>
        <time>2018-08-07T12:16:06Z</time>
      </trkpt>
      <trkpt lat="42.69346" lon="0.20377">
        <ele>1315.9</ele>
        <time>2018-08-07T12:16:07Z</time>
      </trkpt>
      <trkpt lat="42.69369" lon="0.20366">
        <ele>1317.13</ele>
        <time>2018-08-07T12:16:08Z</time>
      </trkpt>
      <trkpt lat="42.69392" lon="0.20355">
        <ele>1318.9</ele>
        <time>2018-08-07T12:16:09Z</time>
      </trkpt>
      <trkpt lat="42.69415" lon="0.20344">
        <ele>1320.83</ele>
        <time>2018-08-07T12:16:10Z</time>
      </trkpt>
      <trkpt lat="42.69438" lon="0.20333">
        <ele>1322.81</ele>
        <time>2018-08-07T12:16:11Z</time>
      </trkpt>
      <trkpt lat="42.69461" lon="0.20322">
        <ele>1325.5</ele>
        <time>2018-08-07T12:16:12Z</time>
      </trkpt>
      <trkpt lat="42.69484" lon="0.2031">
        <ele>1327.71</ele>
        <time>2018-08-07T12:16:13Z</time>
      </trkpt>
      <trkpt lat="42.69506" lon="0.20299">
        <ele>1329.77</ele>
        <time>2018-08-07T12:16:14Z</time>
      </trkpt>
      <trkpt lat="42.69528" lon="0.20288">
        <ele>1331.79</ele>
        <time>2018-08-07T12:16:15Z</time>
      </trkpt>
      <trkpt lat="42.69548" lon="0.20277">
        <ele>1333.8</ele>
        <time>2018-08-07T12:16:16Z</time>
      </trkpt>
      <trkpt lat="42.69568" lon="0.20268">
        <ele>1335.8</ele>
        <time>2018-08-07T12:16:17Z</time>
      </trkpt>
      <trkpt lat="42.69588" lon="0.20259">
        <ele>1337.1</ele>
        <time>2018-08-07T12:16:18Z</time>
      </trkpt>
      <trkpt lat="42.69606" lon="0.20254">
        <ele>1337.49</ele>
        <time>2018-08-07T12:16:19Z</time>
      </trkpt>
      <trkpt lat="42.6964" lon="0.20248">
        <ele>1340.16</ele>
        <time>2018-08-07T12:16:21Z</time>
      </trkpt>
      <trkpt lat="42.69672" lon="0.2025">
        <ele>1342.22</ele>
        <time>2018-08-07T12:16:23Z</time>
      </trkpt>
      <trkpt lat="42.69701" lon="0.20253">
        <ele>1343.32</ele>
        <time>2018-08-07T12:16:25Z</time>
      </trkpt>
      <trkpt lat="42.69728" lon="0.20254">
        <ele>1345.24</ele>
        <time>2018-08-07T12:16:27Z</time>
      </trkpt>
      <trkpt lat="42.69754" lon="0.20259">
        <ele>1348.14</ele>
        <time>2018-08-07T12:16:29Z</time>
      </trkpt>
      <trkpt lat="42.69777" lon="0.20262">
        <ele>1349.52</ele>
        <time>2018-08-07T12:16:31Z</time>
      </trkpt>
      <trkpt lat="42.69797" lon="0.20263">
        <ele>1351.05</ele>
        <time>2018-08-07T12:16:33Z</time>
      </trkpt>
      <trkpt lat="42.69816" lon="0.20264">
        <ele>1353.42</ele>
        <time>2018-08-07T12:16:35Z</time>
      </trkpt>
      <trkpt lat="42.69838" lon="0.20267">
        <ele>1355.32</ele>
        <time>2018-08-07T12:16:38Z</time>
      </trkpt>
      <trkpt lat="42.69858" lon="0.20264">
        <ele>1356.57</ele>
        <time>2018-08-07T12:16:43Z</time>
      </trkpt>
      <trkpt lat="42.69879" lon="0.20262">
        <ele>1360.62</ele>
        <time>2018-08-07T12:16:51Z</time>
      </trkpt>
      <trkpt lat="42.699" lon="0.20255">
        <ele>1365.23</ele>
        <time>2018-08-07T12:16:56Z</time>
      </trkpt>
      <trkpt lat="42.69919" lon="0.20245">
        <ele>1367.26</ele>
        <time>2018-08-07T12:16:59Z</time>
      </trkpt>
      <trkpt lat="42.69943" lon="0.20229">
        <ele>1369.26</ele>
        <time>2018-08-07T12:17:02Z</time>
      </trkpt>
      <trkpt lat="42.69963" lon="0.20215">
        <ele>1370.53</ele>
        <time>2018-08-07T12:17:04Z</time>
      </trkpt>
      <trkpt lat="42.69985" lon="0.20198">
        <ele>1373.17</ele>
        <time>2018-08-07T12:17:06Z</time>
      </trkpt>
      <trkpt lat="42.7001" lon="0.2018">
        <ele>1375.92</ele>
        <time>2018-08-07T12:17:08Z</time>
      </trkpt>
      <trkpt lat="42.70039" lon="0.20163">
        <ele>1378.2</ele>
        <time>2018-08-07T12:17:10Z</time>
      </trkpt>
      <trkpt lat="42.70071" lon="0.20144">
        <ele>1382.54</ele>
        <time>2018-08-07T12:17:12Z</time>
      </trkpt>
      <trkpt lat="42.70088" lon="0.20136">
        <ele>1384.72</ele>
        <time>2018-08-07T12:17:13Z</time>
      </trkpt>
      <trkpt lat="42.70106" lon="0.20129">
        <ele>1386.08</ele>
        <time>2018-08-07T12:17:14Z</time>
      </trkpt>
      <trkpt lat="42.70124" lon="0.20122">
        <ele>1388.58</ele>
        <time>2018-08-07T12:17:15Z</time>
      </trkpt>
      <trkpt lat="42.70144" lon="0.20115">
        <ele>1390.74</ele>
        <time>2018-08-07T12:17:16Z</time>
      </trkpt>
      <trkpt lat="42.70164" lon="0.20108">
        <ele>1392.78</ele>
        <time>2018-08-07T12:17:17Z</time>
      </trkpt>
      <trkpt lat="42.70184" lon="0.20099">
        <ele>1394.8</ele>
        <time>2018-08-07T12:17:18Z</time>
      </trkpt>
      <trkpt lat="42.70203" lon="0.2009">
        <ele>1396.1</ele>
        <time>2018-08-07T12:17:19Z</time>
      </trkpt>
      <trkpt lat="42.70223" lon="0.20079">
        <ele>1398.59</ele>
        <time>2018-08-07T12:17:20Z</time>
      </trkpt>
      <trkpt lat="42.70242" lon="0.20064">
        <ele>1401.44</ele>
        <time>2018-08-07T12:17:21Z</time>
      </trkpt>
      <trkpt lat="42.70261" lon="0.20049">
        <ele>1404.39</ele>
        <time>2018-08-07T12:17:22Z</time>
      </trkpt>
      <trkpt lat="42.70278" lon="0.20034">
        <ele>1406.68</ele>
        <time>2018-08-07T12:17:23Z</time>
      </trkpt>
      <trkpt lat="42.70295" lon="0.20017">
        <ele>1409.46</ele>
        <time>2018-08-07T12:17:24Z</time>
      </trkpt>
      <trkpt lat="42.70312" lon="0.20001">
        <ele>1411</ele>
        <time>2018-08-07T12:17:25Z</time>
      </trkpt>
      <trkpt lat="42.7033" lon="0.19986">
        <ele>1412.86</ele>
        <time>2018-08-07T12:17:26Z</time>
      </trkpt>
      <trkpt lat="42.70349" lon="0.19974">
        <ele>1414.82</ele>
        <time>2018-08-07T12:17:27Z</time>
      </trkpt>
      <trkpt lat="42.70366" lon="0.19963">
        <ele>1415.41</ele>
        <time>2018-08-07T12:17:28Z</time>
      </trkpt>
      <trkpt lat="42.70398" lon="0.19955">
        <ele>1415.85</ele>
        <time>2018-08-07T12:17:30Z</time>
      </trkpt>
      <trkpt lat="42.70416" lon="0.19967">
        <ele>1415.71</ele>
        <time>2018-08-07T12:17:31Z</time>
      </trkpt>
      <trkpt lat="42.70431" lon="0.19984">
        <ele>1414.97</ele>
        <time>2018-08-07T12:17:32Z</time>
      </trkpt>
      <trkpt lat="42.70433" lon="0.20018">
        <ele>1415.6</ele>
        <time>2018-08-07T12:17:34Z</time>
      </trkpt>
      <trkpt lat="42.70417" lon="0.2006">
        <ele>1415.65</ele>
        <time>2018-08-07T12:17:36Z</time>
      </trkpt>
      <trkpt lat="42.70387" lon="0.20087">
        <ele>1414.96</ele>
        <time>2018-08-07T12:17:37Z</time>
      </trkpt>
      <trkpt lat="42.70356" lon="0.20103">
        <ele>1414.75</ele>
        <time>2018-08-07T12:17:38Z</time>
      </trkpt>
      <trkpt lat="42.70338" lon="0.20116">
        <ele>1417.48</ele>
        <time>2018-08-07T12:17:39Z</time>
      </trkpt>
      <trkpt lat="42.70323" lon="0.2013">
        <ele>1419.01</ele>
        <time>2018-08-07T12:17:40Z</time>
      </trkpt>
      <trkpt lat="42.70299" lon="0.20157">
        <ele>1421.91</ele>
        <time>2018-08-07T12:17:42Z</time>
      </trkpt>
      <trkpt lat="42.70294" lon="0.20191">
        <ele>1422.38</ele>
        <time>2018-08-07T12:17:44Z</time>
      </trkpt>
      <trkpt lat="42.70311" lon="0.20213">
        <ele>1424.53</ele>
        <time>2018-08-07T12:17:47Z</time>
      </trkpt>
      <trkpt lat="42.70336" lon="0.20209">
        <ele>1424.62</ele>
        <time>2018-08-07T12:17:48Z</time>
      </trkpt>
      <trkpt lat="42.70371" lon="0.20194">
        <ele>1425.35</ele>
        <time>2018-08-07T12:17:49Z</time>
      </trkpt>
      <trkpt lat="42.70412" lon="0.20181">
        <ele>1426.26</ele>
        <time>2018-08-07T12:17:50Z</time>
      </trkpt>
      <trkpt lat="42.70442" lon="0.20175">
        <ele>1428.64</ele>
        <time>2018-08-07T12:17:51Z</time>
      </trkpt>
      <trkpt lat="42.70468" lon="0.2017">
        <ele>1430.75</ele>
        <time>2018-08-07T12:17:52Z</time>
      </trkpt>
      <trkpt lat="42.70496" lon="0.20166">
        <ele>1432.79</ele>
        <time>2018-08-07T12:17:53Z</time>
      </trkpt>
      <trkpt lat="42.70523" lon="0.20165">
        <ele>1434.8</ele>
        <time>2018-08-07T12:17:54Z</time>
      </trkpt>
      <trkpt lat="42.7055" lon="0.20162">
        <ele>1436.1</ele>
        <time>2018-08-07T12:17:55Z</time>
      </trkpt>
      <trkpt lat="42.70578" lon="0.20161">
        <ele>1437.89</ele>
        <time>2018-08-07T12:17:56Z</time>
      </trkpt>
      <trkpt lat="42.70606" lon="0.20161">
        <ele>1438.43</ele>
        <time>2018-08-07T12:17:57Z</time>
      </trkpt>
      <trkpt lat="42.70634" lon="0.20162">
        <ele>1439.29</ele>
        <time>2018-08-07T12:17:58Z</time>
      </trkpt>
      <trkpt lat="42.70661" lon="0.20166">
        <ele>1440.25</ele>
        <time>2018-08-07T12:17:59Z</time>
      </trkpt>
      <trkpt lat="42.70686" lon="0.20164">
        <ele>1441.23</ele>
        <time>2018-08-07T12:18:00Z</time>
      </trkpt>
      <trkpt lat="42.70712" lon="0.20168">
        <ele>1442.23</ele>
        <time>2018-08-07T12:18:01Z</time>
      </trkpt>
      <trkpt lat="42.70737" lon="0.20172">
        <ele>1443.93</ele>
        <time>2018-08-07T12:18:02Z</time>
      </trkpt>
      <trkpt lat="42.70766" lon="0.20187">
        <ele>1445.84</ele>
        <time>2018-08-07T12:18:03Z</time>
      </trkpt>
      <trkpt lat="42.70793" lon="0.202">
        <ele>1448.51</ele>
        <time>2018-08-07T12:18:04Z</time>
      </trkpt>
      <trkpt lat="42.70821" lon="0.20213">
        <ele>1450.01</ele>
        <time>2018-08-07T12:18:05Z</time>
      </trkpt>
      <trkpt lat="42.70848" lon="0.20226">
        <ele>1451.86</ele>
        <time>2018-08-07T12:18:06Z</time>
      </trkpt>
      <trkpt lat="42.70875" lon="0.20239">
        <ele>1454.52</ele>
        <time>2018-08-07T12:18:07Z</time>
      </trkpt>
      <trkpt lat="42.70902" lon="0.20251">
        <ele>1456.72</ele>
        <time>2018-08-07T12:18:08Z</time>
      </trkpt>
      <trkpt lat="42.70929" lon="0.20264">
        <ele>1460.18</ele>
        <time>2018-08-07T12:18:09Z</time>
      </trkpt>
      <trkpt lat="42.70957" lon="0.20276">
        <ele>1463.31</ele>
        <time>2018-08-07T12:18:10Z</time>
      </trkpt>
      <trkpt lat="42.70982" lon="0.20287">
        <ele>1468.45</ele>
        <time>2018-08-07T12:18:11Z</time>
      </trkpt>
      <trkpt lat="42.71005" lon="0.20299">
        <ele>1473.5</ele>
        <time>2018-08-07T12:18:12Z</time>
      </trkpt>
      <trkpt lat="42.71027" lon="0.20308">
        <ele>1477.81</ele>
        <time>2018-08-07T12:18:13Z</time>
      </trkpt>
      <trkpt lat="42.71048" lon="0.20317">
        <ele>1481.2</ele>
        <time>2018-08-07T12:18:14Z</time>
      </trkpt>
      <trkpt lat="42.71069" lon="0.20328">
        <ele>1484.32</ele>
        <time>2018-08-07T12:18:15Z</time>
      </trkpt>
      <trkpt lat="42.71091" lon="0.2034">
        <ele>1487.36</ele>
        <time>2018-08-07T12:18:16Z</time>
      </trkpt>
      <trkpt lat="42.71111" lon="0.20353">
        <ele>1489.67</ele>
        <time>2018-08-07T12:18:17Z</time>
      </trkpt>
      <trkpt lat="42.71133" lon="0.20375">
        <ele>1491.76</ele>
        <time>2018-08-07T12:18:18Z</time>
      </trkpt>
      <trkpt lat="42.71155" lon="0.2039">
        <ele>1493.79</ele>
        <time>2018-08-07T12:18:19Z</time>
      </trkpt>
      <trkpt lat="42.71176" lon="0.20405">
        <ele>1498.6</ele>
        <time>2018-08-07T12:18:20Z</time>
      </trkpt>
      <trkpt lat="42.71198" lon="0.20419">
        <ele>1501.44</ele>
        <time>2018-08-07T12:18:21Z</time>
      </trkpt>
      <trkpt lat="42.71219" lon="0.20434">
        <ele>1502.29</ele>
        <time>2018-08-07T12:18:22Z</time>
      </trkpt>
      <trkpt lat="42.71241" lon="0.20448">
        <ele>1503.25</ele>
        <time>2018-08-07T12:18:23Z</time>
      </trkpt>
      <trkpt lat="42.71278" lon="0.20475">
        <ele>1504.24</ele>
        <time>2018-08-07T12:18:25Z</time>
      </trkpt>
      <trkpt lat="42.71296" lon="0.20487">
        <ele>1506.63</ele>
        <time>2018-08-07T12:18:26Z</time>
      </trkpt>
      <trkpt lat="42.71329" lon="0.20487">
        <ele>1511.7</ele>
        <time>2018-08-07T12:18:28Z</time>
      </trkpt>
      <trkpt lat="42.71363" lon="0.20479">
        <ele>1510.75</ele>
        <time>2018-08-07T12:18:30Z</time>
      </trkpt>
      <trkpt lat="42.71382" lon="0.20465">
        <ele>1512.09</ele>
        <time>2018-08-07T12:18:31Z</time>
      </trkpt>
      <trkpt lat="42.71398" lon="0.2045">
        <ele>1513.89</ele>
        <time>2018-08-07T12:18:32Z</time>
      </trkpt>
      <trkpt lat="42.71415" lon="0.20431">
        <ele>1515.83</ele>
        <time>2018-08-07T12:18:33Z</time>
      </trkpt>
      <trkpt lat="42.7143" lon="0.20413">
        <ele>1517.81</ele>
        <time>2018-08-07T12:18:34Z</time>
      </trkpt>
      <trkpt lat="42.71448" lon="0.20387">
        <ele>1521.2</ele>
        <time>2018-08-07T12:18:35Z</time>
      </trkpt>
      <trkpt lat="42.71449" lon="0.20352">
        <ele>1525.02</ele>
        <time>2018-08-07T12:18:36Z</time>
      </trkpt>
      <trkpt lat="42.71455" lon="0.20316">
        <ele>1528.27</ele>
        <time>2018-08-07T12:18:37Z</time>
      </trkpt>
      <trkpt lat="42.71468" lon="0.20295">
        <ele>1533.44</ele>
        <time>2018-08-07T12:18:38Z</time>
      </trkpt>
      <trkpt lat="42.71479" lon="0.2027">
        <ele>1538.49</ele>
        <time>2018-08-07T12:18:39Z</time>
      </trkpt>
      <trkpt lat="42.71502" lon="0.20233">
        <ele>1546.2</ele>
        <time>2018-08-07T12:18:41Z</time>
      </trkpt>
      <trkpt lat="42.71522" lon="0.20223">
        <ele>1549.32</ele>
        <time>2018-08-07T12:18:42Z</time>
      </trkpt>
      <trkpt lat="42.71546" lon="0.20209">
        <ele>1552.36</ele>
        <time>2018-08-07T12:18:43Z</time>
      </trkpt>
      <trkpt lat="42.71579" lon="0.202">
        <ele>1558.17</ele>
        <time>2018-08-07T12:18:44Z</time>
      </trkpt>
      <trkpt lat="42.71604" lon="0.20188">
        <ele>1564.81</ele>
        <time>2018-08-07T12:18:45Z</time>
      </trkpt>
      <trkpt lat="42.71627" lon="0.20175">
        <ele>1570.3</ele>
        <time>2018-08-07T12:18:46Z</time>
      </trkpt>
      <trkpt lat="42.71648" lon="0.20163">
        <ele>1575.45</ele>
        <time>2018-08-07T12:18:47Z</time>
      </trkpt>
      <trkpt lat="42.71668" lon="0.2015">
        <ele>1579.8</ele>
        <time>2018-08-07T12:18:48Z</time>
      </trkpt>
      <trkpt lat="42.71687" lon="0.20135">
        <ele>1583.9</ele>
        <time>2018-08-07T12:18:49Z</time>
      </trkpt>
      <trkpt lat="42.71703" lon="0.20117">
        <ele>1587.23</ele>
        <time>2018-08-07T12:18:50Z</time>
      </trkpt>
      <trkpt lat="42.71717" lon="0.20097">
        <ele>1591.03</ele>
        <time>2018-08-07T12:18:51Z</time>
      </trkpt>
      <trkpt lat="42.71731" lon="0.20076">
        <ele>1594.27</ele>
        <time>2018-08-07T12:18:52Z</time>
      </trkpt>
      <trkpt lat="42.71746" lon="0.20055">
        <ele>1596.64</ele>
        <time>2018-08-07T12:18:53Z</time>
      </trkpt>
      <trkpt lat="42.71762" lon="0.20037">
        <ele>1598.75</ele>
        <time>2018-08-07T12:18:54Z</time>
      </trkpt>
      <trkpt lat="42.71778" lon="0.2002">
        <ele>1600.79</ele>
        <time>2018-08-07T12:18:55Z</time>
      </trkpt>
      <trkpt lat="42.71795" lon="0.20004">
        <ele>1603.5</ele>
        <time>2018-08-07T12:18:56Z</time>
      </trkpt>
      <trkpt lat="42.71812" lon="0.19987">
        <ele>1607.11</ele>
        <time>2018-08-07T12:18:57Z</time>
      </trkpt>
      <trkpt lat="42.71829" lon="0.19971">
        <ele>1610.29</ele>
        <time>2018-08-07T12:18:58Z</time>
      </trkpt>
      <trkpt lat="42.71845" lon="0.19955">
        <ele>1613.35</ele>
        <time>2018-08-07T12:18:59Z</time>
      </trkpt>
      <trkpt lat="42.71862" lon="0.19943">
        <ele>1616.37</ele>
        <time>2018-08-07T12:19:00Z</time>
      </trkpt>
      <trkpt lat="42.71891" lon="0.19925">
        <ele>1621.46</ele>
        <time>2018-08-07T12:19:02Z</time>
      </trkpt>
      <trkpt lat="42.71919" lon="0.19909">
        <ele>1622.76</ele>
        <time>2018-08-07T12:19:04Z</time>
      </trkpt>
      <trkpt lat="42.7194" lon="0.19905">
        <ele>1626.64</ele>
        <time>2018-08-07T12:19:07Z</time>
      </trkpt>
      <trkpt lat="42.7196" lon="0.1989">
        <ele>1631.12</ele>
        <time>2018-08-07T12:19:10Z</time>
      </trkpt>
      <trkpt lat="42.71977" lon="0.19875">
        <ele>1634.44</ele>
        <time>2018-08-07T12:19:13Z</time>
      </trkpt>
      <trkpt lat="42.71989" lon="0.19856">
        <ele>1638.15</ele>
        <time>2018-08-07T12:19:16Z</time>
      </trkpt>
      <trkpt lat="42.72003" lon="0.19837">
        <ele>1641.23</ele>
        <time>2018-08-07T12:19:19Z</time>
      </trkpt>
      <trkpt lat="42.72019" lon="0.19818">
        <ele>1643.32</ele>
        <time>2018-08-07T12:19:22Z</time>
      </trkpt>
      <trkpt lat="42.72035" lon="0.19796">
        <ele>1646.17</ele>
        <time>2018-08-07T12:19:25Z</time>
      </trkpt>
      <trkpt lat="42.72051" lon="0.19776">
        <ele>1649.23</ele>
        <time>2018-08-07T12:19:28Z</time>
      </trkpt>
      <trkpt lat="42.72069" lon="0.19762">
        <ele>1652.23</ele>
        <time>2018-08-07T12:19:31Z</time>
      </trkpt>
      <trkpt lat="42.72087" lon="0.19751">
        <ele>1654.53</ele>
        <time>2018-08-07T12:19:34Z</time>
      </trkpt>
      <trkpt lat="42.72106" lon="0.19743">
        <ele>1654.66</ele>
        <time>2018-08-07T12:19:40Z</time>
      </trkpt>
      <trkpt lat="42.74866" lon="0.19114">
        <ele>1745.66</ele>
        <time>2018-08-07T12:24:47Z</time>
      </trkpt>
      <trkpt lat="42.7489" lon="0.19105">
        <ele>1787.03</ele>
        <time>2018-08-07T12:24:49Z</time>
      </trkpt>
      <trkpt lat="42.7491" lon="0.19095">
        <ele>1795.79</ele>
        <time>2018-08-07T12:24:51Z</time>
      </trkpt>
      <trkpt lat="42.74929" lon="0.19081">
        <ele>1799.31</ele>
        <time>2018-08-07T12:24:53Z</time>
      </trkpt>
      <trkpt lat="42.74946" lon="0.19065">
        <ele>1801.73</ele>
        <time>2018-08-07T12:24:55Z</time>
      </trkpt>
      <trkpt lat="42.74961" lon="0.19047">
        <ele>1803.48</ele>
        <time>2018-08-07T12:24:57Z</time>
      </trkpt>
      <trkpt lat="42.74979" lon="0.19033">
        <ele>1804.55</ele>
        <time>2018-08-07T12:24:59Z</time>
      </trkpt>
      <trkpt lat="42.74998" lon="0.19024">
        <ele>1805.35</ele>
        <time>2018-08-07T12:25:01Z</time>
      </trkpt>
      <trkpt lat="42.7502" lon="0.1902">
        <ele>1806.42</ele>
        <time>2018-08-07T12:25:03Z</time>
      </trkpt>
      <trkpt lat="42.75043" lon="0.19023">
        <ele>1807.21</ele>
        <time>2018-08-07T12:25:05Z</time>
      </trkpt>
      <trkpt lat="42.75069" lon="0.19034">
        <ele>1806.79</ele>
        <time>2018-08-07T12:25:07Z</time>
      </trkpt>
      <trkpt lat="42.75095" lon="0.19047">
        <ele>1805.85</ele>
        <time>2018-08-07T12:25:09Z</time>
      </trkpt>
      <trkpt lat="42.75125" lon="0.19053">
        <ele>1806.46</ele>
        <time>2018-08-07T12:25:11Z</time>
      </trkpt>
      <trkpt lat="42.75154" lon="0.19056">
        <ele>1804.91</ele>
        <time>2018-08-07T12:25:13Z</time>
      </trkpt>
      <trkpt lat="42.75181" lon="0.19069">
        <ele>1803.65</ele>
        <time>2018-08-07T12:25:15Z</time>
      </trkpt>
      <trkpt lat="42.75211" lon="0.19094">
        <ele>1802.62</ele>
        <time>2018-08-07T12:25:17Z</time>
      </trkpt>
      <trkpt lat="42.75226" lon="0.19108">
        <ele>1801.85</ele>
        <time>2018-08-07T12:25:18Z</time>
      </trkpt>
      <trkpt lat="42.75242" lon="0.19121">
        <ele>1800.22</ele>
        <time>2018-08-07T12:25:19Z</time>
      </trkpt>
      <trkpt lat="42.75259" lon="0.19134">
        <ele>1799.73</ele>
        <time>2018-08-07T12:25:20Z</time>
      </trkpt>
      <trkpt lat="42.75276" lon="0.19145">
        <ele>1799.58</ele>
        <time>2018-08-07T12:25:21Z</time>
      </trkpt>
      <trkpt lat="42.75294" lon="0.19152">
        <ele>1798.84</ele>
        <time>2018-08-07T12:25:22Z</time>
      </trkpt>
      <trkpt lat="42.75311" lon="0.19161">
        <ele>1798.62</ele>
        <time>2018-08-07T12:25:23Z</time>
      </trkpt>
      <trkpt lat="42.75342" lon="0.19176">
        <ele>1796.01</ele>
        <time>2018-08-07T12:25:25Z</time>
      </trkpt>
      <trkpt lat="42.75371" lon="0.19191">
        <ele>1793.96</ele>
        <time>2018-08-07T12:25:27Z</time>
      </trkpt>
      <trkpt lat="42.75397" lon="0.19203">
        <ele>1792.86</ele>
        <time>2018-08-07T12:25:29Z</time>
      </trkpt>
      <trkpt lat="42.75416" lon="0.19211">
        <ele>1790.94</ele>
        <time>2018-08-07T12:25:31Z</time>
      </trkpt>
      <trkpt lat="42.75434" lon="0.19224">
        <ele>1788.69</ele>
        <time>2018-08-07T12:25:35Z</time>
      </trkpt>
      <trkpt lat="42.7545" lon="0.19238">
        <ele>1784.65</ele>
        <time>2018-08-07T12:32:50Z</time>
      </trkpt>
      <trkpt lat="42.75468" lon="0.19245">
        <ele>1783.83</ele>
        <time>2018-08-07T12:32:53Z</time>
      </trkpt>
      <trkpt lat="42.75492" lon="0.19245">
        <ele>1782.13</ele>
        <time>2018-08-07T12:32:56Z</time>
      </trkpt>
      <trkpt lat="42.75511" lon="0.19248">
        <ele>1779.97</ele>
        <time>2018-08-07T12:32:58Z</time>
      </trkpt>
      <trkpt lat="42.75536" lon="0.19266">
        <ele>1776.25</ele>
        <time>2018-08-07T12:33:01Z</time>
      </trkpt>
      <trkpt lat="42.75555" lon="0.1928">
        <ele>1774.68</ele>
        <time>2018-08-07T12:33:03Z</time>
      </trkpt>
      <trkpt lat="42.75578" lon="0.19289">
        <ele>1773.63</ele>
        <time>2018-08-07T12:33:05Z</time>
      </trkpt>
      <trkpt lat="42.75604" lon="0.19295">
        <ele>1771.01</ele>
        <time>2018-08-07T12:33:07Z</time>
      </trkpt>
      <trkpt lat="42.75631" lon="0.19306">
        <ele>1769.66</ele>
        <time>2018-08-07T12:33:09Z</time>
      </trkpt>
      <trkpt lat="42.75657" lon="0.19325">
        <ele>1768.62</ele>
        <time>2018-08-07T12:33:11Z</time>
      </trkpt>
      <trkpt lat="42.75666" lon="0.1936">
        <ele>1767.62</ele>
        <time>2018-08-07T12:33:13Z</time>
      </trkpt>
      <trkpt lat="42.75676" lon="0.19395">
        <ele>1765.71</ele>
        <time>2018-08-07T12:33:15Z</time>
      </trkpt>
      <trkpt lat="42.75696" lon="0.19423">
        <ele>1763.02</ele>
        <time>2018-08-07T12:33:17Z</time>
      </trkpt>
      <trkpt lat="42.75718" lon="0.1945">
        <ele>1760.96</ele>
        <time>2018-08-07T12:33:19Z</time>
      </trkpt>
      <trkpt lat="42.75741" lon="0.1947">
        <ele>1758.95</ele>
        <time>2018-08-07T12:33:21Z</time>
      </trkpt>
      <trkpt lat="42.7577" lon="0.19476">
        <ele>1756.95</ele>
        <time>2018-08-07T12:33:23Z</time>
      </trkpt>
      <trkpt lat="42.75799" lon="0.19482">
        <ele>1754.95</ele>
        <time>2018-08-07T12:33:25Z</time>
      </trkpt>
      <trkpt lat="42.75827" lon="0.19493">
        <ele>1753.65</ele>
        <time>2018-08-07T12:33:27Z</time>
      </trkpt>
      <trkpt lat="42.75855" lon="0.19508">
        <ele>1752.62</ele>
        <time>2018-08-07T12:33:29Z</time>
      </trkpt>
      <trkpt lat="42.75879" lon="0.19534">
        <ele>1750.22</ele>
        <time>2018-08-07T12:33:31Z</time>
      </trkpt>
      <trkpt lat="42.75901" lon="0.19564">
        <ele>1747.27</ele>
        <time>2018-08-07T12:33:33Z</time>
      </trkpt>
      <trkpt lat="42.75915" lon="0.19593">
        <ele>1744.98</ele>
        <time>2018-08-07T12:33:35Z</time>
      </trkpt>
      <trkpt lat="42.7595" lon="0.19605">
        <ele>1741.74</ele>
        <time>2018-08-07T12:33:38Z</time>
      </trkpt>
      <trkpt lat="42.75978" lon="0.19606">
        <ele>1740.14</ele>
        <time>2018-08-07T12:33:40Z</time>
      </trkpt>
      <trkpt lat="42.76009" lon="0.19611">
        <ele>1739.79</ele>
        <time>2018-08-07T12:33:42Z</time>
      </trkpt>
      <trkpt lat="42.76043" lon="0.19618">
        <ele>1737.03</ele>
        <time>2018-08-07T12:33:44Z</time>
      </trkpt>
      <trkpt lat="42.76077" lon="0.19629">
        <ele>1735.87</ele>
        <time>2018-08-07T12:33:46Z</time>
      </trkpt>
      <trkpt lat="42.76094" lon="0.19638">
        <ele>1734.23</ele>
        <time>2018-08-07T12:33:47Z</time>
      </trkpt>
      <trkpt lat="42.76111" lon="0.19648">
        <ele>1733.73</ele>
        <time>2018-08-07T12:33:48Z</time>
      </trkpt>
      <trkpt lat="42.76127" lon="0.19659">
        <ele>1733.59</ele>
        <time>2018-08-07T12:33:49Z</time>
      </trkpt>
      <trkpt lat="42.76156" lon="0.19675">
        <ele>1731.92</ele>
        <time>2018-08-07T12:33:51Z</time>
      </trkpt>
      <trkpt lat="42.76184" lon="0.19688">
        <ele>1732.26</ele>
        <time>2018-08-07T12:33:53Z</time>
      </trkpt>
      <trkpt lat="42.76248" lon="0.19706">
        <ele>1731.04</ele>
        <time>2018-08-07T12:33:58Z</time>
      </trkpt>
      <trkpt lat="42.76274" lon="0.19706">
        <ele>1728.05</ele>
        <time>2018-08-07T12:34:00Z</time>
      </trkpt>
      <trkpt lat="42.76304" lon="0.19719">
        <ele>1726.17</ele>
        <time>2018-08-07T12:34:02Z</time>
      </trkpt>
      <trkpt lat="42.76334" lon="0.1973">
        <ele>1722.15</ele>
        <time>2018-08-07T12:34:04Z</time>
      </trkpt>
      <trkpt lat="42.76367" lon="0.19742">
        <ele>1719.97</ele>
        <time>2018-08-07T12:34:06Z</time>
      </trkpt>
      <trkpt lat="42.76401" lon="0.19748">
        <ele>1717.25</ele>
        <time>2018-08-07T12:34:08Z</time>
      </trkpt>
      <trkpt lat="42.7643" lon="0.19749">
        <ele>1713.37</ele>
        <time>2018-08-07T12:34:10Z</time>
      </trkpt>
      <trkpt lat="42.76455" lon="0.19743">
        <ele>1712.6</ele>
        <time>2018-08-07T12:34:12Z</time>
      </trkpt>
      <trkpt lat="42.76476" lon="0.19725">
        <ele>1709.52</ele>
        <time>2018-08-07T12:34:14Z</time>
      </trkpt>
      <trkpt lat="42.76495" lon="0.19711">
        <ele>1702.87</ele>
        <time>2018-08-07T12:34:16Z</time>
      </trkpt>
      <trkpt lat="42.76521" lon="0.19708">
        <ele>1700.94</ele>
        <time>2018-08-07T12:34:18Z</time>
      </trkpt>
      <trkpt lat="42.76549" lon="0.19727">
        <ele>1699.86</ele>
        <time>2018-08-07T12:34:20Z</time>
      </trkpt>
      <trkpt lat="42.76574" lon="0.1975">
        <ele>1697.94</ele>
        <time>2018-08-07T12:34:22Z</time>
      </trkpt>
      <trkpt lat="42.76603" lon="0.19769">
        <ele>1695.25</ele>
        <time>2018-08-07T12:34:24Z</time>
      </trkpt>
      <trkpt lat="42.76634" lon="0.19778">
        <ele>1692.28</ele>
        <time>2018-08-07T12:34:26Z</time>
      </trkpt>
      <trkpt lat="42.76663" lon="0.19787">
        <ele>1691.38</ele>
        <time>2018-08-07T12:34:28Z</time>
      </trkpt>
      <trkpt lat="42.76686" lon="0.19782">
        <ele>1688.68</ele>
        <time>2018-08-07T12:34:29Z</time>
      </trkpt>
      <trkpt lat="42.76707" lon="0.19782">
        <ele>1687.17</ele>
        <time>2018-08-07T12:34:30Z</time>
      </trkpt>
      <trkpt lat="42.76733" lon="0.19786">
        <ele>1684.06</ele>
        <time>2018-08-07T12:34:32Z</time>
      </trkpt>
      <trkpt lat="42.76756" lon="0.19803">
        <ele>1681.26</ele>
        <time>2018-08-07T12:34:34Z</time>
      </trkpt>
      <trkpt lat="42.76782" lon="0.19813">
        <ele>1678.28</ele>
        <time>2018-08-07T12:34:36Z</time>
      </trkpt>
      <trkpt lat="42.76813" lon="0.19814">
        <ele>1675.07</ele>
        <time>2018-08-07T12:34:38Z</time>
      </trkpt>
      <trkpt lat="42.76841" lon="0.19819">
        <ele>1671.84</ele>
        <time>2018-08-07T12:34:40Z</time>
      </trkpt>
      <trkpt lat="42.76869" lon="0.19846">
        <ele>1669.45</ele>
        <time>2018-08-07T12:34:42Z</time>
      </trkpt>
      <trkpt lat="42.769" lon="0.1987">
        <ele>1666.09</ele>
        <time>2018-08-07T12:34:44Z</time>
      </trkpt>
      <trkpt lat="42.76933" lon="0.19889">
        <ele>1663.96</ele>
        <time>2018-08-07T12:34:46Z</time>
      </trkpt>
      <trkpt lat="42.76961" lon="0.19904">
        <ele>1657.33</ele>
        <time>2018-08-07T12:34:48Z</time>
      </trkpt>
      <trkpt lat="42.76985" lon="0.19925">
        <ele>1653.16</ele>
        <time>2018-08-07T12:34:50Z</time>
      </trkpt>
      <trkpt lat="42.77008" lon="0.19941">
        <ele>1650.27</ele>
        <time>2018-08-07T12:34:52Z</time>
      </trkpt>
      <trkpt lat="42.77034" lon="0.19943">
        <ele>1647.49</ele>
        <time>2018-08-07T12:34:54Z</time>
      </trkpt>
      <trkpt lat="42.77059" lon="0.19936">
        <ele>1645</ele>
        <time>2018-08-07T12:34:56Z</time>
      </trkpt>
      <trkpt lat="42.77075" lon="0.19918">
        <ele>1635.6</ele>
        <time>2018-08-07T12:34:58Z</time>
      </trkpt>
      <trkpt lat="42.77103" lon="0.1991">
        <ele>1632.1</ele>
        <time>2018-08-07T12:35:00Z</time>
      </trkpt>
      <trkpt lat="42.77132" lon="0.19917">
        <ele>1630.87</ele>
        <time>2018-08-07T12:35:02Z</time>
      </trkpt>
      <trkpt lat="42.77151" lon="0.19922">
        <ele>1629.93</ele>
        <time>2018-08-07T12:35:03Z</time>
      </trkpt>
      <trkpt lat="42.77185" lon="0.19926">
        <ele>1627.95</ele>
        <time>2018-08-07T12:35:05Z</time>
      </trkpt>
      <trkpt lat="42.77219" lon="0.19922">
        <ele>1625.04</ele>
        <time>2018-08-07T12:35:07Z</time>
      </trkpt>
      <trkpt lat="42.77247" lon="0.19912">
        <ele>1622.47</ele>
        <time>2018-08-07T12:35:09Z</time>
      </trkpt>
      <trkpt lat="42.77271" lon="0.19891">
        <ele>1619.09</ele>
        <time>2018-08-07T12:35:11Z</time>
      </trkpt>
      <trkpt lat="42.77289" lon="0.19861">
        <ele>1612.55</ele>
        <time>2018-08-07T12:35:13Z</time>
      </trkpt>
      <trkpt lat="42.77315" lon="0.19842">
        <ele>1605.87</ele>
        <time>2018-08-07T12:35:15Z</time>
      </trkpt>
      <trkpt lat="42.77334" lon="0.19834">
        <ele>1603.53</ele>
        <time>2018-08-07T12:35:16Z</time>
      </trkpt>
      <trkpt lat="42.77353" lon="0.19825">
        <ele>1600.72</ele>
        <time>2018-08-07T12:35:17Z</time>
      </trkpt>
      <trkpt lat="42.77374" lon="0.19817">
        <ele>1599.18</ele>
        <time>2018-08-07T12:35:18Z</time>
      </trkpt>
      <trkpt lat="42.774" lon="0.1981">
        <ele>1597.32</ele>
        <time>2018-08-07T12:35:19Z</time>
      </trkpt>
      <trkpt lat="42.77422" lon="0.198">
        <ele>1592.56</ele>
        <time>2018-08-07T12:35:20Z</time>
      </trkpt>
      <trkpt lat="42.77444" lon="0.19793">
        <ele>1589.03</ele>
        <time>2018-08-07T12:35:21Z</time>
      </trkpt>
      <trkpt lat="42.77465" lon="0.19787">
        <ele>1585.88</ele>
        <time>2018-08-07T12:35:22Z</time>
      </trkpt>
      <trkpt lat="42.77485" lon="0.19781">
        <ele>1584.23</ele>
        <time>2018-08-07T12:35:23Z</time>
      </trkpt>
      <trkpt lat="42.77517" lon="0.19774">
        <ele>1581.28</ele>
        <time>2018-08-07T12:35:25Z</time>
      </trkpt>
      <trkpt lat="42.77541" lon="0.19775">
        <ele>1578.98</ele>
        <time>2018-08-07T12:35:27Z</time>
      </trkpt>
      <trkpt lat="42.77562" lon="0.19778">
        <ele>1576.04</ele>
        <time>2018-08-07T12:35:29Z</time>
      </trkpt>
      <trkpt lat="42.7757" lon="0.19805">
        <ele>1570.43</ele>
        <time>2018-08-07T12:35:32Z</time>
      </trkpt>
      <trkpt lat="42.77549" lon="0.19828">
        <ele>1563.41</ele>
        <time>2018-08-07T12:35:35Z</time>
      </trkpt>
      <trkpt lat="42.77524" lon="0.19831">
        <ele>1561.9</ele>
        <time>2018-08-07T12:35:37Z</time>
      </trkpt>
      <trkpt lat="42.77496" lon="0.19827">
        <ele>1560.65</ele>
        <time>2018-08-07T12:35:39Z</time>
      </trkpt>
      <trkpt lat="42.77469" lon="0.19825">
        <ele>1560.74</ele>
        <time>2018-08-07T12:35:41Z</time>
      </trkpt>
      <trkpt lat="42.77448" lon="0.19827">
        <ele>1560.75</ele>
        <time>2018-08-07T12:35:43Z</time>
      </trkpt>
      <trkpt lat="42.77433" lon="0.19852">
        <ele>1557.67</ele>
        <time>2018-08-07T12:35:46Z</time>
      </trkpt>
      <trkpt lat="42.77446" lon="0.19878">
        <ele>1554.94</ele>
        <time>2018-08-07T12:35:49Z</time>
      </trkpt>
      <trkpt lat="42.77473" lon="0.19887">
        <ele>1553.65</ele>
        <time>2018-08-07T12:35:51Z</time>
      </trkpt>
      <trkpt lat="42.77497" lon="0.19897">
        <ele>1552.62</ele>
        <time>2018-08-07T12:35:53Z</time>
      </trkpt>
      <trkpt lat="42.77521" lon="0.19903">
        <ele>1550.71</ele>
        <time>2018-08-07T12:35:55Z</time>
      </trkpt>
      <trkpt lat="42.77543" lon="0.19891">
        <ele>1548.93</ele>
        <time>2018-08-07T12:35:57Z</time>
      </trkpt>
      <trkpt lat="42.7757" lon="0.19872">
        <ele>1547.16</ele>
        <time>2018-08-07T12:35:59Z</time>
      </trkpt>
      <trkpt lat="42.77596" lon="0.19855">
        <ele>1544.06</ele>
        <time>2018-08-07T12:36:01Z</time>
      </trkpt>
      <trkpt lat="42.77613" lon="0.19837">
        <ele>1538.74</ele>
        <time>2018-08-07T12:36:03Z</time>
      </trkpt>
      <trkpt lat="42.7762" lon="0.19812">
        <ele>1536.72</ele>
        <time>2018-08-07T12:36:05Z</time>
      </trkpt>
      <trkpt lat="42.77617" lon="0.19774">
        <ele>1534.93</ele>
        <time>2018-08-07T12:36:07Z</time>
      </trkpt>
      <trkpt lat="42.77613" lon="0.1973">
        <ele>1532.25</ele>
        <time>2018-08-07T12:36:09Z</time>
      </trkpt>
      <trkpt lat="42.77612" lon="0.19686">
        <ele>1529.77</ele>
        <time>2018-08-07T12:36:11Z</time>
      </trkpt>
      <trkpt lat="42.77618" lon="0.19646">
        <ele>1527.93</ele>
        <time>2018-08-07T12:36:13Z</time>
      </trkpt>
      <trkpt lat="42.77629" lon="0.19625">
        <ele>1528.35</ele>
        <time>2018-08-07T12:36:14Z</time>
      </trkpt>
      <trkpt lat="42.7764" lon="0.19588">
        <ele>1527.81</ele>
        <time>2018-08-07T12:36:16Z</time>
      </trkpt>
      <trkpt lat="42.77643" lon="0.19556">
        <ele>1526.62</ele>
        <time>2018-08-07T12:36:19Z</time>
      </trkpt>
      <trkpt lat="42.77664" lon="0.1957">
        <ele>1526.31</ele>
        <time>2018-08-07T12:36:22Z</time>
      </trkpt>
      <trkpt lat="42.77667" lon="0.19595">
        <ele>1525.59</ele>
        <time>2018-08-07T12:36:24Z</time>
      </trkpt>
      <trkpt lat="42.77657" lon="0.19618">
        <ele>1524.14</ele>
        <time>2018-08-07T12:36:25Z</time>
      </trkpt>
      <trkpt lat="42.77655" lon="0.19656">
        <ele>1520.78</ele>
        <time>2018-08-07T12:36:27Z</time>
      </trkpt>
      <trkpt lat="42.77666" lon="0.19691">
        <ele>1517.54</ele>
        <time>2018-08-07T12:36:29Z</time>
      </trkpt>
      <trkpt lat="42.77685" lon="0.19714">
        <ele>1515</ele>
        <time>2018-08-07T12:36:31Z</time>
      </trkpt>
      <trkpt lat="42.77704" lon="0.19733">
        <ele>1509.53</ele>
        <time>2018-08-07T12:36:33Z</time>
      </trkpt>
      <trkpt lat="42.77714" lon="0.19759">
        <ele>1506.3</ele>
        <time>2018-08-07T12:36:35Z</time>
      </trkpt>
      <trkpt lat="42.77725" lon="0.19783">
        <ele>1504.84</ele>
        <time>2018-08-07T12:36:38Z</time>
      </trkpt>
      <trkpt lat="42.77735" lon="0.1976">
        <ele>1502.56</ele>
        <time>2018-08-07T12:36:42Z</time>
      </trkpt>
      <trkpt lat="42.77729" lon="0.19714">
        <ele>1499.1</ele>
        <time>2018-08-07T12:36:44Z</time>
      </trkpt>
      <trkpt lat="42.77724" lon="0.19677">
        <ele>1497.17</ele>
        <time>2018-08-07T12:36:46Z</time>
      </trkpt>
      <trkpt lat="42.77718" lon="0.19638">
        <ele>1493.08</ele>
        <time>2018-08-07T12:36:48Z</time>
      </trkpt>
      <trkpt lat="42.77713" lon="0.19598">
        <ele>1490.05</ele>
        <time>2018-08-07T12:36:50Z</time>
      </trkpt>
      <trkpt lat="42.7772" lon="0.19568">
        <ele>1486.84</ele>
        <time>2018-08-07T12:36:52Z</time>
      </trkpt>
      <trkpt lat="42.77732" lon="0.19533">
        <ele>1485.64</ele>
        <time>2018-08-07T12:36:54Z</time>
      </trkpt>
      <trkpt lat="42.77738" lon="0.19496">
        <ele>1483.92</ele>
        <time>2018-08-07T12:36:56Z</time>
      </trkpt>
      <trkpt lat="42.77745" lon="0.19469">
        <ele>1484.47</ele>
        <time>2018-08-07T12:36:58Z</time>
      </trkpt>
      <trkpt lat="42.77751" lon="0.19499">
        <ele>1478.47</ele>
        <time>2018-08-07T12:37:04Z</time>
      </trkpt>
      <trkpt lat="42.77747" lon="0.1953">
        <ele>1474.39</ele>
        <time>2018-08-07T12:37:06Z</time>
      </trkpt>
      <trkpt lat="42.7775" lon="0.19569">
        <ele>1471.08</ele>
        <time>2018-08-07T12:37:08Z</time>
      </trkpt>
      <trkpt lat="42.77761" lon="0.19612">
        <ele>1468.26</ele>
        <time>2018-08-07T12:37:10Z</time>
      </trkpt>
      <trkpt lat="42.77775" lon="0.1965">
        <ele>1466.19</ele>
        <time>2018-08-07T12:37:12Z</time>
      </trkpt>
      <trkpt lat="42.77781" lon="0.19687">
        <ele>1465.09</ele>
        <time>2018-08-07T12:37:14Z</time>
      </trkpt>
      <trkpt lat="42.77785" lon="0.1972">
        <ele>1463.87</ele>
        <time>2018-08-07T12:37:16Z</time>
      </trkpt>
      <trkpt lat="42.77788" lon="0.19745">
        <ele>1461.73</ele>
        <time>2018-08-07T12:37:18Z</time>
      </trkpt>
      <trkpt lat="42.77806" lon="0.19739">
        <ele>1458.94</ele>
        <time>2018-08-07T12:37:21Z</time>
      </trkpt>
      <trkpt lat="42.77811" lon="0.19714">
        <ele>1457.56</ele>
        <time>2018-08-07T12:37:24Z</time>
      </trkpt>
      <trkpt lat="42.778" lon="0.19688">
        <ele>1455.92</ele>
        <time>2018-08-07T12:37:26Z</time>
      </trkpt>
      <trkpt lat="42.77793" lon="0.19655">
        <ele>1453.95</ele>
        <time>2018-08-07T12:37:28Z</time>
      </trkpt>
      <trkpt lat="42.77795" lon="0.1963">
        <ele>1452.95</ele>
        <time>2018-08-07T12:37:29Z</time>
      </trkpt>
      <trkpt lat="42.77798" lon="0.19583">
        <ele>1451.65</ele>
        <time>2018-08-07T12:37:31Z</time>
      </trkpt>
      <trkpt lat="42.778" lon="0.19558">
        <ele>1450.16</ele>
        <time>2018-08-07T12:37:32Z</time>
      </trkpt>
      <trkpt lat="42.77801" lon="0.1951">
        <ele>1445.45</ele>
        <time>2018-08-07T12:37:34Z</time>
      </trkpt>
      <trkpt lat="42.77813" lon="0.19466">
        <ele>1442.51</ele>
        <time>2018-08-07T12:37:36Z</time>
      </trkpt>
      <trkpt lat="42.77829" lon="0.19424">
        <ele>1440.7</ele>
        <time>2018-08-07T12:37:38Z</time>
      </trkpt>
      <trkpt lat="42.77844" lon="0.19385">
        <ele>1439.63</ele>
        <time>2018-08-07T12:37:40Z</time>
      </trkpt>
      <trkpt lat="42.7786" lon="0.19347">
        <ele>1437.92</ele>
        <time>2018-08-07T12:37:42Z</time>
      </trkpt>
      <trkpt lat="42.77868" lon="0.19324">
        <ele>1434.84</ele>
        <time>2018-08-07T12:37:43Z</time>
      </trkpt>
      <trkpt lat="42.77873" lon="0.19279">
        <ele>1432.94</ele>
        <time>2018-08-07T12:37:45Z</time>
      </trkpt>
      <trkpt lat="42.77866" lon="0.19255">
        <ele>1431.95</ele>
        <time>2018-08-07T12:37:46Z</time>
      </trkpt>
      <trkpt lat="42.77864" lon="0.19211">
        <ele>1430.86</ele>
        <time>2018-08-07T12:37:48Z</time>
      </trkpt>
      <trkpt lat="42.77861" lon="0.19171">
        <ele>1425.44</ele>
        <time>2018-08-07T12:37:50Z</time>
      </trkpt>
      <trkpt lat="42.77862" lon="0.19133">
        <ele>1421.66</ele>
        <time>2018-08-07T12:37:52Z</time>
      </trkpt>
      <trkpt lat="42.77874" lon="0.19092">
        <ele>1418.1</ele>
        <time>2018-08-07T12:37:54Z</time>
      </trkpt>
      <trkpt lat="42.7788" lon="0.19048">
        <ele>1414.35</ele>
        <time>2018-08-07T12:37:56Z</time>
      </trkpt>
      <trkpt lat="42.77889" lon="0.19005">
        <ele>1411.99</ele>
        <time>2018-08-07T12:37:58Z</time>
      </trkpt>
      <trkpt lat="42.77899" lon="0.18965">
        <ele>1406.52</ele>
        <time>2018-08-07T12:38:00Z</time>
      </trkpt>
      <trkpt lat="42.77911" lon="0.18929">
        <ele>1402.18</ele>
        <time>2018-08-07T12:38:02Z</time>
      </trkpt>
      <trkpt lat="42.77916" lon="0.18898">
        <ele>1399.97</ele>
        <time>2018-08-07T12:38:04Z</time>
      </trkpt>
      <trkpt lat="42.77918" lon="0.18872">
        <ele>1398.86</ele>
        <time>2018-08-07T12:38:06Z</time>
      </trkpt>
      <trkpt lat="42.77927" lon="0.18848">
        <ele>1390.05</ele>
        <time>2018-08-07T12:38:10Z</time>
      </trkpt>
      <trkpt lat="42.77938" lon="0.18874">
        <ele>1388.63</ele>
        <time>2018-08-07T12:38:13Z</time>
      </trkpt>
      <trkpt lat="42.77935" lon="0.18933">
        <ele>1387.41</ele>
        <time>2018-08-07T12:38:15Z</time>
      </trkpt>
      <trkpt lat="42.77931" lon="0.18961">
        <ele>1384.69</ele>
        <time>2018-08-07T12:38:16Z</time>
      </trkpt>
      <trkpt lat="42.77933" lon="0.19008">
        <ele>1378.38</ele>
        <time>2018-08-07T12:38:18Z</time>
      </trkpt>
      <trkpt lat="42.77935" lon="0.19036">
        <ele>1376.38</ele>
        <time>2018-08-07T12:38:19Z</time>
      </trkpt>
      <trkpt lat="42.77938" lon="0.19063">
        <ele>1375.08</ele>
        <time>2018-08-07T12:38:20Z</time>
      </trkpt>
      <trkpt lat="42.77937" lon="0.1909">
        <ele>1373.99</ele>
        <time>2018-08-07T12:38:21Z</time>
      </trkpt>
      <trkpt lat="42.77936" lon="0.19116">
        <ele>1372.26</ele>
        <time>2018-08-07T12:38:22Z</time>
      </trkpt>
      <trkpt lat="42.77935" lon="0.19141">
        <ele>1371.04</ele>
        <time>2018-08-07T12:38:23Z</time>
      </trkpt>
      <trkpt lat="42.77937" lon="0.19167">
        <ele>1369.98</ele>
        <time>2018-08-07T12:38:24Z</time>
      </trkpt>
      <trkpt lat="42.77941" lon="0.19194">
        <ele>1368.26</ele>
        <time>2018-08-07T12:38:25Z</time>
      </trkpt>
      <trkpt lat="42.77945" lon="0.19219">
        <ele>1365.64</ele>
        <time>2018-08-07T12:38:26Z</time>
      </trkpt>
      <trkpt lat="42.77949" lon="0.19246">
        <ele>1364.86</ele>
        <time>2018-08-07T12:38:27Z</time>
      </trkpt>
      <trkpt lat="42.77953" lon="0.19272">
        <ele>1362.52</ele>
        <time>2018-08-07T12:38:28Z</time>
      </trkpt>
      <trkpt lat="42.77957" lon="0.193">
        <ele>1360.42</ele>
        <time>2018-08-07T12:38:29Z</time>
      </trkpt>
      <trkpt lat="42.77963" lon="0.19327">
        <ele>1358.39</ele>
        <time>2018-08-07T12:38:30Z</time>
      </trkpt>
      <trkpt lat="42.7797" lon="0.19351">
        <ele>1354.28</ele>
        <time>2018-08-07T12:38:31Z</time>
      </trkpt>
      <trkpt lat="42.77977" lon="0.19374">
        <ele>1350.95</ele>
        <time>2018-08-07T12:38:32Z</time>
      </trkpt>
      <trkpt lat="42.77993" lon="0.19421">
        <ele>1343.21</ele>
        <time>2018-08-07T12:38:34Z</time>
      </trkpt>
      <trkpt lat="42.78002" lon="0.19444">
        <ele>1341.33</ele>
        <time>2018-08-07T12:38:35Z</time>
      </trkpt>
      <trkpt lat="42.78011" lon="0.19469">
        <ele>1340.76</ele>
        <time>2018-08-07T12:38:36Z</time>
      </trkpt>
      <trkpt lat="42.78019" lon="0.19494">
        <ele>1339.89</ele>
        <time>2018-08-07T12:38:37Z</time>
      </trkpt>
      <trkpt lat="42.78027" lon="0.19541">
        <ele>1338.86</ele>
        <time>2018-08-07T12:38:39Z</time>
      </trkpt>
      <trkpt lat="42.78023" lon="0.19568">
        <ele>1338.62</ele>
        <time>2018-08-07T12:38:40Z</time>
      </trkpt>
      <trkpt lat="42.7802" lon="0.19617">
        <ele>1337.83</ele>
        <time>2018-08-07T12:38:42Z</time>
      </trkpt>
      <trkpt lat="42.78018" lon="0.19665">
        <ele>1337.55</ele>
        <time>2018-08-07T12:38:44Z</time>
      </trkpt>
      <trkpt lat="42.78024" lon="0.19708">
        <ele>1335.42</ele>
        <time>2018-08-07T12:38:46Z</time>
      </trkpt>
      <trkpt lat="42.78029" lon="0.19755">
        <ele>1332.29</ele>
        <time>2018-08-07T12:38:48Z</time>
      </trkpt>
      <trkpt lat="42.78041" lon="0.19794">
        <ele>1331.38</ele>
        <time>2018-08-07T12:38:50Z</time>
      </trkpt>
      <trkpt lat="42.78058" lon="0.19828">
        <ele>1330.81</ele>
        <time>2018-08-07T12:38:52Z</time>
      </trkpt>
      <trkpt lat="42.78078" lon="0.19859">
        <ele>1330.55</ele>
        <time>2018-08-07T12:38:54Z</time>
      </trkpt>
      <trkpt lat="42.781" lon="0.19887">
        <ele>1328</ele>
        <time>2018-08-07T12:38:56Z</time>
      </trkpt>
      <trkpt lat="42.7812" lon="0.19917">
        <ele>1326.87</ele>
        <time>2018-08-07T12:38:58Z</time>
      </trkpt>
      <trkpt lat="42.78131" lon="0.1995">
        <ele>1323.33</ele>
        <time>2018-08-07T12:39:00Z</time>
      </trkpt>
      <trkpt lat="42.78139" lon="0.19988">
        <ele>1321.9</ele>
        <time>2018-08-07T12:39:02Z</time>
      </trkpt>
      <trkpt lat="42.78148" lon="0.2003">
        <ele>1320.86</ele>
        <time>2018-08-07T12:39:04Z</time>
      </trkpt>
      <trkpt lat="42.78158" lon="0.20073">
        <ele>1318.94</ele>
        <time>2018-08-07T12:39:06Z</time>
      </trkpt>
      <trkpt lat="42.78165" lon="0.20119">
        <ele>1317.65</ele>
        <time>2018-08-07T12:39:08Z</time>
      </trkpt>
      <trkpt lat="42.78168" lon="0.20167">
        <ele>1316.13</ele>
        <time>2018-08-07T12:39:10Z</time>
      </trkpt>
      <trkpt lat="42.78173" lon="0.20208">
        <ele>1311.66</ele>
        <time>2018-08-07T12:39:12Z</time>
      </trkpt>
      <trkpt lat="42.78175" lon="0.2025">
        <ele>1308.1</ele>
        <time>2018-08-07T12:39:14Z</time>
      </trkpt>
      <trkpt lat="42.78174" lon="0.20295">
        <ele>1305.26</ele>
        <time>2018-08-07T12:39:16Z</time>
      </trkpt>
      <trkpt lat="42.78175" lon="0.20341">
        <ele>1303.19</ele>
        <time>2018-08-07T12:39:18Z</time>
      </trkpt>
      <trkpt lat="42.78176" lon="0.20386">
        <ele>1302.58</ele>
        <time>2018-08-07T12:39:20Z</time>
      </trkpt>
      <trkpt lat="42.78178" lon="0.20426">
        <ele>1300.22</ele>
        <time>2018-08-07T12:39:22Z</time>
      </trkpt>
      <trkpt lat="42.78178" lon="0.20461">
        <ele>1297.27</ele>
        <time>2018-08-07T12:39:24Z</time>
      </trkpt>
      <trkpt lat="42.7818" lon="0.20488">
        <ele>1294.66</ele>
        <time>2018-08-07T12:39:27Z</time>
      </trkpt>
      <trkpt lat="42.78197" lon="0.2047">
        <ele>1291.37</ele>
        <time>2018-08-07T12:39:31Z</time>
      </trkpt>
      <trkpt lat="42.78201" lon="0.20445">
        <ele>1288.08</ele>
        <time>2018-08-07T12:39:33Z</time>
      </trkpt>
      <trkpt lat="42.78206" lon="0.20408">
        <ele>1286.66</ele>
        <time>2018-08-07T12:39:35Z</time>
      </trkpt>
      <trkpt lat="42.78211" lon="0.20372">
        <ele>1284.92</ele>
        <time>2018-08-07T12:39:37Z</time>
      </trkpt>
      <trkpt lat="42.78217" lon="0.20343">
        <ele>1283.65</ele>
        <time>2018-08-07T12:39:39Z</time>
      </trkpt>
      <trkpt lat="42.78231" lon="0.20328">
        <ele>1279.49</ele>
        <time>2018-08-07T12:39:42Z</time>
      </trkpt>
      <trkpt lat="42.78247" lon="0.2035">
        <ele>1277.64</ele>
        <time>2018-08-07T12:39:45Z</time>
      </trkpt>
      <trkpt lat="42.78245" lon="0.20401">
        <ele>1277.53</ele>
        <time>2018-08-07T12:39:47Z</time>
      </trkpt>
      <trkpt lat="42.78242" lon="0.20441">
        <ele>1276.61</ele>
        <time>2018-08-07T12:39:49Z</time>
      </trkpt>
      <trkpt lat="42.78241" lon="0.20481">
        <ele>1273.31</ele>
        <time>2018-08-07T12:39:51Z</time>
      </trkpt>
      <trkpt lat="42.7825" lon="0.20505">
        <ele>1265.52</ele>
        <time>2018-08-07T12:39:53Z</time>
      </trkpt>
      <trkpt lat="42.78269" lon="0.20531">
        <ele>1263.91</ele>
        <time>2018-08-07T12:39:55Z</time>
      </trkpt>
      <trkpt lat="42.78292" lon="0.20556">
        <ele>1263.56</ele>
        <time>2018-08-07T12:39:57Z</time>
      </trkpt>
      <trkpt lat="42.78314" lon="0.20583">
        <ele>1264.23</ele>
        <time>2018-08-07T12:39:59Z</time>
      </trkpt>
      <trkpt lat="42.78335" lon="0.20614">
        <ele>1263.59</ele>
        <time>2018-08-07T12:40:01Z</time>
      </trkpt>
      <trkpt lat="42.78354" lon="0.20642">
        <ele>1263.53</ele>
        <time>2018-08-07T12:40:03Z</time>
      </trkpt>
      <trkpt lat="42.78374" lon="0.20659">
        <ele>1261.91</ele>
        <time>2018-08-07T12:40:05Z</time>
      </trkpt>
      <trkpt lat="42.7838" lon="0.2069">
        <ele>1260.62</ele>
        <time>2018-08-07T12:40:08Z</time>
      </trkpt>
      <trkpt lat="42.78377" lon="0.20718">
        <ele>1259.83</ele>
        <time>2018-08-07T12:40:10Z</time>
      </trkpt>
      <trkpt lat="42.78373" lon="0.20751">
        <ele>1260.04</ele>
        <time>2018-08-07T12:40:12Z</time>
      </trkpt>
      <trkpt lat="42.78372" lon="0.20786">
        <ele>1262.79</ele>
        <time>2018-08-07T12:40:14Z</time>
      </trkpt>
      <trkpt lat="42.78376" lon="0.20817">
        <ele>1261.85</ele>
        <time>2018-08-07T12:40:16Z</time>
      </trkpt>
      <trkpt lat="42.78385" lon="0.20841">
        <ele>1261.06</ele>
        <time>2018-08-07T12:40:18Z</time>
      </trkpt>
      <trkpt lat="42.78398" lon="0.20865">
        <ele>1259.66</ele>
        <time>2018-08-07T12:40:20Z</time>
      </trkpt>
      <trkpt lat="42.78412" lon="0.2089">
        <ele>1260.23</ele>
        <time>2018-08-07T12:40:22Z</time>
      </trkpt>
      <trkpt lat="42.78422" lon="0.2092">
        <ele>1258.89</ele>
        <time>2018-08-07T12:40:24Z</time>
      </trkpt>
      <trkpt lat="42.78428" lon="0.20957">
        <ele>1258.55</ele>
        <time>2018-08-07T12:40:26Z</time>
      </trkpt>
      <trkpt lat="42.78428" lon="0.21002">
        <ele>1257.82</ele>
        <time>2018-08-07T12:40:28Z</time>
      </trkpt>
      <trkpt lat="42.78429" lon="0.21048">
        <ele>1256.85</ele>
        <time>2018-08-07T12:40:30Z</time>
      </trkpt>
      <trkpt lat="42.78432" lon="0.21089">
        <ele>1256.55</ele>
        <time>2018-08-07T12:40:32Z</time>
      </trkpt>
      <trkpt lat="42.78441" lon="0.21121">
        <ele>1254</ele>
        <time>2018-08-07T12:40:34Z</time>
      </trkpt>
      <trkpt lat="42.78448" lon="0.21146">
        <ele>1253.57</ele>
        <time>2018-08-07T12:40:36Z</time>
      </trkpt>
      <trkpt lat="42.78479" lon="0.21153">
        <ele>1252.82</ele>
        <time>2018-08-07T12:40:39Z</time>
      </trkpt>
      <trkpt lat="42.78506" lon="0.2115">
        <ele>1248.42</ele>
        <time>2018-08-07T12:40:41Z</time>
      </trkpt>
      <trkpt lat="42.78534" lon="0.21151">
        <ele>1244.17</ele>
        <time>2018-08-07T12:40:43Z</time>
      </trkpt>
      <trkpt lat="42.78558" lon="0.21157">
        <ele>1241.97</ele>
        <time>2018-08-07T12:40:45Z</time>
      </trkpt>
      <trkpt lat="42.78578" lon="0.21175">
        <ele>1238.83</ele>
        <time>2018-08-07T12:40:47Z</time>
      </trkpt>
      <trkpt lat="42.78596" lon="0.21206">
        <ele>1236.24</ele>
        <time>2018-08-07T12:40:49Z</time>
      </trkpt>
      <trkpt lat="42.78619" lon="0.21235">
        <ele>1234.19</ele>
        <time>2018-08-07T12:40:51Z</time>
      </trkpt>
      <trkpt lat="42.78639" lon="0.21261">
        <ele>1232.88</ele>
        <time>2018-08-07T12:40:53Z</time>
      </trkpt>
      <trkpt lat="42.78649" lon="0.21283">
        <ele>1230.94</ele>
        <time>2018-08-07T12:40:55Z</time>
      </trkpt>
      <trkpt lat="42.78651" lon="0.21309">
        <ele>1227.83</ele>
        <time>2018-08-07T12:40:57Z</time>
      </trkpt>
      <trkpt lat="42.78646" lon="0.21346">
        <ele>1226.85</ele>
        <time>2018-08-07T12:40:59Z</time>
      </trkpt>
      <trkpt lat="42.78641" lon="0.21377">
        <ele>1226.62</ele>
        <time>2018-08-07T12:41:00Z</time>
      </trkpt>
      <trkpt lat="42.78643" lon="0.21417">
        <ele>1223.31</ele>
        <time>2018-08-07T12:41:02Z</time>
      </trkpt>
      <trkpt lat="42.78646" lon="0.21456">
        <ele>1222.59</ele>
        <time>2018-08-07T12:41:04Z</time>
      </trkpt>
      <trkpt lat="42.78648" lon="0.21497">
        <ele>1220.92</ele>
        <time>2018-08-07T12:41:06Z</time>
      </trkpt>
      <trkpt lat="42.78656" lon="0.21536">
        <ele>1218.25</ele>
        <time>2018-08-07T12:41:08Z</time>
      </trkpt>
      <trkpt lat="42.78668" lon="0.21559">
        <ele>1215.77</ele>
        <time>2018-08-07T12:41:10Z</time>
      </trkpt>
      <trkpt lat="42.78676" lon="0.21581">
        <ele>1213.93</ele>
        <time>2018-08-07T12:41:12Z</time>
      </trkpt>
      <trkpt lat="42.78688" lon="0.21601">
        <ele>1211.04</ele>
        <time>2018-08-07T12:41:14Z</time>
      </trkpt>
      <trkpt lat="42.78702" lon="0.21618">
        <ele>1210.57</ele>
        <time>2018-08-07T12:41:16Z</time>
      </trkpt>
      <trkpt lat="42.78725" lon="0.21633">
        <ele>1211.29</ele>
        <time>2018-08-07T12:41:19Z</time>
      </trkpt>
      <trkpt lat="42.78749" lon="0.21641">
        <ele>1208.93</ele>
        <time>2018-08-07T12:41:22Z</time>
      </trkpt>
      <trkpt lat="42.78766" lon="0.21656">
        <ele>1208.56</ele>
        <time>2018-08-07T12:41:24Z</time>
      </trkpt>
      <trkpt lat="42.78775" lon="0.21685">
        <ele>1209.44</ele>
        <time>2018-08-07T12:41:26Z</time>
      </trkpt>
      <trkpt lat="42.78777" lon="0.21712">
        <ele>1210.2</ele>
        <time>2018-08-07T12:41:27Z</time>
      </trkpt>
      <trkpt lat="42.78779" lon="0.21758">
        <ele>1211.19</ele>
        <time>2018-08-07T12:41:29Z</time>
      </trkpt>
      <trkpt lat="42.78783" lon="0.21805">
        <ele>1209.88</ele>
        <time>2018-08-07T12:41:31Z</time>
      </trkpt>
      <trkpt lat="42.78785" lon="0.21831">
        <ele>1210.33</ele>
        <time>2018-08-07T12:41:32Z</time>
      </trkpt>
      <trkpt lat="42.78788" lon="0.21857">
        <ele>1210.46</ele>
        <time>2018-08-07T12:41:33Z</time>
      </trkpt>
      <trkpt lat="42.78798" lon="0.21902">
        <ele>1210.52</ele>
        <time>2018-08-07T12:41:35Z</time>
      </trkpt>
      <trkpt lat="42.78814" lon="0.21939">
        <ele>1208.42</ele>
        <time>2018-08-07T12:41:37Z</time>
      </trkpt>
      <trkpt lat="42.78836" lon="0.21974">
        <ele>1206.48</ele>
        <time>2018-08-07T12:41:39Z</time>
      </trkpt>
      <trkpt lat="42.78857" lon="0.22006">
        <ele>1205.82</ele>
        <time>2018-08-07T12:41:41Z</time>
      </trkpt>
      <trkpt lat="42.7887" lon="0.22035">
        <ele>1205.34</ele>
        <time>2018-08-07T12:41:43Z</time>
      </trkpt>
      <trkpt lat="42.78875" lon="0.2207">
        <ele>1203.69</ele>
        <time>2018-08-07T12:41:45Z</time>
      </trkpt>
      <trkpt lat="42.78888" lon="0.22099">
        <ele>1200.11</ele>
        <time>2018-08-07T12:41:47Z</time>
      </trkpt>
      <trkpt lat="42.78905" lon="0.22125">
        <ele>1199.57</ele>
        <time>2018-08-07T12:41:49Z</time>
      </trkpt>
      <trkpt lat="42.78911" lon="0.22163">
        <ele>1197.92</ele>
        <time>2018-08-07T12:41:51Z</time>
      </trkpt>
      <trkpt lat="42.78907" lon="0.22202">
        <ele>1194.55</ele>
        <time>2018-08-07T12:41:53Z</time>
      </trkpt>
      <trkpt lat="42.78899" lon="0.22237">
        <ele>1190.18</ele>
        <time>2018-08-07T12:41:55Z</time>
      </trkpt>
      <trkpt lat="42.78903" lon="0.22271">
        <ele>1189.58</ele>
        <time>2018-08-07T12:41:57Z</time>
      </trkpt>
      <trkpt lat="42.78916" lon="0.22306">
        <ele>1187.43</ele>
        <time>2018-08-07T12:41:59Z</time>
      </trkpt>
      <trkpt lat="42.7893" lon="0.22349">
        <ele>1185.69</ele>
        <time>2018-08-07T12:42:01Z</time>
      </trkpt>
      <trkpt lat="42.78937" lon="0.22374">
        <ele>1184.17</ele>
        <time>2018-08-07T12:42:02Z</time>
      </trkpt>
      <trkpt lat="42.78944" lon="0.22398">
        <ele>1182.32</ele>
        <time>2018-08-07T12:42:03Z</time>
      </trkpt>
      <trkpt lat="42.7895" lon="0.22423">
        <ele>1180.36</ele>
        <time>2018-08-07T12:42:04Z</time>
      </trkpt>
      <trkpt lat="42.78957" lon="0.22447">
        <ele>1179.77</ele>
        <time>2018-08-07T12:42:05Z</time>
      </trkpt>
      <trkpt lat="42.78969" lon="0.22489">
        <ele>1178.84</ele>
        <time>2018-08-07T12:42:07Z</time>
      </trkpt>
      <trkpt lat="42.78989" lon="0.22529">
        <ele>1173.3</ele>
        <time>2018-08-07T12:42:09Z</time>
      </trkpt>
      <trkpt lat="42.79007" lon="0.22572">
        <ele>1168.67</ele>
        <time>2018-08-07T12:42:11Z</time>
      </trkpt>
      <trkpt lat="42.79015" lon="0.22595">
        <ele>1165.77</ele>
        <time>2018-08-07T12:42:12Z</time>
      </trkpt>
      <trkpt lat="42.79023" lon="0.22618">
        <ele>1162.8</ele>
        <time>2018-08-07T12:42:13Z</time>
      </trkpt>
      <trkpt lat="42.79035" lon="0.22662">
        <ele>1159.33</ele>
        <time>2018-08-07T12:42:15Z</time>
      </trkpt>
      <trkpt lat="42.79035" lon="0.22709">
        <ele>1158.59</ele>
        <time>2018-08-07T12:42:17Z</time>
      </trkpt>
      <trkpt lat="42.79035" lon="0.22752">
        <ele>1156.92</ele>
        <time>2018-08-07T12:42:19Z</time>
      </trkpt>
      <trkpt lat="42.79042" lon="0.22777">
        <ele>1153.83</ele>
        <time>2018-08-07T12:42:21Z</time>
      </trkpt>
      <trkpt lat="42.79066" lon="0.22787">
        <ele>1150.74</ele>
        <time>2018-08-07T12:42:24Z</time>
      </trkpt>
      <trkpt lat="42.79076" lon="0.22811">
        <ele>1150.53</ele>
        <time>2018-08-07T12:42:27Z</time>
      </trkpt>
      <trkpt lat="42.79061" lon="0.22838">
        <ele>1150.04</ele>
        <time>2018-08-07T12:42:30Z</time>
      </trkpt>
      <trkpt lat="42.79043" lon="0.22859">
        <ele>1148.66</ele>
        <time>2018-08-07T12:42:32Z</time>
      </trkpt>
      <trkpt lat="42.79024" lon="0.22893">
        <ele>1146.01</ele>
        <time>2018-08-07T12:42:34Z</time>
      </trkpt>
      <trkpt lat="42.79008" lon="0.22929">
        <ele>1141.16</ele>
        <time>2018-08-07T12:42:36Z</time>
      </trkpt>
      <trkpt lat="42.78992" lon="0.22961">
        <ele>1139.67</ele>
        <time>2018-08-07T12:42:38Z</time>
      </trkpt>
      <trkpt lat="42.78977" lon="0.22992">
        <ele>1137.02</ele>
        <time>2018-08-07T12:42:40Z</time>
      </trkpt>
      <trkpt lat="42.78956" lon="0.23016">
        <ele>1135.17</ele>
        <time>2018-08-07T12:42:42Z</time>
      </trkpt>
      <trkpt lat="42.78936" lon="0.23035">
        <ele>1131.15</ele>
        <time>2018-08-07T12:42:44Z</time>
      </trkpt>
      <trkpt lat="42.78919" lon="0.23053">
        <ele>1128.97</ele>
        <time>2018-08-07T12:42:46Z</time>
      </trkpt>
      <trkpt lat="42.78908" lon="0.23079">
        <ele>1126.74</ele>
        <time>2018-08-07T12:42:48Z</time>
      </trkpt>
      <trkpt lat="42.78901" lon="0.23108">
        <ele>1126.54</ele>
        <time>2018-08-07T12:42:50Z</time>
      </trkpt>
      <trkpt lat="42.78897" lon="0.23144">
        <ele>1126.52</ele>
        <time>2018-08-07T12:42:52Z</time>
      </trkpt>
      <trkpt lat="42.78896" lon="0.2318">
        <ele>1125.61</ele>
        <time>2018-08-07T12:42:54Z</time>
      </trkpt>
      <trkpt lat="42.78898" lon="0.23225">
        <ele>1123.92</ele>
        <time>2018-08-07T12:42:56Z</time>
      </trkpt>
      <trkpt lat="42.78901" lon="0.23251">
        <ele>1122.24</ele>
        <time>2018-08-07T12:42:57Z</time>
      </trkpt>
      <trkpt lat="42.78905" lon="0.23275">
        <ele>1121.04</ele>
        <time>2018-08-07T12:42:58Z</time>
      </trkpt>
      <trkpt lat="42.78911" lon="0.23301">
        <ele>1119.98</ele>
        <time>2018-08-07T12:42:59Z</time>
      </trkpt>
      <trkpt lat="42.78916" lon="0.23327">
        <ele>1118.96</ele>
        <time>2018-08-07T12:43:00Z</time>
      </trkpt>
      <trkpt lat="42.78922" lon="0.23353">
        <ele>1117.25</ele>
        <time>2018-08-07T12:43:01Z</time>
      </trkpt>
      <trkpt lat="42.78927" lon="0.23377">
        <ele>1116.04</ele>
        <time>2018-08-07T12:43:02Z</time>
      </trkpt>
      <trkpt lat="42.78935" lon="0.23418">
        <ele>1113.96</ele>
        <time>2018-08-07T12:43:04Z</time>
      </trkpt>
      <trkpt lat="42.78936" lon="0.23455">
        <ele>1111.04</ele>
        <time>2018-08-07T12:43:06Z</time>
      </trkpt>
      <trkpt lat="42.78934" lon="0.23494">
        <ele>1109.66</ele>
        <time>2018-08-07T12:43:08Z</time>
      </trkpt>
      <trkpt lat="42.78931" lon="0.23527">
        <ele>1108.13</ele>
        <time>2018-08-07T12:43:10Z</time>
      </trkpt>
      <trkpt lat="42.78924" lon="0.23554">
        <ele>1104.36</ele>
        <time>2018-08-07T12:43:12Z</time>
      </trkpt>
      <trkpt lat="42.78915" lon="0.23594">
        <ele>1101.99</ele>
        <time>2018-08-07T12:43:14Z</time>
      </trkpt>
      <trkpt lat="42.78912" lon="0.23638">
        <ele>1101.56</ele>
        <time>2018-08-07T12:43:16Z</time>
      </trkpt>
      <trkpt lat="42.78908" lon="0.23672">
        <ele>1099.71</ele>
        <time>2018-08-07T12:43:18Z</time>
      </trkpt>
      <trkpt lat="42.78902" lon="0.23705">
        <ele>1099.54</ele>
        <time>2018-08-07T12:43:20Z</time>
      </trkpt>
      <trkpt lat="42.78896" lon="0.23741">
        <ele>1099.52</ele>
        <time>2018-08-07T12:43:22Z</time>
      </trkpt>
      <trkpt lat="42.78884" lon="0.23782">
        <ele>1097.91</ele>
        <time>2018-08-07T12:43:24Z</time>
      </trkpt>
      <trkpt lat="42.78874" lon="0.23803">
        <ele>1096.24</ele>
        <time>2018-08-07T12:43:25Z</time>
      </trkpt>
      <trkpt lat="42.78863" lon="0.23823">
        <ele>1093.64</ele>
        <time>2018-08-07T12:43:26Z</time>
      </trkpt>
      <trkpt lat="42.78843" lon="0.23857">
        <ele>1091.01</ele>
        <time>2018-08-07T12:43:28Z</time>
      </trkpt>
      <trkpt lat="42.78832" lon="0.23892">
        <ele>1090.57</ele>
        <time>2018-08-07T12:43:30Z</time>
      </trkpt>
      <trkpt lat="42.78827" lon="0.23931">
        <ele>1086.82</ele>
        <time>2018-08-07T12:43:32Z</time>
      </trkpt>
      <trkpt lat="42.78815" lon="0.23972">
        <ele>1084.73</ele>
        <time>2018-08-07T12:43:34Z</time>
      </trkpt>
      <trkpt lat="42.78806" lon="0.23995">
        <ele>1083.88</ele>
        <time>2018-08-07T12:43:35Z</time>
      </trkpt>
      <trkpt lat="42.78797" lon="0.24017">
        <ele>1083.63</ele>
        <time>2018-08-07T12:43:36Z</time>
      </trkpt>
      <trkpt lat="42.78773" lon="0.24049">
        <ele>1081.01</ele>
        <time>2018-08-07T12:43:38Z</time>
      </trkpt>
      <trkpt lat="42.78749" lon="0.24075">
        <ele>1079.17</ele>
        <time>2018-08-07T12:43:40Z</time>
      </trkpt>
      <trkpt lat="42.78736" lon="0.24107">
        <ele>1077.88</ele>
        <time>2018-08-07T12:43:42Z</time>
      </trkpt>
      <trkpt lat="42.78733" lon="0.24147">
        <ele>1075.73</ele>
        <time>2018-08-07T12:43:44Z</time>
      </trkpt>
      <trkpt lat="42.78738" lon="0.24195">
        <ele>1074.63</ele>
        <time>2018-08-07T12:43:46Z</time>
      </trkpt>
      <trkpt lat="42.78743" lon="0.2424">
        <ele>1073.62</ele>
        <time>2018-08-07T12:43:48Z</time>
      </trkpt>
      <trkpt lat="42.78747" lon="0.2428">
        <ele>1072.62</ele>
        <time>2018-08-07T12:43:50Z</time>
      </trkpt>
      <trkpt lat="42.78746" lon="0.2432">
        <ele>1072.53</ele>
        <time>2018-08-07T12:43:52Z</time>
      </trkpt>
      <trkpt lat="42.78728" lon="0.2436">
        <ele>1072.03</ele>
        <time>2018-08-07T12:43:54Z</time>
      </trkpt>
      <trkpt lat="42.7872" lon="0.24388">
        <ele>1070.28</ele>
        <time>2018-08-07T12:43:55Z</time>
      </trkpt>
      <trkpt lat="42.78713" lon="0.24412">
        <ele>1069.75</ele>
        <time>2018-08-07T12:43:56Z</time>
      </trkpt>
      <trkpt lat="42.78705" lon="0.24437">
        <ele>1068.19</ele>
        <time>2018-08-07T12:43:57Z</time>
      </trkpt>
      <trkpt lat="42.78698" lon="0.24482">
        <ele>1065.06</ele>
        <time>2018-08-07T12:43:59Z</time>
      </trkpt>
      <trkpt lat="42.78702" lon="0.24525">
        <ele>1061.14</ele>
        <time>2018-08-07T12:44:01Z</time>
      </trkpt>
      <trkpt lat="42.78707" lon="0.24568">
        <ele>1059.67</ele>
        <time>2018-08-07T12:44:03Z</time>
      </trkpt>
      <trkpt lat="42.78709" lon="0.24615">
        <ele>1058.63</ele>
        <time>2018-08-07T12:44:05Z</time>
      </trkpt>
      <trkpt lat="42.78708" lon="0.24661">
        <ele>1057.83</ele>
        <time>2018-08-07T12:44:07Z</time>
      </trkpt>
      <trkpt lat="42.78706" lon="0.24686">
        <ele>1056.91</ele>
        <time>2018-08-07T12:44:08Z</time>
      </trkpt>
      <trkpt lat="42.78704" lon="0.24711">
        <ele>1056.64</ele>
        <time>2018-08-07T12:44:09Z</time>
      </trkpt>
      <trkpt lat="42.78702" lon="0.24735">
        <ele>1055.16</ele>
        <time>2018-08-07T12:44:10Z</time>
      </trkpt>
      <trkpt lat="42.78701" lon="0.24783">
        <ele>1052.76</ele>
        <time>2018-08-07T12:44:12Z</time>
      </trkpt>
      <trkpt lat="42.78704" lon="0.24829">
        <ele>1050.93</ele>
        <time>2018-08-07T12:44:14Z</time>
      </trkpt>
      <trkpt lat="42.78706" lon="0.24864">
        <ele>1050.56</ele>
        <time>2018-08-07T12:44:16Z</time>
      </trkpt>
      <trkpt lat="42.78707" lon="0.24895">
        <ele>1050.53</ele>
        <time>2018-08-07T12:44:18Z</time>
      </trkpt>
      <trkpt lat="42.78708" lon="0.24926">
        <ele>1048.91</ele>
        <time>2018-08-07T12:44:20Z</time>
      </trkpt>
      <trkpt lat="42.78713" lon="0.2496">
        <ele>1049.26</ele>
        <time>2018-08-07T12:44:22Z</time>
      </trkpt>
      <trkpt lat="42.78719" lon="0.24998">
        <ele>1049.5</ele>
        <time>2018-08-07T12:44:24Z</time>
      </trkpt>
      <trkpt lat="42.78725" lon="0.25034">
        <ele>1049.08</ele>
        <time>2018-08-07T12:44:26Z</time>
      </trkpt>
      <trkpt lat="42.78728" lon="0.25078">
        <ele>1046.52</ele>
        <time>2018-08-07T12:44:28Z</time>
      </trkpt>
      <trkpt lat="42.78727" lon="0.25109">
        <ele>1046.34</ele>
        <time>2018-08-07T12:44:29Z</time>
      </trkpt>
      <trkpt lat="42.78725" lon="0.25143">
        <ele>1045.59</ele>
        <time>2018-08-07T12:44:30Z</time>
      </trkpt>
      <trkpt lat="42.78724" lon="0.25168">
        <ele>1046.06</ele>
        <time>2018-08-07T12:44:31Z</time>
      </trkpt>
      <trkpt lat="42.78723" lon="0.25194">
        <ele>1045.51</ele>
        <time>2018-08-07T12:44:32Z</time>
      </trkpt>
      <trkpt lat="42.78717" lon="0.25219">
        <ele>1046.74</ele>
        <time>2018-08-07T12:44:33Z</time>
      </trkpt>
      <trkpt lat="42.7871" lon="0.25243">
        <ele>1047.11</ele>
        <time>2018-08-07T12:44:34Z</time>
      </trkpt>
      <trkpt lat="42.78704" lon="0.25269">
        <ele>1047.22</ele>
        <time>2018-08-07T12:44:35Z</time>
      </trkpt>
      <trkpt lat="42.78699" lon="0.25295">
        <ele>1047.25</ele>
        <time>2018-08-07T12:44:36Z</time>
      </trkpt>
      <trkpt lat="42.78696" lon="0.25321">
        <ele>1047.26</ele>
        <time>2018-08-07T12:44:37Z</time>
      </trkpt>
      <trkpt lat="42.78694" lon="0.2535">
        <ele>1047.27</ele>
        <time>2018-08-07T12:44:38Z</time>
      </trkpt>
      <trkpt lat="42.78691" lon="0.25378">
        <ele>1047.27</ele>
        <time>2018-08-07T12:44:39Z</time>
      </trkpt>
      <trkpt lat="42.78689" lon="0.25403">
        <ele>1046.57</ele>
        <time>2018-08-07T12:44:40Z</time>
      </trkpt>
      <trkpt lat="42.78689" lon="0.25429">
        <ele>1046.36</ele>
        <time>2018-08-07T12:44:41Z</time>
      </trkpt>
      <trkpt lat="42.78696" lon="0.25478">
        <ele>1042.08</ele>
        <time>2018-08-07T12:44:43Z</time>
      </trkpt>
      <trkpt lat="42.78702" lon="0.25503">
        <ele>1041.51</ele>
        <time>2018-08-07T12:44:44Z</time>
      </trkpt>
      <trkpt lat="42.78712" lon="0.25531">
        <ele>1039.94</ele>
        <time>2018-08-07T12:44:45Z</time>
      </trkpt>
      <trkpt lat="42.78724" lon="0.25553">
        <ele>1038.77</ele>
        <time>2018-08-07T12:44:46Z</time>
      </trkpt>
      <trkpt lat="42.7874" lon="0.25577">
        <ele>1037.72</ele>
        <time>2018-08-07T12:44:47Z</time>
      </trkpt>
      <trkpt lat="42.78763" lon="0.25595">
        <ele>1036.7</ele>
        <time>2018-08-07T12:44:48Z</time>
      </trkpt>
      <trkpt lat="42.78781" lon="0.25618">
        <ele>1036.4</ele>
        <time>2018-08-07T12:44:49Z</time>
      </trkpt>
      <trkpt lat="42.788" lon="0.25642">
        <ele>1035.61</ele>
        <time>2018-08-07T12:44:50Z</time>
      </trkpt>
      <trkpt lat="42.78819" lon="0.25669">
        <ele>1034.67</ele>
        <time>2018-08-07T12:44:51Z</time>
      </trkpt>
      <trkpt lat="42.78837" lon="0.25696">
        <ele>1034.39</ele>
        <time>2018-08-07T12:44:52Z</time>
      </trkpt>
      <trkpt lat="42.78855" lon="0.25722">
        <ele>1033.6</ele>
        <time>2018-08-07T12:44:53Z</time>
      </trkpt>
      <trkpt lat="42.78872" lon="0.2575">
        <ele>1031.97</ele>
        <time>2018-08-07T12:44:54Z</time>
      </trkpt>
      <trkpt lat="42.78888" lon="0.25778">
        <ele>1031.48</ele>
        <time>2018-08-07T12:44:55Z</time>
      </trkpt>
      <trkpt lat="42.78901" lon="0.25801">
        <ele>1028.53</ele>
        <time>2018-08-07T12:44:56Z</time>
      </trkpt>
      <trkpt lat="42.78914" lon="0.25829">
        <ele>1027.65</ele>
        <time>2018-08-07T12:44:57Z</time>
      </trkpt>
      <trkpt lat="42.78927" lon="0.25855">
        <ele>1027.38</ele>
        <time>2018-08-07T12:44:58Z</time>
      </trkpt>
      <trkpt lat="42.78939" lon="0.25883">
        <ele>1027.3</ele>
        <time>2018-08-07T12:44:59Z</time>
      </trkpt>
      <trkpt lat="42.78951" lon="0.2591">
        <ele>1026.58</ele>
        <time>2018-08-07T12:45:00Z</time>
      </trkpt>
      <trkpt lat="42.7896" lon="0.25936">
        <ele>1025.66</ele>
        <time>2018-08-07T12:45:01Z</time>
      </trkpt>
      <trkpt lat="42.78978" lon="0.25974">
        <ele>1022.99</ele>
        <time>2018-08-07T12:45:03Z</time>
      </trkpt>
      <trkpt lat="42.78999" lon="0.26009">
        <ele>1021.63</ele>
        <time>2018-08-07T12:45:05Z</time>
      </trkpt>
      <trkpt lat="42.7902" lon="0.26038">
        <ele>1022</ele>
        <time>2018-08-07T12:45:07Z</time>
      </trkpt>
      <trkpt lat="42.79042" lon="0.26065">
        <ele>1022.24</ele>
        <time>2018-08-07T12:45:09Z</time>
      </trkpt>
      <trkpt lat="42.79065" lon="0.26091">
        <ele>1023.87</ele>
        <time>2018-08-07T12:45:11Z</time>
      </trkpt>
      <trkpt lat="42.79089" lon="0.26117">
        <ele>1024.93</ele>
        <time>2018-08-07T12:45:13Z</time>
      </trkpt>
      <trkpt lat="42.79113" lon="0.26139">
        <ele>1025.03</ele>
        <time>2018-08-07T12:45:15Z</time>
      </trkpt>
      <trkpt lat="42.79138" lon="0.26162">
        <ele>1025.25</ele>
        <time>2018-08-07T12:45:17Z</time>
      </trkpt>
      <trkpt lat="42.79162" lon="0.26185">
        <ele>1025.27</ele>
        <time>2018-08-07T12:45:19Z</time>
      </trkpt>
      <trkpt lat="42.79189" lon="0.26212">
        <ele>1021.77</ele>
        <time>2018-08-07T12:45:21Z</time>
      </trkpt>
      <trkpt lat="42.79208" lon="0.26244">
        <ele>1020.19</ele>
        <time>2018-08-07T12:45:23Z</time>
      </trkpt>
      <trkpt lat="42.79226" lon="0.26281">
        <ele>1017.04</ele>
        <time>2018-08-07T12:45:25Z</time>
      </trkpt>
      <trkpt lat="42.79243" lon="0.26323">
        <ele>1013.82</ele>
        <time>2018-08-07T12:45:27Z</time>
      </trkpt>
      <trkpt lat="42.79251" lon="0.26346">
        <ele>1014.13</ele>
        <time>2018-08-07T12:45:28Z</time>
      </trkpt>
      <trkpt lat="42.79259" lon="0.26372">
        <ele>1014.93</ele>
        <time>2018-08-07T12:45:29Z</time>
      </trkpt>
      <trkpt lat="42.79267" lon="0.26397">
        <ele>1015.86</ele>
        <time>2018-08-07T12:45:30Z</time>
      </trkpt>
      <trkpt lat="42.79277" lon="0.26419">
        <ele>1016.85</ele>
        <time>2018-08-07T12:45:31Z</time>
      </trkpt>
      <trkpt lat="42.7929" lon="0.2644">
        <ele>1017.14</ele>
        <time>2018-08-07T12:45:32Z</time>
      </trkpt>
      <trkpt lat="42.79305" lon="0.26463">
        <ele>1017.23</ele>
        <time>2018-08-07T12:45:33Z</time>
      </trkpt>
      <trkpt lat="42.79323" lon="0.26492">
        <ele>1015.86</ele>
        <time>2018-08-07T12:45:34Z</time>
      </trkpt>
      <trkpt lat="42.79338" lon="0.26517">
        <ele>1015.44</ele>
        <time>2018-08-07T12:45:35Z</time>
      </trkpt>
      <trkpt lat="42.79353" lon="0.26543">
        <ele>1015.32</ele>
        <time>2018-08-07T12:45:36Z</time>
      </trkpt>
      <trkpt lat="42.79366" lon="0.26569">
        <ele>1015.28</ele>
        <time>2018-08-07T12:45:37Z</time>
      </trkpt>
      <trkpt lat="42.79377" lon="0.26595">
        <ele>1015.97</ele>
        <time>2018-08-07T12:45:38Z</time>
      </trkpt>
      <trkpt lat="42.79386" lon="0.26622">
        <ele>1014.78</ele>
        <time>2018-08-07T12:45:39Z</time>
      </trkpt>
      <trkpt lat="42.79392" lon="0.26649">
        <ele>1014.42</ele>
        <time>2018-08-07T12:45:40Z</time>
      </trkpt>
      <trkpt lat="42.7939" lon="0.26674">
        <ele>1013.61</ele>
        <time>2018-08-07T12:45:41Z</time>
      </trkpt>
      <trkpt lat="42.79376" lon="0.26713">
        <ele>1009.87</ele>
        <time>2018-08-07T12:45:43Z</time>
      </trkpt>
      <trkpt lat="42.79368" lon="0.26746">
        <ele>1008.41</ele>
        <time>2018-08-07T12:45:45Z</time>
      </trkpt>
      <trkpt lat="42.79366" lon="0.26782">
        <ele>1008.28</ele>
        <time>2018-08-07T12:45:47Z</time>
      </trkpt>
      <trkpt lat="42.79379" lon="0.26813">
        <ele>1005.96</ele>
        <time>2018-08-07T12:45:49Z</time>
      </trkpt>
      <trkpt lat="42.79396" lon="0.26857">
        <ele>1005.33</ele>
        <time>2018-08-07T12:45:51Z</time>
      </trkpt>
      <trkpt lat="42.79416" lon="0.26884">
        <ele>1005.99</ele>
        <time>2018-08-07T12:45:52Z</time>
      </trkpt>
      <trkpt lat="42.79442" lon="0.26917">
        <ele>1006.88</ele>
        <time>2018-08-07T12:45:53Z</time>
      </trkpt>
      <trkpt lat="42.79457" lon="0.26946">
        <ele>1007.15</ele>
        <time>2018-08-07T12:45:54Z</time>
      </trkpt>
      <trkpt lat="42.7947" lon="0.26973">
        <ele>1007.93</ele>
        <time>2018-08-07T12:45:55Z</time>
      </trkpt>
      <trkpt lat="42.79483" lon="0.26997">
        <ele>1008.17</ele>
        <time>2018-08-07T12:45:56Z</time>
      </trkpt>
      <trkpt lat="42.79493" lon="0.27022">
        <ele>1008.24</ele>
        <time>2018-08-07T12:45:57Z</time>
      </trkpt>
      <trkpt lat="42.795" lon="0.27046">
        <ele>1006.86</ele>
        <time>2018-08-07T12:45:58Z</time>
      </trkpt>
      <trkpt lat="42.79502" lon="0.27074">
        <ele>1005.04</ele>
        <time>2018-08-07T12:45:59Z</time>
      </trkpt>
      <trkpt lat="42.79508" lon="0.27099">
        <ele>1004.5</ele>
        <time>2018-08-07T12:46:00Z</time>
      </trkpt>
      <trkpt lat="42.79516" lon="0.27125">
        <ele>1002.94</ele>
        <time>2018-08-07T12:46:01Z</time>
      </trkpt>
      <trkpt lat="42.79521" lon="0.2715">
        <ele>1003.17</ele>
        <time>2018-08-07T12:46:02Z</time>
      </trkpt>
      <trkpt lat="42.79529" lon="0.27172">
        <ele>1002.54</ele>
        <time>2018-08-07T12:46:03Z</time>
      </trkpt>
      <trkpt lat="42.79544" lon="0.27194">
        <ele>1003.05</ele>
        <time>2018-08-07T12:46:04Z</time>
      </trkpt>
      <trkpt lat="42.79556" lon="0.27215">
        <ele>1003.9</ele>
        <time>2018-08-07T12:46:05Z</time>
      </trkpt>
      <trkpt lat="42.79566" lon="0.27235">
        <ele>1004.86</ele>
        <time>2018-08-07T12:46:06Z</time>
      </trkpt>
      <trkpt lat="42.79577" lon="0.27255">
        <ele>1005.14</ele>
        <time>2018-08-07T12:46:07Z</time>
      </trkpt>
      <trkpt lat="42.79588" lon="0.27275">
        <ele>1004.53</ele>
        <time>2018-08-07T12:46:08Z</time>
      </trkpt>
      <trkpt lat="42.79597" lon="0.27299">
        <ele>1003.65</ele>
        <time>2018-08-07T12:46:09Z</time>
      </trkpt>
      <trkpt lat="42.79607" lon="0.27318">
        <ele>1003.38</ele>
        <time>2018-08-07T12:46:10Z</time>
      </trkpt>
      <trkpt lat="42.7963" lon="0.27353">
        <ele>1001.46</ele>
        <time>2018-08-07T12:46:12Z</time>
      </trkpt>
      <trkpt lat="42.79652" lon="0.27383">
        <ele>1000.37</ele>
        <time>2018-08-07T12:46:14Z</time>
      </trkpt>
      <trkpt lat="42.79676" lon="0.27407">
        <ele>998.46</ele>
        <time>2018-08-07T12:46:16Z</time>
      </trkpt>
      <trkpt lat="42.79707" lon="0.27427">
        <ele>998.28</ele>
        <time>2018-08-07T12:46:18Z</time>
      </trkpt>
      <trkpt lat="42.79735" lon="0.27446">
        <ele>998.27</ele>
        <time>2018-08-07T12:46:20Z</time>
      </trkpt>
      <trkpt lat="42.79756" lon="0.27474">
        <ele>994.56</ele>
        <time>2018-08-07T12:46:22Z</time>
      </trkpt>
      <trkpt lat="42.7977" lon="0.27514">
        <ele>991.77</ele>
        <time>2018-08-07T12:46:24Z</time>
      </trkpt>
      <trkpt lat="42.79792" lon="0.27546">
        <ele>986.48</ele>
        <time>2018-08-07T12:46:26Z</time>
      </trkpt>
      <trkpt lat="42.7981" lon="0.27575">
        <ele>983.77</ele>
        <time>2018-08-07T12:46:28Z</time>
      </trkpt>
      <trkpt lat="42.79823" lon="0.27617">
        <ele>982.12</ele>
        <time>2018-08-07T12:46:30Z</time>
      </trkpt>
      <trkpt lat="42.79829" lon="0.27643">
        <ele>981.52</ele>
        <time>2018-08-07T12:46:31Z</time>
      </trkpt>
      <trkpt lat="42.79837" lon="0.27673">
        <ele>982.04</ele>
        <time>2018-08-07T12:46:32Z</time>
      </trkpt>
      <trkpt lat="42.79845" lon="0.27702">
        <ele>981.5</ele>
        <time>2018-08-07T12:46:33Z</time>
      </trkpt>
      <trkpt lat="42.79853" lon="0.27733">
        <ele>978.54</ele>
        <time>2018-08-07T12:46:34Z</time>
      </trkpt>
      <trkpt lat="42.79859" lon="0.27761">
        <ele>976.95</ele>
        <time>2018-08-07T12:46:35Z</time>
      </trkpt>
      <trkpt lat="42.79863" lon="0.27791">
        <ele>974.37</ele>
        <time>2018-08-07T12:46:36Z</time>
      </trkpt>
      <trkpt lat="42.79865" lon="0.27821">
        <ele>972.9</ele>
        <time>2018-08-07T12:46:37Z</time>
      </trkpt>
      <trkpt lat="42.79868" lon="0.27853">
        <ele>972.46</ele>
        <time>2018-08-07T12:46:38Z</time>
      </trkpt>
      <trkpt lat="42.79871" lon="0.27883">
        <ele>971.62</ele>
        <time>2018-08-07T12:46:39Z</time>
      </trkpt>
      <trkpt lat="42.79875" lon="0.27913">
        <ele>970.67</ele>
        <time>2018-08-07T12:46:40Z</time>
      </trkpt>
      <trkpt lat="42.79878" lon="0.27941">
        <ele>969.69</ele>
        <time>2018-08-07T12:46:41Z</time>
      </trkpt>
      <trkpt lat="42.79881" lon="0.27968">
        <ele>969.39</ele>
        <time>2018-08-07T12:46:42Z</time>
      </trkpt>
      <trkpt lat="42.79882" lon="0.27995">
        <ele>967.9</ele>
        <time>2018-08-07T12:46:43Z</time>
      </trkpt>
      <trkpt lat="42.79882" lon="0.2802">
        <ele>966.06</ele>
        <time>2018-08-07T12:46:44Z</time>
      </trkpt>
      <trkpt lat="42.79878" lon="0.28067">
        <ele>963.52</ele>
        <time>2018-08-07T12:46:46Z</time>
      </trkpt>
      <trkpt lat="42.79873" lon="0.28091">
        <ele>963.34</ele>
        <time>2018-08-07T12:46:47Z</time>
      </trkpt>
      <trkpt lat="42.79871" lon="0.28116">
        <ele>963.29</ele>
        <time>2018-08-07T12:46:48Z</time>
      </trkpt>
      <trkpt lat="42.79872" lon="0.28141">
        <ele>962.57</ele>
        <time>2018-08-07T12:46:49Z</time>
      </trkpt>
      <trkpt lat="42.79877" lon="0.28188">
        <ele>959.77</ele>
        <time>2018-08-07T12:46:51Z</time>
      </trkpt>
      <trkpt lat="42.79882" lon="0.28233">
        <ele>957.7</ele>
        <time>2018-08-07T12:46:53Z</time>
      </trkpt>
      <trkpt lat="42.79874" lon="0.28282">
        <ele>955.7</ele>
        <time>2018-08-07T12:46:55Z</time>
      </trkpt>
      <trkpt lat="42.79869" lon="0.28308">
        <ele>954.7</ele>
        <time>2018-08-07T12:46:56Z</time>
      </trkpt>
      <trkpt lat="42.79868" lon="0.28333">
        <ele>952.3</ele>
        <time>2018-08-07T12:46:57Z</time>
      </trkpt>
      <trkpt lat="42.79866" lon="0.2836">
        <ele>950.88</ele>
        <time>2018-08-07T12:46:58Z</time>
      </trkpt>
      <trkpt lat="42.79866" lon="0.28385">
        <ele>949.75</ele>
        <time>2018-08-07T12:46:59Z</time>
      </trkpt>
      <trkpt lat="42.79868" lon="0.28432">
        <ele>950.22</ele>
        <time>2018-08-07T12:47:01Z</time>
      </trkpt>
      <trkpt lat="42.79872" lon="0.28473">
        <ele>950.47</ele>
        <time>2018-08-07T12:47:03Z</time>
      </trkpt>
      <trkpt lat="42.79876" lon="0.28512">
        <ele>950.29</ele>
        <time>2018-08-07T12:47:05Z</time>
      </trkpt>
      <trkpt lat="42.79878" lon="0.28549">
        <ele>948.45</ele>
        <time>2018-08-07T12:47:07Z</time>
      </trkpt>
      <trkpt lat="42.79876" lon="0.28586">
        <ele>945.27</ele>
        <time>2018-08-07T12:47:09Z</time>
      </trkpt>
      <trkpt lat="42.7987" lon="0.28623">
        <ele>943.87</ele>
        <time>2018-08-07T12:47:11Z</time>
      </trkpt>
      <trkpt lat="42.79856" lon="0.28653">
        <ele>942.41</ele>
        <time>2018-08-07T12:47:13Z</time>
      </trkpt>
      <trkpt lat="42.79838" lon="0.28675">
        <ele>940.67</ele>
        <time>2018-08-07T12:47:15Z</time>
      </trkpt>
      <trkpt lat="42.79819" lon="0.28696">
        <ele>939.6</ele>
        <time>2018-08-07T12:47:17Z</time>
      </trkpt>
      <trkpt lat="42.79802" lon="0.28718">
        <ele>939</ele>
        <time>2018-08-07T12:47:20Z</time>
      </trkpt>
      <trkpt lat="42.79793" lon="0.28745">
        <ele>941.09</ele>
        <time>2018-08-07T12:47:25Z</time>
      </trkpt>
      <trkpt lat="42.79783" lon="0.28766">
        <ele>941.36</ele>
        <time>2018-08-07T12:47:32Z</time>
      </trkpt>
      <trkpt lat="42.79785" lon="0.28793">
        <ele>940.61</ele>
        <time>2018-08-07T12:47:43Z</time>
      </trkpt>
      <trkpt lat="42.7979" lon="0.28818">
        <ele>938.89</ele>
        <time>2018-08-07T12:47:47Z</time>
      </trkpt>
      <trkpt lat="42.79799" lon="0.28844">
        <ele>938.21</ele>
        <time>2018-08-07T12:47:51Z</time>
      </trkpt>
      <trkpt lat="42.79814" lon="0.28863">
        <ele>938.26</ele>
        <time>2018-08-07T12:47:53Z</time>
      </trkpt>
      <trkpt lat="42.7983" lon="0.28891">
        <ele>935.14</ele>
        <time>2018-08-07T12:47:56Z</time>
      </trkpt>
      <trkpt lat="42.79841" lon="0.28913">
        <ele>933.65</ele>
        <time>2018-08-07T12:47:58Z</time>
      </trkpt>
      <trkpt lat="42.79854" lon="0.2894">
        <ele>930.99</ele>
        <time>2018-08-07T12:48:00Z</time>
      </trkpt>
      <trkpt lat="42.79866" lon="0.2897">
        <ele>930.33</ele>
        <time>2018-08-07T12:48:02Z</time>
      </trkpt>
      <trkpt lat="42.79879" lon="0.28996">
        <ele>928.66</ele>
        <time>2018-08-07T12:48:04Z</time>
      </trkpt>
      <trkpt lat="42.79891" lon="0.29021">
        <ele>929.21</ele>
        <time>2018-08-07T12:48:06Z</time>
      </trkpt>
      <trkpt lat="42.799" lon="0.29049">
        <ele>924.22</ele>
        <time>2018-08-07T12:48:08Z</time>
      </trkpt>
      <trkpt lat="42.79905" lon="0.29081">
        <ele>921.74</ele>
        <time>2018-08-07T12:48:10Z</time>
      </trkpt>
      <trkpt lat="42.79895" lon="0.29115">
        <ele>918.79</ele>
        <time>2018-08-07T12:48:12Z</time>
      </trkpt>
      <trkpt lat="42.79883" lon="0.29146">
        <ele>917.4</ele>
        <time>2018-08-07T12:48:14Z</time>
      </trkpt>
      <trkpt lat="42.79866" lon="0.29169">
        <ele>917.98</ele>
        <time>2018-08-07T12:48:16Z</time>
      </trkpt>
      <trkpt lat="42.79845" lon="0.29176">
        <ele>916.78</ele>
        <time>2018-08-07T12:48:17Z</time>
      </trkpt>
      <trkpt lat="42.79816" lon="0.29201">
        <ele>917.01</ele>
        <time>2018-08-07T12:48:19Z</time>
      </trkpt>
      <trkpt lat="42.79793" lon="0.29229">
        <ele>916.75</ele>
        <time>2018-08-07T12:48:21Z</time>
      </trkpt>
      <trkpt lat="42.7978" lon="0.29269">
        <ele>916.31</ele>
        <time>2018-08-07T12:48:23Z</time>
      </trkpt>
      <trkpt lat="42.79774" lon="0.29294">
        <ele>914.88</ele>
        <time>2018-08-07T12:48:24Z</time>
      </trkpt>
      <trkpt lat="42.79778" lon="0.29336">
        <ele>912.92</ele>
        <time>2018-08-07T12:48:26Z</time>
      </trkpt>
      <trkpt lat="42.79784" lon="0.29378">
        <ele>911.84</ele>
        <time>2018-08-07T12:48:28Z</time>
      </trkpt>
      <trkpt lat="42.79801" lon="0.29418">
        <ele>910.62</ele>
        <time>2018-08-07T12:48:30Z</time>
      </trkpt>
      <trkpt lat="42.79821" lon="0.29436">
        <ele>910.37</ele>
        <time>2018-08-07T12:48:31Z</time>
      </trkpt>
      <trkpt lat="42.79837" lon="0.29457">
        <ele>910.3</ele>
        <time>2018-08-07T12:48:32Z</time>
      </trkpt>
      <trkpt lat="42.7985" lon="0.29477">
        <ele>909.58</ele>
        <time>2018-08-07T12:48:33Z</time>
      </trkpt>
      <trkpt lat="42.7987" lon="0.29502">
        <ele>907.96</ele>
        <time>2018-08-07T12:48:34Z</time>
      </trkpt>
      <trkpt lat="42.79886" lon="0.29531">
        <ele>907.47</ele>
        <time>2018-08-07T12:48:35Z</time>
      </trkpt>
      <trkpt lat="42.79899" lon="0.29564">
        <ele>907.33</ele>
        <time>2018-08-07T12:48:36Z</time>
      </trkpt>
      <trkpt lat="42.79918" lon="0.29601">
        <ele>906.59</ele>
        <time>2018-08-07T12:48:37Z</time>
      </trkpt>
      <trkpt lat="42.79936" lon="0.2964">
        <ele>905.66</ele>
        <time>2018-08-07T12:48:38Z</time>
      </trkpt>
      <trkpt lat="42.79951" lon="0.29674">
        <ele>904.69</ele>
        <time>2018-08-07T12:48:39Z</time>
      </trkpt>
      <trkpt lat="42.79969" lon="0.29709">
        <ele>902.99</ele>
        <time>2018-08-07T12:48:40Z</time>
      </trkpt>
      <trkpt lat="42.79985" lon="0.29738">
        <ele>902.48</ele>
        <time>2018-08-07T12:48:41Z</time>
      </trkpt>
      <trkpt lat="42.79998" lon="0.29766">
        <ele>901.63</ele>
        <time>2018-08-07T12:48:42Z</time>
      </trkpt>
      <trkpt lat="42.80012" lon="0.2979">
        <ele>899.98</ele>
        <time>2018-08-07T12:48:43Z</time>
      </trkpt>
      <trkpt lat="42.80026" lon="0.29813">
        <ele>898.78</ele>
        <time>2018-08-07T12:48:44Z</time>
      </trkpt>
      <trkpt lat="42.80042" lon="0.29835">
        <ele>898.42</ele>
        <time>2018-08-07T12:48:45Z</time>
      </trkpt>
      <trkpt lat="42.80083" lon="0.29866">
        <ele>895.97</ele>
        <time>2018-08-07T12:48:47Z</time>
      </trkpt>
      <trkpt lat="42.80101" lon="0.29885">
        <ele>894.08</ele>
        <time>2018-08-07T12:48:48Z</time>
      </trkpt>
      <trkpt lat="42.80117" lon="0.29904">
        <ele>893.51</ele>
        <time>2018-08-07T12:48:49Z</time>
      </trkpt>
      <trkpt lat="42.80135" lon="0.29924">
        <ele>893.34</ele>
        <time>2018-08-07T12:48:50Z</time>
      </trkpt>
      <trkpt lat="42.80151" lon="0.29948">
        <ele>892.59</ele>
        <time>2018-08-07T12:48:51Z</time>
      </trkpt>
      <trkpt lat="42.80166" lon="0.29971">
        <ele>892.36</ele>
        <time>2018-08-07T12:48:52Z</time>
      </trkpt>
      <trkpt lat="42.80182" lon="0.29996">
        <ele>891.6</ele>
        <time>2018-08-07T12:48:53Z</time>
      </trkpt>
      <trkpt lat="42.80195" lon="0.30018">
        <ele>890.67</ele>
        <time>2018-08-07T12:48:54Z</time>
      </trkpt>
      <trkpt lat="42.80209" lon="0.30038">
        <ele>889.69</ele>
        <time>2018-08-07T12:48:55Z</time>
      </trkpt>
      <trkpt lat="42.80223" lon="0.30059">
        <ele>889.39</ele>
        <time>2018-08-07T12:48:56Z</time>
      </trkpt>
      <trkpt lat="42.80234" lon="0.30079">
        <ele>887.9</ele>
        <time>2018-08-07T12:48:57Z</time>
      </trkpt>
      <trkpt lat="42.80247" lon="0.30099">
        <ele>886.76</ele>
        <time>2018-08-07T12:48:58Z</time>
      </trkpt>
      <trkpt lat="42.80261" lon="0.30118">
        <ele>886.41</ele>
        <time>2018-08-07T12:48:59Z</time>
      </trkpt>
      <trkpt lat="42.80279" lon="0.30153">
        <ele>886.28</ele>
        <time>2018-08-07T12:49:01Z</time>
      </trkpt>
      <trkpt lat="42.80299" lon="0.30186">
        <ele>885.36</ele>
        <time>2018-08-07T12:49:03Z</time>
      </trkpt>
      <trkpt lat="42.80319" lon="0.3022">
        <ele>883.88</ele>
        <time>2018-08-07T12:49:05Z</time>
      </trkpt>
      <trkpt lat="42.80336" lon="0.30258">
        <ele>885.14</ele>
        <time>2018-08-07T12:49:07Z</time>
      </trkpt>
      <trkpt lat="42.80353" lon="0.30294">
        <ele>884.56</ele>
        <time>2018-08-07T12:49:09Z</time>
      </trkpt>
      <trkpt lat="42.80371" lon="0.30338">
        <ele>882.47</ele>
        <time>2018-08-07T12:49:11Z</time>
      </trkpt>
      <trkpt lat="42.8038" lon="0.30363">
        <ele>882.33</ele>
        <time>2018-08-07T12:49:12Z</time>
      </trkpt>
      <trkpt lat="42.80391" lon="0.30394">
        <ele>882.29</ele>
        <time>2018-08-07T12:49:13Z</time>
      </trkpt>
      <trkpt lat="42.80401" lon="0.30422">
        <ele>882.27</ele>
        <time>2018-08-07T12:49:14Z</time>
      </trkpt>
      <trkpt lat="42.80413" lon="0.30448">
        <ele>882.27</ele>
        <time>2018-08-07T12:49:15Z</time>
      </trkpt>
      <trkpt lat="42.80424" lon="0.30473">
        <ele>882.27</ele>
        <time>2018-08-07T12:49:16Z</time>
      </trkpt>
      <trkpt lat="42.80434" lon="0.30516">
        <ele>882.48</ele>
        <time>2018-08-07T12:49:18Z</time>
      </trkpt>
      <trkpt lat="42.80447" lon="0.30554">
        <ele>883.9</ele>
        <time>2018-08-07T12:49:20Z</time>
      </trkpt>
      <trkpt lat="42.80459" lon="0.30589">
        <ele>884.44</ele>
        <time>2018-08-07T12:49:22Z</time>
      </trkpt>
      <trkpt lat="42.80472" lon="0.3062">
        <ele>884.98</ele>
        <time>2018-08-07T12:49:24Z</time>
      </trkpt>
      <trkpt lat="42.80489" lon="0.30638">
        <ele>885.18</ele>
        <time>2018-08-07T12:49:25Z</time>
      </trkpt>
      <trkpt lat="42.8051" lon="0.30681">
        <ele>884.35</ele>
        <time>2018-08-07T12:49:27Z</time>
      </trkpt>
      <trkpt lat="42.80524" lon="0.30709">
        <ele>884.29</ele>
        <time>2018-08-07T12:49:28Z</time>
      </trkpt>
      <trkpt lat="42.80539" lon="0.30738">
        <ele>884.27</ele>
        <time>2018-08-07T12:49:29Z</time>
      </trkpt>
      <trkpt lat="42.80551" lon="0.30771">
        <ele>882.87</ele>
        <time>2018-08-07T12:49:30Z</time>
      </trkpt>
      <trkpt lat="42.80563" lon="0.30805">
        <ele>879.65</ele>
        <time>2018-08-07T12:49:31Z</time>
      </trkpt>
      <trkpt lat="42.80573" lon="0.30835">
        <ele>878.68</ele>
        <time>2018-08-07T12:49:32Z</time>
      </trkpt>
      <trkpt lat="42.80583" lon="0.30866">
        <ele>877.69</ele>
        <time>2018-08-07T12:49:33Z</time>
      </trkpt>
      <trkpt lat="42.80594" lon="0.30892">
        <ele>877.39</ele>
        <time>2018-08-07T12:49:34Z</time>
      </trkpt>
      <trkpt lat="42.80604" lon="0.30918">
        <ele>877.31</ele>
        <time>2018-08-07T12:49:35Z</time>
      </trkpt>
      <trkpt lat="42.80618" lon="0.3094">
        <ele>876.58</ele>
        <time>2018-08-07T12:49:36Z</time>
      </trkpt>
      <trkpt lat="42.80637" lon="0.30957">
        <ele>875.66</ele>
        <time>2018-08-07T12:49:37Z</time>
      </trkpt>
      <trkpt lat="42.80655" lon="0.30971">
        <ele>876.09</ele>
        <time>2018-08-07T12:49:38Z</time>
      </trkpt>
      <trkpt lat="42.80688" lon="0.30987">
        <ele>874.43</ele>
        <time>2018-08-07T12:49:40Z</time>
      </trkpt>
      <trkpt lat="42.80706" lon="0.30992">
        <ele>874.32</ele>
        <time>2018-08-07T12:49:41Z</time>
      </trkpt>
      <trkpt lat="42.80736" lon="0.30978">
        <ele>874.27</ele>
        <time>2018-08-07T12:49:43Z</time>
      </trkpt>
      <trkpt lat="42.8076" lon="0.30973">
        <ele>873.36</ele>
        <time>2018-08-07T12:49:45Z</time>
      </trkpt>
      <trkpt lat="42.80782" lon="0.30973">
        <ele>873.28</ele>
        <time>2018-08-07T12:49:47Z</time>
      </trkpt>
      <trkpt lat="42.80803" lon="0.30985">
        <ele>873.27</ele>
        <time>2018-08-07T12:49:49Z</time>
      </trkpt>
      <trkpt lat="42.80813" lon="0.31009">
        <ele>873.97</ele>
        <time>2018-08-07T12:49:50Z</time>
      </trkpt>
      <trkpt lat="42.80825" lon="0.3103">
        <ele>874.18</ele>
        <time>2018-08-07T12:49:51Z</time>
      </trkpt>
      <trkpt lat="42.80836" lon="0.3105">
        <ele>874.24</ele>
        <time>2018-08-07T12:49:52Z</time>
      </trkpt>
      <trkpt lat="42.80862" lon="0.3108">
        <ele>870.13</ele>
        <time>2018-08-07T12:49:54Z</time>
      </trkpt>
      <trkpt lat="42.80887" lon="0.31104">
        <ele>867.04</ele>
        <time>2018-08-07T12:49:56Z</time>
      </trkpt>
      <trkpt lat="42.80908" lon="0.31129">
        <ele>864.03</ele>
        <time>2018-08-07T12:49:58Z</time>
      </trkpt>
      <trkpt lat="42.80917" lon="0.31159">
        <ele>863.55</ele>
        <time>2018-08-07T12:50:00Z</time>
      </trkpt>
      <trkpt lat="42.80921" lon="0.31194">
        <ele>862.38</ele>
        <time>2018-08-07T12:50:02Z</time>
      </trkpt>
      <trkpt lat="42.80925" lon="0.31227">
        <ele>861.16</ele>
        <time>2018-08-07T12:50:04Z</time>
      </trkpt>
      <trkpt lat="42.80931" lon="0.3126">
        <ele>861.05</ele>
        <time>2018-08-07T12:50:06Z</time>
      </trkpt>
      <trkpt lat="42.80945" lon="0.31276">
        <ele>858.94</ele>
        <time>2018-08-07T12:50:08Z</time>
      </trkpt>
      <trkpt lat="42.80961" lon="0.31292">
        <ele>858.33</ele>
        <time>2018-08-07T12:50:10Z</time>
      </trkpt>
      <trkpt lat="42.80985" lon="0.31298">
        <ele>858.48</ele>
        <time>2018-08-07T12:50:12Z</time>
      </trkpt>
      <trkpt lat="42.81007" lon="0.31316">
        <ele>855.07</ele>
        <time>2018-08-07T12:50:14Z</time>
      </trkpt>
      <trkpt lat="42.81034" lon="0.31338">
        <ele>854.34</ele>
        <time>2018-08-07T12:50:16Z</time>
      </trkpt>
      <trkpt lat="42.8106" lon="0.31369">
        <ele>854.27</ele>
        <time>2018-08-07T12:50:18Z</time>
      </trkpt>
      <trkpt lat="42.81073" lon="0.31393">
        <ele>854.97</ele>
        <time>2018-08-07T12:50:19Z</time>
      </trkpt>
      <trkpt lat="42.81087" lon="0.31413">
        <ele>854.48</ele>
        <time>2018-08-07T12:50:20Z</time>
      </trkpt>
      <trkpt lat="42.811" lon="0.3143">
        <ele>852.23</ele>
        <time>2018-08-07T12:50:21Z</time>
      </trkpt>
      <trkpt lat="42.81112" lon="0.31451">
        <ele>850.86</ele>
        <time>2018-08-07T12:50:22Z</time>
      </trkpt>
      <trkpt lat="42.81123" lon="0.31472">
        <ele>849.74</ele>
        <time>2018-08-07T12:50:23Z</time>
      </trkpt>
      <trkpt lat="42.81138" lon="0.31517">
        <ele>846.79</ele>
        <time>2018-08-07T12:50:25Z</time>
      </trkpt>
      <trkpt lat="42.81155" lon="0.31558">
        <ele>844.7</ele>
        <time>2018-08-07T12:50:27Z</time>
      </trkpt>
      <trkpt lat="42.81174" lon="0.31587">
        <ele>844.31</ele>
        <time>2018-08-07T12:50:29Z</time>
      </trkpt>
      <trkpt lat="42.81188" lon="0.31615">
        <ele>841.75</ele>
        <time>2018-08-07T12:50:31Z</time>
      </trkpt>
      <trkpt lat="42.81198" lon="0.31642">
        <ele>841.31</ele>
        <time>2018-08-07T12:50:33Z</time>
      </trkpt>
      <trkpt lat="42.81203" lon="0.31676">
        <ele>841.27</ele>
        <time>2018-08-07T12:50:35Z</time>
      </trkpt>
      <trkpt lat="42.81204" lon="0.31702">
        <ele>842.18</ele>
        <time>2018-08-07T12:50:37Z</time>
      </trkpt>
      <trkpt lat="42.81212" lon="0.31729">
        <ele>842.47</ele>
        <time>2018-08-07T12:50:39Z</time>
      </trkpt>
      <trkpt lat="42.81225" lon="0.31756">
        <ele>843.2</ele>
        <time>2018-08-07T12:50:41Z</time>
      </trkpt>
      <trkpt lat="42.81244" lon="0.31793">
        <ele>843.96</ele>
        <time>2018-08-07T12:50:43Z</time>
      </trkpt>
      <trkpt lat="42.81259" lon="0.31825">
        <ele>843.33</ele>
        <time>2018-08-07T12:50:45Z</time>
      </trkpt>
      <trkpt lat="42.81272" lon="0.31863">
        <ele>842.57</ele>
        <time>2018-08-07T12:50:47Z</time>
      </trkpt>
      <trkpt lat="42.8128" lon="0.31908">
        <ele>841.59</ele>
        <time>2018-08-07T12:50:49Z</time>
      </trkpt>
      <trkpt lat="42.81275" lon="0.31955">
        <ele>839.2</ele>
        <time>2018-08-07T12:50:51Z</time>
      </trkpt>
      <trkpt lat="42.81283" lon="0.31998">
        <ele>837.44</ele>
        <time>2018-08-07T12:50:53Z</time>
      </trkpt>
      <trkpt lat="42.81281" lon="0.32043">
        <ele>837.98</ele>
        <time>2018-08-07T12:50:55Z</time>
      </trkpt>
      <trkpt lat="42.81279" lon="0.32068">
        <ele>838.88</ele>
        <time>2018-08-07T12:50:56Z</time>
      </trkpt>
      <trkpt lat="42.81273" lon="0.32115">
        <ele>841.75</ele>
        <time>2018-08-07T12:50:58Z</time>
      </trkpt>
      <trkpt lat="42.81273" lon="0.3216">
        <ele>842.22</ele>
        <time>2018-08-07T12:51:00Z</time>
      </trkpt>
      <trkpt lat="42.81285" lon="0.32202">
        <ele>842.96</ele>
        <time>2018-08-07T12:51:02Z</time>
      </trkpt>
      <trkpt lat="42.81289" lon="0.32246">
        <ele>844.64</ele>
        <time>2018-08-07T12:51:04Z</time>
      </trkpt>
      <trkpt lat="42.81283" lon="0.3229">
        <ele>845.42</ele>
        <time>2018-08-07T12:51:06Z</time>
      </trkpt>
      <trkpt lat="42.81272" lon="0.32326">
        <ele>845.28</ele>
        <time>2018-08-07T12:51:08Z</time>
      </trkpt>
      <trkpt lat="42.81274" lon="0.32356">
        <ele>848.28</ele>
        <time>2018-08-07T12:51:10Z</time>
      </trkpt>
      <trkpt lat="42.8129" lon="0.32389">
        <ele>850.79</ele>
        <time>2018-08-07T12:51:12Z</time>
      </trkpt>
      <trkpt lat="42.81307" lon="0.32432">
        <ele>853.53</ele>
        <time>2018-08-07T12:51:14Z</time>
      </trkpt>
      <trkpt lat="42.81317" lon="0.32454">
        <ele>854.75</ele>
        <time>2018-08-07T12:51:15Z</time>
      </trkpt>
      <trkpt lat="42.81332" lon="0.32496">
        <ele>855.43</ele>
        <time>2018-08-07T12:51:17Z</time>
      </trkpt>
      <trkpt lat="42.8134" lon="0.3252">
        <ele>855.32</ele>
        <time>2018-08-07T12:51:18Z</time>
      </trkpt>
      <trkpt lat="42.81348" lon="0.32542">
        <ele>855.28</ele>
        <time>2018-08-07T12:51:19Z</time>
      </trkpt>
      <trkpt lat="42.8136" lon="0.32561">
        <ele>855.97</ele>
        <time>2018-08-07T12:51:20Z</time>
      </trkpt>
      <trkpt lat="42.81382" lon="0.32593">
        <ele>857.85</ele>
        <time>2018-08-07T12:51:22Z</time>
      </trkpt>
      <trkpt lat="42.81397" lon="0.32628">
        <ele>858.93</ele>
        <time>2018-08-07T12:51:24Z</time>
      </trkpt>
      <trkpt lat="42.81407" lon="0.32654">
        <ele>857.84</ele>
        <time>2018-08-07T12:51:26Z</time>
      </trkpt>
      <trkpt lat="42.81426" lon="0.3268">
        <ele>858.02</ele>
        <time>2018-08-07T12:51:28Z</time>
      </trkpt>
      <trkpt lat="42.81455" lon="0.32681">
        <ele>859.85</ele>
        <time>2018-08-07T12:51:30Z</time>
      </trkpt>
      <trkpt lat="42.8149" lon="0.32695">
        <ele>861.14</ele>
        <time>2018-08-07T12:51:32Z</time>
      </trkpt>
      <trkpt lat="42.81516" lon="0.32717">
        <ele>862.17</ele>
        <time>2018-08-07T12:51:34Z</time>
      </trkpt>
      <trkpt lat="42.81534" lon="0.32732">
        <ele>862.94</ele>
        <time>2018-08-07T12:51:35Z</time>
      </trkpt>
      <trkpt lat="42.8155" lon="0.32748">
        <ele>864.57</ele>
        <time>2018-08-07T12:51:36Z</time>
      </trkpt>
      <trkpt lat="42.81574" lon="0.32769">
        <ele>865.69</ele>
        <time>2018-08-07T12:51:38Z</time>
      </trkpt>
      <trkpt lat="42.81588" lon="0.32796">
        <ele>866.92</ele>
        <time>2018-08-07T12:51:40Z</time>
      </trkpt>
      <trkpt lat="42.81598" lon="0.32834">
        <ele>869.76</ele>
        <time>2018-08-07T12:51:42Z</time>
      </trkpt>
      <trkpt lat="42.8161" lon="0.32871">
        <ele>872.74</ele>
        <time>2018-08-07T12:51:44Z</time>
      </trkpt>
      <trkpt lat="42.81619" lon="0.329">
        <ele>875.53</ele>
        <time>2018-08-07T12:51:46Z</time>
      </trkpt>
      <trkpt lat="42.81619" lon="0.32934">
        <ele>877.11</ele>
        <time>2018-08-07T12:51:48Z</time>
      </trkpt>
      <trkpt lat="42.81621" lon="0.32977">
        <ele>876.34</ele>
        <time>2018-08-07T12:51:50Z</time>
      </trkpt>
      <trkpt lat="42.8163" lon="0.33018">
        <ele>875.36</ele>
        <time>2018-08-07T12:51:52Z</time>
      </trkpt>
      <trkpt lat="42.81642" lon="0.33037">
        <ele>876.7</ele>
        <time>2018-08-07T12:51:53Z</time>
      </trkpt>
      <trkpt lat="42.81663" lon="0.33073">
        <ele>877.22</ele>
        <time>2018-08-07T12:51:55Z</time>
      </trkpt>
      <trkpt lat="42.81688" lon="0.33109">
        <ele>878.87</ele>
        <time>2018-08-07T12:51:57Z</time>
      </trkpt>
      <trkpt lat="42.81708" lon="0.33119">
        <ele>879.85</ele>
        <time>2018-08-07T12:51:58Z</time>
      </trkpt>
      <trkpt lat="42.81751" lon="0.33128">
        <ele>882.75</ele>
        <time>2018-08-07T12:52:00Z</time>
      </trkpt>
      <trkpt lat="42.8177" lon="0.33135">
        <ele>883.11</ele>
        <time>2018-08-07T12:52:01Z</time>
      </trkpt>
      <trkpt lat="42.81788" lon="0.33138">
        <ele>883.22</ele>
        <time>2018-08-07T12:52:02Z</time>
      </trkpt>
      <trkpt lat="42.81806" lon="0.33134">
        <ele>883.25</ele>
        <time>2018-08-07T12:52:03Z</time>
      </trkpt>
      <trkpt lat="42.81824" lon="0.3313">
        <ele>883.96</ele>
        <time>2018-08-07T12:52:04Z</time>
      </trkpt>
      <trkpt lat="42.81857" lon="0.33125">
        <ele>885.85</ele>
        <time>2018-08-07T12:52:06Z</time>
      </trkpt>
      <trkpt lat="42.81885" lon="0.3313">
        <ele>888.75</ele>
        <time>2018-08-07T12:52:08Z</time>
      </trkpt>
      <trkpt lat="42.81909" lon="0.33142">
        <ele>891.74</ele>
        <time>2018-08-07T12:52:10Z</time>
      </trkpt>
      <trkpt lat="42.8193" lon="0.33168">
        <ele>894.53</ele>
        <time>2018-08-07T12:52:12Z</time>
      </trkpt>
      <trkpt lat="42.81942" lon="0.33203">
        <ele>895.2</ele>
        <time>2018-08-07T12:52:14Z</time>
      </trkpt>
      <trkpt lat="42.81944" lon="0.33241">
        <ele>896.87</ele>
        <time>2018-08-07T12:52:16Z</time>
      </trkpt>
      <trkpt lat="42.81945" lon="0.33277">
        <ele>898.14</ele>
        <time>2018-08-07T12:52:18Z</time>
      </trkpt>
      <trkpt lat="42.81943" lon="0.33312">
        <ele>898.26</ele>
        <time>2018-08-07T12:52:20Z</time>
      </trkpt>
      <trkpt lat="42.81943" lon="0.33343">
        <ele>900.58</ele>
        <time>2018-08-07T12:52:22Z</time>
      </trkpt>
      <trkpt lat="42.81941" lon="0.33371">
        <ele>902.86</ele>
        <time>2018-08-07T12:52:25Z</time>
      </trkpt>
      <trkpt lat="42.81937" lon="0.33401">
        <ele>904.17</ele>
        <time>2018-08-07T12:52:28Z</time>
      </trkpt>
      <trkpt lat="42.81938" lon="0.33426">
        <ele>904.29</ele>
        <time>2018-08-07T12:52:32Z</time>
      </trkpt>
      <trkpt lat="42.81933" lon="0.33456">
        <ele>905.6</ele>
        <time>2018-08-07T12:52:35Z</time>
      </trkpt>
      <trkpt lat="42.81925" lon="0.33479">
        <ele>906.91</ele>
        <time>2018-08-07T12:52:37Z</time>
      </trkpt>
      <trkpt lat="42.81914" lon="0.33499">
        <ele>906.32</ele>
        <time>2018-08-07T12:52:39Z</time>
      </trkpt>
      <trkpt lat="42.81904" lon="0.33522">
        <ele>906.27</ele>
        <time>2018-08-07T12:52:41Z</time>
      </trkpt>
      <trkpt lat="42.81894" lon="0.33553">
        <ele>906.97</ele>
        <time>2018-08-07T12:52:43Z</time>
      </trkpt>
      <trkpt lat="42.81893" lon="0.33593">
        <ele>908.85</ele>
        <time>2018-08-07T12:52:45Z</time>
      </trkpt>
      <trkpt lat="42.8189" lon="0.33633">
        <ele>909.23</ele>
        <time>2018-08-07T12:52:47Z</time>
      </trkpt>
      <trkpt lat="42.81878" lon="0.33676">
        <ele>908.35</ele>
        <time>2018-08-07T12:52:49Z</time>
      </trkpt>
      <trkpt lat="42.81863" lon="0.33722">
        <ele>909.18</ele>
        <time>2018-08-07T12:52:51Z</time>
      </trkpt>
      <trkpt lat="42.81859" lon="0.33748">
        <ele>909.94</ele>
        <time>2018-08-07T12:52:52Z</time>
      </trkpt>
      <trkpt lat="42.81859" lon="0.33774">
        <ele>910.87</ele>
        <time>2018-08-07T12:52:53Z</time>
      </trkpt>
      <trkpt lat="42.81859" lon="0.33802">
        <ele>911.15</ele>
        <time>2018-08-07T12:52:54Z</time>
      </trkpt>
      <trkpt lat="42.81858" lon="0.33829">
        <ele>911.23</ele>
        <time>2018-08-07T12:52:55Z</time>
      </trkpt>
      <trkpt lat="42.81861" lon="0.33854">
        <ele>911.96</ele>
        <time>2018-08-07T12:52:56Z</time>
      </trkpt>
      <trkpt lat="42.81862" lon="0.33901">
        <ele>915.46</ele>
        <time>2018-08-07T12:52:58Z</time>
      </trkpt>
      <trkpt lat="42.81857" lon="0.33939">
        <ele>916.19</ele>
        <time>2018-08-07T12:53:00Z</time>
      </trkpt>
      <trkpt lat="42.81847" lon="0.33966">
        <ele>917.17</ele>
        <time>2018-08-07T12:53:02Z</time>
      </trkpt>
      <trkpt lat="42.8182" lon="0.33975">
        <ele>917.05</ele>
        <time>2018-08-07T12:53:04Z</time>
      </trkpt>
      <trkpt lat="42.81794" lon="0.33999">
        <ele>917.46</ele>
        <time>2018-08-07T12:53:06Z</time>
      </trkpt>
      <trkpt lat="42.81773" lon="0.34035">
        <ele>916.37</ele>
        <time>2018-08-07T12:53:08Z</time>
      </trkpt>
      <trkpt lat="42.81764" lon="0.34065">
        <ele>917.7</ele>
        <time>2018-08-07T12:53:09Z</time>
      </trkpt>
      <trkpt lat="42.81755" lon="0.34089">
        <ele>918.8</ele>
        <time>2018-08-07T12:53:10Z</time>
      </trkpt>
      <trkpt lat="42.81743" lon="0.34112">
        <ele>919.13</ele>
        <time>2018-08-07T12:53:11Z</time>
      </trkpt>
      <trkpt lat="42.8173" lon="0.34134">
        <ele>920.62</ele>
        <time>2018-08-07T12:53:12Z</time>
      </trkpt>
      <trkpt lat="42.81717" lon="0.34156">
        <ele>921.07</ele>
        <time>2018-08-07T12:53:13Z</time>
      </trkpt>
      <trkpt lat="42.81702" lon="0.3418">
        <ele>922.61</ele>
        <time>2018-08-07T12:53:14Z</time>
      </trkpt>
      <trkpt lat="42.81689" lon="0.34202">
        <ele>923.07</ele>
        <time>2018-08-07T12:53:15Z</time>
      </trkpt>
      <trkpt lat="42.81673" lon="0.34222">
        <ele>923.21</ele>
        <time>2018-08-07T12:53:16Z</time>
      </trkpt>
      <trkpt lat="42.81657" lon="0.34242">
        <ele>923.95</ele>
        <time>2018-08-07T12:53:17Z</time>
      </trkpt>
      <trkpt lat="42.81633" lon="0.34281">
        <ele>926.76</ele>
        <time>2018-08-07T12:53:19Z</time>
      </trkpt>
      <trkpt lat="42.81615" lon="0.34309">
        <ele>926.31</ele>
        <time>2018-08-07T12:53:21Z</time>
      </trkpt>
      <trkpt lat="42.81604" lon="0.3433">
        <ele>926.48</ele>
        <time>2018-08-07T12:53:23Z</time>
      </trkpt>
      <trkpt lat="42.81603" lon="0.34356">
        <ele>930.19</ele>
        <time>2018-08-07T12:53:26Z</time>
      </trkpt>
      <trkpt lat="42.81625" lon="0.34358">
        <ele>931.64</ele>
        <time>2018-08-07T12:53:27Z</time>
      </trkpt>
      <trkpt lat="42.81647" lon="0.34357">
        <ele>933.48</ele>
        <time>2018-08-07T12:53:28Z</time>
      </trkpt>
      <trkpt lat="42.81671" lon="0.34357">
        <ele>934.73</ele>
        <time>2018-08-07T12:53:29Z</time>
      </trkpt>
      <trkpt lat="42.81697" lon="0.34358">
        <ele>939.35</ele>
        <time>2018-08-07T12:53:31Z</time>
      </trkpt>
      <trkpt lat="42.81715" lon="0.34366">
        <ele>940.6</ele>
        <time>2018-08-07T12:53:33Z</time>
      </trkpt>
      <trkpt lat="42.81703" lon="0.34384">
        <ele>943.5</ele>
        <time>2018-08-07T12:53:36Z</time>
      </trkpt>
      <trkpt lat="42.81681" lon="0.34392">
        <ele>948.33</ele>
        <time>2018-08-07T12:53:38Z</time>
      </trkpt>
      <trkpt lat="42.81658" lon="0.34388">
        <ele>951.49</ele>
        <time>2018-08-07T12:53:40Z</time>
      </trkpt>
      <trkpt lat="42.8164" lon="0.34377">
        <ele>954.72</ele>
        <time>2018-08-07T12:53:42Z</time>
      </trkpt>
      <trkpt lat="42.81621" lon="0.344">
        <ele>956.25</ele>
        <time>2018-08-07T12:53:46Z</time>
      </trkpt>
      <trkpt lat="42.81648" lon="0.34419">
        <ele>959.28</ele>
        <time>2018-08-07T12:53:48Z</time>
      </trkpt>
      <trkpt lat="42.81673" lon="0.34439">
        <ele>962.49</ele>
        <time>2018-08-07T12:53:50Z</time>
      </trkpt>
      <trkpt lat="42.81697" lon="0.34453">
        <ele>965.51</ele>
        <time>2018-08-07T12:53:52Z</time>
      </trkpt>
      <trkpt lat="42.81725" lon="0.34462">
        <ele>967.81</ele>
        <time>2018-08-07T12:53:54Z</time>
      </trkpt>
      <trkpt lat="42.81751" lon="0.34457">
        <ele>969.14</ele>
        <time>2018-08-07T12:53:56Z</time>
      </trkpt>
      <trkpt lat="42.81778" lon="0.34435">
        <ele>969.96</ele>
        <time>2018-08-07T12:53:58Z</time>
      </trkpt>
      <trkpt lat="42.81799" lon="0.34408">
        <ele>973.67</ele>
        <time>2018-08-07T12:54:00Z</time>
      </trkpt>
      <trkpt lat="42.81818" lon="0.34373">
        <ele>974.91</ele>
        <time>2018-08-07T12:54:02Z</time>
      </trkpt>
      <trkpt lat="42.81835" lon="0.34341">
        <ele>976.85</ele>
        <time>2018-08-07T12:54:04Z</time>
      </trkpt>
      <trkpt lat="42.81853" lon="0.3432">
        <ele>979.54</ele>
        <time>2018-08-07T12:54:06Z</time>
      </trkpt>
      <trkpt lat="42.81878" lon="0.34319">
        <ele>982.83</ele>
        <time>2018-08-07T12:54:09Z</time>
      </trkpt>
      <trkpt lat="42.81858" lon="0.34338">
        <ele>988.56</ele>
        <time>2018-08-07T12:54:14Z</time>
      </trkpt>
      <trkpt lat="42.81841" lon="0.34362">
        <ele>990.92</ele>
        <time>2018-08-07T12:54:17Z</time>
      </trkpt>
      <trkpt lat="42.81832" lon="0.34393">
        <ele>992.85</ele>
        <time>2018-08-07T12:54:19Z</time>
      </trkpt>
      <trkpt lat="42.81822" lon="0.34432">
        <ele>994.14</ele>
        <time>2018-08-07T12:54:21Z</time>
      </trkpt>
      <trkpt lat="42.81809" lon="0.34475">
        <ele>996.78</ele>
        <time>2018-08-07T12:54:23Z</time>
      </trkpt>
      <trkpt lat="42.81798" lon="0.34521">
        <ele>998.62</ele>
        <time>2018-08-07T12:54:25Z</time>
      </trkpt>
      <trkpt lat="42.81784" lon="0.34561">
        <ele>1001.52</ele>
        <time>2018-08-07T12:54:27Z</time>
      </trkpt>
      <trkpt lat="42.81767" lon="0.34593">
        <ele>1004.3</ele>
        <time>2018-08-07T12:54:29Z</time>
      </trkpt>
      <trkpt lat="42.81749" lon="0.34614">
        <ele>1006.79</ele>
        <time>2018-08-07T12:54:31Z</time>
      </trkpt>
      <trkpt lat="42.81727" lon="0.34619">
        <ele>1008.83</ele>
        <time>2018-08-07T12:54:33Z</time>
      </trkpt>
      <trkpt lat="42.81702" lon="0.34634">
        <ele>1013.36</ele>
        <time>2018-08-07T12:54:35Z</time>
      </trkpt>
      <trkpt lat="42.81674" lon="0.34653">
        <ele>1016.5</ele>
        <time>2018-08-07T12:54:37Z</time>
      </trkpt>
      <trkpt lat="42.81656" lon="0.34661">
        <ele>1019.14</ele>
        <time>2018-08-07T12:54:38Z</time>
      </trkpt>
      <trkpt lat="42.81624" lon="0.3467">
        <ele>1024.3</ele>
        <time>2018-08-07T12:54:40Z</time>
      </trkpt>
      <trkpt lat="42.81591" lon="0.34681">
        <ele>1029.1</ele>
        <time>2018-08-07T12:54:42Z</time>
      </trkpt>
      <trkpt lat="42.81558" lon="0.34697">
        <ele>1034.08</ele>
        <time>2018-08-07T12:54:44Z</time>
      </trkpt>
      <trkpt lat="42.8153" lon="0.34726">
        <ele>1038.38</ele>
        <time>2018-08-07T12:54:46Z</time>
      </trkpt>
      <trkpt lat="42.81502" lon="0.34755">
        <ele>1041.71</ele>
        <time>2018-08-07T12:54:48Z</time>
      </trkpt>
      <trkpt lat="42.81483" lon="0.34767">
        <ele>1044.2</ele>
        <time>2018-08-07T12:54:49Z</time>
      </trkpt>
      <trkpt lat="42.81462" lon="0.34776">
        <ele>1046.35</ele>
        <time>2018-08-07T12:54:50Z</time>
      </trkpt>
      <trkpt lat="42.81439" lon="0.34783">
        <ele>1048.39</ele>
        <time>2018-08-07T12:54:51Z</time>
      </trkpt>
      <trkpt lat="42.81416" lon="0.3479">
        <ele>1051.1</ele>
        <time>2018-08-07T12:54:52Z</time>
      </trkpt>
      <trkpt lat="42.81393" lon="0.34797">
        <ele>1053.32</ele>
        <time>2018-08-07T12:54:53Z</time>
      </trkpt>
      <trkpt lat="42.8137" lon="0.348">
        <ele>1056.08</ele>
        <time>2018-08-07T12:54:54Z</time>
      </trkpt>
      <trkpt lat="42.81345" lon="0.34799">
        <ele>1058.31</ele>
        <time>2018-08-07T12:54:55Z</time>
      </trkpt>
      <trkpt lat="42.81321" lon="0.34798">
        <ele>1060.38</ele>
        <time>2018-08-07T12:54:56Z</time>
      </trkpt>
      <trkpt lat="42.81297" lon="0.34798">
        <ele>1063.1</ele>
        <time>2018-08-07T12:54:57Z</time>
      </trkpt>
      <trkpt lat="42.81274" lon="0.34799">
        <ele>1065.32</ele>
        <time>2018-08-07T12:54:58Z</time>
      </trkpt>
      <trkpt lat="42.81252" lon="0.34799">
        <ele>1067.38</ele>
        <time>2018-08-07T12:54:59Z</time>
      </trkpt>
      <trkpt lat="42.81231" lon="0.34796">
        <ele>1070.1</ele>
        <time>2018-08-07T12:55:00Z</time>
      </trkpt>
      <trkpt lat="42.81209" lon="0.34789">
        <ele>1073.02</ele>
        <time>2018-08-07T12:55:01Z</time>
      </trkpt>
      <trkpt lat="42.81189" lon="0.34779">
        <ele>1075.29</ele>
        <time>2018-08-07T12:55:02Z</time>
      </trkpt>
      <trkpt lat="42.81168" lon="0.34768">
        <ele>1076.67</ele>
        <time>2018-08-07T12:55:03Z</time>
      </trkpt>
      <trkpt lat="42.81152" lon="0.34752">
        <ele>1077.79</ele>
        <time>2018-08-07T12:55:04Z</time>
      </trkpt>
      <trkpt lat="42.81136" lon="0.34738">
        <ele>1078.12</ele>
        <time>2018-08-07T12:55:05Z</time>
      </trkpt>
      <trkpt lat="42.81113" lon="0.34722">
        <ele>1077.76</ele>
        <time>2018-08-07T12:55:07Z</time>
      </trkpt>
      <trkpt lat="42.8109" lon="0.34724">
        <ele>1081.82</ele>
        <time>2018-08-07T12:55:11Z</time>
      </trkpt>
      <trkpt lat="42.81091" lon="0.34758">
        <ele>1084.05</ele>
        <time>2018-08-07T12:55:13Z</time>
      </trkpt>
      <trkpt lat="42.81116" lon="0.34805">
        <ele>1086.07</ele>
        <time>2018-08-07T12:55:15Z</time>
      </trkpt>
      <trkpt lat="42.81129" lon="0.34827">
        <ele>1086.91</ele>
        <time>2018-08-07T12:55:16Z</time>
      </trkpt>
      <trkpt lat="42.81157" lon="0.34859">
        <ele>1088.56</ele>
        <time>2018-08-07T12:55:17Z</time>
      </trkpt>
      <trkpt lat="42.8117" lon="0.34881">
        <ele>1089.75</ele>
        <time>2018-08-07T12:55:18Z</time>
      </trkpt>
      <trkpt lat="42.81187" lon="0.34905">
        <ele>1091.51</ele>
        <time>2018-08-07T12:55:19Z</time>
      </trkpt>
      <trkpt lat="42.81202" lon="0.34924">
        <ele>1094.14</ele>
        <time>2018-08-07T12:55:20Z</time>
      </trkpt>
      <trkpt lat="42.81214" lon="0.34945">
        <ele>1094.23</ele>
        <time>2018-08-07T12:55:21Z</time>
      </trkpt>
      <trkpt lat="42.81226" lon="0.34963">
        <ele>1095.66</ele>
        <time>2018-08-07T12:55:22Z</time>
      </trkpt>
      <trkpt lat="42.81252" lon="0.34993">
        <ele>1098.73</ele>
        <time>2018-08-07T12:55:24Z</time>
      </trkpt>
      <trkpt lat="42.81274" lon="0.35016">
        <ele>1100.62</ele>
        <time>2018-08-07T12:55:26Z</time>
      </trkpt>
      <trkpt lat="42.81289" lon="0.35035">
        <ele>1103.03</ele>
        <time>2018-08-07T12:55:28Z</time>
      </trkpt>
      <trkpt lat="42.81299" lon="0.35057">
        <ele>1106.88</ele>
        <time>2018-08-07T12:55:31Z</time>
      </trkpt>
      <trkpt lat="42.81278" lon="0.35045">
        <ele>1109.25</ele>
        <time>2018-08-07T12:55:35Z</time>
      </trkpt>
      <trkpt lat="42.81261" lon="0.35029">
        <ele>1110.66</ele>
        <time>2018-08-07T12:55:36Z</time>
      </trkpt>
      <trkpt lat="42.81218" lon="0.34999">
        <ele>1111</ele>
        <time>2018-08-07T12:55:38Z</time>
      </trkpt>
      <trkpt lat="42.81187" lon="0.34986">
        <ele>1113.29</ele>
        <time>2018-08-07T12:55:39Z</time>
      </trkpt>
      <trkpt lat="42.81166" lon="0.34973">
        <ele>1114.67</ele>
        <time>2018-08-07T12:55:40Z</time>
      </trkpt>
      <trkpt lat="42.81148" lon="0.34962">
        <ele>1115.09</ele>
        <time>2018-08-07T12:55:41Z</time>
      </trkpt>
      <trkpt lat="42.81115" lon="0.34945">
        <ele>1116.65</ele>
        <time>2018-08-07T12:55:43Z</time>
      </trkpt>
      <trkpt lat="42.8109" lon="0.3494">
        <ele>1119.73</ele>
        <time>2018-08-07T12:55:45Z</time>
      </trkpt>
      <trkpt lat="42.81074" lon="0.34966">
        <ele>1121.8</ele>
        <time>2018-08-07T12:55:48Z</time>
      </trkpt>
      <trkpt lat="42.81103" lon="0.34996">
        <ele>1125.93</ele>
        <time>2018-08-07T12:55:50Z</time>
      </trkpt>
      <trkpt lat="42.81123" lon="0.35016">
        <ele>1130.37</ele>
        <time>2018-08-07T12:55:52Z</time>
      </trkpt>
      <trkpt lat="42.81144" lon="0.35036">
        <ele>1134.62</ele>
        <time>2018-08-07T12:55:54Z</time>
      </trkpt>
      <trkpt lat="42.81165" lon="0.35056">
        <ele>1135.91</ele>
        <time>2018-08-07T12:55:56Z</time>
      </trkpt>
      <trkpt lat="42.81184" lon="0.35073">
        <ele>1137.14</ele>
        <time>2018-08-07T12:55:58Z</time>
      </trkpt>
      <trkpt lat="42.81201" lon="0.3509">
        <ele>1138.87</ele>
        <time>2018-08-07T12:56:00Z</time>
      </trkpt>
      <trkpt lat="42.812" lon="0.35115">
        <ele>1143.11</ele>
        <time>2018-08-07T12:56:04Z</time>
      </trkpt>
      <trkpt lat="42.81183" lon="0.35136">
        <ele>1145.08</ele>
        <time>2018-08-07T12:56:07Z</time>
      </trkpt>
      <trkpt lat="42.81176" lon="0.3516">
        <ele>1147.84</ele>
        <time>2018-08-07T12:56:10Z</time>
      </trkpt>
      <trkpt lat="42.81155" lon="0.35159">
        <ele>1150.15</ele>
        <time>2018-08-07T12:56:14Z</time>
      </trkpt>
      <trkpt lat="42.8113" lon="0.35148">
        <ele>1150.96</ele>
        <time>2018-08-07T12:56:17Z</time>
      </trkpt>
      <trkpt lat="42.81108" lon="0.35153">
        <ele>1152.45</ele>
        <time>2018-08-07T12:56:20Z</time>
      </trkpt>
      <trkpt lat="42.81091" lon="0.35168">
        <ele>1155.71</ele>
        <time>2018-08-07T12:56:22Z</time>
      </trkpt>
      <trkpt lat="42.81075" lon="0.3518">
        <ele>1157.83</ele>
        <time>2018-08-07T12:56:24Z</time>
      </trkpt>
      <trkpt lat="42.81055" lon="0.35199">
        <ele>1161.11</ele>
        <time>2018-08-07T12:56:27Z</time>
      </trkpt>
      <trkpt lat="42.81051" lon="0.35229">
        <ele>1163.15</ele>
        <time>2018-08-07T12:56:31Z</time>
      </trkpt>
      <trkpt lat="42.81063" lon="0.35248">
        <ele>1163.96</ele>
        <time>2018-08-07T12:56:33Z</time>
      </trkpt>
      <trkpt lat="42.81082" lon="0.35267">
        <ele>1166.14</ele>
        <time>2018-08-07T12:56:36Z</time>
      </trkpt>
      <trkpt lat="42.81102" lon="0.35263">
        <ele>1167.17</ele>
        <time>2018-08-07T12:56:39Z</time>
      </trkpt>
      <trkpt lat="42.81119" lon="0.35276">
        <ele>1167.96</ele>
        <time>2018-08-07T12:56:41Z</time>
      </trkpt>
      <trkpt lat="42.81135" lon="0.35297">
        <ele>1171.25</ele>
        <time>2018-08-07T12:56:43Z</time>
      </trkpt>
      <trkpt lat="42.81155" lon="0.35322">
        <ele>1174.7</ele>
        <time>2018-08-07T12:56:45Z</time>
      </trkpt>
      <trkpt lat="42.81182" lon="0.35344">
        <ele>1179.56</ele>
        <time>2018-08-07T12:56:47Z</time>
      </trkpt>
      <trkpt lat="42.81209" lon="0.35373">
        <ele>1184.82</ele>
        <time>2018-08-07T12:56:49Z</time>
      </trkpt>
      <trkpt lat="42.81223" lon="0.3539">
        <ele>1187.93</ele>
        <time>2018-08-07T12:56:50Z</time>
      </trkpt>
      <trkpt lat="42.8124" lon="0.35407">
        <ele>1190.97</ele>
        <time>2018-08-07T12:56:51Z</time>
      </trkpt>
      <trkpt lat="42.81256" lon="0.35425">
        <ele>1192.58</ele>
        <time>2018-08-07T12:56:52Z</time>
      </trkpt>
      <trkpt lat="42.81271" lon="0.3544">
        <ele>1194.46</ele>
        <time>2018-08-07T12:56:53Z</time>
      </trkpt>
      <trkpt lat="42.81298" lon="0.35467">
        <ele>1197.71</ele>
        <time>2018-08-07T12:56:55Z</time>
      </trkpt>
      <trkpt lat="42.81319" lon="0.35486">
        <ele>1199.13</ele>
        <time>2018-08-07T12:56:57Z</time>
      </trkpt>
      <trkpt lat="42.81347" lon="0.35483">
        <ele>1200.16</ele>
        <time>2018-08-07T12:56:59Z</time>
      </trkpt>
      <trkpt lat="42.81375" lon="0.35461">
        <ele>1201.66</ele>
        <time>2018-08-07T12:57:01Z</time>
      </trkpt>
      <trkpt lat="42.81407" lon="0.35435">
        <ele>1206.13</ele>
        <time>2018-08-07T12:57:03Z</time>
      </trkpt>
      <trkpt lat="42.81424" lon="0.3542">
        <ele>1208.33</ele>
        <time>2018-08-07T12:57:04Z</time>
      </trkpt>
      <trkpt lat="42.81443" lon="0.35403">
        <ele>1210.38</ele>
        <time>2018-08-07T12:57:05Z</time>
      </trkpt>
      <trkpt lat="42.81462" lon="0.35386">
        <ele>1212.4</ele>
        <time>2018-08-07T12:57:06Z</time>
      </trkpt>
      <trkpt lat="42.81482" lon="0.35369">
        <ele>1213.71</ele>
        <time>2018-08-07T12:57:07Z</time>
      </trkpt>
      <trkpt lat="42.81501" lon="0.35353">
        <ele>1215.5</ele>
        <time>2018-08-07T12:57:08Z</time>
      </trkpt>
      <trkpt lat="42.81519" lon="0.35337">
        <ele>1216.04</ele>
        <time>2018-08-07T12:57:09Z</time>
      </trkpt>
      <trkpt lat="42.81538" lon="0.35323">
        <ele>1217.6</ele>
        <time>2018-08-07T12:57:10Z</time>
      </trkpt>
      <trkpt lat="42.81555" lon="0.3531">
        <ele>1218.77</ele>
        <time>2018-08-07T12:57:11Z</time>
      </trkpt>
      <trkpt lat="42.81575" lon="0.35284">
        <ele>1223.14</ele>
        <time>2018-08-07T12:57:13Z</time>
      </trkpt>
      <trkpt lat="42.81603" lon="0.35263">
        <ele>1227.39</ele>
        <time>2018-08-07T12:57:15Z</time>
      </trkpt>
      <trkpt lat="42.8163" lon="0.35247">
        <ele>1230.29</ele>
        <time>2018-08-07T12:57:17Z</time>
      </trkpt>
      <trkpt lat="42.81657" lon="0.35242">
        <ele>1233.7</ele>
        <time>2018-08-07T12:57:19Z</time>
      </trkpt>
      <trkpt lat="42.81686" lon="0.35251">
        <ele>1236.04</ele>
        <time>2018-08-07T12:57:21Z</time>
      </trkpt>
      <trkpt lat="42.81718" lon="0.35267">
        <ele>1239.68</ele>
        <time>2018-08-07T12:57:23Z</time>
      </trkpt>
      <trkpt lat="42.81747" lon="0.35284">
        <ele>1240.91</ele>
        <time>2018-08-07T12:57:25Z</time>
      </trkpt>
      <trkpt lat="42.81764" lon="0.35302">
        <ele>1243.84</ele>
        <time>2018-08-07T12:57:28Z</time>
      </trkpt>
      <trkpt lat="42.81741" lon="0.35297">
        <ele>1246.94</ele>
        <time>2018-08-07T12:57:29Z</time>
      </trkpt>
      <trkpt lat="42.81724" lon="0.35285">
        <ele>1249.06</ele>
        <time>2018-08-07T12:57:31Z</time>
      </trkpt>
      <trkpt lat="42.81706" lon="0.35269">
        <ele>1249.25</ele>
        <time>2018-08-07T12:57:33Z</time>
      </trkpt>
      <trkpt lat="42.81679" lon="0.35267">
        <ele>1250.18</ele>
        <time>2018-08-07T12:57:35Z</time>
      </trkpt>
      <trkpt lat="42.81657" lon="0.35274">
        <ele>1250.96</ele>
        <time>2018-08-07T12:57:37Z</time>
      </trkpt>
      <trkpt lat="42.81635" lon="0.35291">
        <ele>1251.94</ele>
        <time>2018-08-07T12:57:39Z</time>
      </trkpt>
      <trkpt lat="42.81615" lon="0.35317">
        <ele>1253.85</ele>
        <time>2018-08-07T12:57:41Z</time>
      </trkpt>
      <trkpt lat="42.81596" lon="0.35352">
        <ele>1258.15</ele>
        <time>2018-08-07T12:57:43Z</time>
      </trkpt>
      <trkpt lat="42.81575" lon="0.35391">
        <ele>1262.39</ele>
        <time>2018-08-07T12:57:45Z</time>
      </trkpt>
      <trkpt lat="42.81564" lon="0.35412">
        <ele>1264.4</ele>
        <time>2018-08-07T12:57:46Z</time>
      </trkpt>
      <trkpt lat="42.81552" lon="0.35433">
        <ele>1265.71</ele>
        <time>2018-08-07T12:57:47Z</time>
      </trkpt>
      <trkpt lat="42.81541" lon="0.35453">
        <ele>1266.1</ele>
        <time>2018-08-07T12:57:48Z</time>
      </trkpt>
      <trkpt lat="42.81518" lon="0.35482">
        <ele>1267.86</ele>
        <time>2018-08-07T12:57:50Z</time>
      </trkpt>
      <trkpt lat="42.81492" lon="0.35504">
        <ele>1269.14</ele>
        <time>2018-08-07T12:57:52Z</time>
      </trkpt>
      <trkpt lat="42.81469" lon="0.35524">
        <ele>1271.57</ele>
        <time>2018-08-07T12:57:54Z</time>
      </trkpt>
      <trkpt lat="42.81449" lon="0.3555">
        <ele>1274.51</ele>
        <time>2018-08-07T12:57:56Z</time>
      </trkpt>
      <trkpt lat="42.81438" lon="0.35578">
        <ele>1276.81</ele>
        <time>2018-08-07T12:57:58Z</time>
      </trkpt>
      <trkpt lat="42.81432" lon="0.35611">
        <ele>1278.14</ele>
        <time>2018-08-07T12:58:00Z</time>
      </trkpt>
      <trkpt lat="42.81428" lon="0.35656">
        <ele>1280.36</ele>
        <time>2018-08-07T12:58:02Z</time>
      </trkpt>
      <trkpt lat="42.81421" lon="0.35699">
        <ele>1284.61</ele>
        <time>2018-08-07T12:58:04Z</time>
      </trkpt>
      <trkpt lat="42.81412" lon="0.35729">
        <ele>1287.73</ele>
        <time>2018-08-07T12:58:06Z</time>
      </trkpt>
      <trkpt lat="42.81401" lon="0.35751">
        <ele>1289.13</ele>
        <time>2018-08-07T12:58:08Z</time>
      </trkpt>
      <trkpt lat="42.81368" lon="0.35743">
        <ele>1291.91</ele>
        <time>2018-08-07T12:58:11Z</time>
      </trkpt>
      <trkpt lat="42.81333" lon="0.35731">
        <ele>1293.84</ele>
        <time>2018-08-07T12:58:13Z</time>
      </trkpt>
      <trkpt lat="42.813" lon="0.35723">
        <ele>1297.45</ele>
        <time>2018-08-07T12:58:15Z</time>
      </trkpt>
      <trkpt lat="42.81271" lon="0.35715">
        <ele>1301.41</ele>
        <time>2018-08-07T12:58:17Z</time>
      </trkpt>
      <trkpt lat="42.8125" lon="0.35721">
        <ele>1303.8</ele>
        <time>2018-08-07T12:58:19Z</time>
      </trkpt>
      <trkpt lat="42.81238" lon="0.3574">
        <ele>1305.83</ele>
        <time>2018-08-07T12:58:21Z</time>
      </trkpt>
      <trkpt lat="42.81225" lon="0.35771">
        <ele>1309.45</ele>
        <time>2018-08-07T12:58:23Z</time>
      </trkpt>
      <trkpt lat="42.8121" lon="0.35808">
        <ele>1313.41</ele>
        <time>2018-08-07T12:58:25Z</time>
      </trkpt>
      <trkpt lat="42.81192" lon="0.3585">
        <ele>1317.41</ele>
        <time>2018-08-07T12:58:27Z</time>
      </trkpt>
      <trkpt lat="42.81183" lon="0.35873">
        <ele>1319.41</ele>
        <time>2018-08-07T12:58:28Z</time>
      </trkpt>
      <trkpt lat="42.81172" lon="0.35896">
        <ele>1320.01</ele>
        <time>2018-08-07T12:58:29Z</time>
      </trkpt>
      <trkpt lat="42.81161" lon="0.35918">
        <ele>1322.99</ele>
        <time>2018-08-07T12:58:30Z</time>
      </trkpt>
      <trkpt lat="42.8115" lon="0.35941">
        <ele>1325.28</ele>
        <time>2018-08-07T12:58:31Z</time>
      </trkpt>
      <trkpt lat="42.81139" lon="0.35965">
        <ele>1326.67</ele>
        <time>2018-08-07T12:58:32Z</time>
      </trkpt>
      <trkpt lat="42.81128" lon="0.35987">
        <ele>1328.49</ele>
        <time>2018-08-07T12:58:33Z</time>
      </trkpt>
      <trkpt lat="42.81116" lon="0.36008">
        <ele>1330.43</ele>
        <time>2018-08-07T12:58:34Z</time>
      </trkpt>
      <trkpt lat="42.81107" lon="0.36029">
        <ele>1331.02</ele>
        <time>2018-08-07T12:58:35Z</time>
      </trkpt>
      <trkpt lat="42.81091" lon="0.36045">
        <ele>1331.89</ele>
        <time>2018-08-07T12:58:36Z</time>
      </trkpt>
      <trkpt lat="42.81074" lon="0.36062">
        <ele>1334.25</ele>
        <time>2018-08-07T12:58:37Z</time>
      </trkpt>
      <trkpt lat="42.81056" lon="0.36081">
        <ele>1337.76</ele>
        <time>2018-08-07T12:58:38Z</time>
      </trkpt>
      <trkpt lat="42.81039" lon="0.361">
        <ele>1339.52</ele>
        <time>2018-08-07T12:58:39Z</time>
      </trkpt>
      <trkpt lat="42.81021" lon="0.3612">
        <ele>1342.14</ele>
        <time>2018-08-07T12:58:40Z</time>
      </trkpt>
      <trkpt lat="42.81003" lon="0.36139">
        <ele>1345.03</ele>
        <time>2018-08-07T12:58:41Z</time>
      </trkpt>
      <trkpt lat="42.80985" lon="0.36159">
        <ele>1347.3</ele>
        <time>2018-08-07T12:58:42Z</time>
      </trkpt>
      <trkpt lat="42.80966" lon="0.36179">
        <ele>1349.38</ele>
        <time>2018-08-07T12:58:43Z</time>
      </trkpt>
      <trkpt lat="42.80949" lon="0.36199">
        <ele>1351.4</ele>
        <time>2018-08-07T12:58:44Z</time>
      </trkpt>
      <trkpt lat="42.80934" lon="0.36219">
        <ele>1353.41</ele>
        <time>2018-08-07T12:58:45Z</time>
      </trkpt>
      <trkpt lat="42.8092" lon="0.36239">
        <ele>1356.11</ele>
        <time>2018-08-07T12:58:46Z</time>
      </trkpt>
      <trkpt lat="42.80904" lon="0.36257">
        <ele>1357.62</ele>
        <time>2018-08-07T12:58:47Z</time>
      </trkpt>
      <trkpt lat="42.80885" lon="0.36273">
        <ele>1358.77</ele>
        <time>2018-08-07T12:58:48Z</time>
      </trkpt>
      <trkpt lat="42.80864" lon="0.36286">
        <ele>1361.22</ele>
        <time>2018-08-07T12:58:49Z</time>
      </trkpt>
      <trkpt lat="42.80844" lon="0.36296">
        <ele>1364.75</ele>
        <time>2018-08-07T12:58:50Z</time>
      </trkpt>
      <trkpt lat="42.80823" lon="0.36305">
        <ele>1367.21</ele>
        <time>2018-08-07T12:58:51Z</time>
      </trkpt>
      <trkpt lat="42.80804" lon="0.36314">
        <ele>1368.65</ele>
        <time>2018-08-07T12:58:52Z</time>
      </trkpt>
      <trkpt lat="42.80784" lon="0.36323">
        <ele>1369.08</ele>
        <time>2018-08-07T12:58:53Z</time>
      </trkpt>
      <trkpt lat="42.80754" lon="0.36348">
        <ele>1372.47</ele>
        <time>2018-08-07T12:58:55Z</time>
      </trkpt>
      <trkpt lat="42.80734" lon="0.36356">
        <ele>1375.13</ele>
        <time>2018-08-07T12:58:56Z</time>
      </trkpt>
      <trkpt lat="42.80715" lon="0.36364">
        <ele>1377.33</ele>
        <time>2018-08-07T12:58:57Z</time>
      </trkpt>
      <trkpt lat="42.80696" lon="0.36374">
        <ele>1378.68</ele>
        <time>2018-08-07T12:58:58Z</time>
      </trkpt>
      <trkpt lat="42.80677" lon="0.36384">
        <ele>1380.49</ele>
        <time>2018-08-07T12:58:59Z</time>
      </trkpt>
      <trkpt lat="42.8065" lon="0.36401">
        <ele>1383.51</ele>
        <time>2018-08-07T12:59:01Z</time>
      </trkpt>
      <trkpt lat="42.80625" lon="0.36417">
        <ele>1388.12</ele>
        <time>2018-08-07T12:59:03Z</time>
      </trkpt>
      <trkpt lat="42.8061" lon="0.36442">
        <ele>1388.95</ele>
        <time>2018-08-07T12:59:05Z</time>
      </trkpt>
      <trkpt lat="42.806" lon="0.36476">
        <ele>1389.24</ele>
        <time>2018-08-07T12:59:07Z</time>
      </trkpt>
      <trkpt lat="42.80605" lon="0.36502">
        <ele>1389.96</ele>
        <time>2018-08-07T12:59:08Z</time>
      </trkpt>
      <trkpt lat="42.80605" lon="0.36534">
        <ele>1392.97</ele>
        <time>2018-08-07T12:59:09Z</time>
      </trkpt>
      <trkpt lat="42.80602" lon="0.36564">
        <ele>1395.98</ele>
        <time>2018-08-07T12:59:10Z</time>
      </trkpt>
      <trkpt lat="42.80599" lon="0.36595">
        <ele>1398.98</ele>
        <time>2018-08-07T12:59:11Z</time>
      </trkpt>
      <trkpt lat="42.80595" lon="0.36627">
        <ele>1401.98</ele>
        <time>2018-08-07T12:59:12Z</time>
      </trkpt>
      <trkpt lat="42.8059" lon="0.36658">
        <ele>1404.98</ele>
        <time>2018-08-07T12:59:13Z</time>
      </trkpt>
      <trkpt lat="42.80588" lon="0.36688">
        <ele>1407.28</ele>
        <time>2018-08-07T12:59:14Z</time>
      </trkpt>
      <trkpt lat="42.80588" lon="0.36716">
        <ele>1408.67</ele>
        <time>2018-08-07T12:59:15Z</time>
      </trkpt>
      <trkpt lat="42.80585" lon="0.36762">
        <ele>1411.52</ele>
        <time>2018-08-07T12:59:17Z</time>
      </trkpt>
      <trkpt lat="42.80574" lon="0.36799">
        <ele>1413.11</ele>
        <time>2018-08-07T12:59:19Z</time>
      </trkpt>
      <trkpt lat="42.8056" lon="0.36824">
        <ele>1413.25</ele>
        <time>2018-08-07T12:59:21Z</time>
      </trkpt>
      <trkpt lat="42.80522" lon="0.36838">
        <ele>1416.28</ele>
        <time>2018-08-07T12:59:23Z</time>
      </trkpt>
      <trkpt lat="42.80506" lon="0.36849">
        <ele>1417.67</ele>
        <time>2018-08-07T12:59:24Z</time>
      </trkpt>
      <trkpt lat="42.80478" lon="0.36874">
        <ele>1418.91</ele>
        <time>2018-08-07T12:59:26Z</time>
      </trkpt>
      <trkpt lat="42.80455" lon="0.36895">
        <ele>1421.97</ele>
        <time>2018-08-07T12:59:28Z</time>
      </trkpt>
      <trkpt lat="42.80426" lon="0.36904">
        <ele>1425.95</ele>
        <time>2018-08-07T12:59:30Z</time>
      </trkpt>
      <trkpt lat="42.80392" lon="0.36914">
        <ele>1430.16</ele>
        <time>2018-08-07T12:59:32Z</time>
      </trkpt>
      <trkpt lat="42.80363" lon="0.36928">
        <ele>1433.48</ele>
        <time>2018-08-07T12:59:34Z</time>
      </trkpt>
      <trkpt lat="42.80345" lon="0.36955">
        <ele>1436.72</ele>
        <time>2018-08-07T12:59:36Z</time>
      </trkpt>
      <trkpt lat="42.80326" lon="0.36978">
        <ele>1438.34</ele>
        <time>2018-08-07T12:59:38Z</time>
      </trkpt>
      <trkpt lat="42.80304" lon="0.36995">
        <ele>1439.46</ele>
        <time>2018-08-07T12:59:40Z</time>
      </trkpt>
      <trkpt lat="42.80289" lon="0.37028">
        <ele>1442.5</ele>
        <time>2018-08-07T12:59:42Z</time>
      </trkpt>
      <trkpt lat="42.80272" lon="0.37066">
        <ele>1443.2</ele>
        <time>2018-08-07T12:59:44Z</time>
      </trkpt>
      <trkpt lat="42.80253" lon="0.37103">
        <ele>1444.17</ele>
        <time>2018-08-07T12:59:46Z</time>
      </trkpt>
      <trkpt lat="42.80228" lon="0.37131">
        <ele>1448.18</ele>
        <time>2018-08-07T12:59:48Z</time>
      </trkpt>
      <trkpt lat="42.80203" lon="0.37147">
        <ele>1451.69</ele>
        <time>2018-08-07T12:59:50Z</time>
      </trkpt>
      <trkpt lat="42.8018" lon="0.37149">
        <ele>1454.73</ele>
        <time>2018-08-07T12:59:52Z</time>
      </trkpt>
      <trkpt lat="42.80161" lon="0.37129">
        <ele>1456.62</ele>
        <time>2018-08-07T12:59:54Z</time>
      </trkpt>
      <trkpt lat="42.80146" lon="0.37099">
        <ele>1456.3</ele>
        <time>2018-08-07T12:59:56Z</time>
      </trkpt>
      <trkpt lat="42.80129" lon="0.37073">
        <ele>1456.06</ele>
        <time>2018-08-07T12:59:58Z</time>
      </trkpt>
      <trkpt lat="42.80111" lon="0.3705">
        <ele>1455.55</ele>
        <time>2018-08-07T13:00:00Z</time>
      </trkpt>
      <trkpt lat="42.80093" lon="0.37041">
        <ele>1456.9</ele>
        <time>2018-08-07T13:00:02Z</time>
      </trkpt>
      <trkpt lat="42.8008" lon="0.37062">
        <ele>1459.75</ele>
        <time>2018-08-07T13:00:04Z</time>
      </trkpt>
      <trkpt lat="42.8007" lon="0.37089">
        <ele>1461.83</ele>
        <time>2018-08-07T13:00:06Z</time>
      </trkpt>
      <trkpt lat="42.80066" lon="0.37125">
        <ele>1461.81</ele>
        <time>2018-08-07T13:00:08Z</time>
      </trkpt>
      <trkpt lat="42.80062" lon="0.37161">
        <ele>1463.63</ele>
        <time>2018-08-07T13:00:10Z</time>
      </trkpt>
      <trkpt lat="42.80062" lon="0.37201">
        <ele>1467.43</ele>
        <time>2018-08-07T13:00:12Z</time>
      </trkpt>
      <trkpt lat="42.80059" lon="0.37244">
        <ele>1467.49</ele>
        <time>2018-08-07T13:00:14Z</time>
      </trkpt>
      <trkpt lat="42.80049" lon="0.37286">
        <ele>1468.2</ele>
        <time>2018-08-07T13:00:16Z</time>
      </trkpt>
      <trkpt lat="42.80041" lon="0.37323">
        <ele>1469.66</ele>
        <time>2018-08-07T13:00:18Z</time>
      </trkpt>
      <trkpt lat="42.80024" lon="0.3735">
        <ele>1470.91</ele>
        <time>2018-08-07T13:00:20Z</time>
      </trkpt>
      <trkpt lat="42.79996" lon="0.3736">
        <ele>1473.55</ele>
        <time>2018-08-07T13:00:22Z</time>
      </trkpt>
      <trkpt lat="42.79965" lon="0.37367">
        <ele>1475.81</ele>
        <time>2018-08-07T13:00:24Z</time>
      </trkpt>
      <trkpt lat="42.79934" lon="0.37387">
        <ele>1476.93</ele>
        <time>2018-08-07T13:00:26Z</time>
      </trkpt>
      <trkpt lat="42.79917" lon="0.37397">
        <ele>1478.56</ele>
        <time>2018-08-07T13:00:27Z</time>
      </trkpt>
      <trkpt lat="42.79883" lon="0.37408">
        <ele>1479.9</ele>
        <time>2018-08-07T13:00:29Z</time>
      </trkpt>
      <trkpt lat="42.79854" lon="0.37413">
        <ele>1480.93</ele>
        <time>2018-08-07T13:00:31Z</time>
      </trkpt>
      <trkpt lat="42.7983" lon="0.37427">
        <ele>1482.85</ele>
        <time>2018-08-07T13:00:33Z</time>
      </trkpt>
      <trkpt lat="42.79812" lon="0.37459">
        <ele>1484.84</ele>
        <time>2018-08-07T13:00:35Z</time>
      </trkpt>
      <trkpt lat="42.79798" lon="0.37501">
        <ele>1485.93</ele>
        <time>2018-08-07T13:00:37Z</time>
      </trkpt>
      <trkpt lat="42.7979" lon="0.37524">
        <ele>1487.57</ele>
        <time>2018-08-07T13:00:38Z</time>
      </trkpt>
      <trkpt lat="42.79782" lon="0.37545">
        <ele>1488.76</ele>
        <time>2018-08-07T13:00:39Z</time>
      </trkpt>
      <trkpt lat="42.79762" lon="0.3758">
        <ele>1489.92</ele>
        <time>2018-08-07T13:00:41Z</time>
      </trkpt>
      <trkpt lat="42.79737" lon="0.37603">
        <ele>1493.67</ele>
        <time>2018-08-07T13:00:43Z</time>
      </trkpt>
      <trkpt lat="42.79715" lon="0.37626">
        <ele>1497.43</ele>
        <time>2018-08-07T13:00:45Z</time>
      </trkpt>
      <trkpt lat="42.79703" lon="0.3766">
        <ele>1500.01</ele>
        <time>2018-08-07T13:00:47Z</time>
      </trkpt>
      <trkpt lat="42.79696" lon="0.37695">
        <ele>1502.76</ele>
        <time>2018-08-07T13:00:49Z</time>
      </trkpt>
      <trkpt lat="42.79698" lon="0.37736">
        <ele>1505.74</ele>
        <time>2018-08-07T13:00:51Z</time>
      </trkpt>
      <trkpt lat="42.79699" lon="0.3778">
        <ele>1508.74</ele>
        <time>2018-08-07T13:00:53Z</time>
      </trkpt>
      <trkpt lat="42.79694" lon="0.37827">
        <ele>1512.44</ele>
        <time>2018-08-07T13:00:55Z</time>
      </trkpt>
      <trkpt lat="42.79692" lon="0.37874">
        <ele>1515.5</ele>
        <time>2018-08-07T13:00:57Z</time>
      </trkpt>
      <trkpt lat="42.79696" lon="0.37923">
        <ele>1519.42</ele>
        <time>2018-08-07T13:00:59Z</time>
      </trkpt>
      <trkpt lat="42.79702" lon="0.37965">
        <ele>1522.71</ele>
        <time>2018-08-07T13:01:01Z</time>
      </trkpt>
      <trkpt lat="42.79704" lon="0.38001">
        <ele>1524.83</ele>
        <time>2018-08-07T13:01:03Z</time>
      </trkpt>
      <trkpt lat="42.79695" lon="0.38034">
        <ele>1526.84</ele>
        <time>2018-08-07T13:01:05Z</time>
      </trkpt>
      <trkpt lat="42.79682" lon="0.38067">
        <ele>1529.05</ele>
        <time>2018-08-07T13:01:07Z</time>
      </trkpt>
      <trkpt lat="42.79659" lon="0.38087">
        <ele>1531.35</ele>
        <time>2018-08-07T13:01:09Z</time>
      </trkpt>
      <trkpt lat="42.7963" lon="0.38094">
        <ele>1533.79</ele>
        <time>2018-08-07T13:01:11Z</time>
      </trkpt>
      <trkpt lat="42.79602" lon="0.38104">
        <ele>1536.04</ele>
        <time>2018-08-07T13:01:13Z</time>
      </trkpt>
      <trkpt lat="42.79579" lon="0.38104">
        <ele>1540.38</ele>
        <time>2018-08-07T13:01:15Z</time>
      </trkpt>
      <trkpt lat="42.79557" lon="0.38097">
        <ele>1541.89</ele>
        <time>2018-08-07T13:01:17Z</time>
      </trkpt>
      <trkpt lat="42.79533" lon="0.38103">
        <ele>1542.93</ele>
        <time>2018-08-07T13:01:19Z</time>
      </trkpt>
      <trkpt lat="42.79507" lon="0.38123">
        <ele>1546.46</ele>
        <time>2018-08-07T13:01:21Z</time>
      </trkpt>
      <trkpt lat="42.79475" lon="0.38144">
        <ele>1549.5</ele>
        <time>2018-08-07T13:01:23Z</time>
      </trkpt>
      <trkpt lat="42.79441" lon="0.38157">
        <ele>1552.72</ele>
        <time>2018-08-07T13:01:25Z</time>
      </trkpt>
      <trkpt lat="42.79408" lon="0.38167">
        <ele>1556.44</ele>
        <time>2018-08-07T13:01:27Z</time>
      </trkpt>
      <trkpt lat="42.79376" lon="0.38162">
        <ele>1559.5</ele>
        <time>2018-08-07T13:01:29Z</time>
      </trkpt>
      <trkpt lat="42.79347" lon="0.38142">
        <ele>1562.72</ele>
        <time>2018-08-07T13:01:31Z</time>
      </trkpt>
      <trkpt lat="42.79324" lon="0.38125">
        <ele>1563.92</ele>
        <time>2018-08-07T13:01:33Z</time>
      </trkpt>
      <trkpt lat="42.79297" lon="0.38119">
        <ele>1565.15</ele>
        <time>2018-08-07T13:01:35Z</time>
      </trkpt>
      <trkpt lat="42.79269" lon="0.38118">
        <ele>1567.57</ele>
        <time>2018-08-07T13:01:37Z</time>
      </trkpt>
      <trkpt lat="42.79243" lon="0.38111">
        <ele>1570.51</ele>
        <time>2018-08-07T13:01:39Z</time>
      </trkpt>
      <trkpt lat="42.7922" lon="0.38101">
        <ele>1573.72</ele>
        <time>2018-08-07T13:01:41Z</time>
      </trkpt>
      <trkpt lat="42.79199" lon="0.38095">
        <ele>1576.84</ele>
        <time>2018-08-07T13:01:44Z</time>
      </trkpt>
      <trkpt lat="42.79196" lon="0.3812">
        <ele>1584.18</ele>
        <time>2018-08-07T13:08:59Z</time>
      </trkpt>
      <trkpt lat="42.79218" lon="0.3814">
        <ele>1582.38</ele>
        <time>2018-08-07T13:09:02Z</time>
      </trkpt>
      <trkpt lat="42.79238" lon="0.38152">
        <ele>1580.67</ele>
        <time>2018-08-07T13:09:04Z</time>
      </trkpt>
      <trkpt lat="42.79259" lon="0.38167">
        <ele>1579.39</ele>
        <time>2018-08-07T13:09:06Z</time>
      </trkpt>
      <trkpt lat="42.79277" lon="0.38193">
        <ele>1577.67</ele>
        <time>2018-08-07T13:09:08Z</time>
      </trkpt>
      <trkpt lat="42.7929" lon="0.38229">
        <ele>1574.78</ele>
        <time>2018-08-07T13:09:10Z</time>
      </trkpt>
      <trkpt lat="42.79304" lon="0.38259">
        <ele>1571.79</ele>
        <time>2018-08-07T13:09:12Z</time>
      </trkpt>
      <trkpt lat="42.79319" lon="0.38285">
        <ele>1569.49</ele>
        <time>2018-08-07T13:09:14Z</time>
      </trkpt>
      <trkpt lat="42.7934" lon="0.38305">
        <ele>1568.38</ele>
        <time>2018-08-07T13:09:16Z</time>
      </trkpt>
      <trkpt lat="42.79365" lon="0.38318">
        <ele>1566.88</ele>
        <time>2018-08-07T13:09:18Z</time>
      </trkpt>
      <trkpt lat="42.79392" lon="0.3833">
        <ele>1564.01</ele>
        <time>2018-08-07T13:09:20Z</time>
      </trkpt>
      <trkpt lat="42.79419" lon="0.38339">
        <ele>1563.33</ele>
        <time>2018-08-07T13:09:22Z</time>
      </trkpt>
      <trkpt lat="42.79447" lon="0.38347">
        <ele>1562.36</ele>
        <time>2018-08-07T13:09:24Z</time>
      </trkpt>
      <trkpt lat="42.79476" lon="0.38363">
        <ele>1562.28</ele>
        <time>2018-08-07T13:09:26Z</time>
      </trkpt>
      <trkpt lat="42.79492" lon="0.38394">
        <ele>1562.27</ele>
        <time>2018-08-07T13:09:28Z</time>
      </trkpt>
      <trkpt lat="42.79513" lon="0.38427">
        <ele>1558.56</ele>
        <time>2018-08-07T13:09:30Z</time>
      </trkpt>
      <trkpt lat="42.79527" lon="0.38454">
        <ele>1555.07</ele>
        <time>2018-08-07T13:09:32Z</time>
      </trkpt>
      <trkpt lat="42.79545" lon="0.38463">
        <ele>1554.55</ele>
        <time>2018-08-07T13:09:34Z</time>
      </trkpt>
      <trkpt lat="42.79568" lon="0.38458">
        <ele>1551.28</ele>
        <time>2018-08-07T13:09:36Z</time>
      </trkpt>
      <trkpt lat="42.79595" lon="0.3845">
        <ele>1545.32</ele>
        <time>2018-08-07T13:09:38Z</time>
      </trkpt>
      <trkpt lat="42.79622" lon="0.38439">
        <ele>1541.84</ele>
        <time>2018-08-07T13:09:40Z</time>
      </trkpt>
      <trkpt lat="42.79645" lon="0.38439">
        <ele>1539.71</ele>
        <time>2018-08-07T13:09:42Z</time>
      </trkpt>
      <trkpt lat="42.79671" lon="0.38456">
        <ele>1537.7</ele>
        <time>2018-08-07T13:09:44Z</time>
      </trkpt>
      <trkpt lat="42.79692" lon="0.38496">
        <ele>1537.31</ele>
        <time>2018-08-07T13:09:46Z</time>
      </trkpt>
      <trkpt lat="42.79704" lon="0.38515">
        <ele>1536.58</ele>
        <time>2018-08-07T13:09:47Z</time>
      </trkpt>
      <trkpt lat="42.79715" lon="0.38536">
        <ele>1534.26</ele>
        <time>2018-08-07T13:09:48Z</time>
      </trkpt>
      <trkpt lat="42.79728" lon="0.38554">
        <ele>1532.17</ele>
        <time>2018-08-07T13:09:49Z</time>
      </trkpt>
      <trkpt lat="42.79742" lon="0.3857">
        <ele>1530.14</ele>
        <time>2018-08-07T13:09:50Z</time>
      </trkpt>
      <trkpt lat="42.79758" lon="0.38584">
        <ele>1528.13</ele>
        <time>2018-08-07T13:09:51Z</time>
      </trkpt>
      <trkpt lat="42.79772" lon="0.386">
        <ele>1526.13</ele>
        <time>2018-08-07T13:09:52Z</time>
      </trkpt>
      <trkpt lat="42.79786" lon="0.38617">
        <ele>1524.82</ele>
        <time>2018-08-07T13:09:53Z</time>
      </trkpt>
      <trkpt lat="42.79801" lon="0.38633">
        <ele>1521.63</ele>
        <time>2018-08-07T13:09:54Z</time>
      </trkpt>
      <trkpt lat="42.79816" lon="0.38647">
        <ele>1519.28</ele>
        <time>2018-08-07T13:09:55Z</time>
      </trkpt>
      <trkpt lat="42.79831" lon="0.38663">
        <ele>1517.87</ele>
        <time>2018-08-07T13:09:56Z</time>
      </trkpt>
      <trkpt lat="42.79845" lon="0.3868">
        <ele>1515.35</ele>
        <time>2018-08-07T13:09:57Z</time>
      </trkpt>
      <trkpt lat="42.79861" lon="0.38694">
        <ele>1513.19</ele>
        <time>2018-08-07T13:09:58Z</time>
      </trkpt>
      <trkpt lat="42.79888" lon="0.38718">
        <ele>1511.44</ele>
        <time>2018-08-07T13:10:00Z</time>
      </trkpt>
      <trkpt lat="42.79916" lon="0.38737">
        <ele>1507.85</ele>
        <time>2018-08-07T13:10:02Z</time>
      </trkpt>
      <trkpt lat="42.79947" lon="0.38744">
        <ele>1504.1</ele>
        <time>2018-08-07T13:10:04Z</time>
      </trkpt>
      <trkpt lat="42.79981" lon="0.38752">
        <ele>1499.42</ele>
        <time>2018-08-07T13:10:06Z</time>
      </trkpt>
      <trkpt lat="42.80009" lon="0.38766">
        <ele>1495.15</ele>
        <time>2018-08-07T13:10:08Z</time>
      </trkpt>
      <trkpt lat="42.80028" lon="0.38787">
        <ele>1492.95</ele>
        <time>2018-08-07T13:10:10Z</time>
      </trkpt>
      <trkpt lat="42.80049" lon="0.38797">
        <ele>1489.81</ele>
        <time>2018-08-07T13:10:12Z</time>
      </trkpt>
      <trkpt lat="42.80076" lon="0.38789">
        <ele>1487.01</ele>
        <time>2018-08-07T13:10:14Z</time>
      </trkpt>
      <trkpt lat="42.80096" lon="0.3878">
        <ele>1484.72</ele>
        <time>2018-08-07T13:10:16Z</time>
      </trkpt>
      <trkpt lat="42.8012" lon="0.38781">
        <ele>1484.01</ele>
        <time>2018-08-07T13:10:19Z</time>
      </trkpt>
      <trkpt lat="42.80102" lon="0.388">
        <ele>1487.08</ele>
        <time>2018-08-07T13:10:23Z</time>
      </trkpt>
      <trkpt lat="42.80076" lon="0.38809">
        <ele>1484.94</ele>
        <time>2018-08-07T13:10:25Z</time>
      </trkpt>
      <trkpt lat="42.8005" lon="0.38819">
        <ele>1481.81</ele>
        <time>2018-08-07T13:10:27Z</time>
      </trkpt>
      <trkpt lat="42.80029" lon="0.38823">
        <ele>1479.71</ele>
        <time>2018-08-07T13:10:29Z</time>
      </trkpt>
      <trkpt lat="42.80008" lon="0.38828">
        <ele>1478.79</ele>
        <time>2018-08-07T13:10:32Z</time>
      </trkpt>
      <trkpt lat="42.79984" lon="0.38834">
        <ele>1474.39</ele>
        <time>2018-08-07T13:10:34Z</time>
      </trkpt>
      <trkpt lat="42.79958" lon="0.38849">
        <ele>1470.15</ele>
        <time>2018-08-07T13:10:36Z</time>
      </trkpt>
      <trkpt lat="42.79936" lon="0.38875">
        <ele>1466.83</ele>
        <time>2018-08-07T13:10:38Z</time>
      </trkpt>
      <trkpt lat="42.79921" lon="0.38896">
        <ele>1463.8</ele>
        <time>2018-08-07T13:10:40Z</time>
      </trkpt>
      <trkpt lat="42.79902" lon="0.38899">
        <ele>1460.79</ele>
        <time>2018-08-07T13:10:42Z</time>
      </trkpt>
      <trkpt lat="42.7988" lon="0.38885">
        <ele>1460.31</ele>
        <time>2018-08-07T13:10:44Z</time>
      </trkpt>
      <trkpt lat="42.79856" lon="0.38866">
        <ele>1457.96</ele>
        <time>2018-08-07T13:10:46Z</time>
      </trkpt>
      <trkpt lat="42.79833" lon="0.38845">
        <ele>1456.63</ele>
        <time>2018-08-07T13:10:48Z</time>
      </trkpt>
      <trkpt lat="42.79814" lon="0.38833">
        <ele>1455.6</ele>
        <time>2018-08-07T13:10:50Z</time>
      </trkpt>
      <trkpt lat="42.79809" lon="0.38858">
        <ele>1450.73</ele>
        <time>2018-08-07T13:10:55Z</time>
      </trkpt>
      <trkpt lat="42.79826" lon="0.38878">
        <ele>1449.4</ele>
        <time>2018-08-07T13:10:57Z</time>
      </trkpt>
      <trkpt lat="42.79841" lon="0.38907">
        <ele>1449.28</ele>
        <time>2018-08-07T13:10:59Z</time>
      </trkpt>
      <trkpt lat="42.79852" lon="0.38941">
        <ele>1448.36</ele>
        <time>2018-08-07T13:11:01Z</time>
      </trkpt>
      <trkpt lat="42.7986" lon="0.38971">
        <ele>1446.67</ele>
        <time>2018-08-07T13:11:03Z</time>
      </trkpt>
      <trkpt lat="42.79872" lon="0.38992">
        <ele>1445.6</ele>
        <time>2018-08-07T13:11:05Z</time>
      </trkpt>
      <trkpt lat="42.79894" lon="0.38995">
        <ele>1444.67</ele>
        <time>2018-08-07T13:11:06Z</time>
      </trkpt>
      <trkpt lat="42.79923" lon="0.39007">
        <ele>1442.69</ele>
        <time>2018-08-07T13:11:08Z</time>
      </trkpt>
      <trkpt lat="42.79951" lon="0.3901">
        <ele>1440.7</ele>
        <time>2018-08-07T13:11:10Z</time>
      </trkpt>
      <trkpt lat="42.79979" lon="0.38997">
        <ele>1438.7</ele>
        <time>2018-08-07T13:11:12Z</time>
      </trkpt>
      <trkpt lat="42.80009" lon="0.38984">
        <ele>1434.18</ele>
        <time>2018-08-07T13:11:14Z</time>
      </trkpt>
      <trkpt lat="42.80045" lon="0.38972">
        <ele>1430.13</ele>
        <time>2018-08-07T13:11:16Z</time>
      </trkpt>
      <trkpt lat="42.80063" lon="0.38963">
        <ele>1428.13</ele>
        <time>2018-08-07T13:11:17Z</time>
      </trkpt>
      <trkpt lat="42.80082" lon="0.38953">
        <ele>1426.12</ele>
        <time>2018-08-07T13:11:18Z</time>
      </trkpt>
      <trkpt lat="42.801" lon="0.38944">
        <ele>1424.12</ele>
        <time>2018-08-07T13:11:19Z</time>
      </trkpt>
      <trkpt lat="42.80119" lon="0.38936">
        <ele>1422.12</ele>
        <time>2018-08-07T13:11:20Z</time>
      </trkpt>
      <trkpt lat="42.80139" lon="0.38927">
        <ele>1420.12</ele>
        <time>2018-08-07T13:11:21Z</time>
      </trkpt>
      <trkpt lat="42.80157" lon="0.38917">
        <ele>1418.82</ele>
        <time>2018-08-07T13:11:22Z</time>
      </trkpt>
      <trkpt lat="42.80175" lon="0.38904">
        <ele>1417.73</ele>
        <time>2018-08-07T13:11:23Z</time>
      </trkpt>
      <trkpt lat="42.80192" lon="0.38889">
        <ele>1417.41</ele>
        <time>2018-08-07T13:11:24Z</time>
      </trkpt>
      <trkpt lat="42.80209" lon="0.38871">
        <ele>1416.61</ele>
        <time>2018-08-07T13:11:25Z</time>
      </trkpt>
      <trkpt lat="42.80225" lon="0.38855">
        <ele>1414.97</ele>
        <time>2018-08-07T13:11:26Z</time>
      </trkpt>
      <trkpt lat="42.80243" lon="0.38839">
        <ele>1413.78</ele>
        <time>2018-08-07T13:11:27Z</time>
      </trkpt>
      <trkpt lat="42.80261" lon="0.38827">
        <ele>1412.72</ele>
        <time>2018-08-07T13:11:28Z</time>
      </trkpt>
      <trkpt lat="42.8028" lon="0.3882">
        <ele>1412.4</ele>
        <time>2018-08-07T13:11:29Z</time>
      </trkpt>
      <trkpt lat="42.80298" lon="0.38814">
        <ele>1411.61</ele>
        <time>2018-08-07T13:11:30Z</time>
      </trkpt>
      <trkpt lat="42.80327" lon="0.38802">
        <ele>1410.6</ele>
        <time>2018-08-07T13:11:32Z</time>
      </trkpt>
      <trkpt lat="42.80349" lon="0.38795">
        <ele>1406.87</ele>
        <time>2018-08-07T13:11:34Z</time>
      </trkpt>
      <trkpt lat="42.80331" lon="0.38813">
        <ele>1406.15</ele>
        <time>2018-08-07T13:11:40Z</time>
      </trkpt>
      <trkpt lat="42.80308" lon="0.38823">
        <ele>1405.56</ele>
        <time>2018-08-07T13:11:42Z</time>
      </trkpt>
      <trkpt lat="42.80279" lon="0.3884">
        <ele>1403.89</ele>
        <time>2018-08-07T13:11:44Z</time>
      </trkpt>
      <trkpt lat="42.80264" lon="0.38857">
        <ele>1402.05</ele>
        <time>2018-08-07T13:11:45Z</time>
      </trkpt>
      <trkpt lat="42.8024" lon="0.38891">
        <ele>1399.03</ele>
        <time>2018-08-07T13:11:47Z</time>
      </trkpt>
      <trkpt lat="42.80223" lon="0.38912">
        <ele>1398.5</ele>
        <time>2018-08-07T13:11:48Z</time>
      </trkpt>
      <trkpt lat="42.80213" lon="0.38938">
        <ele>1399.04</ele>
        <time>2018-08-07T13:11:49Z</time>
      </trkpt>
      <trkpt lat="42.80204" lon="0.38961">
        <ele>1399.2</ele>
        <time>2018-08-07T13:11:50Z</time>
      </trkpt>
      <trkpt lat="42.80192" lon="0.38985">
        <ele>1398.55</ele>
        <time>2018-08-07T13:11:51Z</time>
      </trkpt>
      <trkpt lat="42.80177" lon="0.39006">
        <ele>1396.95</ele>
        <time>2018-08-07T13:11:52Z</time>
      </trkpt>
      <trkpt lat="42.8015" lon="0.39038">
        <ele>1394.72</ele>
        <time>2018-08-07T13:11:54Z</time>
      </trkpt>
      <trkpt lat="42.80134" lon="0.3905">
        <ele>1391.6</ele>
        <time>2018-08-07T13:11:55Z</time>
      </trkpt>
      <trkpt lat="42.80104" lon="0.39077">
        <ele>1389.48</ele>
        <time>2018-08-07T13:11:57Z</time>
      </trkpt>
      <trkpt lat="42.80092" lon="0.39098">
        <ele>1386.53</ele>
        <time>2018-08-07T13:11:58Z</time>
      </trkpt>
      <trkpt lat="42.80088" lon="0.39129">
        <ele>1383.98</ele>
        <time>2018-08-07T13:12:00Z</time>
      </trkpt>
      <trkpt lat="42.80074" lon="0.39153">
        <ele>1380.11</ele>
        <time>2018-08-07T13:12:02Z</time>
      </trkpt>
      <trkpt lat="42.80046" lon="0.39164">
        <ele>1376.12</ele>
        <time>2018-08-07T13:12:04Z</time>
      </trkpt>
      <trkpt lat="42.80016" lon="0.39187">
        <ele>1372.61</ele>
        <time>2018-08-07T13:12:06Z</time>
      </trkpt>
      <trkpt lat="42.7999" lon="0.39212">
        <ele>1369.08</ele>
        <time>2018-08-07T13:12:08Z</time>
      </trkpt>
      <trkpt lat="42.79965" lon="0.39231">
        <ele>1365.12</ele>
        <time>2018-08-07T13:12:10Z</time>
      </trkpt>
      <trkpt lat="42.79933" lon="0.39246">
        <ele>1362.03</ele>
        <time>2018-08-07T13:12:12Z</time>
      </trkpt>
      <trkpt lat="42.79915" lon="0.39253">
        <ele>1359.4</ele>
        <time>2018-08-07T13:12:13Z</time>
      </trkpt>
      <trkpt lat="42.79897" lon="0.39262">
        <ele>1358.61</ele>
        <time>2018-08-07T13:12:14Z</time>
      </trkpt>
      <trkpt lat="42.79877" lon="0.39271">
        <ele>1357.67</ele>
        <time>2018-08-07T13:12:15Z</time>
      </trkpt>
      <trkpt lat="42.79859" lon="0.39279">
        <ele>1355.99</ele>
        <time>2018-08-07T13:12:16Z</time>
      </trkpt>
      <trkpt lat="42.79841" lon="0.39285">
        <ele>1355.48</ele>
        <time>2018-08-07T13:12:17Z</time>
      </trkpt>
      <trkpt lat="42.79815" lon="0.39295">
        <ele>1354.38</ele>
        <time>2018-08-07T13:12:19Z</time>
      </trkpt>
      <trkpt lat="42.79794" lon="0.39313">
        <ele>1354.28</ele>
        <time>2018-08-07T13:12:21Z</time>
      </trkpt>
      <trkpt lat="42.79804" lon="0.39347">
        <ele>1351.96</ele>
        <time>2018-08-07T13:12:23Z</time>
      </trkpt>
      <trkpt lat="42.79795" lon="0.39377">
        <ele>1347.2</ele>
        <time>2018-08-07T13:12:25Z</time>
      </trkpt>
      <trkpt lat="42.79774" lon="0.39394">
        <ele>1344.74</ele>
        <time>2018-08-07T13:12:27Z</time>
      </trkpt>
      <trkpt lat="42.79748" lon="0.39395">
        <ele>1343.4</ele>
        <time>2018-08-07T13:12:29Z</time>
      </trkpt>
      <trkpt lat="42.79739" lon="0.39418">
        <ele>1340.37</ele>
        <time>2018-08-07T13:12:33Z</time>
      </trkpt>
      <trkpt lat="42.79769" lon="0.39433">
        <ele>1338.87</ele>
        <time>2018-08-07T13:12:36Z</time>
      </trkpt>
      <trkpt lat="42.79798" lon="0.39447">
        <ele>1335.59</ele>
        <time>2018-08-07T13:12:38Z</time>
      </trkpt>
      <trkpt lat="42.79829" lon="0.39449">
        <ele>1332.99</ele>
        <time>2018-08-07T13:12:40Z</time>
      </trkpt>
      <trkpt lat="42.79853" lon="0.39459">
        <ele>1328.9</ele>
        <time>2018-08-07T13:12:42Z</time>
      </trkpt>
      <trkpt lat="42.79874" lon="0.39483">
        <ele>1327.62</ele>
        <time>2018-08-07T13:12:44Z</time>
      </trkpt>
      <trkpt lat="42.79893" lon="0.39512">
        <ele>1326.6</ele>
        <time>2018-08-07T13:12:46Z</time>
      </trkpt>
      <trkpt lat="42.79923" lon="0.39524">
        <ele>1323.29</ele>
        <time>2018-08-07T13:12:48Z</time>
      </trkpt>
      <trkpt lat="42.79959" lon="0.39523">
        <ele>1321.66</ele>
        <time>2018-08-07T13:12:50Z</time>
      </trkpt>
      <trkpt lat="42.79977" lon="0.39519">
        <ele>1319.28</ele>
        <time>2018-08-07T13:12:51Z</time>
      </trkpt>
      <trkpt lat="42.80011" lon="0.39518">
        <ele>1316.75</ele>
        <time>2018-08-07T13:12:53Z</time>
      </trkpt>
      <trkpt lat="42.80046" lon="0.3951">
        <ele>1312.39</ele>
        <time>2018-08-07T13:12:55Z</time>
      </trkpt>
      <trkpt lat="42.80063" lon="0.39502">
        <ele>1310.9</ele>
        <time>2018-08-07T13:12:56Z</time>
      </trkpt>
      <trkpt lat="42.80082" lon="0.39493">
        <ele>1309.76</ele>
        <time>2018-08-07T13:12:57Z</time>
      </trkpt>
      <trkpt lat="42.80105" lon="0.39478">
        <ele>1308.71</ele>
        <time>2018-08-07T13:12:58Z</time>
      </trkpt>
      <trkpt lat="42.80126" lon="0.39467">
        <ele>1306.3</ele>
        <time>2018-08-07T13:12:59Z</time>
      </trkpt>
      <trkpt lat="42.80145" lon="0.39456">
        <ele>1304.88</ele>
        <time>2018-08-07T13:13:00Z</time>
      </trkpt>
      <trkpt lat="42.80162" lon="0.39445">
        <ele>1303.75</ele>
        <time>2018-08-07T13:13:01Z</time>
      </trkpt>
      <trkpt lat="42.8018" lon="0.39435">
        <ele>1302.71</ele>
        <time>2018-08-07T13:13:02Z</time>
      </trkpt>
      <trkpt lat="42.80197" lon="0.39421">
        <ele>1301</ele>
        <time>2018-08-07T13:13:03Z</time>
      </trkpt>
      <trkpt lat="42.80214" lon="0.39411">
        <ele>1300.49</ele>
        <time>2018-08-07T13:13:04Z</time>
      </trkpt>
      <trkpt lat="42.8022" lon="0.3944">
        <ele>1290.71</ele>
        <time>2018-08-07T13:13:10Z</time>
      </trkpt>
      <trkpt lat="42.80196" lon="0.39457">
        <ele>1289.7</ele>
        <time>2018-08-07T13:13:11Z</time>
      </trkpt>
      <trkpt lat="42.80183" lon="0.39475">
        <ele>1286.6</ele>
        <time>2018-08-07T13:13:12Z</time>
      </trkpt>
      <trkpt lat="42.80151" lon="0.39505">
        <ele>1280.56</ele>
        <time>2018-08-07T13:13:14Z</time>
      </trkpt>
      <trkpt lat="42.80136" lon="0.39521">
        <ele>1278.25</ele>
        <time>2018-08-07T13:13:15Z</time>
      </trkpt>
      <trkpt lat="42.80122" lon="0.3954">
        <ele>1277.56</ele>
        <time>2018-08-07T13:13:16Z</time>
      </trkpt>
      <trkpt lat="42.80108" lon="0.39562">
        <ele>1276.66</ele>
        <time>2018-08-07T13:13:17Z</time>
      </trkpt>
      <trkpt lat="42.80096" lon="0.39583">
        <ele>1274.28</ele>
        <time>2018-08-07T13:13:18Z</time>
      </trkpt>
      <trkpt lat="42.80072" lon="0.39618">
        <ele>1270.35</ele>
        <time>2018-08-07T13:13:20Z</time>
      </trkpt>
      <trkpt lat="42.80053" lon="0.39638">
        <ele>1267.75</ele>
        <time>2018-08-07T13:13:22Z</time>
      </trkpt>
      <trkpt lat="42.80041" lon="0.39658">
        <ele>1266.4</ele>
        <time>2018-08-07T13:13:24Z</time>
      </trkpt>
      <trkpt lat="42.80074" lon="0.39642">
        <ele>1264.56</ele>
        <time>2018-08-07T13:13:30Z</time>
      </trkpt>
      <trkpt lat="42.80103" lon="0.39627">
        <ele>1264.36</ele>
        <time>2018-08-07T13:13:31Z</time>
      </trkpt>
      <trkpt lat="42.80124" lon="0.39617">
        <ele>1263.59</ele>
        <time>2018-08-07T13:13:32Z</time>
      </trkpt>
      <trkpt lat="42.80151" lon="0.39604">
        <ele>1262.67</ele>
        <time>2018-08-07T13:13:33Z</time>
      </trkpt>
      <trkpt lat="42.80169" lon="0.39588">
        <ele>1261.69</ele>
        <time>2018-08-07T13:13:34Z</time>
      </trkpt>
      <trkpt lat="42.80187" lon="0.3957">
        <ele>1259.99</ele>
        <time>2018-08-07T13:13:35Z</time>
      </trkpt>
      <trkpt lat="42.80208" lon="0.39555">
        <ele>1257.93</ele>
        <time>2018-08-07T13:13:37Z</time>
      </trkpt>
      <trkpt lat="42.80227" lon="0.3956">
        <ele>1250.24</ele>
        <time>2018-08-07T13:13:40Z</time>
      </trkpt>
      <trkpt lat="42.8022" lon="0.39584">
        <ele>1243.79</ele>
        <time>2018-08-07T13:13:43Z</time>
      </trkpt>
      <trkpt lat="42.80208" lon="0.39609">
        <ele>1241</ele>
        <time>2018-08-07T13:13:45Z</time>
      </trkpt>
      <trkpt lat="42.80179" lon="0.39639">
        <ele>1239.79</ele>
        <time>2018-08-07T13:13:46Z</time>
      </trkpt>
      <trkpt lat="42.80164" lon="0.39657">
        <ele>1238.02</ele>
        <time>2018-08-07T13:13:47Z</time>
      </trkpt>
      <trkpt lat="42.80141" lon="0.39691">
        <ele>1237.34</ele>
        <time>2018-08-07T13:13:49Z</time>
      </trkpt>
      <trkpt lat="42.80125" lon="0.39723">
        <ele>1234.75</ele>
        <time>2018-08-07T13:13:51Z</time>
      </trkpt>
      <trkpt lat="42.8012" lon="0.39752">
        <ele>1230.72</ele>
        <time>2018-08-07T13:13:54Z</time>
      </trkpt>
      <trkpt lat="42.80142" lon="0.3976">
        <ele>1230.33</ele>
        <time>2018-08-07T13:13:58Z</time>
      </trkpt>
      <trkpt lat="42.80163" lon="0.39746">
        <ele>1230.27</ele>
        <time>2018-08-07T13:14:00Z</time>
      </trkpt>
      <trkpt lat="42.80195" lon="0.39716">
        <ele>1228.66</ele>
        <time>2018-08-07T13:14:02Z</time>
      </trkpt>
      <trkpt lat="42.80215" lon="0.39702">
        <ele>1227.68</ele>
        <time>2018-08-07T13:14:03Z</time>
      </trkpt>
      <trkpt lat="42.80241" lon="0.39692">
        <ele>1225.99</ele>
        <time>2018-08-07T13:14:04Z</time>
      </trkpt>
      <trkpt lat="42.80261" lon="0.3968">
        <ele>1224.78</ele>
        <time>2018-08-07T13:14:05Z</time>
      </trkpt>
      <trkpt lat="42.80281" lon="0.39668">
        <ele>1223.72</ele>
        <time>2018-08-07T13:14:06Z</time>
      </trkpt>
      <trkpt lat="42.80298" lon="0.39658">
        <ele>1215.7</ele>
        <time>2018-08-07T13:14:07Z</time>
      </trkpt>
      <trkpt lat="42.80318" lon="0.39649">
        <ele>1212.6</ele>
        <time>2018-08-07T13:14:08Z</time>
      </trkpt>
      <trkpt lat="42.80338" lon="0.39641">
        <ele>1210.27</ele>
        <time>2018-08-07T13:14:09Z</time>
      </trkpt>
      <trkpt lat="42.80355" lon="0.39632">
        <ele>1208.87</ele>
        <time>2018-08-07T13:14:10Z</time>
      </trkpt>
      <trkpt lat="42.80372" lon="0.39623">
        <ele>1208.45</ele>
        <time>2018-08-07T13:14:11Z</time>
      </trkpt>
      <trkpt lat="42.80389" lon="0.39613">
        <ele>1206.92</ele>
        <time>2018-08-07T13:14:12Z</time>
      </trkpt>
      <trkpt lat="42.8041" lon="0.39598">
        <ele>1201.22</ele>
        <time>2018-08-07T13:14:14Z</time>
      </trkpt>
      <trkpt lat="42.80431" lon="0.39596">
        <ele>1191.3</ele>
        <time>2018-08-07T13:14:17Z</time>
      </trkpt>
      <trkpt lat="42.80421" lon="0.39625">
        <ele>1190.17</ele>
        <time>2018-08-07T13:14:20Z</time>
      </trkpt>
      <trkpt lat="42.80396" lon="0.39651">
        <ele>1187.95</ele>
        <time>2018-08-07T13:14:22Z</time>
      </trkpt>
      <trkpt lat="42.8038" lon="0.39665">
        <ele>1186.07</ele>
        <time>2018-08-07T13:14:23Z</time>
      </trkpt>
      <trkpt lat="42.80366" lon="0.39683">
        <ele>1184.11</ele>
        <time>2018-08-07T13:14:24Z</time>
      </trkpt>
      <trkpt lat="42.80346" lon="0.39706">
        <ele>1182.82</ele>
        <time>2018-08-07T13:14:25Z</time>
      </trkpt>
      <trkpt lat="42.8033" lon="0.39727">
        <ele>1181.03</ele>
        <time>2018-08-07T13:14:26Z</time>
      </trkpt>
      <trkpt lat="42.80313" lon="0.39748">
        <ele>1178.4</ele>
        <time>2018-08-07T13:14:27Z</time>
      </trkpt>
      <trkpt lat="42.80297" lon="0.3977">
        <ele>1175.51</ele>
        <time>2018-08-07T13:14:28Z</time>
      </trkpt>
      <trkpt lat="42.80283" lon="0.39789">
        <ele>1173.94</ele>
        <time>2018-08-07T13:14:29Z</time>
      </trkpt>
      <trkpt lat="42.8027" lon="0.39809">
        <ele>1172.07</ele>
        <time>2018-08-07T13:14:30Z</time>
      </trkpt>
      <trkpt lat="42.80249" lon="0.39837">
        <ele>1167.7</ele>
        <time>2018-08-07T13:14:32Z</time>
      </trkpt>
      <trkpt lat="42.80224" lon="0.39864">
        <ele>1166.4</ele>
        <time>2018-08-07T13:14:34Z</time>
      </trkpt>
      <trkpt lat="42.80205" lon="0.3987">
        <ele>1164.21</ele>
        <time>2018-08-07T13:14:35Z</time>
      </trkpt>
      <trkpt lat="42.80176" lon="0.39877">
        <ele>1160.83</ele>
        <time>2018-08-07T13:14:37Z</time>
      </trkpt>
      <trkpt lat="42.80168" lon="0.39902">
        <ele>1154.31</ele>
        <time>2018-08-07T13:14:41Z</time>
      </trkpt>
      <trkpt lat="42.80186" lon="0.39893">
        <ele>1151.2</ele>
        <time>2018-08-07T13:14:44Z</time>
      </trkpt>
      <trkpt lat="42.80207" lon="0.39888">
        <ele>1148.45</ele>
        <time>2018-08-07T13:14:45Z</time>
      </trkpt>
      <trkpt lat="42.80243" lon="0.39881">
        <ele>1142.96</ele>
        <time>2018-08-07T13:14:47Z</time>
      </trkpt>
      <trkpt lat="42.80262" lon="0.39876">
        <ele>1141.78</ele>
        <time>2018-08-07T13:14:48Z</time>
      </trkpt>
      <trkpt lat="42.80289" lon="0.39868">
        <ele>1139.32</ele>
        <time>2018-08-07T13:14:49Z</time>
      </trkpt>
      <trkpt lat="42.80307" lon="0.39862">
        <ele>1137.18</ele>
        <time>2018-08-07T13:14:50Z</time>
      </trkpt>
      <trkpt lat="42.80326" lon="0.39853">
        <ele>1135.14</ele>
        <time>2018-08-07T13:14:51Z</time>
      </trkpt>
      <trkpt lat="42.80343" lon="0.39843">
        <ele>1133.13</ele>
        <time>2018-08-07T13:14:52Z</time>
      </trkpt>
      <trkpt lat="42.80364" lon="0.39841">
        <ele>1128.59</ele>
        <time>2018-08-07T13:14:55Z</time>
      </trkpt>
      <trkpt lat="42.80359" lon="0.39875">
        <ele>1124.19</ele>
        <time>2018-08-07T13:14:59Z</time>
      </trkpt>
      <trkpt lat="42.80341" lon="0.39886">
        <ele>1123.54</ele>
        <time>2018-08-07T13:15:00Z</time>
      </trkpt>
      <trkpt lat="42.80324" lon="0.39896">
        <ele>1122.65</ele>
        <time>2018-08-07T13:15:01Z</time>
      </trkpt>
      <trkpt lat="42.80297" lon="0.3991">
        <ele>1122.38</ele>
        <time>2018-08-07T13:15:02Z</time>
      </trkpt>
      <trkpt lat="42.80271" lon="0.39924">
        <ele>1120.9</ele>
        <time>2018-08-07T13:15:03Z</time>
      </trkpt>
      <trkpt lat="42.80248" lon="0.39932">
        <ele>1118.36</ele>
        <time>2018-08-07T13:15:04Z</time>
      </trkpt>
      <trkpt lat="42.80211" lon="0.39943">
        <ele>1113.24</ele>
        <time>2018-08-07T13:15:06Z</time>
      </trkpt>
      <trkpt lat="42.80189" lon="0.39954">
        <ele>1109.13</ele>
        <time>2018-08-07T13:15:08Z</time>
      </trkpt>
      <trkpt lat="42.80172" lon="0.39971">
        <ele>1105.83</ele>
        <time>2018-08-07T13:15:10Z</time>
      </trkpt>
      <trkpt lat="42.80173" lon="0.39996">
        <ele>1105.98</ele>
        <time>2018-08-07T13:15:13Z</time>
      </trkpt>
      <trkpt lat="42.80199" lon="0.39998">
        <ele>1104.44</ele>
        <time>2018-08-07T13:15:16Z</time>
      </trkpt>
      <trkpt lat="42.80225" lon="0.39985">
        <ele>1102.92</ele>
        <time>2018-08-07T13:15:17Z</time>
      </trkpt>
      <trkpt lat="42.80267" lon="0.39971">
        <ele>1102.46</ele>
        <time>2018-08-07T13:15:18Z</time>
      </trkpt>
      <trkpt lat="42.80295" lon="0.39967">
        <ele>1101.63</ele>
        <time>2018-08-07T13:15:19Z</time>
      </trkpt>
      <trkpt lat="42.80326" lon="0.3996">
        <ele>1099.27</ele>
        <time>2018-08-07T13:15:20Z</time>
      </trkpt>
      <trkpt lat="42.80351" lon="0.39954">
        <ele>1097.17</ele>
        <time>2018-08-07T13:15:21Z</time>
      </trkpt>
      <trkpt lat="42.80371" lon="0.3995">
        <ele>1095.84</ele>
        <time>2018-08-07T13:15:22Z</time>
      </trkpt>
      <trkpt lat="42.8039" lon="0.39945">
        <ele>1096.14</ele>
        <time>2018-08-07T13:15:23Z</time>
      </trkpt>
      <trkpt lat="42.80408" lon="0.39937">
        <ele>1094.83</ele>
        <time>2018-08-07T13:15:24Z</time>
      </trkpt>
      <trkpt lat="42.80439" lon="0.39919">
        <ele>1093.62</ele>
        <time>2018-08-07T13:15:26Z</time>
      </trkpt>
      <trkpt lat="42.80426" lon="0.39941">
        <ele>1083.56</ele>
        <time>2018-08-07T13:15:31Z</time>
      </trkpt>
      <trkpt lat="42.80408" lon="0.39957">
        <ele>1078.25</ele>
        <time>2018-08-07T13:15:33Z</time>
      </trkpt>
      <trkpt lat="42.80387" lon="0.39981">
        <ele>1075.05</ele>
        <time>2018-08-07T13:15:35Z</time>
      </trkpt>
      <trkpt lat="42.80356" lon="0.40005">
        <ele>1072.73</ele>
        <time>2018-08-07T13:15:37Z</time>
      </trkpt>
      <trkpt lat="42.80333" lon="0.40014">
        <ele>1071.71</ele>
        <time>2018-08-07T13:15:38Z</time>
      </trkpt>
      <trkpt lat="42.80312" lon="0.40029">
        <ele>1071.4</ele>
        <time>2018-08-07T13:15:39Z</time>
      </trkpt>
      <trkpt lat="42.80291" lon="0.40043">
        <ele>1070.61</ele>
        <time>2018-08-07T13:15:40Z</time>
      </trkpt>
      <trkpt lat="42.80271" lon="0.40055">
        <ele>1068.97</ele>
        <time>2018-08-07T13:15:41Z</time>
      </trkpt>
      <trkpt lat="42.80251" lon="0.40067">
        <ele>1067.78</ele>
        <time>2018-08-07T13:15:42Z</time>
      </trkpt>
      <trkpt lat="42.80227" lon="0.40076">
        <ele>1066.02</ele>
        <time>2018-08-07T13:15:43Z</time>
      </trkpt>
      <trkpt lat="42.80198" lon="0.40086">
        <ele>1065.33</ele>
        <time>2018-08-07T13:15:45Z</time>
      </trkpt>
      <trkpt lat="42.80171" lon="0.40092">
        <ele>1060.17</ele>
        <time>2018-08-07T13:15:48Z</time>
      </trkpt>
      <trkpt lat="42.80178" lon="0.40116">
        <ele>1053.21</ele>
        <time>2018-08-07T13:15:54Z</time>
      </trkpt>
      <trkpt lat="42.80216" lon="0.40111">
        <ele>1050.53</ele>
        <time>2018-08-07T13:15:56Z</time>
      </trkpt>
      <trkpt lat="42.80259" lon="0.40103">
        <ele>1047.49</ele>
        <time>2018-08-07T13:15:58Z</time>
      </trkpt>
      <trkpt lat="42.80291" lon="0.40096">
        <ele>1045.23</ele>
        <time>2018-08-07T13:15:59Z</time>
      </trkpt>
      <trkpt lat="42.80329" lon="0.40091">
        <ele>1041.62</ele>
        <time>2018-08-07T13:16:01Z</time>
      </trkpt>
      <trkpt lat="42.80353" lon="0.40089">
        <ele>1040.67</ele>
        <time>2018-08-07T13:16:02Z</time>
      </trkpt>
      <trkpt lat="42.80372" lon="0.40088">
        <ele>1040.39</ele>
        <time>2018-08-07T13:16:03Z</time>
      </trkpt>
      <trkpt lat="42.80407" lon="0.40094">
        <ele>1037.97</ele>
        <time>2018-08-07T13:16:05Z</time>
      </trkpt>
      <trkpt lat="42.80434" lon="0.40082">
        <ele>1035.23</ele>
        <time>2018-08-07T13:16:07Z</time>
      </trkpt>
      <trkpt lat="42.80463" lon="0.40073">
        <ele>1032.74</ele>
        <time>2018-08-07T13:16:09Z</time>
      </trkpt>
      <trkpt lat="42.8049" lon="0.40053">
        <ele>1028.67</ele>
        <time>2018-08-07T13:16:11Z</time>
      </trkpt>
      <trkpt lat="42.80523" lon="0.4003">
        <ele>1027.6</ele>
        <time>2018-08-07T13:16:13Z</time>
      </trkpt>
      <trkpt lat="42.80549" lon="0.40015">
        <ele>1025.27</ele>
        <time>2018-08-07T13:16:14Z</time>
      </trkpt>
      <trkpt lat="42.80568" lon="0.40001">
        <ele>1022.47</ele>
        <time>2018-08-07T13:16:15Z</time>
      </trkpt>
      <trkpt lat="42.80586" lon="0.39989">
        <ele>1020.93</ele>
        <time>2018-08-07T13:16:16Z</time>
      </trkpt>
      <trkpt lat="42.80612" lon="0.39983">
        <ele>1011.16</ele>
        <time>2018-08-07T13:16:18Z</time>
      </trkpt>
      <trkpt lat="42.80641" lon="0.39986">
        <ele>1004.61</ele>
        <time>2018-08-07T13:16:20Z</time>
      </trkpt>
      <trkpt lat="42.8067" lon="0.39987">
        <ele>1001.08</ele>
        <time>2018-08-07T13:16:22Z</time>
      </trkpt>
      <trkpt lat="42.807" lon="0.40001">
        <ele>997.12</ele>
        <time>2018-08-07T13:16:24Z</time>
      </trkpt>
      <trkpt lat="42.80726" lon="0.4002">
        <ele>991.72</ele>
        <time>2018-08-07T13:16:26Z</time>
      </trkpt>
      <trkpt lat="42.80744" lon="0.40044">
        <ele>987.39</ele>
        <time>2018-08-07T13:16:28Z</time>
      </trkpt>
      <trkpt lat="42.80761" lon="0.40071">
        <ele>983.15</ele>
        <time>2018-08-07T13:16:30Z</time>
      </trkpt>
      <trkpt lat="42.80777" lon="0.40091">
        <ele>980.04</ele>
        <time>2018-08-07T13:16:32Z</time>
      </trkpt>
      <trkpt lat="42.80791" lon="0.40108">
        <ele>979.34</ele>
        <time>2018-08-07T13:16:34Z</time>
      </trkpt>
      <trkpt lat="42.80811" lon="0.4012">
        <ele>977.87</ele>
        <time>2018-08-07T13:16:36Z</time>
      </trkpt>
      <trkpt lat="42.80834" lon="0.40128">
        <ele>974.8</ele>
        <time>2018-08-07T13:16:38Z</time>
      </trkpt>
      <trkpt lat="42.80858" lon="0.40136">
        <ele>972.01</ele>
        <time>2018-08-07T13:16:40Z</time>
      </trkpt>
      <trkpt lat="42.8088" lon="0.40149">
        <ele>969.72</ele>
        <time>2018-08-07T13:16:42Z</time>
      </trkpt>
      <trkpt lat="42.80901" lon="0.40157">
        <ele>966.79</ele>
        <time>2018-08-07T13:16:44Z</time>
      </trkpt>
      <trkpt lat="42.8092" lon="0.40178">
        <ele>964.4</ele>
        <time>2018-08-07T13:16:47Z</time>
      </trkpt>
      <trkpt lat="42.80914" lon="0.40203">
        <ele>962.87</ele>
        <time>2018-08-07T13:16:50Z</time>
      </trkpt>
      <trkpt lat="42.80891" lon="0.40218">
        <ele>961.62</ele>
        <time>2018-08-07T13:16:52Z</time>
      </trkpt>
      <trkpt lat="42.80868" lon="0.40232">
        <ele>960.39</ele>
        <time>2018-08-07T13:16:54Z</time>
      </trkpt>
      <trkpt lat="42.80844" lon="0.40251">
        <ele>960.28</ele>
        <time>2018-08-07T13:16:56Z</time>
      </trkpt>
      <trkpt lat="42.80815" lon="0.40267">
        <ele>959.36</ele>
        <time>2018-08-07T13:16:58Z</time>
      </trkpt>
      <trkpt lat="42.80783" lon="0.40277">
        <ele>960.89</ele>
        <time>2018-08-07T13:17:00Z</time>
      </trkpt>
      <trkpt lat="42.80753" lon="0.40288">
        <ele>961.44</ele>
        <time>2018-08-07T13:17:02Z</time>
      </trkpt>
      <trkpt lat="42.80723" lon="0.40297">
        <ele>961.98</ele>
        <time>2018-08-07T13:17:04Z</time>
      </trkpt>
      <trkpt lat="42.8069" lon="0.40309">
        <ele>962.24</ele>
        <time>2018-08-07T13:17:06Z</time>
      </trkpt>
      <trkpt lat="42.80658" lon="0.40317">
        <ele>961.35</ele>
        <time>2018-08-07T13:17:08Z</time>
      </trkpt>
      <trkpt lat="42.8064" lon="0.40323">
        <ele>961.29</ele>
        <time>2018-08-07T13:17:09Z</time>
      </trkpt>
      <trkpt lat="42.80607" lon="0.40333">
        <ele>961.97</ele>
        <time>2018-08-07T13:17:11Z</time>
      </trkpt>
      <trkpt lat="42.80576" lon="0.40342">
        <ele>960.63</ele>
        <time>2018-08-07T13:17:13Z</time>
      </trkpt>
      <trkpt lat="42.80544" lon="0.40347">
        <ele>959.6</ele>
        <time>2018-08-07T13:17:15Z</time>
      </trkpt>
      <trkpt lat="42.80511" lon="0.40351">
        <ele>958.6</ele>
        <time>2018-08-07T13:17:17Z</time>
      </trkpt>
      <trkpt lat="42.80478" lon="0.40355">
        <ele>957.39</ele>
        <time>2018-08-07T13:17:19Z</time>
      </trkpt>
      <trkpt lat="42.80446" lon="0.40364">
        <ele>955.67</ele>
        <time>2018-08-07T13:17:21Z</time>
      </trkpt>
      <trkpt lat="42.80413" lon="0.40378">
        <ele>955.3</ele>
        <time>2018-08-07T13:17:23Z</time>
      </trkpt>
      <trkpt lat="42.80382" lon="0.40396">
        <ele>954.36</ele>
        <time>2018-08-07T13:17:25Z</time>
      </trkpt>
      <trkpt lat="42.80354" lon="0.40413">
        <ele>953.37</ele>
        <time>2018-08-07T13:17:27Z</time>
      </trkpt>
      <trkpt lat="42.8033" lon="0.40431">
        <ele>952.58</ele>
        <time>2018-08-07T13:17:29Z</time>
      </trkpt>
      <trkpt lat="42.80306" lon="0.4045">
        <ele>952.29</ele>
        <time>2018-08-07T13:17:31Z</time>
      </trkpt>
      <trkpt lat="42.80278" lon="0.40468">
        <ele>952.27</ele>
        <time>2018-08-07T13:17:33Z</time>
      </trkpt>
      <trkpt lat="42.80248" lon="0.40476">
        <ele>953.88</ele>
        <time>2018-08-07T13:17:35Z</time>
      </trkpt>
      <trkpt lat="42.80218" lon="0.40474">
        <ele>954.23</ele>
        <time>2018-08-07T13:17:37Z</time>
      </trkpt>
      <trkpt lat="42.8019" lon="0.40471">
        <ele>954.96</ele>
        <time>2018-08-07T13:17:39Z</time>
      </trkpt>
      <trkpt lat="42.80166" lon="0.40473">
        <ele>954.54</ele>
        <time>2018-08-07T13:17:41Z</time>
      </trkpt>
      <trkpt lat="42.80136" lon="0.40483">
        <ele>954.29</ele>
        <time>2018-08-07T13:17:43Z</time>
      </trkpt>
      <trkpt lat="42.80113" lon="0.40485">
        <ele>954.27</ele>
        <time>2018-08-07T13:17:44Z</time>
      </trkpt>
      <trkpt lat="42.80093" lon="0.40489">
        <ele>954.27</ele>
        <time>2018-08-07T13:17:45Z</time>
      </trkpt>
      <trkpt lat="42.80072" lon="0.40494">
        <ele>954.27</ele>
        <time>2018-08-07T13:17:46Z</time>
      </trkpt>
      <trkpt lat="42.80055" lon="0.40498">
        <ele>954.27</ele>
        <time>2018-08-07T13:17:47Z</time>
      </trkpt>
      <trkpt lat="42.80036" lon="0.40503">
        <ele>954.97</ele>
        <time>2018-08-07T13:17:48Z</time>
      </trkpt>
      <trkpt lat="42.80017" lon="0.40507">
        <ele>955.18</ele>
        <time>2018-08-07T13:17:49Z</time>
      </trkpt>
      <trkpt lat="42.79985" lon="0.40527">
        <ele>955.47</ele>
        <time>2018-08-07T13:17:51Z</time>
      </trkpt>
      <trkpt lat="42.79955" lon="0.40553">
        <ele>955.5</ele>
        <time>2018-08-07T13:17:53Z</time>
      </trkpt>
      <trkpt lat="42.79926" lon="0.40576">
        <ele>955.78</ele>
        <time>2018-08-07T13:17:55Z</time>
      </trkpt>
      <trkpt lat="42.79909" lon="0.40586">
        <ele>955.42</ele>
        <time>2018-08-07T13:17:56Z</time>
      </trkpt>
      <trkpt lat="42.79876" lon="0.40598">
        <ele>955.28</ele>
        <time>2018-08-07T13:17:58Z</time>
      </trkpt>
      <trkpt lat="42.79842" lon="0.40611">
        <ele>955.27</ele>
        <time>2018-08-07T13:18:00Z</time>
      </trkpt>
      <trkpt lat="42.79824" lon="0.40617">
        <ele>955.27</ele>
        <time>2018-08-07T13:18:01Z</time>
      </trkpt>
      <trkpt lat="42.79806" lon="0.40624">
        <ele>955.97</ele>
        <time>2018-08-07T13:18:02Z</time>
      </trkpt>
      <trkpt lat="42.79787" lon="0.40629">
        <ele>956.18</ele>
        <time>2018-08-07T13:18:03Z</time>
      </trkpt>
      <trkpt lat="42.79768" lon="0.40634">
        <ele>956.24</ele>
        <time>2018-08-07T13:18:04Z</time>
      </trkpt>
      <trkpt lat="42.7975" lon="0.40639">
        <ele>956.26</ele>
        <time>2018-08-07T13:18:05Z</time>
      </trkpt>
      <trkpt lat="42.79731" lon="0.40644">
        <ele>956.96</ele>
        <time>2018-08-07T13:18:06Z</time>
      </trkpt>
      <trkpt lat="42.79713" lon="0.40648">
        <ele>957.18</ele>
        <time>2018-08-07T13:18:07Z</time>
      </trkpt>
      <trkpt lat="42.79679" lon="0.40655">
        <ele>958.17</ele>
        <time>2018-08-07T13:18:09Z</time>
      </trkpt>
      <trkpt lat="42.79655" lon="0.40664">
        <ele>959.17</ele>
        <time>2018-08-07T13:18:11Z</time>
      </trkpt>
      <trkpt lat="42.7964" lon="0.40681">
        <ele>959.26</ele>
        <time>2018-08-07T13:18:13Z</time>
      </trkpt>
      <trkpt lat="42.79633" lon="0.40705">
        <ele>958.57</ele>
        <time>2018-08-07T13:18:15Z</time>
      </trkpt>
      <trkpt lat="42.79632" lon="0.4073">
        <ele>959.2</ele>
        <time>2018-08-07T13:18:17Z</time>
      </trkpt>
      <trkpt lat="42.79629" lon="0.40755">
        <ele>958.36</ele>
        <time>2018-08-07T13:18:20Z</time>
      </trkpt>
      <trkpt lat="42.79626" lon="0.40787">
        <ele>956.35</ele>
        <time>2018-08-07T13:18:24Z</time>
      </trkpt>
      <trkpt lat="42.79626" lon="0.40818">
        <ele>956.54</ele>
        <time>2018-08-07T13:18:27Z</time>
      </trkpt>
      <trkpt lat="42.79627" lon="0.40853">
        <ele>958.87</ele>
        <time>2018-08-07T13:18:36Z</time>
      </trkpt>
      <trkpt lat="42.79636" lon="0.4088">
        <ele>959.89</ele>
        <time>2018-08-07T13:18:39Z</time>
      </trkpt>
      <trkpt lat="42.79649" lon="0.40909">
        <ele>960.32</ele>
        <time>2018-08-07T13:18:42Z</time>
      </trkpt>
      <trkpt lat="42.79669" lon="0.40913">
        <ele>959.36</ele>
        <time>2018-08-07T13:18:45Z</time>
      </trkpt>
      <trkpt lat="42.79693" lon="0.40919">
        <ele>960.26</ele>
        <time>2018-08-07T13:18:52Z</time>
      </trkpt>
      <trkpt lat="42.79719" lon="0.40926">
        <ele>959.29</ele>
        <time>2018-08-07T13:18:55Z</time>
      </trkpt>
      <trkpt lat="42.79738" lon="0.40932">
        <ele>958.57</ele>
        <time>2018-08-07T13:18:57Z</time>
      </trkpt>
      <trkpt lat="42.7976" lon="0.4094">
        <ele>957.59</ele>
        <time>2018-08-07T13:18:59Z</time>
      </trkpt>
      <trkpt lat="42.79784" lon="0.40951">
        <ele>957.3</ele>
        <time>2018-08-07T13:19:01Z</time>
      </trkpt>
      <trkpt lat="42.79812" lon="0.40964">
        <ele>957.27</ele>
        <time>2018-08-07T13:19:03Z</time>
      </trkpt>
      <trkpt lat="42.79839" lon="0.40977">
        <ele>957.06</ele>
        <time>2018-08-07T13:19:05Z</time>
      </trkpt>
      <trkpt lat="42.79866" lon="0.40992">
        <ele>958.16</ele>
        <time>2018-08-07T13:19:07Z</time>
      </trkpt>
      <trkpt lat="42.79893" lon="0.41006">
        <ele>958.96</ele>
        <time>2018-08-07T13:19:09Z</time>
      </trkpt>
      <trkpt lat="42.79917" lon="0.41023">
        <ele>959.94</ele>
        <time>2018-08-07T13:19:11Z</time>
      </trkpt>
      <trkpt lat="42.79932" lon="0.41052">
        <ele>960.94</ele>
        <time>2018-08-07T13:19:13Z</time>
      </trkpt>
      <trkpt lat="42.79933" lon="0.41081">
        <ele>962.93</ele>
        <time>2018-08-07T13:19:16Z</time>
      </trkpt>
      <trkpt lat="42.79953" lon="0.41101">
        <ele>960.68</ele>
        <time>2018-08-07T13:19:31Z</time>
      </trkpt>
      <trkpt lat="42.79974" lon="0.41107">
        <ele>961.21</ele>
        <time>2018-08-07T13:19:33Z</time>
      </trkpt>
      <trkpt lat="42.8" lon="0.41115">
        <ele>960.56</ele>
        <time>2018-08-07T13:19:35Z</time>
      </trkpt>
      <trkpt lat="42.8003" lon="0.41122">
        <ele>959.59</ele>
        <time>2018-08-07T13:19:37Z</time>
      </trkpt>
      <trkpt lat="42.80061" lon="0.4113">
        <ele>959.3</ele>
        <time>2018-08-07T13:19:39Z</time>
      </trkpt>
      <trkpt lat="42.80097" lon="0.41125">
        <ele>959.27</ele>
        <time>2018-08-07T13:19:41Z</time>
      </trkpt>
      <trkpt lat="42.80115" lon="0.4112">
        <ele>959.27</ele>
        <time>2018-08-07T13:19:42Z</time>
      </trkpt>
      <trkpt lat="42.80134" lon="0.41115">
        <ele>959.27</ele>
        <time>2018-08-07T13:19:43Z</time>
      </trkpt>
      <trkpt lat="42.80152" lon="0.4111">
        <ele>958.57</ele>
        <time>2018-08-07T13:19:44Z</time>
      </trkpt>
      <trkpt lat="42.80171" lon="0.41105">
        <ele>958.36</ele>
        <time>2018-08-07T13:19:45Z</time>
      </trkpt>
      <trkpt lat="42.80189" lon="0.41101">
        <ele>958.29</ele>
        <time>2018-08-07T13:19:46Z</time>
      </trkpt>
      <trkpt lat="42.80207" lon="0.41099">
        <ele>958.28</ele>
        <time>2018-08-07T13:19:47Z</time>
      </trkpt>
      <trkpt lat="42.80244" lon="0.41107">
        <ele>959.67</ele>
        <time>2018-08-07T13:19:49Z</time>
      </trkpt>
      <trkpt lat="42.80264" lon="0.41112">
        <ele>960.09</ele>
        <time>2018-08-07T13:19:50Z</time>
      </trkpt>
      <trkpt lat="42.80283" lon="0.41121">
        <ele>959.51</ele>
        <time>2018-08-07T13:19:51Z</time>
      </trkpt>
      <trkpt lat="42.80301" lon="0.41131">
        <ele>959.34</ele>
        <time>2018-08-07T13:19:52Z</time>
      </trkpt>
      <trkpt lat="42.80319" lon="0.41144">
        <ele>960.69</ele>
        <time>2018-08-07T13:19:53Z</time>
      </trkpt>
      <trkpt lat="42.80338" lon="0.41155">
        <ele>961.09</ele>
        <time>2018-08-07T13:19:54Z</time>
      </trkpt>
      <trkpt lat="42.80357" lon="0.41161">
        <ele>961.21</ele>
        <time>2018-08-07T13:19:55Z</time>
      </trkpt>
      <trkpt lat="42.80378" lon="0.41166">
        <ele>961.95</ele>
        <time>2018-08-07T13:19:56Z</time>
      </trkpt>
      <trkpt lat="42.80398" lon="0.41169">
        <ele>962.17</ele>
        <time>2018-08-07T13:19:57Z</time>
      </trkpt>
      <trkpt lat="42.8043" lon="0.41167">
        <ele>964.57</ele>
        <time>2018-08-07T13:19:59Z</time>
      </trkpt>
      <trkpt lat="42.8046" lon="0.41175">
        <ele>967.02</ele>
        <time>2018-08-07T13:20:01Z</time>
      </trkpt>
      <trkpt lat="42.80483" lon="0.41201">
        <ele>969.28</ele>
        <time>2018-08-07T13:20:03Z</time>
      </trkpt>
      <trkpt lat="42.80508" lon="0.4121">
        <ele>971.37</ele>
        <time>2018-08-07T13:20:05Z</time>
      </trkpt>
      <trkpt lat="42.80534" lon="0.41214">
        <ele>974.71</ele>
        <time>2018-08-07T13:20:07Z</time>
      </trkpt>
      <trkpt lat="42.80562" lon="0.4122">
        <ele>974.31</ele>
        <time>2018-08-07T13:20:09Z</time>
      </trkpt>
      <trkpt lat="42.80593" lon="0.41228">
        <ele>972.45</ele>
        <time>2018-08-07T13:20:11Z</time>
      </trkpt>
      <trkpt lat="42.8062" lon="0.41234">
        <ele>972.28</ele>
        <time>2018-08-07T13:20:13Z</time>
      </trkpt>
      <trkpt lat="42.80648" lon="0.41219">
        <ele>972.97</ele>
        <time>2018-08-07T13:20:15Z</time>
      </trkpt>
      <trkpt lat="42.80661" lon="0.41201">
        <ele>972.48</ele>
        <time>2018-08-07T13:20:16Z</time>
      </trkpt>
      <trkpt lat="42.80677" lon="0.41181">
        <ele>972.33</ele>
        <time>2018-08-07T13:20:17Z</time>
      </trkpt>
      <trkpt lat="42.8071" lon="0.41151">
        <ele>973.88</ele>
        <time>2018-08-07T13:20:19Z</time>
      </trkpt>
      <trkpt lat="42.80727" lon="0.41138">
        <ele>973.45</ele>
        <time>2018-08-07T13:20:20Z</time>
      </trkpt>
      <trkpt lat="42.80743" lon="0.41125">
        <ele>972.62</ele>
        <time>2018-08-07T13:20:21Z</time>
      </trkpt>
      <trkpt lat="42.80759" lon="0.41113">
        <ele>972.37</ele>
        <time>2018-08-07T13:20:22Z</time>
      </trkpt>
      <trkpt lat="42.80777" lon="0.41101">
        <ele>972.3</ele>
        <time>2018-08-07T13:20:23Z</time>
      </trkpt>
      <trkpt lat="42.80794" lon="0.41088">
        <ele>972.28</ele>
        <time>2018-08-07T13:20:24Z</time>
      </trkpt>
      <trkpt lat="42.8081" lon="0.41074">
        <ele>972.27</ele>
        <time>2018-08-07T13:20:25Z</time>
      </trkpt>
      <trkpt lat="42.80825" lon="0.4106">
        <ele>971.57</ele>
        <time>2018-08-07T13:20:26Z</time>
      </trkpt>
      <trkpt lat="42.8084" lon="0.41047">
        <ele>971.36</ele>
        <time>2018-08-07T13:20:27Z</time>
      </trkpt>
      <trkpt lat="42.80857" lon="0.41036">
        <ele>971.29</ele>
        <time>2018-08-07T13:20:28Z</time>
      </trkpt>
      <trkpt lat="42.80877" lon="0.41025">
        <ele>970.58</ele>
        <time>2018-08-07T13:20:29Z</time>
      </trkpt>
      <trkpt lat="42.80897" lon="0.41014">
        <ele>969.66</ele>
        <time>2018-08-07T13:20:30Z</time>
      </trkpt>
      <trkpt lat="42.80917" lon="0.41003">
        <ele>968.68</ele>
        <time>2018-08-07T13:20:31Z</time>
      </trkpt>
      <trkpt lat="42.80935" lon="0.40991">
        <ele>968.39</ele>
        <time>2018-08-07T13:20:32Z</time>
      </trkpt>
      <trkpt lat="42.80951" lon="0.40977">
        <ele>967.6</ele>
        <time>2018-08-07T13:20:33Z</time>
      </trkpt>
      <trkpt lat="42.80967" lon="0.40964">
        <ele>967.37</ele>
        <time>2018-08-07T13:20:34Z</time>
      </trkpt>
      <trkpt lat="42.80983" lon="0.40951">
        <ele>967.3</ele>
        <time>2018-08-07T13:20:35Z</time>
      </trkpt>
      <trkpt lat="42.81015" lon="0.40933">
        <ele>968.88</ele>
        <time>2018-08-07T13:20:37Z</time>
      </trkpt>
      <trkpt lat="42.81048" lon="0.40927">
        <ele>969.23</ele>
        <time>2018-08-07T13:20:39Z</time>
      </trkpt>
      <trkpt lat="42.81081" lon="0.40931">
        <ele>968.56</ele>
        <time>2018-08-07T13:20:41Z</time>
      </trkpt>
      <trkpt lat="42.81113" lon="0.40935">
        <ele>966.89</ele>
        <time>2018-08-07T13:20:43Z</time>
      </trkpt>
      <trkpt lat="42.8113" lon="0.40952">
        <ele>965.13</ele>
        <time>2018-08-07T13:20:45Z</time>
      </trkpt>
      <trkpt lat="42.81123" lon="0.40984">
        <ele>962.34</ele>
        <time>2018-08-07T13:20:48Z</time>
      </trkpt>
      <trkpt lat="42.81112" lon="0.41023">
        <ele>962.97</ele>
        <time>2018-08-07T13:20:50Z</time>
      </trkpt>
      <trkpt lat="42.81094" lon="0.41062">
        <ele>961.84</ele>
        <time>2018-08-07T13:20:52Z</time>
      </trkpt>
      <trkpt lat="42.81073" lon="0.41083">
        <ele>958.8</ele>
        <time>2018-08-07T13:20:54Z</time>
      </trkpt>
      <trkpt lat="42.8106" lon="0.41111">
        <ele>957.25</ele>
        <time>2018-08-07T13:20:57Z</time>
      </trkpt>
      <trkpt lat="42.81065" lon="0.41084">
        <ele>956.47</ele>
        <time>2018-08-07T13:21:02Z</time>
      </trkpt>
      <trkpt lat="42.81074" lon="0.41046">
        <ele>953.97</ele>
        <time>2018-08-07T13:21:04Z</time>
      </trkpt>
      <trkpt lat="42.81111" lon="0.41014">
        <ele>953.48</ele>
        <time>2018-08-07T13:21:05Z</time>
      </trkpt>
      <trkpt lat="42.81134" lon="0.40991">
        <ele>952.63</ele>
        <time>2018-08-07T13:21:06Z</time>
      </trkpt>
      <trkpt lat="42.81152" lon="0.40971">
        <ele>952.38</ele>
        <time>2018-08-07T13:21:07Z</time>
      </trkpt>
      <trkpt lat="42.81169" lon="0.40939">
        <ele>947.94</ele>
        <time>2018-08-07T13:21:09Z</time>
      </trkpt>
      <trkpt lat="42.81188" lon="0.40915">
        <ele>945.93</ele>
        <time>2018-08-07T13:21:11Z</time>
      </trkpt>
      <trkpt lat="42.81214" lon="0.40913">
        <ele>941.79</ele>
        <time>2018-08-07T13:21:14Z</time>
      </trkpt>
      <trkpt lat="42.81243" lon="0.40937">
        <ele>940.82</ele>
        <time>2018-08-07T13:21:16Z</time>
      </trkpt>
      <trkpt lat="42.81274" lon="0.40951">
        <ele>939.41</ele>
        <time>2018-08-07T13:21:18Z</time>
      </trkpt>
      <trkpt lat="42.81299" lon="0.40966">
        <ele>938.37</ele>
        <time>2018-08-07T13:21:20Z</time>
      </trkpt>
      <trkpt lat="42.81318" lon="0.40985">
        <ele>938.07</ele>
        <time>2018-08-07T13:21:22Z</time>
      </trkpt>
      <trkpt lat="42.8132" lon="0.41024">
        <ele>938.25</ele>
        <time>2018-08-07T13:21:24Z</time>
      </trkpt>
      <trkpt lat="42.81323" lon="0.41049">
        <ele>936.86</ele>
        <time>2018-08-07T13:21:25Z</time>
      </trkpt>
      <trkpt lat="42.81325" lon="0.41074">
        <ele>936.45</ele>
        <time>2018-08-07T13:21:26Z</time>
      </trkpt>
      <trkpt lat="42.81327" lon="0.411">
        <ele>936.32</ele>
        <time>2018-08-07T13:21:27Z</time>
      </trkpt>
      <trkpt lat="42.81328" lon="0.41125">
        <ele>936.98</ele>
        <time>2018-08-07T13:21:28Z</time>
      </trkpt>
      <trkpt lat="42.8133" lon="0.41152">
        <ele>937.18</ele>
        <time>2018-08-07T13:21:29Z</time>
      </trkpt>
      <trkpt lat="42.81332" lon="0.41177">
        <ele>937.94</ele>
        <time>2018-08-07T13:21:30Z</time>
      </trkpt>
      <trkpt lat="42.81336" lon="0.41202">
        <ele>938.87</ele>
        <time>2018-08-07T13:21:31Z</time>
      </trkpt>
      <trkpt lat="42.81339" lon="0.41227">
        <ele>939.15</ele>
        <time>2018-08-07T13:21:32Z</time>
      </trkpt>
      <trkpt lat="42.81343" lon="0.41252">
        <ele>938.53</ele>
        <time>2018-08-07T13:21:33Z</time>
      </trkpt>
      <trkpt lat="42.81343" lon="0.41297">
        <ele>938.5</ele>
        <time>2018-08-07T13:21:35Z</time>
      </trkpt>
      <trkpt lat="42.81346" lon="0.41336">
        <ele>939.2</ele>
        <time>2018-08-07T13:21:37Z</time>
      </trkpt>
      <trkpt lat="42.81359" lon="0.41366">
        <ele>941.57</ele>
        <time>2018-08-07T13:21:39Z</time>
      </trkpt>
      <trkpt lat="42.81378" lon="0.41385">
        <ele>942.2</ele>
        <time>2018-08-07T13:21:41Z</time>
      </trkpt>
      <trkpt lat="42.81401" lon="0.41396">
        <ele>942.26</ele>
        <time>2018-08-07T13:21:43Z</time>
      </trkpt>
      <trkpt lat="42.81428" lon="0.41397">
        <ele>940.66</ele>
        <time>2018-08-07T13:21:45Z</time>
      </trkpt>
      <trkpt lat="42.8145" lon="0.41395">
        <ele>939.39</ele>
        <time>2018-08-07T13:21:47Z</time>
      </trkpt>
      <trkpt lat="42.81476" lon="0.41394">
        <ele>937.6</ele>
        <time>2018-08-07T13:21:50Z</time>
      </trkpt>
      <trkpt lat="42.81502" lon="0.41385">
        <ele>939.22</ele>
        <time>2018-08-07T13:21:53Z</time>
      </trkpt>
      <trkpt lat="42.81518" lon="0.41371">
        <ele>938.35</ele>
        <time>2018-08-07T13:21:55Z</time>
      </trkpt>
      <trkpt lat="42.8153" lon="0.41353">
        <ele>938.97</ele>
        <time>2018-08-07T13:21:57Z</time>
      </trkpt>
      <trkpt lat="42.81543" lon="0.41336">
        <ele>938.54</ele>
        <time>2018-08-07T13:21:59Z</time>
      </trkpt>
      <trkpt lat="42.81559" lon="0.41322">
        <ele>939.2</ele>
        <time>2018-08-07T13:22:01Z</time>
      </trkpt>
      <trkpt lat="42.81584" lon="0.41317">
        <ele>939.06</ele>
        <time>2018-08-07T13:22:04Z</time>
      </trkpt>
      <trkpt lat="42.81607" lon="0.41316">
        <ele>940.17</ele>
        <time>2018-08-07T13:22:07Z</time>
      </trkpt>
      <trkpt lat="42.81626" lon="0.41333">
        <ele>942.15</ele>
        <time>2018-08-07T13:22:10Z</time>
      </trkpt>
      <trkpt lat="42.81636" lon="0.41358">
        <ele>943.17</ele>
        <time>2018-08-07T13:22:12Z</time>
      </trkpt>
      <trkpt lat="42.8165" lon="0.41375">
        <ele>944.17</ele>
        <time>2018-08-07T13:22:14Z</time>
      </trkpt>
      <trkpt lat="42.81672" lon="0.41376">
        <ele>945.87</ele>
        <time>2018-08-07T13:22:16Z</time>
      </trkpt>
      <trkpt lat="42.81692" lon="0.41369">
        <ele>947.63</ele>
        <time>2018-08-07T13:22:18Z</time>
      </trkpt>
      <trkpt lat="42.81714" lon="0.41369">
        <ele>948.25</ele>
        <time>2018-08-07T13:22:21Z</time>
      </trkpt>
      <trkpt lat="42.81721" lon="0.41398">
        <ele>949.73</ele>
        <time>2018-08-07T13:22:24Z</time>
      </trkpt>
      <trkpt lat="42.81724" lon="0.41425">
        <ele>951.83</ele>
        <time>2018-08-07T13:22:26Z</time>
      </trkpt>
      <trkpt lat="42.81718" lon="0.41465">
        <ele>955.03</ele>
        <time>2018-08-07T13:22:28Z</time>
      </trkpt>
      <trkpt lat="42.81718" lon="0.41499">
        <ele>957.98</ele>
        <time>2018-08-07T13:22:30Z</time>
      </trkpt>
      <trkpt lat="42.81732" lon="0.41517">
        <ele>958.94</ele>
        <time>2018-08-07T13:22:32Z</time>
      </trkpt>
      <trkpt lat="42.8177" lon="0.41508">
        <ele>961.63</ele>
        <time>2018-08-07T13:22:35Z</time>
      </trkpt>
      <trkpt lat="42.81788" lon="0.41504">
        <ele>962.78</ele>
        <time>2018-08-07T13:22:36Z</time>
      </trkpt>
      <trkpt lat="42.81806" lon="0.41495">
        <ele>963.82</ele>
        <time>2018-08-07T13:22:37Z</time>
      </trkpt>
      <trkpt lat="42.81823" lon="0.41485">
        <ele>965.53</ele>
        <time>2018-08-07T13:22:38Z</time>
      </trkpt>
      <trkpt lat="42.81848" lon="0.41473">
        <ele>967.32</ele>
        <time>2018-08-07T13:22:40Z</time>
      </trkpt>
      <trkpt lat="42.81865" lon="0.41487">
        <ele>969.58</ele>
        <time>2018-08-07T13:22:42Z</time>
      </trkpt>
      <trkpt lat="42.81868" lon="0.41519">
        <ele>971.12</ele>
        <time>2018-08-07T13:22:44Z</time>
      </trkpt>
      <trkpt lat="42.81875" lon="0.41549">
        <ele>972.86</ele>
        <time>2018-08-07T13:22:46Z</time>
      </trkpt>
      <trkpt lat="42.81893" lon="0.41566">
        <ele>972.32</ele>
        <time>2018-08-07T13:22:48Z</time>
      </trkpt>
      <trkpt lat="42.81932" lon="0.41555">
        <ele>974.58</ele>
        <time>2018-08-07T13:22:50Z</time>
      </trkpt>
      <trkpt lat="42.81961" lon="0.41547">
        <ele>978.43</ele>
        <time>2018-08-07T13:22:52Z</time>
      </trkpt>
      <trkpt lat="42.81989" lon="0.4154">
        <ele>981.71</ele>
        <time>2018-08-07T13:22:54Z</time>
      </trkpt>
      <trkpt lat="42.82016" lon="0.41536">
        <ele>983.83</ele>
        <time>2018-08-07T13:22:56Z</time>
      </trkpt>
      <trkpt lat="42.82043" lon="0.41536">
        <ele>984.23</ele>
        <time>2018-08-07T13:22:58Z</time>
      </trkpt>
      <trkpt lat="42.82071" lon="0.41539">
        <ele>986.57</ele>
        <time>2018-08-07T13:23:00Z</time>
      </trkpt>
      <trkpt lat="42.82094" lon="0.41554">
        <ele>989.3</ele>
        <time>2018-08-07T13:23:02Z</time>
      </trkpt>
      <trkpt lat="42.8212" lon="0.41575">
        <ele>994.1</ele>
        <time>2018-08-07T13:23:04Z</time>
      </trkpt>
      <trkpt lat="42.82153" lon="0.4159">
        <ele>996.77</ele>
        <time>2018-08-07T13:23:06Z</time>
      </trkpt>
      <trkpt lat="42.82187" lon="0.41597">
        <ele>998.83</ele>
        <time>2018-08-07T13:23:08Z</time>
      </trkpt>
      <trkpt lat="42.82222" lon="0.41585">
        <ele>999.23</ele>
        <time>2018-08-07T13:23:10Z</time>
      </trkpt>
      <trkpt lat="42.8224" lon="0.41571">
        <ele>999.26</ele>
        <time>2018-08-07T13:23:11Z</time>
      </trkpt>
      <trkpt lat="42.82259" lon="0.41557">
        <ele>997.86</ele>
        <time>2018-08-07T13:23:12Z</time>
      </trkpt>
      <trkpt lat="42.8228" lon="0.41544">
        <ele>997.45</ele>
        <time>2018-08-07T13:23:13Z</time>
      </trkpt>
      <trkpt lat="42.82302" lon="0.41531">
        <ele>997.32</ele>
        <time>2018-08-07T13:23:14Z</time>
      </trkpt>
      <trkpt lat="42.82322" lon="0.41519">
        <ele>997.28</ele>
        <time>2018-08-07T13:23:15Z</time>
      </trkpt>
      <trkpt lat="42.82344" lon="0.41506">
        <ele>997.27</ele>
        <time>2018-08-07T13:23:16Z</time>
      </trkpt>
      <trkpt lat="42.82361" lon="0.41494">
        <ele>997.97</ele>
        <time>2018-08-07T13:23:17Z</time>
      </trkpt>
      <trkpt lat="42.82392" lon="0.41471">
        <ele>999.85</ele>
        <time>2018-08-07T13:23:19Z</time>
      </trkpt>
      <trkpt lat="42.82412" lon="0.41459">
        <ele>999.41</ele>
        <time>2018-08-07T13:23:22Z</time>
      </trkpt>
      <trkpt lat="42.82398" lon="0.41489">
        <ele>997.9</ele>
        <time>2018-08-07T13:23:26Z</time>
      </trkpt>
      <trkpt lat="42.82379" lon="0.41498">
        <ele>999.56</ele>
        <time>2018-08-07T13:23:27Z</time>
      </trkpt>
      <trkpt lat="42.82355" lon="0.4153">
        <ele>1001.11</ele>
        <time>2018-08-07T13:23:29Z</time>
      </trkpt>
      <trkpt lat="42.82342" lon="0.41552">
        <ele>1002.62</ele>
        <time>2018-08-07T13:23:30Z</time>
      </trkpt>
      <trkpt lat="42.82327" lon="0.41573">
        <ele>1003.07</ele>
        <time>2018-08-07T13:23:31Z</time>
      </trkpt>
      <trkpt lat="42.82306" lon="0.41588">
        <ele>1004.61</ele>
        <time>2018-08-07T13:23:32Z</time>
      </trkpt>
      <trkpt lat="42.82286" lon="0.41605">
        <ele>1005.77</ele>
        <time>2018-08-07T13:23:33Z</time>
      </trkpt>
      <trkpt lat="42.82262" lon="0.4162">
        <ele>1008.92</ele>
        <time>2018-08-07T13:23:34Z</time>
      </trkpt>
      <trkpt lat="42.82241" lon="0.41637">
        <ele>1011.96</ele>
        <time>2018-08-07T13:23:35Z</time>
      </trkpt>
      <trkpt lat="42.8222" lon="0.41653">
        <ele>1014.28</ele>
        <time>2018-08-07T13:23:36Z</time>
      </trkpt>
      <trkpt lat="42.82199" lon="0.41667">
        <ele>1016.37</ele>
        <time>2018-08-07T13:23:37Z</time>
      </trkpt>
      <trkpt lat="42.82178" lon="0.4168">
        <ele>1019.1</ele>
        <time>2018-08-07T13:23:38Z</time>
      </trkpt>
      <trkpt lat="42.82158" lon="0.41692">
        <ele>1020.62</ele>
        <time>2018-08-07T13:23:39Z</time>
      </trkpt>
      <trkpt lat="42.82138" lon="0.41705">
        <ele>1022.47</ele>
        <time>2018-08-07T13:23:40Z</time>
      </trkpt>
      <trkpt lat="42.82117" lon="0.41717">
        <ele>1023.73</ele>
        <time>2018-08-07T13:23:41Z</time>
      </trkpt>
      <trkpt lat="42.82096" lon="0.41728">
        <ele>1023.41</ele>
        <time>2018-08-07T13:23:42Z</time>
      </trkpt>
      <trkpt lat="42.82074" lon="0.4174">
        <ele>1026.11</ele>
        <time>2018-08-07T13:23:43Z</time>
      </trkpt>
      <trkpt lat="42.82052" lon="0.41756">
        <ele>1028.32</ele>
        <time>2018-08-07T13:23:44Z</time>
      </trkpt>
      <trkpt lat="42.8203" lon="0.41774">
        <ele>1031.08</ele>
        <time>2018-08-07T13:23:45Z</time>
      </trkpt>
      <trkpt lat="42.82007" lon="0.41792">
        <ele>1034.01</ele>
        <time>2018-08-07T13:23:46Z</time>
      </trkpt>
      <trkpt lat="42.81983" lon="0.41807">
        <ele>1035.59</ele>
        <time>2018-08-07T13:23:47Z</time>
      </trkpt>
      <trkpt lat="42.81963" lon="0.4182">
        <ele>1036.76</ele>
        <time>2018-08-07T13:23:48Z</time>
      </trkpt>
      <trkpt lat="42.81943" lon="0.41838">
        <ele>1038.52</ele>
        <time>2018-08-07T13:23:49Z</time>
      </trkpt>
      <trkpt lat="42.81925" lon="0.41858">
        <ele>1040.44</ele>
        <time>2018-08-07T13:23:50Z</time>
      </trkpt>
      <trkpt lat="42.81906" lon="0.41876">
        <ele>1043.12</ele>
        <time>2018-08-07T13:23:51Z</time>
      </trkpt>
      <trkpt lat="42.81884" lon="0.41893">
        <ele>1045.32</ele>
        <time>2018-08-07T13:23:52Z</time>
      </trkpt>
      <trkpt lat="42.81858" lon="0.41907">
        <ele>1048.08</ele>
        <time>2018-08-07T13:23:53Z</time>
      </trkpt>
      <trkpt lat="42.8183" lon="0.4192">
        <ele>1049.61</ele>
        <time>2018-08-07T13:23:54Z</time>
      </trkpt>
      <trkpt lat="42.81803" lon="0.41934">
        <ele>1050.77</ele>
        <time>2018-08-07T13:23:55Z</time>
      </trkpt>
      <trkpt lat="42.81773" lon="0.41946">
        <ele>1051.12</ele>
        <time>2018-08-07T13:23:56Z</time>
      </trkpt>
      <trkpt lat="42.81748" lon="0.41958">
        <ele>1054.02</ele>
        <time>2018-08-07T13:23:57Z</time>
      </trkpt>
      <trkpt lat="42.81726" lon="0.41969">
        <ele>1056.99</ele>
        <time>2018-08-07T13:23:58Z</time>
      </trkpt>
      <trkpt lat="42.81705" lon="0.41981">
        <ele>1059.29</ele>
        <time>2018-08-07T13:23:59Z</time>
      </trkpt>
      <trkpt lat="42.81684" lon="0.41994">
        <ele>1059.97</ele>
        <time>2018-08-07T13:24:00Z</time>
      </trkpt>
      <trkpt lat="42.81663" lon="0.42018">
        <ele>1062.28</ele>
        <time>2018-08-07T13:24:01Z</time>
      </trkpt>
      <trkpt lat="42.81643" lon="0.42038">
        <ele>1064.37</ele>
        <time>2018-08-07T13:24:02Z</time>
      </trkpt>
      <trkpt lat="42.81625" lon="0.42058">
        <ele>1066.4</ele>
        <time>2018-08-07T13:24:03Z</time>
      </trkpt>
      <trkpt lat="42.81609" lon="0.42075">
        <ele>1067.71</ele>
        <time>2018-08-07T13:24:04Z</time>
      </trkpt>
      <trkpt lat="42.8159" lon="0.42089">
        <ele>1068.8</ele>
        <time>2018-08-07T13:24:05Z</time>
      </trkpt>
      <trkpt lat="42.81572" lon="0.42101">
        <ele>1070.53</ele>
        <time>2018-08-07T13:24:06Z</time>
      </trkpt>
      <trkpt lat="42.81551" lon="0.42112">
        <ele>1071.04</ele>
        <time>2018-08-07T13:24:07Z</time>
      </trkpt>
      <trkpt lat="42.81529" lon="0.42124">
        <ele>1071.9</ele>
        <time>2018-08-07T13:24:08Z</time>
      </trkpt>
      <trkpt lat="42.81506" lon="0.42131">
        <ele>1074.26</ele>
        <time>2018-08-07T13:24:09Z</time>
      </trkpt>
      <trkpt lat="42.81487" lon="0.4214">
        <ele>1077.06</ele>
        <time>2018-08-07T13:24:10Z</time>
      </trkpt>
      <trkpt lat="42.81469" lon="0.42151">
        <ele>1078.61</ele>
        <time>2018-08-07T13:24:11Z</time>
      </trkpt>
      <trkpt lat="42.81452" lon="0.42166">
        <ele>1080.47</ele>
        <time>2018-08-07T13:24:12Z</time>
      </trkpt>
      <trkpt lat="42.81436" lon="0.42184">
        <ele>1083.13</ele>
        <time>2018-08-07T13:24:13Z</time>
      </trkpt>
      <trkpt lat="42.81422" lon="0.42207">
        <ele>1085.33</ele>
        <time>2018-08-07T13:24:14Z</time>
      </trkpt>
      <trkpt lat="42.81409" lon="0.42233">
        <ele>1087.38</ele>
        <time>2018-08-07T13:24:15Z</time>
      </trkpt>
      <trkpt lat="42.81397" lon="0.42261">
        <ele>1089.4</ele>
        <time>2018-08-07T13:24:16Z</time>
      </trkpt>
      <trkpt lat="42.81384" lon="0.42289">
        <ele>1090.71</ele>
        <time>2018-08-07T13:24:17Z</time>
      </trkpt>
      <trkpt lat="42.81372" lon="0.42313">
        <ele>1091.1</ele>
        <time>2018-08-07T13:24:18Z</time>
      </trkpt>
      <trkpt lat="42.81359" lon="0.42337">
        <ele>1091.92</ele>
        <time>2018-08-07T13:24:19Z</time>
      </trkpt>
      <trkpt lat="42.81337" lon="0.4237">
        <ele>1093.85</ele>
        <time>2018-08-07T13:24:21Z</time>
      </trkpt>
      <trkpt lat="42.8132" lon="0.42379">
        <ele>1094.93</ele>
        <time>2018-08-07T13:24:23Z</time>
      </trkpt>
      <trkpt lat="42.81289" lon="0.42371">
        <ele>1097.76</ele>
        <time>2018-08-07T13:24:25Z</time>
      </trkpt>
      <trkpt lat="42.81269" lon="0.42355">
        <ele>1098.81</ele>
        <time>2018-08-07T13:24:26Z</time>
      </trkpt>
      <trkpt lat="42.8123" lon="0.42329">
        <ele>1104.03</ele>
        <time>2018-08-07T13:24:27Z</time>
      </trkpt>
      <trkpt lat="42.81202" lon="0.42316">
        <ele>1109.8</ele>
        <time>2018-08-07T13:24:28Z</time>
      </trkpt>
      <trkpt lat="42.81173" lon="0.42302">
        <ele>1114.33</ele>
        <time>2018-08-07T13:24:29Z</time>
      </trkpt>
      <trkpt lat="42.81145" lon="0.42287">
        <ele>1117.78</ele>
        <time>2018-08-07T13:24:30Z</time>
      </trkpt>
      <trkpt lat="42.81118" lon="0.42271">
        <ele>1119.52</ele>
        <time>2018-08-07T13:24:31Z</time>
      </trkpt>
      <trkpt lat="42.8109" lon="0.42254">
        <ele>1121.44</ele>
        <time>2018-08-07T13:24:32Z</time>
      </trkpt>
      <trkpt lat="42.81065" lon="0.42233">
        <ele>1122.72</ele>
        <time>2018-08-07T13:24:33Z</time>
      </trkpt>
      <trkpt lat="42.81027" lon="0.42205">
        <ele>1127.35</ele>
        <time>2018-08-07T13:24:35Z</time>
      </trkpt>
      <trkpt lat="42.81005" lon="0.42192">
        <ele>1130.09</ele>
        <time>2018-08-07T13:24:36Z</time>
      </trkpt>
      <trkpt lat="42.80984" lon="0.42185">
        <ele>1131.61</ele>
        <time>2018-08-07T13:24:37Z</time>
      </trkpt>
      <trkpt lat="42.80963" lon="0.42184">
        <ele>1133.47</ele>
        <time>2018-08-07T13:24:38Z</time>
      </trkpt>
      <trkpt lat="42.80944" lon="0.42182">
        <ele>1136.13</ele>
        <time>2018-08-07T13:24:39Z</time>
      </trkpt>
      <trkpt lat="42.80911" lon="0.4217">
        <ele>1138.98</ele>
        <time>2018-08-07T13:24:41Z</time>
      </trkpt>
      <trkpt lat="42.80897" lon="0.42145">
        <ele>1141.55</ele>
        <time>2018-08-07T13:24:43Z</time>
      </trkpt>
      <trkpt lat="42.80878" lon="0.42131">
        <ele>1143.92</ele>
        <time>2018-08-07T13:24:46Z</time>
      </trkpt>
      <trkpt lat="42.80866" lon="0.42163">
        <ele>1147.54</ele>
        <time>2018-08-07T13:24:49Z</time>
      </trkpt>
      <trkpt lat="42.80892" lon="0.42194">
        <ele>1151</ele>
        <time>2018-08-07T13:24:51Z</time>
      </trkpt>
      <trkpt lat="42.80932" lon="0.42231">
        <ele>1155.16</ele>
        <time>2018-08-07T13:24:53Z</time>
      </trkpt>
      <trkpt lat="42.80955" lon="0.42247">
        <ele>1159.44</ele>
        <time>2018-08-07T13:24:54Z</time>
      </trkpt>
      <trkpt lat="42.80968" lon="0.42266">
        <ele>1162.82</ele>
        <time>2018-08-07T13:24:55Z</time>
      </trkpt>
      <trkpt lat="42.80991" lon="0.42308">
        <ele>1168.27</ele>
        <time>2018-08-07T13:24:57Z</time>
      </trkpt>
      <trkpt lat="42.81003" lon="0.42331">
        <ele>1169.67</ele>
        <time>2018-08-07T13:24:58Z</time>
      </trkpt>
      <trkpt lat="42.81017" lon="0.42357">
        <ele>1172.19</ele>
        <time>2018-08-07T13:24:59Z</time>
      </trkpt>
      <trkpt lat="42.81032" lon="0.42381">
        <ele>1175.04</ele>
        <time>2018-08-07T13:25:00Z</time>
      </trkpt>
      <trkpt lat="42.81044" lon="0.42403">
        <ele>1178.7</ele>
        <time>2018-08-07T13:25:01Z</time>
      </trkpt>
      <trkpt lat="42.81054" lon="0.42425">
        <ele>1180.5</ele>
        <time>2018-08-07T13:25:02Z</time>
      </trkpt>
      <trkpt lat="42.81078" lon="0.42461">
        <ele>1181.9</ele>
        <time>2018-08-07T13:25:04Z</time>
      </trkpt>
      <trkpt lat="42.81084" lon="0.42495">
        <ele>1182.93</ele>
        <time>2018-08-07T13:25:06Z</time>
      </trkpt>
      <trkpt lat="42.81099" lon="0.42527">
        <ele>1184.64</ele>
        <time>2018-08-07T13:25:08Z</time>
      </trkpt>
      <trkpt lat="42.81128" lon="0.42552">
        <ele>1186.65</ele>
        <time>2018-08-07T13:25:11Z</time>
      </trkpt>
      <trkpt lat="42.81155" lon="0.42582">
        <ele>1190.64</ele>
        <time>2018-08-07T13:25:13Z</time>
      </trkpt>
      <trkpt lat="42.81164" lon="0.42604">
        <ele>1193.18</ele>
        <time>2018-08-07T13:25:14Z</time>
      </trkpt>
      <trkpt lat="42.81169" lon="0.42628">
        <ele>1194.64</ele>
        <time>2018-08-07T13:25:15Z</time>
      </trkpt>
      <trkpt lat="42.81173" lon="0.42654">
        <ele>1195.78</ele>
        <time>2018-08-07T13:25:16Z</time>
      </trkpt>
      <trkpt lat="42.81178" lon="0.4268">
        <ele>1198.22</ele>
        <time>2018-08-07T13:25:17Z</time>
      </trkpt>
      <trkpt lat="42.81187" lon="0.42702">
        <ele>1201.05</ele>
        <time>2018-08-07T13:25:18Z</time>
      </trkpt>
      <trkpt lat="42.81196" lon="0.42723">
        <ele>1203.3</ele>
        <time>2018-08-07T13:25:19Z</time>
      </trkpt>
      <trkpt lat="42.81219" lon="0.4276">
        <ele>1206.7</ele>
        <time>2018-08-07T13:25:21Z</time>
      </trkpt>
      <trkpt lat="42.81236" lon="0.42775">
        <ele>1208.5</ele>
        <time>2018-08-07T13:25:22Z</time>
      </trkpt>
      <trkpt lat="42.81254" lon="0.42786">
        <ele>1210.44</ele>
        <time>2018-08-07T13:25:23Z</time>
      </trkpt>
      <trkpt lat="42.81271" lon="0.42796">
        <ele>1211.72</ele>
        <time>2018-08-07T13:25:24Z</time>
      </trkpt>
      <trkpt lat="42.81296" lon="0.42799">
        <ele>1214.74</ele>
        <time>2018-08-07T13:25:26Z</time>
      </trkpt>
      <trkpt lat="42.81315" lon="0.4281">
        <ele>1214.52</ele>
        <time>2018-08-07T13:25:28Z</time>
      </trkpt>
      <trkpt lat="42.81318" lon="0.42837">
        <ele>1215.69</ele>
        <time>2018-08-07T13:25:30Z</time>
      </trkpt>
      <trkpt lat="42.81309" lon="0.42863">
        <ele>1217.83</ele>
        <time>2018-08-07T13:25:32Z</time>
      </trkpt>
      <trkpt lat="42.8128" lon="0.42863">
        <ele>1219.14</ele>
        <time>2018-08-07T13:25:34Z</time>
      </trkpt>
      <trkpt lat="42.81263" lon="0.42852">
        <ele>1217.83</ele>
        <time>2018-08-07T13:25:35Z</time>
      </trkpt>
      <trkpt lat="42.81227" lon="0.42829">
        <ele>1218.84</ele>
        <time>2018-08-07T13:25:36Z</time>
      </trkpt>
      <trkpt lat="42.81187" lon="0.42805">
        <ele>1221.94</ele>
        <time>2018-08-07T13:25:37Z</time>
      </trkpt>
      <trkpt lat="42.81149" lon="0.42784">
        <ele>1222.17</ele>
        <time>2018-08-07T13:25:38Z</time>
      </trkpt>
      <trkpt lat="42.81124" lon="0.42766">
        <ele>1224.34</ele>
        <time>2018-08-07T13:25:39Z</time>
      </trkpt>
      <trkpt lat="42.81101" lon="0.42751">
        <ele>1227.79</ele>
        <time>2018-08-07T13:25:40Z</time>
      </trkpt>
      <trkpt lat="42.81078" lon="0.4274">
        <ele>1228.82</ele>
        <time>2018-08-07T13:25:41Z</time>
      </trkpt>
      <trkpt lat="42.81054" lon="0.42729">
        <ele>1231.23</ele>
        <time>2018-08-07T13:25:42Z</time>
      </trkpt>
      <trkpt lat="42.81031" lon="0.42717">
        <ele>1234.76</ele>
        <time>2018-08-07T13:25:43Z</time>
      </trkpt>
      <trkpt lat="42.8101" lon="0.42703">
        <ele>1237.91</ele>
        <time>2018-08-07T13:25:44Z</time>
      </trkpt>
      <trkpt lat="42.80993" lon="0.42689">
        <ele>1240.26</ele>
        <time>2018-08-07T13:25:45Z</time>
      </trkpt>
      <trkpt lat="42.80965" lon="0.42668">
        <ele>1242.79</ele>
        <time>2018-08-07T13:25:47Z</time>
      </trkpt>
      <trkpt lat="42.80937" lon="0.4265">
        <ele>1245.53</ele>
        <time>2018-08-07T13:25:49Z</time>
      </trkpt>
      <trkpt lat="42.80909" lon="0.42625">
        <ele>1248.72</ele>
        <time>2018-08-07T13:25:51Z</time>
      </trkpt>
      <trkpt lat="42.80889" lon="0.42595">
        <ele>1251.53</ele>
        <time>2018-08-07T13:25:53Z</time>
      </trkpt>
      <trkpt lat="42.80874" lon="0.4257">
        <ele>1257.24</ele>
        <time>2018-08-07T13:25:55Z</time>
      </trkpt>
      <trkpt lat="42.8085" lon="0.42551">
        <ele>1260.27</ele>
        <time>2018-08-07T13:25:57Z</time>
      </trkpt>
      <trkpt lat="42.80816" lon="0.42537">
        <ele>1266.71</ele>
        <time>2018-08-07T13:25:59Z</time>
      </trkpt>
      <trkpt lat="42.80795" lon="0.42528">
        <ele>1269.2</ele>
        <time>2018-08-07T13:26:00Z</time>
      </trkpt>
      <trkpt lat="42.80773" lon="0.42516">
        <ele>1272.05</ele>
        <time>2018-08-07T13:26:01Z</time>
      </trkpt>
      <trkpt lat="42.80751" lon="0.42507">
        <ele>1274.3</ele>
        <time>2018-08-07T13:26:02Z</time>
      </trkpt>
      <trkpt lat="42.80729" lon="0.42499">
        <ele>1277.08</ele>
        <time>2018-08-07T13:26:03Z</time>
      </trkpt>
      <trkpt lat="42.80707" lon="0.42493">
        <ele>1279.31</ele>
        <time>2018-08-07T13:26:04Z</time>
      </trkpt>
      <trkpt lat="42.80684" lon="0.42488">
        <ele>1281.38</ele>
        <time>2018-08-07T13:26:05Z</time>
      </trkpt>
      <trkpt lat="42.80658" lon="0.42485">
        <ele>1284.1</ele>
        <time>2018-08-07T13:26:06Z</time>
      </trkpt>
      <trkpt lat="42.80631" lon="0.42481">
        <ele>1285.62</ele>
        <time>2018-08-07T13:26:07Z</time>
      </trkpt>
      <trkpt lat="42.80602" lon="0.42478">
        <ele>1287.47</ele>
        <time>2018-08-07T13:26:08Z</time>
      </trkpt>
      <trkpt lat="42.80571" lon="0.42474">
        <ele>1288.03</ele>
        <time>2018-08-07T13:26:09Z</time>
      </trkpt>
      <trkpt lat="42.80543" lon="0.42473">
        <ele>1288.9</ele>
        <time>2018-08-07T13:26:10Z</time>
      </trkpt>
      <trkpt lat="42.80517" lon="0.4247">
        <ele>1289.16</ele>
        <time>2018-08-07T13:26:11Z</time>
      </trkpt>
      <trkpt lat="42.80494" lon="0.42467">
        <ele>1290.63</ele>
        <time>2018-08-07T13:26:12Z</time>
      </trkpt>
      <trkpt lat="42.80473" lon="0.42464">
        <ele>1291.78</ele>
        <time>2018-08-07T13:26:13Z</time>
      </trkpt>
      <trkpt lat="42.80454" lon="0.42461">
        <ele>1292.82</ele>
        <time>2018-08-07T13:26:14Z</time>
      </trkpt>
      <trkpt lat="42.80426" lon="0.42458">
        <ele>1296.24</ele>
        <time>2018-08-07T13:26:16Z</time>
      </trkpt>
      <trkpt lat="42.80399" lon="0.42462">
        <ele>1299.69</ele>
        <time>2018-08-07T13:26:18Z</time>
      </trkpt>
      <trkpt lat="42.80373" lon="0.42475">
        <ele>1303.23</ele>
        <time>2018-08-07T13:26:20Z</time>
      </trkpt>
      <trkpt lat="42.80336" lon="0.42497">
        <ele>1307.18</ele>
        <time>2018-08-07T13:26:22Z</time>
      </trkpt>
      <trkpt lat="42.80316" lon="0.4251">
        <ele>1309.34</ele>
        <time>2018-08-07T13:26:23Z</time>
      </trkpt>
      <trkpt lat="42.80297" lon="0.42524">
        <ele>1311.39</ele>
        <time>2018-08-07T13:26:24Z</time>
      </trkpt>
      <trkpt lat="42.80266" lon="0.42549">
        <ele>1314.92</ele>
        <time>2018-08-07T13:26:26Z</time>
      </trkpt>
      <trkpt lat="42.80249" lon="0.42589">
        <ele>1320.07</ele>
        <time>2018-08-07T13:26:28Z</time>
      </trkpt>
      <trkpt lat="42.80243" lon="0.42615">
        <ele>1323.01</ele>
        <time>2018-08-07T13:26:29Z</time>
      </trkpt>
      <trkpt lat="42.80234" lon="0.42643">
        <ele>1325.29</ele>
        <time>2018-08-07T13:26:30Z</time>
      </trkpt>
      <trkpt lat="42.80224" lon="0.42668">
        <ele>1328.77</ele>
        <time>2018-08-07T13:26:31Z</time>
      </trkpt>
      <trkpt lat="42.80217" lon="0.42692">
        <ele>1331.22</ele>
        <time>2018-08-07T13:26:32Z</time>
      </trkpt>
      <trkpt lat="42.80211" lon="0.42718">
        <ele>1331.95</ele>
        <time>2018-08-07T13:26:33Z</time>
      </trkpt>
      <trkpt lat="42.80209" lon="0.42744">
        <ele>1332.87</ele>
        <time>2018-08-07T13:26:34Z</time>
      </trkpt>
      <trkpt lat="42.80205" lon="0.42784">
        <ele>1336.66</ele>
        <time>2018-08-07T13:26:36Z</time>
      </trkpt>
      <trkpt lat="42.80198" lon="0.42818">
        <ele>1339.73</ele>
        <time>2018-08-07T13:26:38Z</time>
      </trkpt>
      <trkpt lat="42.8019" lon="0.4285">
        <ele>1342.04</ele>
        <time>2018-08-07T13:26:40Z</time>
      </trkpt>
      <trkpt lat="42.80184" lon="0.42887">
        <ele>1343.16</ele>
        <time>2018-08-07T13:26:42Z</time>
      </trkpt>
      <trkpt lat="42.8018" lon="0.42922">
        <ele>1345.08</ele>
        <time>2018-08-07T13:26:44Z</time>
      </trkpt>
      <trkpt lat="42.80177" lon="0.42954">
        <ele>1346.86</ele>
        <time>2018-08-07T13:26:46Z</time>
      </trkpt>
      <trkpt lat="42.80181" lon="0.42985">
        <ele>1348.84</ele>
        <time>2018-08-07T13:26:48Z</time>
      </trkpt>
      <trkpt lat="42.80182" lon="0.43016">
        <ele>1350.14</ele>
        <time>2018-08-07T13:26:50Z</time>
      </trkpt>
      <trkpt lat="42.80177" lon="0.43049">
        <ele>1351.17</ele>
        <time>2018-08-07T13:26:52Z</time>
      </trkpt>
      <trkpt lat="42.8017" lon="0.43079">
        <ele>1351.26</ele>
        <time>2018-08-07T13:26:54Z</time>
      </trkpt>
      <trkpt lat="42.80161" lon="0.43105">
        <ele>1351.97</ele>
        <time>2018-08-07T13:26:56Z</time>
      </trkpt>
      <trkpt lat="42.80152" lon="0.43133">
        <ele>1352.94</ele>
        <time>2018-08-07T13:26:58Z</time>
      </trkpt>
      <trkpt lat="42.80148" lon="0.43159">
        <ele>1353.24</ele>
        <time>2018-08-07T13:27:00Z</time>
      </trkpt>
      <trkpt lat="42.80145" lon="0.43189">
        <ele>1353.26</ele>
        <time>2018-08-07T13:27:02Z</time>
      </trkpt>
      <trkpt lat="42.80146" lon="0.43229">
        <ele>1354.88</ele>
        <time>2018-08-07T13:27:04Z</time>
      </trkpt>
      <trkpt lat="42.80145" lon="0.4326">
        <ele>1357.25</ele>
        <time>2018-08-07T13:27:05Z</time>
      </trkpt>
      <trkpt lat="42.80144" lon="0.4329">
        <ele>1358.66</ele>
        <time>2018-08-07T13:27:06Z</time>
      </trkpt>
      <trkpt lat="42.80141" lon="0.43321">
        <ele>1361.89</ele>
        <time>2018-08-07T13:27:07Z</time>
      </trkpt>
      <trkpt lat="42.80136" lon="0.43355">
        <ele>1364.95</ele>
        <time>2018-08-07T13:27:08Z</time>
      </trkpt>
      <trkpt lat="42.80131" lon="0.4339">
        <ele>1367.27</ele>
        <time>2018-08-07T13:27:09Z</time>
      </trkpt>
      <trkpt lat="42.80126" lon="0.43426">
        <ele>1368.67</ele>
        <time>2018-08-07T13:27:10Z</time>
      </trkpt>
      <trkpt lat="42.80121" lon="0.43463">
        <ele>1369.79</ele>
        <time>2018-08-07T13:27:11Z</time>
      </trkpt>
      <trkpt lat="42.80115" lon="0.43502">
        <ele>1370.82</ele>
        <time>2018-08-07T13:27:12Z</time>
      </trkpt>
      <trkpt lat="42.80109" lon="0.43536">
        <ele>1372.53</ele>
        <time>2018-08-07T13:27:13Z</time>
      </trkpt>
      <trkpt lat="42.80102" lon="0.43571">
        <ele>1373.75</ele>
        <time>2018-08-07T13:27:14Z</time>
      </trkpt>
      <trkpt lat="42.80096" lon="0.436">
        <ele>1374.81</ele>
        <time>2018-08-07T13:27:15Z</time>
      </trkpt>
      <trkpt lat="42.80093" lon="0.43624">
        <ele>1377.23</ele>
        <time>2018-08-07T13:27:16Z</time>
      </trkpt>
      <trkpt lat="42.8009" lon="0.43651">
        <ele>1380.06</ele>
        <time>2018-08-07T13:27:17Z</time>
      </trkpt>
      <trkpt lat="42.8009" lon="0.43683">
        <ele>1383</ele>
        <time>2018-08-07T13:27:18Z</time>
      </trkpt>
      <trkpt lat="42.80093" lon="0.43714">
        <ele>1384.59</ele>
        <time>2018-08-07T13:27:19Z</time>
      </trkpt>
      <trkpt lat="42.80094" lon="0.43748">
        <ele>1385.76</ele>
        <time>2018-08-07T13:27:20Z</time>
      </trkpt>
      <trkpt lat="42.80095" lon="0.43784">
        <ele>1388.22</ele>
        <time>2018-08-07T13:27:21Z</time>
      </trkpt>
      <trkpt lat="42.80096" lon="0.43818">
        <ele>1389.65</ele>
        <time>2018-08-07T13:27:22Z</time>
      </trkpt>
      <trkpt lat="42.80096" lon="0.43852">
        <ele>1391.48</ele>
        <time>2018-08-07T13:27:23Z</time>
      </trkpt>
      <trkpt lat="42.80097" lon="0.43888">
        <ele>1393.43</ele>
        <time>2018-08-07T13:27:24Z</time>
      </trkpt>
      <trkpt lat="42.801" lon="0.43924">
        <ele>1396.12</ele>
        <time>2018-08-07T13:27:25Z</time>
      </trkpt>
      <trkpt lat="42.80104" lon="0.43959">
        <ele>1398.32</ele>
        <time>2018-08-07T13:27:26Z</time>
      </trkpt>
      <trkpt lat="42.80108" lon="0.43992">
        <ele>1399.68</ele>
        <time>2018-08-07T13:27:27Z</time>
      </trkpt>
      <trkpt lat="42.80111" lon="0.44023">
        <ele>1401.49</ele>
        <time>2018-08-07T13:27:28Z</time>
      </trkpt>
      <trkpt lat="42.80112" lon="0.44052">
        <ele>1403.43</ele>
        <time>2018-08-07T13:27:29Z</time>
      </trkpt>
      <trkpt lat="42.80112" lon="0.4408">
        <ele>1406.12</ele>
        <time>2018-08-07T13:27:30Z</time>
      </trkpt>
      <trkpt lat="42.80113" lon="0.44107">
        <ele>1407.62</ele>
        <time>2018-08-07T13:27:31Z</time>
      </trkpt>
      <trkpt lat="42.80128" lon="0.44148">
        <ele>1411.22</ele>
        <time>2018-08-07T13:27:33Z</time>
      </trkpt>
      <trkpt lat="42.80139" lon="0.44168">
        <ele>1411.95</ele>
        <time>2018-08-07T13:27:34Z</time>
      </trkpt>
      <trkpt lat="42.80148" lon="0.44191">
        <ele>1412.87</ele>
        <time>2018-08-07T13:27:35Z</time>
      </trkpt>
      <trkpt lat="42.80156" lon="0.44215">
        <ele>1413.85</ele>
        <time>2018-08-07T13:27:36Z</time>
      </trkpt>
      <trkpt lat="42.80164" lon="0.44241">
        <ele>1414.84</ele>
        <time>2018-08-07T13:27:37Z</time>
      </trkpt>
      <trkpt lat="42.80165" lon="0.44272">
        <ele>1417.24</ele>
        <time>2018-08-07T13:27:38Z</time>
      </trkpt>
      <trkpt lat="42.80169" lon="0.443">
        <ele>1419.36</ele>
        <time>2018-08-07T13:27:39Z</time>
      </trkpt>
      <trkpt lat="42.80177" lon="0.44324">
        <ele>1422.09</ele>
        <time>2018-08-07T13:27:40Z</time>
      </trkpt>
      <trkpt lat="42.80188" lon="0.44346">
        <ele>1424.32</ele>
        <time>2018-08-07T13:27:41Z</time>
      </trkpt>
      <trkpt lat="42.802" lon="0.44367">
        <ele>1426.38</ele>
        <time>2018-08-07T13:27:42Z</time>
      </trkpt>
      <trkpt lat="42.80214" lon="0.44404">
        <ele>1430.62</ele>
        <time>2018-08-07T13:27:44Z</time>
      </trkpt>
      <trkpt lat="42.8022" lon="0.44437">
        <ele>1431.91</ele>
        <time>2018-08-07T13:27:46Z</time>
      </trkpt>
      <trkpt lat="42.80213" lon="0.44484">
        <ele>1433.84</ele>
        <time>2018-08-07T13:27:48Z</time>
      </trkpt>
      <trkpt lat="42.80211" lon="0.4451">
        <ele>1435.54</ele>
        <time>2018-08-07T13:27:49Z</time>
      </trkpt>
      <trkpt lat="42.80209" lon="0.4454">
        <ele>1437.45</ele>
        <time>2018-08-07T13:27:50Z</time>
      </trkpt>
      <trkpt lat="42.80206" lon="0.44569">
        <ele>1439.42</ele>
        <time>2018-08-07T13:27:51Z</time>
      </trkpt>
      <trkpt lat="42.80203" lon="0.44608">
        <ele>1440.71</ele>
        <time>2018-08-07T13:27:52Z</time>
      </trkpt>
      <trkpt lat="42.80202" lon="0.44645">
        <ele>1441.8</ele>
        <time>2018-08-07T13:27:53Z</time>
      </trkpt>
      <trkpt lat="42.80202" lon="0.44686">
        <ele>1442.83</ele>
        <time>2018-08-07T13:27:54Z</time>
      </trkpt>
      <trkpt lat="42.80199" lon="0.44727">
        <ele>1445.24</ele>
        <time>2018-08-07T13:27:55Z</time>
      </trkpt>
      <trkpt lat="42.80197" lon="0.44767">
        <ele>1446.66</ele>
        <time>2018-08-07T13:27:56Z</time>
      </trkpt>
      <trkpt lat="42.80194" lon="0.44803">
        <ele>1447.78</ele>
        <time>2018-08-07T13:27:57Z</time>
      </trkpt>
      <trkpt lat="42.80189" lon="0.44838">
        <ele>1449.52</ele>
        <time>2018-08-07T13:27:58Z</time>
      </trkpt>
      <trkpt lat="42.80185" lon="0.44872">
        <ele>1450.74</ele>
        <time>2018-08-07T13:27:59Z</time>
      </trkpt>
      <trkpt lat="42.80184" lon="0.44897">
        <ele>1452.51</ele>
        <time>2018-08-07T13:28:00Z</time>
      </trkpt>
      <trkpt lat="42.80189" lon="0.44933">
        <ele>1459.15</ele>
        <time>2018-08-07T13:28:02Z</time>
      </trkpt>
      <trkpt lat="42.80194" lon="0.44958">
        <ele>1462.73</ele>
        <time>2018-08-07T13:28:03Z</time>
      </trkpt>
      <trkpt lat="42.802" lon="0.44986">
        <ele>1465.21</ele>
        <time>2018-08-07T13:28:04Z</time>
      </trkpt>
      <trkpt lat="42.80209" lon="0.45013">
        <ele>1468.05</ele>
        <time>2018-08-07T13:28:05Z</time>
      </trkpt>
      <trkpt lat="42.80217" lon="0.45041">
        <ele>1470.3</ele>
        <time>2018-08-07T13:28:06Z</time>
      </trkpt>
      <trkpt lat="42.80223" lon="0.4507">
        <ele>1473.08</ele>
        <time>2018-08-07T13:28:07Z</time>
      </trkpt>
      <trkpt lat="42.80228" lon="0.45099">
        <ele>1474.61</ele>
        <time>2018-08-07T13:28:08Z</time>
      </trkpt>
      <trkpt lat="42.80233" lon="0.45127">
        <ele>1475.07</ele>
        <time>2018-08-07T13:28:09Z</time>
      </trkpt>
      <trkpt lat="42.80235" lon="0.45157">
        <ele>1477.31</ele>
        <time>2018-08-07T13:28:10Z</time>
      </trkpt>
      <trkpt lat="42.80236" lon="0.45185">
        <ele>1480.08</ele>
        <time>2018-08-07T13:28:11Z</time>
      </trkpt>
      <trkpt lat="42.80236" lon="0.45212">
        <ele>1481.61</ele>
        <time>2018-08-07T13:28:12Z</time>
      </trkpt>
      <trkpt lat="42.80238" lon="0.45254">
        <ele>1485.22</ele>
        <time>2018-08-07T13:28:14Z</time>
      </trkpt>
      <trkpt lat="42.80227" lon="0.45295">
        <ele>1489.39</ele>
        <time>2018-08-07T13:28:16Z</time>
      </trkpt>
      <trkpt lat="42.80211" lon="0.45332">
        <ele>1494.32</ele>
        <time>2018-08-07T13:28:18Z</time>
      </trkpt>
      <trkpt lat="42.80201" lon="0.45371">
        <ele>1498.4</ele>
        <time>2018-08-07T13:28:20Z</time>
      </trkpt>
      <trkpt lat="42.80203" lon="0.45397">
        <ele>1499.71</ele>
        <time>2018-08-07T13:28:21Z</time>
      </trkpt>
      <trkpt lat="42.80203" lon="0.45424">
        <ele>1502.9</ele>
        <time>2018-08-07T13:28:22Z</time>
      </trkpt>
      <trkpt lat="42.80201" lon="0.45453">
        <ele>1504.56</ele>
        <time>2018-08-07T13:28:23Z</time>
      </trkpt>
      <trkpt lat="42.80199" lon="0.4548">
        <ele>1506.45</ele>
        <time>2018-08-07T13:28:24Z</time>
      </trkpt>
      <trkpt lat="42.80195" lon="0.45504">
        <ele>1508.42</ele>
        <time>2018-08-07T13:28:25Z</time>
      </trkpt>
      <trkpt lat="42.80191" lon="0.45551">
        <ele>1512.41</ele>
        <time>2018-08-07T13:28:27Z</time>
      </trkpt>
      <trkpt lat="42.80186" lon="0.45591">
        <ele>1514.8</ele>
        <time>2018-08-07T13:28:29Z</time>
      </trkpt>
      <trkpt lat="42.80183" lon="0.45626">
        <ele>1516.14</ele>
        <time>2018-08-07T13:28:31Z</time>
      </trkpt>
      <trkpt lat="42.8018" lon="0.4566">
        <ele>1518.57</ele>
        <time>2018-08-07T13:28:33Z</time>
      </trkpt>
      <trkpt lat="42.80175" lon="0.45696">
        <ele>1520.81</ele>
        <time>2018-08-07T13:28:35Z</time>
      </trkpt>
      <trkpt lat="42.80173" lon="0.45731">
        <ele>1521.93</ele>
        <time>2018-08-07T13:28:37Z</time>
      </trkpt>
      <trkpt lat="42.80178" lon="0.45762">
        <ele>1523.85</ele>
        <time>2018-08-07T13:28:39Z</time>
      </trkpt>
      <trkpt lat="42.80182" lon="0.45792">
        <ele>1525.84</ele>
        <time>2018-08-07T13:28:41Z</time>
      </trkpt>
      <trkpt lat="42.80183" lon="0.45823">
        <ele>1528.96</ele>
        <time>2018-08-07T13:28:43Z</time>
      </trkpt>
      <trkpt lat="42.80187" lon="0.45853">
        <ele>1530.85</ele>
        <time>2018-08-07T13:28:45Z</time>
      </trkpt>
      <trkpt lat="42.80188" lon="0.45885">
        <ele>1533.75</ele>
        <time>2018-08-07T13:28:47Z</time>
      </trkpt>
      <trkpt lat="42.8019" lon="0.45919">
        <ele>1537.65</ele>
        <time>2018-08-07T13:28:49Z</time>
      </trkpt>
      <trkpt lat="42.80193" lon="0.45955">
        <ele>1539.82</ele>
        <time>2018-08-07T13:28:51Z</time>
      </trkpt>
      <trkpt lat="42.80199" lon="0.45991">
        <ele>1542.75</ele>
        <time>2018-08-07T13:28:53Z</time>
      </trkpt>
      <trkpt lat="42.80203" lon="0.46029">
        <ele>1544.83</ele>
        <time>2018-08-07T13:28:55Z</time>
      </trkpt>
      <trkpt lat="42.80207" lon="0.46059">
        <ele>1547.54</ele>
        <time>2018-08-07T13:28:57Z</time>
      </trkpt>
      <trkpt lat="42.80209" lon="0.46088">
        <ele>1549.81</ele>
        <time>2018-08-07T13:28:59Z</time>
      </trkpt>
      <trkpt lat="42.80214" lon="0.46117">
        <ele>1551.14</ele>
        <time>2018-08-07T13:29:01Z</time>
      </trkpt>
      <trkpt lat="42.80219" lon="0.4615">
        <ele>1551.26</ele>
        <time>2018-08-07T13:29:03Z</time>
      </trkpt>
      <trkpt lat="42.80222" lon="0.46186">
        <ele>1552.18</ele>
        <time>2018-08-07T13:29:05Z</time>
      </trkpt>
      <trkpt lat="42.80225" lon="0.46223">
        <ele>1553.17</ele>
        <time>2018-08-07T13:29:07Z</time>
      </trkpt>
      <trkpt lat="42.80228" lon="0.46253">
        <ele>1554.38</ele>
        <time>2018-08-07T13:29:09Z</time>
      </trkpt>
      <trkpt lat="42.80229" lon="0.46279">
        <ele>1555.89</ele>
        <time>2018-08-07T13:29:11Z</time>
      </trkpt>
      <trkpt lat="42.80231" lon="0.46314">
        <ele>1555.28</ele>
        <time>2018-08-07T13:29:14Z</time>
      </trkpt>
      <trkpt lat="42.80232" lon="0.46341">
        <ele>1555.27</ele>
        <time>2018-08-07T13:29:16Z</time>
      </trkpt>
      <trkpt lat="42.80233" lon="0.46367">
        <ele>1554.57</ele>
        <time>2018-08-07T13:29:18Z</time>
      </trkpt>
      <trkpt lat="42.80237" lon="0.46394">
        <ele>1553.38</ele>
        <time>2018-08-07T13:29:20Z</time>
      </trkpt>
      <trkpt lat="42.80244" lon="0.46418">
        <ele>1551.67</ele>
        <time>2018-08-07T13:29:22Z</time>
      </trkpt>
      <trkpt lat="42.80252" lon="0.46448">
        <ele>1549.69</ele>
        <time>2018-08-07T13:29:24Z</time>
      </trkpt>
      <trkpt lat="42.8026" lon="0.46478">
        <ele>1548.4</ele>
        <time>2018-08-07T13:29:26Z</time>
      </trkpt>
      <trkpt lat="42.80265" lon="0.46505">
        <ele>1546.18</ele>
        <time>2018-08-07T13:29:28Z</time>
      </trkpt>
      <trkpt lat="42.80272" lon="0.46532">
        <ele>1545.35</ele>
        <time>2018-08-07T13:29:30Z</time>
      </trkpt>
      <trkpt lat="42.8028" lon="0.46561">
        <ele>1545.48</ele>
        <time>2018-08-07T13:29:32Z</time>
      </trkpt>
      <trkpt lat="42.80287" lon="0.46588">
        <ele>1544.59</ele>
        <time>2018-08-07T13:29:34Z</time>
      </trkpt>
      <trkpt lat="42.80294" lon="0.46613">
        <ele>1544.3</ele>
        <time>2018-08-07T13:29:36Z</time>
      </trkpt>
      <trkpt lat="42.80302" lon="0.46635">
        <ele>1542.45</ele>
        <time>2018-08-07T13:29:38Z</time>
      </trkpt>
      <trkpt lat="42.80314" lon="0.46658">
        <ele>1540.67</ele>
        <time>2018-08-07T13:29:40Z</time>
      </trkpt>
      <trkpt lat="42.80327" lon="0.46679">
        <ele>1539.6</ele>
        <time>2018-08-07T13:29:42Z</time>
      </trkpt>
      <trkpt lat="42.80342" lon="0.467">
        <ele>1536.08</ele>
        <time>2018-08-07T13:29:44Z</time>
      </trkpt>
      <trkpt lat="42.80354" lon="0.4672">
        <ele>1533.73</ele>
        <time>2018-08-07T13:29:46Z</time>
      </trkpt>
      <trkpt lat="42.80369" lon="0.46741">
        <ele>1531.7</ele>
        <time>2018-08-07T13:29:48Z</time>
      </trkpt>
      <trkpt lat="42.80385" lon="0.46762">
        <ele>1527.88</ele>
        <time>2018-08-07T13:29:50Z</time>
      </trkpt>
      <trkpt lat="42.80401" lon="0.46784">
        <ele>1525.92</ele>
        <time>2018-08-07T13:29:52Z</time>
      </trkpt>
      <trkpt lat="42.80419" lon="0.46808">
        <ele>1522.7</ele>
        <time>2018-08-07T13:29:55Z</time>
      </trkpt>
      <trkpt lat="42.80437" lon="0.4683">
        <ele>1521.43</ele>
        <time>2018-08-07T13:29:58Z</time>
      </trkpt>
      <trkpt lat="42.80452" lon="0.46845">
        <ele>1519.6</ele>
        <time>2018-08-07T13:30:01Z</time>
      </trkpt>
      <trkpt lat="42.80468" lon="0.46858">
        <ele>1518.58</ele>
        <time>2018-08-07T13:30:04Z</time>
      </trkpt>
      <trkpt lat="42.80473" lon="0.46883">
        <ele>1518.34</ele>
        <time>2018-08-07T13:30:09Z</time>
      </trkpt>
      <trkpt lat="42.80456" lon="0.46874">
        <ele>1516.57</ele>
        <time>2018-08-07T13:30:14Z</time>
      </trkpt>
      <trkpt lat="42.80442" lon="0.46857">
        <ele>1516.29</ele>
        <time>2018-08-07T13:30:16Z</time>
      </trkpt>
      <trkpt lat="42.80418" lon="0.46837">
        <ele>1514.66</ele>
        <time>2018-08-07T13:30:18Z</time>
      </trkpt>
      <trkpt lat="42.80386" lon="0.46813">
        <ele>1511.29</ele>
        <time>2018-08-07T13:30:20Z</time>
      </trkpt>
      <trkpt lat="42.80369" lon="0.46801">
        <ele>1509.87</ele>
        <time>2018-08-07T13:30:21Z</time>
      </trkpt>
      <trkpt lat="42.80353" lon="0.46788">
        <ele>1508.05</ele>
        <time>2018-08-07T13:30:22Z</time>
      </trkpt>
      <trkpt lat="42.80322" lon="0.46765">
        <ele>1504.12</ele>
        <time>2018-08-07T13:30:24Z</time>
      </trkpt>
      <trkpt lat="42.80294" lon="0.46745">
        <ele>1501.73</ele>
        <time>2018-08-07T13:30:26Z</time>
      </trkpt>
      <trkpt lat="42.80267" lon="0.46729">
        <ele>1499.7</ele>
        <time>2018-08-07T13:30:28Z</time>
      </trkpt>
      <trkpt lat="42.80238" lon="0.46714">
        <ele>1497</ele>
        <time>2018-08-07T13:30:30Z</time>
      </trkpt>
      <trkpt lat="42.80212" lon="0.46703">
        <ele>1493.11</ele>
        <time>2018-08-07T13:30:32Z</time>
      </trkpt>
      <trkpt lat="42.80188" lon="0.46696">
        <ele>1491.43</ele>
        <time>2018-08-07T13:30:34Z</time>
      </trkpt>
      <trkpt lat="42.8017" lon="0.46698">
        <ele>1489.67</ele>
        <time>2018-08-07T13:30:36Z</time>
      </trkpt>
      <trkpt lat="42.80156" lon="0.4672">
        <ele>1489.28</ele>
        <time>2018-08-07T13:30:39Z</time>
      </trkpt>
      <trkpt lat="42.80175" lon="0.46733">
        <ele>1488.57</ele>
        <time>2018-08-07T13:30:41Z</time>
      </trkpt>
      <trkpt lat="42.80195" lon="0.46732">
        <ele>1486.68</ele>
        <time>2018-08-07T13:30:43Z</time>
      </trkpt>
      <trkpt lat="42.80218" lon="0.46738">
        <ele>1484.69</ele>
        <time>2018-08-07T13:30:45Z</time>
      </trkpt>
      <trkpt lat="42.80244" lon="0.46755">
        <ele>1481.09</ele>
        <time>2018-08-07T13:30:47Z</time>
      </trkpt>
      <trkpt lat="42.80269" lon="0.46787">
        <ele>1477.82</ele>
        <time>2018-08-07T13:30:49Z</time>
      </trkpt>
      <trkpt lat="42.80281" lon="0.46806">
        <ele>1476.03</ele>
        <time>2018-08-07T13:30:50Z</time>
      </trkpt>
      <trkpt lat="42.80295" lon="0.46825">
        <ele>1474.8</ele>
        <time>2018-08-07T13:30:51Z</time>
      </trkpt>
      <trkpt lat="42.80309" lon="0.46842">
        <ele>1474.43</ele>
        <time>2018-08-07T13:30:52Z</time>
      </trkpt>
      <trkpt lat="42.80323" lon="0.46858">
        <ele>1473.61</ele>
        <time>2018-08-07T13:30:53Z</time>
      </trkpt>
      <trkpt lat="42.80338" lon="0.46874">
        <ele>1471.97</ele>
        <time>2018-08-07T13:30:54Z</time>
      </trkpt>
      <trkpt lat="42.80364" lon="0.46903">
        <ele>1468.11</ele>
        <time>2018-08-07T13:30:56Z</time>
      </trkpt>
      <trkpt lat="42.80383" lon="0.46927">
        <ele>1464.82</ele>
        <time>2018-08-07T13:30:58Z</time>
      </trkpt>
      <trkpt lat="42.80397" lon="0.46945">
        <ele>1464.32</ele>
        <time>2018-08-07T13:31:00Z</time>
      </trkpt>
      <trkpt lat="42.80378" lon="0.46948">
        <ele>1462.37</ele>
        <time>2018-08-07T13:31:04Z</time>
      </trkpt>
      <trkpt lat="42.80362" lon="0.46925">
        <ele>1461.58</ele>
        <time>2018-08-07T13:31:06Z</time>
      </trkpt>
      <trkpt lat="42.80335" lon="0.46907">
        <ele>1458.98</ele>
        <time>2018-08-07T13:31:08Z</time>
      </trkpt>
      <trkpt lat="42.80303" lon="0.46892">
        <ele>1455.6</ele>
        <time>2018-08-07T13:31:10Z</time>
      </trkpt>
      <trkpt lat="42.8027" lon="0.46889">
        <ele>1451.87</ele>
        <time>2018-08-07T13:31:12Z</time>
      </trkpt>
      <trkpt lat="42.80238" lon="0.46892">
        <ele>1447.89</ele>
        <time>2018-08-07T13:31:14Z</time>
      </trkpt>
      <trkpt lat="42.80207" lon="0.46902">
        <ele>1445.71</ele>
        <time>2018-08-07T13:31:16Z</time>
      </trkpt>
      <trkpt lat="42.80186" lon="0.46919">
        <ele>1443</ele>
        <time>2018-08-07T13:31:18Z</time>
      </trkpt>
      <trkpt lat="42.80174" lon="0.46949">
        <ele>1440.72</ele>
        <time>2018-08-07T13:31:20Z</time>
      </trkpt>
      <trkpt lat="42.80173" lon="0.46976">
        <ele>1439.7</ele>
        <time>2018-08-07T13:31:21Z</time>
      </trkpt>
      <trkpt lat="42.80168" lon="0.47023">
        <ele>1436.79</ele>
        <time>2018-08-07T13:31:23Z</time>
      </trkpt>
      <trkpt lat="42.80161" lon="0.47049">
        <ele>1434.32</ele>
        <time>2018-08-07T13:31:24Z</time>
      </trkpt>
      <trkpt lat="42.80156" lon="0.47073">
        <ele>1432.18</ele>
        <time>2018-08-07T13:31:25Z</time>
      </trkpt>
      <trkpt lat="42.80151" lon="0.47096">
        <ele>1430.84</ele>
        <time>2018-08-07T13:31:26Z</time>
      </trkpt>
      <trkpt lat="42.80142" lon="0.47136">
        <ele>1428.71</ele>
        <time>2018-08-07T13:31:28Z</time>
      </trkpt>
      <trkpt lat="42.80141" lon="0.47172">
        <ele>1427.4</ele>
        <time>2018-08-07T13:31:30Z</time>
      </trkpt>
      <trkpt lat="42.80147" lon="0.47205">
        <ele>1426.58</ele>
        <time>2018-08-07T13:31:32Z</time>
      </trkpt>
      <trkpt lat="42.80157" lon="0.4723">
        <ele>1423.49</ele>
        <time>2018-08-07T13:31:34Z</time>
      </trkpt>
      <trkpt lat="42.80173" lon="0.47258">
        <ele>1420.98</ele>
        <time>2018-08-07T13:31:36Z</time>
      </trkpt>
      <trkpt lat="42.80194" lon="0.47288">
        <ele>1421.03</ele>
        <time>2018-08-07T13:31:38Z</time>
      </trkpt>
      <trkpt lat="42.80213" lon="0.47312">
        <ele>1419.64</ele>
        <time>2018-08-07T13:31:40Z</time>
      </trkpt>
      <trkpt lat="42.8023" lon="0.47341">
        <ele>1419.3</ele>
        <time>2018-08-07T13:31:42Z</time>
      </trkpt>
      <trkpt lat="42.80238" lon="0.47375">
        <ele>1417.66</ele>
        <time>2018-08-07T13:31:44Z</time>
      </trkpt>
      <trkpt lat="42.80254" lon="0.47416">
        <ele>1415.69</ele>
        <time>2018-08-07T13:31:46Z</time>
      </trkpt>
      <trkpt lat="42.80281" lon="0.4746">
        <ele>1412.51</ele>
        <time>2018-08-07T13:31:48Z</time>
      </trkpt>
      <trkpt lat="42.80295" lon="0.47479">
        <ele>1410.24</ele>
        <time>2018-08-07T13:31:49Z</time>
      </trkpt>
      <trkpt lat="42.80311" lon="0.47496">
        <ele>1408.16</ele>
        <time>2018-08-07T13:31:50Z</time>
      </trkpt>
      <trkpt lat="42.80327" lon="0.47512">
        <ele>1406.13</ele>
        <time>2018-08-07T13:31:51Z</time>
      </trkpt>
      <trkpt lat="42.80342" lon="0.47528">
        <ele>1405.53</ele>
        <time>2018-08-07T13:31:52Z</time>
      </trkpt>
      <trkpt lat="42.80358" lon="0.47544">
        <ele>1405.35</ele>
        <time>2018-08-07T13:31:53Z</time>
      </trkpt>
      <trkpt lat="42.8037" lon="0.47562">
        <ele>1403.89</ele>
        <time>2018-08-07T13:31:54Z</time>
      </trkpt>
      <trkpt lat="42.80383" lon="0.47581">
        <ele>1402.75</ele>
        <time>2018-08-07T13:31:55Z</time>
      </trkpt>
      <trkpt lat="42.80394" lon="0.47602">
        <ele>1400.31</ele>
        <time>2018-08-07T13:31:56Z</time>
      </trkpt>
      <trkpt lat="42.80404" lon="0.47626">
        <ele>1398.18</ele>
        <time>2018-08-07T13:31:57Z</time>
      </trkpt>
      <trkpt lat="42.80415" lon="0.4765">
        <ele>1396.14</ele>
        <time>2018-08-07T13:31:58Z</time>
      </trkpt>
      <trkpt lat="42.80425" lon="0.47675">
        <ele>1394.83</ele>
        <time>2018-08-07T13:31:59Z</time>
      </trkpt>
      <trkpt lat="42.80434" lon="0.47701">
        <ele>1393.04</ele>
        <time>2018-08-07T13:32:00Z</time>
      </trkpt>
      <trkpt lat="42.80444" lon="0.47726">
        <ele>1392.5</ele>
        <time>2018-08-07T13:32:01Z</time>
      </trkpt>
      <trkpt lat="42.80452" lon="0.47753">
        <ele>1390.94</ele>
        <time>2018-08-07T13:32:02Z</time>
      </trkpt>
      <trkpt lat="42.8046" lon="0.47777">
        <ele>1389.77</ele>
        <time>2018-08-07T13:32:03Z</time>
      </trkpt>
      <trkpt lat="42.80465" lon="0.47808">
        <ele>1388.02</ele>
        <time>2018-08-07T13:32:04Z</time>
      </trkpt>
      <trkpt lat="42.80471" lon="0.47835">
        <ele>1386.09</ele>
        <time>2018-08-07T13:32:05Z</time>
      </trkpt>
      <trkpt lat="42.80475" lon="0.47862">
        <ele>1384.81</ele>
        <time>2018-08-07T13:32:06Z</time>
      </trkpt>
      <trkpt lat="42.80482" lon="0.47888">
        <ele>1383.73</ele>
        <time>2018-08-07T13:32:07Z</time>
      </trkpt>
      <trkpt lat="42.80489" lon="0.47911">
        <ele>1382.71</ele>
        <time>2018-08-07T13:32:08Z</time>
      </trkpt>
      <trkpt lat="42.80503" lon="0.47952">
        <ele>1382.1</ele>
        <time>2018-08-07T13:32:10Z</time>
      </trkpt>
      <trkpt lat="42.80511" lon="0.4799">
        <ele>1377.91</ele>
        <time>2018-08-07T13:32:12Z</time>
      </trkpt>
      <trkpt lat="42.8052" lon="0.48024">
        <ele>1375.71</ele>
        <time>2018-08-07T13:32:14Z</time>
      </trkpt>
      <trkpt lat="42.80541" lon="0.48045">
        <ele>1368.66</ele>
        <time>2018-08-07T13:32:16Z</time>
      </trkpt>
      <trkpt lat="42.8056" lon="0.48073">
        <ele>1363.26</ele>
        <time>2018-08-07T13:32:18Z</time>
      </trkpt>
      <trkpt lat="42.80587" lon="0.48111">
        <ele>1357.95</ele>
        <time>2018-08-07T13:32:20Z</time>
      </trkpt>
      <trkpt lat="42.80601" lon="0.48133">
        <ele>1356.07</ele>
        <time>2018-08-07T13:32:21Z</time>
      </trkpt>
      <trkpt lat="42.80616" lon="0.48155">
        <ele>1354.81</ele>
        <time>2018-08-07T13:32:22Z</time>
      </trkpt>
      <trkpt lat="42.8063" lon="0.48176">
        <ele>1353.73</ele>
        <time>2018-08-07T13:32:23Z</time>
      </trkpt>
      <trkpt lat="42.80645" lon="0.48195">
        <ele>1351.31</ele>
        <time>2018-08-07T13:32:24Z</time>
      </trkpt>
      <trkpt lat="42.8066" lon="0.48214">
        <ele>1349.88</ele>
        <time>2018-08-07T13:32:25Z</time>
      </trkpt>
      <trkpt lat="42.80677" lon="0.48235">
        <ele>1349.45</ele>
        <time>2018-08-07T13:32:26Z</time>
      </trkpt>
      <trkpt lat="42.80692" lon="0.48256">
        <ele>1347.92</ele>
        <time>2018-08-07T13:32:27Z</time>
      </trkpt>
      <trkpt lat="42.80703" lon="0.48277">
        <ele>1345.36</ele>
        <time>2018-08-07T13:32:28Z</time>
      </trkpt>
      <trkpt lat="42.80715" lon="0.48297">
        <ele>1343.2</ele>
        <time>2018-08-07T13:32:29Z</time>
      </trkpt>
      <trkpt lat="42.80727" lon="0.48317">
        <ele>1341.85</ele>
        <time>2018-08-07T13:32:30Z</time>
      </trkpt>
      <trkpt lat="42.80743" lon="0.48359">
        <ele>1340.62</ele>
        <time>2018-08-07T13:32:32Z</time>
      </trkpt>
      <trkpt lat="42.8075" lon="0.48382">
        <ele>1339.67</ele>
        <time>2018-08-07T13:32:33Z</time>
      </trkpt>
      <trkpt lat="42.80756" lon="0.48406">
        <ele>1339.39</ele>
        <time>2018-08-07T13:32:34Z</time>
      </trkpt>
      <trkpt lat="42.80757" lon="0.4843">
        <ele>1337.2</ele>
        <time>2018-08-07T13:32:35Z</time>
      </trkpt>
      <trkpt lat="42.80759" lon="0.48456">
        <ele>1334.45</ele>
        <time>2018-08-07T13:32:36Z</time>
      </trkpt>
      <trkpt lat="42.80761" lon="0.48481">
        <ele>1332.22</ele>
        <time>2018-08-07T13:32:37Z</time>
      </trkpt>
      <trkpt lat="42.80762" lon="0.48507">
        <ele>1330.85</ele>
        <time>2018-08-07T13:32:38Z</time>
      </trkpt>
      <trkpt lat="42.80763" lon="0.48533">
        <ele>1329.04</ele>
        <time>2018-08-07T13:32:39Z</time>
      </trkpt>
      <trkpt lat="42.80762" lon="0.48561">
        <ele>1327.8</ele>
        <time>2018-08-07T13:32:40Z</time>
      </trkpt>
      <trkpt lat="42.80762" lon="0.48589">
        <ele>1324.63</ele>
        <time>2018-08-07T13:32:41Z</time>
      </trkpt>
      <trkpt lat="42.8076" lon="0.48617">
        <ele>1322.27</ele>
        <time>2018-08-07T13:32:42Z</time>
      </trkpt>
      <trkpt lat="42.80758" lon="0.48648">
        <ele>1320.17</ele>
        <time>2018-08-07T13:32:43Z</time>
      </trkpt>
      <trkpt lat="42.80758" lon="0.48679">
        <ele>1318.14</ele>
        <time>2018-08-07T13:32:44Z</time>
      </trkpt>
      <trkpt lat="42.80759" lon="0.4871">
        <ele>1316.83</ele>
        <time>2018-08-07T13:32:45Z</time>
      </trkpt>
      <trkpt lat="42.8076" lon="0.48741">
        <ele>1315.74</ele>
        <time>2018-08-07T13:32:46Z</time>
      </trkpt>
      <trkpt lat="42.8076" lon="0.48771">
        <ele>1314.01</ele>
        <time>2018-08-07T13:32:47Z</time>
      </trkpt>
      <trkpt lat="42.80759" lon="0.488">
        <ele>1312.09</ele>
        <time>2018-08-07T13:32:48Z</time>
      </trkpt>
      <trkpt lat="42.80755" lon="0.48831">
        <ele>1309.41</ele>
        <time>2018-08-07T13:32:49Z</time>
      </trkpt>
      <trkpt lat="42.8075" lon="0.48862">
        <ele>1305.81</ele>
        <time>2018-08-07T13:32:50Z</time>
      </trkpt>
      <trkpt lat="42.80745" lon="0.48892">
        <ele>1303.33</ele>
        <time>2018-08-07T13:32:51Z</time>
      </trkpt>
      <trkpt lat="42.8074" lon="0.48923">
        <ele>1301.19</ele>
        <time>2018-08-07T13:32:52Z</time>
      </trkpt>
      <trkpt lat="42.80736" lon="0.4895">
        <ele>1299.14</ele>
        <time>2018-08-07T13:32:53Z</time>
      </trkpt>
      <trkpt lat="42.80731" lon="0.48979">
        <ele>1297.83</ele>
        <time>2018-08-07T13:32:54Z</time>
      </trkpt>
      <trkpt lat="42.80724" lon="0.49009">
        <ele>1295.34</ele>
        <time>2018-08-07T13:32:55Z</time>
      </trkpt>
      <trkpt lat="42.80718" lon="0.49039">
        <ele>1293.89</ele>
        <time>2018-08-07T13:32:56Z</time>
      </trkpt>
      <trkpt lat="42.80713" lon="0.4907">
        <ele>1292.75</ele>
        <time>2018-08-07T13:32:57Z</time>
      </trkpt>
      <trkpt lat="42.80708" lon="0.49099">
        <ele>1290.31</ele>
        <time>2018-08-07T13:32:58Z</time>
      </trkpt>
      <trkpt lat="42.80703" lon="0.4913">
        <ele>1288.18</ele>
        <time>2018-08-07T13:32:59Z</time>
      </trkpt>
      <trkpt lat="42.80698" lon="0.49159">
        <ele>1286.14</ele>
        <time>2018-08-07T13:33:00Z</time>
      </trkpt>
      <trkpt lat="42.80693" lon="0.4919">
        <ele>1283.43</ele>
        <time>2018-08-07T13:33:01Z</time>
      </trkpt>
      <trkpt lat="42.80688" lon="0.49221">
        <ele>1280.52</ele>
        <time>2018-08-07T13:33:02Z</time>
      </trkpt>
      <trkpt lat="42.80683" lon="0.49253">
        <ele>1277.54</ele>
        <time>2018-08-07T13:33:03Z</time>
      </trkpt>
      <trkpt lat="42.80678" lon="0.49286">
        <ele>1274.55</ele>
        <time>2018-08-07T13:33:04Z</time>
      </trkpt>
      <trkpt lat="42.80674" lon="0.4932">
        <ele>1272.95</ele>
        <time>2018-08-07T13:33:05Z</time>
      </trkpt>
      <trkpt lat="42.80667" lon="0.49352">
        <ele>1268.97</ele>
        <time>2018-08-07T13:33:06Z</time>
      </trkpt>
      <trkpt lat="42.80662" lon="0.49383">
        <ele>1266.38</ele>
        <time>2018-08-07T13:33:07Z</time>
      </trkpt>
      <trkpt lat="42.80657" lon="0.49413">
        <ele>1264.2</ele>
        <time>2018-08-07T13:33:08Z</time>
      </trkpt>
      <trkpt lat="42.80651" lon="0.49443">
        <ele>1261.45</ele>
        <time>2018-08-07T13:33:09Z</time>
      </trkpt>
      <trkpt lat="42.80645" lon="0.4947">
        <ele>1258.52</ele>
        <time>2018-08-07T13:33:10Z</time>
      </trkpt>
      <trkpt lat="42.80639" lon="0.49497">
        <ele>1256.24</ele>
        <time>2018-08-07T13:33:11Z</time>
      </trkpt>
      <trkpt lat="42.80634" lon="0.49524">
        <ele>1254.86</ele>
        <time>2018-08-07T13:33:12Z</time>
      </trkpt>
      <trkpt lat="42.80632" lon="0.49555">
        <ele>1252.34</ele>
        <time>2018-08-07T13:33:13Z</time>
      </trkpt>
      <trkpt lat="42.8063" lon="0.49584">
        <ele>1251.59</ele>
        <time>2018-08-07T13:33:14Z</time>
      </trkpt>
      <trkpt lat="42.80628" lon="0.49609">
        <ele>1249.26</ele>
        <time>2018-08-07T13:33:15Z</time>
      </trkpt>
      <trkpt lat="42.80624" lon="0.49655">
        <ele>1245.35</ele>
        <time>2018-08-07T13:33:17Z</time>
      </trkpt>
      <trkpt lat="42.80623" lon="0.49693">
        <ele>1242.75</ele>
        <time>2018-08-07T13:33:19Z</time>
      </trkpt>
      <trkpt lat="42.80628" lon="0.4973">
        <ele>1241.61</ele>
        <time>2018-08-07T13:33:21Z</time>
      </trkpt>
      <trkpt lat="42.80646" lon="0.49766">
        <ele>1241.3</ele>
        <time>2018-08-07T13:33:23Z</time>
      </trkpt>
      <trkpt lat="42.80658" lon="0.49809">
        <ele>1238.75</ele>
        <time>2018-08-07T13:33:25Z</time>
      </trkpt>
      <trkpt lat="42.80658" lon="0.49834">
        <ele>1237.71</ele>
        <time>2018-08-07T13:33:26Z</time>
      </trkpt>
      <trkpt lat="42.80659" lon="0.49882">
        <ele>1232.27</ele>
        <time>2018-08-07T13:33:28Z</time>
      </trkpt>
      <trkpt lat="42.80654" lon="0.49925">
        <ele>1230.45</ele>
        <time>2018-08-07T13:33:30Z</time>
      </trkpt>
      <trkpt lat="42.80636" lon="0.49968">
        <ele>1228.67</ele>
        <time>2018-08-07T13:33:32Z</time>
      </trkpt>
      <trkpt lat="42.80625" lon="0.49993">
        <ele>1226.29</ele>
        <time>2018-08-07T13:33:33Z</time>
      </trkpt>
      <trkpt lat="42.80613" lon="0.5002">
        <ele>1224.17</ele>
        <time>2018-08-07T13:33:34Z</time>
      </trkpt>
      <trkpt lat="42.80601" lon="0.50046">
        <ele>1222.14</ele>
        <time>2018-08-07T13:33:35Z</time>
      </trkpt>
      <trkpt lat="42.8059" lon="0.50073">
        <ele>1219.43</ele>
        <time>2018-08-07T13:33:36Z</time>
      </trkpt>
      <trkpt lat="42.80578" lon="0.50099">
        <ele>1217.22</ele>
        <time>2018-08-07T13:33:37Z</time>
      </trkpt>
      <trkpt lat="42.80567" lon="0.50124">
        <ele>1215.85</ele>
        <time>2018-08-07T13:33:38Z</time>
      </trkpt>
      <trkpt lat="42.80553" lon="0.50164">
        <ele>1211.19</ele>
        <time>2018-08-07T13:33:40Z</time>
      </trkpt>
      <trkpt lat="42.80548" lon="0.50204">
        <ele>1207.83</ele>
        <time>2018-08-07T13:33:42Z</time>
      </trkpt>
      <trkpt lat="42.80548" lon="0.50239">
        <ele>1206.41</ele>
        <time>2018-08-07T13:33:44Z</time>
      </trkpt>
      <trkpt lat="42.80561" lon="0.50268">
        <ele>1206.77</ele>
        <time>2018-08-07T13:33:46Z</time>
      </trkpt>
      <trkpt lat="42.80575" lon="0.50286">
        <ele>1207.12</ele>
        <time>2018-08-07T13:33:47Z</time>
      </trkpt>
      <trkpt lat="42.80604" lon="0.50314">
        <ele>1205.64</ele>
        <time>2018-08-07T13:33:49Z</time>
      </trkpt>
      <trkpt lat="42.80625" lon="0.5033">
        <ele>1206.08</ele>
        <time>2018-08-07T13:33:50Z</time>
      </trkpt>
      <trkpt lat="42.80641" lon="0.50345">
        <ele>1206.91</ele>
        <time>2018-08-07T13:33:51Z</time>
      </trkpt>
      <trkpt lat="42.80655" lon="0.50363">
        <ele>1207.16</ele>
        <time>2018-08-07T13:33:52Z</time>
      </trkpt>
      <trkpt lat="42.80667" lon="0.50406">
        <ele>1199.7</ele>
        <time>2018-08-07T13:33:54Z</time>
      </trkpt>
      <trkpt lat="42.80673" lon="0.5045">
        <ele>1196.09</ele>
        <time>2018-08-07T13:33:56Z</time>
      </trkpt>
      <trkpt lat="42.80672" lon="0.50483">
        <ele>1193.73</ele>
        <time>2018-08-07T13:33:58Z</time>
      </trkpt>
      <trkpt lat="42.8068" lon="0.50509">
        <ele>1192.4</ele>
        <time>2018-08-07T13:34:00Z</time>
      </trkpt>
      <trkpt lat="42.8069" lon="0.5055">
        <ele>1189.76</ele>
        <time>2018-08-07T13:34:02Z</time>
      </trkpt>
      <trkpt lat="42.80701" lon="0.50599">
        <ele>1188.4</ele>
        <time>2018-08-07T13:34:04Z</time>
      </trkpt>
      <trkpt lat="42.80705" lon="0.50628">
        <ele>1187.61</ele>
        <time>2018-08-07T13:34:05Z</time>
      </trkpt>
      <trkpt lat="42.8071" lon="0.50658">
        <ele>1187.37</ele>
        <time>2018-08-07T13:34:06Z</time>
      </trkpt>
      <trkpt lat="42.80714" lon="0.5069">
        <ele>1187.3</ele>
        <time>2018-08-07T13:34:07Z</time>
      </trkpt>
      <trkpt lat="42.80716" lon="0.50724">
        <ele>1186.58</ele>
        <time>2018-08-07T13:34:08Z</time>
      </trkpt>
      <trkpt lat="42.80721" lon="0.50761">
        <ele>1184.26</ele>
        <time>2018-08-07T13:34:09Z</time>
      </trkpt>
      <trkpt lat="42.80727" lon="0.50798">
        <ele>1180.06</ele>
        <time>2018-08-07T13:34:10Z</time>
      </trkpt>
      <trkpt lat="42.80735" lon="0.5083">
        <ele>1178.11</ele>
        <time>2018-08-07T13:34:11Z</time>
      </trkpt>
      <trkpt lat="42.80743" lon="0.50862">
        <ele>1176.12</ele>
        <time>2018-08-07T13:34:12Z</time>
      </trkpt>
      <trkpt lat="42.80752" lon="0.50894">
        <ele>1174.82</ele>
        <time>2018-08-07T13:34:13Z</time>
      </trkpt>
      <trkpt lat="42.80761" lon="0.50922">
        <ele>1173.03</ele>
        <time>2018-08-07T13:34:14Z</time>
      </trkpt>
      <trkpt lat="42.80769" lon="0.50955">
        <ele>1171.8</ele>
        <time>2018-08-07T13:34:15Z</time>
      </trkpt>
      <trkpt lat="42.80775" lon="0.50987">
        <ele>1170.73</ele>
        <time>2018-08-07T13:34:16Z</time>
      </trkpt>
      <trkpt lat="42.80782" lon="0.51016">
        <ele>1169.7</ele>
        <time>2018-08-07T13:34:17Z</time>
      </trkpt>
      <trkpt lat="42.80789" lon="0.51042">
        <ele>1168.7</ele>
        <time>2018-08-07T13:34:18Z</time>
      </trkpt>
      <trkpt lat="42.80797" lon="0.51069">
        <ele>1168.4</ele>
        <time>2018-08-07T13:34:19Z</time>
      </trkpt>
      <trkpt lat="42.808" lon="0.51098">
        <ele>1167.61</ele>
        <time>2018-08-07T13:34:20Z</time>
      </trkpt>
      <trkpt lat="42.80805" lon="0.51126">
        <ele>1166.67</ele>
        <time>2018-08-07T13:34:21Z</time>
      </trkpt>
      <trkpt lat="42.80809" lon="0.51154">
        <ele>1164.99</ele>
        <time>2018-08-07T13:34:22Z</time>
      </trkpt>
      <trkpt lat="42.80813" lon="0.51179">
        <ele>1163.08</ele>
        <time>2018-08-07T13:34:23Z</time>
      </trkpt>
      <trkpt lat="42.80821" lon="0.51222">
        <ele>1160.03</ele>
        <time>2018-08-07T13:34:25Z</time>
      </trkpt>
      <trkpt lat="42.80824" lon="0.5125">
        <ele>1158.1</ele>
        <time>2018-08-07T13:34:26Z</time>
      </trkpt>
      <trkpt lat="42.80825" lon="0.51279">
        <ele>1156.12</ele>
        <time>2018-08-07T13:34:27Z</time>
      </trkpt>
      <trkpt lat="42.80821" lon="0.51307">
        <ele>1154.12</ele>
        <time>2018-08-07T13:34:28Z</time>
      </trkpt>
      <trkpt lat="42.80813" lon="0.51337">
        <ele>1150.72</ele>
        <time>2018-08-07T13:34:29Z</time>
      </trkpt>
      <trkpt lat="42.80811" lon="0.51365">
        <ele>1148.3</ele>
        <time>2018-08-07T13:34:30Z</time>
      </trkpt>
      <trkpt lat="42.80806" lon="0.51391">
        <ele>1144.78</ele>
        <time>2018-08-07T13:34:31Z</time>
      </trkpt>
      <trkpt lat="42.80805" lon="0.51416">
        <ele>1143.02</ele>
        <time>2018-08-07T13:34:32Z</time>
      </trkpt>
      <trkpt lat="42.80805" lon="0.51455">
        <ele>1138.62</ele>
        <time>2018-08-07T13:34:34Z</time>
      </trkpt>
      <trkpt lat="42.80815" lon="0.51479">
        <ele>1133.26</ele>
        <time>2018-08-07T13:34:36Z</time>
      </trkpt>
      <trkpt lat="42.80831" lon="0.51498">
        <ele>1127.53</ele>
        <time>2018-08-07T13:34:38Z</time>
      </trkpt>
      <trkpt lat="42.80853" lon="0.51513">
        <ele>1125.68</ele>
        <time>2018-08-07T13:34:40Z</time>
      </trkpt>
      <trkpt lat="42.80866" lon="0.51538">
        <ele>1124.6</ele>
        <time>2018-08-07T13:34:42Z</time>
      </trkpt>
      <trkpt lat="42.80873" lon="0.51567">
        <ele>1124.51</ele>
        <time>2018-08-07T13:34:44Z</time>
      </trkpt>
      <trkpt lat="42.80876" lon="0.51613">
        <ele>1123.59</ele>
        <time>2018-08-07T13:34:46Z</time>
      </trkpt>
      <trkpt lat="42.80879" lon="0.51656">
        <ele>1122.39</ele>
        <time>2018-08-07T13:34:48Z</time>
      </trkpt>
      <trkpt lat="42.80881" lon="0.517">
        <ele>1122.28</ele>
        <time>2018-08-07T13:34:50Z</time>
      </trkpt>
      <trkpt lat="42.80883" lon="0.51745">
        <ele>1120.66</ele>
        <time>2018-08-07T13:34:52Z</time>
      </trkpt>
      <trkpt lat="42.80881" lon="0.51787">
        <ele>1118.48</ele>
        <time>2018-08-07T13:34:54Z</time>
      </trkpt>
      <trkpt lat="42.80878" lon="0.51831">
        <ele>1115.56</ele>
        <time>2018-08-07T13:34:56Z</time>
      </trkpt>
      <trkpt lat="42.80871" lon="0.51869">
        <ele>1112.98</ele>
        <time>2018-08-07T13:34:58Z</time>
      </trkpt>
      <trkpt lat="42.80858" lon="0.51902">
        <ele>1109.11</ele>
        <time>2018-08-07T13:35:00Z</time>
      </trkpt>
      <trkpt lat="42.8084" lon="0.51929">
        <ele>1104.21</ele>
        <time>2018-08-07T13:35:02Z</time>
      </trkpt>
      <trkpt lat="42.80816" lon="0.51948">
        <ele>1101.95</ele>
        <time>2018-08-07T13:35:04Z</time>
      </trkpt>
      <trkpt lat="42.80786" lon="0.51951">
        <ele>1098.11</ele>
        <time>2018-08-07T13:35:06Z</time>
      </trkpt>
      <trkpt lat="42.80754" lon="0.51949">
        <ele>1091.6</ele>
        <time>2018-08-07T13:35:08Z</time>
      </trkpt>
      <trkpt lat="42.8072" lon="0.51952">
        <ele>1086.47</ele>
        <time>2018-08-07T13:35:10Z</time>
      </trkpt>
      <trkpt lat="42.8069" lon="0.51967">
        <ele>1082.85</ele>
        <time>2018-08-07T13:35:12Z</time>
      </trkpt>
      <trkpt lat="42.80666" lon="0.51992">
        <ele>1080.71</ele>
        <time>2018-08-07T13:35:14Z</time>
      </trkpt>
      <trkpt lat="42.80652" lon="0.52032">
        <ele>1077.09</ele>
        <time>2018-08-07T13:35:16Z</time>
      </trkpt>
      <trkpt lat="42.80642" lon="0.52067">
        <ele>1073.12</ele>
        <time>2018-08-07T13:35:18Z</time>
      </trkpt>
      <trkpt lat="42.80632" lon="0.52096">
        <ele>1071.43</ele>
        <time>2018-08-07T13:35:20Z</time>
      </trkpt>
      <trkpt lat="42.80621" lon="0.52126">
        <ele>1068.55</ele>
        <time>2018-08-07T13:35:22Z</time>
      </trkpt>
      <trkpt lat="42.8061" lon="0.52155">
        <ele>1065.77</ele>
        <time>2018-08-07T13:35:24Z</time>
      </trkpt>
      <trkpt lat="42.80599" lon="0.52181">
        <ele>1063.7</ele>
        <time>2018-08-07T13:35:26Z</time>
      </trkpt>
      <trkpt lat="42.80595" lon="0.52212">
        <ele>1060.79</ele>
        <time>2018-08-07T13:35:28Z</time>
      </trkpt>
      <trkpt lat="42.80596" lon="0.52246">
        <ele>1059.61</ele>
        <time>2018-08-07T13:35:30Z</time>
      </trkpt>
      <trkpt lat="42.80599" lon="0.5228">
        <ele>1058.6</ele>
        <time>2018-08-07T13:35:32Z</time>
      </trkpt>
      <trkpt lat="42.80602" lon="0.52313">
        <ele>1058.3</ele>
        <time>2018-08-07T13:35:34Z</time>
      </trkpt>
      <trkpt lat="42.80603" lon="0.52346">
        <ele>1055.05</ele>
        <time>2018-08-07T13:35:36Z</time>
      </trkpt>
      <trkpt lat="42.80603" lon="0.52382">
        <ele>1052.73</ele>
        <time>2018-08-07T13:35:38Z</time>
      </trkpt>
      <trkpt lat="42.80603" lon="0.52417">
        <ele>1050.21</ele>
        <time>2018-08-07T13:35:40Z</time>
      </trkpt>
      <trkpt lat="42.80602" lon="0.52453">
        <ele>1046.34</ele>
        <time>2018-08-07T13:35:42Z</time>
      </trkpt>
      <trkpt lat="42.80602" lon="0.52487">
        <ele>1042.14</ele>
        <time>2018-08-07T13:35:44Z</time>
      </trkpt>
      <trkpt lat="42.80606" lon="0.52522">
        <ele>1039.74</ele>
        <time>2018-08-07T13:35:46Z</time>
      </trkpt>
      <trkpt lat="42.80614" lon="0.52561">
        <ele>1036.09</ele>
        <time>2018-08-07T13:35:48Z</time>
      </trkpt>
      <trkpt lat="42.8062" lon="0.52585">
        <ele>1035.51</ele>
        <time>2018-08-07T13:35:49Z</time>
      </trkpt>
      <trkpt lat="42.80626" lon="0.5261">
        <ele>1033.24</ele>
        <time>2018-08-07T13:35:50Z</time>
      </trkpt>
      <trkpt lat="42.80632" lon="0.52636">
        <ele>1031.16</ele>
        <time>2018-08-07T13:35:51Z</time>
      </trkpt>
      <trkpt lat="42.80637" lon="0.52662">
        <ele>1030.53</ele>
        <time>2018-08-07T13:35:52Z</time>
      </trkpt>
      <trkpt lat="42.80643" lon="0.52689">
        <ele>1028.95</ele>
        <time>2018-08-07T13:35:53Z</time>
      </trkpt>
      <trkpt lat="42.80648" lon="0.52714">
        <ele>1028.47</ele>
        <time>2018-08-07T13:35:54Z</time>
      </trkpt>
      <trkpt lat="42.80655" lon="0.5274">
        <ele>1027.63</ele>
        <time>2018-08-07T13:35:55Z</time>
      </trkpt>
      <trkpt lat="42.80662" lon="0.52764">
        <ele>1025.98</ele>
        <time>2018-08-07T13:35:56Z</time>
      </trkpt>
      <trkpt lat="42.80669" lon="0.52788">
        <ele>1024.78</ele>
        <time>2018-08-07T13:35:57Z</time>
      </trkpt>
      <trkpt lat="42.80678" lon="0.52811">
        <ele>1024.42</ele>
        <time>2018-08-07T13:35:58Z</time>
      </trkpt>
      <trkpt lat="42.80686" lon="0.52834">
        <ele>1023.61</ele>
        <time>2018-08-07T13:35:59Z</time>
      </trkpt>
      <trkpt lat="42.80695" lon="0.52856">
        <ele>1022.67</ele>
        <time>2018-08-07T13:36:00Z</time>
      </trkpt>
      <trkpt lat="42.80713" lon="0.52897">
        <ele>1019.08</ele>
        <time>2018-08-07T13:36:02Z</time>
      </trkpt>
      <trkpt lat="42.80724" lon="0.52942">
        <ele>1015.82</ele>
        <time>2018-08-07T13:36:04Z</time>
      </trkpt>
      <trkpt lat="42.8073" lon="0.52966">
        <ele>1015.43</ele>
        <time>2018-08-07T13:36:05Z</time>
      </trkpt>
      <trkpt lat="42.80733" lon="0.53007">
        <ele>1009.75</ele>
        <time>2018-08-07T13:36:07Z</time>
      </trkpt>
      <trkpt lat="42.80735" lon="0.53041">
        <ele>1005.39</ele>
        <time>2018-08-07T13:36:09Z</time>
      </trkpt>
      <trkpt lat="42.80733" lon="0.53073">
        <ele>1000.03</ele>
        <time>2018-08-07T13:36:11Z</time>
      </trkpt>
      <trkpt lat="42.80729" lon="0.53108">
        <ele>997.94</ele>
        <time>2018-08-07T13:36:13Z</time>
      </trkpt>
      <trkpt lat="42.80724" lon="0.53133">
        <ele>996.07</ele>
        <time>2018-08-07T13:36:14Z</time>
      </trkpt>
      <trkpt lat="42.80718" lon="0.53159">
        <ele>994.11</ele>
        <time>2018-08-07T13:36:15Z</time>
      </trkpt>
      <trkpt lat="42.80713" lon="0.53184">
        <ele>992.12</ele>
        <time>2018-08-07T13:36:16Z</time>
      </trkpt>
      <trkpt lat="42.80707" lon="0.53209">
        <ele>990.12</ele>
        <time>2018-08-07T13:36:17Z</time>
      </trkpt>
      <trkpt lat="42.80698" lon="0.53255">
        <ele>987.73</ele>
        <time>2018-08-07T13:36:19Z</time>
      </trkpt>
      <trkpt lat="42.80689" lon="0.53298">
        <ele>983.39</ele>
        <time>2018-08-07T13:36:21Z</time>
      </trkpt>
      <trkpt lat="42.80683" lon="0.53339">
        <ele>980.97</ele>
        <time>2018-08-07T13:36:23Z</time>
      </trkpt>
      <trkpt lat="42.80684" lon="0.53383">
        <ele>978.72</ele>
        <time>2018-08-07T13:36:25Z</time>
      </trkpt>
      <trkpt lat="42.80687" lon="0.5343">
        <ele>978.31</ele>
        <time>2018-08-07T13:36:27Z</time>
      </trkpt>
      <trkpt lat="42.80681" lon="0.53477">
        <ele>975.96</ele>
        <time>2018-08-07T13:36:29Z</time>
      </trkpt>
      <trkpt lat="42.80678" lon="0.53501">
        <ele>974.08</ele>
        <time>2018-08-07T13:36:30Z</time>
      </trkpt>
      <trkpt lat="42.80674" lon="0.53526">
        <ele>971.41</ele>
        <time>2018-08-07T13:36:31Z</time>
      </trkpt>
      <trkpt lat="42.80669" lon="0.53551">
        <ele>970.61</ele>
        <time>2018-08-07T13:36:32Z</time>
      </trkpt>
      <trkpt lat="42.80665" lon="0.53575">
        <ele>970.37</ele>
        <time>2018-08-07T13:36:33Z</time>
      </trkpt>
      <trkpt lat="42.8066" lon="0.53622">
        <ele>970.28</ele>
        <time>2018-08-07T13:36:35Z</time>
      </trkpt>
      <trkpt lat="42.80659" lon="0.53669">
        <ele>970.27</ele>
        <time>2018-08-07T13:36:37Z</time>
      </trkpt>
      <trkpt lat="42.80661" lon="0.53715">
        <ele>970.27</ele>
        <time>2018-08-07T13:36:39Z</time>
      </trkpt>
      <trkpt lat="42.80661" lon="0.53758">
        <ele>968.45</ele>
        <time>2018-08-07T13:36:41Z</time>
      </trkpt>
      <trkpt lat="42.80658" lon="0.53797">
        <ele>965.97</ele>
        <time>2018-08-07T13:36:43Z</time>
      </trkpt>
      <trkpt lat="42.80654" lon="0.53833">
        <ele>965.33</ele>
        <time>2018-08-07T13:36:45Z</time>
      </trkpt>
      <trkpt lat="42.80649" lon="0.53866">
        <ele>964.57</ele>
        <time>2018-08-07T13:36:47Z</time>
      </trkpt>
      <trkpt lat="42.80645" lon="0.53899">
        <ele>962.89</ele>
        <time>2018-08-07T13:36:49Z</time>
      </trkpt>
      <trkpt lat="42.8064" lon="0.53936">
        <ele>961.62</ele>
        <time>2018-08-07T13:36:51Z</time>
      </trkpt>
      <trkpt lat="42.80635" lon="0.53983">
        <ele>956.26</ele>
        <time>2018-08-07T13:36:53Z</time>
      </trkpt>
      <trkpt lat="42.80631" lon="0.54008">
        <ele>954.86</ele>
        <time>2018-08-07T13:36:54Z</time>
      </trkpt>
      <trkpt lat="42.80625" lon="0.54053">
        <ele>952.71</ele>
        <time>2018-08-07T13:36:56Z</time>
      </trkpt>
      <trkpt lat="42.80621" lon="0.54092">
        <ele>950.49</ele>
        <time>2018-08-07T13:36:58Z</time>
      </trkpt>
      <trkpt lat="42.8062" lon="0.54129">
        <ele>948.89</ele>
        <time>2018-08-07T13:37:00Z</time>
      </trkpt>
      <trkpt lat="42.80618" lon="0.54164">
        <ele>947.41</ele>
        <time>2018-08-07T13:37:02Z</time>
      </trkpt>
      <trkpt lat="42.80618" lon="0.54196">
        <ele>945.67</ele>
        <time>2018-08-07T13:37:04Z</time>
      </trkpt>
      <trkpt lat="42.80618" lon="0.54225">
        <ele>945.3</ele>
        <time>2018-08-07T13:37:06Z</time>
      </trkpt>
      <trkpt lat="42.80617" lon="0.54252">
        <ele>943.66</ele>
        <time>2018-08-07T13:37:08Z</time>
      </trkpt>
      <trkpt lat="42.80618" lon="0.54277">
        <ele>942.6</ele>
        <time>2018-08-07T13:37:10Z</time>
      </trkpt>
      <trkpt lat="42.80622" lon="0.54306">
        <ele>940.69</ele>
        <time>2018-08-07T13:37:12Z</time>
      </trkpt>
      <trkpt lat="42.80629" lon="0.54345">
        <ele>939.6</ele>
        <time>2018-08-07T13:37:14Z</time>
      </trkpt>
      <trkpt lat="42.80635" lon="0.54383">
        <ele>938.39</ele>
        <time>2018-08-07T13:37:16Z</time>
      </trkpt>
      <trkpt lat="42.80641" lon="0.54415">
        <ele>938.28</ele>
        <time>2018-08-07T13:37:18Z</time>
      </trkpt>
      <trkpt lat="42.80647" lon="0.54446">
        <ele>936.32</ele>
        <time>2018-08-07T13:37:21Z</time>
      </trkpt>
      <trkpt lat="42.80648" lon="0.54472">
        <ele>933.96</ele>
        <time>2018-08-07T13:37:23Z</time>
      </trkpt>
      <trkpt lat="42.80647" lon="0.54507">
        <ele>930.81</ele>
        <time>2018-08-07T13:37:25Z</time>
      </trkpt>
      <trkpt lat="42.80646" lon="0.54541">
        <ele>929.62</ele>
        <time>2018-08-07T13:37:27Z</time>
      </trkpt>
      <trkpt lat="42.80649" lon="0.54568">
        <ele>928.6</ele>
        <time>2018-08-07T13:37:29Z</time>
      </trkpt>
      <trkpt lat="42.80652" lon="0.54596">
        <ele>929.21</ele>
        <time>2018-08-07T13:37:31Z</time>
      </trkpt>
      <trkpt lat="42.80658" lon="0.54624">
        <ele>929.05</ele>
        <time>2018-08-07T13:37:33Z</time>
      </trkpt>
      <trkpt lat="42.80661" lon="0.54653">
        <ele>928.55</ele>
        <time>2018-08-07T13:37:35Z</time>
      </trkpt>
      <trkpt lat="42.8066" lon="0.54689">
        <ele>927.59</ele>
        <time>2018-08-07T13:37:37Z</time>
      </trkpt>
      <trkpt lat="42.80657" lon="0.54729">
        <ele>925.69</ele>
        <time>2018-08-07T13:37:39Z</time>
      </trkpt>
      <trkpt lat="42.80654" lon="0.54766">
        <ele>922.78</ele>
        <time>2018-08-07T13:37:41Z</time>
      </trkpt>
      <trkpt lat="42.80648" lon="0.548">
        <ele>919.09</ele>
        <time>2018-08-07T13:37:43Z</time>
      </trkpt>
      <trkpt lat="42.80636" lon="0.54832">
        <ele>916.03</ele>
        <time>2018-08-07T13:37:45Z</time>
      </trkpt>
      <trkpt lat="42.80629" lon="0.54865">
        <ele>912.82</ele>
        <time>2018-08-07T13:37:47Z</time>
      </trkpt>
      <trkpt lat="42.80626" lon="0.54905">
        <ele>910.71</ele>
        <time>2018-08-07T13:37:49Z</time>
      </trkpt>
      <trkpt lat="42.80629" lon="0.54942">
        <ele>907.79</ele>
        <time>2018-08-07T13:37:51Z</time>
      </trkpt>
      <trkpt lat="42.80631" lon="0.54974">
        <ele>906.61</ele>
        <time>2018-08-07T13:37:53Z</time>
      </trkpt>
      <trkpt lat="42.80628" lon="0.5501">
        <ele>907.21</ele>
        <time>2018-08-07T13:37:55Z</time>
      </trkpt>
      <trkpt lat="42.8062" lon="0.55053">
        <ele>903.83</ele>
        <time>2018-08-07T13:37:57Z</time>
      </trkpt>
      <trkpt lat="42.80614" lon="0.55102">
        <ele>900.31</ele>
        <time>2018-08-07T13:37:59Z</time>
      </trkpt>
      <trkpt lat="42.80611" lon="0.55127">
        <ele>898.88</ele>
        <time>2018-08-07T13:38:00Z</time>
      </trkpt>
      <trkpt lat="42.80607" lon="0.55152">
        <ele>898.45</ele>
        <time>2018-08-07T13:38:01Z</time>
      </trkpt>
      <trkpt lat="42.80602" lon="0.552">
        <ele>895.97</ele>
        <time>2018-08-07T13:38:03Z</time>
      </trkpt>
      <trkpt lat="42.80594" lon="0.55248">
        <ele>893.72</ele>
        <time>2018-08-07T13:38:05Z</time>
      </trkpt>
      <trkpt lat="42.80594" lon="0.55275">
        <ele>891.3</ele>
        <time>2018-08-07T13:38:06Z</time>
      </trkpt>
      <trkpt lat="42.80593" lon="0.55302">
        <ele>888.48</ele>
        <time>2018-08-07T13:38:07Z</time>
      </trkpt>
      <trkpt lat="42.80594" lon="0.5533">
        <ele>886.23</ele>
        <time>2018-08-07T13:38:08Z</time>
      </trkpt>
      <trkpt lat="42.80597" lon="0.55359">
        <ele>885.56</ele>
        <time>2018-08-07T13:38:09Z</time>
      </trkpt>
      <trkpt lat="42.806" lon="0.55389">
        <ele>884.65</ele>
        <time>2018-08-07T13:38:10Z</time>
      </trkpt>
      <trkpt lat="42.80603" lon="0.55419">
        <ele>883.68</ele>
        <time>2018-08-07T13:38:11Z</time>
      </trkpt>
      <trkpt lat="42.80606" lon="0.55447">
        <ele>880.59</ele>
        <time>2018-08-07T13:38:12Z</time>
      </trkpt>
      <trkpt lat="42.80608" lon="0.55477">
        <ele>879.66</ele>
        <time>2018-08-07T13:38:13Z</time>
      </trkpt>
      <trkpt lat="42.8061" lon="0.55505">
        <ele>880.79</ele>
        <time>2018-08-07T13:38:14Z</time>
      </trkpt>
      <trkpt lat="42.8061" lon="0.55533">
        <ele>881.12</ele>
        <time>2018-08-07T13:38:15Z</time>
      </trkpt>
      <trkpt lat="42.80607" lon="0.55581">
        <ele>879.85</ele>
        <time>2018-08-07T13:38:17Z</time>
      </trkpt>
      <trkpt lat="42.80604" lon="0.55606">
        <ele>879.44</ele>
        <time>2018-08-07T13:38:18Z</time>
      </trkpt>
      <trkpt lat="42.80597" lon="0.55654">
        <ele>877.46</ele>
        <time>2018-08-07T13:38:20Z</time>
      </trkpt>
      <trkpt lat="42.80593" lon="0.55682">
        <ele>876.63</ele>
        <time>2018-08-07T13:38:21Z</time>
      </trkpt>
      <trkpt lat="42.80586" lon="0.55706">
        <ele>875.67</ele>
        <time>2018-08-07T13:38:22Z</time>
      </trkpt>
      <trkpt lat="42.80577" lon="0.55732">
        <ele>873.99</ele>
        <time>2018-08-07T13:38:23Z</time>
      </trkpt>
      <trkpt lat="42.8057" lon="0.55756">
        <ele>871.38</ele>
        <time>2018-08-07T13:38:24Z</time>
      </trkpt>
      <trkpt lat="42.80564" lon="0.55779">
        <ele>867.8</ele>
        <time>2018-08-07T13:38:25Z</time>
      </trkpt>
      <trkpt lat="42.80551" lon="0.55821">
        <ele>862.49</ele>
        <time>2018-08-07T13:38:27Z</time>
      </trkpt>
      <trkpt lat="42.80546" lon="0.55858">
        <ele>857.25</ele>
        <time>2018-08-07T13:38:29Z</time>
      </trkpt>
      <trkpt lat="42.80546" lon="0.5589">
        <ele>855.66</ele>
        <time>2018-08-07T13:38:31Z</time>
      </trkpt>
      <trkpt lat="42.80556" lon="0.55913">
        <ele>851.87</ele>
        <time>2018-08-07T13:38:33Z</time>
      </trkpt>
      <trkpt lat="42.80595" lon="0.55932">
        <ele>850.62</ele>
        <time>2018-08-07T13:38:35Z</time>
      </trkpt>
      <trkpt lat="42.80624" lon="0.55946">
        <ele>848.48</ele>
        <time>2018-08-07T13:38:37Z</time>
      </trkpt>
      <trkpt lat="42.80646" lon="0.55959">
        <ele>847.38</ele>
        <time>2018-08-07T13:38:39Z</time>
      </trkpt>
      <trkpt lat="42.80655" lon="0.55983">
        <ele>843.99</ele>
        <time>2018-08-07T13:38:42Z</time>
      </trkpt>
      <trkpt lat="42.80625" lon="0.55973">
        <ele>839</ele>
        <time>2018-08-07T13:38:46Z</time>
      </trkpt>
      <trkpt lat="42.80607" lon="0.55963">
        <ele>837.09</ele>
        <time>2018-08-07T13:38:47Z</time>
      </trkpt>
      <trkpt lat="42.80577" lon="0.55962">
        <ele>834.24</ele>
        <time>2018-08-07T13:38:49Z</time>
      </trkpt>
      <trkpt lat="42.80543" lon="0.55963">
        <ele>831.04</ele>
        <time>2018-08-07T13:38:51Z</time>
      </trkpt>
      <trkpt lat="42.80514" lon="0.55976">
        <ele>828.73</ele>
        <time>2018-08-07T13:38:53Z</time>
      </trkpt>
      <trkpt lat="42.80488" lon="0.55988">
        <ele>825.79</ele>
        <time>2018-08-07T13:38:55Z</time>
      </trkpt>
      <trkpt lat="42.80468" lon="0.55993">
        <ele>823.7</ele>
        <time>2018-08-07T13:38:57Z</time>
      </trkpt>
      <trkpt lat="42.80453" lon="0.56018">
        <ele>820.7</ele>
        <time>2018-08-07T13:39:00Z</time>
      </trkpt>
      <trkpt lat="42.80472" lon="0.56036">
        <ele>817.49</ele>
        <time>2018-08-07T13:39:03Z</time>
      </trkpt>
      <trkpt lat="42.80505" lon="0.56013">
        <ele>816.38</ele>
        <time>2018-08-07T13:39:05Z</time>
      </trkpt>
      <trkpt lat="42.80537" lon="0.56006">
        <ele>815.58</ele>
        <time>2018-08-07T13:39:07Z</time>
      </trkpt>
      <trkpt lat="42.80571" lon="0.56011">
        <ele>813.68</ele>
        <time>2018-08-07T13:39:09Z</time>
      </trkpt>
      <trkpt lat="42.80602" lon="0.56022">
        <ele>811.69</ele>
        <time>2018-08-07T13:39:11Z</time>
      </trkpt>
      <trkpt lat="42.80627" lon="0.56036">
        <ele>810.61</ele>
        <time>2018-08-07T13:39:13Z</time>
      </trkpt>
      <trkpt lat="42.80643" lon="0.56056">
        <ele>809.39</ele>
        <time>2018-08-07T13:39:15Z</time>
      </trkpt>
      <trkpt lat="42.80638" lon="0.5608">
        <ele>809.28</ele>
        <time>2018-08-07T13:39:17Z</time>
      </trkpt>
      <trkpt lat="42.80622" lon="0.56105">
        <ele>809.27</ele>
        <time>2018-08-07T13:39:19Z</time>
      </trkpt>
      <trkpt lat="42.80601" lon="0.5611">
        <ele>808.57</ele>
        <time>2018-08-07T13:39:20Z</time>
      </trkpt>
      <trkpt lat="42.80565" lon="0.56117">
        <ele>808.5</ele>
        <time>2018-08-07T13:39:22Z</time>
      </trkpt>
      <trkpt lat="42.80528" lon="0.56122">
        <ele>807.64</ele>
        <time>2018-08-07T13:39:23Z</time>
      </trkpt>
      <trkpt lat="42.80503" lon="0.5613">
        <ele>806.68</ele>
        <time>2018-08-07T13:39:24Z</time>
      </trkpt>
      <trkpt lat="42.80483" lon="0.56145">
        <ele>803.59</ele>
        <time>2018-08-07T13:39:25Z</time>
      </trkpt>
      <trkpt lat="42.80461" lon="0.56157">
        <ele>801.26</ele>
        <time>2018-08-07T13:39:26Z</time>
      </trkpt>
      <trkpt lat="42.80439" lon="0.56169">
        <ele>798.47</ele>
        <time>2018-08-07T13:39:27Z</time>
      </trkpt>
      <trkpt lat="42.80419" lon="0.5618">
        <ele>796.23</ele>
        <time>2018-08-07T13:39:28Z</time>
      </trkpt>
      <trkpt lat="42.80399" lon="0.56188">
        <ele>792.75</ele>
        <time>2018-08-07T13:39:29Z</time>
      </trkpt>
      <trkpt lat="42.80378" lon="0.56194">
        <ele>790.31</ele>
        <time>2018-08-07T13:39:30Z</time>
      </trkpt>
      <trkpt lat="42.80347" lon="0.56195">
        <ele>786.14</ele>
        <time>2018-08-07T13:39:32Z</time>
      </trkpt>
      <trkpt lat="42.80316" lon="0.56205">
        <ele>784.44</ele>
        <time>2018-08-07T13:39:34Z</time>
      </trkpt>
      <trkpt lat="42.80292" lon="0.56238">
        <ele>780.85</ele>
        <time>2018-08-07T13:39:36Z</time>
      </trkpt>
      <trkpt lat="42.80275" lon="0.56284">
        <ele>776.61</ele>
        <time>2018-08-07T13:39:38Z</time>
      </trkpt>
      <trkpt lat="42.80262" lon="0.56305">
        <ele>774.27</ele>
        <time>2018-08-07T13:39:39Z</time>
      </trkpt>
      <trkpt lat="42.80246" lon="0.56328">
        <ele>772.87</ele>
        <time>2018-08-07T13:39:40Z</time>
      </trkpt>
      <trkpt lat="42.8023" lon="0.5635">
        <ele>771.75</ele>
        <time>2018-08-07T13:39:41Z</time>
      </trkpt>
      <trkpt lat="42.80213" lon="0.56372">
        <ele>770.01</ele>
        <time>2018-08-07T13:39:42Z</time>
      </trkpt>
      <trkpt lat="42.80197" lon="0.56394">
        <ele>768.79</ele>
        <time>2018-08-07T13:39:43Z</time>
      </trkpt>
      <trkpt lat="42.8018" lon="0.56417">
        <ele>768.42</ele>
        <time>2018-08-07T13:39:44Z</time>
      </trkpt>
      <trkpt lat="42.80165" lon="0.56438">
        <ele>767.61</ele>
        <time>2018-08-07T13:39:45Z</time>
      </trkpt>
      <trkpt lat="42.80149" lon="0.56459">
        <ele>767.37</ele>
        <time>2018-08-07T13:39:46Z</time>
      </trkpt>
      <trkpt lat="42.80132" lon="0.56479">
        <ele>767.3</ele>
        <time>2018-08-07T13:39:47Z</time>
      </trkpt>
      <trkpt lat="42.80118" lon="0.56494">
        <ele>765.88</ele>
        <time>2018-08-07T13:39:48Z</time>
      </trkpt>
      <trkpt lat="42.80088" lon="0.56513">
        <ele>763.92</ele>
        <time>2018-08-07T13:39:50Z</time>
      </trkpt>
      <trkpt lat="42.80059" lon="0.56531">
        <ele>761.72</ele>
        <time>2018-08-07T13:39:52Z</time>
      </trkpt>
      <trkpt lat="42.8003" lon="0.56544">
        <ele>758.79</ele>
        <time>2018-08-07T13:39:54Z</time>
      </trkpt>
      <trkpt lat="42.80001" lon="0.56568">
        <ele>758.31</ele>
        <time>2018-08-07T13:39:56Z</time>
      </trkpt>
      <trkpt lat="42.79984" lon="0.56582">
        <ele>758.28</ele>
        <time>2018-08-07T13:39:57Z</time>
      </trkpt>
      <trkpt lat="42.79968" lon="0.56598">
        <ele>758.97</ele>
        <time>2018-08-07T13:39:58Z</time>
      </trkpt>
      <trkpt lat="42.79951" lon="0.56615">
        <ele>759.18</ele>
        <time>2018-08-07T13:39:59Z</time>
      </trkpt>
      <trkpt lat="42.79933" lon="0.5663">
        <ele>759.24</ele>
        <time>2018-08-07T13:40:00Z</time>
      </trkpt>
      <trkpt lat="42.79904" lon="0.5665">
        <ele>757.44</ele>
        <time>2018-08-07T13:40:02Z</time>
      </trkpt>
      <trkpt lat="42.7987" lon="0.56659">
        <ele>756.58</ele>
        <time>2018-08-07T13:40:04Z</time>
      </trkpt>
      <trkpt lat="42.79836" lon="0.56663">
        <ele>756.3</ele>
        <time>2018-08-07T13:40:06Z</time>
      </trkpt>
      <trkpt lat="42.79809" lon="0.56661">
        <ele>755.36</ele>
        <time>2018-08-07T13:40:08Z</time>
      </trkpt>
      <trkpt lat="42.7979" lon="0.56661">
        <ele>754.37</ele>
        <time>2018-08-07T13:40:10Z</time>
      </trkpt>
      <trkpt lat="42.79766" lon="0.56674">
        <ele>754.97</ele>
        <time>2018-08-07T13:40:13Z</time>
      </trkpt>
      <trkpt lat="42.79749" lon="0.56693">
        <ele>755.03</ele>
        <time>2018-08-07T13:40:15Z</time>
      </trkpt>
      <trkpt lat="42.79736" lon="0.56727">
        <ele>752.73</ele>
        <time>2018-08-07T13:40:17Z</time>
      </trkpt>
      <trkpt lat="42.79721" lon="0.56761">
        <ele>753.01</ele>
        <time>2018-08-07T13:40:19Z</time>
      </trkpt>
      <trkpt lat="42.79704" lon="0.56789">
        <ele>752.33</ele>
        <time>2018-08-07T13:40:21Z</time>
      </trkpt>
      <trkpt lat="42.79687" lon="0.56821">
        <ele>751.36</ele>
        <time>2018-08-07T13:40:23Z</time>
      </trkpt>
      <trkpt lat="42.79672" lon="0.56864">
        <ele>748.55</ele>
        <time>2018-08-07T13:40:25Z</time>
      </trkpt>
      <trkpt lat="42.79658" lon="0.56908">
        <ele>746.89</ele>
        <time>2018-08-07T13:40:27Z</time>
      </trkpt>
      <trkpt lat="42.79645" lon="0.5695">
        <ele>744.92</ele>
        <time>2018-08-07T13:40:29Z</time>
      </trkpt>
      <trkpt lat="42.79635" lon="0.56982">
        <ele>744.12</ele>
        <time>2018-08-07T13:40:31Z</time>
      </trkpt>
      <trkpt lat="42.79629" lon="0.57013">
        <ele>744.25</ele>
        <time>2018-08-07T13:40:33Z</time>
      </trkpt>
      <trkpt lat="42.79627" lon="0.57041">
        <ele>743.57</ele>
        <time>2018-08-07T13:40:35Z</time>
      </trkpt>
      <trkpt lat="42.79623" lon="0.57068">
        <ele>743.99</ele>
        <time>2018-08-07T13:40:37Z</time>
      </trkpt>
      <trkpt lat="42.79628" lon="0.57101">
        <ele>744.24</ele>
        <time>2018-08-07T13:40:39Z</time>
      </trkpt>
      <trkpt lat="42.79636" lon="0.57125">
        <ele>744.26</ele>
        <time>2018-08-07T13:40:40Z</time>
      </trkpt>
      <trkpt lat="42.79644" lon="0.57149">
        <ele>744.26</ele>
        <time>2018-08-07T13:40:41Z</time>
      </trkpt>
      <trkpt lat="42.79653" lon="0.57173">
        <ele>744.27</ele>
        <time>2018-08-07T13:40:42Z</time>
      </trkpt>
      <trkpt lat="42.79658" lon="0.572">
        <ele>744.97</ele>
        <time>2018-08-07T13:40:43Z</time>
      </trkpt>
      <trkpt lat="42.79658" lon="0.57226">
        <ele>745.88</ele>
        <time>2018-08-07T13:40:44Z</time>
      </trkpt>
      <trkpt lat="42.79651" lon="0.57273">
        <ele>744.83</ele>
        <time>2018-08-07T13:40:46Z</time>
      </trkpt>
      <trkpt lat="42.79646" lon="0.57299">
        <ele>744.44</ele>
        <time>2018-08-07T13:40:47Z</time>
      </trkpt>
      <trkpt lat="42.7964" lon="0.57324">
        <ele>743.62</ele>
        <time>2018-08-07T13:40:48Z</time>
      </trkpt>
      <trkpt lat="42.79636" lon="0.5735">
        <ele>742.67</ele>
        <time>2018-08-07T13:40:49Z</time>
      </trkpt>
      <trkpt lat="42.79628" lon="0.57373">
        <ele>742.39</ele>
        <time>2018-08-07T13:40:50Z</time>
      </trkpt>
      <trkpt lat="42.79623" lon="0.57398">
        <ele>740.9</ele>
        <time>2018-08-07T13:40:51Z</time>
      </trkpt>
      <trkpt lat="42.79614" lon="0.57442">
        <ele>734.58</ele>
        <time>2018-08-07T13:40:53Z</time>
      </trkpt>
      <trkpt lat="42.79603" lon="0.57482">
        <ele>731.78</ele>
        <time>2018-08-07T13:40:55Z</time>
      </trkpt>
      <trkpt lat="42.79592" lon="0.5752">
        <ele>729.49</ele>
        <time>2018-08-07T13:40:57Z</time>
      </trkpt>
      <trkpt lat="42.79587" lon="0.57551">
        <ele>726.98</ele>
        <time>2018-08-07T13:40:59Z</time>
      </trkpt>
      <trkpt lat="42.79583" lon="0.57582">
        <ele>726.33</ele>
        <time>2018-08-07T13:41:01Z</time>
      </trkpt>
      <trkpt lat="42.79586" lon="0.57622">
        <ele>722.42</ele>
        <time>2018-08-07T13:41:03Z</time>
      </trkpt>
      <trkpt lat="42.79583" lon="0.5767">
        <ele>721.37</ele>
        <time>2018-08-07T13:41:05Z</time>
      </trkpt>
      <trkpt lat="42.79578" lon="0.57694">
        <ele>721.3</ele>
        <time>2018-08-07T13:41:06Z</time>
      </trkpt>
      <trkpt lat="42.79572" lon="0.57721">
        <ele>719.88</ele>
        <time>2018-08-07T13:41:07Z</time>
      </trkpt>
      <trkpt lat="42.79564" lon="0.5775">
        <ele>718.75</ele>
        <time>2018-08-07T13:41:08Z</time>
      </trkpt>
      <trkpt lat="42.79543" lon="0.57789">
        <ele>713.69</ele>
        <time>2018-08-07T13:41:10Z</time>
      </trkpt>
      <trkpt lat="42.79521" lon="0.57823">
        <ele>710.79</ele>
        <time>2018-08-07T13:41:12Z</time>
      </trkpt>
      <trkpt lat="42.79504" lon="0.57859">
        <ele>704.57</ele>
        <time>2018-08-07T13:41:14Z</time>
      </trkpt>
      <trkpt lat="42.79484" lon="0.57889">
        <ele>700.86</ele>
        <time>2018-08-07T13:41:16Z</time>
      </trkpt>
      <trkpt lat="42.79466" lon="0.5791">
        <ele>699.41</ele>
        <time>2018-08-07T13:41:18Z</time>
      </trkpt>
      <trkpt lat="42.79454" lon="0.57933">
        <ele>696.76</ele>
        <time>2018-08-07T13:41:20Z</time>
      </trkpt>
      <trkpt lat="42.79445" lon="0.5796">
        <ele>695.4</ele>
        <time>2018-08-07T13:41:22Z</time>
      </trkpt>
      <trkpt lat="42.79439" lon="0.57987">
        <ele>693.67</ele>
        <time>2018-08-07T13:41:24Z</time>
      </trkpt>
      <trkpt lat="42.79434" lon="0.58017">
        <ele>690.29</ele>
        <time>2018-08-07T13:41:26Z</time>
      </trkpt>
      <trkpt lat="42.79429" lon="0.58051">
        <ele>687.96</ele>
        <time>2018-08-07T13:41:28Z</time>
      </trkpt>
      <trkpt lat="42.79426" lon="0.58096">
        <ele>683.41</ele>
        <time>2018-08-07T13:41:30Z</time>
      </trkpt>
      <trkpt lat="42.79424" lon="0.58122">
        <ele>681.91</ele>
        <time>2018-08-07T13:41:31Z</time>
      </trkpt>
      <trkpt lat="42.79425" lon="0.58149">
        <ele>679.36</ele>
        <time>2018-08-07T13:41:32Z</time>
      </trkpt>
      <trkpt lat="42.79425" lon="0.58175">
        <ele>677.89</ele>
        <time>2018-08-07T13:41:33Z</time>
      </trkpt>
      <trkpt lat="42.79426" lon="0.582">
        <ele>676.06</ele>
        <time>2018-08-07T13:41:34Z</time>
      </trkpt>
      <trkpt lat="42.79425" lon="0.58224">
        <ele>675.5</ele>
        <time>2018-08-07T13:41:35Z</time>
      </trkpt>
      <trkpt lat="42.79423" lon="0.58275">
        <ele>672.07</ele>
        <time>2018-08-07T13:41:37Z</time>
      </trkpt>
      <trkpt lat="42.79418" lon="0.58299">
        <ele>670.81</ele>
        <time>2018-08-07T13:41:38Z</time>
      </trkpt>
      <trkpt lat="42.79413" lon="0.58325">
        <ele>669.03</ele>
        <time>2018-08-07T13:41:39Z</time>
      </trkpt>
      <trkpt lat="42.79406" lon="0.58353">
        <ele>667.8</ele>
        <time>2018-08-07T13:41:40Z</time>
      </trkpt>
      <trkpt lat="42.79403" lon="0.58382">
        <ele>666.03</ele>
        <time>2018-08-07T13:41:41Z</time>
      </trkpt>
      <trkpt lat="42.79401" lon="0.5841">
        <ele>663.39</ele>
        <time>2018-08-07T13:41:42Z</time>
      </trkpt>
      <trkpt lat="42.79395" lon="0.58439">
        <ele>662.61</ele>
        <time>2018-08-07T13:41:43Z</time>
      </trkpt>
      <trkpt lat="42.79388" lon="0.58466">
        <ele>660.97</ele>
        <time>2018-08-07T13:41:44Z</time>
      </trkpt>
      <trkpt lat="42.79377" lon="0.58506">
        <ele>659.63</ele>
        <time>2018-08-07T13:41:46Z</time>
      </trkpt>
      <trkpt lat="42.79365" lon="0.58546">
        <ele>656.08</ele>
        <time>2018-08-07T13:41:48Z</time>
      </trkpt>
      <trkpt lat="42.79353" lon="0.58584">
        <ele>652.12</ele>
        <time>2018-08-07T13:41:50Z</time>
      </trkpt>
      <trkpt lat="42.79344" lon="0.58615">
        <ele>648.61</ele>
        <time>2018-08-07T13:41:52Z</time>
      </trkpt>
      <trkpt lat="42.79339" lon="0.58645">
        <ele>646.69</ele>
        <time>2018-08-07T13:41:54Z</time>
      </trkpt>
      <trkpt lat="42.79339" lon="0.58675">
        <ele>644.48</ele>
        <time>2018-08-07T13:41:56Z</time>
      </trkpt>
      <trkpt lat="42.79342" lon="0.58703">
        <ele>643.38</ele>
        <time>2018-08-07T13:41:58Z</time>
      </trkpt>
      <trkpt lat="42.79344" lon="0.5873">
        <ele>642.58</ele>
        <time>2018-08-07T13:42:00Z</time>
      </trkpt>
      <trkpt lat="42.79345" lon="0.58764">
        <ele>642.28</ele>
        <time>2018-08-07T13:42:03Z</time>
      </trkpt>
      <trkpt lat="42.79326" lon="0.58778">
        <ele>640.58</ele>
        <time>2018-08-07T13:42:07Z</time>
      </trkpt>
      <trkpt lat="42.79302" lon="0.58766">
        <ele>640.29</ele>
        <time>2018-08-07T13:42:09Z</time>
      </trkpt>
      <trkpt lat="42.7928" lon="0.58759">
        <ele>641.88</ele>
        <time>2018-08-07T13:42:11Z</time>
      </trkpt>
      <trkpt lat="42.79257" lon="0.5875">
        <ele>642.23</ele>
        <time>2018-08-07T13:42:13Z</time>
      </trkpt>
      <trkpt lat="42.79234" lon="0.58742">
        <ele>642.26</ele>
        <time>2018-08-07T13:42:15Z</time>
      </trkpt>
      <trkpt lat="42.79211" lon="0.58737">
        <ele>642.27</ele>
        <time>2018-08-07T13:42:18Z</time>
      </trkpt>
      <trkpt lat="42.79192" lon="0.58742">
        <ele>640.48</ele>
        <time>2018-08-07T13:42:26Z</time>
      </trkpt>
      <trkpt lat="42.79187" lon="0.5877">
        <ele>640.29</ele>
        <time>2018-08-07T13:42:30Z</time>
      </trkpt>
      <trkpt lat="42.7918" lon="0.58795">
        <ele>638.66</ele>
        <time>2018-08-07T13:42:32Z</time>
      </trkpt>
      <trkpt lat="42.79175" lon="0.58822">
        <ele>637.39</ele>
        <time>2018-08-07T13:42:34Z</time>
      </trkpt>
      <trkpt lat="42.79169" lon="0.58851">
        <ele>636.58</ele>
        <time>2018-08-07T13:42:36Z</time>
      </trkpt>
      <trkpt lat="42.79161" lon="0.58876">
        <ele>634.68</ele>
        <time>2018-08-07T13:42:38Z</time>
      </trkpt>
      <trkpt lat="42.7916" lon="0.58902">
        <ele>636.12</ele>
        <time>2018-08-07T13:42:40Z</time>
      </trkpt>
      <trkpt lat="42.79155" lon="0.58929">
        <ele>636.26</ele>
        <time>2018-08-07T13:42:43Z</time>
      </trkpt>
      <trkpt lat="42.79156" lon="0.58955">
        <ele>634.28</ele>
        <time>2018-08-07T13:42:48Z</time>
      </trkpt>
      <trkpt lat="42.79173" lon="0.58964">
        <ele>635.24</ele>
        <time>2018-08-07T13:42:52Z</time>
      </trkpt>
      <trkpt lat="42.79189" lon="0.5898">
        <ele>633.6</ele>
        <time>2018-08-07T13:42:57Z</time>
      </trkpt>
      <trkpt lat="42.79188" lon="0.59009">
        <ele>634.16</ele>
        <time>2018-08-07T13:43:02Z</time>
      </trkpt>
      <trkpt lat="42.7919" lon="0.59037">
        <ele>633.27</ele>
        <time>2018-08-07T13:43:06Z</time>
      </trkpt>
      <trkpt lat="42.79186" lon="0.59065">
        <ele>635.17</ele>
        <time>2018-08-07T13:43:11Z</time>
      </trkpt>
      <trkpt lat="42.79186" lon="0.59093">
        <ele>635.57</ele>
        <time>2018-08-07T13:43:17Z</time>
      </trkpt>
      <trkpt lat="42.79186" lon="0.59117">
        <ele>634.27</ele>
        <time>2018-08-07T13:43:41Z</time>
      </trkpt>
      <trkpt lat="42.79163" lon="0.59119">
        <ele>634.29</ele>
        <time>2018-08-07T13:43:48Z</time>
      </trkpt>
      <trkpt lat="42.79141" lon="0.59116">
        <ele>633.35</ele>
        <time>2018-08-07T13:43:54Z</time>
      </trkpt>
      <trkpt lat="42.79118" lon="0.59113">
        <ele>635.13</ele>
        <time>2018-08-07T13:43:58Z</time>
      </trkpt>
      <trkpt lat="42.79098" lon="0.59121">
        <ele>635.26</ele>
        <time>2018-08-07T13:44:01Z</time>
      </trkpt>
      <trkpt lat="42.79079" lon="0.5913">
        <ele>635.27</ele>
        <time>2018-08-07T13:44:04Z</time>
      </trkpt>
      <trkpt lat="42.7906" lon="0.59141">
        <ele>632.68</ele>
        <time>2018-08-07T13:44:07Z</time>
      </trkpt>
      <trkpt lat="42.7904" lon="0.59152">
        <ele>632.28</ele>
        <time>2018-08-07T13:44:10Z</time>
      </trkpt>
      <trkpt lat="42.79015" lon="0.59164">
        <ele>631.61</ele>
        <time>2018-08-07T13:44:14Z</time>
      </trkpt>
      <trkpt lat="42.78995" lon="0.59172">
        <ele>631.98</ele>
        <time>2018-08-07T13:44:17Z</time>
      </trkpt>
      <trkpt lat="42.78978" lon="0.59179">
        <ele>631.97</ele>
        <time>2018-08-07T13:44:23Z</time>
      </trkpt>
      <trkpt lat="42.78959" lon="0.59189">
        <ele>632.26</ele>
        <time>2018-08-07T13:44:27Z</time>
      </trkpt>
      <trkpt lat="42.78937" lon="0.592">
        <ele>633.18</ele>
        <time>2018-08-07T13:44:30Z</time>
      </trkpt>
      <trkpt lat="42.78919" lon="0.59209">
        <ele>630.37</ele>
        <time>2018-08-07T13:44:34Z</time>
      </trkpt>
      <trkpt lat="42.78897" lon="0.59224">
        <ele>630.27</ele>
        <time>2018-08-07T13:44:38Z</time>
      </trkpt>
      <trkpt lat="42.78879" lon="0.59233">
        <ele>628.66</ele>
        <time>2018-08-07T13:44:41Z</time>
      </trkpt>
      <trkpt lat="42.78861" lon="0.59241">
        <ele>626.58</ele>
        <time>2018-08-07T13:44:46Z</time>
      </trkpt>
      <trkpt lat="42.78844" lon="0.5925">
        <ele>627.27</ele>
        <time>2018-08-07T13:44:55Z</time>
      </trkpt>
      <trkpt lat="42.78824" lon="0.59261">
        <ele>628.35</ele>
        <time>2018-08-07T13:45:01Z</time>
      </trkpt>
      <trkpt lat="42.78806" lon="0.59275">
        <ele>629.18</ele>
        <time>2018-08-07T13:45:06Z</time>
      </trkpt>
      <trkpt lat="42.78789" lon="0.59282">
        <ele>628.35</ele>
        <time>2018-08-07T13:45:09Z</time>
      </trkpt>
      <trkpt lat="42.78772" lon="0.59293">
        <ele>636.35</ele>
        <time>2018-08-07T13:45:23Z</time>
      </trkpt>
      <trkpt lat="42.78754" lon="0.59303">
        <ele>634.66</ele>
        <time>2018-08-07T13:45:29Z</time>
      </trkpt>
      <trkpt lat="42.78735" lon="0.5931">
        <ele>635.19</ele>
        <time>2018-08-07T13:45:32Z</time>
      </trkpt>
      <trkpt lat="42.78711" lon="0.5932">
        <ele>635.18</ele>
        <time>2018-08-07T13:45:36Z</time>
      </trkpt>
      <trkpt lat="42.78689" lon="0.59333">
        <ele>634.36</ele>
        <time>2018-08-07T13:45:40Z</time>
      </trkpt>
      <trkpt lat="42.7867" lon="0.59343">
        <ele>632.67</ele>
        <time>2018-08-07T13:45:42Z</time>
      </trkpt>
      <trkpt lat="42.78651" lon="0.59353">
        <ele>631.81</ele>
        <time>2018-08-07T13:45:44Z</time>
      </trkpt>
      <trkpt lat="42.7863" lon="0.59362">
        <ele>630.41</ele>
        <time>2018-08-07T13:45:46Z</time>
      </trkpt>
      <trkpt lat="42.78608" lon="0.59373">
        <ele>631.89</ele>
        <time>2018-08-07T13:45:48Z</time>
      </trkpt>
      <trkpt lat="42.78587" lon="0.59384">
        <ele>631.32</ele>
        <time>2018-08-07T13:45:50Z</time>
      </trkpt>
      <trkpt lat="42.78565" lon="0.59398">
        <ele>630.09</ele>
        <time>2018-08-07T13:45:53Z</time>
      </trkpt>
      <trkpt lat="42.78555" lon="0.59424">
        <ele>630.47</ele>
        <time>2018-08-07T13:45:56Z</time>
      </trkpt>
      <trkpt lat="42.78562" lon="0.59454">
        <ele>630.08</ele>
        <time>2018-08-07T13:45:58Z</time>
      </trkpt>
      <trkpt lat="42.7857" lon="0.59482">
        <ele>628.64</ele>
        <time>2018-08-07T13:46:00Z</time>
      </trkpt>
      <trkpt lat="42.7857" lon="0.59517">
        <ele>629.19</ele>
        <time>2018-08-07T13:46:03Z</time>
      </trkpt>
      <trkpt lat="42.7856" lon="0.59538">
        <ele>629.96</ele>
        <time>2018-08-07T13:46:05Z</time>
      </trkpt>
      <trkpt lat="42.78534" lon="0.59541">
        <ele>631.85</ele>
        <time>2018-08-07T13:46:07Z</time>
      </trkpt>
      <trkpt lat="42.78514" lon="0.59551">
        <ele>631.32</ele>
        <time>2018-08-07T13:46:09Z</time>
      </trkpt>
      <trkpt lat="42.78496" lon="0.59562">
        <ele>630.36</ele>
        <time>2018-08-07T13:46:11Z</time>
      </trkpt>
      <trkpt lat="42.78478" lon="0.5957">
        <ele>632.1</ele>
        <time>2018-08-07T13:46:13Z</time>
      </trkpt>
      <trkpt lat="42.78456" lon="0.59587">
        <ele>629.68</ele>
        <time>2018-08-07T13:46:16Z</time>
      </trkpt>
      <trkpt lat="42.78432" lon="0.59603">
        <ele>630.19</ele>
        <time>2018-08-07T13:46:19Z</time>
      </trkpt>
      <trkpt lat="42.78418" lon="0.59621">
        <ele>629.35</ele>
        <time>2018-08-07T13:46:22Z</time>
      </trkpt>
      <trkpt lat="42.78411" lon="0.59645">
        <ele>632.58</ele>
        <time>2018-08-07T13:46:31Z</time>
      </trkpt>
    </trkseg>
  </trk>
</gpx>